<?xml version='1.0' encoding='UTF-8'?><gpx version="1.1" creator="JPX - https://github.com/jenetics/jpx" xmlns="http://www.topografix.com/GPX/1/1"><trk><trkseg><trkpt lat="41.40211191294737" lon="13.9852180458854"><ele>149.99999999999997</ele><time>2026-04-12T08:07:27Z</time></trkpt><trkpt lat="41.402043894848575" lon="13.985263747361858"><ele>150.0</ele><time>2026-04-12T08:07:33Z</time></trkpt><trkpt lat="41.401970764469425" lon="13.985263784442907"><ele>150.0</ele><time>2026-04-12T08:07:40Z</time></trkpt><trkpt lat="41.401948835136174" lon="13.985173702263848"><ele>150.0</ele><time>2026-04-12T08:07:45Z</time></trkpt><trkpt lat="41.401927064864346" lon="13.985264538997574"><ele>150.0</ele><time>2026-04-12T08:08:34Z</time></trkpt><trkpt lat="41.40195353508042" lon="13.98517422372397"><ele>149.99999999999997</ele><time>2026-04-12T08:08:46Z</time></trkpt><trkpt lat="41.40200969402774" lon="13.985123733228285"><ele>150.0</ele><time>2026-04-12T08:10:17Z</time></trkpt><trkpt lat="41.40213003135421" lon="13.985082694278862"><ele>149.0</ele><time>2026-04-12T08:12:59Z</time></trkpt><trkpt lat="41.4022357473942" lon="13.98509548182056"><ele>148.0</ele><time>2026-04-12T08:13:04Z</time></trkpt><trkpt lat="41.40235340316771" lon="13.985152578317841"><ele>147.0</ele><time>2026-04-12T08:13:06Z</time></trkpt><trkpt lat="41.402437523248146" lon="13.985171636120434"><ele>146.0</ele><time>2026-04-12T08:13:07Z</time></trkpt><trkpt lat="41.402518689792515" lon="13.985187054149819"><ele>145.0</ele><time>2026-04-12T08:13:08Z</time></trkpt><trkpt lat="41.402608386588504" lon="13.98521106039165"><ele>145.0</ele><time>2026-04-12T08:13:09Z</time></trkpt><trkpt lat="41.402694502503344" lon="13.985217601639881"><ele>145.0</ele><time>2026-04-12T08:13:10Z</time></trkpt><trkpt lat="41.40278061729428" lon="13.985204287329433"><ele>145.0</ele><time>2026-04-12T08:13:11Z</time></trkpt><trkpt lat="41.402882575163126" lon="13.985237356227255"><ele>145.0</ele><time>2026-04-12T08:13:12Z</time></trkpt><trkpt lat="41.402980915818866" lon="13.98528182239366"><ele>145.0</ele><time>2026-04-12T08:13:13Z</time></trkpt><trkpt lat="41.40305876038542" lon="13.98535208983894"><ele>142.83333333333334</ele><time>2026-04-12T08:13:14Z</time></trkpt><trkpt lat="41.40312664915538" lon="13.985428688168893"><ele>140.66666666666669</ele><time>2026-04-12T08:13:15Z</time></trkpt><trkpt lat="41.40318606801629" lon="13.98548657037722"><ele>138.5</ele><time>2026-04-12T08:13:16Z</time></trkpt><trkpt lat="41.4032435542759" lon="13.985529503253646"><ele>136.33333333333334</ele><time>2026-04-12T08:13:17Z</time></trkpt><trkpt lat="41.40331949238097" lon="13.985650221500721"><ele>134.16666666666666</ele><time>2026-04-12T08:13:19Z</time></trkpt><trkpt lat="41.40337267551162" lon="13.985726919848979"><ele>132.0</ele><time>2026-04-12T08:13:20Z</time></trkpt><trkpt lat="41.40337953898565" lon="13.985812922446577"><ele>129.75</ele><time>2026-04-12T08:13:21Z</time></trkpt><trkpt lat="41.403427326601644" lon="13.985885817522005"><ele>127.5</ele><time>2026-04-12T08:13:22Z</time></trkpt><trkpt lat="41.40336071745984" lon="13.985933841245796"><ele>125.25</ele><time>2026-04-12T08:13:23Z</time></trkpt><trkpt lat="41.40339720898522" lon="13.986015634339411"><ele>123.0</ele><time>2026-04-12T08:13:24Z</time></trkpt><trkpt lat="41.403803615414475" lon="13.985904811105687"><ele>122.5</ele><time>2026-04-12T08:13:25Z</time></trkpt><trkpt lat="41.40384012703797" lon="13.985976057191355"><ele>122.0</ele><time>2026-04-12T08:13:26Z</time></trkpt><trkpt lat="41.403876893487386" lon="13.986072595582948"><ele>121.5</ele><time>2026-04-12T08:13:27Z</time></trkpt><trkpt lat="41.40391732792175" lon="13.986163299353564"><ele>121.0</ele><time>2026-04-12T08:13:28Z</time></trkpt><trkpt lat="41.40397705624043" lon="13.986246629951722"><ele>120.5</ele><time>2026-04-12T08:13:29Z</time></trkpt><trkpt lat="41.404065536518424" lon="13.986384491235096"><ele>120.0</ele><time>2026-04-12T08:13:31Z</time></trkpt><trkpt lat="41.40412498016235" lon="13.986436796532844"><ele>120.0</ele><time>2026-04-12T08:13:32Z</time></trkpt><trkpt lat="41.4042259069287" lon="13.986451731711522"><ele>120.0</ele><time>2026-04-12T08:13:33Z</time></trkpt><trkpt lat="41.40432531508567" lon="13.986448568854174"><ele>120.0</ele><time>2026-04-12T08:13:34Z</time></trkpt><trkpt lat="41.40441402672447" lon="13.986405677148394"><ele>120.0</ele><time>2026-04-12T08:13:35Z</time></trkpt><trkpt lat="41.404480250921466" lon="13.986416628756203"><ele>120.0</ele><time>2026-04-12T08:13:36Z</time></trkpt><trkpt lat="41.40455762570527" lon="13.986406331232612"><ele>120.0</ele><time>2026-04-12T08:13:37Z</time></trkpt><trkpt lat="41.40463430219374" lon="13.986360425532771"><ele>119.2</ele><time>2026-04-12T08:13:38Z</time></trkpt><trkpt lat="41.404715673584846" lon="13.986306969441115"><ele>118.4</ele><time>2026-04-12T08:13:40Z</time></trkpt><trkpt lat="41.40474612364324" lon="13.986208087290835"><ele>117.6</ele><time>2026-04-12T08:13:41Z</time></trkpt><trkpt lat="41.40478965351076" lon="13.986088394245858"><ele>116.8</ele><time>2026-04-12T08:13:42Z</time></trkpt><trkpt lat="41.40485903951555" lon="13.985930047888885"><ele>116.0</ele><time>2026-04-12T08:13:43Z</time></trkpt><trkpt lat="41.40489400495555" lon="13.98579649377807"><ele>115.99999999999999</ele><time>2026-04-12T08:13:44Z</time></trkpt><trkpt lat="41.40490923399026" lon="13.985704847152832"><ele>116.0</ele><time>2026-04-12T08:13:45Z</time></trkpt><trkpt lat="41.40488674772785" lon="13.9856204802196"><ele>116.0</ele><time>2026-04-12T08:13:47Z</time></trkpt><trkpt lat="41.40496656376123" lon="13.985495582285314"><ele>116.0</ele><time>2026-04-12T08:13:52Z</time></trkpt><trkpt lat="41.40501552197434" lon="13.98543066100636"><ele>115.99999999999999</ele><time>2026-04-12T08:13:53Z</time></trkpt><trkpt lat="41.405033174817255" lon="13.9853076848101"><ele>116.0</ele><time>2026-04-12T08:13:55Z</time></trkpt><trkpt lat="41.405062455112365" lon="13.985221453263222"><ele>116.0</ele><time>2026-04-12T08:13:59Z</time></trkpt><trkpt lat="41.405097082291654" lon="13.985124423355302"><ele>116.0</ele><time>2026-04-12T08:14:10Z</time></trkpt><trkpt lat="41.40508135433979" lon="13.985008330221428"><ele>116.0</ele><time>2026-04-12T08:14:12Z</time></trkpt><trkpt lat="41.40501738665669" lon="13.984901053346151"><ele>116.0</ele><time>2026-04-12T08:14:14Z</time></trkpt><trkpt lat="41.404960157432974" lon="13.984761376328061"><ele>116.0</ele><time>2026-04-12T08:14:17Z</time></trkpt><trkpt lat="41.40498533901" lon="13.98466967623758"><ele>117.16666666666666</ele><time>2026-04-12T08:14:18Z</time></trkpt><trkpt lat="41.405000155717275" lon="13.984587526709207"><ele>118.33333333333333</ele><time>2026-04-12T08:14:19Z</time></trkpt><trkpt lat="41.405103038254005" lon="13.984529389798604"><ele>119.5</ele><time>2026-04-12T08:14:22Z</time></trkpt><trkpt lat="41.405163586209575" lon="13.98442912483299"><ele>120.66666666666666</ele><time>2026-04-12T08:14:24Z</time></trkpt><trkpt lat="41.40524532009948" lon="13.984367879455444"><ele>121.83333333333333</ele><time>2026-04-12T08:14:26Z</time></trkpt><trkpt lat="41.40529639885052" lon="13.984318437133316"><ele>123.0</ele><time>2026-04-12T08:14:27Z</time></trkpt><trkpt lat="41.40535979784044" lon="13.984267745093263"><ele>123.0</ele><time>2026-04-12T08:14:28Z</time></trkpt><trkpt lat="41.40542970730151" lon="13.98422678761815"><ele>123.0</ele><time>2026-04-12T08:14:30Z</time></trkpt><trkpt lat="41.4054956837392" lon="13.984254802631845"><ele>123.0</ele><time>2026-04-12T08:14:31Z</time></trkpt><trkpt lat="41.40557050706921" lon="13.984252117430852"><ele>123.0</ele><time>2026-04-12T08:14:32Z</time></trkpt><trkpt lat="41.405652550730835" lon="13.984241498931645"><ele>123.0</ele><time>2026-04-12T08:14:33Z</time></trkpt><trkpt lat="41.405738949413134" lon="13.984194812205693"><ele>123.0</ele><time>2026-04-12T08:14:34Z</time></trkpt><trkpt lat="41.40585261747658" lon="13.984232602942697"><ele>123.33333333333333</ele><time>2026-04-12T08:14:36Z</time></trkpt><trkpt lat="41.40592162258672" lon="13.984203181983556"><ele>123.66666666666666</ele><time>2026-04-12T08:14:37Z</time></trkpt><trkpt lat="41.406039018380305" lon="13.984199444430526"><ele>124.0</ele><time>2026-04-12T08:14:39Z</time></trkpt><trkpt lat="41.40611546301984" lon="13.984212579576107"><ele>124.33333333333333</ele><time>2026-04-12T08:14:40Z</time></trkpt><trkpt lat="41.4061957648159" lon="13.9841890128072"><ele>124.66666666666666</ele><time>2026-04-12T08:14:41Z</time></trkpt><trkpt lat="41.40627099021386" lon="13.984173010976411"><ele>125.0</ele><time>2026-04-12T08:14:42Z</time></trkpt><trkpt lat="41.40634365438482" lon="13.984170388273489"><ele>124.2</ele><time>2026-04-12T08:14:43Z</time></trkpt><trkpt lat="41.40641513751287" lon="13.98418468310178"><ele>123.4</ele><time>2026-04-12T08:14:44Z</time></trkpt><trkpt lat="41.40648656219621" lon="13.984166547943238"><ele>122.6</ele><time>2026-04-12T08:14:45Z</time></trkpt><trkpt lat="41.40656674930307" lon="13.984078969670623"><ele>121.8</ele><time>2026-04-12T08:14:48Z</time></trkpt><trkpt lat="41.40662869612449" lon="13.98399126523227"><ele>121.0</ele><time>2026-04-12T08:14:50Z</time></trkpt><trkpt lat="41.40666865263965" lon="13.983845060955314"><ele>121.0</ele><time>2026-04-12T08:14:52Z</time></trkpt><trkpt lat="41.40669503001473" lon="13.983751412920478"><ele>121.0</ele><time>2026-04-12T08:14:53Z</time></trkpt><trkpt lat="41.406723287734636" lon="13.98361734029376"><ele>121.0</ele><time>2026-04-12T08:14:54Z</time></trkpt><trkpt lat="41.40674134000769" lon="13.983503571309864"><ele>121.0</ele><time>2026-04-12T08:14:55Z</time></trkpt><trkpt lat="41.40677602926614" lon="13.983368572989086"><ele>121.0</ele><time>2026-04-12T08:14:57Z</time></trkpt><trkpt lat="41.40683076700149" lon="13.983262342005906"><ele>120.0</ele><time>2026-04-12T08:14:59Z</time></trkpt><trkpt lat="41.407047645117686" lon="13.98324055803506"><ele>119.0</ele><time>2026-04-12T08:15:06Z</time></trkpt><trkpt lat="41.4071689398091" lon="13.983350939670379"><ele>118.0</ele><time>2026-04-12T08:15:08Z</time></trkpt><trkpt lat="41.407236339583946" lon="13.983407281591871"><ele>117.0</ele><time>2026-04-12T08:15:09Z</time></trkpt><trkpt lat="41.40730058925835" lon="13.983504416145005"><ele>118.33333333333334</ele><time>2026-04-12T08:15:10Z</time></trkpt><trkpt lat="41.40717059574361" lon="13.98376454846664"><ele>119.66666666666667</ele><time>2026-04-12T08:15:11Z</time></trkpt><trkpt lat="41.40720848905015" lon="13.983831691816071"><ele>121.0</ele><time>2026-04-12T08:15:12Z</time></trkpt><trkpt lat="41.407573643630045" lon="13.983283136416846"><ele>121.0</ele><time>2026-04-12T08:15:20Z</time></trkpt><trkpt lat="41.40762505634128" lon="13.983140475847353"><ele>121.0</ele><time>2026-04-12T08:15:21Z</time></trkpt><trkpt lat="41.40772066755785" lon="13.982923165001488"><ele>121.0</ele><time>2026-04-12T08:15:22Z</time></trkpt><trkpt lat="41.40780131119542" lon="13.982776122407147"><ele>121.0</ele><time>2026-04-12T08:15:23Z</time></trkpt><trkpt lat="41.407899900876856" lon="13.982639525860746"><ele>121.0</ele><time>2026-04-12T08:15:24Z</time></trkpt><trkpt lat="41.40799045928689" lon="13.982523915185027"><ele>121.0</ele><time>2026-04-12T08:15:25Z</time></trkpt><trkpt lat="41.40804505213922" lon="13.982455847290765"><ele>121.0</ele><time>2026-04-12T08:15:26Z</time></trkpt><trkpt lat="41.40810418722825" lon="13.98240174723755"><ele>121.0</ele><time>2026-04-12T08:15:30Z</time></trkpt><trkpt lat="41.408212873525486" lon="13.982425753546995"><ele>121.0</ele><time>2026-04-12T08:15:34Z</time></trkpt><trkpt lat="41.40825313014509" lon="13.982537477661939"><ele>127.0</ele><time>2026-04-12T08:15:36Z</time></trkpt><trkpt lat="41.40860180218898" lon="13.982941612708405"><ele>127.0</ele><time>2026-04-12T08:15:39Z</time></trkpt><trkpt lat="41.40869285902601" lon="13.983003518218345"><ele>126.99999999999999</ele><time>2026-04-12T08:15:40Z</time></trkpt><trkpt lat="41.40876710624945" lon="13.983053442926957"><ele>126.99999999999999</ele><time>2026-04-12T08:15:41Z</time></trkpt><trkpt lat="41.40888285266374" lon="13.983005519485214"><ele>127.0</ele><time>2026-04-12T08:15:43Z</time></trkpt><trkpt lat="41.40895535323561" lon="13.98290615502654"><ele>127.0</ele><time>2026-04-12T08:15:44Z</time></trkpt><trkpt lat="41.40905639070712" lon="13.982819145671305"><ele>126.83333333333334</ele><time>2026-04-12T08:15:45Z</time></trkpt><trkpt lat="41.40913478402248" lon="13.982768827918045"><ele>126.66666666666667</ele><time>2026-04-12T08:15:46Z</time></trkpt><trkpt lat="41.4091992330181" lon="13.982732407775472"><ele>126.5</ele><time>2026-04-12T08:15:47Z</time></trkpt><trkpt lat="41.40927093250281" lon="13.982773605574462"><ele>126.33333333333334</ele><time>2026-04-12T08:15:48Z</time></trkpt><trkpt lat="41.40933988989955" lon="13.982788211442424"><ele>126.16666666666667</ele><time>2026-04-12T08:15:49Z</time></trkpt><trkpt lat="41.40947338608756" lon="13.982752967879811"><ele>126.0</ele><time>2026-04-12T08:15:50Z</time></trkpt><trkpt lat="41.409546550022725" lon="13.982672458738172"><ele>126.4</ele><time>2026-04-12T08:15:51Z</time></trkpt><trkpt lat="41.409664051430326" lon="13.982597594145318"><ele>126.8</ele><time>2026-04-12T08:15:52Z</time></trkpt><trkpt lat="41.40975595417805" lon="13.982539070297433"><ele>127.20000000000002</ele><time>2026-04-12T08:15:53Z</time></trkpt><trkpt lat="41.4098399386756" lon="13.982495412132995"><ele>127.60000000000001</ele><time>2026-04-12T08:15:54Z</time></trkpt><trkpt lat="41.40990567723791" lon="13.982465092329878"><ele>128.0</ele><time>2026-04-12T08:15:55Z</time></trkpt><trkpt lat="41.409986422678365" lon="13.982427920897111"><ele>127.0</ele><time>2026-04-12T08:15:56Z</time></trkpt><trkpt lat="41.41007021693873" lon="13.982308691838979"><ele>126.0</ele><time>2026-04-12T08:15:57Z</time></trkpt><trkpt lat="41.41017547213042" lon="13.982231107514112"><ele>125.0</ele><time>2026-04-12T08:15:58Z</time></trkpt><trkpt lat="41.410291651595614" lon="13.982150123990571"><ele>124.0</ele><time>2026-04-12T08:15:59Z</time></trkpt><trkpt lat="41.41041142101454" lon="13.982061616526318"><ele>125.0</ele><time>2026-04-12T08:16:00Z</time></trkpt><trkpt lat="41.410534040108956" lon="13.98197343722215"><ele>126.0</ele><time>2026-04-12T08:16:01Z</time></trkpt><trkpt lat="41.41066192626675" lon="13.981910247918261"><ele>127.0</ele><time>2026-04-12T08:16:02Z</time></trkpt><trkpt lat="41.41078060458012" lon="13.981829688670713"><ele>128.0</ele><time>2026-04-12T08:16:03Z</time></trkpt><trkpt lat="41.41088888689938" lon="13.981756194197617"><ele>128.0</ele><time>2026-04-12T08:16:04Z</time></trkpt><trkpt lat="41.41098193530049" lon="13.981693040707349"><ele>128.0</ele><time>2026-04-12T08:16:05Z</time></trkpt><trkpt lat="41.41108021033476" lon="13.981621460348045"><ele>128.0</ele><time>2026-04-12T08:16:06Z</time></trkpt><trkpt lat="41.41116874466128" lon="13.981519141140456"><ele>128.0</ele><time>2026-04-12T08:16:07Z</time></trkpt><trkpt lat="41.41126137555375" lon="13.981406852633812"><ele>127.25</ele><time>2026-04-12T08:16:08Z</time></trkpt><trkpt lat="41.41134556600976" lon="13.98127241845038"><ele>126.5</ele><time>2026-04-12T08:16:09Z</time></trkpt><trkpt lat="41.41142904633409" lon="13.981133195065269"><ele>125.75</ele><time>2026-04-12T08:16:10Z</time></trkpt><trkpt lat="41.41151803149795" lon="13.980986506214455"><ele>125.0</ele><time>2026-04-12T08:16:11Z</time></trkpt><trkpt lat="41.41160825499233" lon="13.98084206305549"><ele>124.0</ele><time>2026-04-12T08:16:12Z</time></trkpt><trkpt lat="41.41169609139267" lon="13.980696051967483"><ele>123.0</ele><time>2026-04-12T08:16:13Z</time></trkpt><trkpt lat="41.41178642218268" lon="13.980552072743047"><ele>122.0</ele><time>2026-04-12T08:16:14Z</time></trkpt><trkpt lat="41.41188526559438" lon="13.980436725466118"><ele>121.0</ele><time>2026-04-12T08:16:15Z</time></trkpt><trkpt lat="41.41195190849668" lon="13.980328992307381"><ele>121.00000000000001</ele><time>2026-04-12T08:16:16Z</time></trkpt><trkpt lat="41.41200913592695" lon="13.980233020631628"><ele>121.0</ele><time>2026-04-12T08:16:17Z</time></trkpt><trkpt lat="41.412061823696426" lon="13.98014739484281"><ele>121.0</ele><time>2026-04-12T08:16:18Z</time></trkpt><trkpt lat="41.41209684025581" lon="13.980075919642877"><ele>121.0</ele><time>2026-04-12T08:16:19Z</time></trkpt><trkpt lat="41.412162864727335" lon="13.97999050081752"><ele>121.00000000000001</ele><time>2026-04-12T08:16:21Z</time></trkpt><trkpt lat="41.41219267503595" lon="13.979913848549176"><ele>121.0</ele><time>2026-04-12T08:16:23Z</time></trkpt><trkpt lat="41.4119999237818" lon="13.9796940813279"><ele>119.75</ele><time>2026-04-12T08:16:24Z</time></trkpt><trkpt lat="41.411930525562106" lon="13.979561691924825"><ele>118.5</ele><time>2026-04-12T08:16:25Z</time></trkpt><trkpt lat="41.4118683910729" lon="13.979404413261701"><ele>117.25</ele><time>2026-04-12T08:16:26Z</time></trkpt><trkpt lat="41.41183354819564" lon="13.979249475427697"><ele>116.0</ele><time>2026-04-12T08:16:27Z</time></trkpt><trkpt lat="41.41180372074089" lon="13.979152668128098"><ele>115.49999999999999</ele><time>2026-04-12T08:16:28Z</time></trkpt><trkpt lat="41.41178497648072" lon="13.979061215377925"><ele>115.0</ele><time>2026-04-12T08:16:30Z</time></trkpt><trkpt lat="41.41181582703015" lon="13.978939832911847"><ele>114.5</ele><time>2026-04-12T08:16:32Z</time></trkpt><trkpt lat="41.41173234458409" lon="13.978873122817266"><ele>114.0</ele><time>2026-04-12T08:16:36Z</time></trkpt><trkpt lat="41.411676885819006" lon="13.978828837493513"><ele>113.49999999999999</ele><time>2026-04-12T08:16:37Z</time></trkpt><trkpt lat="41.411640901276364" lon="13.978751782105661"><ele>113.0</ele><time>2026-04-12T08:16:38Z</time></trkpt><trkpt lat="41.41160569705222" lon="13.978670162750545"><ele>112.99999999999999</ele><time>2026-04-12T08:16:39Z</time></trkpt><trkpt lat="41.411567776251765" lon="13.9785511996832"><ele>113.0</ele><time>2026-04-12T08:16:41Z</time></trkpt><trkpt lat="41.41153760808005" lon="13.978466757236605"><ele>113.0</ele><time>2026-04-12T08:16:44Z</time></trkpt><trkpt lat="41.41143405606646" lon="13.978473907672084"><ele>113.0</ele><time>2026-04-12T08:16:46Z</time></trkpt><trkpt lat="41.41138890119851" lon="13.978379289099697"><ele>112.99999999999999</ele><time>2026-04-12T08:16:48Z</time></trkpt><trkpt lat="41.411408538729546" lon="13.97829682891278"><ele>113.0</ele><time>2026-04-12T08:16:49Z</time></trkpt><trkpt lat="41.41143304281011" lon="13.978210185049704"><ele>112.83333333333333</ele><time>2026-04-12T08:16:50Z</time></trkpt><trkpt lat="41.411492304755775" lon="13.978092033656209"><ele>112.66666666666666</ele><time>2026-04-12T08:16:51Z</time></trkpt><trkpt lat="41.41155134219392" lon="13.977985328118576"><ele>112.5</ele><time>2026-04-12T08:16:52Z</time></trkpt><trkpt lat="41.41160799244128" lon="13.977881357749338"><ele>112.33333333333334</ele><time>2026-04-12T08:16:53Z</time></trkpt><trkpt lat="41.41168159302432" lon="13.977832649079948"><ele>112.16666666666667</ele><time>2026-04-12T08:16:54Z</time></trkpt><trkpt lat="41.411731608876586" lon="13.97778074640872"><ele>112.0</ele><time>2026-04-12T08:16:56Z</time></trkpt><trkpt lat="41.41172875991302" lon="13.977647527518641"><ele>112.00000000000001</ele><time>2026-04-12T08:17:00Z</time></trkpt><trkpt lat="41.41170175791867" lon="13.977562937345066"><ele>112.0</ele><time>2026-04-12T08:17:01Z</time></trkpt><trkpt lat="41.41171540720399" lon="13.977475849427679"><ele>112.0</ele><time>2026-04-12T08:17:02Z</time></trkpt><trkpt lat="41.411694696333385" lon="13.977354209805998"><ele>112.0</ele><time>2026-04-12T08:17:05Z</time></trkpt><trkpt lat="41.411697681881236" lon="13.977203546362698"><ele>112.00000000000001</ele><time>2026-04-12T08:17:07Z</time></trkpt><trkpt lat="41.41168405249052" lon="13.977077901657303"><ele>112.0</ele><time>2026-04-12T08:17:08Z</time></trkpt><trkpt lat="41.41165597019135" lon="13.976959097803755"><ele>111.50000000000001</ele><time>2026-04-12T08:17:09Z</time></trkpt><trkpt lat="41.411598026491305" lon="13.976832833084668"><ele>111.0</ele><time>2026-04-12T08:17:11Z</time></trkpt><trkpt lat="41.411507126010605" lon="13.976794188422135"><ele>110.5</ele><time>2026-04-12T08:17:13Z</time></trkpt><trkpt lat="41.41148225706945" lon="13.976715172899297"><ele>110.0</ele><time>2026-04-12T08:17:14Z</time></trkpt><trkpt lat="41.411481628571856" lon="13.976618303420551"><ele>109.50000000000001</ele><time>2026-04-12T08:17:15Z</time></trkpt><trkpt lat="41.411505803105335" lon="13.976497774259613"><ele>109.0</ele><time>2026-04-12T08:17:17Z</time></trkpt><trkpt lat="41.411563583587295" lon="13.976417472037907"><ele>108.0</ele><time>2026-04-12T08:17:21Z</time></trkpt><trkpt lat="41.41162495662825" lon="13.976370989766602"><ele>107.0</ele><time>2026-04-12T08:17:23Z</time></trkpt><trkpt lat="41.41169886568219" lon="13.9762937162932"><ele>106.0</ele><time>2026-04-12T08:17:25Z</time></trkpt><trkpt lat="41.411789908571954" lon="13.976135259841424"><ele>105.0</ele><time>2026-04-12T08:17:27Z</time></trkpt><trkpt lat="41.41183251034691" lon="13.976055310435084"><ele>104.0</ele><time>2026-04-12T08:17:28Z</time></trkpt><trkpt lat="41.41183496428587" lon="13.97596965787457"><ele>105.0</ele><time>2026-04-12T08:17:30Z</time></trkpt><trkpt lat="41.41177883168761" lon="13.975847310378839"><ele>106.0</ele><time>2026-04-12T08:17:33Z</time></trkpt><trkpt lat="41.411692125551376" lon="13.97524156410197"><ele>106.00000000000001</ele><time>2026-04-12T08:17:37Z</time></trkpt><trkpt lat="41.4117372816994" lon="13.975118517752263"><ele>106.0</ele><time>2026-04-12T08:17:38Z</time></trkpt><trkpt lat="41.41179407672704" lon="13.975050116599878"><ele>106.0</ele><time>2026-04-12T08:17:39Z</time></trkpt><trkpt lat="41.41184909957438" lon="13.974947648386024"><ele>106.0</ele><time>2026-04-12T08:17:40Z</time></trkpt><trkpt lat="41.411768497164815" lon="13.9749687587623"><ele>106.00000000000001</ele><time>2026-04-12T08:17:42Z</time></trkpt><trkpt lat="41.41170654854365" lon="13.975043647061376"><ele>106.0</ele><time>2026-04-12T08:17:44Z</time></trkpt><trkpt lat="41.411625091626284" lon="13.975066239868458"><ele>106.00000000000001</ele><time>2026-04-12T08:17:45Z</time></trkpt><trkpt lat="41.41159750682114" lon="13.975157390238296"><ele>106.0</ele><time>2026-04-12T08:17:47Z</time></trkpt><trkpt lat="41.411573236534394" lon="13.97525110972199"><ele>106.0</ele><time>2026-04-12T08:17:48Z</time></trkpt><trkpt lat="41.41155559868847" lon="13.97536908777131"><ele>106.0</ele><time>2026-04-12T08:17:49Z</time></trkpt><trkpt lat="41.41155450398752" lon="13.975507021420013"><ele>106.00000000000001</ele><time>2026-04-12T08:17:50Z</time></trkpt><trkpt lat="41.4116164690534" lon="13.97558283086051"><ele>106.0</ele><time>2026-04-12T08:17:52Z</time></trkpt><trkpt lat="41.411534032178835" lon="13.975515493532555"><ele>106.0</ele><time>2026-04-12T08:17:53Z</time></trkpt><trkpt lat="41.411447289871866" lon="13.975614101074333"><ele>106.0</ele><time>2026-04-12T08:17:55Z</time></trkpt><trkpt lat="41.4113388614794" lon="13.975642494349332"><ele>106.0</ele><time>2026-04-12T08:17:56Z</time></trkpt><trkpt lat="41.41128159031316" lon="13.97560363014411"><ele>106.0</ele><time>2026-04-12T08:17:57Z</time></trkpt><trkpt lat="41.41136185388579" lon="13.975544766895883"><ele>106.0</ele><time>2026-04-12T08:18:01Z</time></trkpt><trkpt lat="41.4113501214899" lon="13.975433053911106"><ele>106.0</ele><time>2026-04-12T08:18:03Z</time></trkpt><trkpt lat="41.411459833481054" lon="13.975149534244837"><ele>106.0</ele><time>2026-04-12T08:18:04Z</time></trkpt><trkpt lat="41.41155241325165" lon="13.974861756664184"><ele>107.25</ele><time>2026-04-12T08:18:05Z</time></trkpt><trkpt lat="41.41162681082777" lon="13.974723114993223"><ele>108.5</ele><time>2026-04-12T08:18:06Z</time></trkpt><trkpt lat="41.41170176250644" lon="13.97458061679621"><ele>109.75</ele><time>2026-04-12T08:18:07Z</time></trkpt><trkpt lat="41.411756878853296" lon="13.974449140290883"><ele>111.0</ele><time>2026-04-12T08:18:08Z</time></trkpt><trkpt lat="41.411822453533" lon="13.974335684569255"><ele>111.0</ele><time>2026-04-12T08:18:09Z</time></trkpt><trkpt lat="41.41185891258998" lon="13.974244703335719"><ele>111.0</ele><time>2026-04-12T08:18:10Z</time></trkpt><trkpt lat="41.41194989047691" lon="13.97411401614455"><ele>111.0</ele><time>2026-04-12T08:18:12Z</time></trkpt><trkpt lat="41.41187824090145" lon="13.973896787081724"><ele>111.0</ele><time>2026-04-12T08:18:13Z</time></trkpt><trkpt lat="41.41191874925532" lon="13.97379530089679"><ele>111.75</ele><time>2026-04-12T08:18:14Z</time></trkpt><trkpt lat="41.41195751701034" lon="13.973691628179377"><ele>112.5</ele><time>2026-04-12T08:18:15Z</time></trkpt><trkpt lat="41.41207155445561" lon="13.973542785836962"><ele>113.25</ele><time>2026-04-12T08:18:16Z</time></trkpt><trkpt lat="41.41214971446496" lon="13.97341150986381"><ele>114.0</ele><time>2026-04-12T08:18:17Z</time></trkpt><trkpt lat="41.41223173547956" lon="13.973286301168539"><ele>112.25</ele><time>2026-04-12T08:18:18Z</time></trkpt><trkpt lat="41.41231736909735" lon="13.973153514694621"><ele>110.5</ele><time>2026-04-12T08:18:19Z</time></trkpt><trkpt lat="41.412393630354366" lon="13.973037173816973"><ele>108.75</ele><time>2026-04-12T08:18:20Z</time></trkpt><trkpt lat="41.41247636088784" lon="13.972922759680305"><ele>107.0</ele><time>2026-04-12T08:18:21Z</time></trkpt><trkpt lat="41.41255304990123" lon="13.972811279652014"><ele>107.0</ele><time>2026-04-12T08:18:22Z</time></trkpt><trkpt lat="41.412609940107394" lon="13.97277381200322"><ele>106.99999999999999</ele><time>2026-04-12T08:18:23Z</time></trkpt><trkpt lat="41.41271472163727" lon="13.972691837210839"><ele>106.99999999999999</ele><time>2026-04-12T08:18:24Z</time></trkpt><trkpt lat="41.41280615748581" lon="13.972596888724544"><ele>107.0</ele><time>2026-04-12T08:18:25Z</time></trkpt><trkpt lat="41.41286298697709" lon="13.972530051642334"><ele>107.0</ele><time>2026-04-12T08:18:26Z</time></trkpt><trkpt lat="41.41291598544097" lon="13.972456504304292"><ele>106.25</ele><time>2026-04-12T08:18:27Z</time></trkpt><trkpt lat="41.412956060103966" lon="13.972336796101121"><ele>105.5</ele><time>2026-04-12T08:18:28Z</time></trkpt><trkpt lat="41.412986433537775" lon="13.972194027222953"><ele>104.75</ele><time>2026-04-12T08:18:29Z</time></trkpt><trkpt lat="41.41303658081908" lon="13.972018910570913"><ele>104.0</ele><time>2026-04-12T08:18:30Z</time></trkpt><trkpt lat="41.41307053075253" lon="13.971891305948471"><ele>104.0</ele><time>2026-04-12T08:18:31Z</time></trkpt><trkpt lat="41.413092009788514" lon="13.971780423716217"><ele>104.0</ele><time>2026-04-12T08:18:32Z</time></trkpt><trkpt lat="41.41308429519436" lon="13.971649795309478"><ele>104.0</ele><time>2026-04-12T08:18:33Z</time></trkpt><trkpt lat="41.413052512202654" lon="13.971516527350689"><ele>104.0</ele><time>2026-04-12T08:18:34Z</time></trkpt><trkpt lat="41.41303007992649" lon="13.971366170058603"><ele>104.0</ele><time>2026-04-12T08:18:35Z</time></trkpt><trkpt lat="41.4130418086582" lon="13.971253954752914"><ele>104.16666666666666</ele><time>2026-04-12T08:18:36Z</time></trkpt><trkpt lat="41.413036116983356" lon="13.971139164031372"><ele>104.33333333333333</ele><time>2026-04-12T08:18:38Z</time></trkpt><trkpt lat="41.41300996065492" lon="13.971034650734428"><ele>104.5</ele><time>2026-04-12T08:18:39Z</time></trkpt><trkpt lat="41.41299155856021" lon="13.970934996952082"><ele>104.66666666666666</ele><time>2026-04-12T08:18:40Z</time></trkpt><trkpt lat="41.41298243120998" lon="13.970796193091337"><ele>104.83333333333333</ele><time>2026-04-12T08:18:41Z</time></trkpt><trkpt lat="41.41299160693299" lon="13.970675102931294"><ele>105.0</ele><time>2026-04-12T08:18:42Z</time></trkpt><trkpt lat="41.41300767875818" lon="13.970537089558668"><ele>105.0</ele><time>2026-04-12T08:18:43Z</time></trkpt><trkpt lat="41.4130188964756" lon="13.970404238969826"><ele>105.0</ele><time>2026-04-12T08:18:44Z</time></trkpt><trkpt lat="41.41301238823259" lon="13.970211617337167"><ele>105.0</ele><time>2026-04-12T08:18:45Z</time></trkpt><trkpt lat="41.41301355939691" lon="13.970053163958115"><ele>105.0</ele><time>2026-04-12T08:18:46Z</time></trkpt><trkpt lat="41.41302496439435" lon="13.969934026821239"><ele>105.2</ele><time>2026-04-12T08:18:47Z</time></trkpt><trkpt lat="41.41306467704295" lon="13.969824344609808"><ele>105.4</ele><time>2026-04-12T08:18:48Z</time></trkpt><trkpt lat="41.41311640230329" lon="13.969709896731699"><ele>105.6</ele><time>2026-04-12T08:18:49Z</time></trkpt><trkpt lat="41.41318494590414" lon="13.96957957582634"><ele>105.8</ele><time>2026-04-12T08:18:50Z</time></trkpt><trkpt lat="41.41322188711492" lon="13.96946049446573"><ele>106.0</ele><time>2026-04-12T08:18:51Z</time></trkpt><trkpt lat="41.41325486143556" lon="13.969359874352119"><ele>106.00000000000001</ele><time>2026-04-12T08:18:52Z</time></trkpt><trkpt lat="41.413279839245796" lon="13.969266323720912"><ele>106.0</ele><time>2026-04-12T08:18:53Z</time></trkpt><trkpt lat="41.41327132711948" lon="13.969152174258493"><ele>106.0</ele><time>2026-04-12T08:18:55Z</time></trkpt><trkpt lat="41.413181553597084" lon="13.969052214623881"><ele>106.0</ele><time>2026-04-12T08:18:57Z</time></trkpt><trkpt lat="41.41311451517999" lon="13.969038815139939"><ele>106.00000000000001</ele><time>2026-04-12T08:18:58Z</time></trkpt><trkpt lat="41.41305527462724" lon="13.968990741468028"><ele>106.0</ele><time>2026-04-12T08:18:59Z</time></trkpt><trkpt lat="41.4129645204495" lon="13.968933719882717"><ele>105.25</ele><time>2026-04-12T08:19:00Z</time></trkpt><trkpt lat="41.412865552186105" lon="13.968843362038985"><ele>104.5</ele><time>2026-04-12T08:19:02Z</time></trkpt><trkpt lat="41.41280058625475" lon="13.968813818094306"><ele>103.75</ele><time>2026-04-12T08:19:03Z</time></trkpt><trkpt lat="41.412873231520564" lon="13.968674599414836"><ele>103.0</ele><time>2026-04-12T08:19:07Z</time></trkpt><trkpt lat="41.41299977984617" lon="13.968567135614169"><ele>103.0</ele><time>2026-04-12T08:19:09Z</time></trkpt><trkpt lat="41.4130929844611" lon="13.968472677796335"><ele>103.0</ele><time>2026-04-12T08:19:10Z</time></trkpt><trkpt lat="41.413170494662936" lon="13.96837937646195"><ele>103.0</ele><time>2026-04-12T08:19:11Z</time></trkpt><trkpt lat="41.413249334964135" lon="13.968253942725173"><ele>103.0</ele><time>2026-04-12T08:19:12Z</time></trkpt><trkpt lat="41.41336701483079" lon="13.968147498272458"><ele>103.33333333333334</ele><time>2026-04-12T08:19:13Z</time></trkpt><trkpt lat="41.413495928741604" lon="13.96802267679645"><ele>103.66666666666666</ele><time>2026-04-12T08:19:14Z</time></trkpt><trkpt lat="41.4136155956199" lon="13.967897126742983"><ele>104.0</ele><time>2026-04-12T08:19:15Z</time></trkpt><trkpt lat="41.413731030893665" lon="13.967780810570035"><ele>104.25</ele><time>2026-04-12T08:19:16Z</time></trkpt><trkpt lat="41.413848385937214" lon="13.967677282027212"><ele>104.5</ele><time>2026-04-12T08:19:17Z</time></trkpt><trkpt lat="41.413964487677966" lon="13.96761047710588"><ele>104.75</ele><time>2026-04-12T08:19:18Z</time></trkpt><trkpt lat="41.414082968780264" lon="13.967559928898936"><ele>105.0</ele><time>2026-04-12T08:19:19Z</time></trkpt><trkpt lat="41.4141955345148" lon="13.967493443890156"><ele>105.75</ele><time>2026-04-12T08:19:20Z</time></trkpt><trkpt lat="41.41429573907344" lon="13.96738783336201"><ele>106.5</ele><time>2026-04-12T08:19:21Z</time></trkpt><trkpt lat="41.41439957246982" lon="13.967245534560108"><ele>107.25</ele><time>2026-04-12T08:19:22Z</time></trkpt><trkpt lat="41.41449332595466" lon="13.967131197028104"><ele>108.0</ele><time>2026-04-12T08:19:23Z</time></trkpt><trkpt lat="41.41457209677738" lon="13.967048148634854"><ele>108.0</ele><time>2026-04-12T08:19:24Z</time></trkpt><trkpt lat="41.41462719501144" lon="13.966988863672274"><ele>108.0</ele><time>2026-04-12T08:19:25Z</time></trkpt><trkpt lat="41.414685162057346" lon="13.96694761094367"><ele>108.0</ele><time>2026-04-12T08:19:27Z</time></trkpt><trkpt lat="41.41478223021635" lon="13.967022735729072"><ele>108.0</ele><time>2026-04-12T08:19:29Z</time></trkpt><trkpt lat="41.414852897202024" lon="13.967067697222209"><ele>108.0</ele><time>2026-04-12T08:19:30Z</time></trkpt><trkpt lat="41.41494539776089" lon="13.967050640510235"><ele>108.0</ele><time>2026-04-12T08:19:32Z</time></trkpt><trkpt lat="41.415007458283405" lon="13.96702633638617"><ele>107.75</ele><time>2026-04-12T08:19:33Z</time></trkpt><trkpt lat="41.41505162497302" lon="13.966822190867044"><ele>107.5</ele><time>2026-04-12T08:19:35Z</time></trkpt><trkpt lat="41.41507445347379" lon="13.966620005716694"><ele>107.25</ele><time>2026-04-12T08:19:36Z</time></trkpt><trkpt lat="41.41509316207064" lon="13.966463736755616"><ele>107.0</ele><time>2026-04-12T08:19:37Z</time></trkpt><trkpt lat="41.41509740388506" lon="13.966350432069257"><ele>107.0</ele><time>2026-04-12T08:19:39Z</time></trkpt><trkpt lat="41.41515333584697" lon="13.966398943847402"><ele>106.99999999999999</ele><time>2026-04-12T08:19:41Z</time></trkpt><trkpt lat="41.41519774985358" lon="13.966465468845445"><ele>106.99999999999999</ele><time>2026-04-12T08:19:42Z</time></trkpt><trkpt lat="41.4152888550031" lon="13.966549164552205"><ele>107.0</ele><time>2026-04-12T08:19:44Z</time></trkpt><trkpt lat="41.41535311590597" lon="13.966635114218708"><ele>107.0</ele><time>2026-04-12T08:19:45Z</time></trkpt><trkpt lat="41.41548290642915" lon="13.966862878376276"><ele>105.5</ele><time>2026-04-12T08:19:46Z</time></trkpt><trkpt lat="41.41555743799226" lon="13.967029699717921"><ele>104.0</ele><time>2026-04-12T08:19:47Z</time></trkpt><trkpt lat="41.41561757315071" lon="13.967212833204202"><ele>102.5</ele><time>2026-04-12T08:19:48Z</time></trkpt><trkpt lat="41.415648750012195" lon="13.967387839002365"><ele>101.0</ele><time>2026-04-12T08:19:49Z</time></trkpt><trkpt lat="41.41569065264981" lon="13.967590018331201"><ele>100.66666666666666</ele><time>2026-04-12T08:19:50Z</time></trkpt><trkpt lat="41.415732696823476" lon="13.967792880558802"><ele>100.33333333333334</ele><time>2026-04-12T08:19:51Z</time></trkpt><trkpt lat="41.415778312402885" lon="13.968006318589469"><ele>100.0</ele><time>2026-04-12T08:19:52Z</time></trkpt><trkpt lat="41.415823730339426" lon="13.968218808299666"><ele>98.66666666666667</ele><time>2026-04-12T08:19:53Z</time></trkpt><trkpt lat="41.41586915928473" lon="13.968430338943104"><ele>97.33333333333334</ele><time>2026-04-12T08:19:54Z</time></trkpt><trkpt lat="41.41591635806177" lon="13.968648097873672"><ele>96.0</ele><time>2026-04-12T08:19:55Z</time></trkpt><trkpt lat="41.41596200868803" lon="13.968858714182934"><ele>96.0</ele><time>2026-04-12T08:19:56Z</time></trkpt><trkpt lat="41.41600180631755" lon="13.969042006790927"><ele>96.0</ele><time>2026-04-12T08:19:57Z</time></trkpt><trkpt lat="41.41603680463887" lon="13.969201302926248"><ele>96.0</ele><time>2026-04-12T08:19:58Z</time></trkpt><trkpt lat="41.416069076189885" lon="13.969344477622732"><ele>96.0</ele><time>2026-04-12T08:19:59Z</time></trkpt><trkpt lat="41.41610301798872" lon="13.969458148658937"><ele>95.6</ele><time>2026-04-12T08:20:00Z</time></trkpt><trkpt lat="41.41609918998246" lon="13.969575536356679"><ele>95.19999999999999</ele><time>2026-04-12T08:20:01Z</time></trkpt><trkpt lat="41.41609673266694" lon="13.969684368034255"><ele>94.80000000000001</ele><time>2026-04-12T08:20:03Z</time></trkpt><trkpt lat="41.416227716719526" lon="13.96973665821707"><ele>94.4</ele><time>2026-04-12T08:20:06Z</time></trkpt><trkpt lat="41.41630372054982" lon="13.969695913643227"><ele>94.0</ele><time>2026-04-12T08:20:07Z</time></trkpt><trkpt lat="41.41639731324962" lon="13.969650063967105"><ele>94.0</ele><time>2026-04-12T08:20:08Z</time></trkpt><trkpt lat="41.41651268994669" lon="13.96962190495331"><ele>94.0</ele><time>2026-04-12T08:20:09Z</time></trkpt><trkpt lat="41.416621206860526" lon="13.969575349201264"><ele>94.0</ele><time>2026-04-12T08:20:10Z</time></trkpt><trkpt lat="41.41672675938616" lon="13.969528944157107"><ele>94.0</ele><time>2026-04-12T08:20:11Z</time></trkpt><trkpt lat="41.41682021918604" lon="13.969486084321662"><ele>94.0</ele><time>2026-04-12T08:20:12Z</time></trkpt><trkpt lat="41.41689519658928" lon="13.9694396264199"><ele>94.0</ele><time>2026-04-12T08:20:13Z</time></trkpt><trkpt lat="41.41695486288327" lon="13.969385303719255"><ele>94.0</ele><time>2026-04-12T08:20:14Z</time></trkpt><trkpt lat="41.416977227181505" lon="13.969275195232488"><ele>94.0</ele><time>2026-04-12T08:20:15Z</time></trkpt><trkpt lat="41.41693897160735" lon="13.969106565912435"><ele>94.0</ele><time>2026-04-12T08:20:16Z</time></trkpt><trkpt lat="41.416912908897906" lon="13.968953215114102"><ele>94.0</ele><time>2026-04-12T08:20:17Z</time></trkpt><trkpt lat="41.41689288702307" lon="13.968787017661766"><ele>94.25</ele><time>2026-04-12T08:20:18Z</time></trkpt><trkpt lat="41.41685254009025" lon="13.968606608166223"><ele>94.5</ele><time>2026-04-12T08:20:19Z</time></trkpt><trkpt lat="41.416794754192715" lon="13.968431580625769"><ele>94.75</ele><time>2026-04-12T08:20:20Z</time></trkpt><trkpt lat="41.41676224111347" lon="13.968239189732563"><ele>95.0</ele><time>2026-04-12T08:20:21Z</time></trkpt><trkpt lat="41.416702046442936" lon="13.968060861391999"><ele>96.5</ele><time>2026-04-12T08:20:22Z</time></trkpt><trkpt lat="41.416645607947174" lon="13.967876480403541"><ele>98.0</ele><time>2026-04-12T08:20:23Z</time></trkpt><trkpt lat="41.4165903794501" lon="13.967717235121683"><ele>99.5</ele><time>2026-04-12T08:20:24Z</time></trkpt><trkpt lat="41.41655235740467" lon="13.967571842192926"><ele>101.0</ele><time>2026-04-12T08:20:25Z</time></trkpt><trkpt lat="41.41654764445186" lon="13.967453222447498"><ele>103.19999999999999</ele><time>2026-04-12T08:20:26Z</time></trkpt><trkpt lat="41.41657511602303" lon="13.967359065365917"><ele>105.39999999999999</ele><time>2026-04-12T08:20:27Z</time></trkpt><trkpt lat="41.41662050984498" lon="13.967259689512131"><ele>107.6</ele><time>2026-04-12T08:20:28Z</time></trkpt><trkpt lat="41.41666405205679" lon="13.967131897820392"><ele>109.8</ele><time>2026-04-12T08:20:29Z</time></trkpt><trkpt lat="41.4166982644022" lon="13.966986000298142"><ele>112.0</ele><time>2026-04-12T08:20:30Z</time></trkpt><trkpt lat="41.41672998710506" lon="13.966825573909471"><ele>112.0</ele><time>2026-04-12T08:20:31Z</time></trkpt><trkpt lat="41.41676261012665" lon="13.966654028811396"><ele>112.0</ele><time>2026-04-12T08:20:32Z</time></trkpt><trkpt lat="41.41679568508334" lon="13.966483475545077"><ele>112.0</ele><time>2026-04-12T08:20:33Z</time></trkpt><trkpt lat="41.41683518233535" lon="13.966278611563544"><ele>112.0</ele><time>2026-04-12T08:20:34Z</time></trkpt><trkpt lat="41.41687707346699" lon="13.966054243736577"><ele>110.0</ele><time>2026-04-12T08:20:35Z</time></trkpt><trkpt lat="41.41691377070799" lon="13.965852181246042"><ele>108.0</ele><time>2026-04-12T08:20:36Z</time></trkpt><trkpt lat="41.41695464249037" lon="13.965651182962128"><ele>106.0</ele><time>2026-04-12T08:20:37Z</time></trkpt><trkpt lat="41.41699485947267" lon="13.965436598482636"><ele>106.0</ele><time>2026-04-12T08:20:38Z</time></trkpt><trkpt lat="41.4170346639826" lon="13.9652241827889"><ele>106.0</ele><time>2026-04-12T08:20:39Z</time></trkpt><trkpt lat="41.417074687956266" lon="13.965032730810007"><ele>106.0</ele><time>2026-04-12T08:20:40Z</time></trkpt><trkpt lat="41.41711629041107" lon="13.964861109224389"><ele>106.0</ele><time>2026-04-12T08:20:41Z</time></trkpt><trkpt lat="41.41717173368775" lon="13.96470050994078"><ele>108.75</ele><time>2026-04-12T08:20:42Z</time></trkpt><trkpt lat="41.41724454059867" lon="13.96454321775419"><ele>111.5</ele><time>2026-04-12T08:20:43Z</time></trkpt><trkpt lat="41.4173295207741" lon="13.964390651333796"><ele>114.25</ele><time>2026-04-12T08:20:44Z</time></trkpt><trkpt lat="41.41741270648265" lon="13.964236208026064"><ele>117.0</ele><time>2026-04-12T08:20:45Z</time></trkpt><trkpt lat="41.41749270870221" lon="13.964072744917178"><ele>117.0</ele><time>2026-04-12T08:20:46Z</time></trkpt><trkpt lat="41.417585139967514" lon="13.963909189471734"><ele>117.0</ele><time>2026-04-12T08:20:47Z</time></trkpt><trkpt lat="41.41766796934915" lon="13.963760130914041"><ele>117.0</ele><time>2026-04-12T08:20:48Z</time></trkpt><trkpt lat="41.417749961666296" lon="13.963606135809906"><ele>117.0</ele><time>2026-04-12T08:20:49Z</time></trkpt><trkpt lat="41.41783277330459" lon="13.963423845104112"><ele>121.66666666666666</ele><time>2026-04-12T08:20:50Z</time></trkpt><trkpt lat="41.417904084959304" lon="13.963240285580474"><ele>126.33333333333333</ele><time>2026-04-12T08:20:51Z</time></trkpt><trkpt lat="41.41796566004432" lon="13.96304216404481"><ele>131.0</ele><time>2026-04-12T08:20:52Z</time></trkpt><trkpt lat="41.418023151840785" lon="13.962831070967567"><ele>131.0</ele><time>2026-04-12T08:20:53Z</time></trkpt><trkpt lat="41.41807703322309" lon="13.962619346456492"><ele>131.0</ele><time>2026-04-12T08:20:54Z</time></trkpt><trkpt lat="41.418139319764194" lon="13.96240902841282"><ele>131.0</ele><time>2026-04-12T08:20:55Z</time></trkpt><trkpt lat="41.41820563188061" lon="13.962199047022526"><ele>125.66666666666666</ele><time>2026-04-12T08:20:56Z</time></trkpt><trkpt lat="41.418273471082664" lon="13.962015661037062"><ele>120.33333333333334</ele><time>2026-04-12T08:20:57Z</time></trkpt><trkpt lat="41.418362749215355" lon="13.961846924113104"><ele>115.0</ele><time>2026-04-12T08:20:58Z</time></trkpt><trkpt lat="41.41846224603325" lon="13.961682912857023"><ele>110.33333333333334</ele><time>2026-04-12T08:20:59Z</time></trkpt><trkpt lat="41.418559050557874" lon="13.961511657205783"><ele>105.66666666666666</ele><time>2026-04-12T08:21:00Z</time></trkpt><trkpt lat="41.418648106737855" lon="13.961334595346175"><ele>101.0</ele><time>2026-04-12T08:21:01Z</time></trkpt><trkpt lat="41.41873955567021" lon="13.96115803922448"><ele>106.66666666666666</ele><time>2026-04-12T08:21:02Z</time></trkpt><trkpt lat="41.41882959873425" lon="13.960980539657577"><ele>112.33333333333334</ele><time>2026-04-12T08:21:03Z</time></trkpt><trkpt lat="41.41891649384511" lon="13.960794211154775"><ele>118.0</ele><time>2026-04-12T08:21:04Z</time></trkpt><trkpt lat="41.41900194684978" lon="13.960602443306032"><ele>118.0</ele><time>2026-04-12T08:21:05Z</time></trkpt><trkpt lat="41.4190880845418" lon="13.960407204723857"><ele>118.0</ele><time>2026-04-12T08:21:06Z</time></trkpt><trkpt lat="41.4191844424434" lon="13.960214031053402"><ele>118.0</ele><time>2026-04-12T08:21:07Z</time></trkpt><trkpt lat="41.41928937390558" lon="13.960022659701263"><ele>112.33333333333334</ele><time>2026-04-12T08:21:08Z</time></trkpt><trkpt lat="41.41938824847221" lon="13.959836405132895"><ele>106.66666666666666</ele><time>2026-04-12T08:21:09Z</time></trkpt><trkpt lat="41.41948190040178" lon="13.959666681904528"><ele>101.0</ele><time>2026-04-12T08:21:10Z</time></trkpt><trkpt lat="41.41956973865811" lon="13.959507177421877"><ele>105.0</ele><time>2026-04-12T08:21:11Z</time></trkpt><trkpt lat="41.419658090962024" lon="13.959354361881852"><ele>109.0</ele><time>2026-04-12T08:21:12Z</time></trkpt><trkpt lat="41.419756175654534" lon="13.959185341888855"><ele>113.0</ele><time>2026-04-12T08:21:13Z</time></trkpt><trkpt lat="41.41985804508668" lon="13.959029276921292"><ele>113.0</ele><time>2026-04-12T08:21:14Z</time></trkpt><trkpt lat="41.41997178071318" lon="13.958870455630853"><ele>113.0</ele><time>2026-04-12T08:21:15Z</time></trkpt><trkpt lat="41.4200934768879" lon="13.958719216755783"><ele>113.0</ele><time>2026-04-12T08:21:16Z</time></trkpt><trkpt lat="41.42021410616188" lon="13.958564080770431"><ele>113.0</ele><time>2026-04-12T08:21:17Z</time></trkpt><trkpt lat="41.42032699492315" lon="13.958413592697166"><ele>113.0</ele><time>2026-04-12T08:21:18Z</time></trkpt><trkpt lat="41.42042804527803" lon="13.958265210587683"><ele>113.0</ele><time>2026-04-12T08:21:19Z</time></trkpt><trkpt lat="41.42051551146649" lon="13.958121519734163"><ele>113.0</ele><time>2026-04-12T08:21:20Z</time></trkpt><trkpt lat="41.420593171750454" lon="13.957957569921604"><ele>110.33333333333333</ele><time>2026-04-12T08:21:21Z</time></trkpt><trkpt lat="41.42066500968112" lon="13.957772004073155"><ele>107.66666666666666</ele><time>2026-04-12T08:21:22Z</time></trkpt><trkpt lat="41.42073828250449" lon="13.957572180773598"><ele>105.0</ele><time>2026-04-12T08:21:23Z</time></trkpt><trkpt lat="41.42080963898217" lon="13.957359374464376"><ele>105.0</ele><time>2026-04-12T08:21:24Z</time></trkpt><trkpt lat="41.42087891129138" lon="13.957144315484534"><ele>105.0</ele><time>2026-04-12T08:21:25Z</time></trkpt><trkpt lat="41.42094559870752" lon="13.95693412262355"><ele>105.0</ele><time>2026-04-12T08:21:26Z</time></trkpt><trkpt lat="41.421012614387635" lon="13.956724474081422"><ele>100.66666666666667</ele><time>2026-04-12T08:21:27Z</time></trkpt><trkpt lat="41.4210877762396" lon="13.95652601695593"><ele>96.33333333333334</ele><time>2026-04-12T08:21:28Z</time></trkpt><trkpt lat="41.42117241344284" lon="13.95633514613139"><ele>92.0</ele><time>2026-04-12T08:21:29Z</time></trkpt><trkpt lat="41.42125706338779" lon="13.956156319943268"><ele>97.0</ele><time>2026-04-12T08:21:30Z</time></trkpt><trkpt lat="41.42132995939579" lon="13.955979467895979"><ele>102.0</ele><time>2026-04-12T08:21:31Z</time></trkpt><trkpt lat="41.42138843509568" lon="13.955785551726912"><ele>107.0</ele><time>2026-04-12T08:21:32Z</time></trkpt><trkpt lat="41.42143358105465" lon="13.95557505054327"><ele>107.0</ele><time>2026-04-12T08:21:33Z</time></trkpt><trkpt lat="41.421470054150134" lon="13.955368707172322"><ele>107.0</ele><time>2026-04-12T08:21:34Z</time></trkpt><trkpt lat="41.421497211108324" lon="13.955207365665972"><ele>107.0</ele><time>2026-04-12T08:21:35Z</time></trkpt><trkpt lat="41.42151823623253" lon="13.955088381786675"><ele>107.0</ele><time>2026-04-12T08:21:36Z</time></trkpt><trkpt lat="41.42153292804491" lon="13.95498870719995"><ele>105.66666666666666</ele><time>2026-04-12T08:21:37Z</time></trkpt><trkpt lat="41.421549897667184" lon="13.954875772084225"><ele>104.33333333333333</ele><time>2026-04-12T08:21:39Z</time></trkpt><trkpt lat="41.42157262478165" lon="13.954762065129866"><ele>103.0</ele><time>2026-04-12T08:21:41Z</time></trkpt><trkpt lat="41.421587165307564" lon="13.954657441756192"><ele>101.66666666666666</ele><time>2026-04-12T08:21:42Z</time></trkpt><trkpt lat="41.42159695020941" lon="13.95455236247471"><ele>100.33333333333333</ele><time>2026-04-12T08:21:43Z</time></trkpt><trkpt lat="41.421603048840005" lon="13.954405903362948"><ele>99.0</ele><time>2026-04-12T08:21:44Z</time></trkpt><trkpt lat="41.42159770800609" lon="13.95428701641296"><ele>97.80000000000001</ele><time>2026-04-12T08:21:45Z</time></trkpt><trkpt lat="41.42160353189977" lon="13.954201266112527"><ele>96.60000000000001</ele><time>2026-04-12T08:21:46Z</time></trkpt><trkpt lat="41.421632353350915" lon="13.954075361852114"><ele>95.4</ele><time>2026-04-12T08:21:47Z</time></trkpt><trkpt lat="41.42169203078453" lon="13.953974883062596"><ele>94.2</ele><time>2026-04-12T08:21:48Z</time></trkpt><trkpt lat="41.42176206142877" lon="13.953893687974917"><ele>93.0</ele><time>2026-04-12T08:21:49Z</time></trkpt><trkpt lat="41.42185625201591" lon="13.953713655268546"><ele>93.0</ele><time>2026-04-12T08:21:50Z</time></trkpt><trkpt lat="41.42193640995479" lon="13.95347787974273"><ele>93.0</ele><time>2026-04-12T08:21:51Z</time></trkpt><trkpt lat="41.421987556371015" lon="13.953277015697667"><ele>93.0</ele><time>2026-04-12T08:21:52Z</time></trkpt><trkpt lat="41.4220377589106" lon="13.95305441777959"><ele>91.5</ele><time>2026-04-12T08:21:53Z</time></trkpt><trkpt lat="41.422073332597094" lon="13.952871927517643"><ele>90.0</ele><time>2026-04-12T08:21:54Z</time></trkpt><trkpt lat="41.42209998324598" lon="13.952727200330996"><ele>88.5</ele><time>2026-04-12T08:21:55Z</time></trkpt><trkpt lat="41.4221307406535" lon="13.952551684291455"><ele>87.0</ele><time>2026-04-12T08:21:56Z</time></trkpt><trkpt lat="41.42216065038445" lon="13.952371923191455"><ele>91.0</ele><time>2026-04-12T08:21:57Z</time></trkpt><trkpt lat="41.422189324604844" lon="13.952208897985328"><ele>95.0</ele><time>2026-04-12T08:21:58Z</time></trkpt><trkpt lat="41.42221392567965" lon="13.95207110792834"><ele>98.99999999999999</ele><time>2026-04-12T08:21:59Z</time></trkpt><trkpt lat="41.422241640793004" lon="13.951938930405868"><ele>103.0</ele><time>2026-04-12T08:22:01Z</time></trkpt><trkpt lat="41.42225294618435" lon="13.951832466570917"><ele>107.0</ele><time>2026-04-12T08:22:02Z</time></trkpt><trkpt lat="41.42224294222781" lon="13.951724184912667"><ele>105.39999999999999</ele><time>2026-04-12T08:22:06Z</time></trkpt><trkpt lat="41.42230356355698" lon="13.951684387578425"><ele>103.79999999999998</ele><time>2026-04-12T08:22:09Z</time></trkpt><trkpt lat="41.42236002917613" lon="13.951596797219642"><ele>102.2</ele><time>2026-04-12T08:22:10Z</time></trkpt><trkpt lat="41.422439862814734" lon="13.951463930937967"><ele>100.6</ele><time>2026-04-12T08:22:12Z</time></trkpt><trkpt lat="41.42256318605076" lon="13.95131678516153"><ele>99.0</ele><time>2026-04-12T08:22:14Z</time></trkpt><trkpt lat="41.42262859921532" lon="13.95122484296069"><ele>99.0</ele><time>2026-04-12T08:22:15Z</time></trkpt><trkpt lat="41.42269556582213" lon="13.951130016842308"><ele>99.0</ele><time>2026-04-12T08:22:16Z</time></trkpt><trkpt lat="41.42275403617641" lon="13.951043945701247"><ele>99.0</ele><time>2026-04-12T08:22:17Z</time></trkpt><trkpt lat="41.42280506136389" lon="13.95090357068572"><ele>99.0</ele><time>2026-04-12T08:22:18Z</time></trkpt><trkpt lat="41.42290016006518" lon="13.950631387872821"><ele>97.75</ele><time>2026-04-12T08:22:19Z</time></trkpt><trkpt lat="41.42297525918763" lon="13.950477585896172"><ele>96.5</ele><time>2026-04-12T08:22:20Z</time></trkpt><trkpt lat="41.42300309798409" lon="13.950292998867184"><ele>95.25</ele><time>2026-04-12T08:22:21Z</time></trkpt><trkpt lat="41.42302433150433" lon="13.95012403321479"><ele>94.0</ele><time>2026-04-12T08:22:22Z</time></trkpt><trkpt lat="41.42303021887907" lon="13.950002030559753"><ele>97.0</ele><time>2026-04-12T08:22:23Z</time></trkpt><trkpt lat="41.42302654395344" lon="13.94990811562912"><ele>100.0</ele><time>2026-04-12T08:22:24Z</time></trkpt><trkpt lat="41.42303753555503" lon="13.94976064320524"><ele>103.0</ele><time>2026-04-12T08:22:25Z</time></trkpt><trkpt lat="41.42304008020739" lon="13.949636256993285"><ele>106.0</ele><time>2026-04-12T08:22:26Z</time></trkpt><trkpt lat="41.42304305604196" lon="13.949522654397878"><ele>109.0</ele><time>2026-04-12T08:22:27Z</time></trkpt><trkpt lat="41.42301435668524" lon="13.949394404411905"><ele>109.0</ele><time>2026-04-12T08:22:29Z</time></trkpt><trkpt lat="41.42299778981229" lon="13.949301946382908"><ele>109.0</ele><time>2026-04-12T08:22:30Z</time></trkpt><trkpt lat="41.42275760251276" lon="13.949006891239033"><ele>109.0</ele><time>2026-04-12T08:22:31Z</time></trkpt><trkpt lat="41.422788626985" lon="13.94890347407731"><ele>107.4</ele><time>2026-04-12T08:22:32Z</time></trkpt><trkpt lat="41.42284756590125" lon="13.948817461485373"><ele>105.80000000000001</ele><time>2026-04-12T08:22:33Z</time></trkpt><trkpt lat="41.42295622554971" lon="13.948694654808731"><ele>104.19999999999999</ele><time>2026-04-12T08:22:34Z</time></trkpt><trkpt lat="41.4230168590033" lon="13.948556658117658"><ele>102.6</ele><time>2026-04-12T08:22:35Z</time></trkpt><trkpt lat="41.42306717608185" lon="13.948469504433861"><ele>101.0</ele><time>2026-04-12T08:22:36Z</time></trkpt><trkpt lat="41.42312248290956" lon="13.948381419992053"><ele>100.25</ele><time>2026-04-12T08:22:37Z</time></trkpt><trkpt lat="41.42319810880117" lon="13.948266360240144"><ele>99.5</ele><time>2026-04-12T08:22:38Z</time></trkpt><trkpt lat="41.42328311962292" lon="13.948128749175517"><ele>98.75</ele><time>2026-04-12T08:22:39Z</time></trkpt><trkpt lat="41.423386503900616" lon="13.947928909850079"><ele>98.0</ele><time>2026-04-12T08:22:40Z</time></trkpt><trkpt lat="41.42345732083316" lon="13.947793790587516"><ele>98.0</ele><time>2026-04-12T08:22:41Z</time></trkpt><trkpt lat="41.42352319192325" lon="13.947665185646693"><ele>98.0</ele><time>2026-04-12T08:22:42Z</time></trkpt><trkpt lat="41.42359897751005" lon="13.947560465860798"><ele>98.0</ele><time>2026-04-12T08:22:43Z</time></trkpt><trkpt lat="41.42365966203191" lon="13.947470912545155"><ele>98.0</ele><time>2026-04-12T08:22:44Z</time></trkpt><trkpt lat="41.423704471000946" lon="13.947354124104702"><ele>98.0</ele><time>2026-04-12T08:22:45Z</time></trkpt><trkpt lat="41.42375034834704" lon="13.947236357973209"><ele>97.0</ele><time>2026-04-12T08:22:46Z</time></trkpt><trkpt lat="41.42383690960541" lon="13.947097921330831"><ele>96.0</ele><time>2026-04-12T08:22:47Z</time></trkpt><trkpt lat="41.42391636541456" lon="13.946956865112409"><ele>95.0</ele><time>2026-04-12T08:22:48Z</time></trkpt><trkpt lat="41.42398541179812" lon="13.946818599558846"><ele>94.0</ele><time>2026-04-12T08:22:49Z</time></trkpt><trkpt lat="41.42407845620351" lon="13.946693581521268"><ele>94.0</ele><time>2026-04-12T08:22:50Z</time></trkpt><trkpt lat="41.42416412190039" lon="13.946562031983106"><ele>94.0</ele><time>2026-04-12T08:22:51Z</time></trkpt><trkpt lat="41.42423331937289" lon="13.946439411075682"><ele>94.0</ele><time>2026-04-12T08:22:52Z</time></trkpt><trkpt lat="41.42429187160718" lon="13.946288891992271"><ele>94.0</ele><time>2026-04-12T08:22:53Z</time></trkpt><trkpt lat="41.42433906470752" lon="13.946113593226785"><ele>94.0</ele><time>2026-04-12T08:22:54Z</time></trkpt><trkpt lat="41.42437315670146" lon="13.946013413267298"><ele>94.0</ele><time>2026-04-12T08:22:55Z</time></trkpt><trkpt lat="41.4244107393193" lon="13.945944056062753"><ele>94.0</ele><time>2026-04-12T08:22:56Z</time></trkpt><trkpt lat="41.424475853933366" lon="13.945888228621286"><ele>94.0</ele><time>2026-04-12T08:22:57Z</time></trkpt><trkpt lat="41.42454874883159" lon="13.945802753330739"><ele>94.0</ele><time>2026-04-12T08:22:58Z</time></trkpt><trkpt lat="41.42461636842577" lon="13.945710902915431"><ele>94.0</ele><time>2026-04-12T08:22:59Z</time></trkpt><trkpt lat="41.42469875311135" lon="13.945594531979344"><ele>94.0</ele><time>2026-04-12T08:23:00Z</time></trkpt><trkpt lat="41.42475434798288" lon="13.94551457906639"><ele>94.0</ele><time>2026-04-12T08:23:01Z</time></trkpt><trkpt lat="41.424838764055224" lon="13.945425483198543"><ele>94.0</ele><time>2026-04-12T08:23:03Z</time></trkpt><trkpt lat="41.4249102020612" lon="13.945371549421289"><ele>94.0</ele><time>2026-04-12T08:23:04Z</time></trkpt><trkpt lat="41.42498360849878" lon="13.945272525653722"><ele>94.0</ele><time>2026-04-12T08:23:05Z</time></trkpt><trkpt lat="41.42502834136287" lon="13.94517857158866"><ele>94.0</ele><time>2026-04-12T08:23:06Z</time></trkpt><trkpt lat="41.42507972719712" lon="13.94508870338068"><ele>94.0</ele><time>2026-04-12T08:23:07Z</time></trkpt><trkpt lat="41.425151384529016" lon="13.944986399053844"><ele>94.0</ele><time>2026-04-12T08:23:08Z</time></trkpt><trkpt lat="41.425217518660105" lon="13.944874785613528"><ele>94.0</ele><time>2026-04-12T08:23:09Z</time></trkpt><trkpt lat="41.4252778813063" lon="13.944770541377896"><ele>94.0</ele><time>2026-04-12T08:23:10Z</time></trkpt><trkpt lat="41.425352662874964" lon="13.944681868265524"><ele>93.66666666666666</ele><time>2026-04-12T08:23:11Z</time></trkpt><trkpt lat="41.42540343951399" lon="13.944617948048277"><ele>93.33333333333333</ele><time>2026-04-12T08:23:12Z</time></trkpt><trkpt lat="41.42546095769942" lon="13.944549598672777"><ele>93.0</ele><time>2026-04-12T08:23:13Z</time></trkpt><trkpt lat="41.425527871588486" lon="13.944458646384374"><ele>92.66666666666667</ele><time>2026-04-12T08:23:14Z</time></trkpt><trkpt lat="41.425589762017815" lon="13.944373955086549"><ele>92.33333333333334</ele><time>2026-04-12T08:23:15Z</time></trkpt><trkpt lat="41.42566510110268" lon="13.944293585207683"><ele>92.0</ele><time>2026-04-12T08:23:16Z</time></trkpt><trkpt lat="41.425730947825805" lon="13.944208921190755"><ele>90.6</ele><time>2026-04-12T08:23:17Z</time></trkpt><trkpt lat="41.42579507639616" lon="13.94410938171901"><ele>89.19999999999999</ele><time>2026-04-12T08:23:18Z</time></trkpt><trkpt lat="41.425857588173365" lon="13.944018470407814"><ele>87.8</ele><time>2026-04-12T08:23:19Z</time></trkpt><trkpt lat="41.42593132391212" lon="13.94392448725383"><ele>86.4</ele><time>2026-04-12T08:23:20Z</time></trkpt><trkpt lat="41.42600804663677" lon="13.943825113986815"><ele>85.0</ele><time>2026-04-12T08:23:21Z</time></trkpt><trkpt lat="41.426087266294175" lon="13.94371991148937"><ele>85.0</ele><time>2026-04-12T08:23:22Z</time></trkpt><trkpt lat="41.426168711451226" lon="13.94363391694359"><ele>85.0</ele><time>2026-04-12T08:23:23Z</time></trkpt><trkpt lat="41.42625596720162" lon="13.94357422233576"><ele>85.0</ele><time>2026-04-12T08:23:24Z</time></trkpt><trkpt lat="41.4263209136363" lon="13.94350877575917"><ele>85.0</ele><time>2026-04-12T08:23:25Z</time></trkpt><trkpt lat="41.42639732344515" lon="13.943405560188575"><ele>85.0</ele><time>2026-04-12T08:23:26Z</time></trkpt><trkpt lat="41.42646002332338" lon="13.943299446971812"><ele>84.0</ele><time>2026-04-12T08:23:27Z</time></trkpt><trkpt lat="41.426505958733166" lon="13.943211658266925"><ele>83.0</ele><time>2026-04-12T08:23:28Z</time></trkpt><trkpt lat="41.42655272928409" lon="13.943150849759114"><ele>82.0</ele><time>2026-04-12T08:23:29Z</time></trkpt><trkpt lat="41.426632559978984" lon="13.943118958401376"><ele>81.0</ele><time>2026-04-12T08:23:32Z</time></trkpt><trkpt lat="41.42671710484884" lon="13.943107149880792"><ele>80.0</ele><time>2026-04-12T08:23:35Z</time></trkpt><trkpt lat="41.426828637160554" lon="13.943038590643768"><ele>79.0</ele><time>2026-04-12T08:23:37Z</time></trkpt><trkpt lat="41.42689350759662" lon="13.942941607796598"><ele>79.0</ele><time>2026-04-12T08:23:38Z</time></trkpt><trkpt lat="41.42696252966015" lon="13.942847509253738"><ele>79.0</ele><time>2026-04-12T08:23:39Z</time></trkpt><trkpt lat="41.42705187024713" lon="13.942759729136517"><ele>79.0</ele><time>2026-04-12T08:23:40Z</time></trkpt><trkpt lat="41.42715536672454" lon="13.942676527075214"><ele>79.0</ele><time>2026-04-12T08:23:41Z</time></trkpt><trkpt lat="41.42724143171705" lon="13.942573297012137"><ele>79.0</ele><time>2026-04-12T08:23:42Z</time></trkpt><trkpt lat="41.42730453604563" lon="13.942470666962242"><ele>78.8</ele><time>2026-04-12T08:23:43Z</time></trkpt><trkpt lat="41.42735692623869" lon="13.942384162873413"><ele>78.60000000000001</ele><time>2026-04-12T08:23:44Z</time></trkpt><trkpt lat="41.42742754555545" lon="13.942267143060583"><ele>78.4</ele><time>2026-04-12T08:23:45Z</time></trkpt><trkpt lat="41.4275131247293" lon="13.942164293628423"><ele>78.2</ele><time>2026-04-12T08:23:46Z</time></trkpt><trkpt lat="41.42762024160564" lon="13.942052255710475"><ele>78.0</ele><time>2026-04-12T08:23:47Z</time></trkpt><trkpt lat="41.42772495780022" lon="13.941926045264033"><ele>78.0</ele><time>2026-04-12T08:23:48Z</time></trkpt><trkpt lat="41.427820454188264" lon="13.941793541607604"><ele>78.0</ele><time>2026-04-12T08:23:49Z</time></trkpt><trkpt lat="41.4278994228383" lon="13.941690754715967"><ele>78.0</ele><time>2026-04-12T08:23:50Z</time></trkpt><trkpt lat="41.427961369145365" lon="13.941605473088552"><ele>78.0</ele><time>2026-04-12T08:23:51Z</time></trkpt><trkpt lat="41.42801308729622" lon="13.941517697753344"><ele>78.0</ele><time>2026-04-12T08:23:52Z</time></trkpt><trkpt lat="41.428067104869974" lon="13.94143962474777"><ele>78.33333333333333</ele><time>2026-04-12T08:23:53Z</time></trkpt><trkpt lat="41.42812262395207" lon="13.941366901912126"><ele>78.66666666666667</ele><time>2026-04-12T08:23:54Z</time></trkpt><trkpt lat="41.42817907888883" lon="13.941269611754805"><ele>79.0</ele><time>2026-04-12T08:23:56Z</time></trkpt><trkpt lat="41.42810420616831" lon="13.94118457818131"><ele>79.33333333333334</ele><time>2026-04-12T08:23:59Z</time></trkpt><trkpt lat="41.4280416547186" lon="13.941127913349005"><ele>79.66666666666667</ele><time>2026-04-12T08:24:01Z</time></trkpt><trkpt lat="41.4279853110133" lon="13.941066750019807"><ele>80.0</ele><time>2026-04-12T08:24:03Z</time></trkpt><trkpt lat="41.427914133170496" lon="13.940970459653474"><ele>78.5</ele><time>2026-04-12T08:24:05Z</time></trkpt><trkpt lat="41.42771244125538" lon="13.940997203461293"><ele>77.0</ele><time>2026-04-12T08:24:10Z</time></trkpt><trkpt lat="41.42762106589061" lon="13.940994496918792"><ele>75.5</ele><time>2026-04-12T08:24:11Z</time></trkpt><trkpt lat="41.427545426285796" lon="13.941002680069179"><ele>74.0</ele><time>2026-04-12T08:24:12Z</time></trkpt><trkpt lat="41.427461536908304" lon="13.941013983632395"><ele>74.0</ele><time>2026-04-12T08:24:16Z</time></trkpt><trkpt lat="41.4273863409141" lon="13.94094516698254"><ele>74.0</ele><time>2026-04-12T08:24:18Z</time></trkpt><trkpt lat="41.4273534246716" lon="13.9408252949393"><ele>74.0</ele><time>2026-04-12T08:24:21Z</time></trkpt><trkpt lat="41.42725835194465" lon="13.940722663604019"><ele>74.0</ele><time>2026-04-12T08:24:32Z</time></trkpt><trkpt lat="41.427279456365945" lon="13.940641690451383"><ele>74.0</ele><time>2026-04-12T08:24:34Z</time></trkpt><trkpt lat="41.42728436097331" lon="13.940487135354772"><ele>71.75</ele><time>2026-04-12T08:24:36Z</time></trkpt><trkpt lat="41.427325452723885" lon="13.940341604414938"><ele>69.5</ele><time>2026-04-12T08:24:38Z</time></trkpt><trkpt lat="41.427329330189906" lon="13.940243080435627"><ele>67.25</ele><time>2026-04-12T08:24:39Z</time></trkpt><trkpt lat="41.42734538391938" lon="13.940077544227838"><ele>65.0</ele><time>2026-04-12T08:24:41Z</time></trkpt><trkpt lat="41.42739206308645" lon="13.939907582001133"><ele>63.75</ele><time>2026-04-12T08:24:43Z</time></trkpt><trkpt lat="41.42744701675877" lon="13.939692288733516"><ele>62.5</ele><time>2026-04-12T08:24:45Z</time></trkpt><trkpt lat="41.42747494292653" lon="13.939551621904329"><ele>61.25</ele><time>2026-04-12T08:24:46Z</time></trkpt><trkpt lat="41.42746746812904" lon="13.93943614199446"><ele>60.0</ele><time>2026-04-12T08:24:47Z</time></trkpt><trkpt lat="41.42746473396237" lon="13.939300622253855"><ele>60.0</ele><time>2026-04-12T08:24:49Z</time></trkpt><trkpt lat="41.42740461261973" lon="13.9392348226722"><ele>60.0</ele><time>2026-04-12T08:24:50Z</time></trkpt><trkpt lat="41.42730490069197" lon="13.939094195260386"><ele>60.0</ele><time>2026-04-12T08:24:51Z</time></trkpt><trkpt lat="41.42723701992429" lon="13.938961457267364"><ele>60.0</ele><time>2026-04-12T08:24:52Z</time></trkpt><trkpt lat="41.42717620386509" lon="13.93886452674725"><ele>60.0</ele><time>2026-04-12T08:24:53Z</time></trkpt><trkpt lat="41.42713692029939" lon="13.938746171616256"><ele>60.6</ele><time>2026-04-12T08:24:54Z</time></trkpt><trkpt lat="41.427112186870346" lon="13.93862842581422"><ele>61.2</ele><time>2026-04-12T08:24:55Z</time></trkpt><trkpt lat="41.42709995427485" lon="13.938518887720159"><ele>61.8</ele><time>2026-04-12T08:24:56Z</time></trkpt><trkpt lat="41.42697677629791" lon="13.938413511232033"><ele>62.4</ele><time>2026-04-12T08:24:58Z</time></trkpt><trkpt lat="41.42691067302271" lon="13.938389667057754"><ele>63.0</ele><time>2026-04-12T08:24:59Z</time></trkpt><trkpt lat="41.426812258695755" lon="13.938328098316093"><ele>63.4</ele><time>2026-04-12T08:25:00Z</time></trkpt><trkpt lat="41.42670828587922" lon="13.938241740585706"><ele>63.8</ele><time>2026-04-12T08:25:01Z</time></trkpt><trkpt lat="41.42665914400528" lon="13.938143301634625"><ele>64.2</ele><time>2026-04-12T08:25:02Z</time></trkpt><trkpt lat="41.42660441913771" lon="13.938088203257664"><ele>64.6</ele><time>2026-04-12T08:25:04Z</time></trkpt><trkpt lat="41.426491547435425" lon="13.938076668827026"><ele>65.0</ele><time>2026-04-12T08:25:06Z</time></trkpt><trkpt lat="41.426375687907964" lon="13.937994414894897"><ele>64.33333333333334</ele><time>2026-04-12T08:25:08Z</time></trkpt><trkpt lat="41.426282505413035" lon="13.937787459902674"><ele>63.66666666666667</ele><time>2026-04-12T08:25:10Z</time></trkpt><trkpt lat="41.42639341657833" lon="13.937532107239727"><ele>63.0</ele><time>2026-04-12T08:25:11Z</time></trkpt><trkpt lat="41.426415740825355" lon="13.937382278201385"><ele>63.0</ele><time>2026-04-12T08:25:12Z</time></trkpt><trkpt lat="41.42640316622264" lon="13.937230489613507"><ele>63.0</ele><time>2026-04-12T08:25:13Z</time></trkpt><trkpt lat="41.4264061667369" lon="13.9370896607413"><ele>63.0</ele><time>2026-04-12T08:25:14Z</time></trkpt><trkpt lat="41.42642134698994" lon="13.936996263741236"><ele>63.0</ele><time>2026-04-12T08:25:15Z</time></trkpt><trkpt lat="41.426489306372765" lon="13.936968228909592"><ele>63.0</ele><time>2026-04-12T08:25:17Z</time></trkpt><trkpt lat="41.42641025657512" lon="13.936892586201365"><ele>63.0</ele><time>2026-04-12T08:25:19Z</time></trkpt><trkpt lat="41.42632968549794" lon="13.936850512586375"><ele>63.0</ele><time>2026-04-12T08:25:22Z</time></trkpt><trkpt lat="41.42618315038389" lon="13.936972907403796"><ele>63.0</ele><time>2026-04-12T08:25:24Z</time></trkpt><trkpt lat="41.4260765532731" lon="13.937100426384015"><ele>63.0</ele><time>2026-04-12T08:25:25Z</time></trkpt><trkpt lat="41.426002197503884" lon="13.937221558093757"><ele>65.5</ele><time>2026-04-12T08:25:26Z</time></trkpt><trkpt lat="41.42589887917975" lon="13.937436921772308"><ele>68.0</ele><time>2026-04-12T08:25:27Z</time></trkpt><trkpt lat="41.425835050993065" lon="13.93753524139474"><ele>70.5</ele><time>2026-04-12T08:25:28Z</time></trkpt><trkpt lat="41.425728468509746" lon="13.937628403326277"><ele>73.0</ele><time>2026-04-12T08:25:29Z</time></trkpt><trkpt lat="41.42563867578669" lon="13.937726350756495"><ele>73.2</ele><time>2026-04-12T08:25:30Z</time></trkpt><trkpt lat="41.4255676857231" lon="13.937828264275394"><ele>73.4</ele><time>2026-04-12T08:25:31Z</time></trkpt><trkpt lat="41.42551084845675" lon="13.937949220897202"><ele>73.60000000000001</ele><time>2026-04-12T08:25:32Z</time></trkpt><trkpt lat="41.42544321495502" lon="13.938067002748848"><ele>73.8</ele><time>2026-04-12T08:25:33Z</time></trkpt><trkpt lat="41.42536118752507" lon="13.938161443404697"><ele>74.0</ele><time>2026-04-12T08:25:34Z</time></trkpt><trkpt lat="41.42527481837321" lon="13.938233047474702"><ele>76.0</ele><time>2026-04-12T08:25:35Z</time></trkpt><trkpt lat="41.42518567593675" lon="13.938290700816797"><ele>78.0</ele><time>2026-04-12T08:25:36Z</time></trkpt><trkpt lat="41.4251184609539" lon="13.938379218296642"><ele>80.0</ele><time>2026-04-12T08:25:37Z</time></trkpt><trkpt lat="41.42505738242638" lon="13.93847604050452"><ele>82.0</ele><time>2026-04-12T08:25:38Z</time></trkpt><trkpt lat="41.425004899165586" lon="13.93853904602179"><ele>84.0</ele><time>2026-04-12T08:25:39Z</time></trkpt><trkpt lat="41.4248503234473" lon="13.938585362680353"><ele>84.4</ele><time>2026-04-12T08:25:41Z</time></trkpt><trkpt lat="41.42474701948929" lon="13.938585240335803"><ele>84.80000000000001</ele><time>2026-04-12T08:25:42Z</time></trkpt><trkpt lat="41.42463298137753" lon="13.938579554623201"><ele>85.19999999999999</ele><time>2026-04-12T08:25:43Z</time></trkpt><trkpt lat="41.424536760044276" lon="13.938575085511829"><ele>85.6</ele><time>2026-04-12T08:25:44Z</time></trkpt><trkpt lat="41.42443996064315" lon="13.93855668591481"><ele>86.0</ele><time>2026-04-12T08:25:45Z</time></trkpt><trkpt lat="41.42434917806682" lon="13.938509872499793"><ele>87.0</ele><time>2026-04-12T08:25:46Z</time></trkpt><trkpt lat="41.42425817295187" lon="13.938438709326984"><ele>88.0</ele><time>2026-04-12T08:25:47Z</time></trkpt><trkpt lat="41.42414985590669" lon="13.938333625693728"><ele>89.0</ele><time>2026-04-12T08:25:48Z</time></trkpt><trkpt lat="41.424020749065285" lon="13.938213917552595"><ele>90.0</ele><time>2026-04-12T08:25:49Z</time></trkpt><trkpt lat="41.42387592288592" lon="13.93810775159573"><ele>91.0</ele><time>2026-04-12T08:25:50Z</time></trkpt><trkpt lat="41.42374875119987" lon="13.938000496642664"><ele>92.0</ele><time>2026-04-12T08:25:51Z</time></trkpt><trkpt lat="41.423633167340796" lon="13.937898207245992"><ele>93.0</ele><time>2026-04-12T08:25:52Z</time></trkpt><trkpt lat="41.42353203632977" lon="13.93780064849794"><ele>94.0</ele><time>2026-04-12T08:25:53Z</time></trkpt><trkpt lat="41.42344029394819" lon="13.937718605342067"><ele>94.0</ele><time>2026-04-12T08:25:54Z</time></trkpt><trkpt lat="41.42335989421562" lon="13.93764719654608"><ele>94.0</ele><time>2026-04-12T08:25:55Z</time></trkpt><trkpt lat="41.423289255910106" lon="13.93760172933346"><ele>94.0</ele><time>2026-04-12T08:25:56Z</time></trkpt><trkpt lat="41.42319399531299" lon="13.93753675418525"><ele>94.0</ele><time>2026-04-12T08:25:57Z</time></trkpt><trkpt lat="41.42312310669328" lon="13.937482415044204"><ele>94.0</ele><time>2026-04-12T08:25:58Z</time></trkpt><trkpt lat="41.42304915572617" lon="13.937431046916195"><ele>94.0</ele><time>2026-04-12T08:25:59Z</time></trkpt><trkpt lat="41.42298509133127" lon="13.937363693057499"><ele>93.4</ele><time>2026-04-12T08:26:00Z</time></trkpt><trkpt lat="41.42285698164312" lon="13.93723827789771"><ele>92.80000000000001</ele><time>2026-04-12T08:26:02Z</time></trkpt><trkpt lat="41.422789863537204" lon="13.937162904337123"><ele>92.19999999999999</ele><time>2026-04-12T08:26:03Z</time></trkpt><trkpt lat="41.422720545623626" lon="13.93710704301165"><ele>91.6</ele><time>2026-04-12T08:26:04Z</time></trkpt><trkpt lat="41.422641851668985" lon="13.937078272496402"><ele>91.0</ele><time>2026-04-12T08:26:05Z</time></trkpt><trkpt lat="41.4225585591642" lon="13.937028777323134"><ele>91.0</ele><time>2026-04-12T08:26:06Z</time></trkpt><trkpt lat="41.422479464570905" lon="13.936947253188821"><ele>91.0</ele><time>2026-04-12T08:26:07Z</time></trkpt><trkpt lat="41.422403816552816" lon="13.936855318102065"><ele>91.0</ele><time>2026-04-12T08:26:08Z</time></trkpt><trkpt lat="41.42233954368992" lon="13.936771833738634"><ele>91.0</ele><time>2026-04-12T08:26:09Z</time></trkpt><trkpt lat="41.422280723016925" lon="13.936704696090397"><ele>91.0</ele><time>2026-04-12T08:26:10Z</time></trkpt><trkpt lat="41.422210723519775" lon="13.936640437126329"><ele>90.5</ele><time>2026-04-12T08:26:11Z</time></trkpt><trkpt lat="41.422121785613676" lon="13.93656045964177"><ele>90.0</ele><time>2026-04-12T08:26:12Z</time></trkpt><trkpt lat="41.42203568691736" lon="13.93645154029919"><ele>89.5</ele><time>2026-04-12T08:26:13Z</time></trkpt><trkpt lat="41.42194437019031" lon="13.936362005842746"><ele>89.0</ele><time>2026-04-12T08:26:14Z</time></trkpt><trkpt lat="41.42184981972607" lon="13.936228915944524"><ele>89.0</ele><time>2026-04-12T08:26:15Z</time></trkpt><trkpt lat="41.42176841904651" lon="13.936136748089902"><ele>89.0</ele><time>2026-04-12T08:26:16Z</time></trkpt><trkpt lat="41.42171100785071" lon="13.936061307477377"><ele>89.0</ele><time>2026-04-12T08:26:17Z</time></trkpt><trkpt lat="41.42166836237374" lon="13.935986765590807"><ele>89.0</ele><time>2026-04-12T08:26:18Z</time></trkpt><trkpt lat="41.42164700991949" lon="13.935817085158583"><ele>89.0</ele><time>2026-04-12T08:26:20Z</time></trkpt><trkpt lat="41.42165062284249" lon="13.93570067030334"><ele>88.80000000000001</ele><time>2026-04-12T08:26:21Z</time></trkpt><trkpt lat="41.421637504861486" lon="13.935597626282025"><ele>88.60000000000001</ele><time>2026-04-12T08:26:22Z</time></trkpt><trkpt lat="41.42161675844462" lon="13.93550787951092"><ele>88.4</ele><time>2026-04-12T08:26:23Z</time></trkpt><trkpt lat="41.42159197790217" lon="13.935407810195166"><ele>88.2</ele><time>2026-04-12T08:26:24Z</time></trkpt><trkpt lat="41.42154782506318" lon="13.93531831038944"><ele>88.0</ele><time>2026-04-12T08:26:25Z</time></trkpt><trkpt lat="41.42145368495121" lon="13.935109839052005"><ele>87.2</ele><time>2026-04-12T08:26:27Z</time></trkpt><trkpt lat="41.42139624813324" lon="13.935002823183657"><ele>86.4</ele><time>2026-04-12T08:26:28Z</time></trkpt><trkpt lat="41.42134695728413" lon="13.934887297489057"><ele>85.60000000000001</ele><time>2026-04-12T08:26:29Z</time></trkpt><trkpt lat="41.421296521246774" lon="13.934787824881806"><ele>84.80000000000001</ele><time>2026-04-12T08:26:30Z</time></trkpt><trkpt lat="41.421253796157536" lon="13.93467936841954"><ele>84.0</ele><time>2026-04-12T08:26:31Z</time></trkpt><trkpt lat="41.42122391263577" lon="13.934580414365893"><ele>84.66666666666667</ele><time>2026-04-12T08:26:32Z</time></trkpt><trkpt lat="41.42120464924667" lon="13.934459617239144"><ele>85.33333333333333</ele><time>2026-04-12T08:26:33Z</time></trkpt><trkpt lat="41.42114558971062" lon="13.934346329459174"><ele>86.0</ele><time>2026-04-12T08:26:34Z</time></trkpt><trkpt lat="41.42110537431713" lon="13.934246843875565"><ele>86.66666666666666</ele><time>2026-04-12T08:26:35Z</time></trkpt><trkpt lat="41.42104741702531" lon="13.934177413206527"><ele>87.33333333333333</ele><time>2026-04-12T08:26:36Z</time></trkpt><trkpt lat="41.42097421848095" lon="13.93413186431672"><ele>88.0</ele><time>2026-04-12T08:26:37Z</time></trkpt><trkpt lat="41.420893577603266" lon="13.934100316546132"><ele>88.0</ele><time>2026-04-12T08:26:38Z</time></trkpt><trkpt lat="41.42083130033615" lon="13.934052387211477"><ele>88.0</ele><time>2026-04-12T08:26:39Z</time></trkpt><trkpt lat="41.420776358695534" lon="13.933970098246439"><ele>88.0</ele><time>2026-04-12T08:26:41Z</time></trkpt><trkpt lat="41.42069002585478" lon="13.934090806711177"><ele>88.0</ele><time>2026-04-12T08:26:44Z</time></trkpt><trkpt lat="41.42067386841725" lon="13.934201682700186"><ele>88.0</ele><time>2026-04-12T08:26:45Z</time></trkpt><trkpt lat="41.42066074722939" lon="13.934358643975258"><ele>89.0</ele><time>2026-04-12T08:26:46Z</time></trkpt><trkpt lat="41.420634674534725" lon="13.93453139208857"><ele>90.0</ele><time>2026-04-12T08:26:47Z</time></trkpt><trkpt lat="41.42055862095145" lon="13.934703411737717"><ele>91.0</ele><time>2026-04-12T08:26:48Z</time></trkpt><trkpt lat="41.420518983210904" lon="13.93489982251501"><ele>92.0</ele><time>2026-04-12T08:26:49Z</time></trkpt><trkpt lat="41.42047190409415" lon="13.935097673127006"><ele>94.0</ele><time>2026-04-12T08:26:50Z</time></trkpt><trkpt lat="41.4204186766242" lon="13.935299585775178"><ele>96.0</ele><time>2026-04-12T08:26:51Z</time></trkpt><trkpt lat="41.42036212863269" lon="13.9355140107952"><ele>98.0</ele><time>2026-04-12T08:26:52Z</time></trkpt><trkpt lat="41.42030362621304" lon="13.935732429915026"><ele>98.33333333333333</ele><time>2026-04-12T08:26:53Z</time></trkpt><trkpt lat="41.420243098941576" lon="13.935954336317769"><ele>98.66666666666666</ele><time>2026-04-12T08:26:54Z</time></trkpt><trkpt lat="41.42018410038842" lon="13.93617063760416"><ele>99.0</ele><time>2026-04-12T08:26:55Z</time></trkpt><trkpt lat="41.420124365568654" lon="13.936395135398401"><ele>99.0</ele><time>2026-04-12T08:26:56Z</time></trkpt><trkpt lat="41.42006512656005" lon="13.936615684708173"><ele>99.0</ele><time>2026-04-12T08:26:57Z</time></trkpt><trkpt lat="41.42000257895922" lon="13.93682390481012"><ele>99.0</ele><time>2026-04-12T08:26:58Z</time></trkpt><trkpt lat="41.41993156139263" lon="13.936995509586044"><ele>99.0</ele><time>2026-04-12T08:26:59Z</time></trkpt><trkpt lat="41.41985048258558" lon="13.937146869534436"><ele>99.0</ele><time>2026-04-12T08:27:00Z</time></trkpt><trkpt lat="41.41972152574778" lon="13.937231070571954"><ele>99.0</ele><time>2026-04-12T08:27:01Z</time></trkpt><trkpt lat="41.419591269382984" lon="13.937331505427695"><ele>99.0</ele><time>2026-04-12T08:27:02Z</time></trkpt><trkpt lat="41.41944810394332" lon="13.93742218713515"><ele>99.0</ele><time>2026-04-12T08:27:03Z</time></trkpt><trkpt lat="41.41930848189702" lon="13.937533104486146"><ele>99.0</ele><time>2026-04-12T08:27:04Z</time></trkpt><trkpt lat="41.419150784375006" lon="13.937624689864778"><ele>99.0</ele><time>2026-04-12T08:27:05Z</time></trkpt><trkpt lat="41.41899249439473" lon="13.93771856300043"><ele>99.0</ele><time>2026-04-12T08:27:06Z</time></trkpt><trkpt lat="41.41883399473537" lon="13.937820006629607"><ele>99.0</ele><time>2026-04-12T08:27:07Z</time></trkpt><trkpt lat="41.41866965459466" lon="13.937926805108981"><ele>99.0</ele><time>2026-04-12T08:27:08Z</time></trkpt><trkpt lat="41.418508965634054" lon="13.938041289619184"><ele>100.0</ele><time>2026-04-12T08:27:09Z</time></trkpt><trkpt lat="41.418341807372805" lon="13.938149794986144"><ele>101.0</ele><time>2026-04-12T08:27:10Z</time></trkpt><trkpt lat="41.418175092641384" lon="13.938253009503423"><ele>102.0</ele><time>2026-04-12T08:27:11Z</time></trkpt><trkpt lat="41.41800984840426" lon="13.938371955270924"><ele>102.33333333333334</ele><time>2026-04-12T08:27:12Z</time></trkpt><trkpt lat="41.417852162703376" lon="13.938490397600907"><ele>102.66666666666667</ele><time>2026-04-12T08:27:13Z</time></trkpt><trkpt lat="41.41769679328795" lon="13.938613667045853"><ele>103.0</ele><time>2026-04-12T08:27:14Z</time></trkpt><trkpt lat="41.417553293719095" lon="13.93874380650354"><ele>103.0</ele><time>2026-04-12T08:27:15Z</time></trkpt><trkpt lat="41.417426830361364" lon="13.938890157873335"><ele>103.0</ele><time>2026-04-12T08:27:16Z</time></trkpt><trkpt lat="41.41732100494888" lon="13.939051783984464"><ele>103.0</ele><time>2026-04-12T08:27:17Z</time></trkpt><trkpt lat="41.41721665139827" lon="13.93924049029179"><ele>101.66666666666667</ele><time>2026-04-12T08:27:18Z</time></trkpt><trkpt lat="41.41714804199301" lon="13.939450871001084"><ele>100.33333333333334</ele><time>2026-04-12T08:27:19Z</time></trkpt><trkpt lat="41.417103291924086" lon="13.939670161235854"><ele>99.0</ele><time>2026-04-12T08:27:20Z</time></trkpt><trkpt lat="41.417080331420216" lon="13.939884417170942"><ele>100.0</ele><time>2026-04-12T08:27:21Z</time></trkpt><trkpt lat="41.41707309706094" lon="13.940115187499398"><ele>101.0</ele><time>2026-04-12T08:27:22Z</time></trkpt><trkpt lat="41.417065519967664" lon="13.940348921007082"><ele>102.0</ele><time>2026-04-12T08:27:23Z</time></trkpt><trkpt lat="41.41705110522798" lon="13.940586325654019"><ele>102.0</ele><time>2026-04-12T08:27:24Z</time></trkpt><trkpt lat="41.41703186602367" lon="13.940823643498767"><ele>102.0</ele><time>2026-04-12T08:27:25Z</time></trkpt><trkpt lat="41.41701541962046" lon="13.941037439630536"><ele>102.0</ele><time>2026-04-12T08:27:26Z</time></trkpt><trkpt lat="41.41696645443225" lon="13.941206453660591"><ele>104.5</ele><time>2026-04-12T08:27:27Z</time></trkpt><trkpt lat="41.41690169233047" lon="13.941364150005706"><ele>107.0</ele><time>2026-04-12T08:27:28Z</time></trkpt><trkpt lat="41.41679717273916" lon="13.94150684564099"><ele>109.5</ele><time>2026-04-12T08:27:29Z</time></trkpt><trkpt lat="41.416676053877104" lon="13.941634904938162"><ele>112.0</ele><time>2026-04-12T08:27:30Z</time></trkpt><trkpt lat="41.41653532121356" lon="13.94176895566961"><ele>111.33333333333334</ele><time>2026-04-12T08:27:31Z</time></trkpt><trkpt lat="41.41639245216567" lon="13.941920873600012"><ele>110.66666666666666</ele><time>2026-04-12T08:27:32Z</time></trkpt><trkpt lat="41.41624717732589" lon="13.942059089597857"><ele>110.0</ele><time>2026-04-12T08:27:33Z</time></trkpt><trkpt lat="41.41610663911411" lon="13.942196295677205"><ele>110.0</ele><time>2026-04-12T08:27:34Z</time></trkpt><trkpt lat="41.415989653865545" lon="13.942339759481591"><ele>110.0</ele><time>2026-04-12T08:27:35Z</time></trkpt><trkpt lat="41.415891426232974" lon="13.942498980339678"><ele>110.0</ele><time>2026-04-12T08:27:36Z</time></trkpt><trkpt lat="41.415804104554574" lon="13.942699067662451"><ele>113.33333333333333</ele><time>2026-04-12T08:27:37Z</time></trkpt><trkpt lat="41.41574176587032" lon="13.942900265559063"><ele>116.66666666666666</ele><time>2026-04-12T08:27:38Z</time></trkpt><trkpt lat="41.41569772066233" lon="13.943138772728654"><ele>120.0</ele><time>2026-04-12T08:27:39Z</time></trkpt><trkpt lat="41.415657794571096" lon="13.943376559897274"><ele>119.66666666666666</ele><time>2026-04-12T08:27:40Z</time></trkpt><trkpt lat="41.41561685012522" lon="13.94362518162908"><ele>119.33333333333333</ele><time>2026-04-12T08:27:41Z</time></trkpt><trkpt lat="41.415575963504025" lon="13.943882648152012"><ele>119.0</ele><time>2026-04-12T08:27:42Z</time></trkpt><trkpt lat="41.415530301878924" lon="13.944125799695644"><ele>116.66666666666666</ele><time>2026-04-12T08:27:43Z</time></trkpt><trkpt lat="41.415473887224174" lon="13.944373989169742"><ele>114.33333333333334</ele><time>2026-04-12T08:27:44Z</time></trkpt><trkpt lat="41.415439768086266" lon="13.94463371966597"><ele>112.0</ele><time>2026-04-12T08:27:45Z</time></trkpt><trkpt lat="41.41538821019235" lon="13.944871107464493"><ele>111.66666666666667</ele><time>2026-04-12T08:27:46Z</time></trkpt><trkpt lat="41.41535726500041" lon="13.94510433722939"><ele>111.33333333333334</ele><time>2026-04-12T08:27:47Z</time></trkpt><trkpt lat="41.41530429636271" lon="13.945326164462418"><ele>111.0</ele><time>2026-04-12T08:27:48Z</time></trkpt><trkpt lat="41.41525958452752" lon="13.945560787591736"><ele>111.0</ele><time>2026-04-12T08:27:49Z</time></trkpt><trkpt lat="41.41522174508904" lon="13.945758619228139"><ele>111.0</ele><time>2026-04-12T08:27:50Z</time></trkpt><trkpt lat="41.41519050877598" lon="13.945921928208744"><ele>111.0</ele><time>2026-04-12T08:27:51Z</time></trkpt><trkpt lat="41.415164605251626" lon="13.946061433024505"><ele>111.0</ele><time>2026-04-12T08:27:52Z</time></trkpt><trkpt lat="41.415156051237176" lon="13.946194607021642"><ele>111.19999999999999</ele><time>2026-04-12T08:27:53Z</time></trkpt><trkpt lat="41.41512007371862" lon="13.94628799129909"><ele>111.39999999999999</ele><time>2026-04-12T08:27:54Z</time></trkpt><trkpt lat="41.41508346439906" lon="13.946359752925545"><ele>111.6</ele><time>2026-04-12T08:27:56Z</time></trkpt><trkpt lat="41.41492160417921" lon="13.946275549987426"><ele>111.8</ele><time>2026-04-12T08:27:57Z</time></trkpt><trkpt lat="41.41481400321512" lon="13.946237181419061"><ele>112.0</ele><time>2026-04-12T08:27:58Z</time></trkpt><trkpt lat="41.414699191777125" lon="13.94619379019465"><ele>112.0</ele><time>2026-04-12T08:27:59Z</time></trkpt><trkpt lat="41.41457446514266" lon="13.946154115317551"><ele>112.0</ele><time>2026-04-12T08:28:00Z</time></trkpt><trkpt lat="41.414436358558675" lon="13.946071771821773"><ele>112.0</ele><time>2026-04-12T08:28:01Z</time></trkpt><trkpt lat="41.41428622250297" lon="13.945977685989824"><ele>112.0</ele><time>2026-04-12T08:28:02Z</time></trkpt><trkpt lat="41.41413547545038" lon="13.94586984525563"><ele>112.0</ele><time>2026-04-12T08:28:03Z</time></trkpt><trkpt lat="41.41397385063212" lon="13.945754310097117"><ele>112.0</ele><time>2026-04-12T08:28:04Z</time></trkpt><trkpt lat="41.41381133662475" lon="13.945642885503668"><ele>112.0</ele><time>2026-04-12T08:28:05Z</time></trkpt><trkpt lat="41.413650514082384" lon="13.945533902181417"><ele>112.33333333333334</ele><time>2026-04-12T08:28:06Z</time></trkpt><trkpt lat="41.41349098969606" lon="13.945426068600623"><ele>112.66666666666666</ele><time>2026-04-12T08:28:07Z</time></trkpt><trkpt lat="41.41333216676785" lon="13.945323043531513"><ele>113.0</ele><time>2026-04-12T08:28:08Z</time></trkpt><trkpt lat="41.41319388810786" lon="13.94523229316195"><ele>113.0</ele><time>2026-04-12T08:28:09Z</time></trkpt><trkpt lat="41.41307318224402" lon="13.94514558885814"><ele>113.0</ele><time>2026-04-12T08:28:10Z</time></trkpt><trkpt lat="41.412955769120934" lon="13.945068554784969"><ele>113.0</ele><time>2026-04-12T08:28:11Z</time></trkpt><trkpt lat="41.41286276885849" lon="13.944979222768522"><ele>113.0</ele><time>2026-04-12T08:28:12Z</time></trkpt><trkpt lat="41.4127954991033" lon="13.944905194760889"><ele>113.0</ele><time>2026-04-12T08:28:13Z</time></trkpt><trkpt lat="41.41276469140305" lon="13.944815926789436"><ele>113.00000000000001</ele><time>2026-04-12T08:28:14Z</time></trkpt><trkpt lat="41.41274915728823" lon="13.94472636390693"><ele>113.00000000000001</ele><time>2026-04-12T08:28:15Z</time></trkpt><trkpt lat="41.41279211227019" lon="13.944661273495766"><ele>113.0</ele><time>2026-04-12T08:28:16Z</time></trkpt><trkpt lat="41.41276742275419" lon="13.944516149559274"><ele>113.0</ele><time>2026-04-12T08:28:17Z</time></trkpt><trkpt lat="41.41235749454876" lon="13.943987114390596"><ele>113.2</ele><time>2026-04-12T08:28:21Z</time></trkpt><trkpt lat="41.4123221405377" lon="13.943889485690624"><ele>113.4</ele><time>2026-04-12T08:28:22Z</time></trkpt><trkpt lat="41.412241600183435" lon="13.943749437133098"><ele>113.60000000000001</ele><time>2026-04-12T08:28:24Z</time></trkpt><trkpt lat="41.41219908085973" lon="13.943675135928594"><ele>113.80000000000001</ele><time>2026-04-12T08:28:25Z</time></trkpt><trkpt lat="41.41209507692002" lon="13.943646622832926"><ele>114.0</ele><time>2026-04-12T08:28:27Z</time></trkpt><trkpt lat="41.41204966010556" lon="13.943716646599924"><ele>114.0</ele><time>2026-04-12T08:28:28Z</time></trkpt><trkpt lat="41.412014528045894" lon="13.943817598012677"><ele>114.0</ele><time>2026-04-12T08:28:29Z</time></trkpt><trkpt lat="41.41197211685644" lon="13.943907644274933"><ele>114.0</ele><time>2026-04-12T08:28:30Z</time></trkpt><trkpt lat="41.41197470773482" lon="13.94401695424255"><ele>114.0</ele><time>2026-04-12T08:28:37Z</time></trkpt><trkpt lat="41.412002890610594" lon="13.94412116813675"><ele>114.0</ele><time>2026-04-12T08:28:39Z</time></trkpt><trkpt lat="41.41197734198146" lon="13.944212388935261"><ele>114.0</ele><time>2026-04-12T08:28:40Z</time></trkpt><trkpt lat="41.411901693690275" lon="13.944350199698134"><ele>114.83333333333333</ele><time>2026-04-12T08:28:42Z</time></trkpt><trkpt lat="41.41186567268032" lon="13.944419630293103"><ele>115.66666666666666</ele><time>2026-04-12T08:28:43Z</time></trkpt><trkpt lat="41.411806723064814" lon="13.944527072284398"><ele>116.5</ele><time>2026-04-12T08:28:44Z</time></trkpt><trkpt lat="41.41177864373404" lon="13.94464931924787"><ele>117.33333333333333</ele><time>2026-04-12T08:28:45Z</time></trkpt><trkpt lat="41.411720824940296" lon="13.94475066324825"><ele>118.16666666666666</ele><time>2026-04-12T08:28:47Z</time></trkpt><trkpt lat="41.411651420152175" lon="13.944776572357602"><ele>119.0</ele><time>2026-04-12T08:28:48Z</time></trkpt><trkpt lat="41.41156397195311" lon="13.944825334907646"><ele>118.99999999999999</ele><time>2026-04-12T08:28:49Z</time></trkpt><trkpt lat="41.41148872592473" lon="13.944916236714064"><ele>119.0</ele><time>2026-04-12T08:28:50Z</time></trkpt><trkpt lat="41.41143530926606" lon="13.944989768803627"><ele>119.0</ele><time>2026-04-12T08:28:51Z</time></trkpt><trkpt lat="41.41133053319634" lon="13.945039568151733"><ele>119.0</ele><time>2026-04-12T08:28:53Z</time></trkpt><trkpt lat="41.41126570045194" lon="13.945068474421813"><ele>118.99999999999999</ele><time>2026-04-12T08:28:54Z</time></trkpt><trkpt lat="41.41119176700944" lon="13.945104331455216"><ele>119.0</ele><time>2026-04-12T08:28:55Z</time></trkpt><trkpt lat="41.411110406519825" lon="13.945114572279248"><ele>119.99999999999999</ele><time>2026-04-12T08:28:56Z</time></trkpt><trkpt lat="41.41104602625311" lon="13.945108542831335"><ele>121.0</ele><time>2026-04-12T08:28:57Z</time></trkpt><trkpt lat="41.41097856770629" lon="13.945129542610976"><ele>122.0</ele><time>2026-04-12T08:28:59Z</time></trkpt><trkpt lat="41.410888559175746" lon="13.945191584380236"><ele>123.0</ele><time>2026-04-12T08:29:01Z</time></trkpt><trkpt lat="41.410819490612674" lon="13.945226379607265"><ele>123.99999999999999</ele><time>2026-04-12T08:29:05Z</time></trkpt><trkpt lat="41.410734936969845" lon="13.94525661691604"><ele>125.0</ele><time>2026-04-12T08:29:08Z</time></trkpt><trkpt lat="41.41069147902052" lon="13.945325615292505"><ele>125.0</ele><time>2026-04-12T08:29:10Z</time></trkpt><trkpt lat="41.41059476747553" lon="13.945359463877457"><ele>125.0</ele><time>2026-04-12T08:29:12Z</time></trkpt><trkpt lat="41.410521397130694" lon="13.945368857523375"><ele>125.0</ele><time>2026-04-12T08:29:13Z</time></trkpt><trkpt lat="41.41041219417822" lon="13.945485125798244"><ele>125.0</ele><time>2026-04-12T08:29:15Z</time></trkpt><trkpt lat="41.41030509179611" lon="13.945567171331435"><ele>125.0</ele><time>2026-04-12T08:29:16Z</time></trkpt><trkpt lat="41.41023069738394" lon="13.945597836951091"><ele>125.16666666666666</ele><time>2026-04-12T08:29:17Z</time></trkpt><trkpt lat="41.41015044973376" lon="13.945583526933888"><ele>125.33333333333333</ele><time>2026-04-12T08:29:19Z</time></trkpt><trkpt lat="41.41007850635709" lon="13.945590937066683"><ele>125.5</ele><time>2026-04-12T08:29:20Z</time></trkpt><trkpt lat="41.409975771212544" lon="13.945667861315007"><ele>125.66666666666666</ele><time>2026-04-12T08:29:21Z</time></trkpt><trkpt lat="41.40990801230032" lon="13.945700905769982"><ele>125.83333333333333</ele><time>2026-04-12T08:29:23Z</time></trkpt><trkpt lat="41.40984392693385" lon="13.945729958341538"><ele>126.0</ele><time>2026-04-12T08:29:24Z</time></trkpt><trkpt lat="41.40973973440228" lon="13.945766544878257"><ele>126.0</ele><time>2026-04-12T08:29:26Z</time></trkpt><trkpt lat="41.409717777610595" lon="13.94585728594976"><ele>126.0</ele><time>2026-04-12T08:29:27Z</time></trkpt><trkpt lat="41.409668273235944" lon="13.945989899844074"><ele>126.0</ele><time>2026-04-12T08:29:30Z</time></trkpt><trkpt lat="41.40965760398991" lon="13.946081792581683"><ele>126.0</ele><time>2026-04-12T08:29:31Z</time></trkpt><trkpt lat="41.409603065569286" lon="13.946184372152382"><ele>126.0</ele><time>2026-04-12T08:29:32Z</time></trkpt><trkpt lat="41.409579600717805" lon="13.946262964897704"><ele>126.0</ele><time>2026-04-12T08:29:33Z</time></trkpt><trkpt lat="41.409473698612075" lon="13.946314304002515"><ele>127.16666666666667</ele><time>2026-04-12T08:29:35Z</time></trkpt><trkpt lat="41.40940673652353" lon="13.94637066923603"><ele>128.33333333333334</ele><time>2026-04-12T08:29:36Z</time></trkpt><trkpt lat="41.40933376841794" lon="13.946349410060117"><ele>129.5</ele><time>2026-04-12T08:29:40Z</time></trkpt><trkpt lat="41.40924913543526" lon="13.946380117944269"><ele>130.66666666666669</ele><time>2026-04-12T08:29:42Z</time></trkpt><trkpt lat="41.40917396922471" lon="13.946454090245735"><ele>131.83333333333334</ele><time>2026-04-12T08:29:45Z</time></trkpt><trkpt lat="41.40911010754431" lon="13.946412483248356"><ele>133.0</ele><time>2026-04-12T08:29:49Z</time></trkpt><trkpt lat="41.40905306390471" lon="13.946517670647205"><ele>133.0</ele><time>2026-04-12T08:29:55Z</time></trkpt><trkpt lat="41.40902576400201" lon="13.946653122135075"><ele>133.0</ele><time>2026-04-12T08:29:58Z</time></trkpt><trkpt lat="41.40895242105318" lon="13.946711305582811"><ele>133.0</ele><time>2026-04-12T08:30:01Z</time></trkpt><trkpt lat="41.40885774747476" lon="13.946800899288288"><ele>133.0</ele><time>2026-04-12T08:30:03Z</time></trkpt><trkpt lat="41.408812403747916" lon="13.94686227070026"><ele>133.0</ele><time>2026-04-12T08:30:05Z</time></trkpt><trkpt lat="41.40874820130316" lon="13.946932092878638"><ele>134.33333333333334</ele><time>2026-04-12T08:30:08Z</time></trkpt><trkpt lat="41.408676994818045" lon="13.946971199303139"><ele>135.66666666666669</ele><time>2026-04-12T08:30:10Z</time></trkpt><trkpt lat="41.408635673421095" lon="13.94705572539922"><ele>137.0</ele><time>2026-04-12T08:30:12Z</time></trkpt><trkpt lat="41.40855636096205" lon="13.947045546917993"><ele>138.33333333333334</ele><time>2026-04-12T08:30:14Z</time></trkpt><trkpt lat="41.408530364918136" lon="13.94713486612576"><ele>139.66666666666666</ele><time>2026-04-12T08:30:16Z</time></trkpt><trkpt lat="41.40849354116305" lon="13.94722485636903"><ele>141.0</ele><time>2026-04-12T08:30:18Z</time></trkpt><trkpt lat="41.40845641098509" lon="13.947313668143101"><ele>141.0</ele><time>2026-04-12T08:30:21Z</time></trkpt><trkpt lat="41.40842852812191" lon="13.947392505922537"><ele>141.0</ele><time>2026-04-12T08:30:23Z</time></trkpt><trkpt lat="41.40839881795585" lon="13.947483130276568"><ele>141.0</ele><time>2026-04-12T08:30:26Z</time></trkpt><trkpt lat="41.40833802102982" lon="13.947514088812778"><ele>141.0</ele><time>2026-04-12T08:30:28Z</time></trkpt><trkpt lat="41.40834073390193" lon="13.947602918902492"><ele>141.0</ele><time>2026-04-12T08:30:30Z</time></trkpt><trkpt lat="41.4082757367082" lon="13.94766834230978"><ele>141.0</ele><time>2026-04-12T08:30:33Z</time></trkpt><trkpt lat="41.40821915448957" lon="13.94771406597922"><ele>141.0</ele><time>2026-04-12T08:30:34Z</time></trkpt><trkpt lat="41.40814772703313" lon="13.94778070695105"><ele>143.2</ele><time>2026-04-12T08:30:36Z</time></trkpt><trkpt lat="41.408146943329456" lon="13.947905752005182"><ele>145.39999999999998</ele><time>2026-04-12T08:30:38Z</time></trkpt><trkpt lat="41.408135124821435" lon="13.948024216129204"><ele>147.6</ele><time>2026-04-12T08:30:40Z</time></trkpt><trkpt lat="41.408087370722484" lon="13.948169484014493"><ele>149.79999999999998</ele><time>2026-04-12T08:30:43Z</time></trkpt><trkpt lat="41.40807974248904" lon="13.948285288157177"><ele>152.0</ele><time>2026-04-12T08:30:46Z</time></trkpt><trkpt lat="41.40810900870313" lon="13.948446545664"><ele>153.16666666666666</ele><time>2026-04-12T08:30:48Z</time></trkpt><trkpt lat="41.40806135211397" lon="13.948503662699164"><ele>154.33333333333331</ele><time>2026-04-12T08:30:51Z</time></trkpt><trkpt lat="41.408048752020555" lon="13.948639495303027"><ele>155.5</ele><time>2026-04-12T08:30:53Z</time></trkpt><trkpt lat="41.408017355832314" lon="13.948725195647702"><ele>156.66666666666666</ele><time>2026-04-12T08:30:54Z</time></trkpt><trkpt lat="41.4079788696315" lon="13.948811943801728"><ele>157.83333333333334</ele><time>2026-04-12T08:30:57Z</time></trkpt><trkpt lat="41.40791334835672" lon="13.948849940636395"><ele>159.0</ele><time>2026-04-12T08:30:59Z</time></trkpt><trkpt lat="41.407848211275386" lon="13.948904234363859"><ele>160.66666666666666</ele><time>2026-04-12T08:31:02Z</time></trkpt><trkpt lat="41.40784138344361" lon="13.949036985516036"><ele>162.33333333333334</ele><time>2026-04-12T08:31:05Z</time></trkpt><trkpt lat="41.407791244792925" lon="13.949093585037607"><ele>164.0</ele><time>2026-04-12T08:31:07Z</time></trkpt><trkpt lat="41.40771023216957" lon="13.949137558331335"><ele>165.66666666666669</ele><time>2026-04-12T08:31:11Z</time></trkpt><trkpt lat="41.40767219715045" lon="13.949225622010859"><ele>167.33333333333334</ele><time>2026-04-12T08:31:16Z</time></trkpt><trkpt lat="41.40762463314848" lon="13.949306490357031"><ele>169.0</ele><time>2026-04-12T08:31:18Z</time></trkpt><trkpt lat="41.407669895711265" lon="13.94940808913518"><ele>169.6</ele><time>2026-04-12T08:31:21Z</time></trkpt><trkpt lat="41.40775472134878" lon="13.949470807509842"><ele>170.2</ele><time>2026-04-12T08:31:22Z</time></trkpt><trkpt lat="41.40779342783433" lon="13.949576576289829"><ele>170.79999999999998</ele><time>2026-04-12T08:31:23Z</time></trkpt><trkpt lat="41.407865458353534" lon="13.949676158728602"><ele>171.39999999999998</ele><time>2026-04-12T08:31:25Z</time></trkpt><trkpt lat="41.40786803504512" lon="13.949817562904189"><ele>172.0</ele><time>2026-04-12T08:31:27Z</time></trkpt><trkpt lat="41.407922309449496" lon="13.949889184350159"><ele>172.0</ele><time>2026-04-12T08:31:30Z</time></trkpt><trkpt lat="41.407979082224465" lon="13.949929775123307"><ele>172.0</ele><time>2026-04-12T08:31:32Z</time></trkpt><trkpt lat="41.408046373723785" lon="13.949984879143964"><ele>172.0</ele><time>2026-04-12T08:31:34Z</time></trkpt><trkpt lat="41.40809633329955" lon="13.950037049064935"><ele>172.0</ele><time>2026-04-12T08:31:35Z</time></trkpt><trkpt lat="41.408153541096354" lon="13.950200092027426"><ele>172.0</ele><time>2026-04-12T08:31:37Z</time></trkpt><trkpt lat="41.408281567485574" lon="13.950265999941529"><ele>169.66666666666669</ele><time>2026-04-12T08:31:39Z</time></trkpt><trkpt lat="41.4083387797093" lon="13.950336119688279"><ele>167.33333333333334</ele><time>2026-04-12T08:31:40Z</time></trkpt><trkpt lat="41.40839311853324" lon="13.950446144263985"><ele>165.0</ele><time>2026-04-12T08:31:41Z</time></trkpt><trkpt lat="41.40846121704734" lon="13.95055067700203"><ele>162.66666666666666</ele><time>2026-04-12T08:31:43Z</time></trkpt><trkpt lat="41.4085482022459" lon="13.95060514877498"><ele>160.33333333333331</ele><time>2026-04-12T08:31:45Z</time></trkpt><trkpt lat="41.40860395138895" lon="13.95065492681208"><ele>158.0</ele><time>2026-04-12T08:31:47Z</time></trkpt><trkpt lat="41.40867257481211" lon="13.950741333733989"><ele>155.0</ele><time>2026-04-12T08:31:49Z</time></trkpt><trkpt lat="41.40892401908759" lon="13.950869903851641"><ele>152.0</ele><time>2026-04-12T08:31:50Z</time></trkpt><trkpt lat="41.40899260975296" lon="13.950895973557136"><ele>149.0</ele><time>2026-04-12T08:31:51Z</time></trkpt><trkpt lat="41.40922437898262" lon="13.950868608164763"><ele>149.0</ele><time>2026-04-12T08:31:55Z</time></trkpt><trkpt lat="41.409345164577836" lon="13.950903103222592"><ele>149.0</ele><time>2026-04-12T08:31:57Z</time></trkpt><trkpt lat="41.409450133925475" lon="13.95097376582682"><ele>149.0</ele><time>2026-04-12T08:31:59Z</time></trkpt><trkpt lat="41.40951024279318" lon="13.951007547730537"><ele>149.0</ele><time>2026-04-12T08:32:00Z</time></trkpt><trkpt lat="41.409603457851475" lon="13.951072426342721"><ele>149.0</ele><time>2026-04-12T08:32:01Z</time></trkpt><trkpt lat="41.40972890993173" lon="13.951129484449005"><ele>147.33333333333331</ele><time>2026-04-12T08:32:03Z</time></trkpt><trkpt lat="41.409792217124135" lon="13.951176196876855"><ele>145.66666666666666</ele><time>2026-04-12T08:32:04Z</time></trkpt><trkpt lat="41.40985819843581" lon="13.951261794967023"><ele>144.0</ele><time>2026-04-12T08:32:05Z</time></trkpt><trkpt lat="41.409918492689116" lon="13.95129804553907"><ele>142.33333333333334</ele><time>2026-04-12T08:32:06Z</time></trkpt><trkpt lat="41.41001275000923" lon="13.951350604174964"><ele>140.66666666666669</ele><time>2026-04-12T08:32:08Z</time></trkpt><trkpt lat="41.41008794328935" lon="13.951395759661542"><ele>139.0</ele><time>2026-04-12T08:32:09Z</time></trkpt><trkpt lat="41.41016934854777" lon="13.951456601866486"><ele>139.0</ele><time>2026-04-12T08:32:10Z</time></trkpt><trkpt lat="41.410253691010276" lon="13.95152272182116"><ele>139.0</ele><time>2026-04-12T08:32:11Z</time></trkpt><trkpt lat="41.41034856397041" lon="13.951599797086292"><ele>139.0</ele><time>2026-04-12T08:32:12Z</time></trkpt><trkpt lat="41.410439666487974" lon="13.95167279180506"><ele>139.0</ele><time>2026-04-12T08:32:13Z</time></trkpt><trkpt lat="41.410556201725996" lon="13.951751616516777"><ele>139.0</ele><time>2026-04-12T08:32:14Z</time></trkpt><trkpt lat="41.41066749744658" lon="13.95181654226041"><ele>137.0</ele><time>2026-04-12T08:32:15Z</time></trkpt><trkpt lat="41.41075922985391" lon="13.951887772478466"><ele>135.0</ele><time>2026-04-12T08:32:16Z</time></trkpt><trkpt lat="41.410841834350876" lon="13.951949536951695"><ele>133.0</ele><time>2026-04-12T08:32:17Z</time></trkpt><trkpt lat="41.41092886664501" lon="13.952005374905722"><ele>131.0</ele><time>2026-04-12T08:32:18Z</time></trkpt><trkpt lat="41.41100670094031" lon="13.952048915516297"><ele>129.0</ele><time>2026-04-12T08:32:19Z</time></trkpt><trkpt lat="41.411075939425274" lon="13.952094601357267"><ele>129.0</ele><time>2026-04-12T08:32:20Z</time></trkpt><trkpt lat="41.41116441516215" lon="13.952169770957445"><ele>129.0</ele><time>2026-04-12T08:32:22Z</time></trkpt><trkpt lat="41.4111390067275" lon="13.952320794894844"><ele>129.0</ele><time>2026-04-12T08:32:24Z</time></trkpt><trkpt lat="41.41109747913559" lon="13.9524354312596"><ele>129.0</ele><time>2026-04-12T08:32:25Z</time></trkpt><trkpt lat="41.41105037780019" lon="13.952565299041442"><ele>129.0</ele><time>2026-04-12T08:32:26Z</time></trkpt><trkpt lat="41.41099889681799" lon="13.952718449614201"><ele>128.83333333333334</ele><time>2026-04-12T08:32:27Z</time></trkpt><trkpt lat="41.410958975479225" lon="13.952853186959347"><ele>128.66666666666666</ele><time>2026-04-12T08:32:28Z</time></trkpt><trkpt lat="41.41092533984197" lon="13.952924438842944"><ele>128.5</ele><time>2026-04-12T08:32:29Z</time></trkpt><trkpt lat="41.41087232980784" lon="13.953068163582794"><ele>128.33333333333331</ele><time>2026-04-12T08:32:31Z</time></trkpt><trkpt lat="41.410845264395434" lon="13.953149412807232"><ele>128.16666666666666</ele><time>2026-04-12T08:32:32Z</time></trkpt><trkpt lat="41.41080870917487" lon="13.953254057515439"><ele>128.0</ele><time>2026-04-12T08:32:34Z</time></trkpt><trkpt lat="41.41078361424323" lon="13.953340148229579"><ele>128.25</ele><time>2026-04-12T08:32:36Z</time></trkpt><trkpt lat="41.41083437245304" lon="13.953399681676824"><ele>128.5</ele><time>2026-04-12T08:32:38Z</time></trkpt><trkpt lat="41.41089326303516" lon="13.95345419544436"><ele>128.75</ele><time>2026-04-12T08:32:42Z</time></trkpt><trkpt lat="41.41094679408333" lon="13.953531911607184"><ele>129.0</ele><time>2026-04-12T08:32:47.023Z</time></trkpt><trkpt lat="41.4111551782502" lon="13.953686803592324"><ele>129.0</ele><time>2026-04-12T08:32:48Z</time></trkpt><trkpt lat="41.41126591956488" lon="13.95380959669426"><ele>129.0</ele><time>2026-04-12T08:32:50Z</time></trkpt><trkpt lat="41.41126055907941" lon="13.953907540978552"><ele>129.0</ele><time>2026-04-12T08:32:51Z</time></trkpt><trkpt lat="41.4111895823243" lon="13.953989010506287"><ele>129.0</ele><time>2026-04-12T08:32:52Z</time></trkpt><trkpt lat="41.41113091914042" lon="13.954099287996135"><ele>129.0</ele><time>2026-04-12T08:32:53Z</time></trkpt><trkpt lat="41.41109206132988" lon="13.954208210918456"><ele>129.5</ele><time>2026-04-12T08:32:54Z</time></trkpt><trkpt lat="41.411062651038655" lon="13.954339075318215"><ele>130.0</ele><time>2026-04-12T08:32:55Z</time></trkpt><trkpt lat="41.41103710321024" lon="13.954431755187636"><ele>130.5</ele><time>2026-04-12T08:32:56Z</time></trkpt><trkpt lat="41.41103247919718" lon="13.954675335187185"><ele>131.0</ele><time>2026-04-12T08:32:58Z</time></trkpt><trkpt lat="41.41098854501438" lon="13.95480096656684"><ele>131.0</ele><time>2026-04-12T08:32:59Z</time></trkpt><trkpt lat="41.41096266737263" lon="13.954942589175964"><ele>131.0</ele><time>2026-04-12T08:33:00Z</time></trkpt><trkpt lat="41.410941500060545" lon="13.955046917607042"><ele>131.0</ele><time>2026-04-12T08:33:01Z</time></trkpt><trkpt lat="41.41092858216803" lon="13.955204213180684"><ele>131.0</ele><time>2026-04-12T08:33:03Z</time></trkpt><trkpt lat="41.41096608447408" lon="13.955418558878144"><ele>131.2</ele><time>2026-04-12T08:33:04Z</time></trkpt><trkpt lat="41.411006094701165" lon="13.955570673429198"><ele>131.39999999999998</ele><time>2026-04-12T08:33:05Z</time></trkpt><trkpt lat="41.41102763534331" lon="13.955695047789407"><ele>131.6</ele><time>2026-04-12T08:33:06Z</time></trkpt><trkpt lat="41.41104049737572" lon="13.955777407704907"><ele>131.79999999999998</ele><time>2026-04-12T08:33:07Z</time></trkpt><trkpt lat="41.411008090398745" lon="13.955932448850144"><ele>132.0</ele><time>2026-04-12T08:33:09Z</time></trkpt><trkpt lat="41.411000133522386" lon="13.956081094056316"><ele>132.5</ele><time>2026-04-12T08:33:10Z</time></trkpt><trkpt lat="41.411013772896254" lon="13.956247209322603"><ele>133.0</ele><time>2026-04-12T08:33:11Z</time></trkpt><trkpt lat="41.41100897334069" lon="13.956412826799447"><ele>133.5</ele><time>2026-04-12T08:33:12Z</time></trkpt><trkpt lat="41.411006525510345" lon="13.956576911420042"><ele>134.0</ele><time>2026-04-12T08:33:13Z</time></trkpt><trkpt lat="41.410979022838184" lon="13.956729998757178"><ele>134.0</ele><time>2026-04-12T08:33:14Z</time></trkpt><trkpt lat="41.41096036193423" lon="13.95688829666893"><ele>134.0</ele><time>2026-04-12T08:33:15Z</time></trkpt><trkpt lat="41.41092473362852" lon="13.957047013829127"><ele>134.0</ele><time>2026-04-12T08:33:16Z</time></trkpt><trkpt lat="41.41087825293987" lon="13.95720607126109"><ele>134.0</ele><time>2026-04-12T08:33:17Z</time></trkpt><trkpt lat="41.410826942335895" lon="13.957382125090492"><ele>133.75</ele><time>2026-04-12T08:33:18Z</time></trkpt><trkpt lat="41.41077645957409" lon="13.95754474271804"><ele>133.5</ele><time>2026-04-12T08:33:19Z</time></trkpt><trkpt lat="41.41072501139137" lon="13.957709261735594"><ele>133.25</ele><time>2026-04-12T08:33:20Z</time></trkpt><trkpt lat="41.41067462678765" lon="13.957874281086946"><ele>133.0</ele><time>2026-04-12T08:33:21Z</time></trkpt><trkpt lat="41.41062228311674" lon="13.958033876726317"><ele>133.0</ele><time>2026-04-12T08:33:22Z</time></trkpt><trkpt lat="41.41056393384775" lon="13.958181415612255"><ele>133.0</ele><time>2026-04-12T08:33:23Z</time></trkpt><trkpt lat="41.41048593484758" lon="13.95834873416779"><ele>133.0</ele><time>2026-04-12T08:33:24Z</time></trkpt><trkpt lat="41.41040423474497" lon="13.958518085960542"><ele>133.0</ele><time>2026-04-12T08:33:25Z</time></trkpt><trkpt lat="41.410336917869344" lon="13.958706902014393"><ele>133.33333333333334</ele><time>2026-04-12T08:33:26Z</time></trkpt><trkpt lat="41.4102564228142" lon="13.958880130563518"><ele>133.66666666666666</ele><time>2026-04-12T08:33:27Z</time></trkpt><trkpt lat="41.410177806829424" lon="13.959060888099321"><ele>134.0</ele><time>2026-04-12T08:33:28Z</time></trkpt><trkpt lat="41.41010779464605" lon="13.959232863642766"><ele>134.0</ele><time>2026-04-12T08:33:29Z</time></trkpt><trkpt lat="41.41003961133734" lon="13.95937825408654"><ele>134.0</ele><time>2026-04-12T08:33:30Z</time></trkpt><trkpt lat="41.40998736203751" lon="13.959511159542181"><ele>134.0</ele><time>2026-04-12T08:33:31Z</time></trkpt><trkpt lat="41.409925624310354" lon="13.95966976746346"><ele>134.0</ele><time>2026-04-12T08:33:32Z</time></trkpt><trkpt lat="41.40986168092288" lon="13.959833145574427"><ele>134.0</ele><time>2026-04-12T08:33:33Z</time></trkpt><trkpt lat="41.409818491302524" lon="13.959987275966014"><ele>134.0</ele><time>2026-04-12T08:33:34Z</time></trkpt><trkpt lat="41.40979529802089" lon="13.960226423831445"><ele>134.0</ele><time>2026-04-12T08:33:35Z</time></trkpt><trkpt lat="41.409776408101884" lon="13.960410213250421"><ele>134.0</ele><time>2026-04-12T08:33:36Z</time></trkpt><trkpt lat="41.40973679924006" lon="13.960605694500616"><ele>133.25</ele><time>2026-04-12T08:33:37Z</time></trkpt><trkpt lat="41.40968978012859" lon="13.960787950492035"><ele>132.5</ele><time>2026-04-12T08:33:38Z</time></trkpt><trkpt lat="41.40965384290066" lon="13.960973170622026"><ele>131.75</ele><time>2026-04-12T08:33:39Z</time></trkpt><trkpt lat="41.40959042013823" lon="13.961139418281423"><ele>131.0</ele><time>2026-04-12T08:33:40Z</time></trkpt><trkpt lat="41.409551531465226" lon="13.961318739386233"><ele>129.75</ele><time>2026-04-12T08:33:41Z</time></trkpt><trkpt lat="41.40952451292617" lon="13.96150169969479"><ele>128.5</ele><time>2026-04-12T08:33:42Z</time></trkpt><trkpt lat="41.40946673108671" lon="13.961674690640498"><ele>127.25</ele><time>2026-04-12T08:33:43Z</time></trkpt><trkpt lat="41.40941578352042" lon="13.961842456895061"><ele>126.0</ele><time>2026-04-12T08:33:44Z</time></trkpt><trkpt lat="41.40933647760344" lon="13.962017212666261"><ele>125.66666666666666</ele><time>2026-04-12T08:33:45Z</time></trkpt><trkpt lat="41.40926105001782" lon="13.96219286694263"><ele>125.33333333333333</ele><time>2026-04-12T08:33:46Z</time></trkpt><trkpt lat="41.40917437850264" lon="13.962365726328784"><ele>125.0</ele><time>2026-04-12T08:33:47Z</time></trkpt><trkpt lat="41.40909353912598" lon="13.962538477303813"><ele>125.0</ele><time>2026-04-12T08:33:48Z</time></trkpt><trkpt lat="41.40896884742947" lon="13.962614275176248"><ele>125.0</ele><time>2026-04-12T08:33:49Z</time></trkpt><trkpt lat="41.4088929205681" lon="13.962728996691576"><ele>125.0</ele><time>2026-04-12T08:33:50Z</time></trkpt><trkpt lat="41.40886777371108" lon="13.962868576173596"><ele>125.0</ele><time>2026-04-12T08:33:51Z</time></trkpt><trkpt lat="41.40884052196569" lon="13.963012463155007"><ele>125.0</ele><time>2026-04-12T08:33:52Z</time></trkpt><trkpt lat="41.4088447067662" lon="13.96319118585178"><ele>125.0</ele><time>2026-04-12T08:33:53Z</time></trkpt><trkpt lat="41.408872939406756" lon="13.963388729702165"><ele>125.0</ele><time>2026-04-12T08:33:54Z</time></trkpt><trkpt lat="41.408910978503705" lon="13.96354969216676"><ele>125.0</ele><time>2026-04-12T08:33:55Z</time></trkpt><trkpt lat="41.40893506691076" lon="13.9636986297238"><ele>124.25</ele><time>2026-04-12T08:33:56Z</time></trkpt><trkpt lat="41.4089315859346" lon="13.963845234161282"><ele>123.5</ele><time>2026-04-12T08:33:57Z</time></trkpt><trkpt lat="41.408877962973854" lon="13.963983480460804"><ele>122.75</ele><time>2026-04-12T08:33:58Z</time></trkpt><trkpt lat="41.408826123238406" lon="13.964129120629044"><ele>122.0</ele><time>2026-04-12T08:33:59Z</time></trkpt><trkpt lat="41.40876285828078" lon="13.964276926540526"><ele>121.75</ele><time>2026-04-12T08:34:00Z</time></trkpt><trkpt lat="41.40870341012178" lon="13.964439511702812"><ele>121.5</ele><time>2026-04-12T08:34:01Z</time></trkpt><trkpt lat="41.4086103367614" lon="13.964591864069522"><ele>121.25</ele><time>2026-04-12T08:34:02Z</time></trkpt><trkpt lat="41.40853015225262" lon="13.964762924437656"><ele>121.0</ele><time>2026-04-12T08:34:03Z</time></trkpt><trkpt lat="41.40844396141558" lon="13.964933711277904"><ele>120.0</ele><time>2026-04-12T08:34:04Z</time></trkpt><trkpt lat="41.40834945268328" lon="13.965106164759847"><ele>119.0</ele><time>2026-04-12T08:34:05Z</time></trkpt><trkpt lat="41.40822805532088" lon="13.965271155333273"><ele>118.0</ele><time>2026-04-12T08:34:06Z</time></trkpt><trkpt lat="41.4081235436682" lon="13.965443971253999"><ele>118.0</ele><time>2026-04-12T08:34:07Z</time></trkpt><trkpt lat="41.40801317133283" lon="13.965613507935402"><ele>118.0</ele><time>2026-04-12T08:34:08Z</time></trkpt><trkpt lat="41.40791268020585" lon="13.965791207051565"><ele>118.0</ele><time>2026-04-12T08:34:09Z</time></trkpt><trkpt lat="41.407823293232305" lon="13.96596948552565"><ele>118.0</ele><time>2026-04-12T08:34:10Z</time></trkpt><trkpt lat="41.40775007022496" lon="13.966164030411559"><ele>118.0</ele><time>2026-04-12T08:34:11Z</time></trkpt><trkpt lat="41.40767622225257" lon="13.966361442956277"><ele>118.0</ele><time>2026-04-12T08:34:12Z</time></trkpt><trkpt lat="41.40759399057147" lon="13.96657652357964"><ele>118.33333333333334</ele><time>2026-04-12T08:34:13Z</time></trkpt><trkpt lat="41.40752861130289" lon="13.96678658771548"><ele>118.66666666666666</ele><time>2026-04-12T08:34:14Z</time></trkpt><trkpt lat="41.40746253593106" lon="13.966998609858313"><ele>119.0</ele><time>2026-04-12T08:34:15Z</time></trkpt><trkpt lat="41.40739046890173" lon="13.967207451329173"><ele>119.0</ele><time>2026-04-12T08:34:16Z</time></trkpt><trkpt lat="41.40731792504681" lon="13.967410097634621"><ele>119.0</ele><time>2026-04-12T08:34:17Z</time></trkpt><trkpt lat="41.40724708467423" lon="13.96762109440552"><ele>119.0</ele><time>2026-04-12T08:34:18Z</time></trkpt><trkpt lat="41.407176667314346" lon="13.967836040362494"><ele>120.66666666666666</ele><time>2026-04-12T08:34:19Z</time></trkpt><trkpt lat="41.40709617819538" lon="13.968035363778464"><ele>122.33333333333334</ele><time>2026-04-12T08:34:20Z</time></trkpt><trkpt lat="41.40700595111829" lon="13.968208236359281"><ele>124.0</ele><time>2026-04-12T08:34:21Z</time></trkpt><trkpt lat="41.40690587433648" lon="13.968387953344505"><ele>124.0</ele><time>2026-04-12T08:34:22Z</time></trkpt><trkpt lat="41.406807853265775" lon="13.968562799654872"><ele>124.0</ele><time>2026-04-12T08:34:23Z</time></trkpt><trkpt lat="41.40670513342596" lon="13.96871984586689"><ele>124.0</ele><time>2026-04-12T08:34:24Z</time></trkpt><trkpt lat="41.40658399512534" lon="13.968861692987506"><ele>124.0</ele><time>2026-04-12T08:34:25Z</time></trkpt><trkpt lat="41.40644263601628" lon="13.968986277823358"><ele>124.0</ele><time>2026-04-12T08:34:26Z</time></trkpt><trkpt lat="41.40630382619476" lon="13.969097757748573"><ele>124.0</ele><time>2026-04-12T08:34:27Z</time></trkpt><trkpt lat="41.40616607952729" lon="13.969188816246188"><ele>124.75</ele><time>2026-04-12T08:34:28Z</time></trkpt><trkpt lat="41.40603756237998" lon="13.969267629700038"><ele>125.5</ele><time>2026-04-12T08:34:29Z</time></trkpt><trkpt lat="41.4059098780988" lon="13.969333865190851"><ele>126.25</ele><time>2026-04-12T08:34:30Z</time></trkpt><trkpt lat="41.4058236520658" lon="13.969410581729546"><ele>127.0</ele><time>2026-04-12T08:34:31Z</time></trkpt><trkpt lat="41.405751948951774" lon="13.969439345112828"><ele>127.00000000000001</ele><time>2026-04-12T08:34:32Z</time></trkpt><trkpt lat="41.40568627797583" lon="13.969289207064298"><ele>127.0</ele><time>2026-04-12T08:34:38Z</time></trkpt><trkpt lat="41.40564486868083" lon="13.96919847480419"><ele>127.0</ele><time>2026-04-12T08:34:39Z</time></trkpt><trkpt lat="41.40560814136584" lon="13.969120719660845"><ele>127.0</ele><time>2026-04-12T08:34:40Z</time></trkpt><trkpt lat="41.40557173378823" lon="13.969027264338306"><ele>127.00000000000001</ele><time>2026-04-12T08:34:41Z</time></trkpt><trkpt lat="41.40553957850684" lon="13.968951641067008"><ele>127.0</ele><time>2026-04-12T08:34:42Z</time></trkpt><trkpt lat="41.40531307259422" lon="13.968981727480724"><ele>128.25</ele><time>2026-04-12T08:34:44Z</time></trkpt><trkpt lat="41.40523246199226" lon="13.96894158713771"><ele>129.5</ele><time>2026-04-12T08:34:46Z</time></trkpt><trkpt lat="41.40514350622019" lon="13.968935728447736"><ele>130.75</ele><time>2026-04-12T08:34:48.023Z</time></trkpt><trkpt lat="41.40505591405361" lon="13.968910503209191"><ele>132.0</ele><time>2026-04-12T08:34:50.016Z</time></trkpt><trkpt lat="41.40496149509132" lon="13.96857397755643"><ele>132.0</ele><time>2026-04-12T08:34:52Z</time></trkpt><trkpt lat="41.40489572276386" lon="13.968520579084686"><ele>132.0</ele><time>2026-04-12T08:34:53Z</time></trkpt><trkpt lat="41.40481275858019" lon="13.968456366067242"><ele>132.0</ele><time>2026-04-12T08:34:54Z</time></trkpt><trkpt lat="41.40476213516952" lon="13.968392204787015"><ele>132.0</ele><time>2026-04-12T08:34:55Z</time></trkpt><trkpt lat="41.404697442682206" lon="13.968325874147943"><ele>132.0</ele><time>2026-04-12T08:34:56Z</time></trkpt><trkpt lat="41.404643328074386" lon="13.968265586338992"><ele>132.0</ele><time>2026-04-12T08:34:57Z</time></trkpt><trkpt lat="41.40460359590904" lon="13.968196265981126"><ele>132.33333333333334</ele><time>2026-04-12T08:34:58Z</time></trkpt><trkpt lat="41.404577377121655" lon="13.968101541567739"><ele>132.66666666666666</ele><time>2026-04-12T08:34:59Z</time></trkpt><trkpt lat="41.40454697772357" lon="13.968023539754729"><ele>133.0</ele><time>2026-04-12T08:35:01Z</time></trkpt><trkpt lat="41.40451459621061" lon="13.967942955606194"><ele>133.33333333333331</ele><time>2026-04-12T08:35:03Z</time></trkpt><trkpt lat="41.404491582848344" lon="13.967829636554098"><ele>133.66666666666666</ele><time>2026-04-12T08:35:11Z</time></trkpt><trkpt lat="41.404482059890206" lon="13.967743805309384"><ele>134.0</ele><time>2026-04-12T08:35:45Z</time></trkpt><trkpt lat="41.404625021877635" lon="13.967562976127267"><ele>133.25</ele><time>2026-04-12T08:36:25Z</time></trkpt><trkpt lat="41.40471439373047" lon="13.967402585125518"><ele>132.5</ele><time>2026-04-12T08:36:26Z</time></trkpt><trkpt lat="41.40479089216485" lon="13.967284779797307"><ele>131.75</ele><time>2026-04-12T08:36:27Z</time></trkpt><trkpt lat="41.40485483809803" lon="13.967260345499174"><ele>131.0</ele><time>2026-04-12T08:36:29Z</time></trkpt><trkpt lat="41.404803409952464" lon="13.967409477554902"><ele>131.0</ele><time>2026-04-12T08:36:31Z</time></trkpt><trkpt lat="41.40479711051165" lon="13.967506891335608"><ele>131.0</ele><time>2026-04-12T08:36:32Z</time></trkpt><trkpt lat="41.40485243872286" lon="13.967565990731897"><ele>131.0</ele><time>2026-04-12T08:36:33Z</time></trkpt><trkpt lat="41.40494646204511" lon="13.96762344101754"><ele>131.0</ele><time>2026-04-12T08:36:34Z</time></trkpt><trkpt lat="41.40503644342142" lon="13.967705050315452"><ele>131.0</ele><time>2026-04-12T08:36:35Z</time></trkpt><trkpt lat="41.40508184705162" lon="13.96779168771317"><ele>131.0</ele><time>2026-04-12T08:36:36Z</time></trkpt><trkpt lat="41.40514285901068" lon="13.967650354773484"><ele>131.0</ele><time>2026-04-12T08:36:39Z</time></trkpt><trkpt lat="41.40518338755493" lon="13.967539455801743"><ele>131.0</ele><time>2026-04-12T08:36:40Z</time></trkpt><trkpt lat="41.405231921870126" lon="13.967426092741178"><ele>131.0</ele><time>2026-04-12T08:36:41Z</time></trkpt><trkpt lat="41.40517510113767" lon="13.96729691710017"><ele>131.0</ele><time>2026-04-12T08:36:43Z</time></trkpt><trkpt lat="41.4050982477002" lon="13.96725412796699"><ele>131.0</ele><time>2026-04-12T08:36:44Z</time></trkpt><trkpt lat="41.40500444399907" lon="13.967213374962252"><ele>131.0</ele><time>2026-04-12T08:36:45Z</time></trkpt><trkpt lat="41.404948423156235" lon="13.967131734181548"><ele>131.0</ele><time>2026-04-12T08:36:46Z</time></trkpt><trkpt lat="41.404938583950575" lon="13.967031563167094"><ele>131.0</ele><time>2026-04-12T08:36:47Z</time></trkpt><trkpt lat="41.40498482188384" lon="13.966914142900245"><ele>131.0</ele><time>2026-04-12T08:36:48Z</time></trkpt><trkpt lat="41.40507702967552" lon="13.966768656323051"><ele>131.0</ele><time>2026-04-12T08:36:49Z</time></trkpt><trkpt lat="41.405185672712015" lon="13.966599272221277"><ele>131.0</ele><time>2026-04-12T08:36:50Z</time></trkpt><trkpt lat="41.4052577695381" lon="13.966467563263672"><ele>131.0</ele><time>2026-04-12T08:36:51Z</time></trkpt><trkpt lat="41.405297946494144" lon="13.966338647138423"><ele>131.0</ele><time>2026-04-12T08:36:52Z</time></trkpt><trkpt lat="41.4053087920505" lon="13.96621996736199"><ele>131.0</ele><time>2026-04-12T08:36:53Z</time></trkpt><trkpt lat="41.405255768023636" lon="13.966078411450932"><ele>131.0</ele><time>2026-04-12T08:36:55Z</time></trkpt><trkpt lat="41.40518607518564" lon="13.966012242938637"><ele>131.0</ele><time>2026-04-12T08:36:56Z</time></trkpt><trkpt lat="41.4050709579852" lon="13.965957321708002"><ele>131.0</ele><time>2026-04-12T08:36:57Z</time></trkpt><trkpt lat="41.40496463575031" lon="13.965927528456294"><ele>131.0</ele><time>2026-04-12T08:36:58Z</time></trkpt><trkpt lat="41.40490396663827" lon="13.965959772176387"><ele>131.0</ele><time>2026-04-12T08:36:59Z</time></trkpt><trkpt lat="41.404870569979444" lon="13.966034999684219"><ele>131.0</ele><time>2026-04-12T08:37:00Z</time></trkpt><trkpt lat="41.40485012297884" lon="13.9661482684188"><ele>131.0</ele><time>2026-04-12T08:37:01Z</time></trkpt><trkpt lat="41.404839027787276" lon="13.96630411145978"><ele>131.0</ele><time>2026-04-12T08:37:02Z</time></trkpt><trkpt lat="41.40482976079713" lon="13.966471677140536"><ele>131.0</ele><time>2026-04-12T08:37:03Z</time></trkpt><trkpt lat="41.40482217181034" lon="13.96666926757081"><ele>131.0</ele><time>2026-04-12T08:37:04Z</time></trkpt><trkpt lat="41.40481645015633" lon="13.966830245282114"><ele>131.0</ele><time>2026-04-12T08:37:05Z</time></trkpt><trkpt lat="41.40480707812264" lon="13.966915193374419"><ele>131.0</ele><time>2026-04-12T08:37:06Z</time></trkpt><trkpt lat="41.40472929124763" lon="13.966882821293334"><ele>131.0</ele><time>2026-04-12T08:37:08Z</time></trkpt><trkpt lat="41.40467196808349" lon="13.966827191451012"><ele>131.0</ele><time>2026-04-12T08:37:09Z</time></trkpt><trkpt lat="41.4046197638812" lon="13.966718327902326"><ele>131.0</ele><time>2026-04-12T08:37:10Z</time></trkpt><trkpt lat="41.40455454359068" lon="13.96654180981744"><ele>131.0</ele><time>2026-04-12T08:37:11Z</time></trkpt><trkpt lat="41.40449440987716" lon="13.9663806475482"><ele>131.0</ele><time>2026-04-12T08:37:12Z</time></trkpt><trkpt lat="41.404466538630935" lon="13.966278294098913"><ele>131.0</ele><time>2026-04-12T08:37:13Z</time></trkpt><trkpt lat="41.40453496905292" lon="13.966116006804347"><ele>131.0</ele><time>2026-04-12T08:37:15Z</time></trkpt><trkpt lat="41.404623102332025" lon="13.966012059290673"><ele>131.0</ele><time>2026-04-12T08:37:16Z</time></trkpt><trkpt lat="41.40467377073533" lon="13.96592772582113"><ele>131.0</ele><time>2026-04-12T08:37:17Z</time></trkpt><trkpt lat="41.40466654835805" lon="13.965814091043788"><ele>132.6</ele><time>2026-04-12T08:37:19Z</time></trkpt><trkpt lat="41.40454860035232" lon="13.965817429154297"><ele>134.2</ele><time>2026-04-12T08:37:21Z</time></trkpt><trkpt lat="41.40449080474341" lon="13.965905980827232"><ele>135.8</ele><time>2026-04-12T08:37:22Z</time></trkpt><trkpt lat="41.40443120694113" lon="13.966042773829923"><ele>137.4</ele><time>2026-04-12T08:37:23Z</time></trkpt><trkpt lat="41.40435072303155" lon="13.966162750871934"><ele>139.0</ele><time>2026-04-12T08:37:24Z</time></trkpt><trkpt lat="41.40427288831545" lon="13.96621065452732"><ele>139.0</ele><time>2026-04-12T08:37:25Z</time></trkpt><trkpt lat="41.40423501771412" lon="13.966118586776243"><ele>139.0</ele><time>2026-04-12T08:37:27Z</time></trkpt><trkpt lat="41.40426709176339" lon="13.966013261318462"><ele>139.0</ele><time>2026-04-12T08:37:28Z</time></trkpt><trkpt lat="41.40433371972563" lon="13.96591544197523"><ele>139.0</ele><time>2026-04-12T08:37:29Z</time></trkpt><trkpt lat="41.40436463287129" lon="13.965824985012254"><ele>139.0</ele><time>2026-04-12T08:37:30Z</time></trkpt><trkpt lat="41.40432519409622" lon="13.965735211013486"><ele>139.0</ele><time>2026-04-12T08:37:32Z</time></trkpt><trkpt lat="41.40422654654509" lon="13.965788940797738"><ele>139.0</ele><time>2026-04-12T08:37:34Z</time></trkpt><trkpt lat="41.40418046701079" lon="13.965896119185532"><ele>139.0</ele><time>2026-04-12T08:37:35Z</time></trkpt><trkpt lat="41.40412562088301" lon="13.965992781374956"><ele>139.0</ele><time>2026-04-12T08:37:36Z</time></trkpt><trkpt lat="41.40405100411808" lon="13.965961085617801"><ele>139.0</ele><time>2026-04-12T08:37:38Z</time></trkpt><trkpt lat="41.403982723452145" lon="13.965850780535735"><ele>139.0</ele><time>2026-04-12T08:37:40Z</time></trkpt><trkpt lat="41.403975819008004" lon="13.965749925007676"><ele>139.0</ele><time>2026-04-12T08:37:41Z</time></trkpt><trkpt lat="41.40401652179342" lon="13.965618148852439"><ele>139.0</ele><time>2026-04-12T08:37:42Z</time></trkpt><trkpt lat="41.40410323211791" lon="13.965473936597611"><ele>139.0</ele><time>2026-04-12T08:37:43Z</time></trkpt><trkpt lat="41.40413853500893" lon="13.965378397621391"><ele>139.0</ele><time>2026-04-12T08:37:44Z</time></trkpt><trkpt lat="41.404081969560956" lon="13.96532414707974"><ele>139.0</ele><time>2026-04-12T08:37:46Z</time></trkpt><trkpt lat="41.4039480398993" lon="13.965395196196111"><ele>139.0</ele><time>2026-04-12T08:37:48Z</time></trkpt><trkpt lat="41.403863028389345" lon="13.96550631851071"><ele>139.0</ele><time>2026-04-12T08:37:49Z</time></trkpt><trkpt lat="41.40381180768025" lon="13.965589320792825"><ele>139.0</ele><time>2026-04-12T08:37:50Z</time></trkpt><trkpt lat="41.40387041212532" lon="13.96569093032494"><ele>139.0</ele><time>2026-04-12T08:37:52Z</time></trkpt><trkpt lat="41.40383660756897" lon="13.965788736752147"><ele>139.0</ele><time>2026-04-12T08:37:54Z</time></trkpt><trkpt lat="41.40378858705231" lon="13.965902355758494"><ele>139.0</ele><time>2026-04-12T08:37:56Z</time></trkpt><trkpt lat="41.403706810668055" lon="13.966000931178831"><ele>139.0</ele><time>2026-04-12T08:37:58Z</time></trkpt><trkpt lat="41.4036084518114" lon="13.966053422484404"><ele>139.0</ele><time>2026-04-12T08:37:59Z</time></trkpt><trkpt lat="41.40355275073528" lon="13.966114237556528"><ele>139.0</ele><time>2026-04-12T08:38:00Z</time></trkpt><trkpt lat="41.403635358889446" lon="13.966249623180637"><ele>139.0</ele><time>2026-04-12T08:38:02Z</time></trkpt><trkpt lat="41.40374433300347" lon="13.966259518898738"><ele>139.0</ele><time>2026-04-12T08:38:03Z</time></trkpt><trkpt lat="41.40384816194146" lon="13.966181593165333"><ele>139.0</ele><time>2026-04-12T08:38:04Z</time></trkpt><trkpt lat="41.4039247106175" lon="13.966099229204199"><ele>139.0</ele><time>2026-04-12T08:38:05Z</time></trkpt><trkpt lat="41.40397088737089" lon="13.966029160142696"><ele>139.0</ele><time>2026-04-12T08:38:06Z</time></trkpt><trkpt lat="41.404062136806985" lon="13.965999928094348"><ele>139.0</ele><time>2026-04-12T08:38:08Z</time></trkpt><trkpt lat="41.404113065957645" lon="13.966059354315279"><ele>139.0</ele><time>2026-04-12T08:38:09Z</time></trkpt><trkpt lat="41.40411376915877" lon="13.966186471589324"><ele>139.0</ele><time>2026-04-12T08:38:11Z</time></trkpt><trkpt lat="41.403997680255394" lon="13.966275495380353"><ele>139.0</ele><time>2026-04-12T08:38:13Z</time></trkpt><trkpt lat="41.403881696450306" lon="13.966298194283997"><ele>139.0</ele><time>2026-04-12T08:38:14Z</time></trkpt><trkpt lat="41.40377538637576" lon="13.96634934729163"><ele>139.0</ele><time>2026-04-12T08:38:15Z</time></trkpt><trkpt lat="41.40369300642154" lon="13.966449676465846"><ele>139.0</ele><time>2026-04-12T08:38:16Z</time></trkpt><trkpt lat="41.40360756273234" lon="13.966619115715897"><ele>138.6</ele><time>2026-04-12T08:38:17Z</time></trkpt><trkpt lat="41.40357195664197" lon="13.966746768766853"><ele>138.2</ele><time>2026-04-12T08:38:18Z</time></trkpt><trkpt lat="41.40361067366802" lon="13.966861145701763"><ele>137.79999999999998</ele><time>2026-04-12T08:38:20Z</time></trkpt><trkpt lat="41.40369525507728" lon="13.966912913617172"><ele>137.4</ele><time>2026-04-12T08:38:21Z</time></trkpt><trkpt lat="41.40377217798978" lon="13.966974915579662"><ele>137.0</ele><time>2026-04-12T08:38:22Z</time></trkpt><trkpt lat="41.40386781629969" lon="13.966944853878953"><ele>137.0</ele><time>2026-04-12T08:38:25Z</time></trkpt><trkpt lat="41.40387930507477" lon="13.966859289468621"><ele>137.0</ele><time>2026-04-12T08:38:26Z</time></trkpt><trkpt lat="41.40380590069023" lon="13.96670883282192"><ele>137.0</ele><time>2026-04-12T08:38:28Z</time></trkpt><trkpt lat="41.403842196827156" lon="13.966586307465889"><ele>137.0</ele><time>2026-04-12T08:38:30Z</time></trkpt><trkpt lat="41.40392886825464" lon="13.966519247150163"><ele>137.0</ele><time>2026-04-12T08:38:31Z</time></trkpt><trkpt lat="41.4040479011714" lon="13.966447778786915"><ele>137.0</ele><time>2026-04-12T08:38:32Z</time></trkpt><trkpt lat="41.40412626339426" lon="13.96640718568042"><ele>137.0</ele><time>2026-04-12T08:38:33Z</time></trkpt><trkpt lat="41.404188984131096" lon="13.966437928519127"><ele>137.0</ele><time>2026-04-12T08:38:35Z</time></trkpt><trkpt lat="41.40419885810864" lon="13.96665481343121"><ele>137.0</ele><time>2026-04-12T08:38:37Z</time></trkpt><trkpt lat="41.40418342075064" lon="13.966768784009762"><ele>137.0</ele><time>2026-04-12T08:38:38Z</time></trkpt><trkpt lat="41.40412853622283" lon="13.966837052425666"><ele>137.0</ele><time>2026-04-12T08:38:39Z</time></trkpt><trkpt lat="41.40402336855201" lon="13.966914363103268"><ele>137.0</ele><time>2026-04-12T08:38:40Z</time></trkpt><trkpt lat="41.40391675956064" lon="13.967025062514129"><ele>137.0</ele><time>2026-04-12T08:38:41Z</time></trkpt><trkpt lat="41.403863232100015" lon="13.967124607279526"><ele>137.0</ele><time>2026-04-12T08:38:42Z</time></trkpt><trkpt lat="41.403913718458035" lon="13.967192046521166"><ele>137.0</ele><time>2026-04-12T08:38:44Z</time></trkpt><trkpt lat="41.40398740282356" lon="13.967193631217492"><ele>137.0</ele><time>2026-04-12T08:38:45Z</time></trkpt><trkpt lat="41.404049985373106" lon="13.967158773155433"><ele>137.0</ele><time>2026-04-12T08:38:46Z</time></trkpt><trkpt lat="41.404136526180274" lon="13.967046158637931"><ele>137.0</ele><time>2026-04-12T08:38:47Z</time></trkpt><trkpt lat="41.40423788056649" lon="13.966913726967372"><ele>137.0</ele><time>2026-04-12T08:38:48Z</time></trkpt><trkpt lat="41.404319596452474" lon="13.966808941587047"><ele>137.0</ele><time>2026-04-12T08:38:49Z</time></trkpt><trkpt lat="41.40437050449538" lon="13.96672492987931"><ele>137.0</ele><time>2026-04-12T08:38:50Z</time></trkpt><trkpt lat="41.40437674632664" lon="13.966628276504244"><ele>137.0</ele><time>2026-04-12T08:38:51Z</time></trkpt><trkpt lat="41.40436514983277" lon="13.966502133266914"><ele>137.0</ele><time>2026-04-12T08:38:52Z</time></trkpt><trkpt lat="41.40437693517687" lon="13.96641579423063"><ele>137.0</ele><time>2026-04-12T08:38:54Z</time></trkpt><trkpt lat="41.40446591676995" lon="13.966565149979424"><ele>137.0</ele><time>2026-04-12T08:38:56Z</time></trkpt><trkpt lat="41.404511370243185" lon="13.966711253656776"><ele>137.0</ele><time>2026-04-12T08:38:57Z</time></trkpt><trkpt lat="41.4045414906085" lon="13.96683504275574"><ele>137.0</ele><time>2026-04-12T08:38:58Z</time></trkpt><trkpt lat="41.40448491899225" lon="13.966972005623692"><ele>137.0</ele><time>2026-04-12T08:39:00Z</time></trkpt><trkpt lat="41.404389598104515" lon="13.967014143625201"><ele>137.0</ele><time>2026-04-12T08:39:01Z</time></trkpt><trkpt lat="41.40428111650635" lon="13.96709353871253"><ele>137.0</ele><time>2026-04-12T08:39:02Z</time></trkpt><trkpt lat="41.404219523144604" lon="13.967144660818985"><ele>137.0</ele><time>2026-04-12T08:39:03Z</time></trkpt><trkpt lat="41.404311807648924" lon="13.967186061021533"><ele>137.0</ele><time>2026-04-12T08:39:06Z</time></trkpt><trkpt lat="41.40442285121564" lon="13.967129497838858"><ele>137.0</ele><time>2026-04-12T08:39:07Z</time></trkpt><trkpt lat="41.404520629875734" lon="13.96707982495683"><ele>137.0</ele><time>2026-04-12T08:39:08Z</time></trkpt><trkpt lat="41.404470983251485" lon="13.967204771699135"><ele>137.0</ele><time>2026-04-12T08:39:12Z</time></trkpt><trkpt lat="41.4043712998971" lon="13.967284136973802"><ele>137.0</ele><time>2026-04-12T08:39:13Z</time></trkpt><trkpt lat="41.40418775210766" lon="13.967346083903877"><ele>137.0</ele><time>2026-04-12T08:39:14Z</time></trkpt><trkpt lat="41.40410888350186" lon="13.967366935151247"><ele>137.0</ele><time>2026-04-12T08:39:15Z</time></trkpt><trkpt lat="41.40428199246787" lon="13.967410428345021"><ele>137.0</ele><time>2026-04-12T08:39:19Z</time></trkpt><trkpt lat="41.40444560019932" lon="13.967468926860906"><ele>137.0</ele><time>2026-04-12T08:39:22Z</time></trkpt><trkpt lat="41.40454086298156" lon="13.967415763237733"><ele>137.0</ele><time>2026-04-12T08:39:23Z</time></trkpt><trkpt lat="41.40460361099148" lon="13.96736194769786"><ele>137.0</ele><time>2026-04-12T08:39:24Z</time></trkpt><trkpt lat="41.404697758627535" lon="13.967443870899082"><ele>137.0</ele><time>2026-04-12T08:39:28Z</time></trkpt><trkpt lat="41.40451778131746" lon="13.967600240354976"><ele>136.5</ele><time>2026-04-12T08:39:32Z</time></trkpt><trkpt lat="41.40444313167903" lon="13.967598073997976"><ele>136.0</ele><time>2026-04-12T08:39:33Z</time></trkpt><trkpt lat="41.404383692861934" lon="13.96763239675573"><ele>135.5</ele><time>2026-04-12T08:39:35Z</time></trkpt><trkpt lat="41.404302992883586" lon="13.967646265652414"><ele>135.0</ele><time>2026-04-12T08:44:36Z</time></trkpt><trkpt lat="41.40420170805903" lon="13.967665703864784"><ele>134.5</ele><time>2026-04-12T08:44:38Z</time></trkpt><trkpt lat="41.404096016146994" lon="13.967624867533834"><ele>134.0</ele><time>2026-04-12T08:44:40Z</time></trkpt><trkpt lat="41.40403413045025" lon="13.967575151956453"><ele>134.6</ele><time>2026-04-12T08:44:41Z</time></trkpt><trkpt lat="41.40397095111999" lon="13.96751255798952"><ele>135.2</ele><time>2026-04-12T08:44:42Z</time></trkpt><trkpt lat="41.403890158514734" lon="13.967450594867138"><ele>135.79999999999998</ele><time>2026-04-12T08:44:43Z</time></trkpt><trkpt lat="41.40380518200949" lon="13.967382053220595"><ele>136.4</ele><time>2026-04-12T08:44:44Z</time></trkpt><trkpt lat="41.40371819278094" lon="13.967320873299826"><ele>137.0</ele><time>2026-04-12T08:44:45Z</time></trkpt><trkpt lat="41.40363143658263" lon="13.96727189168651"><ele>141.6</ele><time>2026-04-12T08:44:46Z</time></trkpt><trkpt lat="41.40354877864002" lon="13.967213628027947"><ele>146.2</ele><time>2026-04-12T08:44:47Z</time></trkpt><trkpt lat="41.403491132482415" lon="13.967150434146957"><ele>150.8</ele><time>2026-04-12T08:44:48Z</time></trkpt><trkpt lat="41.403428467601714" lon="13.967093382729983"><ele>155.4</ele><time>2026-04-12T08:44:50Z</time></trkpt><trkpt lat="41.40337098725384" lon="13.967002078341915"><ele>160.0</ele><time>2026-04-12T08:44:55Z</time></trkpt><trkpt lat="41.40330873873852" lon="13.966835271405657"><ele>160.0</ele><time>2026-04-12T08:44:57Z</time></trkpt><trkpt lat="41.40327521891393" lon="13.966747979430421"><ele>160.0</ele><time>2026-04-12T08:44:58Z</time></trkpt><trkpt lat="41.40322262650951" lon="13.96663524766064"><ele>160.0</ele><time>2026-04-12T08:44:59Z</time></trkpt><trkpt lat="41.40317629614706" lon="13.966523030646186"><ele>160.0</ele><time>2026-04-12T08:45:00Z</time></trkpt><trkpt lat="41.40312616411895" lon="13.966398580270402"><ele>160.0</ele><time>2026-04-12T08:45:01Z</time></trkpt><trkpt lat="41.403079452799396" lon="13.966262732483703"><ele>159.0</ele><time>2026-04-12T08:45:02Z</time></trkpt><trkpt lat="41.403025512081186" lon="13.966124915655024"><ele>158.0</ele><time>2026-04-12T08:45:03Z</time></trkpt><trkpt lat="41.40297650146282" lon="13.965984778696965"><ele>157.0</ele><time>2026-04-12T08:45:04Z</time></trkpt><trkpt lat="41.40293085152941" lon="13.965828336801222"><ele>156.0</ele><time>2026-04-12T08:45:05Z</time></trkpt><trkpt lat="41.40287529282248" lon="13.965682588556698"><ele>158.5</ele><time>2026-04-12T08:45:06Z</time></trkpt><trkpt lat="41.40283863241763" lon="13.965534868522553"><ele>161.0</ele><time>2026-04-12T08:45:07Z</time></trkpt><trkpt lat="41.402808458210174" lon="13.96536252622472"><ele>163.5</ele><time>2026-04-12T08:45:08Z</time></trkpt><trkpt lat="41.402786629115425" lon="13.965180131960116"><ele>166.0</ele><time>2026-04-12T08:45:09Z</time></trkpt><trkpt lat="41.40278568222352" lon="13.965005590847303"><ele>166.0</ele><time>2026-04-12T08:45:10Z</time></trkpt><trkpt lat="41.4027843715154" lon="13.964830156951377"><ele>166.0</ele><time>2026-04-12T08:45:11Z</time></trkpt><trkpt lat="41.402777715562145" lon="13.96466018432947"><ele>166.0</ele><time>2026-04-12T08:45:12Z</time></trkpt><trkpt lat="41.40280587971335" lon="13.964495253013418"><ele>166.0</ele><time>2026-04-12T08:45:13Z</time></trkpt><trkpt lat="41.402803228461465" lon="13.964331555095422"><ele>169.25</ele><time>2026-04-12T08:45:14Z</time></trkpt><trkpt lat="41.40282339860479" lon="13.964169487036806"><ele>172.5</ele><time>2026-04-12T08:45:15Z</time></trkpt><trkpt lat="41.40284057028761" lon="13.964003657695052"><ele>175.75</ele><time>2026-04-12T08:45:16Z</time></trkpt><trkpt lat="41.402849500708975" lon="13.963822366749664"><ele>179.0</ele><time>2026-04-12T08:45:17Z</time></trkpt><trkpt lat="41.40284926687865" lon="13.963646586615821"><ele>179.0</ele><time>2026-04-12T08:45:18Z</time></trkpt><trkpt lat="41.40283468691779" lon="13.963484506219556"><ele>179.0</ele><time>2026-04-12T08:45:19Z</time></trkpt><trkpt lat="41.40282342283545" lon="13.96332097373667"><ele>179.0</ele><time>2026-04-12T08:45:20Z</time></trkpt><trkpt lat="41.402780862851564" lon="13.963127688364262"><ele>179.0</ele><time>2026-04-12T08:45:21Z</time></trkpt><trkpt lat="41.40274163568776" lon="13.962967939573529"><ele>182.5</ele><time>2026-04-12T08:45:22Z</time></trkpt><trkpt lat="41.40270276797415" lon="13.962810965980024"><ele>186.0</ele><time>2026-04-12T08:45:23Z</time></trkpt><trkpt lat="41.40265823323429" lon="13.96263939039846"><ele>189.5</ele><time>2026-04-12T08:45:24Z</time></trkpt><trkpt lat="41.402629196694015" lon="13.962471601118922"><ele>193.0</ele><time>2026-04-12T08:45:25Z</time></trkpt><trkpt lat="41.40261443545796" lon="13.96228946965999"><ele>194.0</ele><time>2026-04-12T08:45:26Z</time></trkpt><trkpt lat="41.40259639797581" lon="13.962100737631902"><ele>195.0</ele><time>2026-04-12T08:45:27Z</time></trkpt><trkpt lat="41.40258780427051" lon="13.961914387540055"><ele>196.0</ele><time>2026-04-12T08:45:28Z</time></trkpt><trkpt lat="41.40259524723501" lon="13.961745112530766"><ele>197.0</ele><time>2026-04-12T08:45:29Z</time></trkpt><trkpt lat="41.40260243168535" lon="13.961567958608304"><ele>198.75</ele><time>2026-04-12T08:45:30Z</time></trkpt><trkpt lat="41.4026068534674" lon="13.961405486788262"><ele>200.5</ele><time>2026-04-12T08:45:31Z</time></trkpt><trkpt lat="41.40263114540307" lon="13.961239601446426"><ele>202.25</ele><time>2026-04-12T08:45:32Z</time></trkpt><trkpt lat="41.4026640305897" lon="13.961066504440945"><ele>204.0</ele><time>2026-04-12T08:45:33Z</time></trkpt><trkpt lat="41.40269725031367" lon="13.960889526695572"><ele>207.5</ele><time>2026-04-12T08:45:34Z</time></trkpt><trkpt lat="41.402730632759976" lon="13.96073771795053"><ele>211.0</ele><time>2026-04-12T08:45:35Z</time></trkpt><trkpt lat="41.402776816064375" lon="13.960568722480154"><ele>214.5</ele><time>2026-04-12T08:45:36Z</time></trkpt><trkpt lat="41.40285049084814" lon="13.96036033306294"><ele>218.0</ele><time>2026-04-12T08:45:37Z</time></trkpt><trkpt lat="41.402928514415756" lon="13.960147248600501"><ele>222.66666666666669</ele><time>2026-04-12T08:45:38Z</time></trkpt><trkpt lat="41.402982078206065" lon="13.959924618457551"><ele>227.33333333333331</ele><time>2026-04-12T08:45:39Z</time></trkpt><trkpt lat="41.40305223775495" lon="13.959708976296048"><ele>232.0</ele><time>2026-04-12T08:45:40Z</time></trkpt><trkpt lat="41.403119435030995" lon="13.959498528821973"><ele>223.66666666666666</ele><time>2026-04-12T08:45:41Z</time></trkpt><trkpt lat="41.403181244334874" lon="13.959287341792528"><ele>215.33333333333331</ele><time>2026-04-12T08:45:42Z</time></trkpt><trkpt lat="41.403237627108076" lon="13.959047655064218"><ele>207.0</ele><time>2026-04-12T08:45:43Z</time></trkpt><trkpt lat="41.40327784033652" lon="13.958829183009529"><ele>207.0</ele><time>2026-04-12T08:45:44Z</time></trkpt><trkpt lat="41.403311963750006" lon="13.958595206026514"><ele>207.0</ele><time>2026-04-12T08:45:45Z</time></trkpt><trkpt lat="41.403354156184804" lon="13.958372387893025"><ele>207.0</ele><time>2026-04-12T08:45:46Z</time></trkpt><trkpt lat="41.40336512045075" lon="13.958150081912192"><ele>210.0</ele><time>2026-04-12T08:45:47Z</time></trkpt><trkpt lat="41.403376688107166" lon="13.957922142428405"><ele>213.0</ele><time>2026-04-12T08:45:48Z</time></trkpt><trkpt lat="41.403391120326845" lon="13.957696152420096"><ele>216.0</ele><time>2026-04-12T08:45:49Z</time></trkpt><trkpt lat="41.40340098892491" lon="13.957468928241111"><ele>220.0</ele><time>2026-04-12T08:45:50Z</time></trkpt><trkpt lat="41.40341354721586" lon="13.957250487687466"><ele>224.0</ele><time>2026-04-12T08:45:51Z</time></trkpt><trkpt lat="41.40342426806646" lon="13.957031792074087"><ele>228.0</ele><time>2026-04-12T08:45:52Z</time></trkpt><trkpt lat="41.403422030470786" lon="13.956809844292557"><ele>232.33333333333331</ele><time>2026-04-12T08:45:53Z</time></trkpt><trkpt lat="41.4034410576669" lon="13.956599628956631"><ele>236.66666666666666</ele><time>2026-04-12T08:45:54Z</time></trkpt><trkpt lat="41.40347129877006" lon="13.956380583519095"><ele>241.0</ele><time>2026-04-12T08:45:55Z</time></trkpt><trkpt lat="41.4035106489933" lon="13.956162511258881"><ele>241.0</ele><time>2026-04-12T08:45:56Z</time></trkpt><trkpt lat="41.403556031534606" lon="13.955945773665395"><ele>241.0</ele><time>2026-04-12T08:45:57Z</time></trkpt><trkpt lat="41.40360770373105" lon="13.955741382794576"><ele>241.0</ele><time>2026-04-12T08:45:58Z</time></trkpt><trkpt lat="41.40365685386477" lon="13.955544447993798"><ele>244.5</ele><time>2026-04-12T08:45:59Z</time></trkpt><trkpt lat="41.40369669340186" lon="13.955353014669086"><ele>248.0</ele><time>2026-04-12T08:46:00Z</time></trkpt><trkpt lat="41.40372696396485" lon="13.955170235453881"><ele>251.5</ele><time>2026-04-12T08:46:01Z</time></trkpt><trkpt lat="41.40374614647751" lon="13.954991873191036"><ele>255.0</ele><time>2026-04-12T08:46:02Z</time></trkpt><trkpt lat="41.40377196757974" lon="13.954790954659833"><ele>256.3333333333333</ele><time>2026-04-12T08:46:03Z</time></trkpt><trkpt lat="41.40375185271209" lon="13.954595598526158"><ele>257.66666666666663</ele><time>2026-04-12T08:46:04Z</time></trkpt><trkpt lat="41.40372479846682" lon="13.954401894339222"><ele>259.0</ele><time>2026-04-12T08:46:05Z</time></trkpt><trkpt lat="41.40368055895548" lon="13.954194537306064"><ele>261.3333333333333</ele><time>2026-04-12T08:46:06Z</time></trkpt><trkpt lat="41.40362886064949" lon="13.953986604544996"><ele>263.6666666666667</ele><time>2026-04-12T08:46:07Z</time></trkpt><trkpt lat="41.40357063077683" lon="13.953777757666561"><ele>266.0</ele><time>2026-04-12T08:46:08Z</time></trkpt><trkpt lat="41.403517157348446" lon="13.95357642457913"><ele>266.0</ele><time>2026-04-12T08:46:09Z</time></trkpt><trkpt lat="41.40346909070794" lon="13.953376978294763"><ele>266.0</ele><time>2026-04-12T08:46:10Z</time></trkpt><trkpt lat="41.403429056806196" lon="13.953182758995176"><ele>266.0</ele><time>2026-04-12T08:46:11Z</time></trkpt><trkpt lat="41.40337771185006" lon="13.952986992042575"><ele>267.0</ele><time>2026-04-12T08:46:12Z</time></trkpt><trkpt lat="41.403327098014806" lon="13.952781477093433"><ele>268.0</ele><time>2026-04-12T08:46:13Z</time></trkpt><trkpt lat="41.403281989577785" lon="13.952574940723746"><ele>269.0</ele><time>2026-04-12T08:46:14Z</time></trkpt><trkpt lat="41.40323264105883" lon="13.952379434771883"><ele>270.0</ele><time>2026-04-12T08:46:15Z</time></trkpt><trkpt lat="41.403186418764705" lon="13.95218158156916"><ele>271.0</ele><time>2026-04-12T08:46:16Z</time></trkpt><trkpt lat="41.403137905617974" lon="13.951974493623615"><ele>272.0</ele><time>2026-04-12T08:46:17Z</time></trkpt><trkpt lat="41.403099012158364" lon="13.951762286233974"><ele>272.0</ele><time>2026-04-12T08:46:18Z</time></trkpt><trkpt lat="41.40307007112687" lon="13.951550826353726"><ele>272.0</ele><time>2026-04-12T08:46:19Z</time></trkpt><trkpt lat="41.403046603578844" lon="13.95134578260804"><ele>272.0</ele><time>2026-04-12T08:46:20Z</time></trkpt><trkpt lat="41.40301105413867" lon="13.951128062731804"><ele>278.25</ele><time>2026-04-12T08:46:21Z</time></trkpt><trkpt lat="41.40299358465907" lon="13.950930312830051"><ele>284.5</ele><time>2026-04-12T08:46:22Z</time></trkpt><trkpt lat="41.40297789237296" lon="13.950759781537057"><ele>290.75</ele><time>2026-04-12T08:46:23Z</time></trkpt><trkpt lat="41.40295728341043" lon="13.950595512654125"><ele>297.0</ele><time>2026-04-12T08:46:24Z</time></trkpt><trkpt lat="41.4029217543162" lon="13.950454533074975"><ele>297.0</ele><time>2026-04-12T08:46:25Z</time></trkpt><trkpt lat="41.402866264237424" lon="13.950327655218935"><ele>297.0</ele><time>2026-04-12T08:46:26Z</time></trkpt><trkpt lat="41.402836458622836" lon="13.950215538655852"><ele>297.0</ele><time>2026-04-12T08:46:27Z</time></trkpt><trkpt lat="41.40276373391475" lon="13.950137249327893"><ele>297.0</ele><time>2026-04-12T08:46:28Z</time></trkpt><trkpt lat="41.4026622370562" lon="13.950119284380836"><ele>297.0</ele><time>2026-04-12T08:46:29Z</time></trkpt><trkpt lat="41.402555059820294" lon="13.950188729222617"><ele>297.0</ele><time>2026-04-12T08:46:30Z</time></trkpt><trkpt lat="41.40248979766386" lon="13.950360516455252"><ele>297.0</ele><time>2026-04-12T08:46:31Z</time></trkpt><trkpt lat="41.40244024324765" lon="13.950482403898059"><ele>297.0</ele><time>2026-04-12T08:46:32Z</time></trkpt><trkpt lat="41.40238534312294" lon="13.950627162657716"><ele>297.0</ele><time>2026-04-12T08:46:33Z</time></trkpt><trkpt lat="41.40233387216907" lon="13.950768800757304"><ele>297.0</ele><time>2026-04-12T08:46:34Z</time></trkpt><trkpt lat="41.402296465712155" lon="13.950922147303341"><ele>297.0</ele><time>2026-04-12T08:46:35Z</time></trkpt><trkpt lat="41.40222775136163" lon="13.951071446797327"><ele>297.0</ele><time>2026-04-12T08:46:36Z</time></trkpt><trkpt lat="41.40216275371754" lon="13.951234429643163"><ele>297.0</ele><time>2026-04-12T08:46:37Z</time></trkpt><trkpt lat="41.402105688154194" lon="13.951391659077235"><ele>304.3333333333333</ele><time>2026-04-12T08:46:38Z</time></trkpt><trkpt lat="41.402041598600626" lon="13.951566396132609"><ele>311.66666666666663</ele><time>2026-04-12T08:46:39Z</time></trkpt><trkpt lat="41.40196923200571" lon="13.951756733050399"><ele>319.0</ele><time>2026-04-12T08:46:40Z</time></trkpt><trkpt lat="41.40189631094064" lon="13.951950076908643"><ele>319.0</ele><time>2026-04-12T08:46:41Z</time></trkpt><trkpt lat="41.401835746458026" lon="13.95215053623611"><ele>319.0</ele><time>2026-04-12T08:46:42Z</time></trkpt><trkpt lat="41.40178693589615" lon="13.952373704336534"><ele>319.0</ele><time>2026-04-12T08:46:43Z</time></trkpt><trkpt lat="41.401710353777055" lon="13.952569156806858"><ele>318.3333333333333</ele><time>2026-04-12T08:46:44Z</time></trkpt><trkpt lat="41.40163838639127" lon="13.952772081528448"><ele>317.6666666666667</ele><time>2026-04-12T08:46:45Z</time></trkpt><trkpt lat="41.401562468454124" lon="13.952982910106856"><ele>317.0</ele><time>2026-04-12T08:46:46Z</time></trkpt><trkpt lat="41.40148762955053" lon="13.953186826817918"><ele>313.6666666666667</ele><time>2026-04-12T08:46:47Z</time></trkpt><trkpt lat="41.40140756828582" lon="13.953399664409885"><ele>310.3333333333333</ele><time>2026-04-12T08:46:48Z</time></trkpt><trkpt lat="41.40132963362419" lon="13.953603526665837"><ele>307.0</ele><time>2026-04-12T08:46:49Z</time></trkpt><trkpt lat="41.40125064375249" lon="13.953801076963947"><ele>314.66666666666663</ele><time>2026-04-12T08:46:50Z</time></trkpt><trkpt lat="41.40116814766669" lon="13.954000690586428"><ele>322.3333333333333</ele><time>2026-04-12T08:46:51Z</time></trkpt><trkpt lat="41.401086412317596" lon="13.954198463329481"><ele>330.0</ele><time>2026-04-12T08:46:52Z</time></trkpt><trkpt lat="41.401007914283966" lon="13.954391719951326"><ele>330.0</ele><time>2026-04-12T08:46:53Z</time></trkpt><trkpt lat="41.400931108506576" lon="13.954585674010689"><ele>330.0</ele><time>2026-04-12T08:46:54Z</time></trkpt><trkpt lat="41.40085550651833" lon="13.954781935495538"><ele>330.0</ele><time>2026-04-12T08:46:55Z</time></trkpt><trkpt lat="41.400782867649376" lon="13.954974363886576"><ele>330.0</ele><time>2026-04-12T08:46:56Z</time></trkpt><trkpt lat="41.40070847122426" lon="13.955177506296444"><ele>330.0</ele><time>2026-04-12T08:46:57Z</time></trkpt><trkpt lat="41.40063999933747" lon="13.955371050930303"><ele>330.0</ele><time>2026-04-12T08:46:58Z</time></trkpt><trkpt lat="41.40057026950327" lon="13.955576605993862"><ele>330.0</ele><time>2026-04-12T08:46:59Z</time></trkpt><trkpt lat="41.400505626915795" lon="13.955772790516262"><ele>330.0</ele><time>2026-04-12T08:47:00Z</time></trkpt><trkpt lat="41.400451321524834" lon="13.955963916411081"><ele>330.0</ele><time>2026-04-12T08:47:01Z</time></trkpt><trkpt lat="41.40038873257137" lon="13.956128868266196"><ele>339.3333333333333</ele><time>2026-04-12T08:47:02Z</time></trkpt><trkpt lat="41.40032047118045" lon="13.956314656771372"><ele>348.66666666666663</ele><time>2026-04-12T08:47:03Z</time></trkpt><trkpt lat="41.40024980540702" lon="13.95651134914547"><ele>358.0</ele><time>2026-04-12T08:47:04Z</time></trkpt><trkpt lat="41.40017850750704" lon="13.95670144188403"><ele>358.25</ele><time>2026-04-12T08:47:05Z</time></trkpt><trkpt lat="41.40012156165648" lon="13.956903557656899"><ele>358.5</ele><time>2026-04-12T08:47:06Z</time></trkpt><trkpt lat="41.40004802911842" lon="13.957068418293499"><ele>358.75</ele><time>2026-04-12T08:47:07Z</time></trkpt><trkpt lat="41.399995620229156" lon="13.957223938014764"><ele>359.0</ele><time>2026-04-12T08:47:08Z</time></trkpt><trkpt lat="41.39993686801322" lon="13.957333103667388"><ele>359.0</ele><time>2026-04-12T08:47:09Z</time></trkpt><trkpt lat="41.39985692382181" lon="13.957345882665715"><ele>359.0</ele><time>2026-04-12T08:47:10Z</time></trkpt><trkpt lat="41.39973262196739" lon="13.957332646674503"><ele>359.0</ele><time>2026-04-12T08:47:12Z</time></trkpt><trkpt lat="41.39970003629075" lon="13.95720059297922"><ele>359.0</ele><time>2026-04-12T08:47:13Z</time></trkpt><trkpt lat="41.39972572478952" lon="13.95700234280686"><ele>359.0</ele><time>2026-04-12T08:47:15Z</time></trkpt><trkpt lat="41.399733492144975" lon="13.956881051027755"><ele>359.0</ele><time>2026-04-12T08:47:16Z</time></trkpt><trkpt lat="41.39973227991305" lon="13.956727149191568"><ele>359.0</ele><time>2026-04-12T08:47:17Z</time></trkpt><trkpt lat="41.39973101901956" lon="13.956569791891216"><ele>359.0</ele><time>2026-04-12T08:47:18Z</time></trkpt><trkpt lat="41.3997320951588" lon="13.956390994561433"><ele>359.0</ele><time>2026-04-12T08:47:19Z</time></trkpt><trkpt lat="41.39973316584354" lon="13.956208384909244"><ele>359.0</ele><time>2026-04-12T08:47:20Z</time></trkpt><trkpt lat="41.39974330632975" lon="13.955982779448213"><ele>359.0</ele><time>2026-04-12T08:47:21Z</time></trkpt><trkpt lat="41.39975433092066" lon="13.955760150444572"><ele>359.0</ele><time>2026-04-12T08:47:22Z</time></trkpt><trkpt lat="41.39977391721678" lon="13.95554793294083"><ele>359.0</ele><time>2026-04-12T08:47:23Z</time></trkpt><trkpt lat="41.39978788568115" lon="13.955319979895277"><ele>359.0</ele><time>2026-04-12T08:47:24Z</time></trkpt><trkpt lat="41.399790176614076" lon="13.9551055088019"><ele>360.33333333333337</ele><time>2026-04-12T08:47:25Z</time></trkpt><trkpt lat="41.39978878631931" lon="13.954891652722091"><ele>361.6666666666667</ele><time>2026-04-12T08:47:26Z</time></trkpt><trkpt lat="41.399807321246094" lon="13.954670577497884"><ele>363.0</ele><time>2026-04-12T08:47:27Z</time></trkpt><trkpt lat="41.399809987101655" lon="13.954435159016281"><ele>365.3333333333333</ele><time>2026-04-12T08:47:28Z</time></trkpt><trkpt lat="41.3998154738285" lon="13.954176154127673"><ele>367.66666666666663</ele><time>2026-04-12T08:47:29Z</time></trkpt><trkpt lat="41.399826881901" lon="13.953934852462961"><ele>370.0</ele><time>2026-04-12T08:47:30Z</time></trkpt><trkpt lat="41.39982872852145" lon="13.953714324110386"><ele>370.0</ele><time>2026-04-12T08:47:31Z</time></trkpt><trkpt lat="41.3998399793972" lon="13.953490709965545"><ele>370.0</ele><time>2026-04-12T08:47:32Z</time></trkpt><trkpt lat="41.39984854884723" lon="13.953256252264312"><ele>370.0</ele><time>2026-04-12T08:47:33Z</time></trkpt><trkpt lat="41.399852861721854" lon="13.953017713595646"><ele>370.3333333333333</ele><time>2026-04-12T08:47:34Z</time></trkpt><trkpt lat="41.3998727708972" lon="13.952771176650968"><ele>370.6666666666667</ele><time>2026-04-12T08:47:35Z</time></trkpt><trkpt lat="41.39987933591623" lon="13.952531916403274"><ele>371.0</ele><time>2026-04-12T08:47:36Z</time></trkpt><trkpt lat="41.39988415960896" lon="13.952309508342413"><ele>371.33333333333337</ele><time>2026-04-12T08:47:37Z</time></trkpt><trkpt lat="41.399889170499826" lon="13.952078151492286"><ele>371.6666666666667</ele><time>2026-04-12T08:47:38Z</time></trkpt><trkpt lat="41.39989249531372" lon="13.951869778000098"><ele>372.0</ele><time>2026-04-12T08:47:39Z</time></trkpt><trkpt lat="41.39988698007282" lon="13.951675969747312"><ele>373.20000000000005</ele><time>2026-04-12T08:47:40Z</time></trkpt><trkpt lat="41.39988798342569" lon="13.951500142008753"><ele>374.4</ele><time>2026-04-12T08:47:41Z</time></trkpt><trkpt lat="41.3998863259952" lon="13.951362202444614"><ele>375.6</ele><time>2026-04-12T08:47:42Z</time></trkpt><trkpt lat="41.39988216492834" lon="13.951266324712968"><ele>376.79999999999995</ele><time>2026-04-12T08:47:43Z</time></trkpt><trkpt lat="41.39983530283267" lon="13.951119418605996"><ele>378.0</ele><time>2026-04-12T08:47:45Z</time></trkpt><trkpt lat="41.39975892255125" lon="13.951081585989808"><ele>384.2</ele><time>2026-04-12T08:47:46Z</time></trkpt><trkpt lat="41.3996590269329" lon="13.951091895686647"><ele>390.4</ele><time>2026-04-12T08:47:47Z</time></trkpt><trkpt lat="41.39957561373818" lon="13.951172739557249"><ele>396.59999999999997</ele><time>2026-04-12T08:47:48Z</time></trkpt><trkpt lat="41.39950993255898" lon="13.95128161460953"><ele>402.79999999999995</ele><time>2026-04-12T08:47:49Z</time></trkpt><trkpt lat="41.39944603208158" lon="13.95144890256251"><ele>409.0</ele><time>2026-04-12T08:47:50Z</time></trkpt><trkpt lat="41.39939263488707" lon="13.95159597785859"><ele>408.25</ele><time>2026-04-12T08:47:51Z</time></trkpt><trkpt lat="41.39934781874458" lon="13.951772593534209"><ele>407.5</ele><time>2026-04-12T08:47:52Z</time></trkpt><trkpt lat="41.399287531312076" lon="13.951932087204613"><ele>406.75</ele><time>2026-04-12T08:47:53Z</time></trkpt><trkpt lat="41.39922749549845" lon="13.952103180436996"><ele>406.0</ele><time>2026-04-12T08:47:54Z</time></trkpt><trkpt lat="41.39917197845416" lon="13.952265753183761"><ele>406.0</ele><time>2026-04-12T08:47:55Z</time></trkpt><trkpt lat="41.39910798794678" lon="13.95245258469555"><ele>406.0</ele><time>2026-04-12T08:47:56Z</time></trkpt><trkpt lat="41.39905196488314" lon="13.952651823744624"><ele>406.0</ele><time>2026-04-12T08:47:57Z</time></trkpt><trkpt lat="41.398982371905376" lon="13.952848543624395"><ele>405.0</ele><time>2026-04-12T08:47:58Z</time></trkpt><trkpt lat="41.398916726778104" lon="13.95303707167146"><ele>404.0</ele><time>2026-04-12T08:47:59Z</time></trkpt><trkpt lat="41.39883837965432" lon="13.953219697274044"><ele>403.0</ele><time>2026-04-12T08:48:00Z</time></trkpt><trkpt lat="41.398765018796965" lon="13.953365927807331"><ele>402.0</ele><time>2026-04-12T08:48:01Z</time></trkpt><trkpt lat="41.39871386348029" lon="13.95346970604445"><ele>409.0</ele><time>2026-04-12T08:48:02Z</time></trkpt><trkpt lat="41.398670748035926" lon="13.953532621783012"><ele>416.0</ele><time>2026-04-12T08:48:03Z</time></trkpt><trkpt lat="41.39858613578839" lon="13.953616066752463"><ele>423.00000000000006</ele><time>2026-04-12T08:48:05Z</time></trkpt><trkpt lat="41.398608823709004" lon="13.953850032051735"><ele>430.0</ele><time>2026-04-12T08:48:11Z</time></trkpt><trkpt lat="41.39861165192727" lon="13.953942798444867"><ele>437.0</ele><time>2026-04-12T08:48:14Z</time></trkpt><trkpt lat="41.39866129847355" lon="13.954069883306587"><ele>437.0</ele><time>2026-04-12T08:48:16Z</time></trkpt><trkpt lat="41.39868441284159" lon="13.954151349540927"><ele>437.0</ele><time>2026-04-12T08:48:18Z</time></trkpt><trkpt lat="41.39869643360466" lon="13.954244304829896"><ele>437.0</ele><time>2026-04-12T08:48:19Z</time></trkpt><trkpt lat="41.39870835649766" lon="13.954335292978156"><ele>437.0</ele><time>2026-04-12T08:48:21Z</time></trkpt><trkpt lat="41.398730232430935" lon="13.954420619610536"><ele>437.0</ele><time>2026-04-12T08:48:22Z</time></trkpt><trkpt lat="41.398730600775394" lon="13.95451224568247"><ele>437.0</ele><time>2026-04-12T08:48:24Z</time></trkpt><trkpt lat="41.39873256400724" lon="13.954599456823004"><ele>437.0</ele><time>2026-04-12T08:48:27Z</time></trkpt><trkpt lat="41.39877934107247" lon="13.954672607014889"><ele>436.7142857142857</ele><time>2026-04-12T08:48:29Z</time></trkpt><trkpt lat="41.39883120706096" lon="13.954722337470452"><ele>436.42857142857144</ele><time>2026-04-12T08:48:33Z</time></trkpt><trkpt lat="41.398860879643514" lon="13.954818815373022"><ele>436.14285714285717</ele><time>2026-04-12T08:48:37Z</time></trkpt><trkpt lat="41.398932352378104" lon="13.954856075591886"><ele>435.8571428571429</ele><time>2026-04-12T08:48:40Z</time></trkpt><trkpt lat="41.39898523728421" lon="13.954785268284537"><ele>435.57142857142856</ele><time>2026-04-12T08:48:46Z</time></trkpt><trkpt lat="41.39901834108836" lon="13.954713075401505"><ele>435.28571428571433</ele><time>2026-04-12T08:48:49Z</time></trkpt><trkpt lat="41.399066273849954" lon="13.954647885261613"><ele>435.0</ele><time>2026-04-12T08:48:52Z</time></trkpt><trkpt lat="41.399080661825295" lon="13.954557230070394"><ele>430.00000000000006</ele><time>2026-04-12T08:48:55Z</time></trkpt><trkpt lat="41.39909757853051" lon="13.954447943909074"><ele>425.0</ele><time>2026-04-12T08:48:58Z</time></trkpt><trkpt lat="41.399076914332426" lon="13.954361062728196"><ele>420.0</ele><time>2026-04-12T08:49:01Z</time></trkpt><trkpt lat="41.39906692902783" lon="13.954259930343158"><ele>415.0</ele><time>2026-04-12T08:49:06Z</time></trkpt><trkpt lat="41.399063523821326" lon="13.954175745859198"><ele>410.0</ele><time>2026-04-12T08:49:10Z</time></trkpt><trkpt lat="41.399044432223256" lon="13.95407276395175"><ele>405.00000000000006</ele><time>2026-04-12T08:49:13Z</time></trkpt><trkpt lat="41.39906608570842" lon="13.953979568164938"><ele>400.0</ele><time>2026-04-12T08:49:17Z</time></trkpt><trkpt lat="41.399123285427244" lon="13.953895623374395"><ele>400.00000000000006</ele><time>2026-04-12T08:49:21Z</time></trkpt><trkpt lat="41.399190722161265" lon="13.95395973870244"><ele>400.0</ele><time>2026-04-12T08:49:25Z</time></trkpt><trkpt lat="41.39924031785891" lon="13.954071959552685"><ele>400.0</ele><time>2026-04-12T08:49:28Z</time></trkpt><trkpt lat="41.39926372061306" lon="13.954156892722485"><ele>400.0</ele><time>2026-04-12T08:49:31Z</time></trkpt><trkpt lat="41.399286940679694" lon="13.954253048728125"><ele>400.00000000000006</ele><time>2026-04-12T08:49:34Z</time></trkpt><trkpt lat="41.39929559075071" lon="13.954344810865983"><ele>400.0</ele><time>2026-04-12T08:49:36Z</time></trkpt><trkpt lat="41.399306427181536" lon="13.954486461625025"><ele>399.50000000000006</ele><time>2026-04-12T08:49:39Z</time></trkpt><trkpt lat="41.39932385307379" lon="13.954585169632418"><ele>399.0</ele><time>2026-04-12T08:49:42Z</time></trkpt><trkpt lat="41.39934175242994" lon="13.954686297589468"><ele>398.5</ele><time>2026-04-12T08:49:46Z</time></trkpt><trkpt lat="41.3993458887972" lon="13.954784999328478"><ele>398.0</ele><time>2026-04-12T08:49:49Z</time></trkpt><trkpt lat="41.39936608991807" lon="13.954870406432924"><ele>397.50000000000006</ele><time>2026-04-12T08:49:52Z</time></trkpt><trkpt lat="41.39937099434119" lon="13.954973408458933"><ele>397.0</ele><time>2026-04-12T08:49:57Z</time></trkpt><trkpt lat="41.39939330778384" lon="13.955074886216794"><ele>396.1428571428571</ele><time>2026-04-12T08:50:00Z</time></trkpt><trkpt lat="41.39940237244283" lon="13.955170713996413"><ele>395.2857142857143</ele><time>2026-04-12T08:50:03Z</time></trkpt><trkpt lat="41.39939645367128" lon="13.9552791617739"><ele>394.42857142857144</ele><time>2026-04-12T08:50:06Z</time></trkpt><trkpt lat="41.39941788967067" lon="13.955358909607014"><ele>393.57142857142856</ele><time>2026-04-12T08:50:10Z</time></trkpt><trkpt lat="41.39941413220738" lon="13.955447293176233"><ele>392.7142857142857</ele><time>2026-04-12T08:50:13Z</time></trkpt><trkpt lat="41.39941254632769" lon="13.955545900193654"><ele>391.85714285714283</ele><time>2026-04-12T08:50:18Z</time></trkpt><trkpt lat="41.399401585319765" lon="13.955651829204632"><ele>391.0</ele><time>2026-04-12T08:50:21Z</time></trkpt><trkpt lat="41.39939450393932" lon="13.955763414656786"><ele>390.00000000000006</ele><time>2026-04-12T08:50:23Z</time></trkpt><trkpt lat="41.39939325552552" lon="13.9559076766896"><ele>389.0</ele><time>2026-04-12T08:50:26Z</time></trkpt><trkpt lat="41.399400922832875" lon="13.955999391793604"><ele>388.0</ele><time>2026-04-12T08:50:28Z</time></trkpt><trkpt lat="41.39939023779749" lon="13.956093518152619"><ele>387.0</ele><time>2026-04-12T08:50:31Z</time></trkpt><trkpt lat="41.39935421113036" lon="13.9561867370057"><ele>386.00000000000006</ele><time>2026-04-12T08:50:33Z</time></trkpt><trkpt lat="41.39934994738605" lon="13.956314147704422"><ele>385.0</ele><time>2026-04-12T08:50:36Z</time></trkpt><trkpt lat="41.399324625804454" lon="13.956419847607819"><ele>385.00000000000006</ele><time>2026-04-12T08:50:39Z</time></trkpt><trkpt lat="41.39932135699695" lon="13.95651695405703"><ele>385.0</ele><time>2026-04-12T08:50:41Z</time></trkpt><trkpt lat="41.39930218077259" lon="13.956639285487187"><ele>385.0</ele><time>2026-04-12T08:50:44Z</time></trkpt><trkpt lat="41.39928410317481" lon="13.956726446251867"><ele>385.0</ele><time>2026-04-12T08:50:48Z</time></trkpt><trkpt lat="41.39925294660972" lon="13.956826423482193"><ele>385.00000000000006</ele><time>2026-04-12T08:50:50Z</time></trkpt><trkpt lat="41.39918100194864" lon="13.956914190771395"><ele>385.0</ele><time>2026-04-12T08:50:52Z</time></trkpt><trkpt lat="41.39914507891808" lon="13.956985156942682"><ele>383.00000000000006</ele><time>2026-04-12T08:50:55Z</time></trkpt><trkpt lat="41.39910993324204" lon="13.957094913299814"><ele>381.0</ele><time>2026-04-12T08:50:58Z</time></trkpt><trkpt lat="41.399092878794455" lon="13.957215989915676"><ele>379.0</ele><time>2026-04-12T08:51:01Z</time></trkpt><trkpt lat="41.39907494572778" lon="13.957298970588141"><ele>377.0</ele><time>2026-04-12T08:51:03Z</time></trkpt><trkpt lat="41.39906367882127" lon="13.957384823815566"><ele>375.0</ele><time>2026-04-12T08:51:06Z</time></trkpt><trkpt lat="41.399006629618675" lon="13.957455920592329"><ele>373.0</ele><time>2026-04-12T08:51:09Z</time></trkpt><trkpt lat="41.39897595549206" lon="13.957536849941798"><ele>370.8571428571429</ele><time>2026-04-12T08:51:11Z</time></trkpt><trkpt lat="41.39895476442581" lon="13.95764966870819"><ele>368.7142857142857</ele><time>2026-04-12T08:51:13Z</time></trkpt><trkpt lat="41.399000278436255" lon="13.957716956513588"><ele>366.57142857142856</ele><time>2026-04-12T08:51:15Z</time></trkpt><trkpt lat="41.39898548982215" lon="13.95781499635774"><ele>364.42857142857144</ele><time>2026-04-12T08:51:18Z</time></trkpt><trkpt lat="41.39900517818173" lon="13.957895265942312"><ele>362.2857142857143</ele><time>2026-04-12T08:51:20Z</time></trkpt><trkpt lat="41.39900679195162" lon="13.957982012554154"><ele>360.14285714285717</ele><time>2026-04-12T08:51:23Z</time></trkpt><trkpt lat="41.399002181538876" lon="13.958079640658948"><ele>358.0</ele><time>2026-04-12T08:51:26Z</time></trkpt><trkpt lat="41.39898531240532" lon="13.958164977317184"><ele>358.0</ele><time>2026-04-12T08:51:28Z</time></trkpt><trkpt lat="41.398922212472954" lon="13.958236651334534"><ele>358.0</ele><time>2026-04-12T08:51:30Z</time></trkpt><trkpt lat="41.39890966686106" lon="13.95833924236805"><ele>358.0</ele><time>2026-04-12T08:51:33Z</time></trkpt><trkpt lat="41.39884243252203" lon="13.958378591690956"><ele>358.0</ele><time>2026-04-12T08:51:35Z</time></trkpt><trkpt lat="41.398783019101835" lon="13.95842605329915"><ele>358.0</ele><time>2026-04-12T08:51:38Z</time></trkpt><trkpt lat="41.39866994676978" lon="13.95854220249763"><ele>358.0</ele><time>2026-04-12T08:51:43Z</time></trkpt><trkpt lat="41.39863513629527" lon="13.958658786118516"><ele>359.0</ele><time>2026-04-12T08:51:50Z</time></trkpt><trkpt lat="41.39858746459227" lon="13.958717618095644"><ele>360.0</ele><time>2026-04-12T08:52:05Z</time></trkpt><trkpt lat="41.39856158329414" lon="13.95882572702973"><ele>361.0</ele><time>2026-04-12T08:52:07Z</time></trkpt><trkpt lat="41.39854860697616" lon="13.9589328670136"><ele>362.0</ele><time>2026-04-12T08:52:08Z</time></trkpt><trkpt lat="41.39854227537082" lon="13.959054496351017"><ele>363.0</ele><time>2026-04-12T08:52:09Z</time></trkpt><trkpt lat="41.39857386691208" lon="13.959186401342725"><ele>364.0</ele><time>2026-04-12T08:52:10Z</time></trkpt><trkpt lat="41.39852745632652" lon="13.959258025408039"><ele>364.0</ele><time>2026-04-12T08:52:11Z</time></trkpt><trkpt lat="41.398467663214916" lon="13.95934723093364"><ele>364.0</ele><time>2026-04-12T08:52:12Z</time></trkpt><trkpt lat="41.398385050097765" lon="13.959544354592602"><ele>364.0</ele><time>2026-04-12T08:52:13Z</time></trkpt><trkpt lat="41.39831352055792" lon="13.959697880119155"><ele>364.0</ele><time>2026-04-12T08:52:14Z</time></trkpt><trkpt lat="41.39824398167188" lon="13.959880988382011"><ele>361.25</ele><time>2026-04-12T08:52:15Z</time></trkpt><trkpt lat="41.39820291803107" lon="13.960035446045113"><ele>358.5</ele><time>2026-04-12T08:52:16Z</time></trkpt><trkpt lat="41.39818676877674" lon="13.960193430737064"><ele>355.75</ele><time>2026-04-12T08:52:17Z</time></trkpt><trkpt lat="41.398187242601125" lon="13.960385209618812"><ele>353.0</ele><time>2026-04-12T08:52:18Z</time></trkpt><trkpt lat="41.39818616775193" lon="13.960512264870912"><ele>353.0</ele><time>2026-04-12T08:52:19Z</time></trkpt><trkpt lat="41.39817383353297" lon="13.960663676788204"><ele>353.0</ele><time>2026-04-12T08:52:20Z</time></trkpt><trkpt lat="41.39817544247909" lon="13.960854681467142"><ele>353.0</ele><time>2026-04-12T08:52:21Z</time></trkpt><trkpt lat="41.39816346396923" lon="13.961028806991992"><ele>353.0</ele><time>2026-04-12T08:52:22Z</time></trkpt><trkpt lat="41.39816773159735" lon="13.961171340992314"><ele>352.0</ele><time>2026-04-12T08:52:23Z</time></trkpt><trkpt lat="41.39817273899735" lon="13.961323173320066"><ele>351.0</ele><time>2026-04-12T08:52:24Z</time></trkpt><trkpt lat="41.398164959054604" lon="13.961425835965784"><ele>350.0</ele><time>2026-04-12T08:52:25Z</time></trkpt><trkpt lat="41.3981732794802" lon="13.961509382964394"><ele>349.0</ele><time>2026-04-12T08:52:26Z</time></trkpt><trkpt lat="41.398156710794154" lon="13.961595103574593"><ele>348.0</ele><time>2026-04-12T08:52:27Z</time></trkpt><trkpt lat="41.39815412388429" lon="13.961756753616053"><ele>347.0</ele><time>2026-04-12T08:52:28Z</time></trkpt><trkpt lat="41.39816004477228" lon="13.961899265683645"><ele>347.0</ele><time>2026-04-12T08:52:29Z</time></trkpt><trkpt lat="41.39814379094044" lon="13.962001587014434"><ele>347.0</ele><time>2026-04-12T08:52:30Z</time></trkpt><trkpt lat="41.39814697365948" lon="13.962146446561952"><ele>347.0</ele><time>2026-04-12T08:52:31Z</time></trkpt><trkpt lat="41.398165776146236" lon="13.962294043411603"><ele>347.0</ele><time>2026-04-12T08:52:32Z</time></trkpt><trkpt lat="41.3981745558181" lon="13.962388162250795"><ele>347.0</ele><time>2026-04-12T08:52:33Z</time></trkpt><trkpt lat="41.398200809811804" lon="13.962531910747542"><ele>347.6666666666667</ele><time>2026-04-12T08:52:35Z</time></trkpt><trkpt lat="41.39819919166523" lon="13.962646624250764"><ele>348.33333333333337</ele><time>2026-04-12T08:52:36Z</time></trkpt><trkpt lat="41.39820223943682" lon="13.962743949284102"><ele>349.0</ele><time>2026-04-12T08:52:37Z</time></trkpt><trkpt lat="41.39820481813133" lon="13.962829887133921"><ele>349.6666666666667</ele><time>2026-04-12T08:52:38Z</time></trkpt><trkpt lat="41.39820046472127" lon="13.962981943958724"><ele>350.3333333333333</ele><time>2026-04-12T08:52:39Z</time></trkpt><trkpt lat="41.39820692163154" lon="13.963107919351474"><ele>351.0</ele><time>2026-04-12T08:52:41Z</time></trkpt><trkpt lat="41.39817758350034" lon="13.963218982857038"><ele>351.0</ele><time>2026-04-12T08:52:43Z</time></trkpt><trkpt lat="41.39816306600739" lon="13.963311694394623"><ele>351.0</ele><time>2026-04-12T08:52:44Z</time></trkpt><trkpt lat="41.39816600722895" lon="13.963531365020875"><ele>351.0</ele><time>2026-04-12T08:52:46Z</time></trkpt><trkpt lat="41.398166301629665" lon="13.963631680759425"><ele>351.0</ele><time>2026-04-12T08:52:47Z</time></trkpt><trkpt lat="41.39815499535661" lon="13.963724892122464"><ele>351.0</ele><time>2026-04-12T08:52:48Z</time></trkpt><trkpt lat="41.39817040965556" lon="13.96382783750851"><ele>351.4</ele><time>2026-04-12T08:52:51Z</time></trkpt><trkpt lat="41.398186467123125" lon="13.963939787202948"><ele>351.8</ele><time>2026-04-12T08:52:54Z</time></trkpt><trkpt lat="41.39822622449666" lon="13.964072251572977"><ele>352.2</ele><time>2026-04-12T08:52:56Z</time></trkpt><trkpt lat="41.398204820081276" lon="13.9641896348662"><ele>352.59999999999997</ele><time>2026-04-12T08:52:58Z</time></trkpt><trkpt lat="41.398228794305524" lon="13.964347890352345"><ele>353.0</ele><time>2026-04-12T08:53:01Z</time></trkpt><trkpt lat="41.39824488011631" lon="13.964467605552693"><ele>353.4</ele><time>2026-04-12T08:53:03Z</time></trkpt><trkpt lat="41.398262239218795" lon="13.964640769408785"><ele>353.79999999999995</ele><time>2026-04-12T08:53:05Z</time></trkpt><trkpt lat="41.3982487920939" lon="13.964832516959177"><ele>354.2</ele><time>2026-04-12T08:53:07Z</time></trkpt><trkpt lat="41.398257417951655" lon="13.964949618865099"><ele>354.6</ele><time>2026-04-12T08:53:10Z</time></trkpt><trkpt lat="41.398255990760944" lon="13.96504929433312"><ele>355.0</ele><time>2026-04-12T08:53:12Z</time></trkpt><trkpt lat="41.39825796593871" lon="13.965153794012013"><ele>352.1428571428571</ele><time>2026-04-12T08:53:14Z</time></trkpt><trkpt lat="41.39825524603267" lon="13.965245092165633"><ele>349.2857142857143</ele><time>2026-04-12T08:53:17Z</time></trkpt><trkpt lat="41.398210024410005" lon="13.965323717308424"><ele>346.42857142857144</ele><time>2026-04-12T08:53:20Z</time></trkpt><trkpt lat="41.39814098147307" lon="13.965341905565154"><ele>343.57142857142856</ele><time>2026-04-12T08:53:22Z</time></trkpt><trkpt lat="41.398063262393464" lon="13.96532093818281"><ele>340.7142857142857</ele><time>2026-04-12T08:53:24Z</time></trkpt><trkpt lat="41.397978227351864" lon="13.965320016946237"><ele>337.85714285714283</ele><time>2026-04-12T08:53:27Z</time></trkpt><trkpt lat="41.39791004101264" lon="13.965320278226947"><ele>335.0</ele><time>2026-04-12T08:53:30Z</time></trkpt><trkpt lat="41.397840348345355" lon="13.965295874712762"><ele>332.5</ele><time>2026-04-12T08:53:33Z</time></trkpt><trkpt lat="41.39777295246302" lon="13.965305290067755"><ele>330.0</ele><time>2026-04-12T08:53:40Z</time></trkpt><trkpt lat="41.39770970548119" lon="13.965292841439515"><ele>327.5</ele><time>2026-04-12T08:53:42Z</time></trkpt><trkpt lat="41.39763404024505" lon="13.965279299306717"><ele>325.0</ele><time>2026-04-12T08:53:44Z</time></trkpt><trkpt lat="41.397558341405585" lon="13.965298520018079"><ele>322.5</ele><time>2026-04-12T08:53:47Z</time></trkpt><trkpt lat="41.39744928088092" lon="13.965310216220754"><ele>320.0</ele><time>2026-04-12T08:53:50Z</time></trkpt><trkpt lat="41.397356422244314" lon="13.965283477335939"><ele>320.0</ele><time>2026-04-12T08:53:52Z</time></trkpt><trkpt lat="41.397280086102015" lon="13.965267119268361"><ele>320.0</ele><time>2026-04-12T08:53:56Z</time></trkpt><trkpt lat="41.39719945359409" lon="13.965247264987621"><ele>320.0</ele><time>2026-04-12T08:54:00Z</time></trkpt><trkpt lat="41.39712008505938" lon="13.965223921089109"><ele>320.0</ele><time>2026-04-12T08:54:06Z</time></trkpt><trkpt lat="41.39704255621402" lon="13.965193871091074"><ele>320.0</ele><time>2026-04-12T08:54:10Z</time></trkpt><trkpt lat="41.396960963930326" lon="13.965167995221275"><ele>320.0</ele><time>2026-04-12T08:54:14Z</time></trkpt><trkpt lat="41.39688756149668" lon="13.96512451311738"><ele>322.6666666666667</ele><time>2026-04-12T08:54:17Z</time></trkpt><trkpt lat="41.39682161761065" lon="13.965052514453976"><ele>325.33333333333337</ele><time>2026-04-12T08:54:20Z</time></trkpt><trkpt lat="41.3967453647479" lon="13.965009413457656"><ele>328.0</ele><time>2026-04-12T08:54:23Z</time></trkpt><trkpt lat="41.396681955905414" lon="13.964981570353919"><ele>330.6666666666667</ele><time>2026-04-12T08:54:26Z</time></trkpt><trkpt lat="41.39661663836433" lon="13.964987705110731"><ele>333.3333333333333</ele><time>2026-04-12T08:54:29Z</time></trkpt><trkpt lat="41.39655511630523" lon="13.965006278281951"><ele>336.0</ele><time>2026-04-12T08:54:31Z</time></trkpt><trkpt lat="41.39646337253953" lon="13.965001733153843"><ele>336.0</ele><time>2026-04-12T08:54:33Z</time></trkpt><trkpt lat="41.39639013000697" lon="13.964999589834186"><ele>336.0</ele><time>2026-04-12T08:54:36Z</time></trkpt><trkpt lat="41.39632603365943" lon="13.96500184425103"><ele>336.0</ele><time>2026-04-12T08:54:38Z</time></trkpt><trkpt lat="41.396247255860395" lon="13.965018132732377"><ele>336.0</ele><time>2026-04-12T08:54:40Z</time></trkpt><trkpt lat="41.39617766245346" lon="13.965008423158862"><ele>336.0</ele><time>2026-04-12T08:54:42Z</time></trkpt><trkpt lat="41.396091006012405" lon="13.96501545971634"><ele>336.0</ele><time>2026-04-12T08:54:44Z</time></trkpt><trkpt lat="41.396027649885646" lon="13.965015747395087"><ele>336.0</ele><time>2026-04-12T08:54:46Z</time></trkpt><trkpt lat="41.39596190724489" lon="13.965015422477716"><ele>334.0</ele><time>2026-04-12T08:54:48Z</time></trkpt><trkpt lat="41.395884891908146" lon="13.965010378688895"><ele>332.0</ele><time>2026-04-12T08:54:50Z</time></trkpt><trkpt lat="41.395821975767085" lon="13.96500570878845"><ele>330.0</ele><time>2026-04-12T08:54:52Z</time></trkpt><trkpt lat="41.39574458223622" lon="13.965014223031723"><ele>328.0</ele><time>2026-04-12T08:54:55Z</time></trkpt><trkpt lat="41.39567170038369" lon="13.9650063978408"><ele>326.0</ele><time>2026-04-12T08:54:58Z</time></trkpt><trkpt lat="41.395574900400895" lon="13.965014851591643"><ele>324.0</ele><time>2026-04-12T08:55:01Z</time></trkpt><trkpt lat="41.39548575137111" lon="13.965019896200163"><ele>323.8333333333333</ele><time>2026-04-12T08:55:04Z</time></trkpt><trkpt lat="41.39541803112985" lon="13.96501524612337"><ele>323.6666666666667</ele><time>2026-04-12T08:55:07Z</time></trkpt><trkpt lat="41.39534748106138" lon="13.965010361061642"><ele>323.5</ele><time>2026-04-12T08:55:13Z</time></trkpt><trkpt lat="41.39525980089231" lon="13.965032806081139"><ele>323.33333333333337</ele><time>2026-04-12T08:55:27Z</time></trkpt><trkpt lat="41.39519097397984" lon="13.96505112859734"><ele>323.1666666666667</ele><time>2026-04-12T08:55:31Z</time></trkpt><trkpt lat="41.395132458029494" lon="13.965098904279857"><ele>323.0</ele><time>2026-04-12T08:55:33Z</time></trkpt><trkpt lat="41.395046044772975" lon="13.965146462912427"><ele>318.1666666666667</ele><time>2026-04-12T08:55:34Z</time></trkpt><trkpt lat="41.39497568695754" lon="13.965173145756353"><ele>313.33333333333337</ele><time>2026-04-12T08:55:35Z</time></trkpt><trkpt lat="41.39492169452721" lon="13.96522564367908"><ele>308.5</ele><time>2026-04-12T08:55:37Z</time></trkpt><trkpt lat="41.39485348912444" lon="13.965269072209637"><ele>303.6666666666667</ele><time>2026-04-12T08:55:40Z</time></trkpt><trkpt lat="41.39478143590554" lon="13.965312015584132"><ele>298.8333333333333</ele><time>2026-04-12T08:55:42Z</time></trkpt><trkpt lat="41.394715005381094" lon="13.965358764698724"><ele>294.0</ele><time>2026-04-12T08:55:44Z</time></trkpt><trkpt lat="41.394587109206746" lon="13.965412649162445"><ele>294.0</ele><time>2026-04-12T08:55:46Z</time></trkpt><trkpt lat="41.3945135346782" lon="13.965436824721523"><ele>294.0</ele><time>2026-04-12T08:55:47Z</time></trkpt><trkpt lat="41.39443998238266" lon="13.965495174683376"><ele>294.0</ele><time>2026-04-12T08:55:49Z</time></trkpt><trkpt lat="41.39430795552474" lon="13.965524902611767"><ele>294.0</ele><time>2026-04-12T08:55:51Z</time></trkpt><trkpt lat="41.39424740145916" lon="13.965555650851309"><ele>294.0</ele><time>2026-04-12T08:55:52Z</time></trkpt><trkpt lat="41.39415220273679" lon="13.965569913074594"><ele>294.0</ele><time>2026-04-12T08:55:54Z</time></trkpt><trkpt lat="41.39408758093562" lon="13.965576830719439"><ele>294.0</ele><time>2026-04-12T08:55:58Z</time></trkpt><trkpt lat="41.39401143849162" lon="13.965611431644382"><ele>294.0</ele><time>2026-04-12T08:56:00Z</time></trkpt><trkpt lat="41.39394531295214" lon="13.9656484399953"><ele>294.0</ele><time>2026-04-12T08:56:03Z</time></trkpt><trkpt lat="41.39387343567886" lon="13.965682806412392"><ele>294.0</ele><time>2026-04-12T08:56:06Z</time></trkpt><trkpt lat="41.39380155883845" lon="13.965752005341377"><ele>294.0</ele><time>2026-04-12T08:56:09Z</time></trkpt><trkpt lat="41.3937003070712" lon="13.96581693389637"><ele>292.1666666666667</ele><time>2026-04-12T08:56:12Z</time></trkpt><trkpt lat="41.39363930728187" lon="13.965880704974241"><ele>290.3333333333333</ele><time>2026-04-12T08:56:16Z</time></trkpt><trkpt lat="41.39356455230931" lon="13.965951835597687"><ele>288.5</ele><time>2026-04-12T08:56:19Z</time></trkpt><trkpt lat="41.393503003583405" lon="13.965989401080325"><ele>286.66666666666663</ele><time>2026-04-12T08:56:20Z</time></trkpt><trkpt lat="41.39344138179939" lon="13.966065318702443"><ele>284.8333333333333</ele><time>2026-04-12T08:56:22Z</time></trkpt><trkpt lat="41.39336822075941" lon="13.96614262519105"><ele>283.0</ele><time>2026-04-12T08:56:25Z</time></trkpt><trkpt lat="41.39326155862061" lon="13.966184285462429"><ele>283.0</ele><time>2026-04-12T08:56:27Z</time></trkpt><trkpt lat="41.39319347385909" lon="13.966200469851648"><ele>283.0</ele><time>2026-04-12T08:56:29Z</time></trkpt><trkpt lat="41.3931338422942" lon="13.966257683193056"><ele>283.0</ele><time>2026-04-12T08:56:31Z</time></trkpt><trkpt lat="41.39304072727214" lon="13.966272967193857"><ele>283.0</ele><time>2026-04-12T08:56:33Z</time></trkpt><trkpt lat="41.39295060656598" lon="13.966285212704523"><ele>283.0</ele><time>2026-04-12T08:56:37Z</time></trkpt><trkpt lat="41.39287719518056" lon="13.966277700249973"><ele>283.0</ele><time>2026-04-12T08:56:40Z</time></trkpt><trkpt lat="41.392795375311735" lon="13.966261668276704"><ele>283.2</ele><time>2026-04-12T08:56:43Z</time></trkpt><trkpt lat="41.39272487715712" lon="13.966240473398244"><ele>283.4</ele><time>2026-04-12T08:56:45Z</time></trkpt><trkpt lat="41.392650481742834" lon="13.966224754300308"><ele>283.59999999999997</ele><time>2026-04-12T08:56:47Z</time></trkpt><trkpt lat="41.392577034008134" lon="13.966189629005482"><ele>283.8</ele><time>2026-04-12T08:56:49Z</time></trkpt><trkpt lat="41.392509303016716" lon="13.96611748127192"><ele>284.0</ele><time>2026-04-12T08:56:51Z</time></trkpt><trkpt lat="41.39237922301541" lon="13.966058606171524"><ele>284.0</ele><time>2026-04-12T08:56:53Z</time></trkpt><trkpt lat="41.39227984480185" lon="13.966029968582276"><ele>284.0</ele><time>2026-04-12T08:56:55Z</time></trkpt><trkpt lat="41.39219614691431" lon="13.965956276923553"><ele>284.0</ele><time>2026-04-12T08:56:57Z</time></trkpt><trkpt lat="41.39210020657479" lon="13.965953563955782"><ele>284.0</ele><time>2026-04-12T08:56:59Z</time></trkpt><trkpt lat="41.39201509072059" lon="13.965934025421333"><ele>284.0</ele><time>2026-04-12T08:57:01Z</time></trkpt><trkpt lat="41.39193066503577" lon="13.965939796835867"><ele>282.33333333333337</ele><time>2026-04-12T08:57:03Z</time></trkpt><trkpt lat="41.39186230359414" lon="13.965926359889178"><ele>280.6666666666667</ele><time>2026-04-12T08:57:04Z</time></trkpt><trkpt lat="41.39180021676581" lon="13.965860514838107"><ele>279.0</ele><time>2026-04-12T08:57:06Z</time></trkpt><trkpt lat="41.39171287549973" lon="13.965848431657557"><ele>277.3333333333333</ele><time>2026-04-12T08:57:14Z</time></trkpt><trkpt lat="41.39164403953699" lon="13.965842331265124"><ele>275.66666666666663</ele><time>2026-04-12T08:57:16Z</time></trkpt><trkpt lat="41.39157278757652" lon="13.965858074946821"><ele>274.0</ele><time>2026-04-12T08:57:19Z</time></trkpt><trkpt lat="41.391501331875254" lon="13.96587529230517"><ele>274.00000000000006</ele><time>2026-04-12T08:57:21Z</time></trkpt><trkpt lat="41.39143727666868" lon="13.965880197208193"><ele>274.0</ele><time>2026-04-12T08:57:23Z</time></trkpt><trkpt lat="41.391363372386195" lon="13.965894848873509"><ele>274.0</ele><time>2026-04-12T08:57:27Z</time></trkpt><trkpt lat="41.39130131138736" lon="13.96591224945223"><ele>274.0</ele><time>2026-04-12T08:57:29Z</time></trkpt><trkpt lat="41.39121697264762" lon="13.96590901123852"><ele>274.0</ele><time>2026-04-12T08:57:32Z</time></trkpt><trkpt lat="41.39113821898346" lon="13.965902072506813"><ele>274.00000000000006</ele><time>2026-04-12T08:57:35Z</time></trkpt><trkpt lat="41.39105622000023" lon="13.965891134724991"><ele>274.0</ele><time>2026-04-12T08:57:38Z</time></trkpt><trkpt lat="41.39097585447277" lon="13.965870639662699"><ele>273.8571428571429</ele><time>2026-04-12T08:57:41Z</time></trkpt><trkpt lat="41.3909082237457" lon="13.96587238781297"><ele>273.7142857142857</ele><time>2026-04-12T08:57:43Z</time></trkpt><trkpt lat="41.3908431681892" lon="13.965836835495884"><ele>273.57142857142856</ele><time>2026-04-12T08:57:45Z</time></trkpt><trkpt lat="41.390777110999785" lon="13.965829713005304"><ele>273.42857142857144</ele><time>2026-04-12T08:57:48Z</time></trkpt><trkpt lat="41.39071133936808" lon="13.965844860178573"><ele>273.2857142857143</ele><time>2026-04-12T08:57:50Z</time></trkpt><trkpt lat="41.39064840074103" lon="13.965853053715616"><ele>273.14285714285717</ele><time>2026-04-12T08:57:51Z</time></trkpt><trkpt lat="41.39057985688401" lon="13.965847003665719"><ele>273.0</ele><time>2026-04-12T08:57:52Z</time></trkpt><trkpt lat="41.39045333925101" lon="13.965857602674786"><ele>275.5</ele><time>2026-04-12T08:57:54Z</time></trkpt><trkpt lat="41.39034182418058" lon="13.965874555776573"><ele>278.0</ele><time>2026-04-12T08:57:56Z</time></trkpt><trkpt lat="41.390258389411805" lon="13.965957897679742"><ele>280.5</ele><time>2026-04-12T08:57:58Z</time></trkpt><trkpt lat="41.390140245732916" lon="13.966019013048296"><ele>283.0</ele><time>2026-04-12T08:58:00Z</time></trkpt><trkpt lat="41.390025628654094" lon="13.96603586929445"><ele>283.0</ele><time>2026-04-12T08:58:02Z</time></trkpt><trkpt lat="41.38997113629995" lon="13.966081714729636"><ele>283.0</ele><time>2026-04-12T08:58:04Z</time></trkpt><trkpt lat="41.38988492764044" lon="13.966080828719702"><ele>283.0</ele><time>2026-04-12T08:58:06Z</time></trkpt><trkpt lat="41.389795153361824" lon="13.966065048962342"><ele>283.0</ele><time>2026-04-12T08:58:10Z</time></trkpt><trkpt lat="41.38972815164169" lon="13.96606403788394"><ele>283.0</ele><time>2026-04-12T08:58:12Z</time></trkpt><trkpt lat="41.38962923164812" lon="13.966080924880519"><ele>283.0</ele><time>2026-04-12T08:58:15Z</time></trkpt><trkpt lat="41.389561359632836" lon="13.966069401730838"><ele>283.42857142857144</ele><time>2026-04-12T08:58:17Z</time></trkpt><trkpt lat="41.389494199329896" lon="13.96605661235436"><ele>283.8571428571429</ele><time>2026-04-12T08:58:18Z</time></trkpt><trkpt lat="41.389413433255285" lon="13.96604614076902"><ele>284.2857142857143</ele><time>2026-04-12T08:58:21Z</time></trkpt><trkpt lat="41.389337463430884" lon="13.966038844742641"><ele>284.7142857142857</ele><time>2026-04-12T08:58:23Z</time></trkpt><trkpt lat="41.38926590295144" lon="13.966035291125522"><ele>285.1428571428571</ele><time>2026-04-12T08:58:25Z</time></trkpt><trkpt lat="41.38918505414314" lon="13.966041684577606"><ele>285.57142857142856</ele><time>2026-04-12T08:58:28Z</time></trkpt><trkpt lat="41.38911459276835" lon="13.966052746922164"><ele>286.0</ele><time>2026-04-12T08:58:30Z</time></trkpt><trkpt lat="41.38904505623787" lon="13.966068188911235"><ele>286.0</ele><time>2026-04-12T08:58:32Z</time></trkpt><trkpt lat="41.38895984773179" lon="13.966098082974602"><ele>286.0</ele><time>2026-04-12T08:58:35Z</time></trkpt><trkpt lat="41.3888470207592" lon="13.966109629806393"><ele>286.0</ele><time>2026-04-12T08:58:38Z</time></trkpt><trkpt lat="41.38878261934415" lon="13.966124634504958"><ele>286.0</ele><time>2026-04-12T08:58:40Z</time></trkpt><trkpt lat="41.38872600111989" lon="13.966170106737842"><ele>286.0</ele><time>2026-04-12T08:58:42Z</time></trkpt><trkpt lat="41.388647242735225" lon="13.966207720802373"><ele>286.0</ele><time>2026-04-12T08:58:45Z</time></trkpt><trkpt lat="41.38857985723745" lon="13.966213053761958"><ele>287.16666666666663</ele><time>2026-04-12T08:58:47Z</time></trkpt><trkpt lat="41.38850988956798" lon="13.966255109868762"><ele>288.3333333333333</ele><time>2026-04-12T08:58:50Z</time></trkpt><trkpt lat="41.388428984589" lon="13.966293156585754"><ele>289.5</ele><time>2026-04-12T08:58:52Z</time></trkpt><trkpt lat="41.388367273377916" lon="13.966331313415242"><ele>290.6666666666667</ele><time>2026-04-12T08:58:54Z</time></trkpt><trkpt lat="41.38827245196915" lon="13.96636430151934"><ele>291.83333333333337</ele><time>2026-04-12T08:58:57Z</time></trkpt><trkpt lat="41.388219774911185" lon="13.966425290022428"><ele>293.0</ele><time>2026-04-12T08:59:00Z</time></trkpt><trkpt lat="41.38815730246624" lon="13.966445571380373"><ele>293.0</ele><time>2026-04-12T08:59:02Z</time></trkpt><trkpt lat="41.38808304057423" lon="13.966464539082118"><ele>293.0</ele><time>2026-04-12T08:59:04Z</time></trkpt><trkpt lat="41.388019323950985" lon="13.966509767881767"><ele>293.0</ele><time>2026-04-12T08:59:06Z</time></trkpt><trkpt lat="41.38791096846258" lon="13.96651282257382"><ele>293.0</ele><time>2026-04-12T08:59:08Z</time></trkpt><trkpt lat="41.38779202641256" lon="13.96656096233249"><ele>293.0</ele><time>2026-04-12T08:59:10Z</time></trkpt><trkpt lat="41.38770657713772" lon="13.966585950199406"><ele>294.5</ele><time>2026-04-12T08:59:11Z</time></trkpt><trkpt lat="41.387620762327536" lon="13.96661162166889"><ele>296.0</ele><time>2026-04-12T08:59:12Z</time></trkpt><trkpt lat="41.38755256310888" lon="13.966639493175164"><ele>297.5</ele><time>2026-04-12T08:59:13Z</time></trkpt><trkpt lat="41.38745052097057" lon="13.966637520792737"><ele>299.0</ele><time>2026-04-12T08:59:15Z</time></trkpt><trkpt lat="41.38738622736281" lon="13.966627779132132"><ele>300.5</ele><time>2026-04-12T08:59:17Z</time></trkpt><trkpt lat="41.38731867967265" lon="13.966667418079705"><ele>302.0</ele><time>2026-04-12T08:59:20Z</time></trkpt><trkpt lat="41.38723905165913" lon="13.966712909838456"><ele>297.2</ele><time>2026-04-12T08:59:22Z</time></trkpt><trkpt lat="41.38713329107252" lon="13.966760272560402"><ele>292.4</ele><time>2026-04-12T08:59:25Z</time></trkpt><trkpt lat="41.38705036922175" lon="13.966801067590346"><ele>287.6</ele><time>2026-04-12T08:59:27Z</time></trkpt><trkpt lat="41.38695802462952" lon="13.966836595048957"><ele>282.8</ele><time>2026-04-12T08:59:29Z</time></trkpt><trkpt lat="41.38689113317807" lon="13.966858286021658"><ele>278.0</ele><time>2026-04-12T08:59:30Z</time></trkpt><trkpt lat="41.38679975528335" lon="13.966911338850064"><ele>278.0</ele><time>2026-04-12T08:59:32Z</time></trkpt><trkpt lat="41.3867322721331" lon="13.967009021795723"><ele>278.0</ele><time>2026-04-12T08:59:34Z</time></trkpt><trkpt lat="41.38666844072268" lon="13.967018672340494"><ele>278.0</ele><time>2026-04-12T08:59:36Z</time></trkpt><trkpt lat="41.38656183794612" lon="13.967011135353204"><ele>278.0</ele><time>2026-04-12T08:59:38Z</time></trkpt><trkpt lat="41.38650074168286" lon="13.967048823832384"><ele>278.0</ele><time>2026-04-12T08:59:39Z</time></trkpt><trkpt lat="41.386425030057055" lon="13.967139604542801"><ele>278.0</ele><time>2026-04-12T08:59:41Z</time></trkpt><trkpt lat="41.38635016872747" lon="13.967204885729126"><ele>275.6</ele><time>2026-04-12T08:59:43Z</time></trkpt><trkpt lat="41.386259766426" lon="13.967182713763147"><ele>273.20000000000005</ele><time>2026-04-12T08:59:45Z</time></trkpt><trkpt lat="41.386175412921645" lon="13.96720220048353"><ele>270.8</ele><time>2026-04-12T08:59:47Z</time></trkpt><trkpt lat="41.38609296860163" lon="13.967237471102946"><ele>268.40000000000003</ele><time>2026-04-12T08:59:49Z</time></trkpt><trkpt lat="41.3860341706432" lon="13.96731159952946"><ele>266.0</ele><time>2026-04-12T08:59:52Z</time></trkpt><trkpt lat="41.385958827137955" lon="13.967411918327766"><ele>266.0</ele><time>2026-04-12T08:59:55Z</time></trkpt><trkpt lat="41.38588109108178" lon="13.967410489999477"><ele>266.0</ele><time>2026-04-12T08:59:57Z</time></trkpt><trkpt lat="41.38580274058256" lon="13.967437780522099"><ele>266.0</ele><time>2026-04-12T08:59:58Z</time></trkpt><trkpt lat="41.38571784047913" lon="13.967497805967136"><ele>266.0</ele><time>2026-04-12T09:00:00Z</time></trkpt><trkpt lat="41.38568300999044" lon="13.967423074907638"><ele>266.0</ele><time>2026-04-12T09:00:03Z</time></trkpt><trkpt lat="41.38563621716516" lon="13.96748005338979"><ele>266.0</ele><time>2026-04-12T09:00:04Z</time></trkpt><trkpt lat="41.38555771502525" lon="13.967491704164132"><ele>263.5</ele><time>2026-04-12T09:00:05Z</time></trkpt><trkpt lat="41.385453835855245" lon="13.967476456876698"><ele>261.0</ele><time>2026-04-12T09:00:06Z</time></trkpt><trkpt lat="41.38526062244515" lon="13.967423782787158"><ele>258.5</ele><time>2026-04-12T09:00:09Z</time></trkpt><trkpt lat="41.38513142080636" lon="13.967381903952395"><ele>256.0</ele><time>2026-04-12T09:00:10Z</time></trkpt><trkpt lat="41.38503849346975" lon="13.96737902878533"><ele>255.99999999999997</ele><time>2026-04-12T09:00:11Z</time></trkpt><trkpt lat="41.384939343322664" lon="13.967388020336834"><ele>256.0</ele><time>2026-04-12T09:00:12Z</time></trkpt><trkpt lat="41.38493333196595" lon="13.96747758472459"><ele>256.0</ele><time>2026-04-12T09:00:14Z</time></trkpt><trkpt lat="41.38487555237976" lon="13.967524195826961"><ele>256.0</ele><time>2026-04-12T09:00:15Z</time></trkpt><trkpt lat="41.38483206884132" lon="13.967616576234198"><ele>255.99999999999997</ele><time>2026-04-12T09:00:18Z</time></trkpt><trkpt lat="41.38481332347065" lon="13.967762505943002"><ele>256.0</ele><time>2026-04-12T09:00:20Z</time></trkpt><trkpt lat="41.384821137872144" lon="13.967865187047064"><ele>253.20000000000002</ele><time>2026-04-12T09:00:21Z</time></trkpt><trkpt lat="41.384858550347595" lon="13.967970542044531"><ele>250.40000000000003</ele><time>2026-04-12T09:00:22Z</time></trkpt><trkpt lat="41.38486609299822" lon="13.968079022265401"><ele>247.6</ele><time>2026-04-12T09:00:24Z</time></trkpt><trkpt lat="41.38485601844848" lon="13.968178795237005"><ele>244.8</ele><time>2026-04-12T09:00:25Z</time></trkpt><trkpt lat="41.384921271760476" lon="13.968311691365715"><ele>242.0</ele><time>2026-04-12T09:00:27Z</time></trkpt><trkpt lat="41.38517396197214" lon="13.968611223638689"><ele>239.0</ele><time>2026-04-12T09:00:28Z</time></trkpt><trkpt lat="41.38527598504337" lon="13.96862400190477"><ele>236.0</ele><time>2026-04-12T09:00:29Z</time></trkpt><trkpt lat="41.38537206894345" lon="13.968650799910753"><ele>233.0</ele><time>2026-04-12T09:00:31Z</time></trkpt><trkpt lat="41.38535563524585" lon="13.968813165629722"><ele>230.0</ele><time>2026-04-12T09:00:34Z</time></trkpt><trkpt lat="41.38539019415788" lon="13.969052571285157"><ele>227.25</ele><time>2026-04-12T09:00:35Z</time></trkpt><trkpt lat="41.38544432359881" lon="13.969215500943054"><ele>224.5</ele><time>2026-04-12T09:00:36Z</time></trkpt><trkpt lat="41.38546503579435" lon="13.969367294489075"><ele>221.75</ele><time>2026-04-12T09:00:37Z</time></trkpt><trkpt lat="41.38545926407264" lon="13.96952579471517"><ele>219.0</ele><time>2026-04-12T09:00:38Z</time></trkpt><trkpt lat="41.385445716565236" lon="13.969665244301101"><ele>219.0</ele><time>2026-04-12T09:00:39Z</time></trkpt><trkpt lat="41.38545417173464" lon="13.969819539256404"><ele>219.0</ele><time>2026-04-12T09:00:40Z</time></trkpt><trkpt lat="41.385459477399" lon="13.969969508493573"><ele>219.0</ele><time>2026-04-12T09:00:41Z</time></trkpt><trkpt lat="41.38547506416645" lon="13.97011777939087"><ele>219.0</ele><time>2026-04-12T09:00:42Z</time></trkpt><trkpt lat="41.38551194285743" lon="13.97026237947083"><ele>217.39999999999998</ele><time>2026-04-12T09:00:43Z</time></trkpt><trkpt lat="41.385579495423755" lon="13.970381482228293"><ele>215.79999999999998</ele><time>2026-04-12T09:00:44Z</time></trkpt><trkpt lat="41.38562583951513" lon="13.97050144342546"><ele>214.2</ele><time>2026-04-12T09:00:45Z</time></trkpt><trkpt lat="41.38569828129412" lon="13.970624176274406"><ele>212.60000000000002</ele><time>2026-04-12T09:00:46Z</time></trkpt><trkpt lat="41.38575947791575" lon="13.970734143799094"><ele>211.0</ele><time>2026-04-12T09:00:47Z</time></trkpt><trkpt lat="41.38581433584986" lon="13.970825491941232"><ele>209.60000000000002</ele><time>2026-04-12T09:00:48Z</time></trkpt><trkpt lat="41.38584878334531" lon="13.97090597024244"><ele>208.2</ele><time>2026-04-12T09:00:49Z</time></trkpt><trkpt lat="41.38586041594961" lon="13.97106604085594"><ele>206.8</ele><time>2026-04-12T09:00:51Z</time></trkpt><trkpt lat="41.385820565595125" lon="13.971163551813843"><ele>205.39999999999998</ele><time>2026-04-12T09:00:52Z</time></trkpt><trkpt lat="41.38577416084824" lon="13.971359935450078"><ele>204.0</ele><time>2026-04-12T09:00:53Z</time></trkpt><trkpt lat="41.38572935009636" lon="13.971524049388034"><ele>202.25</ele><time>2026-04-12T09:00:54Z</time></trkpt><trkpt lat="41.385643822600116" lon="13.97169732329082"><ele>200.5</ele><time>2026-04-12T09:00:55Z</time></trkpt><trkpt lat="41.38559023503113" lon="13.971888414781022"><ele>198.75</ele><time>2026-04-12T09:00:56Z</time></trkpt><trkpt lat="41.385523086290114" lon="13.972031361542834"><ele>197.0</ele><time>2026-04-12T09:00:57Z</time></trkpt><trkpt lat="41.38546821165682" lon="13.972200138284869"><ele>197.0</ele><time>2026-04-12T09:00:58Z</time></trkpt><trkpt lat="41.38543318796401" lon="13.972337241521606"><ele>197.0</ele><time>2026-04-12T09:00:59Z</time></trkpt><trkpt lat="41.38538328191875" lon="13.972463335677013"><ele>197.0</ele><time>2026-04-12T09:01:00Z</time></trkpt><trkpt lat="41.38534353265834" lon="13.97255224738885"><ele>197.0</ele><time>2026-04-12T09:01:01Z</time></trkpt><trkpt lat="41.38530706214453" lon="13.972629965237543"><ele>197.0</ele><time>2026-04-12T09:01:04Z</time></trkpt><trkpt lat="41.38539767384287" lon="13.97279122888963"><ele>196.75</ele><time>2026-04-12T09:01:10Z</time></trkpt><trkpt lat="41.385477040772535" lon="13.972855618550758"><ele>196.5</ele><time>2026-04-12T09:01:11Z</time></trkpt><trkpt lat="41.38560090233427" lon="13.972965079412573"><ele>196.25</ele><time>2026-04-12T09:01:12Z</time></trkpt><trkpt lat="41.38568202493998" lon="13.973118811304637"><ele>196.0</ele><time>2026-04-12T09:01:13Z</time></trkpt><trkpt lat="41.38578265763201" lon="13.973254692004259"><ele>196.66666666666666</ele><time>2026-04-12T09:01:14Z</time></trkpt><trkpt lat="41.38587017727921" lon="13.973424286317302"><ele>197.33333333333331</ele><time>2026-04-12T09:01:15Z</time></trkpt><trkpt lat="41.38596508898331" lon="13.973621969889386"><ele>198.0</ele><time>2026-04-12T09:01:16Z</time></trkpt><trkpt lat="41.38607791137418" lon="13.97382284334114"><ele>198.0</ele><time>2026-04-12T09:01:17Z</time></trkpt><trkpt lat="41.38616166390357" lon="13.97403267662255"><ele>198.0</ele><time>2026-04-12T09:01:18Z</time></trkpt><trkpt lat="41.38626583627089" lon="13.974251247377905"><ele>198.0</ele><time>2026-04-12T09:01:19Z</time></trkpt><trkpt lat="41.38636773045137" lon="13.974461248171473"><ele>198.75</ele><time>2026-04-12T09:01:20Z</time></trkpt><trkpt lat="41.38645849616611" lon="13.974641571053217"><ele>199.5</ele><time>2026-04-12T09:01:21Z</time></trkpt><trkpt lat="41.38654175825154" lon="13.974810117764417"><ele>200.25</ele><time>2026-04-12T09:01:22Z</time></trkpt><trkpt lat="41.38661179382947" lon="13.974952801900857"><ele>201.0</ele><time>2026-04-12T09:01:23Z</time></trkpt><trkpt lat="41.38668633128545" lon="13.975089586139974"><ele>201.0</ele><time>2026-04-12T09:01:24Z</time></trkpt><trkpt lat="41.38677922679502" lon="13.975211398183774"><ele>201.0</ele><time>2026-04-12T09:01:25Z</time></trkpt><trkpt lat="41.386886455388314" lon="13.975302421869358"><ele>201.0</ele><time>2026-04-12T09:01:26Z</time></trkpt><trkpt lat="41.387018575126675" lon="13.975348205728446"><ele>201.0</ele><time>2026-04-12T09:01:27Z</time></trkpt><trkpt lat="41.38715194972343" lon="13.975383935122869"><ele>200.33333333333331</ele><time>2026-04-12T09:01:28Z</time></trkpt><trkpt lat="41.3872927614938" lon="13.975393744948606"><ele>199.66666666666666</ele><time>2026-04-12T09:01:29Z</time></trkpt><trkpt lat="41.387441238104905" lon="13.975428719496222"><ele>199.0</ele><time>2026-04-12T09:01:30Z</time></trkpt><trkpt lat="41.38760173588797" lon="13.975441659889574"><ele>199.0</ele><time>2026-04-12T09:01:31Z</time></trkpt><trkpt lat="41.3877464581541" lon="13.9754554892708"><ele>199.0</ele><time>2026-04-12T09:01:32Z</time></trkpt><trkpt lat="41.38788998651934" lon="13.975453473795207"><ele>199.0</ele><time>2026-04-12T09:01:33Z</time></trkpt><trkpt lat="41.38805029006622" lon="13.97546871059208"><ele>199.0</ele><time>2026-04-12T09:01:34Z</time></trkpt><trkpt lat="41.38819872998963" lon="13.975510103672619"><ele>198.66666666666666</ele><time>2026-04-12T09:01:35Z</time></trkpt><trkpt lat="41.38835839709051" lon="13.975549600419225"><ele>198.33333333333331</ele><time>2026-04-12T09:01:36Z</time></trkpt><trkpt lat="41.388499100134126" lon="13.975625843551553"><ele>198.0</ele><time>2026-04-12T09:01:37Z</time></trkpt><trkpt lat="41.38864824847918" lon="13.975698464928099"><ele>198.0</ele><time>2026-04-12T09:01:38Z</time></trkpt><trkpt lat="41.38880133384915" lon="13.975780237567454"><ele>198.0</ele><time>2026-04-12T09:01:39Z</time></trkpt><trkpt lat="41.388975375734006" lon="13.9758425185031"><ele>198.0</ele><time>2026-04-12T09:01:40Z</time></trkpt><trkpt lat="41.38914715432429" lon="13.97588611013261"><ele>195.66666666666666</ele><time>2026-04-12T09:01:41Z</time></trkpt><trkpt lat="41.389323948232075" lon="13.97592871430424"><ele>193.33333333333331</ele><time>2026-04-12T09:01:42Z</time></trkpt><trkpt lat="41.38950670880263" lon="13.975956250069842"><ele>191.0</ele><time>2026-04-12T09:01:43Z</time></trkpt><trkpt lat="41.38968209963177" lon="13.97600874004852"><ele>190.33333333333331</ele><time>2026-04-12T09:01:44Z</time></trkpt><trkpt lat="41.38987341503242" lon="13.976055199814947"><ele>189.66666666666666</ele><time>2026-04-12T09:01:45Z</time></trkpt><trkpt lat="41.39005219517431" lon="13.976099083606888"><ele>189.0</ele><time>2026-04-12T09:01:46Z</time></trkpt><trkpt lat="41.39021973521388" lon="13.976131249360787"><ele>189.0</ele><time>2026-04-12T09:01:47Z</time></trkpt><trkpt lat="41.390384522245256" lon="13.97617643836685"><ele>189.0</ele><time>2026-04-12T09:01:48Z</time></trkpt><trkpt lat="41.390526059248984" lon="13.976214729198375"><ele>189.0</ele><time>2026-04-12T09:01:49Z</time></trkpt><trkpt lat="41.39067270551647" lon="13.976272280880812"><ele>188.25</ele><time>2026-04-12T09:01:50Z</time></trkpt><trkpt lat="41.390800622357105" lon="13.97629348311216"><ele>187.5</ele><time>2026-04-12T09:01:51Z</time></trkpt><trkpt lat="41.39091736961044" lon="13.976342367517962"><ele>186.75</ele><time>2026-04-12T09:01:52Z</time></trkpt><trkpt lat="41.391015891239476" lon="13.976417869187161"><ele>186.0</ele><time>2026-04-12T09:01:53Z</time></trkpt><trkpt lat="41.391114917440916" lon="13.976494597410213"><ele>186.0</ele><time>2026-04-12T09:01:54Z</time></trkpt><trkpt lat="41.39115962369958" lon="13.976650618331176"><ele>186.0</ele><time>2026-04-12T09:01:55Z</time></trkpt><trkpt lat="41.391216727414175" lon="13.976798779595255"><ele>186.0</ele><time>2026-04-12T09:01:56Z</time></trkpt><trkpt lat="41.39127558593391" lon="13.976959149083692"><ele>186.0</ele><time>2026-04-12T09:01:57Z</time></trkpt><trkpt lat="41.391347738503256" lon="13.97715574099367"><ele>183.8</ele><time>2026-04-12T09:01:58Z</time></trkpt><trkpt lat="41.39141088312372" lon="13.977328481549685"><ele>181.60000000000002</ele><time>2026-04-12T09:01:59Z</time></trkpt><trkpt lat="41.39146596909225" lon="13.977477705225857"><ele>179.4</ele><time>2026-04-12T09:02:00Z</time></trkpt><trkpt lat="41.391502828847486" lon="13.977581430635365"><ele>177.2</ele><time>2026-04-12T09:02:01Z</time></trkpt><trkpt lat="41.39153340241485" lon="13.9776813028435"><ele>175.0</ele><time>2026-04-12T09:02:02Z</time></trkpt><trkpt lat="41.39153731281551" lon="13.97776697405997"><ele>173.8</ele><time>2026-04-12T09:02:03Z</time></trkpt><trkpt lat="41.391497375612" lon="13.977854799857498"><ele>172.6</ele><time>2026-04-12T09:02:04Z</time></trkpt><trkpt lat="41.39142644873287" lon="13.977932776218855"><ele>171.39999999999998</ele><time>2026-04-12T09:02:05Z</time></trkpt><trkpt lat="41.39131827478098" lon="13.97797664139502"><ele>170.2</ele><time>2026-04-12T09:02:06Z</time></trkpt><trkpt lat="41.39119834773236" lon="13.978018536231195"><ele>169.0</ele><time>2026-04-12T09:02:07Z</time></trkpt><trkpt lat="41.391059810897644" lon="13.978065208729141"><ele>169.0</ele><time>2026-04-12T09:02:08Z</time></trkpt><trkpt lat="41.39092146441451" lon="13.97813050535485"><ele>169.0</ele><time>2026-04-12T09:02:09Z</time></trkpt><trkpt lat="41.39078730256327" lon="13.978190238904926"><ele>169.0</ele><time>2026-04-12T09:02:10Z</time></trkpt><trkpt lat="41.39068325593983" lon="13.978237719150831"><ele>169.0</ele><time>2026-04-12T09:02:11Z</time></trkpt><trkpt lat="41.39059874868959" lon="13.978271868379055"><ele>169.0</ele><time>2026-04-12T09:02:12Z</time></trkpt><trkpt lat="41.39052782882939" lon="13.978281630593234"><ele>169.0</ele><time>2026-04-12T09:02:13Z</time></trkpt><trkpt lat="41.3904630515902" lon="13.97832228485176"><ele>169.0</ele><time>2026-04-12T09:02:14Z</time></trkpt><trkpt lat="41.390399674185794" lon="13.97836311278034"><ele>169.0</ele><time>2026-04-12T09:02:16Z</time></trkpt><trkpt lat="41.39020354146777" lon="13.978138828875565"><ele>167.5</ele><time>2026-04-12T09:02:18Z</time></trkpt><trkpt lat="41.39009898327231" lon="13.978049668512737"><ele>166.0</ele><time>2026-04-12T09:02:19Z</time></trkpt><trkpt lat="41.38998745773866" lon="13.977966598516417"><ele>164.5</ele><time>2026-04-12T09:02:20Z</time></trkpt><trkpt lat="41.38985235721991" lon="13.977835088041001"><ele>163.0</ele><time>2026-04-12T09:02:21Z</time></trkpt><trkpt lat="41.38973087903933" lon="13.977735423184884"><ele>163.2</ele><time>2026-04-12T09:02:22Z</time></trkpt><trkpt lat="41.38962319601949" lon="13.9776937190094"><ele>163.4</ele><time>2026-04-12T09:02:23Z</time></trkpt><trkpt lat="41.3895071020665" lon="13.97766459654186"><ele>163.6</ele><time>2026-04-12T09:02:24Z</time></trkpt><trkpt lat="41.389414615118845" lon="13.977646692452343"><ele>163.79999999999998</ele><time>2026-04-12T09:02:25Z</time></trkpt><trkpt lat="41.38933435121899" lon="13.97766171050333"><ele>164.0</ele><time>2026-04-12T09:02:26Z</time></trkpt><trkpt lat="41.389225721846444" lon="13.977711160085626"><ele>164.0</ele><time>2026-04-12T09:02:27Z</time></trkpt><trkpt lat="41.38909453206988" lon="13.977768665081701"><ele>164.0</ele><time>2026-04-12T09:02:28Z</time></trkpt><trkpt lat="41.388980047091366" lon="13.977778238650666"><ele>164.0</ele><time>2026-04-12T09:02:29Z</time></trkpt><trkpt lat="41.388903076408006" lon="13.977768160252989"><ele>164.0</ele><time>2026-04-12T09:02:30Z</time></trkpt><trkpt lat="41.38884046707593" lon="13.977718651660913"><ele>164.0</ele><time>2026-04-12T09:02:31Z</time></trkpt><trkpt lat="41.38872280141363" lon="13.977679011528576"><ele>163.75</ele><time>2026-04-12T09:02:32Z</time></trkpt><trkpt lat="41.38860171418468" lon="13.977631324445461"><ele>163.5</ele><time>2026-04-12T09:02:33Z</time></trkpt><trkpt lat="41.38846080813909" lon="13.977597651308834"><ele>163.25</ele><time>2026-04-12T09:02:34Z</time></trkpt><trkpt lat="41.3883103557266" lon="13.977590680847456"><ele>163.0</ele><time>2026-04-12T09:02:35Z</time></trkpt><trkpt lat="41.388162173422074" lon="13.977588294501846"><ele>163.0</ele><time>2026-04-12T09:02:36Z</time></trkpt><trkpt lat="41.388027039193574" lon="13.977600645829382"><ele>163.0</ele><time>2026-04-12T09:02:37Z</time></trkpt><trkpt lat="41.387908100914856" lon="13.977636049594285"><ele>163.0</ele><time>2026-04-12T09:02:38Z</time></trkpt><trkpt lat="41.38781768318577" lon="13.977680684362943"><ele>163.0</ele><time>2026-04-12T09:02:39Z</time></trkpt><trkpt lat="41.387717112335714" lon="13.977737474764925"><ele>162.60000000000002</ele><time>2026-04-12T09:02:40Z</time></trkpt><trkpt lat="41.387642459702946" lon="13.977818610653726"><ele>162.20000000000002</ele><time>2026-04-12T09:02:41Z</time></trkpt><trkpt lat="41.38758371239926" lon="13.977913877237308"><ele>161.8</ele><time>2026-04-12T09:02:42Z</time></trkpt><trkpt lat="41.387533963439196" lon="13.978017799501634"><ele>161.4</ele><time>2026-04-12T09:02:43Z</time></trkpt><trkpt lat="41.38743707178021" lon="13.97810541222069"><ele>161.0</ele><time>2026-04-12T09:02:45Z</time></trkpt><trkpt lat="41.387357776667365" lon="13.978122640754954"><ele>161.0</ele><time>2026-04-12T09:02:46Z</time></trkpt><trkpt lat="41.38726553801847" lon="13.978103091066147"><ele>161.0</ele><time>2026-04-12T09:02:47Z</time></trkpt><trkpt lat="41.387164010277026" lon="13.978110125386317"><ele>161.0</ele><time>2026-04-12T09:02:48Z</time></trkpt><trkpt lat="41.38704630743034" lon="13.978104948112033"><ele>161.0</ele><time>2026-04-12T09:02:49Z</time></trkpt><trkpt lat="41.38693460356102" lon="13.978135481219466"><ele>161.0</ele><time>2026-04-12T09:02:50Z</time></trkpt><trkpt lat="41.38682268226819" lon="13.978189543377562"><ele>161.25</ele><time>2026-04-12T09:02:51Z</time></trkpt><trkpt lat="41.38669137255887" lon="13.978280404652088"><ele>161.5</ele><time>2026-04-12T09:02:52Z</time></trkpt><trkpt lat="41.38660139374313" lon="13.978325569518464"><ele>161.75</ele><time>2026-04-12T09:02:53Z</time></trkpt><trkpt lat="41.386465675493284" lon="13.978365674866131"><ele>162.0</ele><time>2026-04-12T09:02:54Z</time></trkpt><trkpt lat="41.386363310235275" lon="13.978395221866982"><ele>160.5</ele><time>2026-04-12T09:02:55Z</time></trkpt><trkpt lat="41.38627905988472" lon="13.978434204514471"><ele>159.0</ele><time>2026-04-12T09:02:56Z</time></trkpt><trkpt lat="41.38621014946583" lon="13.978482014535986"><ele>157.5</ele><time>2026-04-12T09:02:57Z</time></trkpt><trkpt lat="41.38614761134398" lon="13.978517488574747"><ele>156.0</ele><time>2026-04-12T09:02:58Z</time></trkpt><trkpt lat="41.38607629457904" lon="13.978557679824348"><ele>154.5</ele><time>2026-04-12T09:02:59Z</time></trkpt><trkpt lat="41.38603868800529" lon="13.978631992346992"><ele>153.0</ele><time>2026-04-12T09:03:00Z</time></trkpt><trkpt lat="41.385971343417644" lon="13.978707076810872"><ele>153.0</ele><time>2026-04-12T09:03:01Z</time></trkpt><trkpt lat="41.38591762354595" lon="13.978786121751774"><ele>153.0</ele><time>2026-04-12T09:03:02Z</time></trkpt><trkpt lat="41.38584850102533" lon="13.978825018324248"><ele>153.0</ele><time>2026-04-12T09:03:03Z</time></trkpt><trkpt lat="41.38579477263769" lon="13.978877844276552"><ele>153.0</ele><time>2026-04-12T09:03:04Z</time></trkpt><trkpt lat="41.385715370162075" lon="13.978912725022047"><ele>153.0</ele><time>2026-04-12T09:03:05Z</time></trkpt><trkpt lat="41.385639091879455" lon="13.978967588657405"><ele>153.0</ele><time>2026-04-12T09:03:06Z</time></trkpt><trkpt lat="41.38556896737501" lon="13.9790179547133"><ele>153.0</ele><time>2026-04-12T09:03:07Z</time></trkpt><trkpt lat="41.385491719126094" lon="13.979099486268737"><ele>153.0</ele><time>2026-04-12T09:03:08Z</time></trkpt><trkpt lat="41.385424823245636" lon="13.979214060447363"><ele>153.0</ele><time>2026-04-12T09:03:09Z</time></trkpt><trkpt lat="41.38537780940696" lon="13.979308276783486"><ele>153.0</ele><time>2026-04-12T09:03:10Z</time></trkpt><trkpt lat="41.38531756926727" lon="13.979381747105906"><ele>153.0</ele><time>2026-04-12T09:03:11Z</time></trkpt><trkpt lat="41.385257524511395" lon="13.979417749561517"><ele>153.0</ele><time>2026-04-12T09:03:12Z</time></trkpt><trkpt lat="41.38517762438168" lon="13.979438631502301"><ele>151.6</ele><time>2026-04-12T09:03:13Z</time></trkpt><trkpt lat="41.38508619161723" lon="13.979435309713802"><ele>150.20000000000002</ele><time>2026-04-12T09:03:14Z</time></trkpt><trkpt lat="41.38499548665105" lon="13.979454634220753"><ele>148.8</ele><time>2026-04-12T09:03:15Z</time></trkpt><trkpt lat="41.384886167444314" lon="13.97946845226373"><ele>147.4</ele><time>2026-04-12T09:03:16Z</time></trkpt><trkpt lat="41.38475485297982" lon="13.979471879630845"><ele>146.0</ele><time>2026-04-12T09:03:17Z</time></trkpt><trkpt lat="41.384618803918684" lon="13.979492555529255"><ele>146.0</ele><time>2026-04-12T09:03:18Z</time></trkpt><trkpt lat="41.38451781504053" lon="13.97949206604323"><ele>146.0</ele><time>2026-04-12T09:03:19Z</time></trkpt><trkpt lat="41.384452223820084" lon="13.979488377802124"><ele>146.0</ele><time>2026-04-12T09:03:21Z</time></trkpt><trkpt lat="41.384382669947804" lon="13.97944964417232"><ele>146.0</ele><time>2026-04-12T09:04:31Z</time></trkpt><trkpt lat="41.38429770774564" lon="13.979408000143232"><ele>146.0</ele><time>2026-04-12T09:04:37Z</time></trkpt><trkpt lat="41.384232227673735" lon="13.979388319794223"><ele>146.0</ele><time>2026-04-12T09:04:38Z</time></trkpt><trkpt lat="41.38414184258131" lon="13.979427741047566"><ele>146.0</ele><time>2026-04-12T09:04:42Z</time></trkpt><trkpt lat="41.384056831217464" lon="13.979377305283508"><ele>146.0</ele><time>2026-04-12T09:04:46Z</time></trkpt><trkpt lat="41.383947293582615" lon="13.979351492152981"><ele>146.0</ele><time>2026-04-12T09:04:47Z</time></trkpt><trkpt lat="41.383884227554624" lon="13.979364218609494"><ele>146.0</ele><time>2026-04-12T09:04:48Z</time></trkpt><trkpt lat="41.38385517379111" lon="13.979440953610633"><ele>146.0</ele><time>2026-04-12T09:04:50Z</time></trkpt><trkpt lat="41.38376040497328" lon="13.979479682694075"><ele>146.0</ele><time>2026-04-12T09:04:51Z</time></trkpt><trkpt lat="41.38368822647698" lon="13.979508850775456"><ele>147.5</ele><time>2026-04-12T09:04:52Z</time></trkpt><trkpt lat="41.38361051244517" lon="13.97952911465203"><ele>149.0</ele><time>2026-04-12T09:04:53Z</time></trkpt><trkpt lat="41.38354253152201" lon="13.979558483441146"><ele>150.5</ele><time>2026-04-12T09:04:54Z</time></trkpt><trkpt lat="41.38337533538024" lon="13.97955407735891"><ele>152.0</ele><time>2026-04-12T09:04:55Z</time></trkpt><trkpt lat="41.38319958669866" lon="13.979449433681165"><ele>152.0</ele><time>2026-04-12T09:04:56Z</time></trkpt><trkpt lat="41.38306007288228" lon="13.97934243188834"><ele>152.0</ele><time>2026-04-12T09:04:57Z</time></trkpt><trkpt lat="41.382923098508925" lon="13.97924770695622"><ele>152.0</ele><time>2026-04-12T09:04:58Z</time></trkpt><trkpt lat="41.38280783213512" lon="13.979174447036376"><ele>152.0</ele><time>2026-04-12T09:04:59Z</time></trkpt><trkpt lat="41.382736019840834" lon="13.97911428050898"><ele>153.2</ele><time>2026-04-12T09:05:00Z</time></trkpt><trkpt lat="41.382739245228315" lon="13.978992161392714"><ele>154.39999999999998</ele><time>2026-04-12T09:05:02Z</time></trkpt><trkpt lat="41.38271052993247" lon="13.978837656674663"><ele>155.60000000000002</ele><time>2026-04-12T09:05:03Z</time></trkpt><trkpt lat="41.38267385988497" lon="13.978704271952461"><ele>156.8</ele><time>2026-04-12T09:05:04Z</time></trkpt><trkpt lat="41.38260156495161" lon="13.978580508980786"><ele>158.0</ele><time>2026-04-12T09:05:05Z</time></trkpt><trkpt lat="41.382522835293834" lon="13.978461084258441"><ele>158.0</ele><time>2026-04-12T09:05:06Z</time></trkpt><trkpt lat="41.38244726231459" lon="13.978411445856066"><ele>158.0</ele><time>2026-04-12T09:05:07Z</time></trkpt><trkpt lat="41.382357702983526" lon="13.978415464614669"><ele>158.0</ele><time>2026-04-12T09:05:09Z</time></trkpt><trkpt lat="41.38231564167348" lon="13.978316063421527"><ele>158.0</ele><time>2026-04-12T09:05:10Z</time></trkpt><trkpt lat="41.382164844355806" lon="13.978179699302673"><ele>158.0</ele><time>2026-04-12T09:05:11Z</time></trkpt><trkpt lat="41.38208466499687" lon="13.978151861534046"><ele>158.20000000000002</ele><time>2026-04-12T09:05:13Z</time></trkpt><trkpt lat="41.382010694610926" lon="13.978144873285641"><ele>158.4</ele><time>2026-04-12T09:05:14Z</time></trkpt><trkpt lat="41.38194790493921" lon="13.978201415938889"><ele>158.60000000000002</ele><time>2026-04-12T09:05:15Z</time></trkpt><trkpt lat="41.381811100323105" lon="13.978325493837225"><ele>158.8</ele><time>2026-04-12T09:05:16Z</time></trkpt><trkpt lat="41.38174451354164" lon="13.97839714722157"><ele>159.0</ele><time>2026-04-12T09:05:17Z</time></trkpt><trkpt lat="41.38164959219514" lon="13.978528662665736"><ele>159.0</ele><time>2026-04-12T09:05:18Z</time></trkpt><trkpt lat="41.38155913586213" lon="13.978656831208838"><ele>159.0</ele><time>2026-04-12T09:05:19Z</time></trkpt><trkpt lat="41.38146847345321" lon="13.978623459645123"><ele>159.0</ele><time>2026-04-12T09:05:21Z</time></trkpt><trkpt lat="41.381438903850444" lon="13.978721360346091"><ele>159.0</ele><time>2026-04-12T09:05:23Z</time></trkpt><trkpt lat="41.38136034260298" lon="13.978709340641805"><ele>159.0</ele><time>2026-04-12T09:05:25Z</time></trkpt><trkpt lat="41.38129631083733" lon="13.978764328866566"><ele>160.5</ele><time>2026-04-12T09:05:27Z</time></trkpt><trkpt lat="41.38119385153917" lon="13.978758683001637"><ele>162.0</ele><time>2026-04-12T09:05:29Z</time></trkpt><trkpt lat="41.381084207331284" lon="13.978797409487246"><ele>163.5</ele><time>2026-04-12T09:05:31Z</time></trkpt><trkpt lat="41.38099611532619" lon="13.978854660608658"><ele>165.0</ele><time>2026-04-12T09:05:34Z</time></trkpt><trkpt lat="41.38039174448397" lon="13.978863652629412"><ele>165.2</ele><time>2026-04-12T09:05:36Z</time></trkpt><trkpt lat="41.380324161103175" lon="13.978937747651013"><ele>165.4</ele><time>2026-04-12T09:05:38Z</time></trkpt><trkpt lat="41.380203942041106" lon="13.97898402017106"><ele>165.60000000000002</ele><time>2026-04-12T09:05:40Z</time></trkpt><trkpt lat="41.3801133709406" lon="13.979022978725151"><ele>165.8</ele><time>2026-04-12T09:05:41Z</time></trkpt><trkpt lat="41.380022451321025" lon="13.97912709288793"><ele>166.0</ele><time>2026-04-12T09:05:43Z</time></trkpt><trkpt lat="41.379976405846385" lon="13.979190612331116"><ele>166.0</ele><time>2026-04-12T09:05:44Z</time></trkpt><trkpt lat="41.37992870608626" lon="13.979248138183037"><ele>166.0</ele><time>2026-04-12T09:05:45Z</time></trkpt><trkpt lat="41.379869944392375" lon="13.979346399118892"><ele>166.0</ele><time>2026-04-12T09:05:47Z</time></trkpt><trkpt lat="41.37980798268847" lon="13.979378035270967"><ele>166.0</ele><time>2026-04-12T09:05:53Z</time></trkpt><trkpt lat="41.379726881975365" lon="13.979357329167366"><ele>166.0</ele><time>2026-04-12T09:05:56Z</time></trkpt><trkpt lat="41.37965429832009" lon="13.979376696606776"><ele>166.0</ele><time>2026-04-12T09:05:58Z</time></trkpt><trkpt lat="41.37959657986053" lon="13.979441732858286"><ele>166.0</ele><time>2026-04-12T09:06:00Z</time></trkpt><trkpt lat="41.379492729606284" lon="13.97951011798777"><ele>166.0</ele><time>2026-04-12T09:06:03Z</time></trkpt><trkpt lat="41.3794280537195" lon="13.979442125619382"><ele>166.0</ele><time>2026-04-12T09:06:05Z</time></trkpt><trkpt lat="41.37936561824341" lon="13.97937248150176"><ele>166.0</ele><time>2026-04-12T09:06:07Z</time></trkpt><trkpt lat="41.37927024541314" lon="13.979342063380031"><ele>166.0</ele><time>2026-04-12T09:06:09Z</time></trkpt><trkpt lat="41.37917235185861" lon="13.97935186449917"><ele>166.0</ele><time>2026-04-12T09:06:10Z</time></trkpt><trkpt lat="41.37897861019246" lon="13.979346541041878"><ele>166.0</ele><time>2026-04-12T09:06:11Z</time></trkpt><trkpt lat="41.37839386873393" lon="13.979215145983162"><ele>167.33333333333334</ele><time>2026-04-12T09:06:12Z</time></trkpt><trkpt lat="41.378135053316385" lon="13.979218308500473"><ele>168.66666666666666</ele><time>2026-04-12T09:06:13Z</time></trkpt><trkpt lat="41.37802808577258" lon="13.979244451073518"><ele>170.0</ele><time>2026-04-12T09:06:14Z</time></trkpt><trkpt lat="41.37793672768674" lon="13.979252691335686"><ele>170.33333333333331</ele><time>2026-04-12T09:06:15Z</time></trkpt><trkpt lat="41.37793261057875" lon="13.979346327309202"><ele>170.66666666666666</ele><time>2026-04-12T09:06:16Z</time></trkpt><trkpt lat="41.377871219198646" lon="13.979370969948281"><ele>171.0</ele><time>2026-04-12T09:06:19Z</time></trkpt><trkpt lat="41.37781353626155" lon="13.979317478851744"><ele>171.33333333333334</ele><time>2026-04-12T09:06:20Z</time></trkpt><trkpt lat="41.37774262721902" lon="13.979256993492893"><ele>171.66666666666669</ele><time>2026-04-12T09:06:21Z</time></trkpt><trkpt lat="41.37765877567474" lon="13.979209409619411"><ele>172.0</ele><time>2026-04-12T09:06:22Z</time></trkpt><trkpt lat="41.37746574824809" lon="13.979124681733321"><ele>172.0</ele><time>2026-04-12T09:06:23Z</time></trkpt><trkpt lat="41.37728769459905" lon="13.979007891175138"><ele>172.0</ele><time>2026-04-12T09:06:24Z</time></trkpt><trkpt lat="41.377182943599536" lon="13.978984809417856"><ele>172.0</ele><time>2026-04-12T09:06:25Z</time></trkpt><trkpt lat="41.37712701581917" lon="13.978877084013117"><ele>172.0</ele><time>2026-04-12T09:06:26Z</time></trkpt><trkpt lat="41.37706873608436" lon="13.978716277585328"><ele>172.39999999999998</ele><time>2026-04-12T09:06:27Z</time></trkpt><trkpt lat="41.37713393728234" lon="13.978703555932455"><ele>172.79999999999998</ele><time>2026-04-12T09:06:28Z</time></trkpt><trkpt lat="41.377108853885325" lon="13.978625872294286"><ele>173.2</ele><time>2026-04-12T09:06:29Z</time></trkpt><trkpt lat="41.37699544543118" lon="13.97873107490565"><ele>173.6</ele><time>2026-04-12T09:06:30Z</time></trkpt><trkpt lat="41.376908532660366" lon="13.978755883474665"><ele>174.0</ele><time>2026-04-12T09:06:31Z</time></trkpt><trkpt lat="41.37680251022326" lon="13.97875513499887"><ele>174.0</ele><time>2026-04-12T09:06:32Z</time></trkpt><trkpt lat="41.37673781366382" lon="13.97876845796711"><ele>174.0</ele><time>2026-04-12T09:06:34Z</time></trkpt><trkpt lat="41.37667226118775" lon="13.97879802149086"><ele>174.0</ele><time>2026-04-12T09:06:36Z</time></trkpt><trkpt lat="41.376780763737784" lon="13.978835215646235"><ele>174.0</ele><time>2026-04-12T09:06:39Z</time></trkpt><trkpt lat="41.37677402806827" lon="13.978946389962609"><ele>174.0</ele><time>2026-04-12T09:06:43Z</time></trkpt><trkpt lat="41.37670857282692" lon="13.978987272734452"><ele>174.0</ele><time>2026-04-12T09:06:46Z</time></trkpt><trkpt lat="41.37659021695189" lon="13.978923721368007"><ele>174.0</ele><time>2026-04-12T09:06:48Z</time></trkpt><trkpt lat="41.376518948374205" lon="13.978892769443949"><ele>174.0</ele><time>2026-04-12T09:06:50Z</time></trkpt><trkpt lat="41.376418545971816" lon="13.978891309672"><ele>174.0</ele><time>2026-04-12T09:06:53Z</time></trkpt><trkpt lat="41.37633554584315" lon="13.9788552912765"><ele>174.0</ele><time>2026-04-12T09:06:55Z</time></trkpt><trkpt lat="41.37627421265405" lon="13.978920085004216"><ele>174.0</ele><time>2026-04-12T09:06:57Z</time></trkpt><trkpt lat="41.37624453242398" lon="13.979049135663699"><ele>174.0</ele><time>2026-04-12T09:06:59Z</time></trkpt><trkpt lat="41.37616624084342" lon="13.979081494065367"><ele>177.79999999999998</ele><time>2026-04-12T09:07:02Z</time></trkpt><trkpt lat="41.37608405765349" lon="13.979046759875718"><ele>181.6</ele><time>2026-04-12T09:07:03Z</time></trkpt><trkpt lat="41.37599787676024" lon="13.979020945381862"><ele>185.4</ele><time>2026-04-12T09:07:04Z</time></trkpt><trkpt lat="41.37589795384437" lon="13.979008871834502"><ele>189.2</ele><time>2026-04-12T09:07:05Z</time></trkpt><trkpt lat="41.3757842899671" lon="13.979004225953036"><ele>193.0</ele><time>2026-04-12T09:07:06Z</time></trkpt><trkpt lat="41.37571176003113" lon="13.979025551913939"><ele>193.0</ele><time>2026-04-12T09:07:11Z</time></trkpt><trkpt lat="41.37566012560204" lon="13.979129133301848"><ele>193.0</ele><time>2026-04-12T09:07:15Z</time></trkpt><trkpt lat="41.37565317573356" lon="13.979215308224425"><ele>193.0</ele><time>2026-04-12T09:07:18Z</time></trkpt><trkpt lat="41.375689803848644" lon="13.979326040336357"><ele>193.0</ele><time>2026-04-12T09:07:19Z</time></trkpt><trkpt lat="41.37577571662449" lon="13.979416241622465"><ele>193.0</ele><time>2026-04-12T09:07:20Z</time></trkpt><trkpt lat="41.375832355398074" lon="13.979620978706413"><ele>195.4</ele><time>2026-04-12T09:07:21Z</time></trkpt><trkpt lat="41.37597440655044" lon="13.97960371976257"><ele>197.8</ele><time>2026-04-12T09:07:22Z</time></trkpt><trkpt lat="41.37604829895317" lon="13.979632344845141"><ele>200.2</ele><time>2026-04-12T09:07:23Z</time></trkpt><trkpt lat="41.37613839267189" lon="13.979675363537321"><ele>202.6</ele><time>2026-04-12T09:07:25Z</time></trkpt><trkpt lat="41.37617541181343" lon="13.979753988515288"><ele>205.0</ele><time>2026-04-12T09:07:27Z</time></trkpt><trkpt lat="41.376249332227694" lon="13.979872180570878"><ele>205.0</ele><time>2026-04-12T09:07:29Z</time></trkpt><trkpt lat="41.376317380000025" lon="13.979977027258222"><ele>205.0</ele><time>2026-04-12T09:07:31Z</time></trkpt><trkpt lat="41.37637432621146" lon="13.980100163042568"><ele>205.0</ele><time>2026-04-12T09:07:33Z</time></trkpt><trkpt lat="41.37639252679076" lon="13.9802280158095"><ele>205.0</ele><time>2026-04-12T09:07:35Z</time></trkpt><trkpt lat="41.376467699024914" lon="13.980236831834691"><ele>205.0</ele><time>2026-04-12T09:07:37Z</time></trkpt><trkpt lat="41.376670948102934" lon="13.980312751724268"><ele>203.5</ele><time>2026-04-12T09:07:39Z</time></trkpt><trkpt lat="41.3767703424869" lon="13.980378048452996"><ele>202.0</ele><time>2026-04-12T09:07:40Z</time></trkpt><trkpt lat="41.37688564138051" lon="13.98043487207832"><ele>200.5</ele><time>2026-04-12T09:07:41Z</time></trkpt><trkpt lat="41.37700860048374" lon="13.980464732830686"><ele>199.0</ele><time>2026-04-12T09:07:42Z</time></trkpt><trkpt lat="41.377124220416" lon="13.98048794215839"><ele>198.5</ele><time>2026-04-12T09:07:43Z</time></trkpt><trkpt lat="41.37725915283027" lon="13.980555460721462"><ele>198.0</ele><time>2026-04-12T09:07:45Z</time></trkpt><trkpt lat="41.37735341688598" lon="13.980619891593657"><ele>197.5</ele><time>2026-04-12T09:07:46Z</time></trkpt><trkpt lat="41.37726353877365" lon="13.980770030173437"><ele>197.0</ele><time>2026-04-12T09:07:54Z</time></trkpt><trkpt lat="41.3771898997885" lon="13.980780008391429"><ele>197.5</ele><time>2026-04-12T09:07:57Z</time></trkpt><trkpt lat="41.37710703358587" lon="13.980758900872589"><ele>198.0</ele><time>2026-04-12T09:07:59Z</time></trkpt><trkpt lat="41.37705553577617" lon="13.980704080971913"><ele>198.5</ele><time>2026-04-12T09:08:00Z</time></trkpt><trkpt lat="41.37698287850805" lon="13.980635653261285"><ele>199.0</ele><time>2026-04-12T09:08:03Z</time></trkpt><trkpt lat="41.37616632028482" lon="13.980425134317747"><ele>200.25</ele><time>2026-04-12T09:08:06Z</time></trkpt><trkpt lat="41.376023045363276" lon="13.980378012842298"><ele>201.5</ele><time>2026-04-12T09:08:07Z</time></trkpt><trkpt lat="41.37590377475386" lon="13.98034392558673"><ele>202.75</ele><time>2026-04-12T09:08:08Z</time></trkpt><trkpt lat="41.37581217265442" lon="13.980330689552014"><ele>204.0</ele><time>2026-04-12T09:08:09Z</time></trkpt><trkpt lat="41.37593371575456" lon="13.980239829267115"><ele>204.0</ele><time>2026-04-12T09:08:11Z</time></trkpt><trkpt lat="41.37589169486982" lon="13.98013635846971"><ele>204.0</ele><time>2026-04-12T09:08:12Z</time></trkpt><trkpt lat="41.375824125340806" lon="13.980017308425746"><ele>204.0</ele><time>2026-04-12T09:08:13Z</time></trkpt><trkpt lat="41.375747514630625" lon="13.979918274282422"><ele>204.0</ele><time>2026-04-12T09:08:14Z</time></trkpt><trkpt lat="41.3756752598684" lon="13.979842840805654"><ele>204.0</ele><time>2026-04-12T09:08:15Z</time></trkpt><trkpt lat="41.375583405509325" lon="13.97983390414394"><ele>207.0</ele><time>2026-04-12T09:08:16Z</time></trkpt><trkpt lat="41.37549454264843" lon="13.979822730135163"><ele>210.0</ele><time>2026-04-12T09:08:17Z</time></trkpt><trkpt lat="41.37537811691657" lon="13.979820985637511"><ele>212.99999999999997</ele><time>2026-04-12T09:08:18Z</time></trkpt><trkpt lat="41.37527080679501" lon="13.979790156485173"><ele>216.0</ele><time>2026-04-12T09:08:19Z</time></trkpt><trkpt lat="41.37518934376884" lon="13.97981137661884"><ele>219.0</ele><time>2026-04-12T09:08:20Z</time></trkpt><trkpt lat="41.375041090568665" lon="13.979895087765327"><ele>219.0</ele><time>2026-04-12T09:08:22Z</time></trkpt><trkpt lat="41.37495619063763" lon="13.979891321953492"><ele>219.0</ele><time>2026-04-12T09:08:23Z</time></trkpt><trkpt lat="41.37499953075756" lon="13.979989123081838"><ele>219.0</ele><time>2026-04-12T09:08:25Z</time></trkpt><trkpt lat="41.375092489683574" lon="13.980026933570102"><ele>219.0</ele><time>2026-04-12T09:08:27Z</time></trkpt><trkpt lat="41.375164879919936" lon="13.980086197411055"><ele>219.0</ele><time>2026-04-12T09:08:28Z</time></trkpt><trkpt lat="41.37522966775735" lon="13.980114267790787"><ele>219.0</ele><time>2026-04-12T09:08:29Z</time></trkpt><trkpt lat="41.37530128599492" lon="13.980133698769125"><ele>217.0</ele><time>2026-04-12T09:08:30Z</time></trkpt><trkpt lat="41.37541280824687" lon="13.98008500503227"><ele>214.99999999999997</ele><time>2026-04-12T09:08:31Z</time></trkpt><trkpt lat="41.3754977758453" lon="13.980120869731694"><ele>213.0</ele><time>2026-04-12T09:08:32Z</time></trkpt><trkpt lat="41.375569035461034" lon="13.980143688106546"><ele>211.0</ele><time>2026-04-12T09:08:33Z</time></trkpt><trkpt lat="41.37563588874042" lon="13.980180354178074"><ele>209.0</ele><time>2026-04-12T09:08:34Z</time></trkpt><trkpt lat="41.375732737633214" lon="13.980281956871314"><ele>208.0</ele><time>2026-04-12T09:08:36Z</time></trkpt><trkpt lat="41.375709187725846" lon="13.980424295605792"><ele>207.0</ele><time>2026-04-12T09:08:39Z</time></trkpt><trkpt lat="41.37568748471848" lon="13.980504284483954"><ele>206.0</ele><time>2026-04-12T09:08:40Z</time></trkpt><trkpt lat="41.37564490304065" lon="13.980646367248486"><ele>205.0</ele><time>2026-04-12T09:08:42Z</time></trkpt><trkpt lat="41.375698959512" lon="13.980699446215446"><ele>204.0</ele><time>2026-04-12T09:08:44Z</time></trkpt><trkpt lat="41.3758720628583" lon="13.980743335837241"><ele>204.0</ele><time>2026-04-12T09:08:48Z</time></trkpt><trkpt lat="41.37591417303113" lon="13.98081483490545"><ele>204.0</ele><time>2026-04-12T09:08:50Z</time></trkpt><trkpt lat="41.37598716734053" lon="13.980917290885001"><ele>204.0</ele><time>2026-04-12T09:08:51Z</time></trkpt><trkpt lat="41.376110301218205" lon="13.980963111125387"><ele>204.0</ele><time>2026-04-12T09:08:52Z</time></trkpt><trkpt lat="41.37620160678889" lon="13.980997737002886"><ele>204.0</ele><time>2026-04-12T09:08:53Z</time></trkpt><trkpt lat="41.376273402383724" lon="13.981017928421851"><ele>201.0</ele><time>2026-04-12T09:08:54Z</time></trkpt><trkpt lat="41.37640481866709" lon="13.981146132501497"><ele>198.0</ele><time>2026-04-12T09:08:55Z</time></trkpt><trkpt lat="41.37646093080774" lon="13.98128728330634"><ele>195.0</ele><time>2026-04-12T09:08:56Z</time></trkpt><trkpt lat="41.37654143952467" lon="13.981405568863607"><ele>192.0</ele><time>2026-04-12T09:08:57Z</time></trkpt><trkpt lat="41.37664925043717" lon="13.981552300037043"><ele>192.0</ele><time>2026-04-12T09:08:58Z</time></trkpt><trkpt lat="41.37681787774657" lon="13.981667917375445"><ele>192.0</ele><time>2026-04-12T09:08:59Z</time></trkpt><trkpt lat="41.376927249824355" lon="13.98174946082215"><ele>192.0</ele><time>2026-04-12T09:09:00Z</time></trkpt><trkpt lat="41.377017876512944" lon="13.981836593895064"><ele>192.0</ele><time>2026-04-12T09:09:01Z</time></trkpt><trkpt lat="41.37709268438118" lon="13.981935065615893"><ele>190.33333333333334</ele><time>2026-04-12T09:09:02Z</time></trkpt><trkpt lat="41.37717930975495" lon="13.982024933829686"><ele>188.66666666666666</ele><time>2026-04-12T09:09:03Z</time></trkpt><trkpt lat="41.37725351773683" lon="13.982105875130584"><ele>187.0</ele><time>2026-04-12T09:09:04Z</time></trkpt><trkpt lat="41.37732433944277" lon="13.98215689536715"><ele>185.33333333333331</ele><time>2026-04-12T09:09:05Z</time></trkpt><trkpt lat="41.377395424068915" lon="13.98218622653058"><ele>183.66666666666666</ele><time>2026-04-12T09:09:06Z</time></trkpt><trkpt lat="41.377452251816784" lon="13.982235181060048"><ele>182.0</ele><time>2026-04-12T09:09:07Z</time></trkpt><trkpt lat="41.37747803381125" lon="13.982408897942312"><ele>182.0</ele><time>2026-04-12T09:09:09Z</time></trkpt><trkpt lat="41.37750077331605" lon="13.98250577626238"><ele>182.0</ele><time>2026-04-12T09:09:10Z</time></trkpt><trkpt lat="41.37753607817635" lon="13.982588054587902"><ele>182.0</ele><time>2026-04-12T09:09:11Z</time></trkpt><trkpt lat="41.37758938815696" lon="13.982717561980909"><ele>182.0</ele><time>2026-04-12T09:09:13Z</time></trkpt><trkpt lat="41.37767227415292" lon="13.98281424225648"><ele>182.0</ele><time>2026-04-12T09:09:15Z</time></trkpt><trkpt lat="41.37772981544827" lon="13.982890368636676"><ele>182.0</ele><time>2026-04-12T09:09:16Z</time></trkpt><trkpt lat="41.37777531365231" lon="13.982951304482645"><ele>181.16666666666666</ele><time>2026-04-12T09:09:17Z</time></trkpt><trkpt lat="41.37784913599332" lon="13.983023894168646"><ele>180.33333333333331</ele><time>2026-04-12T09:09:19Z</time></trkpt><trkpt lat="41.37793901735116" lon="13.983041362237236"><ele>179.5</ele><time>2026-04-12T09:09:21Z</time></trkpt><trkpt lat="41.378002536070724" lon="13.983037039431492"><ele>178.66666666666666</ele><time>2026-04-12T09:09:25Z</time></trkpt><trkpt lat="41.378079815068595" lon="13.983071815758562"><ele>177.83333333333334</ele><time>2026-04-12T09:09:26Z</time></trkpt><trkpt lat="41.37814579116111" lon="13.983087257470526"><ele>177.0</ele><time>2026-04-12T09:09:29Z</time></trkpt><trkpt lat="41.37820869576013" lon="13.983058821845862"><ele>177.0</ele><time>2026-04-12T09:09:31Z</time></trkpt><trkpt lat="41.37828334688921" lon="13.98306792197191"><ele>177.0</ele><time>2026-04-12T09:09:33Z</time></trkpt><trkpt lat="41.378388702145045" lon="13.983128667734256"><ele>177.0</ele><time>2026-04-12T09:09:36Z</time></trkpt><trkpt lat="41.37850495559842" lon="13.983201811803289"><ele>177.0</ele><time>2026-04-12T09:09:37Z</time></trkpt><trkpt lat="41.37861271732095" lon="13.983282435815955"><ele>177.0</ele><time>2026-04-12T09:09:38Z</time></trkpt><trkpt lat="41.37872385275875" lon="13.983311830127167"><ele>177.0</ele><time>2026-04-12T09:09:39Z</time></trkpt><trkpt lat="41.37881834345232" lon="13.983344637026358"><ele>177.0</ele><time>2026-04-12T09:09:40Z</time></trkpt><trkpt lat="41.37893693412715" lon="13.983416155341555"><ele>177.0</ele><time>2026-04-12T09:09:41Z</time></trkpt><trkpt lat="41.37903891790738" lon="13.983460525904006"><ele>177.0</ele><time>2026-04-12T09:09:42Z</time></trkpt><trkpt lat="41.37918667051916" lon="13.983513300458554"><ele>181.5</ele><time>2026-04-12T09:09:43Z</time></trkpt><trkpt lat="41.37933463066501" lon="13.983529175870778"><ele>186.0</ele><time>2026-04-12T09:09:44Z</time></trkpt><trkpt lat="41.37948852332725" lon="13.98350198033095"><ele>190.5</ele><time>2026-04-12T09:09:45Z</time></trkpt><trkpt lat="41.37959259029256" lon="13.983477641821871"><ele>195.0</ele><time>2026-04-12T09:09:46Z</time></trkpt><trkpt lat="41.379657075545175" lon="13.983453182108688"><ele>194.4</ele><time>2026-04-12T09:09:47Z</time></trkpt><trkpt lat="41.379705746167545" lon="13.983379400801677"><ele>193.8</ele><time>2026-04-12T09:09:48Z</time></trkpt><trkpt lat="41.37987077187134" lon="13.983383216681752"><ele>193.2</ele><time>2026-04-12T09:09:51Z</time></trkpt><trkpt lat="41.37996879085951" lon="13.983415536710307"><ele>192.6</ele><time>2026-04-12T09:09:53Z</time></trkpt><trkpt lat="41.38005208296674" lon="13.983446565499438"><ele>192.0</ele><time>2026-04-12T09:09:55Z</time></trkpt><trkpt lat="41.38013124337448" lon="13.983505033199561"><ele>192.0</ele><time>2026-04-12T09:09:57Z</time></trkpt><trkpt lat="41.380223412139415" lon="13.983557094915387"><ele>192.0</ele><time>2026-04-12T09:09:59Z</time></trkpt><trkpt lat="41.38030757293366" lon="13.98357871778997"><ele>192.0</ele><time>2026-04-12T09:10:01Z</time></trkpt><trkpt lat="41.38037694325442" lon="13.983560979055506"><ele>192.0</ele><time>2026-04-12T09:10:03Z</time></trkpt><trkpt lat="41.3804522531781" lon="13.983634189523201"><ele>192.0</ele><time>2026-04-12T09:10:05Z</time></trkpt><trkpt lat="41.38051573528129" lon="13.983701795708141"><ele>192.0</ele><time>2026-04-12T09:10:06Z</time></trkpt><trkpt lat="41.380572742805555" lon="13.983777515419524"><ele>191.33333333333334</ele><time>2026-04-12T09:10:07Z</time></trkpt><trkpt lat="41.38063407141322" lon="13.983865971477467"><ele>190.66666666666666</ele><time>2026-04-12T09:10:08Z</time></trkpt><trkpt lat="41.38071016909526" lon="13.983970388343064"><ele>190.0</ele><time>2026-04-12T09:10:09Z</time></trkpt><trkpt lat="41.38078606572906" lon="13.984022001060035"><ele>189.33333333333331</ele><time>2026-04-12T09:10:10Z</time></trkpt><trkpt lat="41.380864840541776" lon="13.984056219948732"><ele>188.66666666666666</ele><time>2026-04-12T09:10:11Z</time></trkpt><trkpt lat="41.38093212868204" lon="13.98411047310575"><ele>188.0</ele><time>2026-04-12T09:10:12Z</time></trkpt><trkpt lat="41.38100353417352" lon="13.984181691506947"><ele>191.4</ele><time>2026-04-12T09:10:13Z</time></trkpt><trkpt lat="41.381064720259864" lon="13.984258718352784"><ele>194.8</ele><time>2026-04-12T09:10:14Z</time></trkpt><trkpt lat="41.38113438344059" lon="13.98433679026272"><ele>198.2</ele><time>2026-04-12T09:10:15Z</time></trkpt><trkpt lat="41.38118515202664" lon="13.984417738132453"><ele>201.6</ele><time>2026-04-12T09:10:16Z</time></trkpt><trkpt lat="41.38123929774821" lon="13.984502832043242"><ele>205.0</ele><time>2026-04-12T09:10:17Z</time></trkpt><trkpt lat="41.381324060328616" lon="13.984613211649265"><ele>203.0</ele><time>2026-04-12T09:10:19Z</time></trkpt><trkpt lat="41.381412205561396" lon="13.984735848739689"><ele>201.0</ele><time>2026-04-12T09:10:20Z</time></trkpt><trkpt lat="41.381480132095874" lon="13.984769785670908"><ele>199.0</ele><time>2026-04-12T09:10:21Z</time></trkpt><trkpt lat="41.381547361221784" lon="13.984804137673347"><ele>197.0</ele><time>2026-04-12T09:10:22Z</time></trkpt><trkpt lat="41.3816444162162" lon="13.984850245763457"><ele>195.0</ele><time>2026-04-12T09:10:24Z</time></trkpt><trkpt lat="41.38172602879912" lon="13.984953259772636"><ele>195.0</ele><time>2026-04-12T09:10:26Z</time></trkpt><trkpt lat="41.38178742374535" lon="13.98497617111011"><ele>195.0</ele><time>2026-04-12T09:10:27Z</time></trkpt><trkpt lat="41.381857675332164" lon="13.984987070193231"><ele>195.0</ele><time>2026-04-12T09:10:29Z</time></trkpt><trkpt lat="41.381918915144965" lon="13.985040903405759"><ele>195.0</ele><time>2026-04-12T09:10:31Z</time></trkpt><trkpt lat="41.38197772867335" lon="13.985090307839014"><ele>195.0</ele><time>2026-04-12T09:10:34Z</time></trkpt><trkpt lat="41.382076673642075" lon="13.985149001160599"><ele>195.0</ele><time>2026-04-12T09:10:35Z</time></trkpt><trkpt lat="41.38218644034147" lon="13.985283723573865"><ele>196.0</ele><time>2026-04-12T09:10:36Z</time></trkpt><trkpt lat="41.382257025598626" lon="13.985373417759776"><ele>197.0</ele><time>2026-04-12T09:10:37Z</time></trkpt><trkpt lat="41.38232238440334" lon="13.985430102665799"><ele>198.0</ele><time>2026-04-12T09:10:38Z</time></trkpt><trkpt lat="41.38237153257112" lon="13.985486458790854"><ele>199.0</ele><time>2026-04-12T09:10:39Z</time></trkpt><trkpt lat="41.38245388427898" lon="13.98552867233064"><ele>200.0</ele><time>2026-04-12T09:10:40Z</time></trkpt><trkpt lat="41.38252044290941" lon="13.985540384860212"><ele>201.0</ele><time>2026-04-12T09:10:41Z</time></trkpt><trkpt lat="41.38263637202233" lon="13.985560656701997"><ele>201.0</ele><time>2026-04-12T09:10:43Z</time></trkpt><trkpt lat="41.38269568956214" lon="13.985609631408991"><ele>201.0</ele><time>2026-04-12T09:10:44Z</time></trkpt><trkpt lat="41.38275070499615" lon="13.985669053156771"><ele>201.0</ele><time>2026-04-12T09:10:45Z</time></trkpt><trkpt lat="41.38283737366758" lon="13.98577675090208"><ele>201.0</ele><time>2026-04-12T09:10:47Z</time></trkpt><trkpt lat="41.382907846997476" lon="13.985911941432558"><ele>201.0</ele><time>2026-04-12T09:10:50Z</time></trkpt><trkpt lat="41.38300640831415" lon="13.985961517272283"><ele>200.83333333333334</ele><time>2026-04-12T09:10:53Z</time></trkpt><trkpt lat="41.38306650180116" lon="13.986005937905418"><ele>200.66666666666669</ele><time>2026-04-12T09:10:54Z</time></trkpt><trkpt lat="41.38315357303903" lon="13.986035059144319"><ele>200.5</ele><time>2026-04-12T09:10:55Z</time></trkpt><trkpt lat="41.38319957314421" lon="13.986102403333385"><ele>200.33333333333334</ele><time>2026-04-12T09:10:56Z</time></trkpt><trkpt lat="41.38326847754255" lon="13.98621202926157"><ele>200.16666666666669</ele><time>2026-04-12T09:10:57Z</time></trkpt><trkpt lat="41.38332088206926" lon="13.98631231286757"><ele>200.0</ele><time>2026-04-12T09:10:58Z</time></trkpt><trkpt lat="41.383385143659716" lon="13.986419561949038"><ele>200.0</ele><time>2026-04-12T09:10:59Z</time></trkpt><trkpt lat="41.383495625562766" lon="13.986565032673314"><ele>200.0</ele><time>2026-04-12T09:11:01Z</time></trkpt><trkpt lat="41.38356991963313" lon="13.986626599599262"><ele>200.0</ele><time>2026-04-12T09:11:02Z</time></trkpt><trkpt lat="41.38366436173187" lon="13.986691070969332"><ele>200.0</ele><time>2026-04-12T09:11:03Z</time></trkpt><trkpt lat="41.38373482066775" lon="13.986760786196438"><ele>200.0</ele><time>2026-04-12T09:11:04Z</time></trkpt><trkpt lat="41.383738862520254" lon="13.986849965398815"><ele>200.4</ele><time>2026-04-12T09:11:06Z</time></trkpt><trkpt lat="41.38359244250327" lon="13.986851356594105"><ele>200.8</ele><time>2026-04-12T09:11:09Z</time></trkpt><trkpt lat="41.383498854507394" lon="13.986845004913606"><ele>201.2</ele><time>2026-04-12T09:11:10Z</time></trkpt><trkpt lat="41.38340702046267" lon="13.986838471570557"><ele>201.6</ele><time>2026-04-12T09:11:11Z</time></trkpt><trkpt lat="41.38333131706399" lon="13.986839049115877"><ele>202.0</ele><time>2026-04-12T09:11:12Z</time></trkpt><trkpt lat="41.38325991417565" lon="13.98688395788668"><ele>201.99999999999997</ele><time>2026-04-12T09:11:14Z</time></trkpt><trkpt lat="41.38323931629722" lon="13.9870179776679"><ele>202.0</ele><time>2026-04-12T09:11:16Z</time></trkpt><trkpt lat="41.38325621331791" lon="13.987113049988094"><ele>202.0</ele><time>2026-04-12T09:11:17Z</time></trkpt><trkpt lat="41.38327212955216" lon="13.987214494814907"><ele>202.0</ele><time>2026-04-12T09:11:18Z</time></trkpt><trkpt lat="41.383282422523166" lon="13.98732919417853"><ele>201.99999999999997</ele><time>2026-04-12T09:11:19Z</time></trkpt><trkpt lat="41.383272852614866" lon="13.987460188588678"><ele>202.0</ele><time>2026-04-12T09:11:20Z</time></trkpt><trkpt lat="41.38329722025928" lon="13.987562041842931"><ele>201.2</ele><time>2026-04-12T09:11:21Z</time></trkpt><trkpt lat="41.38329252954285" lon="13.987676595275177"><ele>200.39999999999998</ele><time>2026-04-12T09:11:22Z</time></trkpt><trkpt lat="41.383306801445606" lon="13.987825742975584"><ele>199.60000000000002</ele><time>2026-04-12T09:11:24Z</time></trkpt><trkpt lat="41.38331954593782" lon="13.987919762523825"><ele>198.8</ele><time>2026-04-12T09:11:26Z</time></trkpt><trkpt lat="41.38334913417506" lon="13.98809841530863"><ele>198.0</ele><time>2026-04-12T09:11:28Z</time></trkpt><trkpt lat="41.38337199430407" lon="13.988236443839776"><ele>196.2</ele><time>2026-04-12T09:11:30Z</time></trkpt><trkpt lat="41.38327394506448" lon="13.98838535025857"><ele>194.4</ele><time>2026-04-12T09:11:31Z</time></trkpt><trkpt lat="41.383239634574636" lon="13.988491672733884"><ele>192.6</ele><time>2026-04-12T09:11:32Z</time></trkpt><trkpt lat="41.38319253577725" lon="13.988632947451572"><ele>190.79999999999998</ele><time>2026-04-12T09:11:33Z</time></trkpt><trkpt lat="41.383147824092276" lon="13.98872119231635"><ele>189.0</ele><time>2026-04-12T09:11:34Z</time></trkpt><trkpt lat="41.3830492961422" lon="13.988847897976415"><ele>188.79999999999998</ele><time>2026-04-12T09:11:35Z</time></trkpt><trkpt lat="41.38299204773193" lon="13.988949364051155"><ele>188.6</ele><time>2026-04-12T09:11:36Z</time></trkpt><trkpt lat="41.382939952859" lon="13.989052103517343"><ele>188.4</ele><time>2026-04-12T09:11:37Z</time></trkpt><trkpt lat="41.38290276053616" lon="13.989140100201462"><ele>188.2</ele><time>2026-04-12T09:11:38Z</time></trkpt><trkpt lat="41.382884461073054" lon="13.989288856990582"><ele>188.0</ele><time>2026-04-12T09:11:40Z</time></trkpt><trkpt lat="41.38289948029875" lon="13.989389490999184"><ele>187.83333333333331</ele><time>2026-04-12T09:11:41Z</time></trkpt><trkpt lat="41.3828978593498" lon="13.989513884465058"><ele>187.66666666666666</ele><time>2026-04-12T09:11:42Z</time></trkpt><trkpt lat="41.382888959505586" lon="13.989646033725215"><ele>187.5</ele><time>2026-04-12T09:11:43Z</time></trkpt><trkpt lat="41.38288754247764" lon="13.989749288108484"><ele>187.33333333333334</ele><time>2026-04-12T09:11:44Z</time></trkpt><trkpt lat="41.38290629365234" lon="13.989830927116971"><ele>187.16666666666669</ele><time>2026-04-12T09:11:45Z</time></trkpt><trkpt lat="41.38293702015686" lon="13.989910288617407"><ele>187.0</ele><time>2026-04-12T09:11:46Z</time></trkpt><trkpt lat="41.383023489566405" lon="13.990001616735775"><ele>191.66666666666669</ele><time>2026-04-12T09:11:48Z</time></trkpt><trkpt lat="41.383180827859306" lon="13.9901027826818"><ele>196.33333333333334</ele><time>2026-04-12T09:11:50Z</time></trkpt><trkpt lat="41.383284286664896" lon="13.990249307111586"><ele>201.0</ele><time>2026-04-12T09:11:51Z</time></trkpt><trkpt lat="41.383403351920585" lon="13.990360818933176"><ele>201.0</ele><time>2026-04-12T09:11:52Z</time></trkpt><trkpt lat="41.383477344381674" lon="13.990484099084398"><ele>201.0</ele><time>2026-04-12T09:11:53Z</time></trkpt><trkpt lat="41.38353756519734" lon="13.990563896008451"><ele>201.0</ele><time>2026-04-12T09:11:54Z</time></trkpt><trkpt lat="41.38359853060554" lon="13.990703337841126"><ele>201.0</ele><time>2026-04-12T09:11:55Z</time></trkpt><trkpt lat="41.383633588304015" lon="13.990846808379246"><ele>201.0</ele><time>2026-04-12T09:11:56Z</time></trkpt><trkpt lat="41.38363501298254" lon="13.990978654556315"><ele>203.25</ele><time>2026-04-12T09:11:57Z</time></trkpt><trkpt lat="41.38365229235701" lon="13.991176546062327"><ele>205.5</ele><time>2026-04-12T09:11:58Z</time></trkpt><trkpt lat="41.383667437013756" lon="13.99132033124798"><ele>207.75</ele><time>2026-04-12T09:11:59Z</time></trkpt><trkpt lat="41.38368388618719" lon="13.991467233344364"><ele>210.0</ele><time>2026-04-12T09:12:00Z</time></trkpt><trkpt lat="41.383700323764124" lon="13.99162394527986"><ele>209.6</ele><time>2026-04-12T09:12:01Z</time></trkpt><trkpt lat="41.38374456554698" lon="13.991737064774837"><ele>209.2</ele><time>2026-04-12T09:12:02Z</time></trkpt><trkpt lat="41.38375416895197" lon="13.991856230313413"><ele>208.8</ele><time>2026-04-12T09:12:03Z</time></trkpt><trkpt lat="41.38376494367785" lon="13.992018749961787"><ele>208.4</ele><time>2026-04-12T09:12:05Z</time></trkpt><trkpt lat="41.38373597902669" lon="13.992115309362777"><ele>208.0</ele><time>2026-04-12T09:12:06Z</time></trkpt><trkpt lat="41.38370839187588" lon="13.992205711964788"><ele>208.0</ele><time>2026-04-12T09:12:07Z</time></trkpt><trkpt lat="41.38361739110931" lon="13.992295342490536"><ele>208.0</ele><time>2026-04-12T09:12:08Z</time></trkpt><trkpt lat="41.38354455831189" lon="13.992393335140155"><ele>208.0</ele><time>2026-04-12T09:12:09Z</time></trkpt><trkpt lat="41.38349909885094" lon="13.992489646905861"><ele>208.0</ele><time>2026-04-12T09:12:10Z</time></trkpt><trkpt lat="41.38344453678064" lon="13.992573326412627"><ele>208.0</ele><time>2026-04-12T09:12:11Z</time></trkpt><trkpt lat="41.38337385952085" lon="13.992643528204177"><ele>208.60000000000002</ele><time>2026-04-12T09:12:12Z</time></trkpt><trkpt lat="41.38344031017903" lon="13.992753147923604"><ele>209.20000000000002</ele><time>2026-04-12T09:12:15Z</time></trkpt><trkpt lat="41.38350783084482" lon="13.992768347808223"><ele>209.8</ele><time>2026-04-12T09:12:16Z</time></trkpt><trkpt lat="41.38360673805289" lon="13.992829630301742"><ele>210.4</ele><time>2026-04-12T09:12:17Z</time></trkpt><trkpt lat="41.38368252010692" lon="13.992920701117614"><ele>211.0</ele><time>2026-04-12T09:12:18Z</time></trkpt><trkpt lat="41.38375810166173" lon="13.993013173035305"><ele>211.0</ele><time>2026-04-12T09:12:19Z</time></trkpt><trkpt lat="41.383817388033606" lon="13.993102085644429"><ele>211.0</ele><time>2026-04-12T09:12:20Z</time></trkpt><trkpt lat="41.38386649854214" lon="13.993227726813501"><ele>211.0</ele><time>2026-04-12T09:12:21Z</time></trkpt><trkpt lat="41.38390401774146" lon="13.993348434753187"><ele>211.0</ele><time>2026-04-12T09:12:22Z</time></trkpt><trkpt lat="41.383942302744614" lon="13.993470249363694"><ele>211.0</ele><time>2026-04-12T09:12:23Z</time></trkpt><trkpt lat="41.383967071516956" lon="13.993607496639367"><ele>207.20000000000002</ele><time>2026-04-12T09:12:24Z</time></trkpt><trkpt lat="41.38398324130192" lon="13.993768134214209"><ele>203.4</ele><time>2026-04-12T09:12:25Z</time></trkpt><trkpt lat="41.38398551074521" lon="13.993871444436639"><ele>199.6</ele><time>2026-04-12T09:12:26Z</time></trkpt><trkpt lat="41.38397641872611" lon="13.993965817692414"><ele>195.8</ele><time>2026-04-12T09:12:27Z</time></trkpt><trkpt lat="41.38394057086693" lon="13.994098817369872"><ele>192.0</ele><time>2026-04-12T09:12:28Z</time></trkpt><trkpt lat="41.38388141163963" lon="13.994229594624903"><ele>196.0</ele><time>2026-04-12T09:12:29Z</time></trkpt><trkpt lat="41.38381916140378" lon="13.994357561115253"><ele>200.0</ele><time>2026-04-12T09:12:30Z</time></trkpt><trkpt lat="41.38376062152241" lon="13.994457719072072"><ele>204.0</ele><time>2026-04-12T09:12:31Z</time></trkpt><trkpt lat="41.38371272857432" lon="13.994546154354499"><ele>208.0</ele><time>2026-04-12T09:12:32Z</time></trkpt><trkpt lat="41.38368076215952" lon="13.994625585515625"><ele>212.0</ele><time>2026-04-12T09:12:33Z</time></trkpt><trkpt lat="41.38359547238689" lon="13.994666810098762"><ele>212.00000000000003</ele><time>2026-04-12T09:12:34Z</time></trkpt><trkpt lat="41.38349056926637" lon="13.994687530412854"><ele>212.0</ele><time>2026-04-12T09:12:35Z</time></trkpt><trkpt lat="41.3834178253545" lon="13.994709949850456"><ele>212.0</ele><time>2026-04-12T09:12:36Z</time></trkpt><trkpt lat="41.38335529561585" lon="13.99476154490172"><ele>212.0</ele><time>2026-04-12T09:12:38Z</time></trkpt><trkpt lat="41.38328944190519" lon="13.994767162086516"><ele>212.00000000000003</ele><time>2026-04-12T09:13:19Z</time></trkpt><trkpt lat="41.383197227387804" lon="13.994803879696846"><ele>212.0</ele><time>2026-04-12T09:13:21Z</time></trkpt><trkpt lat="41.383123901208634" lon="13.994820615166969"><ele>212.0</ele><time>2026-04-12T09:13:22Z</time></trkpt><trkpt lat="41.38301802939242" lon="13.99482394591116"><ele>212.0</ele><time>2026-04-12T09:13:24Z</time></trkpt><trkpt lat="41.382943277513974" lon="13.99482175165455"><ele>212.0</ele><time>2026-04-12T09:13:25Z</time></trkpt><trkpt lat="41.38281069805051" lon="13.994813359361684"><ele>212.0</ele><time>2026-04-12T09:13:26Z</time></trkpt><trkpt lat="41.382674825302935" lon="13.994799648415052"><ele>213.75</ele><time>2026-04-12T09:13:27Z</time></trkpt><trkpt lat="41.38255287337508" lon="13.994788675463905"><ele>215.5</ele><time>2026-04-12T09:13:28Z</time></trkpt><trkpt lat="41.382393733081265" lon="13.994778485151402"><ele>217.25</ele><time>2026-04-12T09:13:29Z</time></trkpt><trkpt lat="41.382245950710555" lon="13.994792426084668"><ele>219.0</ele><time>2026-04-12T09:13:30Z</time></trkpt><trkpt lat="41.38211108848774" lon="13.99479041828693"><ele>219.75</ele><time>2026-04-12T09:13:31Z</time></trkpt><trkpt lat="41.381995767203406" lon="13.994766918980831"><ele>220.5</ele><time>2026-04-12T09:13:32Z</time></trkpt><trkpt lat="41.381897797872966" lon="13.994697782560708"><ele>221.25</ele><time>2026-04-12T09:13:33Z</time></trkpt><trkpt lat="41.38180499354551" lon="13.994609315255659"><ele>222.0</ele><time>2026-04-12T09:13:34Z</time></trkpt><trkpt lat="41.3817033022367" lon="13.99452737933765"><ele>222.0</ele><time>2026-04-12T09:13:35Z</time></trkpt><trkpt lat="41.38159003934193" lon="13.994460992487948"><ele>222.0</ele><time>2026-04-12T09:13:36Z</time></trkpt><trkpt lat="41.381473831833816" lon="13.994406836923984"><ele>222.0</ele><time>2026-04-12T09:13:37Z</time></trkpt><trkpt lat="41.38136964642766" lon="13.99436250197001"><ele>222.0</ele><time>2026-04-12T09:13:38Z</time></trkpt><trkpt lat="41.3812760079352" lon="13.994329573747438"><ele>223.2</ele><time>2026-04-12T09:13:39Z</time></trkpt><trkpt lat="41.38119175094416" lon="13.994308424216339"><ele>224.39999999999998</ele><time>2026-04-12T09:13:40Z</time></trkpt><trkpt lat="41.38109522870978" lon="13.994343075329507"><ele>225.60000000000002</ele><time>2026-04-12T09:13:41Z</time></trkpt><trkpt lat="41.38098753528742" lon="13.994435550382091"><ele>226.8</ele><time>2026-04-12T09:13:42Z</time></trkpt><trkpt lat="41.380878927261584" lon="13.994516554269913"><ele>228.0</ele><time>2026-04-12T09:13:43Z</time></trkpt><trkpt lat="41.38077513307487" lon="13.994594556257686"><ele>228.0</ele><time>2026-04-12T09:13:44Z</time></trkpt><trkpt lat="41.38066413338168" lon="13.994659807890006"><ele>228.0</ele><time>2026-04-12T09:13:45Z</time></trkpt><trkpt lat="41.38056060071434" lon="13.994690748306128"><ele>228.0</ele><time>2026-04-12T09:13:46Z</time></trkpt><trkpt lat="41.380471342888555" lon="13.994720080300358"><ele>228.0</ele><time>2026-04-12T09:13:47Z</time></trkpt><trkpt lat="41.380367227169984" lon="13.99474834483925"><ele>228.0</ele><time>2026-04-12T09:13:48Z</time></trkpt><trkpt lat="41.38024994353586" lon="13.994791681951437"><ele>228.60000000000002</ele><time>2026-04-12T09:13:49Z</time></trkpt><trkpt lat="41.3801528217928" lon="13.994815841905421"><ele>229.20000000000002</ele><time>2026-04-12T09:13:50Z</time></trkpt><trkpt lat="41.38004451349163" lon="13.994829260543655"><ele>229.8</ele><time>2026-04-12T09:13:51Z</time></trkpt><trkpt lat="41.379948985136124" lon="13.994826178607676"><ele>230.4</ele><time>2026-04-12T09:13:52Z</time></trkpt><trkpt lat="41.379838405653786" lon="13.994832863815025"><ele>231.0</ele><time>2026-04-12T09:13:53Z</time></trkpt><trkpt lat="41.37973530586286" lon="13.994830951025587"><ele>231.66666666666666</ele><time>2026-04-12T09:13:54Z</time></trkpt><trkpt lat="41.379623215086305" lon="13.99484710540109"><ele>232.33333333333331</ele><time>2026-04-12T09:13:55Z</time></trkpt><trkpt lat="41.37951456131065" lon="13.994857651251648"><ele>233.0</ele><time>2026-04-12T09:13:56Z</time></trkpt><trkpt lat="41.37943540683951" lon="13.994873112343827"><ele>233.66666666666666</ele><time>2026-04-12T09:13:57Z</time></trkpt><trkpt lat="41.37936937461313" lon="13.994884331150635"><ele>234.33333333333331</ele><time>2026-04-12T09:13:58Z</time></trkpt><trkpt lat="41.379296528954974" lon="13.994907798792205"><ele>235.0</ele><time>2026-04-12T09:14:00Z</time></trkpt><trkpt lat="41.37931259342343" lon="13.995139133061398"><ele>235.0</ele><time>2026-04-12T09:14:03Z</time></trkpt><trkpt lat="41.379355379217564" lon="13.99522241153585"><ele>235.0</ele><time>2026-04-12T09:14:04Z</time></trkpt><trkpt lat="41.37941717900246" lon="13.995333380006722"><ele>235.0</ele><time>2026-04-12T09:14:05Z</time></trkpt><trkpt lat="41.37948164835557" lon="13.995480808066256"><ele>235.0</ele><time>2026-04-12T09:14:06Z</time></trkpt><trkpt lat="41.37953034744758" lon="13.995617244108661"><ele>235.0</ele><time>2026-04-12T09:14:07Z</time></trkpt><trkpt lat="41.37957586632711" lon="13.995754514815609"><ele>234.2</ele><time>2026-04-12T09:14:08Z</time></trkpt><trkpt lat="41.37961944963027" lon="13.995875939099257"><ele>233.4</ele><time>2026-04-12T09:14:09Z</time></trkpt><trkpt lat="41.37966278042212" lon="13.995982556786306"><ele>232.60000000000002</ele><time>2026-04-12T09:14:10Z</time></trkpt><trkpt lat="41.379746912004386" lon="13.996096185221585"><ele>231.8</ele><time>2026-04-12T09:14:11Z</time></trkpt><trkpt lat="41.37984422318265" lon="13.996201466037506"><ele>231.0</ele><time>2026-04-12T09:14:12Z</time></trkpt><trkpt lat="41.379946495958706" lon="13.996298365918916"><ele>229.75</ele><time>2026-04-12T09:14:13Z</time></trkpt><trkpt lat="41.38005227320759" lon="13.996403053874982"><ele>228.5</ele><time>2026-04-12T09:14:14Z</time></trkpt><trkpt lat="41.380148986045135" lon="13.996509229670535"><ele>227.25</ele><time>2026-04-12T09:14:15Z</time></trkpt><trkpt lat="41.380230762330974" lon="13.996626904857258"><ele>226.0</ele><time>2026-04-12T09:14:16Z</time></trkpt><trkpt lat="41.380312427882835" lon="13.99675143229814"><ele>225.5</ele><time>2026-04-12T09:14:17Z</time></trkpt><trkpt lat="41.38041390778676" lon="13.996866981922715"><ele>225.0</ele><time>2026-04-12T09:14:18Z</time></trkpt><trkpt lat="41.38048808756682" lon="13.99697581346533"><ele>224.5</ele><time>2026-04-12T09:14:19Z</time></trkpt><trkpt lat="41.38057236887722" lon="13.997062899686709"><ele>224.0</ele><time>2026-04-12T09:14:20Z</time></trkpt><trkpt lat="41.38066154732595" lon="13.997182610075305"><ele>223.25</ele><time>2026-04-12T09:14:21Z</time></trkpt><trkpt lat="41.38076830244739" lon="13.997288109242557"><ele>222.5</ele><time>2026-04-12T09:14:22Z</time></trkpt><trkpt lat="41.38086229401435" lon="13.997377226462753"><ele>221.75</ele><time>2026-04-12T09:14:23Z</time></trkpt><trkpt lat="41.38095771019471" lon="13.997464016698705"><ele>221.0</ele><time>2026-04-12T09:14:24Z</time></trkpt><trkpt lat="41.38105703242512" lon="13.997543922495682"><ele>220.0</ele><time>2026-04-12T09:14:25Z</time></trkpt><trkpt lat="41.3811595884686" lon="13.99762277484699"><ele>219.0</ele><time>2026-04-12T09:14:26Z</time></trkpt><trkpt lat="41.381256060950186" lon="13.997696865717982"><ele>218.0</ele><time>2026-04-12T09:14:27Z</time></trkpt><trkpt lat="41.381361293659964" lon="13.997753129353915"><ele>217.0</ele><time>2026-04-12T09:14:28Z</time></trkpt><trkpt lat="41.38145872695191" lon="13.997835777361605"><ele>216.75</ele><time>2026-04-12T09:14:29Z</time></trkpt><trkpt lat="41.381562935646144" lon="13.997917807939366"><ele>216.5</ele><time>2026-04-12T09:14:30Z</time></trkpt><trkpt lat="41.381666844368006" lon="13.99799794629382"><ele>216.25</ele><time>2026-04-12T09:14:31Z</time></trkpt><trkpt lat="41.38177377445619" lon="13.998079194474055"><ele>216.0</ele><time>2026-04-12T09:14:32Z</time></trkpt><trkpt lat="41.38187527866538" lon="13.99816118711346"><ele>216.0</ele><time>2026-04-12T09:14:33Z</time></trkpt><trkpt lat="41.38198215412635" lon="13.998237915538034"><ele>216.0</ele><time>2026-04-12T09:14:34Z</time></trkpt><trkpt lat="41.3820803614845" lon="13.998306493585213"><ele>216.0</ele><time>2026-04-12T09:14:35Z</time></trkpt><trkpt lat="41.382165711944694" lon="13.998373607406952"><ele>216.0</ele><time>2026-04-12T09:14:36Z</time></trkpt><trkpt lat="41.38227287625781" lon="13.998462488690297"><ele>215.4</ele><time>2026-04-12T09:14:37Z</time></trkpt><trkpt lat="41.38237971456012" lon="13.998546202128276"><ele>214.8</ele><time>2026-04-12T09:14:38Z</time></trkpt><trkpt lat="41.38247421730889" lon="13.998630556127363"><ele>214.20000000000002</ele><time>2026-04-12T09:14:39Z</time></trkpt><trkpt lat="41.382551185422635" lon="13.998715123098764"><ele>213.60000000000002</ele><time>2026-04-12T09:14:40Z</time></trkpt><trkpt lat="41.38261756365271" lon="13.998787508576424"><ele>213.0</ele><time>2026-04-12T09:14:41Z</time></trkpt><trkpt lat="41.38267190495857" lon="13.998861452735571"><ele>213.0</ele><time>2026-04-12T09:14:42Z</time></trkpt><trkpt lat="41.38271184343143" lon="13.99894934837618"><ele>213.0</ele><time>2026-04-12T09:14:43Z</time></trkpt><trkpt lat="41.382722978742564" lon="13.999035579938845"><ele>213.0</ele><time>2026-04-12T09:14:44Z</time></trkpt><trkpt lat="41.38268527852627" lon="13.999123330459355"><ele>213.0</ele><time>2026-04-12T09:14:45Z</time></trkpt><trkpt lat="41.3826125160046" lon="13.99922198160145"><ele>213.0</ele><time>2026-04-12T09:14:46Z</time></trkpt><trkpt lat="41.382560750375106" lon="13.999315523620467"><ele>213.0</ele><time>2026-04-12T09:14:47Z</time></trkpt><trkpt lat="41.38250855477568" lon="13.999418018418277"><ele>212.66666666666666</ele><time>2026-04-12T09:14:48Z</time></trkpt><trkpt lat="41.38245881408437" lon="13.999511703715521"><ele>212.33333333333331</ele><time>2026-04-12T09:14:49Z</time></trkpt><trkpt lat="41.38242372164038" lon="13.999595437151145"><ele>212.0</ele><time>2026-04-12T09:14:50Z</time></trkpt><trkpt lat="41.38241817565501" lon="13.999680801860993"><ele>211.66666666666666</ele><time>2026-04-12T09:14:51Z</time></trkpt><trkpt lat="41.38244570828025" lon="13.999781742713868"><ele>211.33333333333331</ele><time>2026-04-12T09:14:52Z</time></trkpt><trkpt lat="41.382513851092924" lon="13.999883765522164"><ele>211.0</ele><time>2026-04-12T09:14:53Z</time></trkpt><trkpt lat="41.38260401044962" lon="13.999975389992212"><ele>210.99999999999997</ele><time>2026-04-12T09:14:54Z</time></trkpt><trkpt lat="41.38267196755111" lon="14.000078507463174"><ele>211.0</ele><time>2026-04-12T09:14:55Z</time></trkpt><trkpt lat="41.38274528270207" lon="14.000134123880937"><ele>211.0</ele><time>2026-04-12T09:14:56Z</time></trkpt><trkpt lat="41.382797918980586" lon="14.00019772428272"><ele>211.0</ele><time>2026-04-12T09:14:57Z</time></trkpt><trkpt lat="41.382852900831985" lon="14.000253619952936"><ele>210.99999999999997</ele><time>2026-04-12T09:14:58Z</time></trkpt><trkpt lat="41.38293235235875" lon="14.000334162890796"><ele>211.0</ele><time>2026-04-12T09:15:00Z</time></trkpt><trkpt lat="41.38304512664016" lon="14.000242441440509"><ele>210.60000000000002</ele><time>2026-04-12T09:15:04Z</time></trkpt><trkpt lat="41.38308439135978" lon="14.000135077136001"><ele>210.2</ele><time>2026-04-12T09:15:05Z</time></trkpt><trkpt lat="41.383153683216506" lon="14.000028895144778"><ele>209.8</ele><time>2026-04-12T09:15:06Z</time></trkpt><trkpt lat="41.38324736447154" lon="13.999937180482764"><ele>209.39999999999998</ele><time>2026-04-12T09:15:07Z</time></trkpt><trkpt lat="41.38335153518789" lon="13.99983617110007"><ele>209.0</ele><time>2026-04-12T09:15:08Z</time></trkpt><trkpt lat="41.383462118381885" lon="13.999723532383626"><ele>209.0</ele><time>2026-04-12T09:15:09Z</time></trkpt><trkpt lat="41.38356401536982" lon="13.999592667580975"><ele>209.0</ele><time>2026-04-12T09:15:10Z</time></trkpt><trkpt lat="41.38365072276896" lon="13.99948034022351"><ele>209.0</ele><time>2026-04-12T09:15:11Z</time></trkpt><trkpt lat="41.38372707384451" lon="13.999376487383328"><ele>209.0</ele><time>2026-04-12T09:15:12Z</time></trkpt><trkpt lat="41.383800224123235" lon="13.999281756466944"><ele>208.25</ele><time>2026-04-12T09:15:13Z</time></trkpt><trkpt lat="41.38388625245382" lon="13.99918254838339"><ele>207.5</ele><time>2026-04-12T09:15:14Z</time></trkpt><trkpt lat="41.383981641667184" lon="13.99907753693042"><ele>206.75</ele><time>2026-04-12T09:15:15Z</time></trkpt><trkpt lat="41.38407133045606" lon="13.998955736148945"><ele>206.0</ele><time>2026-04-12T09:15:16Z</time></trkpt><trkpt lat="41.38415866525412" lon="13.9988159685313"><ele>206.0</ele><time>2026-04-12T09:15:17Z</time></trkpt><trkpt lat="41.38425059483401" lon="13.99870393168132"><ele>206.0</ele><time>2026-04-12T09:15:18Z</time></trkpt><trkpt lat="41.38433654097674" lon="13.998580659719774"><ele>206.0</ele><time>2026-04-12T09:15:19Z</time></trkpt><trkpt lat="41.38442248118018" lon="13.998461182988025"><ele>206.0</ele><time>2026-04-12T09:15:20Z</time></trkpt><trkpt lat="41.384508985058055" lon="13.998345342529385"><ele>206.25</ele><time>2026-04-12T09:15:21Z</time></trkpt><trkpt lat="41.38459320396772" lon="13.998239117988618"><ele>206.5</ele><time>2026-04-12T09:15:22Z</time></trkpt><trkpt lat="41.384677695945314" lon="13.998105118014806"><ele>206.75</ele><time>2026-04-12T09:15:23Z</time></trkpt><trkpt lat="41.38475785567517" lon="13.997969511420395"><ele>207.0</ele><time>2026-04-12T09:15:24Z</time></trkpt><trkpt lat="41.38484416375513" lon="13.997862061933766"><ele>206.5</ele><time>2026-04-12T09:15:25Z</time></trkpt><trkpt lat="41.38492111385801" lon="13.997772380908062"><ele>206.0</ele><time>2026-04-12T09:15:26Z</time></trkpt><trkpt lat="41.38497482861991" lon="13.99771631947917"><ele>205.5</ele><time>2026-04-12T09:15:27Z</time></trkpt><trkpt lat="41.38514482033641" lon="13.997827809729598"><ele>205.0</ele><time>2026-04-12T09:15:33Z</time></trkpt><trkpt lat="41.38521858195795" lon="13.997931470094052"><ele>205.0</ele><time>2026-04-12T09:15:34Z</time></trkpt><trkpt lat="41.38530304806655" lon="13.99803485175628"><ele>205.0</ele><time>2026-04-12T09:15:35Z</time></trkpt><trkpt lat="41.38539368394188" lon="13.998143993466455"><ele>205.0</ele><time>2026-04-12T09:15:36Z</time></trkpt><trkpt lat="41.38547940871181" lon="13.998253026527815"><ele>205.0</ele><time>2026-04-12T09:15:37Z</time></trkpt><trkpt lat="41.385577507280445" lon="13.998343342651266"><ele>204.83333333333331</ele><time>2026-04-12T09:15:38Z</time></trkpt><trkpt lat="41.38566805624348" lon="13.998416683661155"><ele>204.66666666666666</ele><time>2026-04-12T09:15:39Z</time></trkpt><trkpt lat="41.3857533384837" lon="13.998490921118732"><ele>204.5</ele><time>2026-04-12T09:15:40Z</time></trkpt><trkpt lat="41.38581672569907" lon="13.998565834564825"><ele>204.33333333333331</ele><time>2026-04-12T09:15:41Z</time></trkpt><trkpt lat="41.38584091840324" lon="13.99866101529727"><ele>204.16666666666666</ele><time>2026-04-12T09:15:42Z</time></trkpt><trkpt lat="41.385850341598086" lon="13.998748231039194"><ele>204.0</ele><time>2026-04-12T09:15:44Z</time></trkpt><trkpt lat="41.385920840878846" lon="13.998813631647632"><ele>204.0</ele><time>2026-04-12T09:15:46Z</time></trkpt><trkpt lat="41.38599465300304" lon="13.998871172053299"><ele>204.0</ele><time>2026-04-12T09:15:47Z</time></trkpt><trkpt lat="41.38608052313985" lon="13.998907804774335"><ele>204.0</ele><time>2026-04-12T09:15:48Z</time></trkpt><trkpt lat="41.38614889239101" lon="13.998887641513345"><ele>204.0</ele><time>2026-04-12T09:15:49Z</time></trkpt><trkpt lat="41.386208386352216" lon="13.998816602453202"><ele>204.0</ele><time>2026-04-12T09:15:50Z</time></trkpt><trkpt lat="41.386257457235914" lon="13.998716866070195"><ele>204.0</ele><time>2026-04-12T09:15:51Z</time></trkpt><trkpt lat="41.38633593464158" lon="13.99861035753518"><ele>204.0</ele><time>2026-04-12T09:15:52Z</time></trkpt><trkpt lat="41.386431453368395" lon="13.998535425412037"><ele>204.0</ele><time>2026-04-12T09:15:53Z</time></trkpt><trkpt lat="41.38655306656977" lon="13.99847268062972"><ele>204.0</ele><time>2026-04-12T09:15:54Z</time></trkpt><trkpt lat="41.38668574159189" lon="13.99843520374207"><ele>204.0</ele><time>2026-04-12T09:15:55Z</time></trkpt><trkpt lat="41.386828426140376" lon="13.998375678185203"><ele>204.0</ele><time>2026-04-12T09:15:56Z</time></trkpt><trkpt lat="41.38695259746313" lon="13.998274900885756"><ele>204.0</ele><time>2026-04-12T09:15:57Z</time></trkpt><trkpt lat="41.38707294896817" lon="13.998161200873685"><ele>204.0</ele><time>2026-04-12T09:15:58Z</time></trkpt><trkpt lat="41.38718339637691" lon="13.998057583600783"><ele>204.0</ele><time>2026-04-12T09:15:59Z</time></trkpt><trkpt lat="41.387276197448706" lon="13.997961310387389"><ele>203.79999999999998</ele><time>2026-04-12T09:16:00Z</time></trkpt><trkpt lat="41.38736440886258" lon="13.997886105659807"><ele>203.6</ele><time>2026-04-12T09:16:01Z</time></trkpt><trkpt lat="41.38743231969716" lon="13.9978050226877"><ele>203.4</ele><time>2026-04-12T09:16:02Z</time></trkpt><trkpt lat="41.38749659791766" lon="13.997705999792228"><ele>203.2</ele><time>2026-04-12T09:16:03Z</time></trkpt><trkpt lat="41.38753886617478" lon="13.997575055565617"><ele>203.0</ele><time>2026-04-12T09:16:04Z</time></trkpt><trkpt lat="41.387572689798176" lon="13.997410219331899"><ele>202.75</ele><time>2026-04-12T09:16:05Z</time></trkpt><trkpt lat="41.38760895364703" lon="13.997256187495045"><ele>202.5</ele><time>2026-04-12T09:16:06Z</time></trkpt><trkpt lat="41.38766408781977" lon="13.997126009768646"><ele>202.25</ele><time>2026-04-12T09:16:07Z</time></trkpt><trkpt lat="41.38774386253545" lon="13.997012029015563"><ele>202.0</ele><time>2026-04-12T09:16:08Z</time></trkpt><trkpt lat="41.387843119734754" lon="13.996920718215938"><ele>202.0</ele><time>2026-04-12T09:16:09Z</time></trkpt><trkpt lat="41.38795360949909" lon="13.996857676251047"><ele>202.0</ele><time>2026-04-12T09:16:10Z</time></trkpt><trkpt lat="41.38807550354229" lon="13.996810173549106"><ele>202.0</ele><time>2026-04-12T09:16:11Z</time></trkpt><trkpt lat="41.38819669290119" lon="13.996772340307533"><ele>202.0</ele><time>2026-04-12T09:16:12Z</time></trkpt><trkpt lat="41.388322328687735" lon="13.996719560150948"><ele>200.0</ele><time>2026-04-12T09:16:13Z</time></trkpt><trkpt lat="41.388451400429446" lon="13.996660433277071"><ele>198.0</ele><time>2026-04-12T09:16:14Z</time></trkpt><trkpt lat="41.388568415874985" lon="13.996605683553902"><ele>196.0</ele><time>2026-04-12T09:16:15Z</time></trkpt><trkpt lat="41.388668271844374" lon="13.99652027819344"><ele>194.0</ele><time>2026-04-12T09:16:16Z</time></trkpt><trkpt lat="41.38876159920656" lon="13.996413480769876"><ele>195.5</ele><time>2026-04-12T09:16:17Z</time></trkpt><trkpt lat="41.38885661341935" lon="13.996302594545936"><ele>197.0</ele><time>2026-04-12T09:16:18Z</time></trkpt><trkpt lat="41.388951495584436" lon="13.996186939420506"><ele>198.5</ele><time>2026-04-12T09:16:19Z</time></trkpt><trkpt lat="41.3890193611129" lon="13.996048136524015"><ele>200.0</ele><time>2026-04-12T09:16:20Z</time></trkpt><trkpt lat="41.38906502489026" lon="13.995887367913351"><ele>199.75</ele><time>2026-04-12T09:16:21Z</time></trkpt><trkpt lat="41.38910933713487" lon="13.995706961461389"><ele>199.5</ele><time>2026-04-12T09:16:22Z</time></trkpt><trkpt lat="41.38914994242639" lon="13.995529070711036"><ele>199.25</ele><time>2026-04-12T09:16:23Z</time></trkpt><trkpt lat="41.38919393093574" lon="13.995354911445032"><ele>199.0</ele><time>2026-04-12T09:16:24Z</time></trkpt><trkpt lat="41.38924499729667" lon="13.995198475659494"><ele>199.0</ele><time>2026-04-12T09:16:25Z</time></trkpt><trkpt lat="41.38930713132609" lon="13.995072604558121"><ele>199.0</ele><time>2026-04-12T09:16:26Z</time></trkpt><trkpt lat="41.38938631044316" lon="13.994965606090435"><ele>199.0</ele><time>2026-04-12T09:16:27Z</time></trkpt><trkpt lat="41.38946861547009" lon="13.994872410787544"><ele>199.0</ele><time>2026-04-12T09:16:28Z</time></trkpt><trkpt lat="41.389558316341756" lon="13.99477109358169"><ele>199.0</ele><time>2026-04-12T09:16:29Z</time></trkpt><trkpt lat="41.38964400157736" lon="13.994659000314627"><ele>199.0</ele><time>2026-04-12T09:16:30Z</time></trkpt><trkpt lat="41.389715871866045" lon="13.994528174733626"><ele>199.0</ele><time>2026-04-12T09:16:31Z</time></trkpt><trkpt lat="41.389758526652" lon="13.994370143380715"><ele>199.0</ele><time>2026-04-12T09:16:32Z</time></trkpt><trkpt lat="41.389800733273184" lon="13.99420489285736"><ele>200.5</ele><time>2026-04-12T09:16:33Z</time></trkpt><trkpt lat="41.3898581304932" lon="13.994056367984902"><ele>202.0</ele><time>2026-04-12T09:16:34Z</time></trkpt><trkpt lat="41.389923280210155" lon="13.993931581403404"><ele>203.5</ele><time>2026-04-12T09:16:35Z</time></trkpt><trkpt lat="41.389987208657175" lon="13.993815631634915"><ele>205.0</ele><time>2026-04-12T09:16:36Z</time></trkpt><trkpt lat="41.39003749082296" lon="13.993692064294967"><ele>205.0</ele><time>2026-04-12T09:16:37Z</time></trkpt><trkpt lat="41.39007372235236" lon="13.993544583219231"><ele>205.0</ele><time>2026-04-12T09:16:38Z</time></trkpt><trkpt lat="41.390104952039" lon="13.993372086652696"><ele>205.0</ele><time>2026-04-12T09:16:39Z</time></trkpt><trkpt lat="41.390131512733916" lon="13.993185521296066"><ele>205.0</ele><time>2026-04-12T09:16:40Z</time></trkpt><trkpt lat="41.39015461727451" lon="13.992998618397918"><ele>203.0</ele><time>2026-04-12T09:16:41Z</time></trkpt><trkpt lat="41.39017563465085" lon="13.992831243964082"><ele>201.0</ele><time>2026-04-12T09:16:42Z</time></trkpt><trkpt lat="41.39020120884804" lon="13.992672894350934"><ele>199.0</ele><time>2026-04-12T09:16:43Z</time></trkpt><trkpt lat="41.39022564299209" lon="13.992527378978316"><ele>197.0</ele><time>2026-04-12T09:16:44Z</time></trkpt><trkpt lat="41.39024446388772" lon="13.992385924724559"><ele>195.0</ele><time>2026-04-12T09:16:45Z</time></trkpt><trkpt lat="41.39025896582116" lon="13.992242971038214"><ele>193.0</ele><time>2026-04-12T09:16:46Z</time></trkpt><trkpt lat="41.390278140179305" lon="13.992093231436142"><ele>191.0</ele><time>2026-04-12T09:16:47Z</time></trkpt><trkpt lat="41.39029876626468" lon="13.991947590203171"><ele>189.0</ele><time>2026-04-12T09:16:48Z</time></trkpt><trkpt lat="41.39032997843295" lon="13.991821043843817"><ele>187.0</ele><time>2026-04-12T09:16:49Z</time></trkpt><trkpt lat="41.39039186636361" lon="13.991696033437886"><ele>184.75</ele><time>2026-04-12T09:16:50Z</time></trkpt><trkpt lat="41.39048147699291" lon="13.9915368400455"><ele>182.5</ele><time>2026-04-12T09:16:51Z</time></trkpt><trkpt lat="41.39056796618966" lon="13.991398621591097"><ele>180.25</ele><time>2026-04-12T09:16:52Z</time></trkpt><trkpt lat="41.39066086866409" lon="13.99127971828938"><ele>178.0</ele><time>2026-04-12T09:16:53Z</time></trkpt><trkpt lat="41.3907582364466" lon="13.991174689764813"><ele>177.60000000000002</ele><time>2026-04-12T09:16:54Z</time></trkpt><trkpt lat="41.39084938068309" lon="13.99109490111867"><ele>177.20000000000002</ele><time>2026-04-12T09:16:55Z</time></trkpt><trkpt lat="41.390930900975455" lon="13.991032084939512"><ele>176.8</ele><time>2026-04-12T09:16:56Z</time></trkpt><trkpt lat="41.39100256651765" lon="13.990978655273503"><ele>176.4</ele><time>2026-04-12T09:16:57Z</time></trkpt><trkpt lat="41.391066250731996" lon="13.990927749851808"><ele>176.0</ele><time>2026-04-12T09:16:58Z</time></trkpt><trkpt lat="41.39115021502657" lon="13.990862203459617"><ele>175.16666666666666</ele><time>2026-04-12T09:17:00Z</time></trkpt><trkpt lat="41.39121498724368" lon="13.990813082454054"><ele>174.33333333333331</ele><time>2026-04-12T09:17:02Z</time></trkpt><trkpt lat="41.391198777784574" lon="13.990716443316186"><ele>173.5</ele><time>2026-04-12T09:17:10Z</time></trkpt><trkpt lat="41.3911272155835" lon="13.99068602844653"><ele>172.66666666666666</ele><time>2026-04-12T09:17:12Z</time></trkpt><trkpt lat="41.3910413927536" lon="13.99062235452008"><ele>171.83333333333334</ele><time>2026-04-12T09:17:14Z</time></trkpt><trkpt lat="41.39095672184492" lon="13.99060321817751"><ele>171.0</ele><time>2026-04-12T09:17:16Z</time></trkpt><trkpt lat="41.39084899801085" lon="13.990546413097242"><ele>171.0</ele><time>2026-04-12T09:17:18Z</time></trkpt><trkpt lat="41.39075367138571" lon="13.990506773586532"><ele>171.0</ele><time>2026-04-12T09:17:19Z</time></trkpt><trkpt lat="41.39062069710701" lon="13.990565944350685"><ele>171.0</ele><time>2026-04-12T09:17:20Z</time></trkpt><trkpt lat="41.3905248153686" lon="13.990593399978776"><ele>171.0</ele><time>2026-04-12T09:17:21Z</time></trkpt><trkpt lat="41.39042554177897" lon="13.990568636048945"><ele>171.0</ele><time>2026-04-12T09:17:23Z</time></trkpt><trkpt lat="41.39033402400258" lon="13.990637827988937"><ele>170.83333333333334</ele><time>2026-04-12T09:17:25Z</time></trkpt><trkpt lat="41.39028078212062" lon="13.990693423290676"><ele>170.66666666666666</ele><time>2026-04-12T09:17:26Z</time></trkpt><trkpt lat="41.390211883971766" lon="13.990771897985384"><ele>170.5</ele><time>2026-04-12T09:17:28Z</time></trkpt><trkpt lat="41.39014299192134" lon="13.990851727730794"><ele>170.33333333333331</ele><time>2026-04-12T09:17:30Z</time></trkpt><trkpt lat="41.390059050709986" lon="13.990808839034969"><ele>170.16666666666666</ele><time>2026-04-12T09:17:34Z</time></trkpt><trkpt lat="41.389990434048855" lon="13.990851034563976"><ele>170.0</ele><time>2026-04-12T09:17:35Z</time></trkpt><trkpt lat="41.38988811995907" lon="13.990889028578753"><ele>171.33333333333331</ele><time>2026-04-12T09:17:37Z</time></trkpt><trkpt lat="41.38982906668007" lon="13.990944576395513"><ele>172.66666666666666</ele><time>2026-04-12T09:17:40Z</time></trkpt><trkpt lat="41.38974017777268" lon="13.99101525341084"><ele>174.0</ele><time>2026-04-12T09:17:42Z</time></trkpt><trkpt lat="41.389700200708425" lon="13.991084911448494"><ele>175.33333333333334</ele><time>2026-04-12T09:17:44Z</time></trkpt><trkpt lat="41.38966848345831" lon="13.991167731488826"><ele>176.66666666666669</ele><time>2026-04-12T09:17:51Z</time></trkpt><trkpt lat="41.389594878406065" lon="13.991169096851431"><ele>178.0</ele><time>2026-04-12T09:17:56Z</time></trkpt><trkpt lat="41.38947963210689" lon="13.991183138691985"><ele>178.0</ele><time>2026-04-12T09:17:58Z</time></trkpt><trkpt lat="41.389425854594016" lon="13.991318899992534"><ele>178.0</ele><time>2026-04-12T09:18:00Z</time></trkpt><trkpt lat="41.38936009441491" lon="13.991428620404422"><ele>178.0</ele><time>2026-04-12T09:18:02Z</time></trkpt><trkpt lat="41.38926115572452" lon="13.991440718862496"><ele>178.0</ele><time>2026-04-12T09:18:04Z</time></trkpt><trkpt lat="41.38918926695473" lon="13.991462741689752"><ele>178.0</ele><time>2026-04-12T09:18:05Z</time></trkpt><trkpt lat="41.38914804960208" lon="13.991531656581826"><ele>178.0</ele><time>2026-04-12T09:18:07Z</time></trkpt><trkpt lat="41.389082837174236" lon="13.991583955367163"><ele>178.0</ele><time>2026-04-12T09:18:09Z</time></trkpt><trkpt lat="41.38903171359214" lon="13.991519369449803"><ele>178.0</ele><time>2026-04-12T09:18:11Z</time></trkpt><trkpt lat="41.38897121105506" lon="13.991487916859741"><ele>178.0</ele><time>2026-04-12T09:18:12Z</time></trkpt><trkpt lat="41.38892437134963" lon="13.991544984117722"><ele>178.0</ele><time>2026-04-12T09:18:14Z</time></trkpt><trkpt lat="41.38884950661285" lon="13.99145833442921"><ele>178.0</ele><time>2026-04-12T09:18:17Z</time></trkpt><trkpt lat="41.38877938064311" lon="13.991416103495597"><ele>177.33333333333334</ele><time>2026-04-12T09:18:19Z</time></trkpt><trkpt lat="41.38870594494458" lon="13.9913264262233"><ele>176.66666666666669</ele><time>2026-04-12T09:18:21Z</time></trkpt><trkpt lat="41.38866774194362" lon="13.991240743623583"><ele>176.0</ele><time>2026-04-12T09:18:24Z</time></trkpt><trkpt lat="41.388700377657656" lon="13.991147503769836"><ele>175.33333333333334</ele><time>2026-04-12T09:18:27Z</time></trkpt><trkpt lat="41.38875796527719" lon="13.99109364796995"><ele>174.66666666666666</ele><time>2026-04-12T09:18:30Z</time></trkpt><trkpt lat="41.3887995035651" lon="13.991011230785622"><ele>174.0</ele><time>2026-04-12T09:18:35Z</time></trkpt><trkpt lat="41.3888165497804" lon="13.990896545728022"><ele>172.79999999999998</ele><time>2026-04-12T09:18:38Z</time></trkpt><trkpt lat="41.38882703325861" lon="13.990812127999016"><ele>171.6</ele><time>2026-04-12T09:18:40Z</time></trkpt><trkpt lat="41.38886972555415" lon="13.990681256608159"><ele>170.4</ele><time>2026-04-12T09:18:43Z</time></trkpt><trkpt lat="41.388910064041944" lon="13.990523281506867"><ele>169.2</ele><time>2026-04-12T09:18:45Z</time></trkpt><trkpt lat="41.38894575665173" lon="13.99042430343723"><ele>168.0</ele><time>2026-04-12T09:18:46Z</time></trkpt><trkpt lat="41.389059237709205" lon="13.990319490340244"><ele>168.0</ele><time>2026-04-12T09:18:48Z</time></trkpt><trkpt lat="41.38913220625066" lon="13.990244802102247"><ele>168.0</ele><time>2026-04-12T09:18:49Z</time></trkpt><trkpt lat="41.3891887928617" lon="13.990144438636639"><ele>168.0</ele><time>2026-04-12T09:18:50Z</time></trkpt><trkpt lat="41.38922347810766" lon="13.990015384345229"><ele>168.0</ele><time>2026-04-12T09:18:51Z</time></trkpt><trkpt lat="41.389237818325974" lon="13.989911147394416"><ele>168.0</ele><time>2026-04-12T09:18:52Z</time></trkpt><trkpt lat="41.38923526295946" lon="13.9897706368987"><ele>168.0</ele><time>2026-04-12T09:18:54Z</time></trkpt><trkpt lat="41.3892254847801" lon="13.989658205629912"><ele>168.0</ele><time>2026-04-12T09:18:55Z</time></trkpt><trkpt lat="41.38920271176542" lon="13.989537788931806"><ele>168.0</ele><time>2026-04-12T09:18:56Z</time></trkpt><trkpt lat="41.38916247840579" lon="13.989385951013118"><ele>168.0</ele><time>2026-04-12T09:18:57Z</time></trkpt><trkpt lat="41.38911843641803" lon="13.989286747868462"><ele>168.0</ele><time>2026-04-12T09:18:58Z</time></trkpt><trkpt lat="41.38907255928452" lon="13.989186815808845"><ele>170.2</ele><time>2026-04-12T09:18:59Z</time></trkpt><trkpt lat="41.389010398841314" lon="13.989066409097422"><ele>172.4</ele><time>2026-04-12T09:19:00Z</time></trkpt><trkpt lat="41.3889737568918" lon="13.988954122847106"><ele>174.6</ele><time>2026-04-12T09:19:01Z</time></trkpt><trkpt lat="41.38894418536868" lon="13.988869756869628"><ele>176.79999999999998</ele><time>2026-04-12T09:19:02Z</time></trkpt><trkpt lat="41.388917270131294" lon="13.988744518180678"><ele>179.0</ele><time>2026-04-12T09:19:03Z</time></trkpt><trkpt lat="41.38887418385696" lon="13.988609510500433"><ele>179.0</ele><time>2026-04-12T09:19:04Z</time></trkpt><trkpt lat="41.38887124871367" lon="13.988481413847119"><ele>179.0</ele><time>2026-04-12T09:19:05Z</time></trkpt><trkpt lat="41.38884709362182" lon="13.988394840014108"><ele>179.0</ele><time>2026-04-12T09:19:06Z</time></trkpt><trkpt lat="41.38881876894494" lon="13.988223699137565"><ele>179.0</ele><time>2026-04-12T09:19:07Z</time></trkpt><trkpt lat="41.388786375244536" lon="13.988015633340854"><ele>181.39999999999998</ele><time>2026-04-12T09:19:08Z</time></trkpt><trkpt lat="41.38875869743465" lon="13.987875738171374"><ele>183.8</ele><time>2026-04-12T09:19:09Z</time></trkpt><trkpt lat="41.38872881774125" lon="13.987735998598389"><ele>186.2</ele><time>2026-04-12T09:19:10Z</time></trkpt><trkpt lat="41.3887223985995" lon="13.987605053237358"><ele>188.60000000000002</ele><time>2026-04-12T09:19:11Z</time></trkpt><trkpt lat="41.38871657868007" lon="13.987508577664427"><ele>191.0</ele><time>2026-04-12T09:19:13Z</time></trkpt><trkpt lat="41.38880538635915" lon="13.987455264602204"><ele>189.75</ele><time>2026-04-12T09:19:15Z</time></trkpt><trkpt lat="41.38896048432384" lon="13.987479831351713"><ele>188.5</ele><time>2026-04-12T09:19:17Z</time></trkpt><trkpt lat="41.38908166568853" lon="13.987519447636029"><ele>187.25</ele><time>2026-04-12T09:19:18Z</time></trkpt><trkpt lat="41.38919943891034" lon="13.987520241535266"><ele>186.0</ele><time>2026-04-12T09:19:19Z</time></trkpt><trkpt lat="41.38930869376139" lon="13.987519288977763"><ele>185.66666666666666</ele><time>2026-04-12T09:19:20Z</time></trkpt><trkpt lat="41.389384255092295" lon="13.987496834622176"><ele>185.33333333333331</ele><time>2026-04-12T09:19:21Z</time></trkpt><trkpt lat="41.38944878146325" lon="13.987439872634186"><ele>185.0</ele><time>2026-04-12T09:19:23Z</time></trkpt><trkpt lat="41.38981685726401" lon="13.987487423594079"><ele>182.66666666666666</ele><time>2026-04-12T09:19:29Z</time></trkpt><trkpt lat="41.39000435667855" lon="13.987490912131376"><ele>180.33333333333334</ele><time>2026-04-12T09:19:30Z</time></trkpt><trkpt lat="41.3902177621303" lon="13.987495439353712"><ele>178.0</ele><time>2026-04-12T09:19:31Z</time></trkpt><trkpt lat="41.390414322199476" lon="13.987492025448459"><ele>177.66666666666669</ele><time>2026-04-12T09:19:32Z</time></trkpt><trkpt lat="41.39058915634929" lon="13.987498227715596"><ele>177.33333333333334</ele><time>2026-04-12T09:19:33Z</time></trkpt><trkpt lat="41.390744281085325" lon="13.987511095856904"><ele>177.0</ele><time>2026-04-12T09:19:34Z</time></trkpt><trkpt lat="41.390900280919794" lon="13.987521286399593"><ele>177.0</ele><time>2026-04-12T09:19:35Z</time></trkpt><trkpt lat="41.3910425911485" lon="13.987530593614489"><ele>177.0</ele><time>2026-04-12T09:19:36Z</time></trkpt><trkpt lat="41.391184308215266" lon="13.987533840403506"><ele>177.0</ele><time>2026-04-12T09:19:37Z</time></trkpt><trkpt lat="41.39131246879851" lon="13.987528072039462"><ele>177.0</ele><time>2026-04-12T09:19:38Z</time></trkpt><trkpt lat="41.39143119064552" lon="13.98751557464923"><ele>175.75</ele><time>2026-04-12T09:19:39Z</time></trkpt><trkpt lat="41.39156659747466" lon="13.987484429898004"><ele>174.5</ele><time>2026-04-12T09:19:40Z</time></trkpt><trkpt lat="41.39171559704862" lon="13.987429747243116"><ele>173.25</ele><time>2026-04-12T09:19:41Z</time></trkpt><trkpt lat="41.391847182314386" lon="13.987359850163742"><ele>172.0</ele><time>2026-04-12T09:19:42Z</time></trkpt><trkpt lat="41.391983405065304" lon="13.987258131932306"><ele>172.0</ele><time>2026-04-12T09:19:43Z</time></trkpt><trkpt lat="41.39210029078636" lon="13.98712908078132"><ele>172.0</ele><time>2026-04-12T09:19:44Z</time></trkpt><trkpt lat="41.39221998645961" lon="13.98697773215762"><ele>172.0</ele><time>2026-04-12T09:19:45Z</time></trkpt><trkpt lat="41.392321459619176" lon="13.986815921954891"><ele>170.33333333333334</ele><time>2026-04-12T09:19:46Z</time></trkpt><trkpt lat="41.39242588663732" lon="13.986643633718353"><ele>168.66666666666666</ele><time>2026-04-12T09:19:47Z</time></trkpt><trkpt lat="41.392541826099986" lon="13.986490451344528"><ele>167.0</ele><time>2026-04-12T09:19:48Z</time></trkpt><trkpt lat="41.39265284297873" lon="13.98632887967937"><ele>167.0</ele><time>2026-04-12T09:19:49Z</time></trkpt><trkpt lat="41.392763979416564" lon="13.986165671882532"><ele>167.0</ele><time>2026-04-12T09:19:50Z</time></trkpt><trkpt lat="41.392863964782585" lon="13.98601737148126"><ele>167.0</ele><time>2026-04-12T09:19:51Z</time></trkpt><trkpt lat="41.3929551430903" lon="13.985879987906683"><ele>167.0</ele><time>2026-04-12T09:19:52Z</time></trkpt><trkpt lat="41.39304086207639" lon="13.98575633204445"><ele>167.0</ele><time>2026-04-12T09:19:53Z</time></trkpt><trkpt lat="41.39312877831382" lon="13.985629446684522"><ele>167.0</ele><time>2026-04-12T09:19:54Z</time></trkpt><trkpt lat="41.39321013276557" lon="13.98546933023005"><ele>167.0</ele><time>2026-04-12T09:19:55Z</time></trkpt><trkpt lat="41.39330055783209" lon="13.985322514515456"><ele>167.0</ele><time>2026-04-12T09:19:56Z</time></trkpt><trkpt lat="41.393397806698594" lon="13.985172080975081"><ele>167.0</ele><time>2026-04-12T09:19:57Z</time></trkpt><trkpt lat="41.393496423336465" lon="13.985022065647003"><ele>167.0</ele><time>2026-04-12T09:19:58Z</time></trkpt><trkpt lat="41.39360369901581" lon="13.98485770291527"><ele>166.0</ele><time>2026-04-12T09:19:59Z</time></trkpt><trkpt lat="41.39370098734299" lon="13.98467882853497"><ele>165.0</ele><time>2026-04-12T09:20:00Z</time></trkpt><trkpt lat="41.39382262465799" lon="13.984527093562878"><ele>164.0</ele><time>2026-04-12T09:20:01Z</time></trkpt><trkpt lat="41.39394219489711" lon="13.984388318838324"><ele>164.0</ele><time>2026-04-12T09:20:02Z</time></trkpt><trkpt lat="41.39406329133281" lon="13.984271163014082"><ele>164.0</ele><time>2026-04-12T09:20:03Z</time></trkpt><trkpt lat="41.39418149999582" lon="13.9841421704564"><ele>164.0</ele><time>2026-04-12T09:20:04Z</time></trkpt><trkpt lat="41.3943226657716" lon="13.984033182775093"><ele>162.0</ele><time>2026-04-12T09:20:05Z</time></trkpt><trkpt lat="41.39446536866516" lon="13.983943707022972"><ele>160.0</ele><time>2026-04-12T09:20:06Z</time></trkpt><trkpt lat="41.39461575230115" lon="13.983880194587385"><ele>158.0</ele><time>2026-04-12T09:20:07Z</time></trkpt><trkpt lat="41.39477673673163" lon="13.983862690776"><ele>158.0</ele><time>2026-04-12T09:20:08Z</time></trkpt><trkpt lat="41.39492890814834" lon="13.983842184833422"><ele>158.0</ele><time>2026-04-12T09:20:09Z</time></trkpt><trkpt lat="41.3950864892844" lon="13.983822055105351"><ele>158.0</ele><time>2026-04-12T09:20:10Z</time></trkpt><trkpt lat="41.395248187359215" lon="13.98386821116212"><ele>158.0</ele><time>2026-04-12T09:20:11Z</time></trkpt><trkpt lat="41.39540462934381" lon="13.983926446730623"><ele>158.0</ele><time>2026-04-12T09:20:12Z</time></trkpt><trkpt lat="41.395563023950785" lon="13.98398420560561"><ele>158.0</ele><time>2026-04-12T09:20:13Z</time></trkpt><trkpt lat="41.39572264947945" lon="13.984040263174382"><ele>157.66666666666666</ele><time>2026-04-12T09:20:14Z</time></trkpt><trkpt lat="41.39587842452516" lon="13.984095018918383"><ele>157.33333333333334</ele><time>2026-04-12T09:20:15Z</time></trkpt><trkpt lat="41.39604909086919" lon="13.984134119652476"><ele>157.0</ele><time>2026-04-12T09:20:16Z</time></trkpt><trkpt lat="41.3962121928319" lon="13.984188317231736"><ele>157.0</ele><time>2026-04-12T09:20:17Z</time></trkpt><trkpt lat="41.396366696170816" lon="13.984230738193846"><ele>157.0</ele><time>2026-04-12T09:20:18Z</time></trkpt><trkpt lat="41.3965035725184" lon="13.984267669038354"><ele>157.0</ele><time>2026-04-12T09:20:19Z</time></trkpt><trkpt lat="41.39663881690704" lon="13.984309689050768"><ele>157.0</ele><time>2026-04-12T09:20:20Z</time></trkpt><trkpt lat="41.39676407491475" lon="13.984359926705615"><ele>157.0</ele><time>2026-04-12T09:20:21Z</time></trkpt><trkpt lat="41.39687599686003" lon="13.984441529548608"><ele>157.0</ele><time>2026-04-12T09:20:22Z</time></trkpt><trkpt lat="41.39700921097762" lon="13.984507415007442"><ele>157.0</ele><time>2026-04-12T09:20:23Z</time></trkpt><trkpt lat="41.3971402470018" lon="13.984578459148807"><ele>157.0</ele><time>2026-04-12T09:20:24Z</time></trkpt><trkpt lat="41.39725656706028" lon="13.984637078525681"><ele>156.75</ele><time>2026-04-12T09:20:25Z</time></trkpt><trkpt lat="41.39735670031525" lon="13.984691363377483"><ele>156.5</ele><time>2026-04-12T09:20:26Z</time></trkpt><trkpt lat="41.39745712860324" lon="13.984743596610102"><ele>156.25</ele><time>2026-04-12T09:20:27Z</time></trkpt><trkpt lat="41.39757591950559" lon="13.984811282714464"><ele>156.0</ele><time>2026-04-12T09:20:28Z</time></trkpt><trkpt lat="41.3976761440991" lon="13.984869394024154"><ele>156.0</ele><time>2026-04-12T09:20:29Z</time></trkpt><trkpt lat="41.39776017270592" lon="13.984908244268004"><ele>156.0</ele><time>2026-04-12T09:20:30Z</time></trkpt><trkpt lat="41.39783731719854" lon="13.984929921669774"><ele>156.0</ele><time>2026-04-12T09:20:31Z</time></trkpt><trkpt lat="41.39793040551681" lon="13.984946465924548"><ele>156.0</ele><time>2026-04-12T09:20:32Z</time></trkpt><trkpt lat="41.3980530827036" lon="13.984976427588519"><ele>156.0</ele><time>2026-04-12T09:20:33Z</time></trkpt><trkpt lat="41.39817184578061" lon="13.984989446793694"><ele>155.75</ele><time>2026-04-12T09:20:34Z</time></trkpt><trkpt lat="41.39829942813826" lon="13.98501011181885"><ele>155.5</ele><time>2026-04-12T09:20:35Z</time></trkpt><trkpt lat="41.39841310703622" lon="13.985040607953131"><ele>155.25</ele><time>2026-04-12T09:20:36Z</time></trkpt><trkpt lat="41.39852538448688" lon="13.985058532399398"><ele>155.0</ele><time>2026-04-12T09:20:37Z</time></trkpt><trkpt lat="41.398641659833565" lon="13.985081013389767"><ele>154.8</ele><time>2026-04-12T09:20:38Z</time></trkpt><trkpt lat="41.39876459340908" lon="13.985093543867524"><ele>154.6</ele><time>2026-04-12T09:20:39Z</time></trkpt><trkpt lat="41.39884414622022" lon="13.98508152890492"><ele>154.4</ele><time>2026-04-12T09:20:40Z</time></trkpt><trkpt lat="41.3989363470587" lon="13.985096450484816"><ele>154.2</ele><time>2026-04-12T09:20:41Z</time></trkpt><trkpt lat="41.39904265253545" lon="13.985117391554743"><ele>154.0</ele><time>2026-04-12T09:20:42Z</time></trkpt><trkpt lat="41.399165505622186" lon="13.985143340901878"><ele>154.0</ele><time>2026-04-12T09:20:43Z</time></trkpt><trkpt lat="41.399274562204155" lon="13.985206292058287"><ele>154.0</ele><time>2026-04-12T09:20:44Z</time></trkpt><trkpt lat="41.39938488048369" lon="13.985226417009624"><ele>154.0</ele><time>2026-04-12T09:20:45Z</time></trkpt><trkpt lat="41.39950339607688" lon="13.98524898812365"><ele>154.0</ele><time>2026-04-12T09:20:46Z</time></trkpt><trkpt lat="41.399621627935836" lon="13.985272017771571"><ele>153.5</ele><time>2026-04-12T09:20:47Z</time></trkpt><trkpt lat="41.39973964262219" lon="13.985297114387233"><ele>153.0</ele><time>2026-04-12T09:20:48Z</time></trkpt><trkpt lat="41.399827968985306" lon="13.985303845633286"><ele>152.5</ele><time>2026-04-12T09:20:49Z</time></trkpt><trkpt lat="41.39995824107616" lon="13.985325027027264"><ele>152.0</ele><time>2026-04-12T09:20:50Z</time></trkpt><trkpt lat="41.400084647365766" lon="13.985352159830768"><ele>152.0</ele><time>2026-04-12T09:20:51Z</time></trkpt><trkpt lat="41.40021296681997" lon="13.985377451358067"><ele>152.0</ele><time>2026-04-12T09:20:52Z</time></trkpt><trkpt lat="41.40033790819535" lon="13.98540653953742"><ele>152.0</ele><time>2026-04-12T09:20:53Z</time></trkpt><trkpt lat="41.40048894617192" lon="13.985436718694709"><ele>152.0</ele><time>2026-04-12T09:20:54Z</time></trkpt><trkpt lat="41.40059148787501" lon="13.9854689405654"><ele>151.75</ele><time>2026-04-12T09:20:55Z</time></trkpt><trkpt lat="41.40072053808929" lon="13.985498625590031"><ele>151.5</ele><time>2026-04-12T09:20:56Z</time></trkpt><trkpt lat="41.40084145190875" lon="13.985496216052587"><ele>151.25</ele><time>2026-04-12T09:20:57Z</time></trkpt><trkpt lat="41.40095481174291" lon="13.985483220907607"><ele>151.0</ele><time>2026-04-12T09:20:58Z</time></trkpt><trkpt lat="41.40106531754288" lon="13.98548271576951"><ele>151.0</ele><time>2026-04-12T09:20:59Z</time></trkpt><trkpt lat="41.40117457311315" lon="13.985445371033727"><ele>151.0</ele><time>2026-04-12T09:21:00Z</time></trkpt><trkpt lat="41.40127460271767" lon="13.985397894262958"><ele>151.0</ele><time>2026-04-12T09:21:01Z</time></trkpt><trkpt lat="41.40136460626005" lon="13.985350816427449"><ele>151.0</ele><time>2026-04-12T09:21:02Z</time></trkpt><trkpt lat="41.401457825098774" lon="13.985302056779467"><ele>151.0</ele><time>2026-04-12T09:21:03Z</time></trkpt><trkpt lat="41.4015300154444" lon="13.98524705413293"><ele>150.8</ele><time>2026-04-12T09:21:04Z</time></trkpt><trkpt lat="41.40162476075368" lon="13.98523776318816"><ele>150.6</ele><time>2026-04-12T09:21:06Z</time></trkpt><trkpt lat="41.401690030096866" lon="13.985179068800344"><ele>150.4</ele><time>2026-04-12T09:21:13Z</time></trkpt><trkpt lat="41.401765968298015" lon="13.985153069930046"><ele>150.2</ele><time>2026-04-12T09:21:16Z</time></trkpt><trkpt lat="41.40193254601868" lon="13.985248768079254"><ele>150.0</ele><time>2026-04-12T09:21:23Z</time></trkpt><trkpt lat="41.401993102554734" lon="13.985273886877817"><ele>150.0</ele><time>2026-04-12T09:21:35Z</time></trkpt><trkpt lat="41.40207844055612" lon="13.985247255492995"><ele>150.0</ele><time>2026-04-12T09:21:38Z</time></trkpt><trkpt lat="41.402160184447055" lon="13.985220950085596"><ele>150.0</ele><time>2026-04-12T09:21:41Z</time></trkpt><trkpt lat="41.40220908765672" lon="13.985164707563223"><ele>150.0</ele><time>2026-04-12T09:21:44Z</time></trkpt><trkpt lat="41.40219993548017" lon="13.98503515964987"><ele>150.0</ele><time>2026-04-12T09:21:47Z</time></trkpt><trkpt lat="41.40203607221824" lon="13.984976417395316"><ele>150.0</ele><time>2026-04-12T09:21:56Z</time></trkpt><trkpt lat="41.40193769071431" lon="13.985025508629274"><ele>150.0</ele><time>2026-04-12T09:21:58Z</time></trkpt><trkpt lat="41.40186637109778" lon="13.985038963557137"><ele>150.0</ele><time>2026-04-12T09:22:00Z</time></trkpt><trkpt lat="41.40180391688423" lon="13.98507175614001"><ele>150.0</ele><time>2026-04-12T09:22:02Z</time></trkpt><trkpt lat="41.4017328185623" lon="13.98510908745803"><ele>150.0</ele><time>2026-04-12T09:22:04Z</time></trkpt><trkpt lat="41.40172866199082" lon="13.985306241606592"><ele>150.0</ele><time>2026-04-12T09:22:07Z</time></trkpt><trkpt lat="41.401834329845315" lon="13.985372068488891"><ele>150.0</ele><time>2026-04-12T09:22:09Z</time></trkpt><trkpt lat="41.401933911182915" lon="13.985488248919822"><ele>150.0</ele><time>2026-04-12T09:22:11Z</time></trkpt><trkpt lat="41.40194041185987" lon="13.985597600005327"><ele>150.0</ele><time>2026-04-12T09:22:12Z</time></trkpt><trkpt lat="41.401972815799745" lon="13.985694082266262"><ele>150.0</ele><time>2026-04-12T09:22:13Z</time></trkpt><trkpt lat="41.40200543102516" lon="13.985791476672633"><ele>149.6</ele><time>2026-04-12T09:22:14Z</time></trkpt><trkpt lat="41.40204067447586" lon="13.985896719063858"><ele>149.2</ele><time>2026-04-12T09:22:15Z</time></trkpt><trkpt lat="41.402066852834274" lon="13.985979119887581"><ele>148.8</ele><time>2026-04-12T09:22:16Z</time></trkpt><trkpt lat="41.40208455987536" lon="13.986064336064171"><ele>148.4</ele><time>2026-04-12T09:22:18Z</time></trkpt><trkpt lat="41.40200915900654" lon="13.98619231022068"><ele>148.0</ele><time>2026-04-12T09:22:20Z</time></trkpt><trkpt lat="41.402016535927395" lon="13.986381135218108"><ele>148.0</ele><time>2026-04-12T09:22:22Z</time></trkpt><trkpt lat="41.40205419880172" lon="13.986449831979902"><ele>148.0</ele><time>2026-04-12T09:22:23Z</time></trkpt><trkpt lat="41.40208222242116" lon="13.986527996088935"><ele>148.0</ele><time>2026-04-12T09:22:25Z</time></trkpt><trkpt lat="41.402006521883024" lon="13.986600137063853"><ele>148.0</ele><time>2026-04-12T09:22:26Z</time></trkpt><trkpt lat="41.40197042206983" lon="13.986683801664412"><ele>148.0</ele><time>2026-04-12T09:22:28Z</time></trkpt><trkpt lat="41.40190455928295" lon="13.986671060385154"><ele>148.0</ele><time>2026-04-12T09:22:29Z</time></trkpt><trkpt lat="41.40181576393779" lon="13.986746845663019"><ele>146.83333333333334</ele><time>2026-04-12T09:22:31Z</time></trkpt><trkpt lat="41.40173556461241" lon="13.986808864278427"><ele>145.66666666666669</ele><time>2026-04-12T09:22:33Z</time></trkpt><trkpt lat="41.40167719972606" lon="13.986849435430258"><ele>144.5</ele><time>2026-04-12T09:22:35Z</time></trkpt><trkpt lat="41.40159757533127" lon="13.986864234661713"><ele>143.33333333333334</ele><time>2026-04-12T09:23:04Z</time></trkpt><trkpt lat="41.40151443277891" lon="13.98685493714033"><ele>142.16666666666666</ele><time>2026-04-12T09:23:06Z</time></trkpt><trkpt lat="41.40143261262631" lon="13.986879199805164"><ele>141.0</ele><time>2026-04-12T09:23:08Z</time></trkpt><trkpt lat="41.40139109884929" lon="13.986954111716466"><ele>141.0</ele><time>2026-04-12T09:29:55Z</time></trkpt><trkpt lat="41.40130906244301" lon="13.986937087249995"><ele>141.0</ele><time>2026-04-12T09:31:48Z</time></trkpt><trkpt lat="41.40137172104273" lon="13.986960669075744"><ele>141.0</ele><time>2026-04-12T09:32:28Z</time></trkpt><trkpt lat="41.40142652055056" lon="13.986912175528516"><ele>141.0</ele><time>2026-04-12T09:40:23Z</time></trkpt><trkpt lat="41.4014866403223" lon="13.986885600491044"><ele>141.0</ele><time>2026-04-12T09:40:25Z</time></trkpt><trkpt lat="41.401567789323046" lon="13.986919857482869"><ele>141.0</ele><time>2026-04-12T09:40:28Z</time></trkpt><trkpt lat="41.401610905564546" lon="13.986838285338372"><ele>141.0</ele><time>2026-04-12T09:41:10.001Z</time></trkpt><trkpt lat="41.40171042589706" lon="13.986812755685316"><ele>141.0</ele><time>2026-04-12T09:41:12.001Z</time></trkpt><trkpt lat="41.4017913708948" lon="13.98677261082463"><ele>141.0</ele><time>2026-04-12T09:41:16.001Z</time></trkpt><trkpt lat="41.40186443230205" lon="13.98671785870973"><ele>141.0</ele><time>2026-04-12T09:41:18.001Z</time></trkpt><trkpt lat="41.40193991745841" lon="13.9866827967982"><ele>141.0</ele><time>2026-04-12T09:41:20.001Z</time></trkpt><trkpt lat="41.40205877025958" lon="13.986664277437004"><ele>141.0</ele><time>2026-04-12T09:42:24Z</time></trkpt><trkpt lat="41.40200698310032" lon="13.986599968836932"><ele>141.0</ele><time>2026-04-12T09:42:27Z</time></trkpt><trkpt lat="41.40198734728794" lon="13.986506026698034"><ele>142.16666666666666</ele><time>2026-04-12T09:42:28Z</time></trkpt><trkpt lat="41.4020148944341" lon="13.986429968791958"><ele>143.33333333333334</ele><time>2026-04-12T09:42:29Z</time></trkpt><trkpt lat="41.40203736618302" lon="13.98634218607552"><ele>144.5</ele><time>2026-04-12T09:42:30Z</time></trkpt><trkpt lat="41.40205426993137" lon="13.986204038043034"><ele>145.66666666666669</ele><time>2026-04-12T09:42:32Z</time></trkpt><trkpt lat="41.402045194324984" lon="13.986120086037992"><ele>146.83333333333334</ele><time>2026-04-12T09:42:33Z</time></trkpt><trkpt lat="41.402032518676464" lon="13.986007247200584"><ele>148.0</ele><time>2026-04-12T09:42:34Z</time></trkpt><trkpt lat="41.40202093612633" lon="13.985913496740235"><ele>148.4</ele><time>2026-04-12T09:42:35Z</time></trkpt><trkpt lat="41.40202616337682" lon="13.985741974832843"><ele>148.8</ele><time>2026-04-12T09:42:37.001Z</time></trkpt><trkpt lat="41.4019816112525" lon="13.985611469927628"><ele>149.2</ele><time>2026-04-12T09:42:39.001Z</time></trkpt><trkpt lat="41.40194966007239" lon="13.985518695925888"><ele>149.6</ele><time>2026-04-12T09:42:41.001Z</time></trkpt><trkpt lat="41.40191699471439" lon="13.985444934509584"><ele>150.0</ele><time>2026-04-12T09:42:44.001Z</time></trkpt><trkpt lat="41.401970105629985" lon="13.985367831259186"><ele>150.0</ele><time>2026-04-12T09:42:46.001Z</time></trkpt><trkpt lat="41.40204074683398" lon="13.985337869487985"><ele>150.0</ele><time>2026-04-12T09:42:47.001Z</time></trkpt><trkpt lat="41.40210627160715" lon="13.985306042945435"><ele>150.0</ele><time>2026-04-12T09:42:48.001Z</time></trkpt><trkpt lat="41.40217205425577" lon="13.985279513625827"><ele>150.0</ele><time>2026-04-12T09:42:49.001Z</time></trkpt><trkpt lat="41.40224324284401" lon="13.985195637537615"><ele>150.0</ele><time>2026-04-12T09:42:51.001Z</time></trkpt><trkpt lat="41.40234685224185" lon="13.985180110765796"><ele>150.0</ele><time>2026-04-12T09:42:53.001Z</time></trkpt><trkpt lat="41.402464959994205" lon="13.985186134372263"><ele>148.75</ele><time>2026-04-12T09:42:55.001Z</time></trkpt><trkpt lat="41.40255889581433" lon="13.985206630034524"><ele>147.5</ele><time>2026-04-12T09:42:56.001Z</time></trkpt><trkpt lat="41.40267971509987" lon="13.985220840384274"><ele>146.25</ele><time>2026-04-12T09:42:57.001Z</time></trkpt><trkpt lat="41.40279215455411" lon="13.985214613112062"><ele>145.0</ele><time>2026-04-12T09:42:58.001Z</time></trkpt><trkpt lat="41.40291228790854" lon="13.985249927046135"><ele>142.4</ele><time>2026-04-12T09:42:59.001Z</time></trkpt><trkpt lat="41.40301023266325" lon="13.985282163425536"><ele>139.8</ele><time>2026-04-12T09:43:00.001Z</time></trkpt><trkpt lat="41.40308464792162" lon="13.985336372499946"><ele>137.2</ele><time>2026-04-12T09:43:01.001Z</time></trkpt><trkpt lat="41.403145162236704" lon="13.985390962391962"><ele>134.6</ele><time>2026-04-12T09:43:02.001Z</time></trkpt><trkpt lat="41.40324007158207" lon="13.985510980201855"><ele>132.0</ele><time>2026-04-12T09:43:04.001Z</time></trkpt><trkpt lat="41.403300952491286" lon="13.985623482304876"><ele>132.0</ele><time>2026-04-12T09:43:06.001Z</time></trkpt><trkpt lat="41.4035078087988" lon="13.985624496400249"><ele>132.0</ele><time>2026-04-12T09:43:08.001Z</time></trkpt><trkpt lat="41.403594697868684" lon="13.985638044005265"><ele>132.0</ele><time>2026-04-12T09:43:09.001Z</time></trkpt><trkpt lat="41.40367528859583" lon="13.985645844315012"><ele>132.0</ele><time>2026-04-12T09:43:11.001Z</time></trkpt><trkpt lat="41.4037209560977" lon="13.98573964014347"><ele>130.5</ele><time>2026-04-12T09:43:12.001Z</time></trkpt><trkpt lat="41.40378546411025" lon="13.985847075965943"><ele>129.0</ele><time>2026-04-12T09:43:14.001Z</time></trkpt><trkpt lat="41.40382693916318" lon="13.985954744096986"><ele>127.5</ele><time>2026-04-12T09:43:15.001Z</time></trkpt><trkpt lat="41.40386276093585" lon="13.986053161378521"><ele>126.0</ele><time>2026-04-12T09:43:16.001Z</time></trkpt><trkpt lat="41.403909695919815" lon="13.986147332005194"><ele>124.5</ele><time>2026-04-12T09:43:17.001Z</time></trkpt><trkpt lat="41.40395498521216" lon="13.98622333644561"><ele>123.0</ele><time>2026-04-12T09:43:18.001Z</time></trkpt><trkpt lat="41.40399875715103" lon="13.986313850643736"><ele>122.4</ele><time>2026-04-12T09:43:19.001Z</time></trkpt><trkpt lat="41.40407667560027" lon="13.986374273219257"><ele>121.80000000000001</ele><time>2026-04-12T09:43:20.001Z</time></trkpt><trkpt lat="41.40416101887677" lon="13.98639336513335"><ele>121.2</ele><time>2026-04-12T09:43:21.001Z</time></trkpt><trkpt lat="41.40424536244735" lon="13.986415740171662"><ele>120.6</ele><time>2026-04-12T09:43:22.001Z</time></trkpt><trkpt lat="41.404359023087146" lon="13.98642791841206"><ele>120.0</ele><time>2026-04-12T09:43:23.001Z</time></trkpt><trkpt lat="41.40446868178454" lon="13.986409177488921"><ele>120.0</ele><time>2026-04-12T09:43:24.001Z</time></trkpt><trkpt lat="41.40458127362815" lon="13.986412702463152"><ele>120.0</ele><time>2026-04-12T09:43:25.001Z</time></trkpt><trkpt lat="41.404664501492654" lon="13.986359133873936"><ele>120.0</ele><time>2026-04-12T09:43:26.001Z</time></trkpt><trkpt lat="41.40474215824694" lon="13.9862825434029"><ele>120.0</ele><time>2026-04-12T09:43:28.001Z</time></trkpt><trkpt lat="41.40478054686842" lon="13.986119115767465"><ele>120.0</ele><time>2026-04-12T09:43:30.001Z</time></trkpt><trkpt lat="41.404823740065446" lon="13.986018094513788"><ele>119.33333333333333</ele><time>2026-04-12T09:43:31.001Z</time></trkpt><trkpt lat="41.40486304256059" lon="13.985950635493131"><ele>118.66666666666666</ele><time>2026-04-12T09:43:32.001Z</time></trkpt><trkpt lat="41.40490410158302" lon="13.985862471475327"><ele>118.0</ele><time>2026-04-12T09:43:33.001Z</time></trkpt><trkpt lat="41.40493501157837" lon="13.98576569428823"><ele>117.33333333333333</ele><time>2026-04-12T09:43:35.001Z</time></trkpt><trkpt lat="41.40493032375426" lon="13.985662144904792"><ele>116.66666666666666</ele><time>2026-04-12T09:43:37.001Z</time></trkpt><trkpt lat="41.40496678803128" lon="13.985581727084769"><ele>116.0</ele><time>2026-04-12T09:43:39.001Z</time></trkpt><trkpt lat="41.40490951599038" lon="13.985501258434502"><ele>115.99999999999999</ele><time>2026-04-12T09:43:42.001Z</time></trkpt><trkpt lat="41.40497875586673" lon="13.985442374146457"><ele>116.0</ele><time>2026-04-12T09:43:44.001Z</time></trkpt><trkpt lat="41.405025865848344" lon="13.985350814999634"><ele>116.0</ele><time>2026-04-12T09:43:46.001Z</time></trkpt><trkpt lat="41.40503585781144" lon="13.985240896932618"><ele>116.0</ele><time>2026-04-12T09:43:49Z</time></trkpt><trkpt lat="41.40509138122595" lon="13.985195984135027"><ele>115.99999999999999</ele><time>2026-04-12T09:43:53Z</time></trkpt><trkpt lat="41.405116484708174" lon="13.985043521953365"><ele>116.0</ele><time>2026-04-12T09:43:58Z</time></trkpt><trkpt lat="41.40506247187878" lon="13.984901647973977"><ele>117.16666666666666</ele><time>2026-04-12T09:44:00Z</time></trkpt><trkpt lat="41.40498212791519" lon="13.984807556492981"><ele>118.33333333333333</ele><time>2026-04-12T09:44:03Z</time></trkpt><trkpt lat="41.40495843284336" lon="13.9847250875361"><ele>119.5</ele><time>2026-04-12T09:44:05Z</time></trkpt><trkpt lat="41.405038135245576" lon="13.98468935755877"><ele>120.66666666666666</ele><time>2026-04-12T09:44:10Z</time></trkpt><trkpt lat="41.405105161762" lon="13.984647507951982"><ele>121.83333333333333</ele><time>2026-04-12T09:44:14Z</time></trkpt><trkpt lat="41.40515536102351" lon="13.984552245882178"><ele>123.0</ele><time>2026-04-12T09:44:16Z</time></trkpt><trkpt lat="41.40527528838197" lon="13.984402850654172"><ele>123.0</ele><time>2026-04-12T09:44:17Z</time></trkpt><trkpt lat="41.405336782398436" lon="13.984336075881565"><ele>123.00000000000001</ele><time>2026-04-12T09:44:20Z</time></trkpt><trkpt lat="41.40541205095126" lon="13.98433131108597"><ele>123.00000000000001</ele><time>2026-04-12T09:44:21Z</time></trkpt><trkpt lat="41.40551092706696" lon="13.984250193758497"><ele>123.0</ele><time>2026-04-12T09:44:23Z</time></trkpt><trkpt lat="41.40562580829814" lon="13.984211195713494"><ele>123.0</ele><time>2026-04-12T09:44:26Z</time></trkpt><trkpt lat="41.40572711205105" lon="13.984218224341049"><ele>123.33333333333333</ele><time>2026-04-12T09:44:30Z</time></trkpt><trkpt lat="41.40581695314166" lon="13.98427509437384"><ele>123.66666666666666</ele><time>2026-04-12T09:44:32Z</time></trkpt><trkpt lat="41.40586230646573" lon="13.984215305513725"><ele>124.0</ele><time>2026-04-12T09:44:35Z</time></trkpt><trkpt lat="41.40592353181661" lon="13.984179641469215"><ele>124.33333333333333</ele><time>2026-04-12T09:44:37Z</time></trkpt><trkpt lat="41.40600279594802" lon="13.98411637860669"><ele>124.66666666666666</ele><time>2026-04-12T09:44:39Z</time></trkpt><trkpt lat="41.40605669070524" lon="13.984064248921214"><ele>125.0</ele><time>2026-04-12T09:44:41Z</time></trkpt><trkpt lat="41.406118002826005" lon="13.984021808890217"><ele>124.33333333333333</ele><time>2026-04-12T09:44:43Z</time></trkpt><trkpt lat="41.40614079689326" lon="13.983941425691558"><ele>123.66666666666666</ele><time>2026-04-12T09:44:44Z</time></trkpt><trkpt lat="41.40621754338592" lon="13.983900486316134"><ele>123.0</ele><time>2026-04-12T09:44:47.001Z</time></trkpt><trkpt lat="41.40634402628884" lon="13.983794952957805"><ele>122.33333333333334</ele><time>2026-04-12T09:44:51.001Z</time></trkpt><trkpt lat="41.406391243987194" lon="13.983721755419717"><ele>121.66666666666667</ele><time>2026-04-12T09:44:54.001Z</time></trkpt><trkpt lat="41.40645431799367" lon="13.983674119886592"><ele>121.0</ele><time>2026-04-12T09:44:56.001Z</time></trkpt><trkpt lat="41.40648888857567" lon="13.9835999232249"><ele>121.0</ele><time>2026-04-12T09:45:00.001Z</time></trkpt><trkpt lat="41.40652013916246" lon="13.983504174927031"><ele>121.0</ele><time>2026-04-12T09:45:03.001Z</time></trkpt><trkpt lat="41.406657712091665" lon="13.983468557173826"><ele>121.0</ele><time>2026-04-12T09:45:09.001Z</time></trkpt><trkpt lat="41.406757432154265" lon="13.983522083665193"><ele>121.0</ele><time>2026-04-12T09:45:10.001Z</time></trkpt><trkpt lat="41.40685023111402" lon="13.983553913616571"><ele>121.0</ele><time>2026-04-12T09:45:11.001Z</time></trkpt><trkpt lat="41.40695605174365" lon="13.98358420998659"><ele>121.0</ele><time>2026-04-12T09:45:12.001Z</time></trkpt><trkpt lat="41.40705410149705" lon="13.98362584024108"><ele>121.0</ele><time>2026-04-12T09:45:13.001Z</time></trkpt><trkpt lat="41.407335454841025" lon="13.983644027041553"><ele>121.0</ele><time>2026-04-12T09:45:16.001Z</time></trkpt><trkpt lat="41.40743590925057" lon="13.983695248534257"><ele>121.0</ele><time>2026-04-12T09:45:18.001Z</time></trkpt><trkpt lat="41.407514148410996" lon="13.983695661010845"><ele>121.0</ele><time>2026-04-12T09:45:19.001Z</time></trkpt><trkpt lat="41.40769261880375" lon="13.983355331065788"><ele>121.0</ele><time>2026-04-12T09:45:23.001Z</time></trkpt><trkpt lat="41.407728682212735" lon="13.983252221866765"><ele>121.0</ele><time>2026-04-12T09:45:24.001Z</time></trkpt><trkpt lat="41.40781100777006" lon="13.98298586734625"><ele>121.0</ele><time>2026-04-12T09:45:25.001Z</time></trkpt><trkpt lat="41.40788733023979" lon="13.982777728244308"><ele>121.0</ele><time>2026-04-12T09:45:26.001Z</time></trkpt><trkpt lat="41.40795691119522" lon="13.982615851420459"><ele>121.16666666666667</ele><time>2026-04-12T09:45:27.001Z</time></trkpt><trkpt lat="41.40801140977017" lon="13.982514291139717"><ele>121.33333333333334</ele><time>2026-04-12T09:45:28.001Z</time></trkpt><trkpt lat="41.40806074113358" lon="13.98244895697342"><ele>121.5</ele><time>2026-04-12T09:45:29.001Z</time></trkpt><trkpt lat="41.40812493522969" lon="13.98243854428478"><ele>121.66666666666666</ele><time>2026-04-12T09:45:33.001Z</time></trkpt><trkpt lat="41.40818762298893" lon="13.982478264100918"><ele>121.83333333333333</ele><time>2026-04-12T09:45:34.001Z</time></trkpt><trkpt lat="41.4082633024311" lon="13.982541466288772"><ele>122.0</ele><time>2026-04-12T09:45:35.001Z</time></trkpt><trkpt lat="41.40833120978635" lon="13.982582651288272"><ele>123.0</ele><time>2026-04-12T09:45:36.001Z</time></trkpt><trkpt lat="41.40839358634446" lon="13.982642344815513"><ele>123.99999999999999</ele><time>2026-04-12T09:45:37.001Z</time></trkpt><trkpt lat="41.408447492891476" lon="13.982757336754952"><ele>124.99999999999999</ele><time>2026-04-12T09:45:38.001Z</time></trkpt><trkpt lat="41.40851456052738" lon="13.982848600795723"><ele>126.0</ele><time>2026-04-12T09:45:39.001Z</time></trkpt><trkpt lat="41.408609561193614" lon="13.982923960158539"><ele>127.0</ele><time>2026-04-12T09:45:40.001Z</time></trkpt><trkpt lat="41.40870594046501" lon="13.982988342780184"><ele>127.0</ele><time>2026-04-12T09:45:41.001Z</time></trkpt><trkpt lat="41.40878971008978" lon="13.98301688832543"><ele>127.0</ele><time>2026-04-12T09:45:42.001Z</time></trkpt><trkpt lat="41.408916960244255" lon="13.982942744840448"><ele>127.0</ele><time>2026-04-12T09:45:44.001Z</time></trkpt><trkpt lat="41.4090101425606" lon="13.982843029762204"><ele>127.0</ele><time>2026-04-12T09:45:45.001Z</time></trkpt><trkpt lat="41.40911535649747" lon="13.982769607717795"><ele>126.8</ele><time>2026-04-12T09:45:46.001Z</time></trkpt><trkpt lat="41.409193240124225" lon="13.982722928292546"><ele>126.6</ele><time>2026-04-12T09:45:47.001Z</time></trkpt><trkpt lat="41.40926504414774" lon="13.982724624229462"><ele>126.39999999999999</ele><time>2026-04-12T09:45:48.001Z</time></trkpt><trkpt lat="41.409371480310405" lon="13.98274942085946"><ele>126.19999999999999</ele><time>2026-04-12T09:45:49.001Z</time></trkpt><trkpt lat="41.40947098682573" lon="13.982709719148941"><ele>126.0</ele><time>2026-04-12T09:45:50.001Z</time></trkpt><trkpt lat="41.409559435629944" lon="13.982624635490444"><ele>126.5</ele><time>2026-04-12T09:45:51.001Z</time></trkpt><trkpt lat="41.40967995875226" lon="13.982539274431344"><ele>127.0</ele><time>2026-04-12T09:45:52.001Z</time></trkpt><trkpt lat="41.409766051030815" lon="13.982462306892439"><ele>127.5</ele><time>2026-04-12T09:45:53.001Z</time></trkpt><trkpt lat="41.40992000847313" lon="13.982466182022897"><ele>128.0</ele><time>2026-04-12T09:45:54Z</time></trkpt><trkpt lat="41.41002256380138" lon="13.982359613960512"><ele>126.66666666666666</ele><time>2026-04-12T09:45:55Z</time></trkpt><trkpt lat="41.410163926590236" lon="13.982248291854287"><ele>125.33333333333334</ele><time>2026-04-12T09:45:56Z</time></trkpt><trkpt lat="41.41030771997398" lon="13.982126080728774"><ele>124.0</ele><time>2026-04-12T09:45:57Z</time></trkpt><trkpt lat="41.41047291359661" lon="13.982038550416625"><ele>125.33333333333334</ele><time>2026-04-12T09:45:58Z</time></trkpt><trkpt lat="41.4106453043994" lon="13.981921530952235"><ele>126.66666666666666</ele><time>2026-04-12T09:45:59Z</time></trkpt><trkpt lat="41.410797948689286" lon="13.981803896905678"><ele>128.0</ele><time>2026-04-12T09:46:00Z</time></trkpt><trkpt lat="41.410936917250936" lon="13.981710915410071"><ele>126.0</ele><time>2026-04-12T09:46:01Z</time></trkpt><trkpt lat="41.411074104034974" lon="13.981610822462697"><ele>124.0</ele><time>2026-04-12T09:46:02Z</time></trkpt><trkpt lat="41.41120295134471" lon="13.981478724579704"><ele>122.0</ele><time>2026-04-12T09:46:03Z</time></trkpt><trkpt lat="41.4113212083679" lon="13.981332474559759"><ele>121.66666666666666</ele><time>2026-04-12T09:46:04Z</time></trkpt><trkpt lat="41.411444843022586" lon="13.981133977388504"><ele>121.33333333333334</ele><time>2026-04-12T09:46:05Z</time></trkpt><trkpt lat="41.41157723134018" lon="13.980927537222962"><ele>121.0</ele><time>2026-04-12T09:46:06Z</time></trkpt><trkpt lat="41.411702554132944" lon="13.980682491983035"><ele>121.0</ele><time>2026-04-12T09:46:07Z</time></trkpt><trkpt lat="41.41183195438599" lon="13.980511574352526"><ele>121.0</ele><time>2026-04-12T09:46:08Z</time></trkpt><trkpt lat="41.41192943577192" lon="13.980373176194892"><ele>121.0</ele><time>2026-04-12T09:46:09Z</time></trkpt><trkpt lat="41.41200275420254" lon="13.980261658675053"><ele>121.0</ele><time>2026-04-12T09:46:10Z</time></trkpt><trkpt lat="41.412044145095216" lon="13.980183232280826"><ele>121.0</ele><time>2026-04-12T09:46:11Z</time></trkpt><trkpt lat="41.41210044523766" lon="13.980082752627263"><ele>121.0</ele><time>2026-04-12T09:46:12Z</time></trkpt><trkpt lat="41.41214847576326" lon="13.980014209512001"><ele>121.0</ele><time>2026-04-12T09:46:14Z</time></trkpt><trkpt lat="41.41218535879759" lon="13.97992436703666"><ele>121.0</ele><time>2026-04-12T09:46:16Z</time></trkpt><trkpt lat="41.412008868071844" lon="13.979731499034308"><ele>119.75</ele><time>2026-04-12T09:46:17Z</time></trkpt><trkpt lat="41.41194555511505" lon="13.979595495274472"><ele>118.5</ele><time>2026-04-12T09:46:18Z</time></trkpt><trkpt lat="41.41188541244217" lon="13.97944311943964"><ele>117.25</ele><time>2026-04-12T09:46:19Z</time></trkpt><trkpt lat="41.4118302352079" lon="13.97928450364847"><ele>116.0</ele><time>2026-04-12T09:46:20Z</time></trkpt><trkpt lat="41.41180605439593" lon="13.979183465200638"><ele>115.4</ele><time>2026-04-12T09:46:21Z</time></trkpt><trkpt lat="41.41176912817782" lon="13.979048265418147"><ele>114.8</ele><time>2026-04-12T09:46:23Z</time></trkpt><trkpt lat="41.41179934421577" lon="13.978925389567303"><ele>114.20000000000002</ele><time>2026-04-12T09:46:25Z</time></trkpt><trkpt lat="41.411726554241355" lon="13.978855569346447"><ele>113.60000000000001</ele><time>2026-04-12T09:46:29Z</time></trkpt><trkpt lat="41.41162663066534" lon="13.978766361293436"><ele>113.0</ele><time>2026-04-12T09:46:31Z</time></trkpt><trkpt lat="41.41159907011308" lon="13.978671762062776"><ele>112.99999999999999</ele><time>2026-04-12T09:46:32Z</time></trkpt><trkpt lat="41.411551185502134" lon="13.978564429829971"><ele>113.0</ele><time>2026-04-12T09:46:34Z</time></trkpt><trkpt lat="41.41147926274066" lon="13.978493966131326"><ele>113.0</ele><time>2026-04-12T09:46:37Z</time></trkpt><trkpt lat="41.41137977355907" lon="13.978406198610092"><ele>113.0</ele><time>2026-04-12T09:46:39Z</time></trkpt><trkpt lat="41.41134469942062" lon="13.978327070319704"><ele>112.99999999999999</ele><time>2026-04-12T09:46:41Z</time></trkpt><trkpt lat="41.411299759787745" lon="13.978263879306356"><ele>113.0</ele><time>2026-04-12T09:46:42Z</time></trkpt><trkpt lat="41.41138103745658" lon="13.978109635803225"><ele>112.83333333333333</ele><time>2026-04-12T09:46:43Z</time></trkpt><trkpt lat="41.41142355082384" lon="13.97800272995882"><ele>112.66666666666666</ele><time>2026-04-12T09:46:44Z</time></trkpt><trkpt lat="41.41148638630811" lon="13.977895726051011"><ele>112.5</ele><time>2026-04-12T09:46:45Z</time></trkpt><trkpt lat="41.41154714510514" lon="13.9778289314417"><ele>112.33333333333334</ele><time>2026-04-12T09:46:46Z</time></trkpt><trkpt lat="41.411612241648555" lon="13.977760741481575"><ele>112.16666666666667</ele><time>2026-04-12T09:46:47Z</time></trkpt><trkpt lat="41.411666255865946" lon="13.9777068230822"><ele>112.0</ele><time>2026-04-12T09:46:49Z</time></trkpt><trkpt lat="41.411702247890254" lon="13.977613359804417"><ele>111.25</ele><time>2026-04-12T09:46:52Z</time></trkpt><trkpt lat="41.41170659053497" lon="13.977416019361149"><ele>110.5</ele><time>2026-04-12T09:46:54.001Z</time></trkpt><trkpt lat="41.41165106419172" lon="13.977275264208872"><ele>109.75</ele><time>2026-04-12T09:46:56.001Z</time></trkpt><trkpt lat="41.41165141096309" lon="13.977082989850595"><ele>109.0</ele><time>2026-04-12T09:46:58.001Z</time></trkpt><trkpt lat="41.41164413073669" lon="13.976986434166188"><ele>109.00000000000001</ele><time>2026-04-12T09:46:59.001Z</time></trkpt><trkpt lat="41.41163375298437" lon="13.976858794913277"><ele>109.0</ele><time>2026-04-12T09:47:00.001Z</time></trkpt><trkpt lat="41.41158817253012" lon="13.976749249462344"><ele>109.0</ele><time>2026-04-12T09:47:02.001Z</time></trkpt><trkpt lat="41.41148711649027" lon="13.97671097371329"><ele>109.0</ele><time>2026-04-12T09:47:04.001Z</time></trkpt><trkpt lat="41.41147386420447" lon="13.97660391417998"><ele>109.00000000000001</ele><time>2026-04-12T09:47:06.001Z</time></trkpt><trkpt lat="41.41148451550643" lon="13.976520729699237"><ele>109.0</ele><time>2026-04-12T09:47:07.001Z</time></trkpt><trkpt lat="41.41151758811681" lon="13.976447321929193"><ele>108.16666666666667</ele><time>2026-04-12T09:47:09.001Z</time></trkpt><trkpt lat="41.41158738834613" lon="13.97636567618973"><ele>107.33333333333334</ele><time>2026-04-12T09:47:19.001Z</time></trkpt><trkpt lat="41.41168622322046" lon="13.976332727225815"><ele>106.5</ele><time>2026-04-12T09:47:21.001Z</time></trkpt><trkpt lat="41.411751254767545" lon="13.976275661887017"><ele>105.66666666666666</ele><time>2026-04-12T09:47:23.001Z</time></trkpt><trkpt lat="41.41177912345876" lon="13.976179364795895"><ele>104.83333333333333</ele><time>2026-04-12T09:47:24.001Z</time></trkpt><trkpt lat="41.4118100233674" lon="13.97609829347228"><ele>104.0</ele><time>2026-04-12T09:47:25.001Z</time></trkpt><trkpt lat="41.41184140918103" lon="13.975978481417759"><ele>103.99999999999999</ele><time>2026-04-12T09:47:27.001Z</time></trkpt><trkpt lat="41.411826980923166" lon="13.975896249865595"><ele>104.0</ele><time>2026-04-12T09:47:28.001Z</time></trkpt><trkpt lat="41.41183271338966" lon="13.975805807209714"><ele>104.0</ele><time>2026-04-12T09:47:29.001Z</time></trkpt><trkpt lat="41.41182769293071" lon="13.975701112546103"><ele>104.0</ele><time>2026-04-12T09:47:30.001Z</time></trkpt><trkpt lat="41.41180500410522" lon="13.97562255607907"><ele>103.99999999999999</ele><time>2026-04-12T09:47:31.001Z</time></trkpt><trkpt lat="41.41179988987025" lon="13.97553523338711"><ele>104.0</ele><time>2026-04-12T09:47:32.001Z</time></trkpt><trkpt lat="41.411779335042" lon="13.975382809606412"><ele>104.33333333333333</ele><time>2026-04-12T09:47:34.001Z</time></trkpt><trkpt lat="41.41177228396851" lon="13.97522798686588"><ele>104.66666666666666</ele><time>2026-04-12T09:47:36.001Z</time></trkpt><trkpt lat="41.411787507029736" lon="13.975136391093747"><ele>105.0</ele><time>2026-04-12T09:47:39.001Z</time></trkpt><trkpt lat="41.41175735136657" lon="13.975050598356026"><ele>105.33333333333334</ele><time>2026-04-12T09:47:42.001Z</time></trkpt><trkpt lat="41.41169067192289" lon="13.975126597233944"><ele>105.66666666666667</ele><time>2026-04-12T09:47:44.001Z</time></trkpt><trkpt lat="41.41159584786757" lon="13.975171976856377"><ele>106.0</ele><time>2026-04-12T09:47:46.001Z</time></trkpt><trkpt lat="41.41154816519267" lon="13.975278045269265"><ele>106.00000000000001</ele><time>2026-04-12T09:47:48.001Z</time></trkpt><trkpt lat="41.41148476123552" lon="13.97525879360455"><ele>106.0</ele><time>2026-04-12T09:47:52.001Z</time></trkpt><trkpt lat="41.41144991042548" lon="13.975183337603195"><ele>106.0</ele><time>2026-04-12T09:48:11Z</time></trkpt><trkpt lat="41.41148584260035" lon="13.975084429881887"><ele>106.0</ele><time>2026-04-12T09:48:12Z</time></trkpt><trkpt lat="41.41151405978418" lon="13.974997871331652"><ele>106.00000000000001</ele><time>2026-04-12T09:48:13Z</time></trkpt><trkpt lat="41.41157184719895" lon="13.974881960824916"><ele>106.0</ele><time>2026-04-12T09:48:14Z</time></trkpt><trkpt lat="41.411652220097366" lon="13.97470318920924"><ele>107.25</ele><time>2026-04-12T09:48:15Z</time></trkpt><trkpt lat="41.41175218085648" lon="13.97453524559027"><ele>108.5</ele><time>2026-04-12T09:48:16Z</time></trkpt><trkpt lat="41.411810982772394" lon="13.974394894264428"><ele>109.75</ele><time>2026-04-12T09:48:17Z</time></trkpt><trkpt lat="41.41188413152199" lon="13.97423188886258"><ele>111.0</ele><time>2026-04-12T09:48:19Z</time></trkpt><trkpt lat="41.411938997643354" lon="13.974133540651794"><ele>111.6</ele><time>2026-04-12T09:48:20Z</time></trkpt><trkpt lat="41.41198331259964" lon="13.974054105538153"><ele>112.19999999999999</ele><time>2026-04-12T09:48:21Z</time></trkpt><trkpt lat="41.41199914310467" lon="13.973927477417584"><ele>112.80000000000001</ele><time>2026-04-12T09:48:22Z</time></trkpt><trkpt lat="41.412028712976465" lon="13.973827827409032"><ele>113.4</ele><time>2026-04-12T09:48:23Z</time></trkpt><trkpt lat="41.41207637564933" lon="13.973742862658785"><ele>114.0</ele><time>2026-04-12T09:48:24Z</time></trkpt><trkpt lat="41.412174590969315" lon="13.973623580220078"><ele>111.66666666666666</ele><time>2026-04-12T09:48:25Z</time></trkpt><trkpt lat="41.412278776526755" lon="13.97344087566033"><ele>109.33333333333333</ele><time>2026-04-12T09:48:26Z</time></trkpt><trkpt lat="41.4123737486136" lon="13.97327671227593"><ele>107.0</ele><time>2026-04-12T09:48:27Z</time></trkpt><trkpt lat="41.41245939660088" lon="13.973130761337117"><ele>107.0</ele><time>2026-04-12T09:48:28Z</time></trkpt><trkpt lat="41.41253522013545" lon="13.97300200860741"><ele>107.0</ele><time>2026-04-12T09:48:29Z</time></trkpt><trkpt lat="41.41261407348627" lon="13.972903114531345"><ele>107.0</ele><time>2026-04-12T09:48:30Z</time></trkpt><trkpt lat="41.412718366553044" lon="13.972788343374527"><ele>107.0</ele><time>2026-04-12T09:48:31Z</time></trkpt><trkpt lat="41.41280846902928" lon="13.972689720172555"><ele>107.0</ele><time>2026-04-12T09:48:32Z</time></trkpt><trkpt lat="41.41287261760805" lon="13.972590824196194"><ele>106.99999999999999</ele><time>2026-04-12T09:48:33Z</time></trkpt><trkpt lat="41.41290080592745" lon="13.972502403043102"><ele>106.99999999999999</ele><time>2026-04-12T09:48:34Z</time></trkpt><trkpt lat="41.41294035159034" lon="13.972376560037434"><ele>107.0</ele><time>2026-04-12T09:48:35Z</time></trkpt><trkpt lat="41.41296932071551" lon="13.972222554050576"><ele>107.0</ele><time>2026-04-12T09:48:36Z</time></trkpt><trkpt lat="41.413021301284246" lon="13.972030287388767"><ele>106.5</ele><time>2026-04-12T09:48:37Z</time></trkpt><trkpt lat="41.413060862534444" lon="13.971869579220384"><ele>106.0</ele><time>2026-04-12T09:48:38Z</time></trkpt><trkpt lat="41.41307767427337" lon="13.971695564527396"><ele>105.5</ele><time>2026-04-12T09:48:39Z</time></trkpt><trkpt lat="41.41306523672079" lon="13.971546474719839"><ele>105.0</ele><time>2026-04-12T09:48:40Z</time></trkpt><trkpt lat="41.41304149741086" lon="13.971390011909467"><ele>105.0</ele><time>2026-04-12T09:48:41Z</time></trkpt><trkpt lat="41.41302247548867" lon="13.971240714479459"><ele>105.0</ele><time>2026-04-12T09:48:42Z</time></trkpt><trkpt lat="41.413014495724056" lon="13.971085274097968"><ele>105.0</ele><time>2026-04-12T09:48:43Z</time></trkpt><trkpt lat="41.412971668322285" lon="13.970952305535242"><ele>105.0</ele><time>2026-04-12T09:48:44Z</time></trkpt><trkpt lat="41.412953051250966" lon="13.970801126603453"><ele>105.0</ele><time>2026-04-12T09:48:45Z</time></trkpt><trkpt lat="41.41295365213624" lon="13.970682676092267"><ele>105.0</ele><time>2026-04-12T09:48:46Z</time></trkpt><trkpt lat="41.412985864421806" lon="13.970558664914044"><ele>105.0</ele><time>2026-04-12T09:48:47Z</time></trkpt><trkpt lat="41.41302365879999" lon="13.970391347990986"><ele>105.0</ele><time>2026-04-12T09:48:48Z</time></trkpt><trkpt lat="41.413020199599295" lon="13.970204491875608"><ele>105.25</ele><time>2026-04-12T09:48:49Z</time></trkpt><trkpt lat="41.413035429687135" lon="13.970018632070012"><ele>105.5</ele><time>2026-04-12T09:48:50Z</time></trkpt><trkpt lat="41.41304685357642" lon="13.969882387115756"><ele>105.75</ele><time>2026-04-12T09:48:51Z</time></trkpt><trkpt lat="41.41308990282014" lon="13.969768087607065"><ele>106.0</ele><time>2026-04-12T09:48:52Z</time></trkpt><trkpt lat="41.41317028070457" lon="13.969652098526439"><ele>106.0</ele><time>2026-04-12T09:48:53Z</time></trkpt><trkpt lat="41.41321992541224" lon="13.96952961959773"><ele>106.0</ele><time>2026-04-12T09:48:54Z</time></trkpt><trkpt lat="41.41326428297192" lon="13.96940418507338"><ele>106.0</ele><time>2026-04-12T09:48:55Z</time></trkpt><trkpt lat="41.41328664549348" lon="13.96928172516376"><ele>106.0</ele><time>2026-04-12T09:48:56Z</time></trkpt><trkpt lat="41.41328287682459" lon="13.969197067689889"><ele>106.0</ele><time>2026-04-12T09:48:57Z</time></trkpt><trkpt lat="41.413247595202456" lon="13.969072640322372"><ele>105.4</ele><time>2026-04-12T09:48:59Z</time></trkpt><trkpt lat="41.41313152266481" lon="13.969015728277526"><ele>104.8</ele><time>2026-04-12T09:49:01.001Z</time></trkpt><trkpt lat="41.41303773569566" lon="13.96898178157719"><ele>104.2</ele><time>2026-04-12T09:49:02.001Z</time></trkpt><trkpt lat="41.412948575129846" lon="13.968947101875454"><ele>103.60000000000001</ele><time>2026-04-12T09:49:03.001Z</time></trkpt><trkpt lat="41.41289729124658" lon="13.968880619902293"><ele>103.0</ele><time>2026-04-12T09:49:04.001Z</time></trkpt><trkpt lat="41.412834674886454" lon="13.968807591126703"><ele>103.0</ele><time>2026-04-12T09:49:05.001Z</time></trkpt><trkpt lat="41.41275977048528" lon="13.968750925651658"><ele>103.0</ele><time>2026-04-12T09:49:06.001Z</time></trkpt><trkpt lat="41.41270969012229" lon="13.96868409150393"><ele>103.0</ele><time>2026-04-12T09:49:08.001Z</time></trkpt><trkpt lat="41.41280511290756" lon="13.968726231486599"><ele>103.0</ele><time>2026-04-12T09:49:10.001Z</time></trkpt><trkpt lat="41.41298591089323" lon="13.968659831009377"><ele>103.0</ele><time>2026-04-12T09:49:12.001Z</time></trkpt><trkpt lat="41.41309101083336" lon="13.968581916201785"><ele>103.0</ele><time>2026-04-12T09:49:13.001Z</time></trkpt><trkpt lat="41.41321778608372" lon="13.968503670203186"><ele>103.0</ele><time>2026-04-12T09:49:14.001Z</time></trkpt><trkpt lat="41.41334145680328" lon="13.968402125029803"><ele>103.0</ele><time>2026-04-12T09:49:15.001Z</time></trkpt><trkpt lat="41.41348435449646" lon="13.968210852138464"><ele>103.33333333333334</ele><time>2026-04-12T09:49:16.001Z</time></trkpt><trkpt lat="41.41363218583459" lon="13.967971854731303"><ele>103.66666666666666</ele><time>2026-04-12T09:49:17.001Z</time></trkpt><trkpt lat="41.413776667914505" lon="13.96775745990371"><ele>104.0</ele><time>2026-04-12T09:49:18.001Z</time></trkpt><trkpt lat="41.413909649377196" lon="13.96764304586366"><ele>104.25</ele><time>2026-04-12T09:49:19.001Z</time></trkpt><trkpt lat="41.41404092433351" lon="13.967571426513967"><ele>104.5</ele><time>2026-04-12T09:49:20.001Z</time></trkpt><trkpt lat="41.41416648231071" lon="13.967505652192234"><ele>104.75</ele><time>2026-04-12T09:49:21.001Z</time></trkpt><trkpt lat="41.41427611433182" lon="13.967406251869933"><ele>105.0</ele><time>2026-04-12T09:49:22.001Z</time></trkpt><trkpt lat="41.41438400116387" lon="13.96727055548261"><ele>105.4</ele><time>2026-04-12T09:49:23.001Z</time></trkpt><trkpt lat="41.41448346324244" lon="13.967155611539386"><ele>105.8</ele><time>2026-04-12T09:49:24.001Z</time></trkpt><trkpt lat="41.414567741556546" lon="13.967039823656274"><ele>106.19999999999999</ele><time>2026-04-12T09:49:25.001Z</time></trkpt><trkpt lat="41.414630735044405" lon="13.96698353352322"><ele>106.6</ele><time>2026-04-12T09:49:26.001Z</time></trkpt><trkpt lat="41.414711006734656" lon="13.966969457135836"><ele>107.0</ele><time>2026-04-12T09:49:28.001Z</time></trkpt><trkpt lat="41.414826972146905" lon="13.967063536167974"><ele>107.0</ele><time>2026-04-12T09:49:30.001Z</time></trkpt><trkpt lat="41.414903605037075" lon="13.967094674124258"><ele>107.0</ele><time>2026-04-12T09:49:31.001Z</time></trkpt><trkpt lat="41.41499894151" lon="13.967029415189543"><ele>107.0</ele><time>2026-04-12T09:49:33.001Z</time></trkpt><trkpt lat="41.41504690309678" lon="13.96685139720957"><ele>107.0</ele><time>2026-04-12T09:49:35.001Z</time></trkpt><trkpt lat="41.41506860307044" lon="13.966677927737726"><ele>106.99999999999999</ele><time>2026-04-12T09:49:36.001Z</time></trkpt><trkpt lat="41.41508502844038" lon="13.96652952170353"><ele>107.0</ele><time>2026-04-12T09:49:37.001Z</time></trkpt><trkpt lat="41.41508453545015" lon="13.966440072003483"><ele>107.0</ele><time>2026-04-12T09:49:38.001Z</time></trkpt><trkpt lat="41.41513328008978" lon="13.96635554214586"><ele>107.0</ele><time>2026-04-12T09:49:40.001Z</time></trkpt><trkpt lat="41.415216830046916" lon="13.966459798710172"><ele>106.99999999999999</ele><time>2026-04-12T09:49:42.001Z</time></trkpt><trkpt lat="41.41525747232002" lon="13.966533394903262"><ele>107.0</ele><time>2026-04-12T09:49:43.001Z</time></trkpt><trkpt lat="41.41538836604726" lon="13.966674637865188"><ele>105.0</ele><time>2026-04-12T09:49:45.001Z</time></trkpt><trkpt lat="41.41552231421134" lon="13.9669136023359"><ele>103.0</ele><time>2026-04-12T09:49:46.001Z</time></trkpt><trkpt lat="41.41558203150771" lon="13.967076465100149"><ele>101.0</ele><time>2026-04-12T09:49:47.001Z</time></trkpt><trkpt lat="41.41562838440406" lon="13.967289575347584"><ele>100.66666666666666</ele><time>2026-04-12T09:49:48.001Z</time></trkpt><trkpt lat="41.41568508649827" lon="13.967563161736347"><ele>100.33333333333334</ele><time>2026-04-12T09:49:49.001Z</time></trkpt><trkpt lat="41.41573566916517" lon="13.96780722186852"><ele>100.0</ele><time>2026-04-12T09:49:50.001Z</time></trkpt><trkpt lat="41.41578898697253" lon="13.968056259959708"><ele>100.0</ele><time>2026-04-12T09:49:51.001Z</time></trkpt><trkpt lat="41.41584471057732" lon="13.968316965164073"><ele>100.0</ele><time>2026-04-12T09:49:52.001Z</time></trkpt><trkpt lat="41.4159018226032" lon="13.968581036239486"><ele>100.0</ele><time>2026-04-12T09:49:53.001Z</time></trkpt><trkpt lat="41.41595576686906" lon="13.968829916553965"><ele>99.75</ele><time>2026-04-12T09:49:54.001Z</time></trkpt><trkpt lat="41.41600245344483" lon="13.969044985996415"><ele>99.5</ele><time>2026-04-12T09:49:55.001Z</time></trkpt><trkpt lat="41.41605256334535" lon="13.969223960193325"><ele>99.25</ele><time>2026-04-12T09:49:56.001Z</time></trkpt><trkpt lat="41.41607967139999" lon="13.96937428349206"><ele>99.0</ele><time>2026-04-12T09:49:57.001Z</time></trkpt><trkpt lat="41.41608488542611" lon="13.969506032501329"><ele>99.0</ele><time>2026-04-12T09:49:58.001Z</time></trkpt><trkpt lat="41.416094643825645" lon="13.969608937503601"><ele>99.0</ele><time>2026-04-12T09:49:59.001Z</time></trkpt><trkpt lat="41.41609629574181" lon="13.969703417836628"><ele>99.0</ele><time>2026-04-12T09:50:01.001Z</time></trkpt><trkpt lat="41.41624264127815" lon="13.969741686390295"><ele>99.0</ele><time>2026-04-12T09:50:03.001Z</time></trkpt><trkpt lat="41.41633620806199" lon="13.969699555159242"><ele>99.0</ele><time>2026-04-12T09:50:04.001Z</time></trkpt><trkpt lat="41.41641295252663" lon="13.969664998679994"><ele>98.16666666666667</ele><time>2026-04-12T09:50:05.001Z</time></trkpt><trkpt lat="41.41648382840612" lon="13.969634375182615"><ele>97.33333333333333</ele><time>2026-04-12T09:50:06Z</time></trkpt><trkpt lat="41.41655489319389" lon="13.969603670020062"><ele>96.5</ele><time>2026-04-12T09:50:07Z</time></trkpt><trkpt lat="41.41661238812944" lon="13.969556984955773"><ele>95.66666666666666</ele><time>2026-04-12T09:50:08Z</time></trkpt><trkpt lat="41.41668971928879" lon="13.96953236342579"><ele>94.83333333333333</ele><time>2026-04-12T09:50:09Z</time></trkpt><trkpt lat="41.41676957352563" lon="13.96949512607192"><ele>94.0</ele><time>2026-04-12T09:50:10Z</time></trkpt><trkpt lat="41.41684266408981" lon="13.969457461727268"><ele>94.0</ele><time>2026-04-12T09:50:11Z</time></trkpt><trkpt lat="41.41689677247305" lon="13.969410179544074"><ele>94.0</ele><time>2026-04-12T09:50:12Z</time></trkpt><trkpt lat="41.4169486492294" lon="13.969344063101246"><ele>94.0</ele><time>2026-04-12T09:50:13Z</time></trkpt><trkpt lat="41.416944536513476" lon="13.9692020155258"><ele>94.0</ele><time>2026-04-12T09:50:14Z</time></trkpt><trkpt lat="41.41692709440152" lon="13.96906673075419"><ele>94.0</ele><time>2026-04-12T09:50:15Z</time></trkpt><trkpt lat="41.41691490639375" lon="13.968923118238205"><ele>94.25</ele><time>2026-04-12T09:50:16Z</time></trkpt><trkpt lat="41.41688895468801" lon="13.968769434431318"><ele>94.5</ele><time>2026-04-12T09:50:17Z</time></trkpt><trkpt lat="41.4168529784056" lon="13.96860856812368"><ele>94.75</ele><time>2026-04-12T09:50:18Z</time></trkpt><trkpt lat="41.41680745632069" lon="13.9684205962083"><ele>95.0</ele><time>2026-04-12T09:50:19Z</time></trkpt><trkpt lat="41.4167563231296" lon="13.96823458080285"><ele>97.0</ele><time>2026-04-12T09:50:20Z</time></trkpt><trkpt lat="41.4166968987177" lon="13.968044865977372"><ele>99.0</ele><time>2026-04-12T09:50:21Z</time></trkpt><trkpt lat="41.41662272266161" lon="13.967866750406593"><ele>101.0</ele><time>2026-04-12T09:50:22Z</time></trkpt><trkpt lat="41.41656733856537" lon="13.96768578097117"><ele>103.19999999999999</ele><time>2026-04-12T09:50:23Z</time></trkpt><trkpt lat="41.41654956468086" lon="13.96752091434258"><ele>105.39999999999999</ele><time>2026-04-12T09:50:24Z</time></trkpt><trkpt lat="41.41654316388232" lon="13.967401392840545"><ele>107.6</ele><time>2026-04-12T09:50:25Z</time></trkpt><trkpt lat="41.416607908077914" lon="13.967294157465302"><ele>109.8</ele><time>2026-04-12T09:50:26Z</time></trkpt><trkpt lat="41.41665425765395" lon="13.967151337143678"><ele>112.0</ele><time>2026-04-12T09:50:27Z</time></trkpt><trkpt lat="41.41668765767982" lon="13.966996171176604"><ele>112.0</ele><time>2026-04-12T09:50:28Z</time></trkpt><trkpt lat="41.41671521429701" lon="13.966832850484595"><ele>111.99999999999999</ele><time>2026-04-12T09:50:29Z</time></trkpt><trkpt lat="41.416747108291325" lon="13.966666507630217"><ele>111.99999999999999</ele><time>2026-04-12T09:50:30Z</time></trkpt><trkpt lat="41.416776402615" lon="13.966526683515847"><ele>112.0</ele><time>2026-04-12T09:50:31Z</time></trkpt><trkpt lat="41.41679847223707" lon="13.966426048750376"><ele>112.0</ele><time>2026-04-12T09:50:32Z</time></trkpt><trkpt lat="41.416817352497716" lon="13.966345081725683"><ele>112.0</ele><time>2026-04-12T09:50:33Z</time></trkpt><trkpt lat="41.41684053530929" lon="13.966226933681638"><ele>111.99999999999999</ele><time>2026-04-12T09:50:35Z</time></trkpt><trkpt lat="41.41685658546828" lon="13.966141179952825"><ele>111.99999999999999</ele><time>2026-04-12T09:50:37Z</time></trkpt><trkpt lat="41.41686841268572" lon="13.966047625898678"><ele>112.0</ele><time>2026-04-12T09:50:38Z</time></trkpt><trkpt lat="41.416914658893766" lon="13.965852748899145"><ele>112.0</ele><time>2026-04-12T09:50:40Z</time></trkpt><trkpt lat="41.416940662434484" lon="13.965712185768751"><ele>110.5</ele><time>2026-04-12T09:50:41Z</time></trkpt><trkpt lat="41.416970622043614" lon="13.965540604554272"><ele>109.0</ele><time>2026-04-12T09:50:42Z</time></trkpt><trkpt lat="41.41700137354317" lon="13.965360757587577"><ele>107.5</ele><time>2026-04-12T09:50:43Z</time></trkpt><trkpt lat="41.41703872317876" lon="13.96515862590544"><ele>106.0</ele><time>2026-04-12T09:50:44Z</time></trkpt><trkpt lat="41.41708067558435" lon="13.96496732975903"><ele>105.0</ele><time>2026-04-12T09:50:45Z</time></trkpt><trkpt lat="41.41713274196021" lon="13.964787148722758"><ele>104.0</ele><time>2026-04-12T09:50:46Z</time></trkpt><trkpt lat="41.41720581544228" lon="13.964611326045098"><ele>103.0</ele><time>2026-04-12T09:50:47Z</time></trkpt><trkpt lat="41.41729073163447" lon="13.964443786386699"><ele>102.0</ele><time>2026-04-12T09:50:48Z</time></trkpt><trkpt lat="41.4173798035722" lon="13.964280685884088"><ele>107.0</ele><time>2026-04-12T09:50:49Z</time></trkpt><trkpt lat="41.41746468790462" lon="13.964114667391499"><ele>112.0</ele><time>2026-04-12T09:50:50Z</time></trkpt><trkpt lat="41.4175543405869" lon="13.963943961387162"><ele>117.0</ele><time>2026-04-12T09:50:51Z</time></trkpt><trkpt lat="41.4176363019797" lon="13.963779440692074"><ele>117.0</ele><time>2026-04-12T09:50:52Z</time></trkpt><trkpt lat="41.4177269875696" lon="13.963610813864525"><ele>117.0</ele><time>2026-04-12T09:50:53Z</time></trkpt><trkpt lat="41.41781317990267" lon="13.963438466928364"><ele>117.0</ele><time>2026-04-12T09:50:54Z</time></trkpt><trkpt lat="41.417893174392596" lon="13.96325224305551"><ele>121.66666666666666</ele><time>2026-04-12T09:50:55Z</time></trkpt><trkpt lat="41.41796078109789" lon="13.963047219505244"><ele>126.33333333333333</ele><time>2026-04-12T09:50:56.001Z</time></trkpt><trkpt lat="41.4180163525952" lon="13.962833276870125"><ele>131.0</ele><time>2026-04-12T09:50:57.001Z</time></trkpt><trkpt lat="41.41807225596151" lon="13.962628815715698"><ele>125.66666666666666</ele><time>2026-04-12T09:50:58.001Z</time></trkpt><trkpt lat="41.41813961332915" lon="13.962401551527684"><ele>120.33333333333334</ele><time>2026-04-12T09:50:59.001Z</time></trkpt><trkpt lat="41.41820813424952" lon="13.962191254695112"><ele>115.0</ele><time>2026-04-12T09:51:00.001Z</time></trkpt><trkpt lat="41.41828463216295" lon="13.96199662909358"><ele>115.0</ele><time>2026-04-12T09:51:01.001Z</time></trkpt><trkpt lat="41.418377913184166" lon="13.96181160754919"><ele>115.0</ele><time>2026-04-12T09:51:02.001Z</time></trkpt><trkpt lat="41.418479639412816" lon="13.96162857761504"><ele>115.0</ele><time>2026-04-12T09:51:03.001Z</time></trkpt><trkpt lat="41.41858427407101" lon="13.96142861632018"><ele>110.33333333333334</ele><time>2026-04-12T09:51:04.001Z</time></trkpt><trkpt lat="41.41869795461271" lon="13.961219724487679"><ele>105.66666666666666</ele><time>2026-04-12T09:51:05.001Z</time></trkpt><trkpt lat="41.418790619869185" lon="13.961066912976909"><ele>101.0</ele><time>2026-04-12T09:51:06.001Z</time></trkpt><trkpt lat="41.418873880327894" lon="13.960884908476993"><ele>106.66666666666666</ele><time>2026-04-12T09:51:07.001Z</time></trkpt><trkpt lat="41.41895407236861" lon="13.960710839098985"><ele>112.33333333333334</ele><time>2026-04-12T09:51:08.001Z</time></trkpt><trkpt lat="41.41903487167561" lon="13.960538035934718"><ele>118.0</ele><time>2026-04-12T09:51:09.001Z</time></trkpt><trkpt lat="41.41911510541769" lon="13.960351447643117"><ele>118.0</ele><time>2026-04-12T09:51:10.001Z</time></trkpt><trkpt lat="41.419207311648385" lon="13.960171678042427"><ele>118.0</ele><time>2026-04-12T09:51:11.001Z</time></trkpt><trkpt lat="41.419308887171205" lon="13.959988355989255"><ele>118.0</ele><time>2026-04-12T09:51:12.001Z</time></trkpt><trkpt lat="41.41940430219838" lon="13.959806724993696"><ele>112.33333333333334</ele><time>2026-04-12T09:51:13.001Z</time></trkpt><trkpt lat="41.41949850175889" lon="13.959628643467076"><ele>106.66666666666666</ele><time>2026-04-12T09:51:14.001Z</time></trkpt><trkpt lat="41.41959205875358" lon="13.959461303687924"><ele>101.0</ele><time>2026-04-12T09:51:15.001Z</time></trkpt><trkpt lat="41.41969009708687" lon="13.959292697448793"><ele>105.0</ele><time>2026-04-12T09:51:16.001Z</time></trkpt><trkpt lat="41.41979221747731" lon="13.959116646984992"><ele>109.0</ele><time>2026-04-12T09:51:17.001Z</time></trkpt><trkpt lat="41.41989383205586" lon="13.958951051164272"><ele>113.0</ele><time>2026-04-12T09:51:18.001Z</time></trkpt><trkpt lat="41.42000398501285" lon="13.958800455563969"><ele>113.0</ele><time>2026-04-12T09:51:19.001Z</time></trkpt><trkpt lat="41.42010899617511" lon="13.958660783434674"><ele>113.0</ele><time>2026-04-12T09:51:20.001Z</time></trkpt><trkpt lat="41.42021691466646" lon="13.95851001869785"><ele>113.0</ele><time>2026-04-12T09:51:21.001Z</time></trkpt><trkpt lat="41.42031642857816" lon="13.958374765935424"><ele>113.0</ele><time>2026-04-12T09:51:22.001Z</time></trkpt><trkpt lat="41.42043492652245" lon="13.958244878223399"><ele>115.25</ele><time>2026-04-12T09:51:23.001Z</time></trkpt><trkpt lat="41.42051669754353" lon="13.95808423324453"><ele>117.5</ele><time>2026-04-12T09:51:24.001Z</time></trkpt><trkpt lat="41.42059463472882" lon="13.957935494843607"><ele>119.75</ele><time>2026-04-12T09:51:25.001Z</time></trkpt><trkpt lat="41.420668979941205" lon="13.957754955046342"><ele>122.0</ele><time>2026-04-12T09:51:26.001Z</time></trkpt><trkpt lat="41.420738604819654" lon="13.957553391105881"><ele>116.33333333333333</ele><time>2026-04-12T09:51:27.001Z</time></trkpt><trkpt lat="41.42080688793837" lon="13.957346732979127"><ele>110.66666666666666</ele><time>2026-04-12T09:51:28.001Z</time></trkpt><trkpt lat="41.420877129069005" lon="13.957141624575646"><ele>105.0</ele><time>2026-04-12T09:51:29.001Z</time></trkpt><trkpt lat="41.42094600862492" lon="13.956947915610495"><ele>105.0</ele><time>2026-04-12T09:51:30.001Z</time></trkpt><trkpt lat="41.42101709805207" lon="13.956742701255735"><ele>105.0</ele><time>2026-04-12T09:51:31.001Z</time></trkpt><trkpt lat="41.42109094947716" lon="13.956550314976758"><ele>105.0</ele><time>2026-04-12T09:51:32.001Z</time></trkpt><trkpt lat="41.42116527517129" lon="13.956370774345052"><ele>105.5</ele><time>2026-04-12T09:51:33.001Z</time></trkpt><trkpt lat="41.4212333506719" lon="13.956205518471716"><ele>106.0</ele><time>2026-04-12T09:51:34.001Z</time></trkpt><trkpt lat="41.421294956667005" lon="13.956053087429254"><ele>106.5</ele><time>2026-04-12T09:51:35.001Z</time></trkpt><trkpt lat="41.42135258836812" lon="13.95588589060672"><ele>107.0</ele><time>2026-04-12T09:51:36.001Z</time></trkpt><trkpt lat="41.421406514098855" lon="13.955696028461947"><ele>107.0</ele><time>2026-04-12T09:51:37.001Z</time></trkpt><trkpt lat="41.42144138627491" lon="13.955525075259493"><ele>106.99999999999999</ele><time>2026-04-12T09:51:38.001Z</time></trkpt><trkpt lat="41.42147339924707" lon="13.955369733282652"><ele>106.99999999999999</ele><time>2026-04-12T09:51:39.001Z</time></trkpt><trkpt lat="41.42150114321422" lon="13.955241527965748"><ele>107.0</ele><time>2026-04-12T09:51:40.001Z</time></trkpt><trkpt lat="41.42152321208028" lon="13.95513609046927"><ele>107.0</ele><time>2026-04-12T09:51:41.001Z</time></trkpt><trkpt lat="41.4215380397497" lon="13.955031214394976"><ele>105.39999999999999</ele><time>2026-04-12T09:51:42.001Z</time></trkpt><trkpt lat="41.42152962437237" lon="13.954891777890511"><ele>103.79999999999998</ele><time>2026-04-12T09:51:44.001Z</time></trkpt><trkpt lat="41.42157202408214" lon="13.954766532038064"><ele>102.2</ele><time>2026-04-12T09:51:46.001Z</time></trkpt><trkpt lat="41.42158665337197" lon="13.95466342270356"><ele>100.6</ele><time>2026-04-12T09:51:47.001Z</time></trkpt><trkpt lat="41.42159636026679" lon="13.954563644884765"><ele>99.0</ele><time>2026-04-12T09:51:48.001Z</time></trkpt><trkpt lat="41.42160355573993" lon="13.954417186835581"><ele>99.0</ele><time>2026-04-12T09:51:49.001Z</time></trkpt><trkpt lat="41.421597745403425" lon="13.954287848943302"><ele>99.0</ele><time>2026-04-12T09:51:50.001Z</time></trkpt><trkpt lat="41.421603782528734" lon="13.95419824189237"><ele>99.0</ele><time>2026-04-12T09:51:51.001Z</time></trkpt><trkpt lat="41.42162810010659" lon="13.954096567306038"><ele>99.0</ele><time>2026-04-12T09:51:52.001Z</time></trkpt><trkpt lat="41.42165753259972" lon="13.953949826636157"><ele>99.0</ele><time>2026-04-12T09:51:53.001Z</time></trkpt><trkpt lat="41.421795006639286" lon="13.953824584227315"><ele>97.0</ele><time>2026-04-12T09:51:55.001Z</time></trkpt><trkpt lat="41.42187494060744" lon="13.953666914505417"><ele>95.0</ele><time>2026-04-12T09:51:56.001Z</time></trkpt><trkpt lat="41.42194565220428" lon="13.953443983131502"><ele>93.0</ele><time>2026-04-12T09:51:57.001Z</time></trkpt><trkpt lat="41.42198943668269" lon="13.953269197565767"><ele>91.5</ele><time>2026-04-12T09:51:58.001Z</time></trkpt><trkpt lat="41.42203113977114" lon="13.953088972190704"><ele>90.0</ele><time>2026-04-12T09:51:59.001Z</time></trkpt><trkpt lat="41.42207001650422" lon="13.952889935594671"><ele>88.5</ele><time>2026-04-12T09:52:00.001Z</time></trkpt><trkpt lat="41.42210355970154" lon="13.95270777822091"><ele>87.0</ele><time>2026-04-12T09:52:01.001Z</time></trkpt><trkpt lat="41.42213537154087" lon="13.952523918822388"><ele>91.0</ele><time>2026-04-12T09:52:02.001Z</time></trkpt><trkpt lat="41.42215813957533" lon="13.952387408980153"><ele>95.0</ele><time>2026-04-12T09:52:03.001Z</time></trkpt><trkpt lat="41.422184692482475" lon="13.952235233492763"><ele>98.99999999999999</ele><time>2026-04-12T09:52:04.001Z</time></trkpt><trkpt lat="41.422209000921285" lon="13.952098635999343"><ele>103.0</ele><time>2026-04-12T09:52:05.001Z</time></trkpt><trkpt lat="41.42222858268452" lon="13.951989179289145"><ele>107.0</ele><time>2026-04-12T09:52:06.001Z</time></trkpt><trkpt lat="41.42224402418971" lon="13.951902866101808"><ele>106.99999999999999</ele><time>2026-04-12T09:52:07.001Z</time></trkpt><trkpt lat="41.42225101658235" lon="13.951780928760945"><ele>107.0</ele><time>2026-04-12T09:52:09.001Z</time></trkpt><trkpt lat="41.42221074393527" lon="13.951703714675729"><ele>107.0</ele><time>2026-04-12T09:52:12Z</time></trkpt><trkpt lat="41.42231162828741" lon="13.951585337890439"><ele>107.0</ele><time>2026-04-12T09:52:15Z</time></trkpt><trkpt lat="41.4223579533254" lon="13.951510911936648"><ele>106.99999999999999</ele><time>2026-04-12T09:52:16Z</time></trkpt><trkpt lat="41.422425232486226" lon="13.951480279956968"><ele>107.0</ele><time>2026-04-12T09:52:18Z</time></trkpt><trkpt lat="41.42250602242958" lon="13.951397098162841"><ele>105.39999999999999</ele><time>2026-04-12T09:52:19Z</time></trkpt><trkpt lat="41.42259222746689" lon="13.951275965461752"><ele>103.79999999999998</ele><time>2026-04-12T09:52:20Z</time></trkpt><trkpt lat="41.42265585066113" lon="13.95118653887484"><ele>102.2</ele><time>2026-04-12T09:52:21Z</time></trkpt><trkpt lat="41.42269788841031" lon="13.9510666300215"><ele>100.6</ele><time>2026-04-12T09:52:22Z</time></trkpt><trkpt lat="41.4227297446611" lon="13.950955041188154"><ele>99.0</ele><time>2026-04-12T09:52:23Z</time></trkpt><trkpt lat="41.42281258699133" lon="13.950746061346164"><ele>97.75</ele><time>2026-04-12T09:52:24Z</time></trkpt><trkpt lat="41.42291561597911" lon="13.950535480354366"><ele>96.5</ele><time>2026-04-12T09:52:25Z</time></trkpt><trkpt lat="41.42298729916312" lon="13.950388274631763"><ele>95.25</ele><time>2026-04-12T09:52:26Z</time></trkpt><trkpt lat="41.42304194190532" lon="13.950288097368318"><ele>94.0</ele><time>2026-04-12T09:52:27Z</time></trkpt><trkpt lat="41.423102284129" lon="13.950174485894392"><ele>97.0</ele><time>2026-04-12T09:52:28Z</time></trkpt><trkpt lat="41.42310092532896" lon="13.950075227859154"><ele>100.0</ele><time>2026-04-12T09:52:29Z</time></trkpt><trkpt lat="41.42317557846107" lon="13.949914282995964"><ele>103.0</ele><time>2026-04-12T09:52:30Z</time></trkpt><trkpt lat="41.423179446011126" lon="13.94978962166014"><ele>106.0</ele><time>2026-04-12T09:52:31Z</time></trkpt><trkpt lat="41.42317231624644" lon="13.949702427258444"><ele>109.0</ele><time>2026-04-12T09:52:32Z</time></trkpt><trkpt lat="41.42324838359751" lon="13.949601218216793"><ele>109.0</ele><time>2026-04-12T09:52:34Z</time></trkpt><trkpt lat="41.42331639342282" lon="13.949502703614987"><ele>109.0</ele><time>2026-04-12T09:52:36Z</time></trkpt><trkpt lat="41.423365205977994" lon="13.949415382170649"><ele>109.0</ele><time>2026-04-12T09:52:37Z</time></trkpt><trkpt lat="41.4234150428308" lon="13.949230647426319"><ele>109.0</ele><time>2026-04-12T09:52:39Z</time></trkpt><trkpt lat="41.42344897474604" lon="13.949067842180881"><ele>107.4</ele><time>2026-04-12T09:52:40Z</time></trkpt><trkpt lat="41.4234781629777" lon="13.948912861263175"><ele>105.80000000000001</ele><time>2026-04-12T09:52:41Z</time></trkpt><trkpt lat="41.42353829110826" lon="13.948815750298895"><ele>104.19999999999999</ele><time>2026-04-12T09:52:42Z</time></trkpt><trkpt lat="41.42355469747726" lon="13.948688960925587"><ele>102.6</ele><time>2026-04-12T09:52:43Z</time></trkpt><trkpt lat="41.42360357095803" lon="13.948612955162046"><ele>101.0</ele><time>2026-04-12T09:52:44Z</time></trkpt><trkpt lat="41.42370205134419" lon="13.948470304944117"><ele>100.4</ele><time>2026-04-12T09:52:46Z</time></trkpt><trkpt lat="41.42375505047853" lon="13.948314496088722"><ele>99.8</ele><time>2026-04-12T09:52:47Z</time></trkpt><trkpt lat="41.42382332665884" lon="13.94823277986047"><ele>99.2</ele><time>2026-04-12T09:52:48Z</time></trkpt><trkpt lat="41.42389238336205" lon="13.9481536557054"><ele>98.60000000000001</ele><time>2026-04-12T09:52:49Z</time></trkpt><trkpt lat="41.423957512776255" lon="13.948092107959198"><ele>98.0</ele><time>2026-04-12T09:52:50Z</time></trkpt><trkpt lat="41.42400757635367" lon="13.947972910299859"><ele>99.0</ele><time>2026-04-12T09:52:51Z</time></trkpt><trkpt lat="41.42408431253281" lon="13.947899646723194"><ele>100.0</ele><time>2026-04-12T09:52:52Z</time></trkpt><trkpt lat="41.424108937983235" lon="13.94780091913359"><ele>101.0</ele><time>2026-04-12T09:52:53Z</time></trkpt><trkpt lat="41.42418022897253" lon="13.947701299700611"><ele>102.0</ele><time>2026-04-12T09:52:55Z</time></trkpt><trkpt lat="41.42424565851737" lon="13.94751805139814"><ele>103.0</ele><time>2026-04-12T09:52:57Z</time></trkpt><trkpt lat="41.424049906995315" lon="13.946762085125599"><ele>101.2</ele><time>2026-04-12T09:52:58Z</time></trkpt><trkpt lat="41.424126294681145" lon="13.946664901881665"><ele>99.4</ele><time>2026-04-12T09:52:59Z</time></trkpt><trkpt lat="41.424175175461066" lon="13.946555412893607"><ele>97.60000000000001</ele><time>2026-04-12T09:53:00Z</time></trkpt><trkpt lat="41.424242117936586" lon="13.946400692526021"><ele>95.80000000000001</ele><time>2026-04-12T09:53:01Z</time></trkpt><trkpt lat="41.42429171437401" lon="13.946269361528357"><ele>94.0</ele><time>2026-04-12T09:53:02Z</time></trkpt><trkpt lat="41.42432539284019" lon="13.94616857413309"><ele>94.0</ele><time>2026-04-12T09:53:03Z</time></trkpt><trkpt lat="41.42437305423139" lon="13.946062793365897"><ele>94.0</ele><time>2026-04-12T09:53:04Z</time></trkpt><trkpt lat="41.42443389179181" lon="13.945966382693026"><ele>94.0</ele><time>2026-04-12T09:53:05Z</time></trkpt><trkpt lat="41.42450870751038" lon="13.945859686305976"><ele>94.0</ele><time>2026-04-12T09:53:06Z</time></trkpt><trkpt lat="41.424581874998786" lon="13.945765279781861"><ele>94.0</ele><time>2026-04-12T09:53:07Z</time></trkpt><trkpt lat="41.42464237474463" lon="13.945673596227936"><ele>94.0</ele><time>2026-04-12T09:53:08Z</time></trkpt><trkpt lat="41.424729000108165" lon="13.945569918528447"><ele>94.0</ele><time>2026-04-12T09:53:09Z</time></trkpt><trkpt lat="41.42481871041576" lon="13.945464695819423"><ele>94.0</ele><time>2026-04-12T09:53:10Z</time></trkpt><trkpt lat="41.424903958157024" lon="13.945358070874274"><ele>94.0</ele><time>2026-04-12T09:53:11Z</time></trkpt><trkpt lat="41.42498313096282" lon="13.945257849530597"><ele>94.0</ele><time>2026-04-12T09:53:12Z</time></trkpt><trkpt lat="41.425050397346794" lon="13.945145423330318"><ele>94.0</ele><time>2026-04-12T09:53:13Z</time></trkpt><trkpt lat="41.42510972192417" lon="13.945045150879183"><ele>94.0</ele><time>2026-04-12T09:53:14Z</time></trkpt><trkpt lat="41.42517540347632" lon="13.944929259798325"><ele>94.0</ele><time>2026-04-12T09:53:15Z</time></trkpt><trkpt lat="41.425243215408756" lon="13.94483723415216"><ele>94.0</ele><time>2026-04-12T09:53:16Z</time></trkpt><trkpt lat="41.4252932930205" lon="13.944746918502593"><ele>93.66666666666666</ele><time>2026-04-12T09:53:17Z</time></trkpt><trkpt lat="41.42534721929019" lon="13.944676609093715"><ele>93.33333333333333</ele><time>2026-04-12T09:53:18Z</time></trkpt><trkpt lat="41.42539863551265" lon="13.944608165474893"><ele>93.0</ele><time>2026-04-12T09:53:19Z</time></trkpt><trkpt lat="41.42547809650741" lon="13.944514265445791"><ele>92.66666666666667</ele><time>2026-04-12T09:53:20Z</time></trkpt><trkpt lat="41.42555517505234" lon="13.944438997541646"><ele>92.33333333333334</ele><time>2026-04-12T09:53:21Z</time></trkpt><trkpt lat="41.42561098013638" lon="13.944376259213035"><ele>92.0</ele><time>2026-04-12T09:53:22.001Z</time></trkpt><trkpt lat="41.425683398261526" lon="13.944295766468548"><ele>90.6</ele><time>2026-04-12T09:53:23.001Z</time></trkpt><trkpt lat="41.425752248742064" lon="13.944187093459949"><ele>89.19999999999999</ele><time>2026-04-12T09:53:24.001Z</time></trkpt><trkpt lat="41.42582091644839" lon="13.944084116321896"><ele>87.8</ele><time>2026-04-12T09:53:25.001Z</time></trkpt><trkpt lat="41.42587648578158" lon="13.944012612682108"><ele>86.4</ele><time>2026-04-12T09:53:26.001Z</time></trkpt><trkpt lat="41.4259385778684" lon="13.943926351544448"><ele>85.0</ele><time>2026-04-12T09:53:27.001Z</time></trkpt><trkpt lat="41.42602163889318" lon="13.943818773485726"><ele>85.0</ele><time>2026-04-12T09:53:28.001Z</time></trkpt><trkpt lat="41.42610928427445" lon="13.943700148283797"><ele>85.0</ele><time>2026-04-12T09:53:29.001Z</time></trkpt><trkpt lat="41.42618579801782" lon="13.943625894589779"><ele>85.0</ele><time>2026-04-12T09:53:30.001Z</time></trkpt><trkpt lat="41.4262634473563" lon="13.943551820444792"><ele>85.0</ele><time>2026-04-12T09:53:31.001Z</time></trkpt><trkpt lat="41.42634963627185" lon="13.943479059320593"><ele>85.0</ele><time>2026-04-12T09:53:32.001Z</time></trkpt><trkpt lat="41.42641762744623" lon="13.943384788098074"><ele>83.8</ele><time>2026-04-12T09:53:33.001Z</time></trkpt><trkpt lat="41.42649107698947" lon="13.943253370650122"><ele>82.6</ele><time>2026-04-12T09:53:34.001Z</time></trkpt><trkpt lat="41.42654493645369" lon="13.943157281920485"><ele>81.4</ele><time>2026-04-12T09:53:35.001Z</time></trkpt><trkpt lat="41.42663000938644" lon="13.943063380309198"><ele>80.2</ele><time>2026-04-12T09:53:37.001Z</time></trkpt><trkpt lat="41.426710306057934" lon="13.94300899828435"><ele>79.0</ele><time>2026-04-12T09:53:39.001Z</time></trkpt><trkpt lat="41.42680331821493" lon="13.94300544044348"><ele>79.0</ele><time>2026-04-12T09:53:41.001Z</time></trkpt><trkpt lat="41.42687411676216" lon="13.942958355924437"><ele>79.0</ele><time>2026-04-12T09:53:42.001Z</time></trkpt><trkpt lat="41.42693602312678" lon="13.9428772023846"><ele>79.0</ele><time>2026-04-12T09:53:43.001Z</time></trkpt><trkpt lat="41.42700308765118" lon="13.942793448708748"><ele>79.0</ele><time>2026-04-12T09:53:44.001Z</time></trkpt><trkpt lat="41.427102545087685" lon="13.942717731981203"><ele>79.0</ele><time>2026-04-12T09:53:45.001Z</time></trkpt><trkpt lat="41.427214748260006" lon="13.942613037138885"><ele>78.8</ele><time>2026-04-12T09:53:46.001Z</time></trkpt><trkpt lat="41.42727750512105" lon="13.942504356355347"><ele>78.60000000000001</ele><time>2026-04-12T09:53:47.001Z</time></trkpt><trkpt lat="41.42734636941244" lon="13.942391211798967"><ele>78.4</ele><time>2026-04-12T09:53:48.001Z</time></trkpt><trkpt lat="41.42741547897824" lon="13.94228163475699"><ele>78.2</ele><time>2026-04-12T09:53:49.001Z</time></trkpt><trkpt lat="41.42750250658204" lon="13.942191584984288"><ele>78.0</ele><time>2026-04-12T09:53:50.001Z</time></trkpt><trkpt lat="41.42760319735184" lon="13.942079046676461"><ele>78.0</ele><time>2026-04-12T09:53:51.001Z</time></trkpt><trkpt lat="41.42769763001151" lon="13.941982165405928"><ele>78.0</ele><time>2026-04-12T09:53:52.001Z</time></trkpt><trkpt lat="41.42778063585722" lon="13.941865049798942"><ele>78.0</ele><time>2026-04-12T09:53:53.001Z</time></trkpt><trkpt lat="41.42785984869551" lon="13.94175654915033"><ele>78.0</ele><time>2026-04-12T09:53:54.001Z</time></trkpt><trkpt lat="41.427936654888285" lon="13.941652104494185"><ele>78.33333333333333</ele><time>2026-04-12T09:53:55.001Z</time></trkpt><trkpt lat="41.42799402770032" lon="13.94157139939777"><ele>78.66666666666667</ele><time>2026-04-12T09:53:56.001Z</time></trkpt><trkpt lat="41.428054600069125" lon="13.94148595222424"><ele>79.0</ele><time>2026-04-12T09:53:57.001Z</time></trkpt><trkpt lat="41.42811885134976" lon="13.941393776339538"><ele>79.33333333333334</ele><time>2026-04-12T09:53:58.001Z</time></trkpt><trkpt lat="41.428161375833305" lon="13.941325330462785"><ele>79.66666666666667</ele><time>2026-04-12T09:53:59.001Z</time></trkpt><trkpt lat="41.42817819266767" lon="13.941242928258681"><ele>80.0</ele><time>2026-04-12T09:54:01.001Z</time></trkpt><trkpt lat="41.428109768310726" lon="13.941157698632356"><ele>80.0</ele><time>2026-04-12T09:54:03.001Z</time></trkpt><trkpt lat="41.4280249423061" lon="13.941132301050121"><ele>80.0</ele><time>2026-04-12T09:54:09.001Z</time></trkpt><trkpt lat="41.42787917366057" lon="13.941094677165456"><ele>80.0</ele><time>2026-04-12T09:54:10.001Z</time></trkpt><trkpt lat="41.427818701944624" lon="13.941056375368156"><ele>80.0</ele><time>2026-04-12T09:54:13.001Z</time></trkpt><trkpt lat="41.42774441275551" lon="13.941071919510325"><ele>80.0</ele><time>2026-04-12T09:54:15.001Z</time></trkpt><trkpt lat="41.42766680797177" lon="13.941013891114922"><ele>79.0</ele><time>2026-04-12T09:54:17.001Z</time></trkpt><trkpt lat="41.427576931139996" lon="13.940908398877927"><ele>78.0</ele><time>2026-04-12T09:54:19Z</time></trkpt><trkpt lat="41.42750255108088" lon="13.940858248981366"><ele>77.0</ele><time>2026-04-12T09:54:23Z</time></trkpt><trkpt lat="41.42743230090045" lon="13.940827969309172"><ele>76.0</ele><time>2026-04-12T09:54:27Z</time></trkpt><trkpt lat="41.42738208992755" lon="13.94076630946689"><ele>75.0</ele><time>2026-04-12T09:54:30Z</time></trkpt><trkpt lat="41.427385422113474" lon="13.940655910277478"><ele>74.0</ele><time>2026-04-12T09:54:35Z</time></trkpt><trkpt lat="41.42740205693421" lon="13.940522473304318"><ele>72.5</ele><time>2026-04-12T09:54:39Z</time></trkpt><trkpt lat="41.42735441394662" lon="13.940355428264308"><ele>71.0</ele><time>2026-04-12T09:54:41Z</time></trkpt><trkpt lat="41.42734884666838" lon="13.940251464648668"><ele>69.5</ele><time>2026-04-12T09:54:42Z</time></trkpt><trkpt lat="41.42738688993538" lon="13.940133364448716"><ele>68.0</ele><time>2026-04-12T09:54:43Z</time></trkpt><trkpt lat="41.427422914326" lon="13.940052570346865"><ele>66.5</ele><time>2026-04-12T09:54:44Z</time></trkpt><trkpt lat="41.42744406030948" lon="13.939966280331587"><ele>65.0</ele><time>2026-04-12T09:54:45Z</time></trkpt><trkpt lat="41.4274329415632" lon="13.939846452240197"><ele>64.16666666666667</ele><time>2026-04-12T09:54:46Z</time></trkpt><trkpt lat="41.42745256828495" lon="13.939731400639479"><ele>63.333333333333336</ele><time>2026-04-12T09:54:47Z</time></trkpt><trkpt lat="41.427476990426506" lon="13.93962165518221"><ele>62.5</ele><time>2026-04-12T09:54:48Z</time></trkpt><trkpt lat="41.42748370151801" lon="13.939518532217175"><ele>61.66666666666667</ele><time>2026-04-12T09:54:49Z</time></trkpt><trkpt lat="41.427495731853085" lon="13.939435440559144"><ele>60.833333333333336</ele><time>2026-04-12T09:54:50Z</time></trkpt><trkpt lat="41.42746153186561" lon="13.939336900311904"><ele>60.0</ele><time>2026-04-12T09:54:51Z</time></trkpt><trkpt lat="41.4273817548364" lon="13.93925571881144"><ele>59.6</ele><time>2026-04-12T09:54:52Z</time></trkpt><trkpt lat="41.427304039672016" lon="13.939132483165361"><ele>59.2</ele><time>2026-04-12T09:54:53Z</time></trkpt><trkpt lat="41.42721988004574" lon="13.939015901290267"><ele>58.8</ele><time>2026-04-12T09:54:54Z</time></trkpt><trkpt lat="41.427157344727455" lon="13.938908515620115"><ele>58.4</ele><time>2026-04-12T09:54:55Z</time></trkpt><trkpt lat="41.427114096824475" lon="13.938791303953444"><ele>58.0</ele><time>2026-04-12T09:54:56Z</time></trkpt><trkpt lat="41.42709959405943" lon="13.938663981907407"><ele>59.0</ele><time>2026-04-12T09:54:57Z</time></trkpt><trkpt lat="41.42708821298983" lon="13.938568235648612"><ele>60.0</ele><time>2026-04-12T09:54:58Z</time></trkpt><trkpt lat="41.42704989335172" lon="13.938488430037827"><ele>61.0</ele><time>2026-04-12T09:54:59Z</time></trkpt><trkpt lat="41.426982914280025" lon="13.938439097478318"><ele>62.0</ele><time>2026-04-12T09:55:00Z</time></trkpt><trkpt lat="41.42691441745192" lon="13.938452523002113"><ele>63.0</ele><time>2026-04-12T09:55:01Z</time></trkpt><trkpt lat="41.42676962862833" lon="13.938356186053875"><ele>63.4</ele><time>2026-04-12T09:55:03Z</time></trkpt><trkpt lat="41.426708231830375" lon="13.938297659820838"><ele>63.8</ele><time>2026-04-12T09:55:04Z</time></trkpt><trkpt lat="41.4266499785704" lon="13.938216695550294"><ele>64.2</ele><time>2026-04-12T09:55:05Z</time></trkpt><trkpt lat="41.42657311253584" lon="13.938135664214329"><ele>64.6</ele><time>2026-04-12T09:55:07Z</time></trkpt><trkpt lat="41.426446792918014" lon="13.938090988618507"><ele>65.0</ele><time>2026-04-12T09:55:09Z</time></trkpt><trkpt lat="41.42637025959401" lon="13.938069860279796"><ele>65.0</ele><time>2026-04-12T09:55:10Z</time></trkpt><trkpt lat="41.426328730922194" lon="13.937896412616112"><ele>65.0</ele><time>2026-04-12T09:55:12Z</time></trkpt><trkpt lat="41.426345936971266" lon="13.93776566437864"><ele>65.0</ele><time>2026-04-12T09:55:13Z</time></trkpt><trkpt lat="41.426364214889674" lon="13.937643389616357"><ele>65.0</ele><time>2026-04-12T09:55:14Z</time></trkpt><trkpt lat="41.426387878952845" lon="13.937505681062257"><ele>65.0</ele><time>2026-04-12T09:55:15Z</time></trkpt><trkpt lat="41.42639175581763" lon="13.937320002461197"><ele>64.66666666666667</ele><time>2026-04-12T09:55:16Z</time></trkpt><trkpt lat="41.42639042088689" lon="13.937186849351587"><ele>64.33333333333334</ele><time>2026-04-12T09:55:17Z</time></trkpt><trkpt lat="41.42639868081124" lon="13.93710253092742"><ele>64.0</ele><time>2026-04-12T09:55:18Z</time></trkpt><trkpt lat="41.42645040039053" lon="13.93698826650978"><ele>63.66666666666667</ele><time>2026-04-12T09:55:20Z</time></trkpt><trkpt lat="41.426396374054306" lon="13.936907747910876"><ele>63.333333333333336</ele><time>2026-04-12T09:55:22Z</time></trkpt><trkpt lat="41.42632130515241" lon="13.936926151556014"><ele>63.0</ele><time>2026-04-12T09:55:23Z</time></trkpt><trkpt lat="41.426246925332244" lon="13.936972208907896"><ele>65.0</ele><time>2026-04-12T09:55:24Z</time></trkpt><trkpt lat="41.42615398763575" lon="13.937034106651105"><ele>67.0</ele><time>2026-04-12T09:55:25Z</time></trkpt><trkpt lat="41.426073448745306" lon="13.937119604851095"><ele>69.0</ele><time>2026-04-12T09:55:26Z</time></trkpt><trkpt lat="41.426006435783314" lon="13.937231199094379"><ele>71.0</ele><time>2026-04-12T09:55:27Z</time></trkpt><trkpt lat="41.425943196236084" lon="13.937358208763285"><ele>73.0</ele><time>2026-04-12T09:55:28Z</time></trkpt><trkpt lat="41.42585962401931" lon="13.937468757826354"><ele>73.25</ele><time>2026-04-12T09:55:29Z</time></trkpt><trkpt lat="41.42576707376156" lon="13.937571254779431"><ele>73.5</ele><time>2026-04-12T09:55:30Z</time></trkpt><trkpt lat="41.42566582733951" lon="13.937682301727683"><ele>73.75</ele><time>2026-04-12T09:55:31Z</time></trkpt><trkpt lat="41.42559314410804" lon="13.937785173113095"><ele>74.0</ele><time>2026-04-12T09:55:32Z</time></trkpt><trkpt lat="41.42552664792669" lon="13.937916292483216"><ele>76.0</ele><time>2026-04-12T09:55:33Z</time></trkpt><trkpt lat="41.425472645368885" lon="13.938038610985835"><ele>78.0</ele><time>2026-04-12T09:55:34Z</time></trkpt><trkpt lat="41.425397749084475" lon="13.93813713948441"><ele>80.0</ele><time>2026-04-12T09:55:35Z</time></trkpt><trkpt lat="41.42532066474637" lon="13.938208314615766"><ele>82.0</ele><time>2026-04-12T09:55:36Z</time></trkpt><trkpt lat="41.42523799219533" lon="13.938257897300645"><ele>84.0</ele><time>2026-04-12T09:55:37Z</time></trkpt><trkpt lat="41.425162251430734" lon="13.938316220576345"><ele>84.33333333333333</ele><time>2026-04-12T09:55:38Z</time></trkpt><trkpt lat="41.42510583384868" lon="13.93840094852153"><ele>84.66666666666667</ele><time>2026-04-12T09:55:39Z</time></trkpt><trkpt lat="41.42504823174301" lon="13.938489257083502"><ele>85.0</ele><time>2026-04-12T09:55:40Z</time></trkpt><trkpt lat="41.42498712043747" lon="13.938556676557365"><ele>85.33333333333334</ele><time>2026-04-12T09:55:41Z</time></trkpt><trkpt lat="41.42492145330665" lon="13.938581222959902"><ele>85.66666666666667</ele><time>2026-04-12T09:55:42Z</time></trkpt><trkpt lat="41.42483191677176" lon="13.938586657728367"><ele>86.0</ele><time>2026-04-12T09:55:43.001Z</time></trkpt><trkpt lat="41.424713740244" lon="13.93857949543253"><ele>88.0</ele><time>2026-04-12T09:55:44.001Z</time></trkpt><trkpt lat="41.424612019296866" lon="13.938577706021713"><ele>90.0</ele><time>2026-04-12T09:55:45.001Z</time></trkpt><trkpt lat="41.42450789081767" lon="13.93857113530232"><ele>92.0</ele><time>2026-04-12T09:55:46.001Z</time></trkpt><trkpt lat="41.424400224707185" lon="13.93854263050906"><ele>94.0</ele><time>2026-04-12T09:55:47.001Z</time></trkpt><trkpt lat="41.42431518789099" lon="13.938484848381567"><ele>96.0</ele><time>2026-04-12T09:55:48.001Z</time></trkpt><trkpt lat="41.424230587859945" lon="13.938403004383417"><ele>95.5</ele><time>2026-04-12T09:55:49.001Z</time></trkpt><trkpt lat="41.42412558130763" lon="13.938304826644961"><ele>95.0</ele><time>2026-04-12T09:55:50.001Z</time></trkpt><trkpt lat="41.42400708016336" lon="13.938203733251529"><ele>94.5</ele><time>2026-04-12T09:55:51.001Z</time></trkpt><trkpt lat="41.42388841324459" lon="13.938105217792472"><ele>94.0</ele><time>2026-04-12T09:55:52.001Z</time></trkpt><trkpt lat="41.4237639470228" lon="13.938015582343025"><ele>94.0</ele><time>2026-04-12T09:55:53.001Z</time></trkpt><trkpt lat="41.42364554536861" lon="13.937932096595473"><ele>94.0</ele><time>2026-04-12T09:55:54.001Z</time></trkpt><trkpt lat="41.42354524438738" lon="13.93783935680662"><ele>94.0</ele><time>2026-04-12T09:55:55.001Z</time></trkpt><trkpt lat="41.42345078574682" lon="13.937748955644468"><ele>94.0</ele><time>2026-04-12T09:55:56.001Z</time></trkpt><trkpt lat="41.42334740722796" lon="13.937666493328772"><ele>94.0</ele><time>2026-04-12T09:55:57.001Z</time></trkpt><trkpt lat="41.42324778943724" lon="13.937578855680433"><ele>94.0</ele><time>2026-04-12T09:55:58.001Z</time></trkpt><trkpt lat="41.42313346972642" lon="13.937497558839656"><ele>94.0</ele><time>2026-04-12T09:55:59.001Z</time></trkpt><trkpt lat="41.42303986621033" lon="13.93741023143562"><ele>94.0</ele><time>2026-04-12T09:56:00.001Z</time></trkpt><trkpt lat="41.42292687738368" lon="13.937310425415793"><ele>93.4</ele><time>2026-04-12T09:56:01.001Z</time></trkpt><trkpt lat="41.422838595753824" lon="13.937237992892056"><ele>92.80000000000001</ele><time>2026-04-12T09:56:02.001Z</time></trkpt><trkpt lat="41.42275600056918" lon="13.937164902689906"><ele>92.19999999999999</ele><time>2026-04-12T09:56:03.001Z</time></trkpt><trkpt lat="41.42267789783309" lon="13.937110654980414"><ele>91.6</ele><time>2026-04-12T09:56:04.001Z</time></trkpt><trkpt lat="41.42258769812385" lon="13.937054680112325"><ele>91.0</ele><time>2026-04-12T09:56:05.001Z</time></trkpt><trkpt lat="41.422505260814546" lon="13.936987291757989"><ele>91.0</ele><time>2026-04-12T09:56:06.001Z</time></trkpt><trkpt lat="41.42242673869469" lon="13.93689403930915"><ele>91.0</ele><time>2026-04-12T09:56:07.001Z</time></trkpt><trkpt lat="41.42234355862025" lon="13.936774300316326"><ele>91.0</ele><time>2026-04-12T09:56:08.001Z</time></trkpt><trkpt lat="41.422227632698295" lon="13.93665994481441"><ele>91.0</ele><time>2026-04-12T09:56:09.001Z</time></trkpt><trkpt lat="41.42211388140927" lon="13.93655114442655"><ele>90.5</ele><time>2026-04-12T09:56:10.001Z</time></trkpt><trkpt lat="41.422016889378234" lon="13.936439777083274"><ele>90.0</ele><time>2026-04-12T09:56:11.001Z</time></trkpt><trkpt lat="41.42192782434879" lon="13.936322239461804"><ele>89.5</ele><time>2026-04-12T09:56:12.001Z</time></trkpt><trkpt lat="41.42183406498975" lon="13.936211487174472"><ele>89.0</ele><time>2026-04-12T09:56:13.001Z</time></trkpt><trkpt lat="41.42175960288273" lon="13.936124191008458"><ele>89.0</ele><time>2026-04-12T09:56:14.001Z</time></trkpt><trkpt lat="41.42168798893434" lon="13.936041768993615"><ele>89.0</ele><time>2026-04-12T09:56:15.001Z</time></trkpt><trkpt lat="41.42164030682376" lon="13.935947741416545"><ele>89.0</ele><time>2026-04-12T09:56:17.001Z</time></trkpt><trkpt lat="41.421636222339735" lon="13.935853336342664"><ele>89.0</ele><time>2026-04-12T09:56:18.001Z</time></trkpt><trkpt lat="41.421635034276086" lon="13.935683258681522"><ele>89.0</ele><time>2026-04-12T09:56:19.001Z</time></trkpt><trkpt lat="41.4216112301919" lon="13.935515088246655"><ele>88.75</ele><time>2026-04-12T09:56:20.001Z</time></trkpt><trkpt lat="41.421579114865004" lon="13.935369014470748"><ele>88.5</ele><time>2026-04-12T09:56:21.001Z</time></trkpt><trkpt lat="41.421493977378375" lon="13.93522645171432"><ele>88.25</ele><time>2026-04-12T09:56:22.001Z</time></trkpt><trkpt lat="41.42143260318817" lon="13.935076203550192"><ele>88.0</ele><time>2026-04-12T09:56:23.001Z</time></trkpt><trkpt lat="41.421363322050404" lon="13.934906003031566"><ele>88.80000000000001</ele><time>2026-04-12T09:56:24Z</time></trkpt><trkpt lat="41.421304326064295" lon="13.93474524121339"><ele>89.6</ele><time>2026-04-12T09:56:25Z</time></trkpt><trkpt lat="41.42123081408857" lon="13.934637768820687"><ele>90.4</ele><time>2026-04-12T09:56:26Z</time></trkpt><trkpt lat="41.42119258645195" lon="13.934519887994135"><ele>91.19999999999999</ele><time>2026-04-12T09:56:27Z</time></trkpt><trkpt lat="41.42116641766248" lon="13.9344004743606"><ele>92.0</ele><time>2026-04-12T09:56:28Z</time></trkpt><trkpt lat="41.42113712520049" lon="13.934281990707724"><ele>91.19999999999999</ele><time>2026-04-12T09:56:29Z</time></trkpt><trkpt lat="41.421084998277955" lon="13.934182020462929"><ele>90.4</ele><time>2026-04-12T09:56:30Z</time></trkpt><trkpt lat="41.42102517346527" lon="13.934122035505332"><ele>89.6</ele><time>2026-04-12T09:56:31Z</time></trkpt><trkpt lat="41.42092842484853" lon="13.93406751862509"><ele>88.80000000000001</ele><time>2026-04-12T09:56:33Z</time></trkpt><trkpt lat="41.42086354828329" lon="13.934025589090567"><ele>88.0</ele><time>2026-04-12T09:56:34Z</time></trkpt><trkpt lat="41.42075068798085" lon="13.93399645932685"><ele>88.0</ele><time>2026-04-12T09:56:38Z</time></trkpt><trkpt lat="41.42067951886457" lon="13.934127779566028"><ele>88.0</ele><time>2026-04-12T09:56:40Z</time></trkpt><trkpt lat="41.42066482019134" lon="13.934249106000966"><ele>88.0</ele><time>2026-04-12T09:56:41Z</time></trkpt><trkpt lat="41.42064464699545" lon="13.934376424362183"><ele>88.0</ele><time>2026-04-12T09:56:42Z</time></trkpt><trkpt lat="41.420626718067325" lon="13.934507632142155"><ele>88.0</ele><time>2026-04-12T09:56:43Z</time></trkpt><trkpt lat="41.42060185527074" lon="13.934665641474814"><ele>89.0</ele><time>2026-04-12T09:56:44Z</time></trkpt><trkpt lat="41.42053863413091" lon="13.93480649901105"><ele>90.0</ele><time>2026-04-12T09:56:45Z</time></trkpt><trkpt lat="41.420505144332495" lon="13.93496097952288"><ele>91.0</ele><time>2026-04-12T09:56:46Z</time></trkpt><trkpt lat="41.42046680917285" lon="13.93511707244031"><ele>92.0</ele><time>2026-04-12T09:56:47Z</time></trkpt><trkpt lat="41.4204219673981" lon="13.935287108443616"><ele>93.5</ele><time>2026-04-12T09:56:48Z</time></trkpt><trkpt lat="41.42037679709702" lon="13.935458390103562"><ele>95.0</ele><time>2026-04-12T09:56:49Z</time></trkpt><trkpt lat="41.420331194101045" lon="13.935631360610934"><ele>96.5</ele><time>2026-04-12T09:56:50Z</time></trkpt><trkpt lat="41.420283173624604" lon="13.935807413903701"><ele>98.0</ele><time>2026-04-12T09:56:51Z</time></trkpt><trkpt lat="41.42023339475461" lon="13.935989914234634"><ele>98.25</ele><time>2026-04-12T09:56:52Z</time></trkpt><trkpt lat="41.42018365104067" lon="13.936172285533035"><ele>98.5</ele><time>2026-04-12T09:56:53Z</time></trkpt><trkpt lat="41.42013189197697" lon="13.936366823163784"><ele>98.75</ele><time>2026-04-12T09:56:54Z</time></trkpt><trkpt lat="41.42009652711588" lon="13.9365599054662"><ele>99.0</ele><time>2026-04-12T09:56:55Z</time></trkpt><trkpt lat="41.42004237392472" lon="13.936750128853529"><ele>98.0</ele><time>2026-04-12T09:56:56Z</time></trkpt><trkpt lat="41.4199674419364" lon="13.936913134105557"><ele>97.0</ele><time>2026-04-12T09:56:57Z</time></trkpt><trkpt lat="41.41989375854593" lon="13.937057290849863"><ele>96.0</ele><time>2026-04-12T09:56:58Z</time></trkpt><trkpt lat="41.419818232466696" lon="13.937177968602724"><ele>95.0</ele><time>2026-04-12T09:56:59Z</time></trkpt><trkpt lat="41.4196956400731" lon="13.937262112633249"><ele>96.0</ele><time>2026-04-12T09:57:00Z</time></trkpt><trkpt lat="41.41956085791334" lon="13.937348610910389"><ele>97.0</ele><time>2026-04-12T09:57:01Z</time></trkpt><trkpt lat="41.419436279144" lon="13.937422823254078"><ele>98.0</ele><time>2026-04-12T09:57:02Z</time></trkpt><trkpt lat="41.41929153003766" lon="13.937517012872227"><ele>99.0</ele><time>2026-04-12T09:57:03Z</time></trkpt><trkpt lat="41.41914696014017" lon="13.937612128258948"><ele>99.0</ele><time>2026-04-12T09:57:04Z</time></trkpt><trkpt lat="41.41899967359135" lon="13.937710035218169"><ele>99.0</ele><time>2026-04-12T09:57:05Z</time></trkpt><trkpt lat="41.41885625889505" lon="13.937805841840355"><ele>99.0</ele><time>2026-04-12T09:57:06Z</time></trkpt><trkpt lat="41.418706260252534" lon="13.93791043713399"><ele>100.0</ele><time>2026-04-12T09:57:07Z</time></trkpt><trkpt lat="41.418553444795144" lon="13.938010608364204"><ele>101.0</ele><time>2026-04-12T09:57:08Z</time></trkpt><trkpt lat="41.418401437958465" lon="13.938117908078445"><ele>102.0</ele><time>2026-04-12T09:57:09Z</time></trkpt><trkpt lat="41.41824776349158" lon="13.938224577812246"><ele>102.0</ele><time>2026-04-12T09:57:10Z</time></trkpt><trkpt lat="41.418101907869854" lon="13.938319699186902"><ele>102.0</ele><time>2026-04-12T09:57:11Z</time></trkpt><trkpt lat="41.417951262362045" lon="13.938420227808459"><ele>102.0</ele><time>2026-04-12T09:57:12Z</time></trkpt><trkpt lat="41.417809413028834" lon="13.938525588392247"><ele>102.33333333333334</ele><time>2026-04-12T09:57:13Z</time></trkpt><trkpt lat="41.417668063533604" lon="13.938644917107665"><ele>102.66666666666667</ele><time>2026-04-12T09:57:14Z</time></trkpt><trkpt lat="41.41753471563607" lon="13.938783768647712"><ele>103.0</ele><time>2026-04-12T09:57:15Z</time></trkpt><trkpt lat="41.41741356414559" lon="13.938933223464279"><ele>103.0</ele><time>2026-04-12T09:57:16Z</time></trkpt><trkpt lat="41.41730296882709" lon="13.939108660660478"><ele>103.0</ele><time>2026-04-12T09:57:17Z</time></trkpt><trkpt lat="41.417217074118454" lon="13.939307042220786"><ele>103.0</ele><time>2026-04-12T09:57:18Z</time></trkpt><trkpt lat="41.41713638370971" lon="13.939507400274543"><ele>102.66666666666667</ele><time>2026-04-12T09:57:19Z</time></trkpt><trkpt lat="41.417095013717784" lon="13.93972729227304"><ele>102.33333333333334</ele><time>2026-04-12T09:57:20Z</time></trkpt><trkpt lat="41.4170738597458" lon="13.939960746557905"><ele>102.0</ele><time>2026-04-12T09:57:21Z</time></trkpt><trkpt lat="41.41705886713756" lon="13.940196019040966"><ele>102.0</ele><time>2026-04-12T09:57:22Z</time></trkpt><trkpt lat="41.41704580943698" lon="13.94042914364362"><ele>102.0</ele><time>2026-04-12T09:57:23Z</time></trkpt><trkpt lat="41.41703358563862" lon="13.940656605382644"><ele>102.0</ele><time>2026-04-12T09:57:24Z</time></trkpt><trkpt lat="41.41701884431152" lon="13.940874848775106"><ele>104.5</ele><time>2026-04-12T09:57:25Z</time></trkpt><trkpt lat="41.41699948142939" lon="13.941059257574604"><ele>107.0</ele><time>2026-04-12T09:57:26Z</time></trkpt><trkpt lat="41.41697147963938" lon="13.941236930033641"><ele>109.5</ele><time>2026-04-12T09:57:27Z</time></trkpt><trkpt lat="41.41688629616852" lon="13.941404483399738"><ele>112.0</ele><time>2026-04-12T09:57:28Z</time></trkpt><trkpt lat="41.4167792586987" lon="13.94155517952948"><ele>112.0</ele><time>2026-04-12T09:57:29Z</time></trkpt><trkpt lat="41.41665258950607" lon="13.941683420181949"><ele>112.0</ele><time>2026-04-12T09:57:30Z</time></trkpt><trkpt lat="41.41651664126396" lon="13.94180675734931"><ele>112.0</ele><time>2026-04-12T09:57:31Z</time></trkpt><trkpt lat="41.41637888699621" lon="13.941938380150594"><ele>111.33333333333334</ele><time>2026-04-12T09:57:32Z</time></trkpt><trkpt lat="41.416245454242386" lon="13.942074610480024"><ele>110.66666666666666</ele><time>2026-04-12T09:57:33Z</time></trkpt><trkpt lat="41.416122021502396" lon="13.942211805868414"><ele>110.0</ele><time>2026-04-12T09:57:34Z</time></trkpt><trkpt lat="41.4160021091973" lon="13.942335394471282"><ele>110.0</ele><time>2026-04-12T09:57:35Z</time></trkpt><trkpt lat="41.41590718067347" lon="13.942506698897606"><ele>110.0</ele><time>2026-04-12T09:57:36Z</time></trkpt><trkpt lat="41.41584108528217" lon="13.942699190145467"><ele>110.0</ele><time>2026-04-12T09:57:37Z</time></trkpt><trkpt lat="41.41577535460198" lon="13.942897796226779"><ele>113.0</ele><time>2026-04-12T09:57:38Z</time></trkpt><trkpt lat="41.415728647459375" lon="13.943098259227746"><ele>116.0</ele><time>2026-04-12T09:57:39Z</time></trkpt><trkpt lat="41.41567224960915" lon="13.94330879559495"><ele>119.0</ele><time>2026-04-12T09:57:40Z</time></trkpt><trkpt lat="41.415647657468064" lon="13.943533722218627"><ele>119.0</ele><time>2026-04-12T09:57:41Z</time></trkpt><trkpt lat="41.415604082213754" lon="13.943751573433422"><ele>119.0</ele><time>2026-04-12T09:57:42Z</time></trkpt><trkpt lat="41.41556445133411" lon="13.94397007064823"><ele>119.0</ele><time>2026-04-12T09:57:43Z</time></trkpt><trkpt lat="41.415527104795416" lon="13.944197339882072"><ele>116.66666666666666</ele><time>2026-04-12T09:57:44Z</time></trkpt><trkpt lat="41.41547349748588" lon="13.944419045389552"><ele>114.33333333333334</ele><time>2026-04-12T09:57:45Z</time></trkpt><trkpt lat="41.41543028642957" lon="13.944648083972789"><ele>112.0</ele><time>2026-04-12T09:57:46Z</time></trkpt><trkpt lat="41.41538716414794" lon="13.944876652230949"><ele>111.66666666666667</ele><time>2026-04-12T09:57:47Z</time></trkpt><trkpt lat="41.41534324572947" lon="13.945114257663924"><ele>111.33333333333334</ele><time>2026-04-12T09:57:48Z</time></trkpt><trkpt lat="41.41531895345294" lon="13.945335423930004"><ele>111.0</ele><time>2026-04-12T09:57:49Z</time></trkpt><trkpt lat="41.415283027001195" lon="13.945524432010638"><ele>111.0</ele><time>2026-04-12T09:57:50Z</time></trkpt><trkpt lat="41.41524613965522" lon="13.945697636845996"><ele>111.0</ele><time>2026-04-12T09:57:51Z</time></trkpt><trkpt lat="41.41520762882182" lon="13.945861014524919"><ele>111.0</ele><time>2026-04-12T09:57:52Z</time></trkpt><trkpt lat="41.41517936162676" lon="13.946012859947334"><ele>111.0</ele><time>2026-04-12T09:57:53Z</time></trkpt><trkpt lat="41.41515747931138" lon="13.946135662121998"><ele>111.19999999999999</ele><time>2026-04-12T09:57:54Z</time></trkpt><trkpt lat="41.41512900563252" lon="13.946238230155942"><ele>111.39999999999999</ele><time>2026-04-12T09:57:55Z</time></trkpt><trkpt lat="41.41508798345913" lon="13.94634080295972"><ele>111.6</ele><time>2026-04-12T09:57:57Z</time></trkpt><trkpt lat="41.414942667884496" lon="13.946283060650973"><ele>111.8</ele><time>2026-04-12T09:57:58.001Z</time></trkpt><trkpt lat="41.41484984663511" lon="13.946249962249874"><ele>112.0</ele><time>2026-04-12T09:57:59.001Z</time></trkpt><trkpt lat="41.414738948017536" lon="13.946222101485992"><ele>112.0</ele><time>2026-04-12T09:58:00.001Z</time></trkpt><trkpt lat="41.41461913602478" lon="13.946171005575017"><ele>112.0</ele><time>2026-04-12T09:58:01.001Z</time></trkpt><trkpt lat="41.41449731009199" lon="13.946117700532092"><ele>112.0</ele><time>2026-04-12T09:58:02.001Z</time></trkpt><trkpt lat="41.414375862729635" lon="13.94602281003088"><ele>112.0</ele><time>2026-04-12T09:58:03.001Z</time></trkpt><trkpt lat="41.41424079815083" lon="13.945953632437401"><ele>112.0</ele><time>2026-04-12T09:58:04.001Z</time></trkpt><trkpt lat="41.41411306400044" lon="13.945860344592544"><ele>112.0</ele><time>2026-04-12T09:58:05.001Z</time></trkpt><trkpt lat="41.41397839264006" lon="13.945763816130338"><ele>112.0</ele><time>2026-04-12T09:58:06.001Z</time></trkpt><trkpt lat="41.41384509731679" lon="13.945669645077087"><ele>112.0</ele><time>2026-04-12T09:58:07.001Z</time></trkpt><trkpt lat="41.413699828266935" lon="13.945571412358976"><ele>112.33333333333334</ele><time>2026-04-12T09:58:08.001Z</time></trkpt><trkpt lat="41.41354960760816" lon="13.945471677062178"><ele>112.66666666666666</ele><time>2026-04-12T09:58:09.001Z</time></trkpt><trkpt lat="41.41339664006372" lon="13.945369417232639"><ele>113.0</ele><time>2026-04-12T09:58:10.001Z</time></trkpt><trkpt lat="41.41325448090931" lon="13.945276712885569"><ele>113.0</ele><time>2026-04-12T09:58:11.001Z</time></trkpt><trkpt lat="41.413133607903156" lon="13.94517437450398"><ele>113.0</ele><time>2026-04-12T09:58:12.001Z</time></trkpt><trkpt lat="41.41300769961794" lon="13.945117880398847"><ele>113.0</ele><time>2026-04-12T09:58:13.001Z</time></trkpt><trkpt lat="41.41291454928486" lon="13.945023644820798"><ele>113.0</ele><time>2026-04-12T09:58:14.001Z</time></trkpt><trkpt lat="41.41283356521333" lon="13.944954167580493"><ele>113.0</ele><time>2026-04-12T09:58:15.001Z</time></trkpt><trkpt lat="41.412794789897994" lon="13.944882733163677"><ele>113.00000000000001</ele><time>2026-04-12T09:58:16.001Z</time></trkpt><trkpt lat="41.41275231321254" lon="13.944733553196684"><ele>113.00000000000001</ele><time>2026-04-12T09:58:18.001Z</time></trkpt><trkpt lat="41.41271022657762" lon="13.944637594373484"><ele>113.0</ele><time>2026-04-12T09:58:19.001Z</time></trkpt><trkpt lat="41.41276987529191" lon="13.944530554529607"><ele>113.0</ele><time>2026-04-12T09:58:20.001Z</time></trkpt><trkpt lat="41.41232094553813" lon="13.943954348664034"><ele>113.16666666666666</ele><time>2026-04-12T09:58:24.001Z</time></trkpt><trkpt lat="41.41227363703327" lon="13.943850378385353"><ele>113.33333333333333</ele><time>2026-04-12T09:58:25.001Z</time></trkpt><trkpt lat="41.41222483496796" lon="13.943786123837286"><ele>113.5</ele><time>2026-04-12T09:58:26.001Z</time></trkpt><trkpt lat="41.41215230853905" lon="13.94365101569922"><ele>113.66666666666666</ele><time>2026-04-12T09:58:28.001Z</time></trkpt><trkpt lat="41.41206386128091" lon="13.943636262106248"><ele>113.83333333333333</ele><time>2026-04-12T09:58:30Z</time></trkpt><trkpt lat="41.412032210632795" lon="13.943718229017291"><ele>114.0</ele><time>2026-04-12T09:58:31Z</time></trkpt><trkpt lat="41.411989516830154" lon="13.943819894349772"><ele>114.0</ele><time>2026-04-12T09:58:32Z</time></trkpt><trkpt lat="41.41194986030018" lon="13.943917189853044"><ele>114.0</ele><time>2026-04-12T09:58:33Z</time></trkpt><trkpt lat="41.411951452156295" lon="13.944029811254527"><ele>114.0</ele><time>2026-04-12T09:58:35Z</time></trkpt><trkpt lat="41.411999287866756" lon="13.944090616196693"><ele>114.0</ele><time>2026-04-12T09:58:36Z</time></trkpt><trkpt lat="41.4119995572737" lon="13.944211658426646"><ele>114.0</ele><time>2026-04-12T09:58:38Z</time></trkpt><trkpt lat="41.41194927960364" lon="13.944293412713382"><ele>114.0</ele><time>2026-04-12T09:58:39Z</time></trkpt><trkpt lat="41.411876684134796" lon="13.94439178208118"><ele>115.0</ele><time>2026-04-12T09:58:41Z</time></trkpt><trkpt lat="41.41183265764345" lon="13.944500647392205"><ele>116.0</ele><time>2026-04-12T09:58:42Z</time></trkpt><trkpt lat="41.41179792951353" lon="13.944613972991695"><ele>117.0</ele><time>2026-04-12T09:58:43Z</time></trkpt><trkpt lat="41.411773166906784" lon="13.944715135599115"><ele>118.0</ele><time>2026-04-12T09:58:44Z</time></trkpt><trkpt lat="41.411663741441224" lon="13.944797316740507"><ele>119.0</ele><time>2026-04-12T09:58:46Z</time></trkpt><trkpt lat="41.41157957037259" lon="13.94483189168681"><ele>119.0</ele><time>2026-04-12T09:58:47Z</time></trkpt><trkpt lat="41.411506245485334" lon="13.944902240237923"><ele>119.0</ele><time>2026-04-12T09:58:48Z</time></trkpt><trkpt lat="41.41143930191249" lon="13.945000333975349"><ele>119.0</ele><time>2026-04-12T09:58:49Z</time></trkpt><trkpt lat="41.41132106029713" lon="13.94506191777615"><ele>119.0</ele><time>2026-04-12T09:58:51Z</time></trkpt><trkpt lat="41.41120609519061" lon="13.945112546661473"><ele>119.0</ele><time>2026-04-12T09:58:53Z</time></trkpt><trkpt lat="41.41106215406891" lon="13.945063500000183"><ele>120.2</ele><time>2026-04-12T09:58:55Z</time></trkpt><trkpt lat="41.41097316781677" lon="13.945119485994644"><ele>121.4</ele><time>2026-04-12T09:58:57Z</time></trkpt><trkpt lat="41.410898085282405" lon="13.94520027358024"><ele>122.6</ele><time>2026-04-12T09:58:59Z</time></trkpt><trkpt lat="41.410813048736955" lon="13.945247108087852"><ele>123.8</ele><time>2026-04-12T09:59:04Z</time></trkpt><trkpt lat="41.41074909862996" lon="13.945275874534508"><ele>125.0</ele><time>2026-04-12T09:59:05Z</time></trkpt><trkpt lat="41.41064964414757" lon="13.94540327536332"><ele>125.0</ele><time>2026-04-12T09:59:11Z</time></trkpt><trkpt lat="41.41058954724279" lon="13.945431498333104"><ele>125.0</ele><time>2026-04-12T09:59:15Z</time></trkpt><trkpt lat="41.41052481704973" lon="13.945498090476905"><ele>125.0</ele><time>2026-04-12T09:59:16Z</time></trkpt><trkpt lat="41.41032516885213" lon="13.945484847409839"><ele>125.0</ele><time>2026-04-12T09:59:21Z</time></trkpt><trkpt lat="41.410266946723624" lon="13.945720187778655"><ele>125.2</ele><time>2026-04-12T09:59:24Z</time></trkpt><trkpt lat="41.41020767687465" lon="13.945837367042701"><ele>125.4</ele><time>2026-04-12T09:59:25Z</time></trkpt><trkpt lat="41.41017117071568" lon="13.945907923326875"><ele>125.6</ele><time>2026-04-12T09:59:26Z</time></trkpt><trkpt lat="41.41007606082317" lon="13.945960747392716"><ele>125.8</ele><time>2026-04-12T09:59:27Z</time></trkpt><trkpt lat="41.40998137691234" lon="13.94605423404835"><ele>126.0</ele><time>2026-04-12T09:59:28Z</time></trkpt><trkpt lat="41.409879190162364" lon="13.94611309413595"><ele>127.4</ele><time>2026-04-12T09:59:29Z</time></trkpt><trkpt lat="41.409815192299284" lon="13.946160969958912"><ele>128.8</ele><time>2026-04-12T09:59:30Z</time></trkpt><trkpt lat="41.409716246424935" lon="13.946154921836277"><ele>130.20000000000002</ele><time>2026-04-12T09:59:31Z</time></trkpt><trkpt lat="41.40965281394141" lon="13.946248552854476"><ele>131.6</ele><time>2026-04-12T09:59:34Z</time></trkpt><trkpt lat="41.40955821270501" lon="13.94625836025429"><ele>133.0</ele><time>2026-04-12T09:59:35Z</time></trkpt><trkpt lat="41.40949132402236" lon="13.946369826970416"><ele>133.0</ele><time>2026-04-12T09:59:39Z</time></trkpt><trkpt lat="41.40933431790035" lon="13.946454141070438"><ele>133.0</ele><time>2026-04-12T09:59:49Z</time></trkpt><trkpt lat="41.40926287245245" lon="13.946494006338945"><ele>133.0</ele><time>2026-04-12T10:00:00.001Z</time></trkpt><trkpt lat="41.40919569945363" lon="13.946469263833762"><ele>133.0</ele><time>2026-04-12T10:00:08.001Z</time></trkpt><trkpt lat="41.40913819570137" lon="13.94640755431589"><ele>133.0</ele><time>2026-04-12T10:00:20.001Z</time></trkpt><trkpt lat="41.40907478946964" lon="13.946437184339596"><ele>133.0</ele><time>2026-04-12T10:00:32.001Z</time></trkpt><trkpt lat="41.40900458268654" lon="13.946573097962373"><ele>133.0</ele><time>2026-04-12T10:00:38Z</time></trkpt><trkpt lat="41.409069181070386" lon="13.946734099958775"><ele>133.0</ele><time>2026-04-12T10:00:40Z</time></trkpt><trkpt lat="41.40901387316576" lon="13.946843546372127"><ele>133.0</ele><time>2026-04-12T10:00:42Z</time></trkpt><trkpt lat="41.40901145142156" lon="13.946941656893054"><ele>133.0</ele><time>2026-04-12T10:00:43Z</time></trkpt><trkpt lat="41.40898607932766" lon="13.947030401706261"><ele>134.6</ele><time>2026-04-12T10:00:45Z</time></trkpt><trkpt lat="41.40890824103124" lon="13.947009768729526"><ele>136.20000000000002</ele><time>2026-04-12T10:00:46Z</time></trkpt><trkpt lat="41.408815969458395" lon="13.946988644352068"><ele>137.8</ele><time>2026-04-12T10:00:48Z</time></trkpt><trkpt lat="41.40876402624485" lon="13.947078268257682"><ele>139.4</ele><time>2026-04-12T10:00:51Z</time></trkpt><trkpt lat="41.40869955015494" lon="13.947095973778358"><ele>141.0</ele><time>2026-04-12T10:00:53Z</time></trkpt><trkpt lat="41.408582855003246" lon="13.947171079404873"><ele>141.0</ele><time>2026-04-12T10:00:56Z</time></trkpt><trkpt lat="41.40853435472648" lon="13.94724800474111"><ele>141.0</ele><time>2026-04-12T10:00:57Z</time></trkpt><trkpt lat="41.40850759873581" lon="13.947361757688135"><ele>141.0</ele><time>2026-04-12T10:00:58Z</time></trkpt><trkpt lat="41.40845108088462" lon="13.947425392379195"><ele>141.0</ele><time>2026-04-12T10:00:59Z</time></trkpt><trkpt lat="41.4083879409216" lon="13.947472214299319"><ele>141.0</ele><time>2026-04-12T10:01:01Z</time></trkpt><trkpt lat="41.40831557691512" lon="13.947511817318455"><ele>141.0</ele><time>2026-04-12T10:01:04Z</time></trkpt><trkpt lat="41.408256297737346" lon="13.947606621882871"><ele>142.83333333333334</ele><time>2026-04-12T10:01:05Z</time></trkpt><trkpt lat="41.4082457199651" lon="13.947709290533124"><ele>144.66666666666666</ele><time>2026-04-12T10:01:07Z</time></trkpt><trkpt lat="41.40817798558157" lon="13.947775486062534"><ele>146.5</ele><time>2026-04-12T10:01:10Z</time></trkpt><trkpt lat="41.408141517929536" lon="13.947847070058968"><ele>148.33333333333331</ele><time>2026-04-12T10:01:13Z</time></trkpt><trkpt lat="41.408102310737824" lon="13.947974072074432"><ele>150.16666666666666</ele><time>2026-04-12T10:01:17Z</time></trkpt><trkpt lat="41.40803632250322" lon="13.948083265990451"><ele>152.0</ele><time>2026-04-12T10:01:19Z</time></trkpt><trkpt lat="41.40799929406539" lon="13.948152415196025"><ele>153.33333333333331</ele><time>2026-04-12T10:01:20Z</time></trkpt><trkpt lat="41.40793013149764" lon="13.94819121137277"><ele>154.66666666666666</ele><time>2026-04-12T10:01:22Z</time></trkpt><trkpt lat="41.40789768094485" lon="13.94828174064643"><ele>156.0</ele><time>2026-04-12T10:01:24Z</time></trkpt><trkpt lat="41.40790347547021" lon="13.94837690292689"><ele>157.33333333333334</ele><time>2026-04-12T10:01:26Z</time></trkpt><trkpt lat="41.40786254416319" lon="13.948449819441482"><ele>158.66666666666669</ele><time>2026-04-12T10:01:28Z</time></trkpt><trkpt lat="41.40782495595924" lon="13.948571247886631"><ele>160.0</ele><time>2026-04-12T10:01:31Z</time></trkpt><trkpt lat="41.40777361292367" lon="13.948702379000029"><ele>161.5</ele><time>2026-04-12T10:01:33Z</time></trkpt><trkpt lat="41.40777281830114" lon="13.948805400818152"><ele>163.0</ele><time>2026-04-12T10:01:35Z</time></trkpt><trkpt lat="41.40776864376248" lon="13.948905709347857"><ele>164.5</ele><time>2026-04-12T10:01:37Z</time></trkpt><trkpt lat="41.40776753583832" lon="13.949034456583206"><ele>166.0</ele><time>2026-04-12T10:01:41Z</time></trkpt><trkpt lat="41.407746730257486" lon="13.949137861540333"><ele>167.5</ele><time>2026-04-12T10:01:42Z</time></trkpt><trkpt lat="41.407759367696904" lon="13.94925249884464"><ele>169.0</ele><time>2026-04-12T10:01:43Z</time></trkpt><trkpt lat="41.40772324025414" lon="13.949334312596406"><ele>169.5</ele><time>2026-04-12T10:01:45Z</time></trkpt><trkpt lat="41.40767003963201" lon="13.949380106009912"><ele>170.0</ele><time>2026-04-12T10:01:48Z</time></trkpt><trkpt lat="41.407594651544215" lon="13.949375464390714"><ele>170.5</ele><time>2026-04-12T10:01:49Z</time></trkpt><trkpt lat="41.407483572395904" lon="13.949398269000545"><ele>171.0</ele><time>2026-04-12T10:01:51Z</time></trkpt><trkpt lat="41.40743466743942" lon="13.94949251265438"><ele>171.5</ele><time>2026-04-12T10:01:53Z</time></trkpt><trkpt lat="41.40738738421417" lon="13.949582821822617"><ele>172.0</ele><time>2026-04-12T10:01:55Z</time></trkpt><trkpt lat="41.407318192183155" lon="13.949655572292595"><ele>172.0</ele><time>2026-04-12T10:01:57Z</time></trkpt><trkpt lat="41.40722089622982" lon="13.949719783641958"><ele>172.0</ele><time>2026-04-12T10:02:00Z</time></trkpt><trkpt lat="41.407160406790645" lon="13.949766359676648"><ele>172.0</ele><time>2026-04-12T10:02:02Z</time></trkpt><trkpt lat="41.407081178480325" lon="13.949771252218738"><ele>172.0</ele><time>2026-04-12T10:02:06Z</time></trkpt><trkpt lat="41.40713633813411" lon="13.94983415171243"><ele>172.0</ele><time>2026-04-12T10:02:18.001Z</time></trkpt><trkpt lat="41.40721437127672" lon="13.949854997752386"><ele>172.0</ele><time>2026-04-12T10:02:19.001Z</time></trkpt><trkpt lat="41.407290366622284" lon="13.949850707204964"><ele>172.0</ele><time>2026-04-12T10:02:20.001Z</time></trkpt><trkpt lat="41.4073942702892" lon="13.949842384221625"><ele>172.0</ele><time>2026-04-12T10:02:21.001Z</time></trkpt><trkpt lat="41.40751350639543" lon="13.94981959119461"><ele>172.0</ele><time>2026-04-12T10:02:22.001Z</time></trkpt><trkpt lat="41.40765824836279" lon="13.949804189799709"><ele>172.0</ele><time>2026-04-12T10:02:24.001Z</time></trkpt><trkpt lat="41.40774272109474" lon="13.949821130906358"><ele>172.0</ele><time>2026-04-12T10:02:25.001Z</time></trkpt><trkpt lat="41.40783196482815" lon="13.949849955498063"><ele>172.0</ele><time>2026-04-12T10:02:27.001Z</time></trkpt><trkpt lat="41.40796755612879" lon="13.949889000322319"><ele>172.0</ele><time>2026-04-12T10:02:29.001Z</time></trkpt><trkpt lat="41.40807175131572" lon="13.949973406266768"><ele>172.0</ele><time>2026-04-12T10:02:31.001Z</time></trkpt><trkpt lat="41.40808934511284" lon="13.9500714685187"><ele>172.0</ele><time>2026-04-12T10:02:32.001Z</time></trkpt><trkpt lat="41.40815393246021" lon="13.950187241332099"><ele>169.66666666666669</ele><time>2026-04-12T10:02:34.001Z</time></trkpt><trkpt lat="41.40823332182591" lon="13.950277529257747"><ele>167.33333333333334</ele><time>2026-04-12T10:02:35.001Z</time></trkpt><trkpt lat="41.4082953123085" lon="13.950354107923113"><ele>165.0</ele><time>2026-04-12T10:02:36.001Z</time></trkpt><trkpt lat="41.408357964643955" lon="13.95044958455267"><ele>162.66666666666666</ele><time>2026-04-12T10:02:37.001Z</time></trkpt><trkpt lat="41.408421192331126" lon="13.950532605104593"><ele>160.33333333333331</ele><time>2026-04-12T10:02:38.001Z</time></trkpt><trkpt lat="41.408466257843955" lon="13.950596166010826"><ele>158.0</ele><time>2026-04-12T10:02:39.001Z</time></trkpt><trkpt lat="41.40853159284845" lon="13.95061414833455"><ele>158.0</ele><time>2026-04-12T10:02:40.001Z</time></trkpt><trkpt lat="41.40864932182876" lon="13.950679108733349"><ele>158.0</ele><time>2026-04-12T10:02:42Z</time></trkpt><trkpt lat="41.408719638776965" lon="13.950729466669776"><ele>158.0</ele><time>2026-04-12T10:02:43Z</time></trkpt><trkpt lat="41.4088053632829" lon="13.95078380029509"><ele>158.0</ele><time>2026-04-12T10:02:44Z</time></trkpt><trkpt lat="41.408891066898455" lon="13.950816449292693"><ele>158.0</ele><time>2026-04-12T10:02:45Z</time></trkpt><trkpt lat="41.40897458710208" lon="13.95084149018815"><ele>156.71428571428572</ele><time>2026-04-12T10:02:46Z</time></trkpt><trkpt lat="41.40905026311435" lon="13.950837993903095"><ele>155.42857142857144</ele><time>2026-04-12T10:02:47Z</time></trkpt><trkpt lat="41.40913816321085" lon="13.950826186353655"><ele>154.14285714285714</ele><time>2026-04-12T10:02:48Z</time></trkpt><trkpt lat="41.409210734911646" lon="13.950824855533135"><ele>152.85714285714286</ele><time>2026-04-12T10:02:49Z</time></trkpt><trkpt lat="41.40927608337908" lon="13.950845982768477"><ele>151.57142857142856</ele><time>2026-04-12T10:02:50Z</time></trkpt><trkpt lat="41.40934115115152" lon="13.950870700618896"><ele>150.28571428571428</ele><time>2026-04-12T10:02:51Z</time></trkpt><trkpt lat="41.40940800241091" lon="13.950922029674198"><ele>149.0</ele><time>2026-04-12T10:02:52Z</time></trkpt><trkpt lat="41.409478977729044" lon="13.950966038392005"><ele>149.0</ele><time>2026-04-12T10:02:53Z</time></trkpt><trkpt lat="41.40955077791168" lon="13.950993723220117"><ele>149.0</ele><time>2026-04-12T10:02:54Z</time></trkpt><trkpt lat="41.40965180019468" lon="13.951053109260908"><ele>149.0</ele><time>2026-04-12T10:02:55Z</time></trkpt><trkpt lat="41.40974038355986" lon="13.951106171026316"><ele>149.0</ele><time>2026-04-12T10:02:56Z</time></trkpt><trkpt lat="41.40982148612018" lon="13.951159224587277"><ele>149.0</ele><time>2026-04-12T10:02:57Z</time></trkpt><trkpt lat="41.40990260924082" lon="13.951221760457946"><ele>147.0</ele><time>2026-04-12T10:02:58Z</time></trkpt><trkpt lat="41.40997443541222" lon="13.951265699670225"><ele>145.0</ele><time>2026-04-12T10:02:59Z</time></trkpt><trkpt lat="41.410049322320866" lon="13.951329919608993"><ele>143.0</ele><time>2026-04-12T10:03:00Z</time></trkpt><trkpt lat="41.41013203049328" lon="13.95138872878197"><ele>141.0</ele><time>2026-04-12T10:03:01Z</time></trkpt><trkpt lat="41.41023630684538" lon="13.95146706233776"><ele>139.0</ele><time>2026-04-12T10:03:02Z</time></trkpt><trkpt lat="41.410355371625556" lon="13.951551670366925"><ele>139.0</ele><time>2026-04-12T10:03:03Z</time></trkpt><trkpt lat="41.410471745002084" lon="13.951630213381447"><ele>139.0</ele><time>2026-04-12T10:03:04Z</time></trkpt><trkpt lat="41.41059635224957" lon="13.951720094395277"><ele>139.0</ele><time>2026-04-12T10:03:05Z</time></trkpt><trkpt lat="41.410726216028436" lon="13.951809875498792"><ele>139.0</ele><time>2026-04-12T10:03:06Z</time></trkpt><trkpt lat="41.41084348151996" lon="13.951892452823548"><ele>137.0</ele><time>2026-04-12T10:03:07Z</time></trkpt><trkpt lat="41.41094720520202" lon="13.951968172218958"><ele>135.0</ele><time>2026-04-12T10:03:08Z</time></trkpt><trkpt lat="41.411034701175616" lon="13.95203069082572"><ele>133.0</ele><time>2026-04-12T10:03:09Z</time></trkpt><trkpt lat="41.41111456594865" lon="13.952084407977908"><ele>131.0</ele><time>2026-04-12T10:03:10Z</time></trkpt><trkpt lat="41.41117642613183" lon="13.952178145279046"><ele>129.0</ele><time>2026-04-12T10:03:12Z</time></trkpt><trkpt lat="41.411124139539496" lon="13.952365074366446"><ele>129.0</ele><time>2026-04-12T10:03:14Z</time></trkpt><trkpt lat="41.411075125368214" lon="13.952505143285988"><ele>129.0</ele><time>2026-04-12T10:03:15Z</time></trkpt><trkpt lat="41.41104148488668" lon="13.952629655209654"><ele>129.0</ele><time>2026-04-12T10:03:16Z</time></trkpt><trkpt lat="41.410994213926934" lon="13.952749364943818"><ele>129.0</ele><time>2026-04-12T10:03:17Z</time></trkpt><trkpt lat="41.41094801125302" lon="13.952856276421041"><ele>129.0</ele><time>2026-04-12T10:03:18Z</time></trkpt><trkpt lat="41.410921519748875" lon="13.952947172106272"><ele>129.0</ele><time>2026-04-12T10:03:19Z</time></trkpt><trkpt lat="41.41089486486702" lon="13.953026244352477"><ele>129.0</ele><time>2026-04-12T10:03:20Z</time></trkpt><trkpt lat="41.410871661043245" lon="13.953105106148676"><ele>129.0</ele><time>2026-04-12T10:03:21Z</time></trkpt><trkpt lat="41.410845620465686" lon="13.953182298586658"><ele>129.0</ele><time>2026-04-12T10:03:22Z</time></trkpt><trkpt lat="41.41080580176787" lon="13.953328788348037"><ele>129.0</ele><time>2026-04-12T10:03:24Z</time></trkpt><trkpt lat="41.410819690952074" lon="13.953419192455112"><ele>129.0</ele><time>2026-04-12T10:03:26Z</time></trkpt><trkpt lat="41.41089501797225" lon="13.953493763605955"><ele>129.0</ele><time>2026-04-12T10:03:28Z</time></trkpt><trkpt lat="41.41095829434695" lon="13.95360084531856"><ele>129.0</ele><time>2026-04-12T10:03:30Z</time></trkpt><trkpt lat="41.411014583745796" lon="13.95369377867232"><ele>129.0</ele><time>2026-04-12T10:03:32Z</time></trkpt><trkpt lat="41.41106803302572" lon="13.953796949098596"><ele>129.0</ele><time>2026-04-12T10:03:34Z</time></trkpt><trkpt lat="41.411237599794546" lon="13.953793626333516"><ele>129.0</ele><time>2026-04-12T10:03:35Z</time></trkpt><trkpt lat="41.4112616491679" lon="13.953912777804387"><ele>129.0</ele><time>2026-04-12T10:03:37Z</time></trkpt><trkpt lat="41.41122548197647" lon="13.954040664407394"><ele>129.0</ele><time>2026-04-12T10:03:38Z</time></trkpt><trkpt lat="41.411152273445175" lon="13.954153602610747"><ele>129.0</ele><time>2026-04-12T10:03:39Z</time></trkpt><trkpt lat="41.41109827707181" lon="13.954276028028218"><ele>129.0</ele><time>2026-04-12T10:03:40Z</time></trkpt><trkpt lat="41.411059940813786" lon="13.954413330789215"><ele>129.4</ele><time>2026-04-12T10:03:41Z</time></trkpt><trkpt lat="41.411039958355374" lon="13.954520785522195"><ele>129.8</ele><time>2026-04-12T10:03:42Z</time></trkpt><trkpt lat="41.41103622737525" lon="13.954624533907792"><ele>130.2</ele><time>2026-04-12T10:03:43Z</time></trkpt><trkpt lat="41.411018011337184" lon="13.954755092193812"><ele>130.6</ele><time>2026-04-12T10:03:44Z</time></trkpt><trkpt lat="41.41099300026481" lon="13.954930425910254"><ele>131.0</ele><time>2026-04-12T10:03:45Z</time></trkpt><trkpt lat="41.41097351214073" lon="13.955072000697422"><ele>131.25</ele><time>2026-04-12T10:03:46Z</time></trkpt><trkpt lat="41.41096631669841" lon="13.955180639977392"><ele>131.5</ele><time>2026-04-12T10:03:47Z</time></trkpt><trkpt lat="41.410994609488384" lon="13.955329118114886"><ele>131.75</ele><time>2026-04-12T10:03:48Z</time></trkpt><trkpt lat="41.41100939284242" lon="13.9555169720138"><ele>132.0</ele><time>2026-04-12T10:03:49Z</time></trkpt><trkpt lat="41.41103144077091" lon="13.955671495981935"><ele>132.0</ele><time>2026-04-12T10:03:50Z</time></trkpt><trkpt lat="41.41105629354966" lon="13.9557686879935"><ele>132.0</ele><time>2026-04-12T10:03:51Z</time></trkpt><trkpt lat="41.41105429640547" lon="13.955937100421506"><ele>132.0</ele><time>2026-04-12T10:03:53Z</time></trkpt><trkpt lat="41.41100035418471" lon="13.956072223856031"><ele>132.0</ele><time>2026-04-12T10:03:54Z</time></trkpt><trkpt lat="41.4110178557235" lon="13.95623365963289"><ele>132.0</ele><time>2026-04-12T10:03:55Z</time></trkpt><trkpt lat="41.411001479114" lon="13.956385913781038"><ele>132.5</ele><time>2026-04-12T10:03:56Z</time></trkpt><trkpt lat="41.41099137662185" lon="13.956565989476497"><ele>133.0</ele><time>2026-04-12T10:03:57Z</time></trkpt><trkpt lat="41.41097746060124" lon="13.956747433578833"><ele>133.5</ele><time>2026-04-12T10:03:58Z</time></trkpt><trkpt lat="41.41095641284244" lon="13.956905437700918"><ele>134.0</ele><time>2026-04-12T10:03:59Z</time></trkpt><trkpt lat="41.41090770163514" lon="13.957103298551063"><ele>134.0</ele><time>2026-04-12T10:04:00Z</time></trkpt><trkpt lat="41.41084793594968" lon="13.957309832574467"><ele>134.0</ele><time>2026-04-12T10:04:01Z</time></trkpt><trkpt lat="41.41078731281889" lon="13.957510326696998"><ele>134.0</ele><time>2026-04-12T10:04:02Z</time></trkpt><trkpt lat="41.410725012736215" lon="13.957709257490658"><ele>133.66666666666666</ele><time>2026-04-12T10:04:03Z</time></trkpt><trkpt lat="41.41066893967388" lon="13.957892908217113"><ele>133.33333333333334</ele><time>2026-04-12T10:04:04Z</time></trkpt><trkpt lat="41.41061061364853" lon="13.958068515642044"><ele>133.0</ele><time>2026-04-12T10:04:05Z</time></trkpt><trkpt lat="41.41053171227591" lon="13.958253334548395"><ele>135.0</ele><time>2026-04-12T10:04:06Z</time></trkpt><trkpt lat="41.41043918471983" lon="13.958445640223085"><ele>137.0</ele><time>2026-04-12T10:04:07Z</time></trkpt><trkpt lat="41.41035191805548" lon="13.958630573017176"><ele>139.0</ele><time>2026-04-12T10:04:08Z</time></trkpt><trkpt lat="41.4102718541389" lon="13.958817593478187"><ele>139.0</ele><time>2026-04-12T10:04:09Z</time></trkpt><trkpt lat="41.41019153901312" lon="13.959009365163805"><ele>139.0</ele><time>2026-04-12T10:04:10Z</time></trkpt><trkpt lat="41.41011888141151" lon="13.959185198814263"><ele>139.0</ele><time>2026-04-12T10:04:11Z</time></trkpt><trkpt lat="41.410055159625" lon="13.95934038755563"><ele>139.0</ele><time>2026-04-12T10:04:12Z</time></trkpt><trkpt lat="41.40998793296462" lon="13.95950969269215"><ele>137.33333333333334</ele><time>2026-04-12T10:04:13Z</time></trkpt><trkpt lat="41.40992475247364" lon="13.959672007209955"><ele>135.66666666666666</ele><time>2026-04-12T10:04:14Z</time></trkpt><trkpt lat="41.40985748406858" lon="13.959844328476379"><ele>134.0</ele><time>2026-04-12T10:04:15Z</time></trkpt><trkpt lat="41.40981055361285" lon="13.96005955159644"><ele>133.25</ele><time>2026-04-12T10:04:16Z</time></trkpt><trkpt lat="41.40979254290135" lon="13.960257934926645"><ele>132.5</ele><time>2026-04-12T10:04:17Z</time></trkpt><trkpt lat="41.40976732531451" lon="13.960461210620272"><ele>131.75</ele><time>2026-04-12T10:04:18Z</time></trkpt><trkpt lat="41.40972983034308" lon="13.960632623172872"><ele>131.0</ele><time>2026-04-12T10:04:19Z</time></trkpt><trkpt lat="41.40968126017395" lon="13.96081961800899"><ele>129.75</ele><time>2026-04-12T10:04:20.001Z</time></trkpt><trkpt lat="41.40962673274858" lon="13.961010217610115"><ele>128.5</ele><time>2026-04-12T10:04:21.001Z</time></trkpt><trkpt lat="41.40957698379906" lon="13.961196455801899"><ele>127.25</ele><time>2026-04-12T10:04:22.001Z</time></trkpt><trkpt lat="41.40954086044989" lon="13.96137591841389"><ele>126.0</ele><time>2026-04-12T10:04:23.001Z</time></trkpt><trkpt lat="41.40950169906161" lon="13.961556298679586"><ele>125.66666666666666</ele><time>2026-04-12T10:04:24.001Z</time></trkpt><trkpt lat="41.409441329055234" lon="13.961749429963946"><ele>125.33333333333333</ele><time>2026-04-12T10:04:25.001Z</time></trkpt><trkpt lat="41.40936396831902" lon="13.961937409811272"><ele>125.0</ele><time>2026-04-12T10:04:26.001Z</time></trkpt><trkpt lat="41.40927910624206" lon="13.962123670852083"><ele>125.0</ele><time>2026-04-12T10:04:27.001Z</time></trkpt><trkpt lat="41.409195873087626" lon="13.962315056196545"><ele>125.0</ele><time>2026-04-12T10:04:28.001Z</time></trkpt><trkpt lat="41.40912150553558" lon="13.962496184627097"><ele>125.0</ele><time>2026-04-12T10:04:29.001Z</time></trkpt><trkpt lat="41.409023482168955" lon="13.962613976248154"><ele>125.0</ele><time>2026-04-12T10:04:30.001Z</time></trkpt><trkpt lat="41.40892002075698" lon="13.962679269214691"><ele>125.0</ele><time>2026-04-12T10:04:31.001Z</time></trkpt><trkpt lat="41.40886900098605" lon="13.96281850870927"><ele>125.0</ele><time>2026-04-12T10:04:32.001Z</time></trkpt><trkpt lat="41.40884651158313" lon="13.962982188611702"><ele>125.0</ele><time>2026-04-12T10:04:33.001Z</time></trkpt><trkpt lat="41.4088417429441" lon="13.963165119062758"><ele>124.25</ele><time>2026-04-12T10:04:34.001Z</time></trkpt><trkpt lat="41.40886199578882" lon="13.96336573014902"><ele>123.5</ele><time>2026-04-12T10:04:35.001Z</time></trkpt><trkpt lat="41.40889590025072" lon="13.963545485380921"><ele>122.75</ele><time>2026-04-12T10:04:36.001Z</time></trkpt><trkpt lat="41.40892244515381" lon="13.963701341826408"><ele>122.0</ele><time>2026-04-12T10:04:37.001Z</time></trkpt><trkpt lat="41.40892524294239" lon="13.96385348669201"><ele>122.0</ele><time>2026-04-12T10:04:38.001Z</time></trkpt><trkpt lat="41.40887623660401" lon="13.96398405446709"><ele>122.0</ele><time>2026-04-12T10:04:39.001Z</time></trkpt><trkpt lat="41.408820355916" lon="13.964141272785156"><ele>122.0</ele><time>2026-04-12T10:04:40.001Z</time></trkpt><trkpt lat="41.40874269708725" lon="13.964319991727873"><ele>122.0</ele><time>2026-04-12T10:04:41.001Z</time></trkpt><trkpt lat="41.40865040229822" lon="13.964510644767245"><ele>121.66666666666666</ele><time>2026-04-12T10:04:42.001Z</time></trkpt><trkpt lat="41.408552022278016" lon="13.96471060361289"><ele>121.33333333333334</ele><time>2026-04-12T10:04:43.001Z</time></trkpt><trkpt lat="41.40846603829684" lon="13.964918031905128"><ele>121.0</ele><time>2026-04-12T10:04:44.001Z</time></trkpt><trkpt lat="41.40835598051269" lon="13.965111344325221"><ele>120.0</ele><time>2026-04-12T10:04:45.001Z</time></trkpt><trkpt lat="41.40822409052604" lon="13.965286696477746"><ele>119.0</ele><time>2026-04-12T10:04:46.001Z</time></trkpt><trkpt lat="41.408109600897085" lon="13.965461916880193"><ele>118.0</ele><time>2026-04-12T10:04:47.001Z</time></trkpt><trkpt lat="41.40800508633666" lon="13.96562174773823"><ele>118.0</ele><time>2026-04-12T10:04:48Z</time></trkpt><trkpt lat="41.40790218468099" lon="13.965802261806655"><ele>118.0</ele><time>2026-04-12T10:04:49Z</time></trkpt><trkpt lat="41.40781507498999" lon="13.965997858264656"><ele>118.0</ele><time>2026-04-12T10:04:50Z</time></trkpt><trkpt lat="41.407728687037185" lon="13.966209000052103"><ele>118.0</ele><time>2026-04-12T10:04:51Z</time></trkpt><trkpt lat="41.40764541891564" lon="13.966428987185708"><ele>118.0</ele><time>2026-04-12T10:04:52Z</time></trkpt><trkpt lat="41.407568853072696" lon="13.9666562333799"><ele>118.0</ele><time>2026-04-12T10:04:53Z</time></trkpt><trkpt lat="41.40749669253377" lon="13.966889803184438"><ele>118.33333333333334</ele><time>2026-04-12T10:04:54Z</time></trkpt><trkpt lat="41.407422214525404" lon="13.967117523314633"><ele>118.66666666666666</ele><time>2026-04-12T10:04:55Z</time></trkpt><trkpt lat="41.40734281313456" lon="13.967340574270253"><ele>119.0</ele><time>2026-04-12T10:04:56Z</time></trkpt><trkpt lat="41.40726427161115" lon="13.967568384675946"><ele>119.0</ele><time>2026-04-12T10:04:57Z</time></trkpt><trkpt lat="41.40719271711759" lon="13.967787831139917"><ele>119.0</ele><time>2026-04-12T10:04:58Z</time></trkpt><trkpt lat="41.4071118530022" lon="13.968000995972153"><ele>119.0</ele><time>2026-04-12T10:04:59Z</time></trkpt><trkpt lat="41.407010626205626" lon="13.968199840806651"><ele>120.66666666666666</ele><time>2026-04-12T10:05:00Z</time></trkpt><trkpt lat="41.40691546036828" lon="13.968406753462041"><ele>122.33333333333334</ele><time>2026-04-12T10:05:01Z</time></trkpt><trkpt lat="41.406800248367865" lon="13.968592794860838"><ele>124.0</ele><time>2026-04-12T10:05:02Z</time></trkpt><trkpt lat="41.40667862181572" lon="13.968761838894835"><ele>124.0</ele><time>2026-04-12T10:05:03Z</time></trkpt><trkpt lat="41.40654356770708" lon="13.968909705923952"><ele>124.0</ele><time>2026-04-12T10:05:04Z</time></trkpt><trkpt lat="41.40639715205008" lon="13.96902553772052"><ele>124.0</ele><time>2026-04-12T10:05:05Z</time></trkpt><trkpt lat="41.406261884940136" lon="13.969125475740352"><ele>124.75</ele><time>2026-04-12T10:05:06Z</time></trkpt><trkpt lat="41.40612416704913" lon="13.969215893959477"><ele>125.5</ele><time>2026-04-12T10:05:07Z</time></trkpt><trkpt lat="41.40599128180695" lon="13.969310465099426"><ele>126.25</ele><time>2026-04-12T10:05:08Z</time></trkpt><trkpt lat="41.4058791787388" lon="13.969370650791761"><ele>127.0</ele><time>2026-04-12T10:05:09Z</time></trkpt><trkpt lat="41.4057949498163" lon="13.969427297934182"><ele>127.00000000000001</ele><time>2026-04-12T10:05:10Z</time></trkpt><trkpt lat="41.405734215690934" lon="13.969454589438108"><ele>127.0</ele><time>2026-04-12T10:05:11Z</time></trkpt><trkpt lat="41.40569172283928" lon="13.969313754024936"><ele>127.0</ele><time>2026-04-12T10:05:15Z</time></trkpt><trkpt lat="41.405628870424145" lon="13.969164609875717"><ele>127.0</ele><time>2026-04-12T10:05:17Z</time></trkpt><trkpt lat="41.40559848932568" lon="13.969090200128402"><ele>127.00000000000001</ele><time>2026-04-12T10:05:18Z</time></trkpt><trkpt lat="41.40556112031322" lon="13.96900232708044"><ele>127.0</ele><time>2026-04-12T10:05:19Z</time></trkpt><trkpt lat="41.40551200453825" lon="13.968886831452199"><ele>128.25</ele><time>2026-04-12T10:05:20Z</time></trkpt><trkpt lat="41.405305549784515" lon="13.968939740071706"><ele>129.5</ele><time>2026-04-12T10:05:21Z</time></trkpt><trkpt lat="41.40521077096206" lon="13.968859447044307"><ele>130.75</ele><time>2026-04-12T10:05:23Z</time></trkpt><trkpt lat="41.40512836774619" lon="13.96878071276697"><ele>132.0</ele><time>2026-04-12T10:05:25.016Z</time></trkpt><trkpt lat="41.405035516993415" lon="13.968698180119484"><ele>132.0</ele><time>2026-04-12T10:05:27Z</time></trkpt><trkpt lat="41.404942081677454" lon="13.968520648037378"><ele>132.0</ele><time>2026-04-12T10:05:29Z</time></trkpt><trkpt lat="41.40486684750015" lon="13.968449566785047"><ele>132.0</ele><time>2026-04-12T10:05:30Z</time></trkpt><trkpt lat="41.404787825936786" lon="13.968390062083243"><ele>132.0</ele><time>2026-04-12T10:05:31Z</time></trkpt><trkpt lat="41.40471358820858" lon="13.96832607449052"><ele>132.0</ele><time>2026-04-12T10:05:32Z</time></trkpt><trkpt lat="41.40466596195609" lon="13.968258023215423"><ele>132.4</ele><time>2026-04-12T10:05:33Z</time></trkpt><trkpt lat="41.40457554367411" lon="13.968146251490712"><ele>132.79999999999998</ele><time>2026-04-12T10:05:35Z</time></trkpt><trkpt lat="41.4045097502576" lon="13.968062896283266"><ele>133.2</ele><time>2026-04-12T10:05:36Z</time></trkpt><trkpt lat="41.4044855302984" lon="13.967975647149313"><ele>133.6</ele><time>2026-04-12T10:05:38Z</time></trkpt><trkpt lat="41.40453107252146" lon="13.967857144190823"><ele>134.0</ele><time>2026-04-12T10:05:41Z</time></trkpt><trkpt lat="41.40456258702671" lon="13.967751995697075"><ele>133.75</ele><time>2026-04-12T10:05:43Z</time></trkpt><trkpt lat="41.404708351524356" lon="13.96753368617169"><ele>133.5</ele><time>2026-04-12T10:06:13Z</time></trkpt><trkpt lat="41.4047803087325" lon="13.967378378177985"><ele>133.25</ele><time>2026-04-12T10:06:14Z</time></trkpt><trkpt lat="41.404822388630095" lon="13.967307332768133"><ele>133.0</ele><time>2026-04-12T10:06:15Z</time></trkpt><trkpt lat="41.40482085749644" lon="13.967467712316184"><ele>133.0</ele><time>2026-04-12T10:06:19Z</time></trkpt><trkpt lat="41.40484185320112" lon="13.967557609944945"><ele>133.0</ele><time>2026-04-12T10:06:20Z</time></trkpt><trkpt lat="41.404907322761396" lon="13.967614760695174"><ele>133.0</ele><time>2026-04-12T10:06:21Z</time></trkpt><trkpt lat="41.405003486290425" lon="13.967670418605008"><ele>133.0</ele><time>2026-04-12T10:06:22Z</time></trkpt><trkpt lat="41.405079413647464" lon="13.967765248668654"><ele>133.0</ele><time>2026-04-12T10:06:23Z</time></trkpt><trkpt lat="41.405171717238616" lon="13.967660545439402"><ele>132.6</ele><time>2026-04-12T10:06:27Z</time></trkpt><trkpt lat="41.405220311800285" lon="13.967520269366513"><ele>132.20000000000002</ele><time>2026-04-12T10:06:28Z</time></trkpt><trkpt lat="41.40523623737252" lon="13.967419813431027"><ele>131.8</ele><time>2026-04-12T10:06:29Z</time></trkpt><trkpt lat="41.405166696016956" lon="13.967298490213167"><ele>131.4</ele><time>2026-04-12T10:06:31Z</time></trkpt><trkpt lat="41.405070043446855" lon="13.96724086757512"><ele>131.0</ele><time>2026-04-12T10:06:32Z</time></trkpt><trkpt lat="41.40497045530607" lon="13.967173487942095"><ele>131.0</ele><time>2026-04-12T10:06:33Z</time></trkpt><trkpt lat="41.40493801986603" lon="13.967094024595388"><ele>131.0</ele><time>2026-04-12T10:06:34Z</time></trkpt><trkpt lat="41.404942920007045" lon="13.967002810381002"><ele>131.0</ele><time>2026-04-12T10:06:35Z</time></trkpt><trkpt lat="41.404994546401895" lon="13.966892068350212"><ele>131.0</ele><time>2026-04-12T10:06:36Z</time></trkpt><trkpt lat="41.40508764654882" lon="13.966754767230363"><ele>131.0</ele><time>2026-04-12T10:06:37Z</time></trkpt><trkpt lat="41.40518652464082" lon="13.966604863964866"><ele>131.0</ele><time>2026-04-12T10:06:38Z</time></trkpt><trkpt lat="41.405254665229414" lon="13.966459697751507"><ele>131.0</ele><time>2026-04-12T10:06:39Z</time></trkpt><trkpt lat="41.40529955038786" lon="13.96633171605553"><ele>131.0</ele><time>2026-04-12T10:06:40Z</time></trkpt><trkpt lat="41.4053111226348" lon="13.966223263323416"><ele>131.0</ele><time>2026-04-12T10:06:41Z</time></trkpt><trkpt lat="41.40530295651215" lon="13.966127323872426"><ele>131.0</ele><time>2026-04-12T10:06:42Z</time></trkpt><trkpt lat="41.40520078243309" lon="13.96602163503157"><ele>131.0</ele><time>2026-04-12T10:06:44Z</time></trkpt><trkpt lat="41.405100731984255" lon="13.965966102627506"><ele>131.0</ele><time>2026-04-12T10:06:45Z</time></trkpt><trkpt lat="41.40500239958442" lon="13.965928343207786"><ele>131.0</ele><time>2026-04-12T10:06:46Z</time></trkpt><trkpt lat="41.404929315094165" lon="13.965930956303188"><ele>131.0</ele><time>2026-04-12T10:06:47Z</time></trkpt><trkpt lat="41.40487239750355" lon="13.965992638480957"><ele>131.0</ele><time>2026-04-12T10:06:48Z</time></trkpt><trkpt lat="41.40484893937331" lon="13.96609815126431"><ele>131.0</ele><time>2026-04-12T10:06:49Z</time></trkpt><trkpt lat="41.40484685294623" lon="13.966266598547717"><ele>131.0</ele><time>2026-04-12T10:06:50Z</time></trkpt><trkpt lat="41.404842168508154" lon="13.966458575253537"><ele>131.0</ele><time>2026-04-12T10:06:51Z</time></trkpt><trkpt lat="41.40482327852097" lon="13.966642840502258"><ele>131.0</ele><time>2026-04-12T10:06:52Z</time></trkpt><trkpt lat="41.40481342020495" lon="13.966808194233762"><ele>131.0</ele><time>2026-04-12T10:06:53Z</time></trkpt><trkpt lat="41.40481172903645" lon="13.96690715344294"><ele>131.0</ele><time>2026-04-12T10:06:54Z</time></trkpt><trkpt lat="41.4046842333987" lon="13.966840970321801"><ele>131.0</ele><time>2026-04-12T10:06:57Z</time></trkpt><trkpt lat="41.404616823976255" lon="13.966719065416983"><ele>131.0</ele><time>2026-04-12T10:06:58Z</time></trkpt><trkpt lat="41.404553268124786" lon="13.96654218085164"><ele>131.0</ele><time>2026-04-12T10:06:59Z</time></trkpt><trkpt lat="41.40449612051059" lon="13.966350302385466"><ele>131.0</ele><time>2026-04-12T10:07:00Z</time></trkpt><trkpt lat="41.40446944531802" lon="13.966241760258793"><ele>131.0</ele><time>2026-04-12T10:07:01Z</time></trkpt><trkpt lat="41.404543051654436" lon="13.966102114442206"><ele>131.0</ele><time>2026-04-12T10:07:03Z</time></trkpt><trkpt lat="41.4046157601088" lon="13.965993334313161"><ele>131.0</ele><time>2026-04-12T10:07:04Z</time></trkpt><trkpt lat="41.404664924757014" lon="13.96590995328751"><ele>131.0</ele><time>2026-04-12T10:07:05Z</time></trkpt><trkpt lat="41.40466146632861" lon="13.965817574596315"><ele>133.0</ele><time>2026-04-12T10:07:07Z</time></trkpt><trkpt lat="41.40453503198715" lon="13.965876638950622"><ele>135.0</ele><time>2026-04-12T10:07:09Z</time></trkpt><trkpt lat="41.40445639032945" lon="13.965981822613964"><ele>137.0</ele><time>2026-04-12T10:07:10Z</time></trkpt><trkpt lat="41.40437477617191" lon="13.966128211366106"><ele>139.0</ele><time>2026-04-12T10:07:11Z</time></trkpt><trkpt lat="41.4042873712677" lon="13.966197279300905"><ele>139.0</ele><time>2026-04-12T10:07:12Z</time></trkpt><trkpt lat="41.40426616056609" lon="13.966067531052422"><ele>139.0</ele><time>2026-04-12T10:07:15Z</time></trkpt><trkpt lat="41.40431414345164" lon="13.965934736007837"><ele>139.0</ele><time>2026-04-12T10:07:16Z</time></trkpt><trkpt lat="41.40435789692819" lon="13.965841078169989"><ele>139.0</ele><time>2026-04-12T10:07:17Z</time></trkpt><trkpt lat="41.404324518196574" lon="13.96575475787476"><ele>139.0</ele><time>2026-04-12T10:07:19Z</time></trkpt><trkpt lat="41.40422624386064" lon="13.965806513854817"><ele>139.0</ele><time>2026-04-12T10:07:21Z</time></trkpt><trkpt lat="41.40415964115721" lon="13.965922005698465"><ele>139.0</ele><time>2026-04-12T10:07:22Z</time></trkpt><trkpt lat="41.40409373960424" lon="13.966009893968055"><ele>139.0</ele><time>2026-04-12T10:07:23Z</time></trkpt><trkpt lat="41.40400743840783" lon="13.965942284303175"><ele>139.0</ele><time>2026-04-12T10:07:25Z</time></trkpt><trkpt lat="41.40395574839401" lon="13.965854891895749"><ele>139.0</ele><time>2026-04-12T10:07:26Z</time></trkpt><trkpt lat="41.40391946017193" lon="13.96576774199514"><ele>139.0</ele><time>2026-04-12T10:07:27Z</time></trkpt><trkpt lat="41.403948484106174" lon="13.965674258583862"><ele>139.0</ele><time>2026-04-12T10:07:28Z</time></trkpt><trkpt lat="41.404023799492656" lon="13.96556033126013"><ele>139.0</ele><time>2026-04-12T10:07:29Z</time></trkpt><trkpt lat="41.40409747781487" lon="13.965436621994085"><ele>139.0</ele><time>2026-04-12T10:07:30Z</time></trkpt><trkpt lat="41.4041230191616" lon="13.965351418282633"><ele>139.0</ele><time>2026-04-12T10:07:31Z</time></trkpt><trkpt lat="41.40406550970202" lon="13.965313654185545"><ele>139.0</ele><time>2026-04-12T10:07:33Z</time></trkpt><trkpt lat="41.40397804960148" lon="13.965355096685675"><ele>139.0</ele><time>2026-04-12T10:07:35Z</time></trkpt><trkpt lat="41.403895301711856" lon="13.965455245201658"><ele>139.0</ele><time>2026-04-12T10:07:36Z</time></trkpt><trkpt lat="41.40382078551234" lon="13.965547048240632"><ele>139.0</ele><time>2026-04-12T10:07:37Z</time></trkpt><trkpt lat="41.40385731158275" lon="13.965669356541133"><ele>139.0</ele><time>2026-04-12T10:07:39Z</time></trkpt><trkpt lat="41.40385480859828" lon="13.965814418212751"><ele>139.0</ele><time>2026-04-12T10:07:41Z</time></trkpt><trkpt lat="41.403784843628216" lon="13.965911147237259"><ele>142.4</ele><time>2026-04-12T10:07:42Z</time></trkpt><trkpt lat="41.403695153903904" lon="13.966046351930279"><ele>145.8</ele><time>2026-04-12T10:07:43Z</time></trkpt><trkpt lat="41.40362765543764" lon="13.966142049182338"><ele>149.2</ele><time>2026-04-12T10:07:44Z</time></trkpt><trkpt lat="41.40351307978242" lon="13.966130432372518"><ele>152.6</ele><time>2026-04-12T10:07:46Z</time></trkpt><trkpt lat="41.40353655121397" lon="13.966246560045308"><ele>156.0</ele><time>2026-04-12T10:07:48Z</time></trkpt><trkpt lat="41.40363156233774" lon="13.966274588391215"><ele>156.0</ele><time>2026-04-12T10:07:49Z</time></trkpt><trkpt lat="41.40373886960951" lon="13.966241092425108"><ele>156.0</ele><time>2026-04-12T10:07:50Z</time></trkpt><trkpt lat="41.40385016277363" lon="13.966163242915702"><ele>156.0</ele><time>2026-04-12T10:07:51Z</time></trkpt><trkpt lat="41.40392026299123" lon="13.966085205949673"><ele>156.0</ele><time>2026-04-12T10:07:52Z</time></trkpt><trkpt lat="41.40395966080852" lon="13.965998069444167"><ele>156.0</ele><time>2026-04-12T10:07:53Z</time></trkpt><trkpt lat="41.404061402411045" lon="13.966043523076989"><ele>156.0</ele><time>2026-04-12T10:07:55Z</time></trkpt><trkpt lat="41.40409845914087" lon="13.96617657261482"><ele>156.0</ele><time>2026-04-12T10:07:57Z</time></trkpt><trkpt lat="41.40400276183319" lon="13.966271578110275"><ele>156.0</ele><time>2026-04-12T10:07:59Z</time></trkpt><trkpt lat="41.4039086985168" lon="13.966283177121264"><ele>156.0</ele><time>2026-04-12T10:08:00Z</time></trkpt><trkpt lat="41.40380833701172" lon="13.96631277259408"><ele>156.0</ele><time>2026-04-12T10:08:01Z</time></trkpt><trkpt lat="41.40373161024643" lon="13.966386368538867"><ele>156.0</ele><time>2026-04-12T10:08:02Z</time></trkpt><trkpt lat="41.4036483215604" lon="13.966529585138963"><ele>156.0</ele><time>2026-04-12T10:08:03Z</time></trkpt><trkpt lat="41.40357988775481" lon="13.966698917153163"><ele>156.0</ele><time>2026-04-12T10:08:04Z</time></trkpt><trkpt lat="41.40355982331116" lon="13.966810665293833"><ele>156.0</ele><time>2026-04-12T10:08:05Z</time></trkpt><trkpt lat="41.403638442763935" lon="13.96688316485577"><ele>156.0</ele><time>2026-04-12T10:08:07Z</time></trkpt><trkpt lat="41.40373360705247" lon="13.966930549688772"><ele>156.0</ele><time>2026-04-12T10:08:08Z</time></trkpt><trkpt lat="41.40378771820102" lon="13.966989350682715"><ele>156.0</ele><time>2026-04-12T10:08:09Z</time></trkpt><trkpt lat="41.403851785850044" lon="13.96687003116703"><ele>156.0</ele><time>2026-04-12T10:08:12Z</time></trkpt><trkpt lat="41.403833596169235" lon="13.966766831141273"><ele>156.0</ele><time>2026-04-12T10:08:13Z</time></trkpt><trkpt lat="41.403789414985475" lon="13.966676183184916"><ele>156.0</ele><time>2026-04-12T10:08:14Z</time></trkpt><trkpt lat="41.40380756946587" lon="13.96658006264924"><ele>152.6</ele><time>2026-04-12T10:08:16Z</time></trkpt><trkpt lat="41.40389673680981" lon="13.966514415413382"><ele>149.2</ele><time>2026-04-12T10:08:17Z</time></trkpt><trkpt lat="41.40401313907542" lon="13.966435314366569"><ele>145.8</ele><time>2026-04-12T10:08:18Z</time></trkpt><trkpt lat="41.404108501468805" lon="13.966390314244938"><ele>142.4</ele><time>2026-04-12T10:08:19Z</time></trkpt><trkpt lat="41.404178787309206" lon="13.966437843044359"><ele>139.0</ele><time>2026-04-12T10:08:21Z</time></trkpt><trkpt lat="41.404191816817864" lon="13.966637169106056"><ele>138.6</ele><time>2026-04-12T10:08:23Z</time></trkpt><trkpt lat="41.404165722590264" lon="13.966755656648118"><ele>138.2</ele><time>2026-04-12T10:08:24Z</time></trkpt><trkpt lat="41.404101799035324" lon="13.966840069661743"><ele>137.79999999999998</ele><time>2026-04-12T10:08:25Z</time></trkpt><trkpt lat="41.40400209678092" lon="13.966920909361159"><ele>137.4</ele><time>2026-04-12T10:08:26Z</time></trkpt><trkpt lat="41.40389734371818" lon="13.967021031123686"><ele>137.0</ele><time>2026-04-12T10:08:27Z</time></trkpt><trkpt lat="41.40386559627143" lon="13.967098801961965"><ele>137.0</ele><time>2026-04-12T10:08:28Z</time></trkpt><trkpt lat="41.40393157324844" lon="13.96718612030024"><ele>137.0</ele><time>2026-04-12T10:08:30Z</time></trkpt><trkpt lat="41.40399864447383" lon="13.967173140031823"><ele>137.0</ele><time>2026-04-12T10:08:31Z</time></trkpt><trkpt lat="41.40406509381811" lon="13.9671174338092"><ele>137.0</ele><time>2026-04-12T10:08:32Z</time></trkpt><trkpt lat="41.40414250535178" lon="13.967007872653104"><ele>137.0</ele><time>2026-04-12T10:08:33Z</time></trkpt><trkpt lat="41.404253181175115" lon="13.966842299798945"><ele>137.0</ele><time>2026-04-12T10:08:34Z</time></trkpt><trkpt lat="41.40434413298912" lon="13.966745972362265"><ele>137.0</ele><time>2026-04-12T10:08:35Z</time></trkpt><trkpt lat="41.4043762202245" lon="13.966590465311496"><ele>137.0</ele><time>2026-04-12T10:08:37Z</time></trkpt><trkpt lat="41.40435974769535" lon="13.966473103827399"><ele>137.0</ele><time>2026-04-12T10:08:38Z</time></trkpt><trkpt lat="41.404438362538485" lon="13.966463514061264"><ele>137.0</ele><time>2026-04-12T10:08:41Z</time></trkpt><trkpt lat="41.40447625338998" lon="13.966547150998784"><ele>137.0</ele><time>2026-04-12T10:08:42Z</time></trkpt><trkpt lat="41.4045186604389" lon="13.966693344246455"><ele>137.0</ele><time>2026-04-12T10:08:43Z</time></trkpt><trkpt lat="41.40454227396366" lon="13.966842013411972"><ele>137.0</ele><time>2026-04-12T10:08:44Z</time></trkpt><trkpt lat="41.40452689145375" lon="13.966937100576807"><ele>137.0</ele><time>2026-04-12T10:08:45Z</time></trkpt><trkpt lat="41.40440147450374" lon="13.967024991947186"><ele>137.0</ele><time>2026-04-12T10:08:47Z</time></trkpt><trkpt lat="41.40428130672266" lon="13.967096173765285"><ele>137.0</ele><time>2026-04-12T10:08:48Z</time></trkpt><trkpt lat="41.404214777088086" lon="13.967143995810842"><ele>137.0</ele><time>2026-04-12T10:08:49Z</time></trkpt><trkpt lat="41.404266568410975" lon="13.967202146124922"><ele>137.0</ele><time>2026-04-12T10:08:51Z</time></trkpt><trkpt lat="41.404331942490984" lon="13.967182033905699"><ele>137.0</ele><time>2026-04-12T10:08:52Z</time></trkpt><trkpt lat="41.40443600609951" lon="13.967113594345022"><ele>137.0</ele><time>2026-04-12T10:08:53Z</time></trkpt><trkpt lat="41.40452787424579" lon="13.967050459465078"><ele>137.0</ele><time>2026-04-12T10:08:54Z</time></trkpt><trkpt lat="41.4045239240985" lon="13.967179586700441"><ele>137.0</ele><time>2026-04-12T10:08:57Z</time></trkpt><trkpt lat="41.404449404002435" lon="13.967248668954328"><ele>137.0</ele><time>2026-04-12T10:08:58Z</time></trkpt><trkpt lat="41.4043428953689" lon="13.967300469827304"><ele>137.0</ele><time>2026-04-12T10:08:59Z</time></trkpt><trkpt lat="41.404205943865016" lon="13.967353046221563"><ele>137.0</ele><time>2026-04-12T10:09:00Z</time></trkpt><trkpt lat="41.40411938440499" lon="13.967377587489015"><ele>137.0</ele><time>2026-04-12T10:09:01Z</time></trkpt><trkpt lat="41.40421653989575" lon="13.967448179930512"><ele>137.0</ele><time>2026-04-12T10:09:04Z</time></trkpt><trkpt lat="41.40431333027198" lon="13.967440229719564"><ele>137.0</ele><time>2026-04-12T10:09:05Z</time></trkpt><trkpt lat="41.404430983126744" lon="13.967366677649588"><ele>137.0</ele><time>2026-04-12T10:09:06Z</time></trkpt><trkpt lat="41.404578497592716" lon="13.967280342315593"><ele>137.0</ele><time>2026-04-12T10:09:07Z</time></trkpt><trkpt lat="41.40466639633594" lon="13.967204669887856"><ele>137.0</ele><time>2026-04-12T10:09:08Z</time></trkpt><trkpt lat="41.404728873736936" lon="13.967136615226067"><ele>137.0</ele><time>2026-04-12T10:09:09Z</time></trkpt><trkpt lat="41.404633586008245" lon="13.967414312543607"><ele>137.0</ele><time>2026-04-12T10:09:14Z</time></trkpt><trkpt lat="41.40461708472643" lon="13.96751948153157"><ele>137.0</ele><time>2026-04-12T10:09:16Z</time></trkpt><trkpt lat="41.404539410220586" lon="13.96754294433073"><ele>136.5</ele><time>2026-04-12T10:09:18Z</time></trkpt><trkpt lat="41.4044660169481" lon="13.967607212353375"><ele>136.0</ele><time>2026-04-12T10:09:20Z</time></trkpt><trkpt lat="41.40440135696314" lon="13.967595865876506"><ele>135.5</ele><time>2026-04-12T10:10:10Z</time></trkpt><trkpt lat="41.404324530274465" lon="13.967650580420438"><ele>135.0</ele><time>2026-04-12T10:10:12Z</time></trkpt><trkpt lat="41.404261727393205" lon="13.967675822610136"><ele>134.5</ele><time>2026-04-12T10:10:14Z</time></trkpt><trkpt lat="41.40418711304598" lon="13.967651913993572"><ele>134.0</ele><time>2026-04-12T10:10:16Z</time></trkpt><trkpt lat="41.404125268721124" lon="13.967599979266131"><ele>134.0</ele><time>2026-04-12T10:10:17Z</time></trkpt><trkpt lat="41.404039942757315" lon="13.967528796913559"><ele>134.0</ele><time>2026-04-12T10:10:18Z</time></trkpt><trkpt lat="41.40396044221498" lon="13.967461563909335"><ele>134.0</ele><time>2026-04-12T10:10:19Z</time></trkpt><trkpt lat="41.40386900791995" lon="13.967389515860505"><ele>134.0</ele><time>2026-04-12T10:10:20Z</time></trkpt><trkpt lat="41.40377051361171" lon="13.967321229550011"><ele>134.0</ele><time>2026-04-12T10:10:21Z</time></trkpt><trkpt lat="41.40369554219091" lon="13.967264570948851"><ele>138.33333333333331</ele><time>2026-04-12T10:10:22Z</time></trkpt><trkpt lat="41.40362247111775" lon="13.967206566963322"><ele>142.66666666666666</ele><time>2026-04-12T10:10:23Z</time></trkpt><trkpt lat="41.4035458495911" lon="13.967150079546967"><ele>147.0</ele><time>2026-04-12T10:10:24Z</time></trkpt><trkpt lat="41.4034872038329" lon="13.96711393903963"><ele>151.33333333333334</ele><time>2026-04-12T10:10:25Z</time></trkpt><trkpt lat="41.40341612263295" lon="13.967029196935416"><ele>155.66666666666669</ele><time>2026-04-12T10:10:29Z</time></trkpt><trkpt lat="41.403363463781325" lon="13.966977465110821"><ele>160.0</ele><time>2026-04-12T10:10:30Z</time></trkpt><trkpt lat="41.40331666353079" lon="13.966838117188567"><ele>159.2</ele><time>2026-04-12T10:10:32Z</time></trkpt><trkpt lat="41.40327509787545" lon="13.96668370320735"><ele>158.4</ele><time>2026-04-12T10:10:34Z</time></trkpt><trkpt lat="41.40323225725945" lon="13.966586041222012"><ele>157.6</ele><time>2026-04-12T10:10:35Z</time></trkpt><trkpt lat="41.403172930001695" lon="13.966493268385252"><ele>156.8</ele><time>2026-04-12T10:10:36Z</time></trkpt><trkpt lat="41.40312848603362" lon="13.966356013755593"><ele>156.0</ele><time>2026-04-12T10:10:37Z</time></trkpt><trkpt lat="41.403070263616975" lon="13.966250207817788"><ele>156.0</ele><time>2026-04-12T10:10:38Z</time></trkpt><trkpt lat="41.403024859920436" lon="13.96612829538088"><ele>156.0</ele><time>2026-04-12T10:10:39Z</time></trkpt><trkpt lat="41.40296560122884" lon="13.965963579812925"><ele>156.0</ele><time>2026-04-12T10:10:40Z</time></trkpt><trkpt lat="41.40290289231012" lon="13.965779101069623"><ele>156.0</ele><time>2026-04-12T10:10:41Z</time></trkpt><trkpt lat="41.402856956559866" lon="13.965611183737925"><ele>158.5</ele><time>2026-04-12T10:10:42Z</time></trkpt><trkpt lat="41.40281607482113" lon="13.96541915178629"><ele>161.0</ele><time>2026-04-12T10:10:43Z</time></trkpt><trkpt lat="41.40279371401167" lon="13.965250720413867"><ele>163.5</ele><time>2026-04-12T10:10:44Z</time></trkpt><trkpt lat="41.40277899083871" lon="13.965071831400994"><ele>166.0</ele><time>2026-04-12T10:10:45Z</time></trkpt><trkpt lat="41.40277269823582" lon="13.964883918244077"><ele>166.0</ele><time>2026-04-12T10:10:46Z</time></trkpt><trkpt lat="41.402774753887954" lon="13.964713564276003"><ele>166.0</ele><time>2026-04-12T10:10:47Z</time></trkpt><trkpt lat="41.402789208360524" lon="13.96451600582054"><ele>166.0</ele><time>2026-04-12T10:10:48Z</time></trkpt><trkpt lat="41.40281913778762" lon="13.964338284892879"><ele>166.0</ele><time>2026-04-12T10:10:49Z</time></trkpt><trkpt lat="41.40281522784722" lon="13.96416909982796"><ele>169.25</ele><time>2026-04-12T10:10:50Z</time></trkpt><trkpt lat="41.40282891922899" lon="13.963970129649947"><ele>172.5</ele><time>2026-04-12T10:10:51Z</time></trkpt><trkpt lat="41.40283883015682" lon="13.963773423831725"><ele>175.75</ele><time>2026-04-12T10:10:52Z</time></trkpt><trkpt lat="41.40283911885467" lon="13.963580509426055"><ele>179.0</ele><time>2026-04-12T10:10:53Z</time></trkpt><trkpt lat="41.402834626245564" lon="13.96339541583303"><ele>182.5</ele><time>2026-04-12T10:10:54Z</time></trkpt><trkpt lat="41.40280809940888" lon="13.96321312085508"><ele>186.0</ele><time>2026-04-12T10:10:55Z</time></trkpt><trkpt lat="41.40276352186514" lon="13.963041216817249"><ele>189.5</ele><time>2026-04-12T10:10:56Z</time></trkpt><trkpt lat="41.402708392177544" lon="13.962867351231521"><ele>193.0</ele><time>2026-04-12T10:10:57Z</time></trkpt><trkpt lat="41.40266478529179" lon="13.96268220882821"><ele>194.0</ele><time>2026-04-12T10:10:58Z</time></trkpt><trkpt lat="41.402621214192145" lon="13.962501434213081"><ele>195.0</ele><time>2026-04-12T10:10:59Z</time></trkpt><trkpt lat="41.40260494274059" lon="13.962303831411752"><ele>196.0</ele><time>2026-04-12T10:11:00Z</time></trkpt><trkpt lat="41.402592314453344" lon="13.962113970084113"><ele>197.0</ele><time>2026-04-12T10:11:01Z</time></trkpt><trkpt lat="41.40258745017127" lon="13.961929994491673"><ele>197.0</ele><time>2026-04-12T10:11:02Z</time></trkpt><trkpt lat="41.40258722139393" lon="13.96175018478898"><ele>197.0</ele><time>2026-04-12T10:11:03Z</time></trkpt><trkpt lat="41.40259564716235" lon="13.961565998413176"><ele>197.0</ele><time>2026-04-12T10:11:04Z</time></trkpt><trkpt lat="41.402612345186384" lon="13.961401139580497"><ele>197.0</ele><time>2026-04-12T10:11:05Z</time></trkpt><trkpt lat="41.402638050159716" lon="13.961228017025633"><ele>198.75</ele><time>2026-04-12T10:11:06Z</time></trkpt><trkpt lat="41.40266731947069" lon="13.961035243856513"><ele>200.5</ele><time>2026-04-12T10:11:07Z</time></trkpt><trkpt lat="41.40269946780883" lon="13.960855810789692"><ele>202.25</ele><time>2026-04-12T10:11:08Z</time></trkpt><trkpt lat="41.40274180397596" lon="13.960677519713329"><ele>204.0</ele><time>2026-04-12T10:11:09Z</time></trkpt><trkpt lat="41.4027910196745" lon="13.960495818847498"><ele>208.66666666666669</ele><time>2026-04-12T10:11:10Z</time></trkpt><trkpt lat="41.40285013284431" lon="13.960310201191296"><ele>213.33333333333334</ele><time>2026-04-12T10:11:11Z</time></trkpt><trkpt lat="41.40291945120447" lon="13.960144873286575"><ele>218.0</ele><time>2026-04-12T10:11:12Z</time></trkpt><trkpt lat="41.40298538260153" lon="13.959955929297168"><ele>210.66666666666669</ele><time>2026-04-12T10:11:13Z</time></trkpt><trkpt lat="41.40305199751369" lon="13.959756131957002"><ele>203.33333333333331</ele><time>2026-04-12T10:11:14Z</time></trkpt><trkpt lat="41.403113933033914" lon="13.959552956921796"><ele>196.0</ele><time>2026-04-12T10:11:15Z</time></trkpt><trkpt lat="41.4031687114454" lon="13.959347821776396"><ele>199.66666666666666</ele><time>2026-04-12T10:11:16Z</time></trkpt><trkpt lat="41.403217200084214" lon="13.959148661846124"><ele>203.33333333333331</ele><time>2026-04-12T10:11:17Z</time></trkpt><trkpt lat="41.403255612847886" lon="13.958943814448148"><ele>207.0</ele><time>2026-04-12T10:11:18Z</time></trkpt><trkpt lat="41.40328171385503" lon="13.958735556112503"><ele>207.0</ele><time>2026-04-12T10:11:19Z</time></trkpt><trkpt lat="41.40330374450738" lon="13.958534769897767"><ele>207.0</ele><time>2026-04-12T10:11:20Z</time></trkpt><trkpt lat="41.4033216672969" lon="13.958331234714304"><ele>207.0</ele><time>2026-04-12T10:11:21Z</time></trkpt><trkpt lat="41.40333317993172" lon="13.958129258238605"><ele>209.25</ele><time>2026-04-12T10:11:22Z</time></trkpt><trkpt lat="41.403346083062964" lon="13.957932511850318"><ele>211.5</ele><time>2026-04-12T10:11:23Z</time></trkpt><trkpt lat="41.403357396164445" lon="13.957732876175115"><ele>213.75</ele><time>2026-04-12T10:11:24Z</time></trkpt><trkpt lat="41.403364267631005" lon="13.957533998928188"><ele>216.0</ele><time>2026-04-12T10:11:25Z</time></trkpt><trkpt lat="41.40337747961737" lon="13.957343491389922"><ele>219.0</ele><time>2026-04-12T10:11:26Z</time></trkpt><trkpt lat="41.40338935954499" lon="13.957148702588077"><ele>222.0</ele><time>2026-04-12T10:11:27Z</time></trkpt><trkpt lat="41.40340169858923" lon="13.956959438419508"><ele>225.0</ele><time>2026-04-12T10:11:28Z</time></trkpt><trkpt lat="41.40342346821546" lon="13.956769479121975"><ele>228.0</ele><time>2026-04-12T10:11:29Z</time></trkpt><trkpt lat="41.40344569103916" lon="13.956568746800253"><ele>232.33333333333331</ele><time>2026-04-12T10:11:30Z</time></trkpt><trkpt lat="41.40347946398167" lon="13.956366814484461"><ele>236.66666666666666</ele><time>2026-04-12T10:11:31Z</time></trkpt><trkpt lat="41.40351770711948" lon="13.956159180029916"><ele>241.0</ele><time>2026-04-12T10:11:32Z</time></trkpt><trkpt lat="41.403569910749354" lon="13.955911194067502"><ele>244.5</ele><time>2026-04-12T10:11:33Z</time></trkpt><trkpt lat="41.403613105449786" lon="13.95571405230881"><ele>248.0</ele><time>2026-04-12T10:11:34Z</time></trkpt><trkpt lat="41.40365506317906" lon="13.955532522694691"><ele>251.5</ele><time>2026-04-12T10:11:35Z</time></trkpt><trkpt lat="41.40369361628438" lon="13.955353665800354"><ele>255.0</ele><time>2026-04-12T10:11:36Z</time></trkpt><trkpt lat="41.40372213444824" lon="13.955172655176606"><ele>256.0</ele><time>2026-04-12T10:11:37Z</time></trkpt><trkpt lat="41.40373893890079" lon="13.954976728279824"><ele>257.0</ele><time>2026-04-12T10:11:38Z</time></trkpt><trkpt lat="41.40373890930722" lon="13.954785243882819"><ele>258.0</ele><time>2026-04-12T10:11:39Z</time></trkpt><trkpt lat="41.40373121856722" lon="13.954588897473247"><ele>259.0</ele><time>2026-04-12T10:11:40Z</time></trkpt><trkpt lat="41.403722288937686" lon="13.954388561818913"><ele>261.3333333333333</ele><time>2026-04-12T10:11:41Z</time></trkpt><trkpt lat="41.40366400545275" lon="13.954196246441686"><ele>263.6666666666667</ele><time>2026-04-12T10:11:42Z</time></trkpt><trkpt lat="41.40361572907707" lon="13.95400077318249"><ele>266.0</ele><time>2026-04-12T10:11:43Z</time></trkpt><trkpt lat="41.40356812036381" lon="13.953804329335382"><ele>266.0</ele><time>2026-04-12T10:11:44Z</time></trkpt><trkpt lat="41.403520067331876" lon="13.9536130672095"><ele>266.0</ele><time>2026-04-12T10:11:45Z</time></trkpt><trkpt lat="41.4034638374182" lon="13.953416684864795"><ele>266.0</ele><time>2026-04-12T10:11:46Z</time></trkpt><trkpt lat="41.40341463613912" lon="13.953218487542587"><ele>267.0</ele><time>2026-04-12T10:11:47Z</time></trkpt><trkpt lat="41.403371914479635" lon="13.953028381335201"><ele>268.0</ele><time>2026-04-12T10:11:48Z</time></trkpt><trkpt lat="41.40332403487402" lon="13.952829042911505"><ele>269.0</ele><time>2026-04-12T10:11:49Z</time></trkpt><trkpt lat="41.40327041296456" lon="13.952626427878425"><ele>270.0</ele><time>2026-04-12T10:11:50Z</time></trkpt><trkpt lat="41.40323008103517" lon="13.952444644985967"><ele>271.0</ele><time>2026-04-12T10:11:51Z</time></trkpt><trkpt lat="41.40318478662259" lon="13.95224284872855"><ele>272.0</ele><time>2026-04-12T10:11:52Z</time></trkpt><trkpt lat="41.40314017399049" lon="13.952038249021914"><ele>272.0</ele><time>2026-04-12T10:11:53Z</time></trkpt><trkpt lat="41.403096642698515" lon="13.951835415190995"><ele>272.0</ele><time>2026-04-12T10:11:54Z</time></trkpt><trkpt lat="41.40306188012009" lon="13.951616851338642"><ele>272.0</ele><time>2026-04-12T10:11:55Z</time></trkpt><trkpt lat="41.40303134407165" lon="13.95140314502892"><ele>280.33333333333337</ele><time>2026-04-12T10:11:56Z</time></trkpt><trkpt lat="41.40299690351026" lon="13.95116645486048"><ele>288.6666666666667</ele><time>2026-04-12T10:11:57Z</time></trkpt><trkpt lat="41.40297840207082" lon="13.950950896909948"><ele>297.0</ele><time>2026-04-12T10:11:58Z</time></trkpt><trkpt lat="41.40295860625789" lon="13.950758962907674"><ele>297.0</ele><time>2026-04-12T10:11:59Z</time></trkpt><trkpt lat="41.402940411722334" lon="13.950589712667487"><ele>297.0</ele><time>2026-04-12T10:12:00Z</time></trkpt><trkpt lat="41.40291023383867" lon="13.950445380919579"><ele>297.0</ele><time>2026-04-12T10:12:01Z</time></trkpt><trkpt lat="41.40287116604703" lon="13.950320446070478"><ele>297.0</ele><time>2026-04-12T10:12:02Z</time></trkpt><trkpt lat="41.4028240720451" lon="13.950193623583596"><ele>297.0</ele><time>2026-04-12T10:12:03Z</time></trkpt><trkpt lat="41.4027425914536" lon="13.950120249574807"><ele>297.0</ele><time>2026-04-12T10:12:04Z</time></trkpt><trkpt lat="41.40264614912414" lon="13.950108638955971"><ele>297.0</ele><time>2026-04-12T10:12:05Z</time></trkpt><trkpt lat="41.402557329438096" lon="13.950186919394136"><ele>297.0</ele><time>2026-04-12T10:12:06Z</time></trkpt><trkpt lat="41.40251080644528" lon="13.950300052155821"><ele>297.0</ele><time>2026-04-12T10:12:07Z</time></trkpt><trkpt lat="41.402464511449175" lon="13.950413789860113"><ele>297.0</ele><time>2026-04-12T10:12:08Z</time></trkpt><trkpt lat="41.402415222084684" lon="13.950551229756751"><ele>297.0</ele><time>2026-04-12T10:12:09Z</time></trkpt><trkpt lat="41.40236926519384" lon="13.950705115448176"><ele>297.0</ele><time>2026-04-12T10:12:10Z</time></trkpt><trkpt lat="41.402317313695086" lon="13.950861470927059"><ele>297.0</ele><time>2026-04-12T10:12:11Z</time></trkpt><trkpt lat="41.40224686607017" lon="13.95102224787201"><ele>297.0</ele><time>2026-04-12T10:12:12Z</time></trkpt><trkpt lat="41.40218329851527" lon="13.951185266956355"><ele>302.5</ele><time>2026-04-12T10:12:13Z</time></trkpt><trkpt lat="41.40212117893118" lon="13.95135511481733"><ele>308.0</ele><time>2026-04-12T10:12:14Z</time></trkpt><trkpt lat="41.40205766208491" lon="13.951529282372379"><ele>313.5</ele><time>2026-04-12T10:12:15Z</time></trkpt><trkpt lat="41.40199202313159" lon="13.95172178003117"><ele>319.0</ele><time>2026-04-12T10:12:16Z</time></trkpt><trkpt lat="41.401921842458236" lon="13.951918513691853"><ele>319.0</ele><time>2026-04-12T10:12:17Z</time></trkpt><trkpt lat="41.40185418556544" lon="13.952111119018872"><ele>319.0</ele><time>2026-04-12T10:12:18Z</time></trkpt><trkpt lat="41.40178485964248" lon="13.952316154963022"><ele>319.0</ele><time>2026-04-12T10:12:19Z</time></trkpt><trkpt lat="41.40171518002956" lon="13.952518108207972"><ele>318.3333333333333</ele><time>2026-04-12T10:12:20Z</time></trkpt><trkpt lat="41.40164958542528" lon="13.952723095944043"><ele>317.6666666666667</ele><time>2026-04-12T10:12:21Z</time></trkpt><trkpt lat="41.40158545670806" lon="13.952926141987575"><ele>317.0</ele><time>2026-04-12T10:12:22Z</time></trkpt><trkpt lat="41.40151722205711" lon="13.953127351672494"><ele>317.0</ele><time>2026-04-12T10:12:23Z</time></trkpt><trkpt lat="41.40144319710331" lon="13.95332143024408"><ele>317.0</ele><time>2026-04-12T10:12:24Z</time></trkpt><trkpt lat="41.40136750237178" lon="13.953516124757435"><ele>317.0</ele><time>2026-04-12T10:12:25Z</time></trkpt><trkpt lat="41.40129056029175" lon="13.953716256768418"><ele>321.33333333333337</ele><time>2026-04-12T10:12:26Z</time></trkpt><trkpt lat="41.40121469952197" lon="13.953919638534632"><ele>325.6666666666667</ele><time>2026-04-12T10:12:27Z</time></trkpt><trkpt lat="41.40112772834272" lon="13.954098492721332"><ele>330.0</ele><time>2026-04-12T10:12:28Z</time></trkpt><trkpt lat="41.401045509352485" lon="13.954298648226365"><ele>330.0</ele><time>2026-04-12T10:12:29Z</time></trkpt><trkpt lat="41.40096802379447" lon="13.954490520367452"><ele>330.0</ele><time>2026-04-12T10:12:30Z</time></trkpt><trkpt lat="41.40089444359212" lon="13.954680184344404"><ele>330.0</ele><time>2026-04-12T10:12:31Z</time></trkpt><trkpt lat="41.40081979783947" lon="13.954876100256666"><ele>330.0</ele><time>2026-04-12T10:12:32Z</time></trkpt><trkpt lat="41.400749827932096" lon="13.955064580653785"><ele>330.0</ele><time>2026-04-12T10:12:33Z</time></trkpt><trkpt lat="41.40068055955706" lon="13.955256414132279"><ele>330.0</ele><time>2026-04-12T10:12:34Z</time></trkpt><trkpt lat="41.40061440222364" lon="13.955444911492929"><ele>330.0</ele><time>2026-04-12T10:12:35Z</time></trkpt><trkpt lat="41.40055069403196" lon="13.955636016228329"><ele>330.0</ele><time>2026-04-12T10:12:36Z</time></trkpt><trkpt lat="41.40048925953848" lon="13.955822464448458"><ele>330.0</ele><time>2026-04-12T10:12:37Z</time></trkpt><trkpt lat="41.4004435132424" lon="13.956005315181423"><ele>337.0</ele><time>2026-04-12T10:12:38Z</time></trkpt><trkpt lat="41.40038396979046" lon="13.956171923140905"><ele>344.0</ele><time>2026-04-12T10:12:39Z</time></trkpt><trkpt lat="41.400323862774876" lon="13.956348779022738"><ele>351.0</ele><time>2026-04-12T10:12:40Z</time></trkpt><trkpt lat="41.40026071583117" lon="13.956524832199241"><ele>358.0</ele><time>2026-04-12T10:12:41Z</time></trkpt><trkpt lat="41.40018949144672" lon="13.956712673133884"><ele>358.25</ele><time>2026-04-12T10:12:42Z</time></trkpt><trkpt lat="41.40011935469376" lon="13.956890557182717"><ele>358.5</ele><time>2026-04-12T10:12:43Z</time></trkpt><trkpt lat="41.400056464088486" lon="13.957059182944812"><ele>358.75</ele><time>2026-04-12T10:12:44Z</time></trkpt><trkpt lat="41.39998819019777" lon="13.957188108086793"><ele>359.0</ele><time>2026-04-12T10:12:45Z</time></trkpt><trkpt lat="41.39993886602583" lon="13.957325515314054"><ele>359.0</ele><time>2026-04-12T10:12:46Z</time></trkpt><trkpt lat="41.39982775260073" lon="13.957374134298012"><ele>359.0</ele><time>2026-04-12T10:12:48Z</time></trkpt><trkpt lat="41.3997551993543" lon="13.957329610020823"><ele>359.0</ele><time>2026-04-12T10:12:49Z</time></trkpt><trkpt lat="41.399735906824546" lon="13.95723054660301"><ele>359.0</ele><time>2026-04-12T10:12:50Z</time></trkpt><trkpt lat="41.39974069858398" lon="13.957144203638828"><ele>359.0</ele><time>2026-04-12T10:12:51Z</time></trkpt><trkpt lat="41.399748073615605" lon="13.957039386745377"><ele>359.0</ele><time>2026-04-12T10:12:52Z</time></trkpt><trkpt lat="41.3997402402728" lon="13.956885060014875"><ele>359.0</ele><time>2026-04-12T10:12:53Z</time></trkpt><trkpt lat="41.39973375712541" lon="13.956728956032675"><ele>359.0</ele><time>2026-04-12T10:12:54Z</time></trkpt><trkpt lat="41.39973745522415" lon="13.956559359444343"><ele>359.0</ele><time>2026-04-12T10:12:55Z</time></trkpt><trkpt lat="41.39974274238124" lon="13.956369176985888"><ele>359.0</ele><time>2026-04-12T10:12:56Z</time></trkpt><trkpt lat="41.39973448215473" lon="13.95613487295588"><ele>359.0</ele><time>2026-04-12T10:12:57Z</time></trkpt><trkpt lat="41.39973749901041" lon="13.955943012483496"><ele>359.0</ele><time>2026-04-12T10:12:58Z</time></trkpt><trkpt lat="41.399749971567495" lon="13.955754252859103"><ele>359.0</ele><time>2026-04-12T10:12:59Z</time></trkpt><trkpt lat="41.399771042796026" lon="13.955551960539152"><ele>359.0</ele><time>2026-04-12T10:13:00Z</time></trkpt><trkpt lat="41.39977875918162" lon="13.955302347209294"><ele>359.0</ele><time>2026-04-12T10:13:01Z</time></trkpt><trkpt lat="41.39978491707953" lon="13.955081937549929"><ele>359.0</ele><time>2026-04-12T10:13:02Z</time></trkpt><trkpt lat="41.39978690528324" lon="13.954857435818393"><ele>359.0</ele><time>2026-04-12T10:13:03Z</time></trkpt><trkpt lat="41.39980890922089" lon="13.954629791246626"><ele>360.33333333333337</ele><time>2026-04-12T10:13:04Z</time></trkpt><trkpt lat="41.399818054699665" lon="13.954394895018853"><ele>361.6666666666667</ele><time>2026-04-12T10:13:05Z</time></trkpt><trkpt lat="41.39982062415448" lon="13.954171768664455"><ele>363.0</ele><time>2026-04-12T10:13:06.001Z</time></trkpt><trkpt lat="41.39982504362981" lon="13.953949395478904"><ele>365.3333333333333</ele><time>2026-04-12T10:13:07.001Z</time></trkpt><trkpt lat="41.39984233684701" lon="13.953715720009985"><ele>367.66666666666663</ele><time>2026-04-12T10:13:08.001Z</time></trkpt><trkpt lat="41.399850161534545" lon="13.9534963461538"><ele>370.0</ele><time>2026-04-12T10:13:09.001Z</time></trkpt><trkpt lat="41.399857921577784" lon="13.953278784587784"><ele>370.3333333333333</ele><time>2026-04-12T10:13:10.001Z</time></trkpt><trkpt lat="41.39986523632726" lon="13.953053119897648"><ele>370.6666666666667</ele><time>2026-04-12T10:13:11.001Z</time></trkpt><trkpt lat="41.39987084911482" lon="13.952843089438941"><ele>371.0</ele><time>2026-04-12T10:13:12Z</time></trkpt><trkpt lat="41.39987765030125" lon="13.95260963579981"><ele>371.33333333333337</ele><time>2026-04-12T10:13:13Z</time></trkpt><trkpt lat="41.39988262251112" lon="13.952380379891652"><ele>371.6666666666667</ele><time>2026-04-12T10:13:14Z</time></trkpt><trkpt lat="41.39988712050659" lon="13.952172988817598"><ele>372.0</ele><time>2026-04-12T10:13:15Z</time></trkpt><trkpt lat="41.39989096198006" lon="13.951965875515986"><ele>372.0</ele><time>2026-04-12T10:13:16Z</time></trkpt><trkpt lat="41.39989370097941" lon="13.9517942163138"><ele>372.0</ele><time>2026-04-12T10:13:17Z</time></trkpt><trkpt lat="41.399896603057364" lon="13.951637829351737"><ele>372.0</ele><time>2026-04-12T10:13:18Z</time></trkpt><trkpt lat="41.39989960226813" lon="13.951506413386324"><ele>372.0</ele><time>2026-04-12T10:13:19Z</time></trkpt><trkpt lat="41.39990044875805" lon="13.951378143048164"><ele>372.0</ele><time>2026-04-12T10:13:20Z</time></trkpt><trkpt lat="41.39989364360767" lon="13.951264375344778"><ele>373.20000000000005</ele><time>2026-04-12T10:13:21Z</time></trkpt><trkpt lat="41.399858019539764" lon="13.951165648715156"><ele>374.4</ele><time>2026-04-12T10:13:22Z</time></trkpt><trkpt lat="41.399786020200764" lon="13.951090402520784"><ele>375.6</ele><time>2026-04-12T10:13:23Z</time></trkpt><trkpt lat="41.39967022555765" lon="13.95108915922547"><ele>376.79999999999995</ele><time>2026-04-12T10:13:24Z</time></trkpt><trkpt lat="41.39956879716114" lon="13.9511805695924"><ele>378.0</ele><time>2026-04-12T10:13:25Z</time></trkpt><trkpt lat="41.39949961697362" lon="13.951309075895253"><ele>385.0</ele><time>2026-04-12T10:13:26Z</time></trkpt><trkpt lat="41.39944313178599" lon="13.95145627462109"><ele>392.0</ele><time>2026-04-12T10:13:27Z</time></trkpt><trkpt lat="41.39938627972239" lon="13.951613168321689"><ele>399.0</ele><time>2026-04-12T10:13:28Z</time></trkpt><trkpt lat="41.399327263721524" lon="13.951779622467473"><ele>406.0</ele><time>2026-04-12T10:13:29Z</time></trkpt><trkpt lat="41.39927817935179" lon="13.951958673618789"><ele>406.0</ele><time>2026-04-12T10:13:30Z</time></trkpt><trkpt lat="41.39921042512446" lon="13.952133563726592"><ele>406.0</ele><time>2026-04-12T10:13:31Z</time></trkpt><trkpt lat="41.39914133152966" lon="13.952303144775197"><ele>406.0</ele><time>2026-04-12T10:13:32Z</time></trkpt><trkpt lat="41.39907533300358" lon="13.95247487379411"><ele>406.0</ele><time>2026-04-12T10:13:33Z</time></trkpt><trkpt lat="41.39900650247787" lon="13.952658807594435"><ele>405.0</ele><time>2026-04-12T10:13:34Z</time></trkpt><trkpt lat="41.398934248211916" lon="13.952837880987394"><ele>404.0</ele><time>2026-04-12T10:13:35Z</time></trkpt><trkpt lat="41.398872724437844" lon="13.953009495645249"><ele>403.0</ele><time>2026-04-12T10:13:36Z</time></trkpt><trkpt lat="41.398825573443624" lon="13.953186895842336"><ele>402.0</ele><time>2026-04-12T10:13:37Z</time></trkpt><trkpt lat="41.39875947727442" lon="13.953342356771595"><ele>409.0</ele><time>2026-04-12T10:13:38Z</time></trkpt><trkpt lat="41.39871316184582" lon="13.953469577303185"><ele>416.0</ele><time>2026-04-12T10:13:39Z</time></trkpt><trkpt lat="41.39865776233214" lon="13.953556092593683"><ele>423.00000000000006</ele><time>2026-04-12T10:13:40Z</time></trkpt><trkpt lat="41.39861153295326" lon="13.953613729746156"><ele>430.0</ele><time>2026-04-12T10:13:41Z</time></trkpt><trkpt lat="41.398548412272085" lon="13.95362761945608"><ele>437.0</ele><time>2026-04-12T10:13:43Z</time></trkpt><trkpt lat="41.39866012936442" lon="13.954009203734095"><ele>436.99999999999994</ele><time>2026-04-12T10:14:04Z</time></trkpt><trkpt lat="41.39864294209305" lon="13.95410767844995"><ele>437.0</ele><time>2026-04-12T10:14:06Z</time></trkpt><trkpt lat="41.39865107518505" lon="13.954193096630776"><ele>437.0</ele><time>2026-04-12T10:14:08Z</time></trkpt><trkpt lat="41.398689346264824" lon="13.954329542971823"><ele>437.0</ele><time>2026-04-12T10:14:10Z</time></trkpt><trkpt lat="41.39868229918227" lon="13.95441850985126"><ele>436.99999999999994</ele><time>2026-04-12T10:14:12Z</time></trkpt><trkpt lat="41.39868644609874" lon="13.954512484135472"><ele>437.0</ele><time>2026-04-12T10:14:14Z</time></trkpt><trkpt lat="41.398728405715715" lon="13.954617803893566"><ele>436.7142857142857</ele><time>2026-04-12T10:14:16Z</time></trkpt><trkpt lat="41.39878374145593" lon="13.95469711349173"><ele>436.42857142857144</ele><time>2026-04-12T10:14:19Z</time></trkpt><trkpt lat="41.39884929518394" lon="13.954720928510806"><ele>436.14285714285717</ele><time>2026-04-12T10:14:23Z</time></trkpt><trkpt lat="41.39890846135702" lon="13.95479091973817"><ele>435.8571428571429</ele><time>2026-04-12T10:14:26Z</time></trkpt><trkpt lat="41.3989743335284" lon="13.95481265544797"><ele>435.57142857142856</ele><time>2026-04-12T10:14:29Z</time></trkpt><trkpt lat="41.3989689847251" lon="13.954706242102944"><ele>435.28571428571433</ele><time>2026-04-12T10:14:33Z</time></trkpt><trkpt lat="41.399002802207164" lon="13.954635050355957"><ele>435.0</ele><time>2026-04-12T10:14:35Z</time></trkpt><trkpt lat="41.399062768742205" lon="13.954575529345407"><ele>429.1666666666667</ele><time>2026-04-12T10:14:38Z</time></trkpt><trkpt lat="41.399074223049624" lon="13.954488965683122"><ele>423.33333333333337</ele><time>2026-04-12T10:14:41Z</time></trkpt><trkpt lat="41.399046383049836" lon="13.95438069428407"><ele>417.5</ele><time>2026-04-12T10:14:44Z</time></trkpt><trkpt lat="41.399040947819856" lon="13.954249858933018"><ele>411.6666666666667</ele><time>2026-04-12T10:14:49Z</time></trkpt><trkpt lat="41.399046751530605" lon="13.954136464948036"><ele>405.83333333333337</ele><time>2026-04-12T10:14:52Z</time></trkpt><trkpt lat="41.399055909617424" lon="13.954034131518547"><ele>400.0</ele><time>2026-04-12T10:14:55Z</time></trkpt><trkpt lat="41.39907366049306" lon="13.953935769944383"><ele>400.0</ele><time>2026-04-12T10:14:58Z</time></trkpt><trkpt lat="41.39914044537483" lon="13.953852387341362"><ele>400.0</ele><time>2026-04-12T10:15:01Z</time></trkpt><trkpt lat="41.39922063314058" lon="13.953891366886165"><ele>400.0</ele><time>2026-04-12T10:15:04Z</time></trkpt><trkpt lat="41.39927594171098" lon="13.953949792336815"><ele>400.0</ele><time>2026-04-12T10:15:06Z</time></trkpt><trkpt lat="41.39930520067012" lon="13.95407554489819"><ele>400.0</ele><time>2026-04-12T10:15:09Z</time></trkpt><trkpt lat="41.399311050482304" lon="13.954217800688514"><ele>399.50000000000006</ele><time>2026-04-12T10:15:12Z</time></trkpt><trkpt lat="41.39929475732113" lon="13.954330319039123"><ele>399.0</ele><time>2026-04-12T10:15:15Z</time></trkpt><trkpt lat="41.399290260008755" lon="13.954470326850762"><ele>398.5</ele><time>2026-04-12T10:15:18Z</time></trkpt><trkpt lat="41.399311141279384" lon="13.954564384076317"><ele>398.0</ele><time>2026-04-12T10:15:20Z</time></trkpt><trkpt lat="41.399310502464765" lon="13.954657616067395"><ele>397.50000000000006</ele><time>2026-04-12T10:15:23Z</time></trkpt><trkpt lat="41.39934033695261" lon="13.954753763793423"><ele>397.0</ele><time>2026-04-12T10:15:25Z</time></trkpt><trkpt lat="41.39935833770307" lon="13.954848230817104"><ele>397.0</ele><time>2026-04-12T10:15:28Z</time></trkpt><trkpt lat="41.399400382771326" lon="13.95491754739922"><ele>397.0</ele><time>2026-04-12T10:15:31Z</time></trkpt><trkpt lat="41.399388369661196" lon="13.955013806614955"><ele>397.0</ele><time>2026-04-12T10:15:35Z</time></trkpt><trkpt lat="41.39943252409106" lon="13.95510184149173"><ele>397.0</ele><time>2026-04-12T10:15:38Z</time></trkpt><trkpt lat="41.39942216486477" lon="13.955207340879804"><ele>397.0</ele><time>2026-04-12T10:15:41Z</time></trkpt><trkpt lat="41.3994470515632" lon="13.955296478406389"><ele>397.0</ele><time>2026-04-12T10:15:44Z</time></trkpt><trkpt lat="41.3993971849961" lon="13.955370851890484"><ele>397.0</ele><time>2026-04-12T10:15:47Z</time></trkpt><trkpt lat="41.39942320781299" lon="13.955515617377833"><ele>396.00000000000006</ele><time>2026-04-12T10:15:50Z</time></trkpt><trkpt lat="41.39940081593277" lon="13.955609715264098"><ele>395.0</ele><time>2026-04-12T10:15:52Z</time></trkpt><trkpt lat="41.39940452581531" lon="13.955712574661494"><ele>394.0</ele><time>2026-04-12T10:15:55Z</time></trkpt><trkpt lat="41.39938888182314" lon="13.955820074179664"><ele>393.0</ele><time>2026-04-12T10:15:57Z</time></trkpt><trkpt lat="41.39938702656614" lon="13.955951460793704"><ele>392.00000000000006</ele><time>2026-04-12T10:16:00Z</time></trkpt><trkpt lat="41.399339522521586" lon="13.956088379493432"><ele>391.0</ele><time>2026-04-12T10:16:02Z</time></trkpt><trkpt lat="41.3993778814433" lon="13.956218503673698"><ele>390.00000000000006</ele><time>2026-04-12T10:16:04Z</time></trkpt><trkpt lat="41.39939912982777" lon="13.956312944370367"><ele>389.0</ele><time>2026-04-12T10:16:07Z</time></trkpt><trkpt lat="41.39937460997618" lon="13.956408768314384"><ele>388.0</ele><time>2026-04-12T10:16:09Z</time></trkpt><trkpt lat="41.399364699178534" lon="13.956493683205204"><ele>387.0</ele><time>2026-04-12T10:16:11Z</time></trkpt><trkpt lat="41.39935789663637" lon="13.956580729728113"><ele>386.00000000000006</ele><time>2026-04-12T10:16:13Z</time></trkpt><trkpt lat="41.39933270004379" lon="13.956687595368942"><ele>385.0</ele><time>2026-04-12T10:16:16Z</time></trkpt><trkpt lat="41.399293125473434" lon="13.956799845771917"><ele>383.2857142857143</ele><time>2026-04-12T10:16:19Z</time></trkpt><trkpt lat="41.39925382740321" lon="13.956867169558189"><ele>381.57142857142856</ele><time>2026-04-12T10:16:21Z</time></trkpt><trkpt lat="41.39920850721129" lon="13.956941356855523"><ele>379.8571428571429</ele><time>2026-04-12T10:16:23Z</time></trkpt><trkpt lat="41.399170520409854" lon="13.957009560130196"><ele>378.1428571428571</ele><time>2026-04-12T10:16:25Z</time></trkpt><trkpt lat="41.39914305447077" lon="13.957100342819572"><ele>376.42857142857144</ele><time>2026-04-12T10:16:27Z</time></trkpt><trkpt lat="41.39914945511496" lon="13.957208284603503"><ele>374.7142857142857</ele><time>2026-04-12T10:16:29Z</time></trkpt><trkpt lat="41.39914762707488" lon="13.957308887651985"><ele>373.0</ele><time>2026-04-12T10:16:32Z</time></trkpt><trkpt lat="41.399073887839265" lon="13.957413129479917"><ele>373.0</ele><time>2026-04-12T10:16:34Z</time></trkpt><trkpt lat="41.39905325760714" lon="13.957495927809195"><ele>373.0</ele><time>2026-04-12T10:16:35Z</time></trkpt><trkpt lat="41.39902474277875" lon="13.957615698101781"><ele>373.0</ele><time>2026-04-12T10:16:37Z</time></trkpt><trkpt lat="41.3989906995832" lon="13.957703793549785"><ele>373.0</ele><time>2026-04-12T10:16:39Z</time></trkpt><trkpt lat="41.39896181270157" lon="13.957792619311046"><ele>373.0</ele><time>2026-04-12T10:16:40Z</time></trkpt><trkpt lat="41.39894001928827" lon="13.957893555696216"><ele>373.0</ele><time>2026-04-12T10:16:41Z</time></trkpt><trkpt lat="41.398917033467185" lon="13.957980149173377"><ele>373.5</ele><time>2026-04-12T10:16:42Z</time></trkpt><trkpt lat="41.39887957960398" lon="13.958072389161101"><ele>374.0</ele><time>2026-04-12T10:16:44Z</time></trkpt><trkpt lat="41.39890878298302" lon="13.95815287781085"><ele>374.5</ele><time>2026-04-12T10:16:46Z</time></trkpt><trkpt lat="41.3989353286452" lon="13.958291821407313"><ele>375.0</ele><time>2026-04-12T10:16:49Z</time></trkpt><trkpt lat="41.39890778687463" lon="13.958379185273566"><ele>375.5</ele><time>2026-04-12T10:16:51Z</time></trkpt><trkpt lat="41.398893594599805" lon="13.958485139824896"><ele>376.0</ele><time>2026-04-12T10:16:54Z</time></trkpt><trkpt lat="41.39879712340162" lon="13.958542048031756"><ele>376.0</ele><time>2026-04-12T10:16:56Z</time></trkpt><trkpt lat="41.39881129714884" lon="13.958681637314521"><ele>376.0</ele><time>2026-04-12T10:16:58Z</time></trkpt><trkpt lat="41.398769284293145" lon="13.958749581242794"><ele>376.0</ele><time>2026-04-12T10:17:01Z</time></trkpt><trkpt lat="41.39874098408093" lon="13.958855142422486"><ele>376.0</ele><time>2026-04-12T10:17:04Z</time></trkpt><trkpt lat="41.39872925177708" lon="13.958954239804187"><ele>376.0</ele><time>2026-04-12T10:17:07Z</time></trkpt><trkpt lat="41.39874168702041" lon="13.959129293640576"><ele>374.0</ele><time>2026-04-12T10:17:09Z</time></trkpt><trkpt lat="41.398719466302424" lon="13.959222059343407"><ele>372.0</ele><time>2026-04-12T10:17:10Z</time></trkpt><trkpt lat="41.39867847490667" lon="13.959397034470788"><ele>370.0</ele><time>2026-04-12T10:17:12Z</time></trkpt><trkpt lat="41.39868976983057" lon="13.959486816544297"><ele>368.0</ele><time>2026-04-12T10:17:13Z</time></trkpt><trkpt lat="41.39872648561096" lon="13.959600139961587"><ele>366.0</ele><time>2026-04-12T10:17:16Z</time></trkpt><trkpt lat="41.39871740551907" lon="13.959685767003904"><ele>364.0</ele><time>2026-04-12T10:17:19.001Z</time></trkpt><trkpt lat="41.39871403803179" lon="13.959779438746905"><ele>364.0</ele><time>2026-04-12T10:17:21.001Z</time></trkpt><trkpt lat="41.3986243216041" lon="13.95987133521812"><ele>364.0</ele><time>2026-04-12T10:17:24Z</time></trkpt><trkpt lat="41.39854899716989" lon="13.959946739019498"><ele>364.0</ele><time>2026-04-12T10:17:26Z</time></trkpt><trkpt lat="41.398493974287064" lon="13.960069460347004"><ele>364.0</ele><time>2026-04-12T10:17:28Z</time></trkpt><trkpt lat="41.39850948413149" lon="13.960228186748678"><ele>364.0</ele><time>2026-04-12T10:17:30Z</time></trkpt><trkpt lat="41.398474695575274" lon="13.960325496314455"><ele>362.16666666666663</ele><time>2026-04-12T10:17:32Z</time></trkpt><trkpt lat="41.398458616464836" lon="13.960443518144915"><ele>360.3333333333333</ele><time>2026-04-12T10:17:34Z</time></trkpt><trkpt lat="41.39845552905618" lon="13.9605333623023"><ele>358.5</ele><time>2026-04-12T10:17:35Z</time></trkpt><trkpt lat="41.39844293510357" lon="13.960640072998592"><ele>356.6666666666667</ele><time>2026-04-12T10:17:36Z</time></trkpt><trkpt lat="41.39842795412106" lon="13.9607262270112"><ele>354.83333333333337</ele><time>2026-04-12T10:17:37Z</time></trkpt><trkpt lat="41.3984101824197" lon="13.960857572911312"><ele>353.0</ele><time>2026-04-12T10:17:39Z</time></trkpt><trkpt lat="41.39834761402047" lon="13.961045242143156"><ele>351.79999999999995</ele><time>2026-04-12T10:17:41Z</time></trkpt><trkpt lat="41.39829642055716" lon="13.961155497904876"><ele>350.6</ele><time>2026-04-12T10:17:43Z</time></trkpt><trkpt lat="41.398290863329315" lon="13.961308820009563"><ele>349.4</ele><time>2026-04-12T10:17:45Z</time></trkpt><trkpt lat="41.398267634958366" lon="13.961425791629228"><ele>348.20000000000005</ele><time>2026-04-12T10:17:47Z</time></trkpt><trkpt lat="41.39826462919563" lon="13.961520490073903"><ele>347.0</ele><time>2026-04-12T10:17:49Z</time></trkpt><trkpt lat="41.39828464725859" lon="13.961651377067112"><ele>347.0</ele><time>2026-04-12T10:17:51Z</time></trkpt><trkpt lat="41.398295132096955" lon="13.961792736278825"><ele>347.0</ele><time>2026-04-12T10:17:53Z</time></trkpt><trkpt lat="41.3983189094244" lon="13.961890223529313"><ele>347.0</ele><time>2026-04-12T10:17:56Z</time></trkpt><trkpt lat="41.39835501728722" lon="13.962005773219634"><ele>347.0</ele><time>2026-04-12T10:17:59Z</time></trkpt><trkpt lat="41.398370788773754" lon="13.96211959919933"><ele>347.0</ele><time>2026-04-12T10:18:01Z</time></trkpt><trkpt lat="41.398346735647536" lon="13.962261781316203"><ele>347.0</ele><time>2026-04-12T10:18:04Z</time></trkpt><trkpt lat="41.39833733490608" lon="13.962355681565779"><ele>347.0</ele><time>2026-04-12T10:18:05Z</time></trkpt><trkpt lat="41.39836137239943" lon="13.962445798680456"><ele>347.0</ele><time>2026-04-12T10:18:06Z</time></trkpt><trkpt lat="41.398373051010886" lon="13.962560723524692"><ele>347.0</ele><time>2026-04-12T10:18:08Z</time></trkpt><trkpt lat="41.39835894526309" lon="13.962656158185078"><ele>347.0</ele><time>2026-04-12T10:18:10Z</time></trkpt><trkpt lat="41.39832151819039" lon="13.962765546305578"><ele>347.0</ele><time>2026-04-12T10:18:12Z</time></trkpt><trkpt lat="41.398262893587074" lon="13.962803356512536"><ele>347.8</ele><time>2026-04-12T10:18:15Z</time></trkpt><trkpt lat="41.398193540110164" lon="13.962869647275435"><ele>348.6</ele><time>2026-04-12T10:18:18Z</time></trkpt><trkpt lat="41.398130248907805" lon="13.962904734072291"><ele>349.40000000000003</ele><time>2026-04-12T10:18:20Z</time></trkpt><trkpt lat="41.398070324918166" lon="13.963020723028157"><ele>350.20000000000005</ele><time>2026-04-12T10:18:23Z</time></trkpt><trkpt lat="41.398000651759816" lon="13.963116499815628"><ele>351.0</ele><time>2026-04-12T10:18:25Z</time></trkpt><trkpt lat="41.397958310482146" lon="13.963223463345583"><ele>354.0</ele><time>2026-04-12T10:18:28Z</time></trkpt><trkpt lat="41.39791618500186" lon="13.963286948847601"><ele>357.0</ele><time>2026-04-12T10:18:29Z</time></trkpt><trkpt lat="41.39779519386042" lon="13.964913424056652"><ele>349.6</ele><time>2026-04-12T10:18:31Z</time></trkpt><trkpt lat="41.397749475342295" lon="13.965059959283996"><ele>342.20000000000005</ele><time>2026-04-12T10:18:32Z</time></trkpt><trkpt lat="41.39770564693993" lon="13.965153191795416"><ele>334.8</ele><time>2026-04-12T10:18:33Z</time></trkpt><trkpt lat="41.397638962614074" lon="13.965240103875294"><ele>327.4</ele><time>2026-04-12T10:18:35Z</time></trkpt><trkpt lat="41.39755456215701" lon="13.96529139345932"><ele>320.0</ele><time>2026-04-12T10:18:38Z</time></trkpt><trkpt lat="41.39745285257119" lon="13.965280879254678"><ele>320.0</ele><time>2026-04-12T10:18:41Z</time></trkpt><trkpt lat="41.397374140918046" lon="13.965270581672629"><ele>320.0</ele><time>2026-04-12T10:18:43Z</time></trkpt><trkpt lat="41.397300014552826" lon="13.96528216394269"><ele>320.0</ele><time>2026-04-12T10:18:45Z</time></trkpt><trkpt lat="41.39722732875585" lon="13.9652745068918"><ele>320.0</ele><time>2026-04-12T10:18:47Z</time></trkpt><trkpt lat="41.397146781241275" lon="13.965237246885067"><ele>320.0</ele><time>2026-04-12T10:18:51Z</time></trkpt><trkpt lat="41.3970641892901" lon="13.965202180351591"><ele>320.0</ele><time>2026-04-12T10:18:55Z</time></trkpt><trkpt lat="41.39700217443247" lon="13.96516901021012"><ele>322.6666666666667</ele><time>2026-04-12T10:18:57Z</time></trkpt><trkpt lat="41.39692432093196" lon="13.965156372573434"><ele>325.33333333333337</ele><time>2026-04-12T10:19:01Z</time></trkpt><trkpt lat="41.39683642328441" lon="13.965107968695884"><ele>328.0</ele><time>2026-04-12T10:19:04Z</time></trkpt><trkpt lat="41.396778265923835" lon="13.965071000238318"><ele>330.6666666666667</ele><time>2026-04-12T10:19:06Z</time></trkpt><trkpt lat="41.396699416312714" lon="13.965027287623267"><ele>333.3333333333333</ele><time>2026-04-12T10:19:09Z</time></trkpt><trkpt lat="41.396629216191954" lon="13.965011230172479"><ele>336.0</ele><time>2026-04-12T10:19:12Z</time></trkpt><trkpt lat="41.39654712890055" lon="13.965005131991756"><ele>336.0</ele><time>2026-04-12T10:19:15Z</time></trkpt><trkpt lat="41.39648389306224" lon="13.965024094045893"><ele>336.0</ele><time>2026-04-12T10:19:17Z</time></trkpt><trkpt lat="41.396416206332695" lon="13.965015604044254"><ele>336.0</ele><time>2026-04-12T10:19:21Z</time></trkpt><trkpt lat="41.396336139899155" lon="13.964996201335206"><ele>336.0</ele><time>2026-04-12T10:19:25Z</time></trkpt><trkpt lat="41.39625740183427" lon="13.964980394514225"><ele>336.0</ele><time>2026-04-12T10:19:29Z</time></trkpt><trkpt lat="41.39619494181182" lon="13.96499624105949"><ele>336.0</ele><time>2026-04-12T10:19:32Z</time></trkpt><trkpt lat="41.39611891685539" lon="13.964996176687533"><ele>336.0</ele><time>2026-04-12T10:19:34Z</time></trkpt><trkpt lat="41.396016837101556" lon="13.96499573531895"><ele>334.0</ele><time>2026-04-12T10:19:37Z</time></trkpt><trkpt lat="41.39593608215833" lon="13.964985330029037"><ele>332.0</ele><time>2026-04-12T10:19:39Z</time></trkpt><trkpt lat="41.39586522899276" lon="13.964994176323186"><ele>330.0</ele><time>2026-04-12T10:19:40Z</time></trkpt><trkpt lat="41.395771282207335" lon="13.964992422833522"><ele>328.0</ele><time>2026-04-12T10:19:42Z</time></trkpt><trkpt lat="41.39567644615083" lon="13.965003618031918"><ele>326.0</ele><time>2026-04-12T10:19:45Z</time></trkpt><trkpt lat="41.3956002250386" lon="13.964996945042298"><ele>324.0</ele><time>2026-04-12T10:19:47Z</time></trkpt><trkpt lat="41.39553140961232" lon="13.965001605610421"><ele>323.8333333333333</ele><time>2026-04-12T10:19:49Z</time></trkpt><trkpt lat="41.39546549824051" lon="13.96499821121934"><ele>323.6666666666667</ele><time>2026-04-12T10:19:52Z</time></trkpt><trkpt lat="41.395405106267006" lon="13.96496532828637"><ele>323.5</ele><time>2026-04-12T10:19:58Z</time></trkpt><trkpt lat="41.39533285300363" lon="13.96498360994201"><ele>323.33333333333337</ele><time>2026-04-12T10:20:02Z</time></trkpt><trkpt lat="41.395259275524374" lon="13.965031245512566"><ele>323.1666666666667</ele><time>2026-04-12T10:20:09Z</time></trkpt><trkpt lat="41.39518814109073" lon="13.965086284476483"><ele>323.0</ele><time>2026-04-12T10:20:11Z</time></trkpt><trkpt lat="41.395105573745774" lon="13.965128812119964"><ele>315.2</ele><time>2026-04-12T10:20:14Z</time></trkpt><trkpt lat="41.394999017778524" lon="13.965191898647669"><ele>307.4</ele><time>2026-04-12T10:20:16Z</time></trkpt><trkpt lat="41.394913976696344" lon="13.96521078048256"><ele>299.59999999999997</ele><time>2026-04-12T10:20:18Z</time></trkpt><trkpt lat="41.39484234776605" lon="13.965285401948544"><ele>291.79999999999995</ele><time>2026-04-12T10:20:21Z</time></trkpt><trkpt lat="41.394762701486655" lon="13.965304699982564"><ele>284.0</ele><time>2026-04-12T10:20:23Z</time></trkpt><trkpt lat="41.39469299885346" lon="13.96534347805759"><ele>286.0</ele><time>2026-04-12T10:20:25Z</time></trkpt><trkpt lat="41.39462132941252" lon="13.965370745490898"><ele>288.0</ele><time>2026-04-12T10:20:27Z</time></trkpt><trkpt lat="41.394551398159415" lon="13.965404611438428"><ele>290.0</ele><time>2026-04-12T10:20:29Z</time></trkpt><trkpt lat="41.39443032256074" lon="13.965451247799077"><ele>292.0</ele><time>2026-04-12T10:20:32Z</time></trkpt><trkpt lat="41.394347009011256" lon="13.965487491197269"><ele>294.0</ele><time>2026-04-12T10:20:34Z</time></trkpt><trkpt lat="41.39423780593743" lon="13.965532442248758"><ele>294.0</ele><time>2026-04-12T10:20:36Z</time></trkpt><trkpt lat="41.39414322380248" lon="13.965531859098604"><ele>294.0</ele><time>2026-04-12T10:20:38Z</time></trkpt><trkpt lat="41.394070294893936" lon="13.965547836433464"><ele>294.0</ele><time>2026-04-12T10:20:40Z</time></trkpt><trkpt lat="41.393990098031495" lon="13.965594623157028"><ele>294.0</ele><time>2026-04-12T10:20:42Z</time></trkpt><trkpt lat="41.39389351311799" lon="13.96563246208019"><ele>294.0</ele><time>2026-04-12T10:20:44Z</time></trkpt><trkpt lat="41.39382791614417" lon="13.965671071770483"><ele>294.0</ele><time>2026-04-12T10:20:46Z</time></trkpt><trkpt lat="41.39375676017722" lon="13.965722698826974"><ele>292.1666666666667</ele><time>2026-04-12T10:20:49Z</time></trkpt><trkpt lat="41.39369936558881" lon="13.965774248349282"><ele>290.3333333333333</ele><time>2026-04-12T10:20:51Z</time></trkpt><trkpt lat="41.39364900103787" lon="13.965834311264686"><ele>288.5</ele><time>2026-04-12T10:20:55Z</time></trkpt><trkpt lat="41.39358406059153" lon="13.965916123385801"><ele>286.66666666666663</ele><time>2026-04-12T10:20:57Z</time></trkpt><trkpt lat="41.39352927839964" lon="13.965980452579487"><ele>284.8333333333333</ele><time>2026-04-12T10:20:59Z</time></trkpt><trkpt lat="41.39350190496764" lon="13.96606173844245"><ele>283.0</ele><time>2026-04-12T10:21:01Z</time></trkpt><trkpt lat="41.393440051171396" lon="13.96614816012035"><ele>283.0</ele><time>2026-04-12T10:21:03Z</time></trkpt><trkpt lat="41.39337006941973" lon="13.966206288055892"><ele>283.0</ele><time>2026-04-12T10:21:05Z</time></trkpt><trkpt lat="41.39328704306668" lon="13.96624866563922"><ele>283.0</ele><time>2026-04-12T10:21:09Z</time></trkpt><trkpt lat="41.39320656954358" lon="13.966278262000323"><ele>283.0</ele><time>2026-04-12T10:21:10Z</time></trkpt><trkpt lat="41.393129001571545" lon="13.9662997318742"><ele>283.0</ele><time>2026-04-12T10:21:13Z</time></trkpt><trkpt lat="41.393043823836855" lon="13.966315610481228"><ele>283.0</ele><time>2026-04-12T10:21:15Z</time></trkpt><trkpt lat="41.39295212072459" lon="13.966315913563765"><ele>283.16666666666663</ele><time>2026-04-12T10:21:17Z</time></trkpt><trkpt lat="41.39286325778464" lon="13.966312346969833"><ele>283.3333333333333</ele><time>2026-04-12T10:21:21Z</time></trkpt><trkpt lat="41.39279831836295" lon="13.966290799909148"><ele>283.5</ele><time>2026-04-12T10:21:23Z</time></trkpt><trkpt lat="41.39273070792431" lon="13.966288810275245"><ele>283.6666666666667</ele><time>2026-04-12T10:21:25Z</time></trkpt><trkpt lat="41.39263837209862" lon="13.966245908316207"><ele>283.83333333333337</ele><time>2026-04-12T10:21:29Z</time></trkpt><trkpt lat="41.3925552590113" lon="13.966208211561176"><ele>284.0</ele><time>2026-04-12T10:21:32Z</time></trkpt><trkpt lat="41.39249608112487" lon="13.966148500891652"><ele>284.0</ele><time>2026-04-12T10:21:33Z</time></trkpt><trkpt lat="41.39239980495448" lon="13.966109788015716"><ele>284.0</ele><time>2026-04-12T10:21:35Z</time></trkpt><trkpt lat="41.39228893219419" lon="13.96608729260525"><ele>284.0</ele><time>2026-04-12T10:21:37Z</time></trkpt><trkpt lat="41.39226444952302" lon="13.965996765666718"><ele>284.0</ele><time>2026-04-12T10:21:39Z</time></trkpt><trkpt lat="41.392179745116174" lon="13.965973334258237"><ele>284.0</ele><time>2026-04-12T10:21:41Z</time></trkpt><trkpt lat="41.39210790378168" lon="13.965924455468715"><ele>282.33333333333337</ele><time>2026-04-12T10:21:43Z</time></trkpt><trkpt lat="41.392026687636566" lon="13.965848530531513"><ele>280.6666666666667</ele><time>2026-04-12T10:21:46Z</time></trkpt><trkpt lat="41.39194059545592" lon="13.965862906586187"><ele>279.0</ele><time>2026-04-12T10:21:48Z</time></trkpt><trkpt lat="41.3918647154144" lon="13.965845596624098"><ele>277.3333333333333</ele><time>2026-04-12T10:21:51Z</time></trkpt><trkpt lat="41.39178516109978" lon="13.96583946115907"><ele>275.66666666666663</ele><time>2026-04-12T10:21:55Z</time></trkpt><trkpt lat="41.39168002874549" lon="13.965846857707644"><ele>274.0</ele><time>2026-04-12T10:21:57Z</time></trkpt><trkpt lat="41.39157633875057" lon="13.965867187338306"><ele>274.0</ele><time>2026-04-12T10:22:00Z</time></trkpt><trkpt lat="41.3914898281871" lon="13.965867078574519"><ele>274.0</ele><time>2026-04-12T10:22:02Z</time></trkpt><trkpt lat="41.39141235175993" lon="13.965875339096081"><ele>274.0</ele><time>2026-04-12T10:22:04Z</time></trkpt><trkpt lat="41.391343630491676" lon="13.965883161399496"><ele>274.0</ele><time>2026-04-12T10:22:08Z</time></trkpt><trkpt lat="41.39126423389265" lon="13.965907466627762"><ele>274.0</ele><time>2026-04-12T10:22:10Z</time></trkpt><trkpt lat="41.39119355793168" lon="13.965887131591437"><ele>274.0</ele><time>2026-04-12T10:22:13Z</time></trkpt><trkpt lat="41.39109807771052" lon="13.965865822879781"><ele>278.3333333333333</ele><time>2026-04-12T10:22:16Z</time></trkpt><trkpt lat="41.39102003669288" lon="13.96584891896717"><ele>282.66666666666663</ele><time>2026-04-12T10:22:20Z</time></trkpt><trkpt lat="41.39094268532405" lon="13.965813316354867"><ele>287.0</ele><time>2026-04-12T10:22:23Z</time></trkpt><trkpt lat="41.39087835225849" lon="13.965779378877139"><ele>291.3333333333333</ele><time>2026-04-12T10:22:26Z</time></trkpt><trkpt lat="41.39080590822767" lon="13.96573210230949"><ele>295.6666666666667</ele><time>2026-04-12T10:22:28Z</time></trkpt><trkpt lat="41.390726059359615" lon="13.965780722633422"><ele>300.0</ele><time>2026-04-12T10:22:31Z</time></trkpt><trkpt lat="41.390589923757375" lon="13.965801623828542"><ele>300.0</ele><time>2026-04-12T10:22:33Z</time></trkpt><trkpt lat="41.39051185011625" lon="13.965801720782146"><ele>300.0</ele><time>2026-04-12T10:22:34Z</time></trkpt><trkpt lat="41.39044376180991" lon="13.965827450699239"><ele>300.0</ele><time>2026-04-12T10:22:35Z</time></trkpt><trkpt lat="41.39038181240681" lon="13.965849068502147"><ele>300.0</ele><time>2026-04-12T10:22:36Z</time></trkpt><trkpt lat="41.3902963566251" lon="13.965922094843185"><ele>300.0</ele><time>2026-04-12T10:22:39Z</time></trkpt><trkpt lat="41.39022963330684" lon="13.965974202113323"><ele>300.0</ele><time>2026-04-12T10:22:41Z</time></trkpt><trkpt lat="41.39014601004366" lon="13.966002074994787"><ele>295.75</ele><time>2026-04-12T10:22:44Z</time></trkpt><trkpt lat="41.39005189971877" lon="13.966014424705751"><ele>291.5</ele><time>2026-04-12T10:22:47Z</time></trkpt><trkpt lat="41.38994944317941" lon="13.96604775072651"><ele>287.25</ele><time>2026-04-12T10:22:50Z</time></trkpt><trkpt lat="41.3898425824792" lon="13.966030020757117"><ele>283.0</ele><time>2026-04-12T10:22:52Z</time></trkpt><trkpt lat="41.38969285093038" lon="13.96603659701333"><ele>283.5</ele><time>2026-04-12T10:22:54Z</time></trkpt><trkpt lat="41.38960771495192" lon="13.966037046603198"><ele>284.0</ele><time>2026-04-12T10:22:55Z</time></trkpt><trkpt lat="41.38954251123373" lon="13.966043893757135"><ele>284.5</ele><time>2026-04-12T10:22:56Z</time></trkpt><trkpt lat="41.3894310710332" lon="13.966040351459235"><ele>285.0</ele><time>2026-04-12T10:22:58Z</time></trkpt><trkpt lat="41.389331371490336" lon="13.966023694486998"><ele>285.5</ele><time>2026-04-12T10:23:00Z</time></trkpt><trkpt lat="41.38924780306749" lon="13.966007770144483"><ele>286.0</ele><time>2026-04-12T10:23:02Z</time></trkpt><trkpt lat="41.38916462104605" lon="13.96600349277938"><ele>286.0</ele><time>2026-04-12T10:23:05Z</time></trkpt><trkpt lat="41.389067111912844" lon="13.966031630770079"><ele>286.0</ele><time>2026-04-12T10:23:09Z</time></trkpt><trkpt lat="41.388996946503234" lon="13.966039864661786"><ele>286.0</ele><time>2026-04-12T10:23:10Z</time></trkpt><trkpt lat="41.388912118068774" lon="13.966068816105988"><ele>286.0</ele><time>2026-04-12T10:23:12Z</time></trkpt><trkpt lat="41.388808891176524" lon="13.966113823147358"><ele>286.0</ele><time>2026-04-12T10:23:14Z</time></trkpt><trkpt lat="41.38872604930997" lon="13.966150283918106"><ele>287.16666666666663</ele><time>2026-04-12T10:23:18Z</time></trkpt><trkpt lat="41.388642987190885" lon="13.96625265020771"><ele>288.3333333333333</ele><time>2026-04-12T10:23:21Z</time></trkpt><trkpt lat="41.38857637382691" lon="13.96631291095036"><ele>289.5</ele><time>2026-04-12T10:23:23Z</time></trkpt><trkpt lat="41.388486329194244" lon="13.966349733823055"><ele>290.6666666666667</ele><time>2026-04-12T10:23:25Z</time></trkpt><trkpt lat="41.388414993237234" lon="13.966371920819501"><ele>291.83333333333337</ele><time>2026-04-12T10:23:26Z</time></trkpt><trkpt lat="41.38833712885957" lon="13.966401732852473"><ele>293.0</ele><time>2026-04-12T10:23:28Z</time></trkpt><trkpt lat="41.388250258196145" lon="13.966431514530864"><ele>293.0</ele><time>2026-04-12T10:23:30Z</time></trkpt><trkpt lat="41.38818818186031" lon="13.966478247852034"><ele>293.0</ele><time>2026-04-12T10:23:32Z</time></trkpt><trkpt lat="41.388119069245676" lon="13.966551220594974"><ele>293.0</ele><time>2026-04-12T10:23:35Z</time></trkpt><trkpt lat="41.38805876953723" lon="13.966589402655602"><ele>293.0</ele><time>2026-04-12T10:23:37Z</time></trkpt><trkpt lat="41.388001719228875" lon="13.966633853771006"><ele>293.0</ele><time>2026-04-12T10:23:39Z</time></trkpt><trkpt lat="41.387929015028206" lon="13.966676385805163"><ele>293.0</ele><time>2026-04-12T10:23:41Z</time></trkpt><trkpt lat="41.38787393946737" lon="13.966775280303583"><ele>290.8</ele><time>2026-04-12T10:23:44Z</time></trkpt><trkpt lat="41.387794345393544" lon="13.966831802502748"><ele>288.6</ele><time>2026-04-12T10:23:46Z</time></trkpt><trkpt lat="41.38773015754243" lon="13.966843108268494"><ele>286.4</ele><time>2026-04-12T10:23:47Z</time></trkpt><trkpt lat="41.38763476548915" lon="13.966845875485502"><ele>284.2</ele><time>2026-04-12T10:23:49Z</time></trkpt><trkpt lat="41.3875088027473" lon="13.966894948636172"><ele>282.0</ele><time>2026-04-12T10:23:51Z</time></trkpt><trkpt lat="41.38742043060054" lon="13.966929326001148"><ele>282.0</ele><time>2026-04-12T10:23:52Z</time></trkpt><trkpt lat="41.387347481312005" lon="13.96695454967539"><ele>282.0</ele><time>2026-04-12T10:23:53Z</time></trkpt><trkpt lat="41.38728324333641" lon="13.966975536775584"><ele>282.0</ele><time>2026-04-12T10:23:54Z</time></trkpt><trkpt lat="41.38721341992914" lon="13.966979414510973"><ele>282.0</ele><time>2026-04-12T10:23:55Z</time></trkpt><trkpt lat="41.387146423087906" lon="13.966978625227592"><ele>282.0</ele><time>2026-04-12T10:23:56Z</time></trkpt><trkpt lat="41.38705326277196" lon="13.966952510195894"><ele>282.0</ele><time>2026-04-12T10:23:58Z</time></trkpt><trkpt lat="41.3869882568808" lon="13.96697660321442"><ele>282.0</ele><time>2026-04-12T10:24:01Z</time></trkpt><trkpt lat="41.3869288519191" lon="13.96702469658092"><ele>281.2</ele><time>2026-04-12T10:24:03Z</time></trkpt><trkpt lat="41.38686945363217" lon="13.967085797500449"><ele>280.4</ele><time>2026-04-12T10:24:06Z</time></trkpt><trkpt lat="41.386791981463944" lon="13.967107801538127"><ele>279.6</ele><time>2026-04-12T10:24:09Z</time></trkpt><trkpt lat="41.38669501291527" lon="13.96714108862115"><ele>278.8</ele><time>2026-04-12T10:24:11Z</time></trkpt><trkpt lat="41.38657191630176" lon="13.967212914591851"><ele>278.0</ele><time>2026-04-12T10:24:14Z</time></trkpt><trkpt lat="41.3864680975429" lon="13.967207512700814"><ele>278.0</ele><time>2026-04-12T10:24:16Z</time></trkpt><trkpt lat="41.38638370941025" lon="13.967170644958582"><ele>278.0</ele><time>2026-04-12T10:24:18Z</time></trkpt><trkpt lat="41.38633621314743" lon="13.967264369304784"><ele>278.0</ele><time>2026-04-12T10:24:21Z</time></trkpt><trkpt lat="41.38626875330506" lon="13.967237055230054"><ele>278.0</ele><time>2026-04-12T10:24:23Z</time></trkpt><trkpt lat="41.38619812622855" lon="13.967227519165357"><ele>278.0</ele><time>2026-04-12T10:24:27Z</time></trkpt><trkpt lat="41.38611615973845" lon="13.967251470404992"><ele>278.0</ele><time>2026-04-12T10:24:30Z</time></trkpt><trkpt lat="41.386054320657884" lon="13.967284954746225"><ele>275.6</ele><time>2026-04-12T10:24:31Z</time></trkpt><trkpt lat="41.38598646095062" lon="13.967350565624189"><ele>273.20000000000005</ele><time>2026-04-12T10:24:33Z</time></trkpt><trkpt lat="41.385887558882814" lon="13.967425550791553"><ele>270.8</ele><time>2026-04-12T10:24:37Z</time></trkpt><trkpt lat="41.385791499398145" lon="13.967487309832011"><ele>268.40000000000003</ele><time>2026-04-12T10:24:38Z</time></trkpt><trkpt lat="41.385667727731" lon="13.967561339872832"><ele>266.0</ele><time>2026-04-12T10:24:39Z</time></trkpt><trkpt lat="41.38556314209511" lon="13.967627399450318"><ele>262.0</ele><time>2026-04-12T10:24:40Z</time></trkpt><trkpt lat="41.38548675685464" lon="13.96769786176138"><ele>258.0</ele><time>2026-04-12T10:24:41Z</time></trkpt><trkpt lat="41.385430090691635" lon="13.967741369367143"><ele>254.0</ele><time>2026-04-12T10:24:42Z</time></trkpt><trkpt lat="41.38535910155113" lon="13.967743785165236"><ele>250.0</ele><time>2026-04-12T10:24:43Z</time></trkpt><trkpt lat="41.38524758445355" lon="13.967726380447939"><ele>246.00000000000003</ele><time>2026-04-12T10:24:45Z</time></trkpt><trkpt lat="41.38517876133509" lon="13.967704707850972"><ele>242.0</ele><time>2026-04-12T10:24:46Z</time></trkpt><trkpt lat="41.38509490335314" lon="13.967675139695775"><ele>242.0</ele><time>2026-04-12T10:24:47Z</time></trkpt><trkpt lat="41.38499087621793" lon="13.967659780008761"><ele>242.0</ele><time>2026-04-12T10:24:49Z</time></trkpt><trkpt lat="41.38488458158847" lon="13.96783844536156"><ele>242.0</ele><time>2026-04-12T10:24:55Z</time></trkpt><trkpt lat="41.38486426714654" lon="13.967995515236359"><ele>242.0</ele><time>2026-04-12T10:24:56Z</time></trkpt><trkpt lat="41.38488063191394" lon="13.968118862214805"><ele>242.0</ele><time>2026-04-12T10:24:57Z</time></trkpt><trkpt lat="41.38489869126229" lon="13.968283077252424"><ele>242.0</ele><time>2026-04-12T10:24:59Z</time></trkpt><trkpt lat="41.38490112221388" lon="13.968384916220746"><ele>242.0</ele><time>2026-04-12T10:25:00Z</time></trkpt><trkpt lat="41.38490910855771" lon="13.968469499791471"><ele>242.0</ele><time>2026-04-12T10:25:01Z</time></trkpt><trkpt lat="41.384946298297635" lon="13.968541042663354"><ele>242.0</ele><time>2026-04-12T10:25:02Z</time></trkpt><trkpt lat="41.385077649086774" lon="13.968604186955321"><ele>239.6</ele><time>2026-04-12T10:25:04Z</time></trkpt><trkpt lat="41.38516104385063" lon="13.968600601462068"><ele>237.2</ele><time>2026-04-12T10:25:05Z</time></trkpt><trkpt lat="41.385240858826265" lon="13.968602871223188"><ele>234.8</ele><time>2026-04-12T10:25:06Z</time></trkpt><trkpt lat="41.38530835409821" lon="13.968619831351079"><ele>232.4</ele><time>2026-04-12T10:25:08Z</time></trkpt><trkpt lat="41.38532919441015" lon="13.968782549105262"><ele>230.0</ele><time>2026-04-12T10:25:11Z</time></trkpt><trkpt lat="41.38535250712379" lon="13.968919800350054"><ele>230.0</ele><time>2026-04-12T10:25:12Z</time></trkpt><trkpt lat="41.38539911430343" lon="13.969081224928301"><ele>230.0</ele><time>2026-04-12T10:25:13Z</time></trkpt><trkpt lat="41.38543440909265" lon="13.969240192581092"><ele>230.0</ele><time>2026-04-12T10:25:14Z</time></trkpt><trkpt lat="41.38544608123842" lon="13.969397081087847"><ele>230.0</ele><time>2026-04-12T10:25:15Z</time></trkpt><trkpt lat="41.38545340514707" lon="13.969569853748697"><ele>227.8</ele><time>2026-04-12T10:25:16Z</time></trkpt><trkpt lat="41.385454131804465" lon="13.969725337604531"><ele>225.6</ele><time>2026-04-12T10:25:17Z</time></trkpt><trkpt lat="41.38546663507162" lon="13.969882428061613"><ele>223.39999999999998</ele><time>2026-04-12T10:25:18Z</time></trkpt><trkpt lat="41.38548042639543" lon="13.970019045281594"><ele>221.2</ele><time>2026-04-12T10:25:19Z</time></trkpt><trkpt lat="41.385501254880566" lon="13.970145008916855"><ele>219.0</ele><time>2026-04-12T10:25:20Z</time></trkpt><trkpt lat="41.385538990408605" lon="13.970279171304348"><ele>217.39999999999998</ele><time>2026-04-12T10:25:21Z</time></trkpt><trkpt lat="41.38559166409637" lon="13.970412511129856"><ele>215.79999999999998</ele><time>2026-04-12T10:25:22Z</time></trkpt><trkpt lat="41.38565980906751" lon="13.97054446897562"><ele>214.2</ele><time>2026-04-12T10:25:23Z</time></trkpt><trkpt lat="41.38573211531998" lon="13.970665529807812"><ele>212.60000000000002</ele><time>2026-04-12T10:25:24Z</time></trkpt><trkpt lat="41.38578707332064" lon="13.970761935601141"><ele>211.0</ele><time>2026-04-12T10:25:25Z</time></trkpt><trkpt lat="41.385834280995546" lon="13.970844993471248"><ele>209.60000000000002</ele><time>2026-04-12T10:25:26Z</time></trkpt><trkpt lat="41.385865204148345" lon="13.9709979151284"><ele>208.2</ele><time>2026-04-12T10:25:28Z</time></trkpt><trkpt lat="41.38585843417875" lon="13.971095289257107"><ele>206.8</ele><time>2026-04-12T10:25:29Z</time></trkpt><trkpt lat="41.38584441091038" lon="13.971220162757179"><ele>205.39999999999998</ele><time>2026-04-12T10:25:30Z</time></trkpt><trkpt lat="41.385796494380926" lon="13.97134244950229"><ele>204.0</ele><time>2026-04-12T10:25:31Z</time></trkpt><trkpt lat="41.385744301561026" lon="13.971494190175301"><ele>204.0</ele><time>2026-04-12T10:25:32Z</time></trkpt><trkpt lat="41.38566431479046" lon="13.971644378364113"><ele>204.0</ele><time>2026-04-12T10:25:33Z</time></trkpt><trkpt lat="41.38561812490969" lon="13.971812779436044"><ele>204.0</ele><time>2026-04-12T10:25:34Z</time></trkpt><trkpt lat="41.38553928802053" lon="13.971985262666706"><ele>204.0</ele><time>2026-04-12T10:25:35Z</time></trkpt><trkpt lat="41.38548781807726" lon="13.97213924989621"><ele>202.6</ele><time>2026-04-12T10:25:36Z</time></trkpt><trkpt lat="41.38544544564874" lon="13.972270838832511"><ele>201.2</ele><time>2026-04-12T10:25:37Z</time></trkpt><trkpt lat="41.385417741918936" lon="13.97240939077749"><ele>199.79999999999998</ele><time>2026-04-12T10:25:38Z</time></trkpt><trkpt lat="41.3853684081789" lon="13.97252806713027"><ele>198.39999999999998</ele><time>2026-04-12T10:25:39Z</time></trkpt><trkpt lat="41.38533707554214" lon="13.972608965879983"><ele>197.0</ele><time>2026-04-12T10:25:40Z</time></trkpt><trkpt lat="41.385299451677" lon="13.972684166252055"><ele>196.8</ele><time>2026-04-12T10:25:44Z</time></trkpt><trkpt lat="41.38536903075449" lon="13.972807351529852"><ele>196.6</ele><time>2026-04-12T10:25:45Z</time></trkpt><trkpt lat="41.38543311048184" lon="13.972860866035099"><ele>196.4</ele><time>2026-04-12T10:25:46Z</time></trkpt><trkpt lat="41.385497775031816" lon="13.972919515278063"><ele>196.20000000000002</ele><time>2026-04-12T10:25:47Z</time></trkpt><trkpt lat="41.385594865090695" lon="13.97301657150382"><ele>196.0</ele><time>2026-04-12T10:25:48Z</time></trkpt><trkpt lat="41.38569184653573" lon="13.973130644364325"><ele>195.5</ele><time>2026-04-12T10:25:49Z</time></trkpt><trkpt lat="41.38578163859398" lon="13.973253124664245"><ele>195.0</ele><time>2026-04-12T10:25:50Z</time></trkpt><trkpt lat="41.38585018640831" lon="13.973382649060744"><ele>194.5</ele><time>2026-04-12T10:25:51Z</time></trkpt><trkpt lat="41.38593327193851" lon="13.973555700925072"><ele>194.0</ele><time>2026-04-12T10:25:52Z</time></trkpt><trkpt lat="41.386026007047654" lon="13.973713689269523"><ele>195.0</ele><time>2026-04-12T10:25:53Z</time></trkpt><trkpt lat="41.386089633909144" lon="13.973881545928867"><ele>196.0</ele><time>2026-04-12T10:25:54Z</time></trkpt><trkpt lat="41.38616546274805" lon="13.974040647285658"><ele>197.0</ele><time>2026-04-12T10:25:55Z</time></trkpt><trkpt lat="41.38624278154731" lon="13.97420287485933"><ele>198.0</ele><time>2026-04-12T10:25:56Z</time></trkpt><trkpt lat="41.38631399666769" lon="13.974352295883227"><ele>196.75</ele><time>2026-04-12T10:25:57Z</time></trkpt><trkpt lat="41.38639307872701" lon="13.974511944788901"><ele>195.5</ele><time>2026-04-12T10:25:58Z</time></trkpt><trkpt lat="41.38647380811443" lon="13.974670693762407"><ele>194.25</ele><time>2026-04-12T10:25:59Z</time></trkpt><trkpt lat="41.38655226225823" lon="13.974831670566942"><ele>193.0</ele><time>2026-04-12T10:26:00Z</time></trkpt><trkpt lat="41.38663197452476" lon="13.974993354343127"><ele>195.0</ele><time>2026-04-12T10:26:01Z</time></trkpt><trkpt lat="41.38671663676008" lon="13.975134456190693"><ele>197.0</ele><time>2026-04-12T10:26:02Z</time></trkpt><trkpt lat="41.38681653158544" lon="13.97525855738021"><ele>199.0</ele><time>2026-04-12T10:26:03Z</time></trkpt><trkpt lat="41.38694072575377" lon="13.975333419028201"><ele>201.0</ele><time>2026-04-12T10:26:04Z</time></trkpt><trkpt lat="41.387083485296166" lon="13.97538179231216"><ele>200.5</ele><time>2026-04-12T10:26:05Z</time></trkpt><trkpt lat="41.387220913337266" lon="13.975406144326518"><ele>200.0</ele><time>2026-04-12T10:26:06Z</time></trkpt><trkpt lat="41.38736722836345" lon="13.975421475410858"><ele>199.5</ele><time>2026-04-12T10:26:07Z</time></trkpt><trkpt lat="41.387506503606744" lon="13.97543406398534"><ele>199.0</ele><time>2026-04-12T10:26:08Z</time></trkpt><trkpt lat="41.38765743464273" lon="13.975446102697713"><ele>199.0</ele><time>2026-04-12T10:26:09Z</time></trkpt><trkpt lat="41.387806647768514" lon="13.975462048844355"><ele>199.0</ele><time>2026-04-12T10:26:10Z</time></trkpt><trkpt lat="41.38795252239865" lon="13.975477946251099"><ele>199.0</ele><time>2026-04-12T10:26:11Z</time></trkpt><trkpt lat="41.388109087181306" lon="13.975473534933629"><ele>198.66666666666666</ele><time>2026-04-12T10:26:12Z</time></trkpt><trkpt lat="41.38826425563581" lon="13.975502233462779"><ele>198.33333333333331</ele><time>2026-04-12T10:26:13Z</time></trkpt><trkpt lat="41.388415181736285" lon="13.975578944474474"><ele>198.0</ele><time>2026-04-12T10:26:14Z</time></trkpt><trkpt lat="41.388551374286635" lon="13.975639833043871"><ele>198.0</ele><time>2026-04-12T10:26:15Z</time></trkpt><trkpt lat="41.388691497617856" lon="13.975705491783915"><ele>198.0</ele><time>2026-04-12T10:26:16Z</time></trkpt><trkpt lat="41.388848752796925" lon="13.975774104812144"><ele>198.0</ele><time>2026-04-12T10:26:17Z</time></trkpt><trkpt lat="41.38900471425411" lon="13.975826841022748"><ele>195.66666666666666</ele><time>2026-04-12T10:26:18Z</time></trkpt><trkpt lat="41.389165569967844" lon="13.975853116446798"><ele>193.33333333333331</ele><time>2026-04-12T10:26:19Z</time></trkpt><trkpt lat="41.3893132318859" lon="13.975892019768416"><ele>191.0</ele><time>2026-04-12T10:26:20Z</time></trkpt><trkpt lat="41.3894638898752" lon="13.97593423754995"><ele>191.0</ele><time>2026-04-12T10:26:21Z</time></trkpt><trkpt lat="41.38961690104978" lon="13.975991573447166"><ele>191.0</ele><time>2026-04-12T10:26:22Z</time></trkpt><trkpt lat="41.38977143306308" lon="13.976033248796881"><ele>191.0</ele><time>2026-04-12T10:26:23Z</time></trkpt><trkpt lat="41.38993283159108" lon="13.976073462036652"><ele>190.33333333333331</ele><time>2026-04-12T10:26:24Z</time></trkpt><trkpt lat="41.3900859641827" lon="13.976112703071697"><ele>189.66666666666666</ele><time>2026-04-12T10:26:25Z</time></trkpt><trkpt lat="41.390243361529166" lon="13.976134028424493"><ele>189.0</ele><time>2026-04-12T10:26:26Z</time></trkpt><trkpt lat="41.390397563783644" lon="13.976192169251652"><ele>188.25</ele><time>2026-04-12T10:26:27Z</time></trkpt><trkpt lat="41.390541292408244" lon="13.976227793834468"><ele>187.5</ele><time>2026-04-12T10:26:28Z</time></trkpt><trkpt lat="41.39066337817434" lon="13.976264229397872"><ele>186.75</ele><time>2026-04-12T10:26:29Z</time></trkpt><trkpt lat="41.39078415039709" lon="13.976307008880424"><ele>186.0</ele><time>2026-04-12T10:26:30Z</time></trkpt><trkpt lat="41.390901942036166" lon="13.976340253252426"><ele>186.0</ele><time>2026-04-12T10:26:31Z</time></trkpt><trkpt lat="41.391005543912925" lon="13.976415003885263"><ele>186.0</ele><time>2026-04-12T10:26:32Z</time></trkpt><trkpt lat="41.39109951414649" lon="13.97652555485151"><ele>186.0</ele><time>2026-04-12T10:26:33Z</time></trkpt><trkpt lat="41.39116458079474" lon="13.976659804528184"><ele>186.0</ele><time>2026-04-12T10:26:34Z</time></trkpt><trkpt lat="41.391221086029155" lon="13.976814681363624"><ele>185.25</ele><time>2026-04-12T10:26:35Z</time></trkpt><trkpt lat="41.39127561684123" lon="13.976978049258761"><ele>184.5</ele><time>2026-04-12T10:26:36Z</time></trkpt><trkpt lat="41.39133794217363" lon="13.977128627607799"><ele>183.75</ele><time>2026-04-12T10:26:37Z</time></trkpt><trkpt lat="41.39139500405315" lon="13.977272624999431"><ele>183.0</ele><time>2026-04-12T10:26:38Z</time></trkpt><trkpt lat="41.39144471882212" lon="13.977419567898272"><ele>180.66666666666666</ele><time>2026-04-12T10:26:39Z</time></trkpt><trkpt lat="41.39149124093219" lon="13.977541542817809"><ele>178.33333333333334</ele><time>2026-04-12T10:26:40Z</time></trkpt><trkpt lat="41.39151979242847" lon="13.977643172407905"><ele>176.0</ele><time>2026-04-12T10:26:41Z</time></trkpt><trkpt lat="41.39153482981913" lon="13.977744767988515"><ele>173.66666666666669</ele><time>2026-04-12T10:26:42Z</time></trkpt><trkpt lat="41.39151062696936" lon="13.977841595819871"><ele>171.33333333333334</ele><time>2026-04-12T10:26:43Z</time></trkpt><trkpt lat="41.391443417099524" lon="13.97792087214372"><ele>169.0</ele><time>2026-04-12T10:26:44Z</time></trkpt><trkpt lat="41.39134815186482" lon="13.977956477521108"><ele>169.0</ele><time>2026-04-12T10:26:45Z</time></trkpt><trkpt lat="41.39124918836071" lon="13.977993274076242"><ele>169.0</ele><time>2026-04-12T10:26:46Z</time></trkpt><trkpt lat="41.3911257136491" lon="13.978032509567338"><ele>169.0</ele><time>2026-04-12T10:26:47Z</time></trkpt><trkpt lat="41.39100218442866" lon="13.97807544783684"><ele>169.0</ele><time>2026-04-12T10:26:48Z</time></trkpt><trkpt lat="41.39089306412569" lon="13.978130818966314"><ele>169.0</ele><time>2026-04-12T10:26:49Z</time></trkpt><trkpt lat="41.39078988080555" lon="13.978185135488102"><ele>169.0</ele><time>2026-04-12T10:26:50Z</time></trkpt><trkpt lat="41.39070677740112" lon="13.978234148033275"><ele>169.0</ele><time>2026-04-12T10:26:51Z</time></trkpt><trkpt lat="41.390633095890976" lon="13.97825414219397"><ele>169.0</ele><time>2026-04-12T10:26:52Z</time></trkpt><trkpt lat="41.39054272521552" lon="13.978308668155774"><ele>169.0</ele><time>2026-04-12T10:26:54Z</time></trkpt><trkpt lat="41.39046353288795" lon="13.978357043292712"><ele>167.0</ele><time>2026-04-12T10:26:55Z</time></trkpt><trkpt lat="41.3903409561796" lon="13.978376897091058"><ele>165.0</ele><time>2026-04-12T10:26:57Z</time></trkpt><trkpt lat="41.39021076685547" lon="13.9781403119259"><ele>163.0</ele><time>2026-04-12T10:26:58Z</time></trkpt><trkpt lat="41.390119941578575" lon="13.978044328359731"><ele>163.0</ele><time>2026-04-12T10:26:59Z</time></trkpt><trkpt lat="41.3900117812209" lon="13.977937050130683"><ele>163.0</ele><time>2026-04-12T10:27:00Z</time></trkpt><trkpt lat="41.3899000041914" lon="13.97783004407562"><ele>163.0</ele><time>2026-04-12T10:27:01Z</time></trkpt><trkpt lat="41.38979475754273" lon="13.977744787030382"><ele>163.0</ele><time>2026-04-12T10:27:02Z</time></trkpt><trkpt lat="41.38967814756462" lon="13.977675519077275"><ele>163.2</ele><time>2026-04-12T10:27:03Z</time></trkpt><trkpt lat="41.389575693081774" lon="13.977655805538733"><ele>163.4</ele><time>2026-04-12T10:27:04Z</time></trkpt><trkpt lat="41.389469468121085" lon="13.977648749450497"><ele>163.6</ele><time>2026-04-12T10:27:05Z</time></trkpt><trkpt lat="41.389348914517235" lon="13.97763966270359"><ele>163.79999999999998</ele><time>2026-04-12T10:27:06Z</time></trkpt><trkpt lat="41.3892558809792" lon="13.977657266184487"><ele>164.0</ele><time>2026-04-12T10:27:07Z</time></trkpt><trkpt lat="41.38915467432471" lon="13.977700880877228"><ele>164.0</ele><time>2026-04-12T10:27:08Z</time></trkpt><trkpt lat="41.389056903796366" lon="13.977731357720735"><ele>164.0</ele><time>2026-04-12T10:27:09Z</time></trkpt><trkpt lat="41.38894584946971" lon="13.9777577411767"><ele>164.0</ele><time>2026-04-12T10:27:11Z</time></trkpt><trkpt lat="41.388846908694795" lon="13.97768785354976"><ele>164.0</ele><time>2026-04-12T10:27:13Z</time></trkpt><trkpt lat="41.388781941891494" lon="13.977648946653202"><ele>164.0</ele><time>2026-04-12T10:27:14Z</time></trkpt><trkpt lat="41.388713692042685" lon="13.97762522525481"><ele>163.83333333333331</ele><time>2026-04-12T10:27:15Z</time></trkpt><trkpt lat="41.388635568317596" lon="13.97760036591039"><ele>163.66666666666666</ele><time>2026-04-12T10:27:16Z</time></trkpt><trkpt lat="41.38856784017901" lon="13.977574471547607"><ele>163.5</ele><time>2026-04-12T10:27:17Z</time></trkpt><trkpt lat="41.388495288509105" lon="13.977565097595065"><ele>163.33333333333334</ele><time>2026-04-12T10:27:18Z</time></trkpt><trkpt lat="41.38841099669062" lon="13.977558006169037"><ele>163.16666666666669</ele><time>2026-04-12T10:27:19Z</time></trkpt><trkpt lat="41.388335920141955" lon="13.97757095647536"><ele>163.0</ele><time>2026-04-12T10:27:20Z</time></trkpt><trkpt lat="41.38825944454519" lon="13.977583441218801"><ele>163.0</ele><time>2026-04-12T10:27:21Z</time></trkpt><trkpt lat="41.38817664130746" lon="13.977582784363562"><ele>163.0</ele><time>2026-04-12T10:27:22Z</time></trkpt><trkpt lat="41.38809898240999" lon="13.977577790528624"><ele>163.0</ele><time>2026-04-12T10:27:23Z</time></trkpt><trkpt lat="41.388015279588615" lon="13.9775771457273"><ele>163.0</ele><time>2026-04-12T10:27:24Z</time></trkpt><trkpt lat="41.38794515005367" lon="13.97760618167412"><ele>163.0</ele><time>2026-04-12T10:27:25Z</time></trkpt><trkpt lat="41.38787921438513" lon="13.977647460022935"><ele>163.0</ele><time>2026-04-12T10:27:26Z</time></trkpt><trkpt lat="41.38781585820133" lon="13.977682876148902"><ele>162.66666666666669</ele><time>2026-04-12T10:27:27Z</time></trkpt><trkpt lat="41.3877192057137" lon="13.977783388012806"><ele>162.33333333333334</ele><time>2026-04-12T10:27:29Z</time></trkpt><trkpt lat="41.387670835553905" lon="13.977840508239408"><ele>162.0</ele><time>2026-04-12T10:27:30Z</time></trkpt><trkpt lat="41.38762018504553" lon="13.977897754468264"><ele>161.66666666666666</ele><time>2026-04-12T10:27:31Z</time></trkpt><trkpt lat="41.387555615547264" lon="13.977995404146744"><ele>161.33333333333331</ele><time>2026-04-12T10:27:33Z</time></trkpt><trkpt lat="41.387502589218215" lon="13.978045766231416"><ele>161.0</ele><time>2026-04-12T10:27:34Z</time></trkpt><trkpt lat="41.38740419455517" lon="13.97808201636952"><ele>161.0</ele><time>2026-04-12T10:27:35Z</time></trkpt><trkpt lat="41.38728156707425" lon="13.978089759240477"><ele>161.0</ele><time>2026-04-12T10:27:36Z</time></trkpt><trkpt lat="41.38716837708145" lon="13.97808214206429"><ele>161.0</ele><time>2026-04-12T10:27:37Z</time></trkpt><trkpt lat="41.38703814517846" lon="13.978086547806022"><ele>161.0</ele><time>2026-04-12T10:27:38Z</time></trkpt><trkpt lat="41.3869269866721" lon="13.978097402125703"><ele>161.20000000000002</ele><time>2026-04-12T10:27:39Z</time></trkpt><trkpt lat="41.38684038424388" lon="13.978121246562202"><ele>161.4</ele><time>2026-04-12T10:27:40Z</time></trkpt><trkpt lat="41.38674920165173" lon="13.978181493430204"><ele>161.6</ele><time>2026-04-12T10:27:41Z</time></trkpt><trkpt lat="41.38665669097925" lon="13.97825977836447"><ele>161.8</ele><time>2026-04-12T10:27:42Z</time></trkpt><trkpt lat="41.386561985411895" lon="13.978307583592356"><ele>162.0</ele><time>2026-04-12T10:27:43Z</time></trkpt><trkpt lat="41.38647672718565" lon="13.978362028712043"><ele>160.5</ele><time>2026-04-12T10:27:44Z</time></trkpt><trkpt lat="41.38639788840976" lon="13.978388134589903"><ele>159.0</ele><time>2026-04-12T10:27:45Z</time></trkpt><trkpt lat="41.38630366951465" lon="13.978408256882853"><ele>157.5</ele><time>2026-04-12T10:27:46Z</time></trkpt><trkpt lat="41.38623325420204" lon="13.978446648610678"><ele>156.0</ele><time>2026-04-12T10:27:47Z</time></trkpt><trkpt lat="41.38616171890343" lon="13.978488075816601"><ele>154.5</ele><time>2026-04-12T10:27:48Z</time></trkpt><trkpt lat="41.38610445565497" lon="13.978561631930821"><ele>153.0</ele><time>2026-04-12T10:27:49Z</time></trkpt><trkpt lat="41.38604998719553" lon="13.978662147068547"><ele>153.0</ele><time>2026-04-12T10:27:50Z</time></trkpt><trkpt lat="41.386003605169016" lon="13.97873201799919"><ele>153.0</ele><time>2026-04-12T10:27:51Z</time></trkpt><trkpt lat="41.385929619527246" lon="13.978811842366134"><ele>153.0</ele><time>2026-04-12T10:27:52Z</time></trkpt><trkpt lat="41.38587125072741" lon="13.978883204005804"><ele>153.0</ele><time>2026-04-12T10:27:53Z</time></trkpt><trkpt lat="41.38577520867148" lon="13.978957107722502"><ele>153.0</ele><time>2026-04-12T10:27:55Z</time></trkpt><trkpt lat="41.385656052639874" lon="13.979008848160985"><ele>153.0</ele><time>2026-04-12T10:27:56Z</time></trkpt><trkpt lat="41.38562112613788" lon="13.979092156988292"><ele>153.0</ele><time>2026-04-12T10:27:57Z</time></trkpt><trkpt lat="41.385543491231545" lon="13.979161425829563"><ele>153.0</ele><time>2026-04-12T10:27:58Z</time></trkpt><trkpt lat="41.385485675124194" lon="13.979252595431303"><ele>153.0</ele><time>2026-04-12T10:27:59Z</time></trkpt><trkpt lat="41.38542277596798" lon="13.979350638995589"><ele>153.0</ele><time>2026-04-12T10:28:00Z</time></trkpt><trkpt lat="41.38534243557755" lon="13.97942466500213"><ele>153.0</ele><time>2026-04-12T10:28:01Z</time></trkpt><trkpt lat="41.385246164506654" lon="13.979469419830778"><ele>150.6</ele><time>2026-04-12T10:28:02Z</time></trkpt><trkpt lat="41.385140927296696" lon="13.979460153698966"><ele>148.20000000000002</ele><time>2026-04-12T10:28:03Z</time></trkpt><trkpt lat="41.38503543590566" lon="13.979448675865262"><ele>145.8</ele><time>2026-04-12T10:28:04Z</time></trkpt><trkpt lat="41.384935810206095" lon="13.979448523206583"><ele>143.4</ele><time>2026-04-12T10:28:05Z</time></trkpt><trkpt lat="41.38483191042592" lon="13.979472168892771"><ele>141.0</ele><time>2026-04-12T10:28:06Z</time></trkpt><trkpt lat="41.38472008748121" lon="13.979478691289776"><ele>142.0</ele><time>2026-04-12T10:28:07Z</time></trkpt><trkpt lat="41.3845960966694" lon="13.979480788264532"><ele>143.0</ele><time>2026-04-12T10:28:08Z</time></trkpt><trkpt lat="41.384501344084455" lon="13.979468849558776"><ele>144.0</ele><time>2026-04-12T10:28:09Z</time></trkpt><trkpt lat="41.38444479811341" lon="13.979431586203942"><ele>145.0</ele><time>2026-04-12T10:28:10Z</time></trkpt><trkpt lat="41.38431260996582" lon="13.979443870212137"><ele>146.0</ele><time>2026-04-12T10:30:34Z</time></trkpt><trkpt lat="41.38427866474765" lon="13.979363794703787"><ele>146.0</ele><time>2026-04-12T10:30:43Z</time></trkpt><trkpt lat="41.38427096275168" lon="13.97928016457811"><ele>146.0</ele><time>2026-04-12T10:30:54Z</time></trkpt><trkpt lat="41.38434239682524" lon="13.979410884463416"><ele>146.0</ele><time>2026-04-12T10:31:28Z</time></trkpt><trkpt lat="41.38421430519062" lon="13.97936574259024"><ele>146.0</ele><time>2026-04-12T10:31:31Z</time></trkpt><trkpt lat="41.38410568594121" lon="13.979386524232405"><ele>146.0</ele><time>2026-04-12T10:31:33Z</time></trkpt><trkpt lat="41.384071511786544" lon="13.979475853583914"><ele>146.0</ele><time>2026-04-12T10:31:36Z</time></trkpt><trkpt lat="41.384044948248" lon="13.979387240079243"><ele>146.0</ele><time>2026-04-12T10:31:38Z</time></trkpt><trkpt lat="41.38399168201616" lon="13.97930199386879"><ele>146.0</ele><time>2026-04-12T10:31:40Z</time></trkpt><trkpt lat="41.38389916641357" lon="13.979399962318116"><ele>146.0</ele><time>2026-04-12T10:31:43Z</time></trkpt><trkpt lat="41.38376749070088" lon="13.979443240860068"><ele>146.0</ele><time>2026-04-12T10:31:44Z</time></trkpt><trkpt lat="41.38370083978489" lon="13.979489982710687"><ele>148.0</ele><time>2026-04-12T10:31:45Z</time></trkpt><trkpt lat="41.383530117120934" lon="13.979534697686258"><ele>150.0</ele><time>2026-04-12T10:31:47Z</time></trkpt><trkpt lat="41.383318657314106" lon="13.979433730828847"><ele>152.0</ele><time>2026-04-12T10:31:48Z</time></trkpt><trkpt lat="41.38316912427943" lon="13.979350545550036"><ele>153.66666666666666</ele><time>2026-04-12T10:31:49Z</time></trkpt><trkpt lat="41.382997779021004" lon="13.979286891417784"><ele>155.33333333333334</ele><time>2026-04-12T10:31:50Z</time></trkpt><trkpt lat="41.3828229376349" lon="13.979178765586381"><ele>157.0</ele><time>2026-04-12T10:31:51Z</time></trkpt><trkpt lat="41.38272650763835" lon="13.97911058195965"><ele>157.25</ele><time>2026-04-12T10:31:52Z</time></trkpt><trkpt lat="41.382686038443154" lon="13.978958692116606"><ele>157.5</ele><time>2026-04-12T10:31:54Z</time></trkpt><trkpt lat="41.38266062022152" lon="13.978825376334582"><ele>157.75</ele><time>2026-04-12T10:31:55Z</time></trkpt><trkpt lat="41.38262241358686" lon="13.978642193136771"><ele>158.0</ele><time>2026-04-12T10:31:56Z</time></trkpt><trkpt lat="41.382551745853135" lon="13.978491424060051"><ele>158.0</ele><time>2026-04-12T10:31:57Z</time></trkpt><trkpt lat="41.382466473976166" lon="13.978387568914638"><ele>158.0</ele><time>2026-04-12T10:31:58Z</time></trkpt><trkpt lat="41.382385001310624" lon="13.978331532024457"><ele>158.0</ele><time>2026-04-12T10:31:59Z</time></trkpt><trkpt lat="41.38232131128778" lon="13.978330875798905"><ele>158.0</ele><time>2026-04-12T10:32:00Z</time></trkpt><trkpt lat="41.38221583808215" lon="13.978306433435467"><ele>158.0</ele><time>2026-04-12T10:32:01Z</time></trkpt><trkpt lat="41.38212026774723" lon="13.97820325933076"><ele>159.8</ele><time>2026-04-12T10:32:02Z</time></trkpt><trkpt lat="41.38200470795663" lon="13.978051244978584"><ele>161.60000000000002</ele><time>2026-04-12T10:32:03Z</time></trkpt><trkpt lat="41.38191466851169" lon="13.977976304019128"><ele>163.39999999999998</ele><time>2026-04-12T10:32:04Z</time></trkpt><trkpt lat="41.38185549507029" lon="13.978042680610452"><ele>165.2</ele><time>2026-04-12T10:32:06Z</time></trkpt><trkpt lat="41.38183240445331" lon="13.978160814562912"><ele>167.0</ele><time>2026-04-12T10:32:07Z</time></trkpt><trkpt lat="41.38178110773201" lon="13.97823727621018"><ele>167.0</ele><time>2026-04-12T10:32:08Z</time></trkpt><trkpt lat="41.38172991483684" lon="13.978322104425812"><ele>167.0</ele><time>2026-04-12T10:32:09Z</time></trkpt><trkpt lat="41.3816506426132" lon="13.978435738124167"><ele>167.0</ele><time>2026-04-12T10:32:10Z</time></trkpt><trkpt lat="41.38153212226399" lon="13.97858903225907"><ele>167.0</ele><time>2026-04-12T10:32:11Z</time></trkpt><trkpt lat="41.381500773626904" lon="13.978698074146658"><ele>166.6</ele><time>2026-04-12T10:32:12Z</time></trkpt><trkpt lat="41.381441081900775" lon="13.978751729450426"><ele>166.2</ele><time>2026-04-12T10:32:14Z</time></trkpt><trkpt lat="41.38130833173082" lon="13.978829519592885"><ele>165.8</ele><time>2026-04-12T10:32:16Z</time></trkpt><trkpt lat="41.38117514877307" lon="13.978852172266922"><ele>165.4</ele><time>2026-04-12T10:32:17Z</time></trkpt><trkpt lat="41.3810975970505" lon="13.978828708122927"><ele>165.0</ele><time>2026-04-12T10:32:19Z</time></trkpt><trkpt lat="41.38099326946268" lon="13.978833728825677"><ele>165.0</ele><time>2026-04-12T10:32:21Z</time></trkpt><trkpt lat="41.38093632500848" lon="13.978870820479214"><ele>165.0</ele><time>2026-04-12T10:32:22Z</time></trkpt><trkpt lat="41.38086833996624" lon="13.978856462715447"><ele>165.0</ele><time>2026-04-12T10:32:23Z</time></trkpt><trkpt lat="41.380794753893056" lon="13.978829770363498"><ele>165.0</ele><time>2026-04-12T10:32:24Z</time></trkpt><trkpt lat="41.38063828786206" lon="13.978840242763155"><ele>165.0</ele><time>2026-04-12T10:32:25Z</time></trkpt><trkpt lat="41.380533313020614" lon="13.978893510855226"><ele>165.2</ele><time>2026-04-12T10:32:26Z</time></trkpt><trkpt lat="41.380461596894925" lon="13.978945634664056"><ele>165.4</ele><time>2026-04-12T10:32:27Z</time></trkpt><trkpt lat="41.3803461372148" lon="13.97895342369461"><ele>165.60000000000002</ele><time>2026-04-12T10:32:29Z</time></trkpt><trkpt lat="41.38021175386204" lon="13.979052319287161"><ele>165.8</ele><time>2026-04-12T10:32:31Z</time></trkpt><trkpt lat="41.38017301677198" lon="13.979167340951182"><ele>166.0</ele><time>2026-04-12T10:32:33Z</time></trkpt><trkpt lat="41.380075097025376" lon="13.979202160813815"><ele>166.0</ele><time>2026-04-12T10:32:35Z</time></trkpt><trkpt lat="41.380042900489286" lon="13.979321871113683"><ele>166.0</ele><time>2026-04-12T10:32:36Z</time></trkpt><trkpt lat="41.37998922056412" lon="13.979386953686793"><ele>166.0</ele><time>2026-04-12T10:32:38Z</time></trkpt><trkpt lat="41.37991668169467" lon="13.979428220598173"><ele>166.0</ele><time>2026-04-12T10:32:42Z</time></trkpt><trkpt lat="41.37988186707689" lon="13.979350053781683"><ele>166.0</ele><time>2026-04-12T10:32:45Z</time></trkpt><trkpt lat="41.37946973181448" lon="13.979355354353379"><ele>166.0</ele><time>2026-04-12T10:32:46Z</time></trkpt><trkpt lat="41.37915338105771" lon="13.97931719703009"><ele>166.0</ele><time>2026-04-12T10:32:47Z</time></trkpt><trkpt lat="41.37904949388723" lon="13.979280700318846"><ele>166.0</ele><time>2026-04-12T10:32:48Z</time></trkpt><trkpt lat="41.37898174199857" lon="13.979230400176549"><ele>166.0</ele><time>2026-04-12T10:32:49Z</time></trkpt><trkpt lat="41.37889696784941" lon="13.97923596082607"><ele>166.0</ele><time>2026-04-12T10:32:50Z</time></trkpt><trkpt lat="41.378927048177594" lon="13.979453773721014"><ele>166.0</ele><time>2026-04-12T10:32:52Z</time></trkpt><trkpt lat="41.37891251378273" lon="13.979607973236424"><ele>166.0</ele><time>2026-04-12T10:32:53Z</time></trkpt><trkpt lat="41.37882653605878" lon="13.979602013234867"><ele>166.8</ele><time>2026-04-12T10:32:54Z</time></trkpt><trkpt lat="41.378753434719194" lon="13.979573706022144"><ele>167.60000000000002</ele><time>2026-04-12T10:32:55Z</time></trkpt><trkpt lat="41.378654990359806" lon="13.979528615291049"><ele>168.4</ele><time>2026-04-12T10:32:57Z</time></trkpt><trkpt lat="41.37862721407456" lon="13.979452293189258"><ele>169.2</ele><time>2026-04-12T10:32:58Z</time></trkpt><trkpt lat="41.3785971297303" lon="13.979300696212773"><ele>170.0</ele><time>2026-04-12T10:33:00Z</time></trkpt><trkpt lat="41.37828739209641" lon="13.979271364933023"><ele>170.0</ele><time>2026-04-12T10:33:02Z</time></trkpt><trkpt lat="41.37809652730699" lon="13.979275406387083"><ele>170.0</ele><time>2026-04-12T10:33:03Z</time></trkpt><trkpt lat="41.37797626607389" lon="13.97930472844383"><ele>170.0</ele><time>2026-04-12T10:33:04Z</time></trkpt><trkpt lat="41.37790512853653" lon="13.979283247599213"><ele>170.0</ele><time>2026-04-12T10:33:05Z</time></trkpt><trkpt lat="41.37797742612257" lon="13.979341223974789"><ele>170.4</ele><time>2026-04-12T10:33:06Z</time></trkpt><trkpt lat="41.37790107472808" lon="13.979280370307318"><ele>170.8</ele><time>2026-04-12T10:33:10Z</time></trkpt><trkpt lat="41.3778442721203" lon="13.979231251381192"><ele>171.2</ele><time>2026-04-12T10:33:11Z</time></trkpt><trkpt lat="41.37777265840294" lon="13.979200128415142"><ele>171.6</ele><time>2026-04-12T10:33:12Z</time></trkpt><trkpt lat="41.377625894524634" lon="13.979176348061772"><ele>172.0</ele><time>2026-04-12T10:33:13Z</time></trkpt><trkpt lat="41.37751609033309" lon="13.979110849713434"><ele>172.0</ele><time>2026-04-12T10:33:14Z</time></trkpt><trkpt lat="41.37737141599474" lon="13.97907359859981"><ele>172.0</ele><time>2026-04-12T10:33:15Z</time></trkpt><trkpt lat="41.37727049229095" lon="13.97900446327135"><ele>172.0</ele><time>2026-04-12T10:33:16Z</time></trkpt><trkpt lat="41.377206436023904" lon="13.97893256327011"><ele>172.0</ele><time>2026-04-12T10:33:17Z</time></trkpt><trkpt lat="41.37714024299322" lon="13.978776164561655"><ele>172.39999999999998</ele><time>2026-04-12T10:33:18Z</time></trkpt><trkpt lat="41.37709289716606" lon="13.978656315323919"><ele>172.79999999999998</ele><time>2026-04-12T10:33:19Z</time></trkpt><trkpt lat="41.377010146144684" lon="13.978717869944354"><ele>173.2</ele><time>2026-04-12T10:33:21Z</time></trkpt><trkpt lat="41.37693679256141" lon="13.978730558233455"><ele>173.6</ele><time>2026-04-12T10:33:22Z</time></trkpt><trkpt lat="41.3768402388907" lon="13.978704801860799"><ele>174.0</ele><time>2026-04-12T10:33:23Z</time></trkpt><trkpt lat="41.376725410450554" lon="13.978718044458494"><ele>174.0</ele><time>2026-04-12T10:33:24Z</time></trkpt><trkpt lat="41.37665758508559" lon="13.978724148637836"><ele>174.0</ele><time>2026-04-12T10:33:25Z</time></trkpt><trkpt lat="41.37664170974216" lon="13.978818975863115"><ele>174.0</ele><time>2026-04-12T10:33:27Z</time></trkpt><trkpt lat="41.376715580373265" lon="13.978836365489734"><ele>174.0</ele><time>2026-04-12T10:33:29Z</time></trkpt><trkpt lat="41.37678691521124" lon="13.978862852889993"><ele>174.0</ele><time>2026-04-12T10:33:32Z</time></trkpt><trkpt lat="41.376702350218295" lon="13.978997650598782"><ele>174.0</ele><time>2026-04-12T10:33:35Z</time></trkpt><trkpt lat="41.376611680100204" lon="13.978962476177932"><ele>174.0</ele><time>2026-04-12T10:33:38Z</time></trkpt><trkpt lat="41.376521272655076" lon="13.978887667303892"><ele>174.0</ele><time>2026-04-12T10:33:40Z</time></trkpt><trkpt lat="41.37644091930679" lon="13.97884974414314"><ele>174.0</ele><time>2026-04-12T10:33:45Z</time></trkpt><trkpt lat="41.37635127044613" lon="13.978928228098313"><ele>174.0</ele><time>2026-04-12T10:33:48Z</time></trkpt><trkpt lat="41.376300497569844" lon="13.979014726117317"><ele>174.0</ele><time>2026-04-12T10:33:51Z</time></trkpt><trkpt lat="41.37623207692997" lon="13.97899432755001"><ele>177.79999999999998</ele><time>2026-04-12T10:33:53Z</time></trkpt><trkpt lat="41.37615908356132" lon="13.97897785098407"><ele>181.6</ele><time>2026-04-12T10:33:55Z</time></trkpt><trkpt lat="41.376105664692446" lon="13.978890862408601"><ele>185.4</ele><time>2026-04-12T10:33:57Z</time></trkpt><trkpt lat="41.37600354329261" lon="13.97889325615696"><ele>189.2</ele><time>2026-04-12T10:33:58Z</time></trkpt><trkpt lat="41.375940927975805" lon="13.97893069989807"><ele>193.0</ele><time>2026-04-12T10:33:59Z</time></trkpt><trkpt lat="41.37583229102782" lon="13.979028242942821"><ele>192.99999999999997</ele><time>2026-04-12T10:34:01Z</time></trkpt><trkpt lat="41.37578891908863" lon="13.979105578592108"><ele>193.0</ele><time>2026-04-12T10:34:02Z</time></trkpt><trkpt lat="41.37573903037502" lon="13.97917191674362"><ele>193.0</ele><time>2026-04-12T10:34:03Z</time></trkpt><trkpt lat="41.37571368902658" lon="13.979256265458643"><ele>193.0</ele><time>2026-04-12T10:34:04Z</time></trkpt><trkpt lat="41.375781315218674" lon="13.979423164444363"><ele>192.99999999999997</ele><time>2026-04-12T10:34:06Z</time></trkpt><trkpt lat="41.375814539087386" lon="13.979506727020016"><ele>193.0</ele><time>2026-04-12T10:34:07Z</time></trkpt><trkpt lat="41.37586987794971" lon="13.979586626528103"><ele>194.99999999999997</ele><time>2026-04-12T10:34:08Z</time></trkpt><trkpt lat="41.375980546347876" lon="13.979626128857367"><ele>197.0</ele><time>2026-04-12T10:34:10Z</time></trkpt><trkpt lat="41.37608356051441" lon="13.97965075641982"><ele>199.0</ele><time>2026-04-12T10:34:11Z</time></trkpt><trkpt lat="41.37614585721618" lon="13.979670038740714"><ele>201.0</ele><time>2026-04-12T10:34:12Z</time></trkpt><trkpt lat="41.37619612640182" lon="13.979739569066101"><ele>202.99999999999997</ele><time>2026-04-12T10:34:14Z</time></trkpt><trkpt lat="41.37625053630677" lon="13.979789775519777"><ele>205.0</ele><time>2026-04-12T10:34:17Z</time></trkpt><trkpt lat="41.376287092359675" lon="13.979869263205781"><ele>205.0</ele><time>2026-04-12T10:34:20Z</time></trkpt><trkpt lat="41.37630267270246" lon="13.979968268141551"><ele>205.0</ele><time>2026-04-12T10:34:22Z</time></trkpt><trkpt lat="41.37642657368363" lon="13.98008548935385"><ele>205.0</ele><time>2026-04-12T10:34:25Z</time></trkpt><trkpt lat="41.376564624608534" lon="13.980160610905392"><ele>205.0</ele><time>2026-04-12T10:34:26Z</time></trkpt><trkpt lat="41.376718450913415" lon="13.98028414678787"><ele>203.5</ele><time>2026-04-12T10:34:27Z</time></trkpt><trkpt lat="41.37681097334561" lon="13.98034374274421"><ele>202.0</ele><time>2026-04-12T10:34:28Z</time></trkpt><trkpt lat="41.376936156217084" lon="13.980383168259799"><ele>200.5</ele><time>2026-04-12T10:34:29Z</time></trkpt><trkpt lat="41.377072680436385" lon="13.980421131367113"><ele>199.0</ele><time>2026-04-12T10:34:30Z</time></trkpt><trkpt lat="41.377161616435686" lon="13.98045734043289"><ele>198.6</ele><time>2026-04-12T10:34:31Z</time></trkpt><trkpt lat="41.377273987758514" lon="13.980533684620566"><ele>198.2</ele><time>2026-04-12T10:34:32Z</time></trkpt><trkpt lat="41.37733697452995" lon="13.980608078318532"><ele>197.79999999999998</ele><time>2026-04-12T10:34:33Z</time></trkpt><trkpt lat="41.37739579753619" lon="13.980689276914134"><ele>197.39999999999998</ele><time>2026-04-12T10:34:34Z</time></trkpt><trkpt lat="41.37730206731724" lon="13.980694413821139"><ele>197.0</ele><time>2026-04-12T10:34:39Z</time></trkpt><trkpt lat="41.37722273571389" lon="13.980709843681739"><ele>197.39999999999998</ele><time>2026-04-12T10:34:40Z</time></trkpt><trkpt lat="41.377132548648966" lon="13.980743685602054"><ele>197.79999999999998</ele><time>2026-04-12T10:34:41Z</time></trkpt><trkpt lat="41.37706645011372" lon="13.980801939528764"><ele>198.2</ele><time>2026-04-12T10:34:42Z</time></trkpt><trkpt lat="41.37698022648093" lon="13.980819523000205"><ele>198.6</ele><time>2026-04-12T10:34:43Z</time></trkpt><trkpt lat="41.37689751237555" lon="13.98075816323785"><ele>199.0</ele><time>2026-04-12T10:34:45Z</time></trkpt><trkpt lat="41.376799023467846" lon="13.980693079113246"><ele>199.0</ele><time>2026-04-12T10:34:47Z</time></trkpt><trkpt lat="41.37680623264238" lon="13.98059275077715"><ele>199.0</ele><time>2026-04-12T10:34:49Z</time></trkpt><trkpt lat="41.37677679178147" lon="13.980514806505248"><ele>199.0</ele><time>2026-04-12T10:34:51Z</time></trkpt><trkpt lat="41.37600053084478" lon="13.980354869035198"><ele>200.0</ele><time>2026-04-12T10:34:53Z</time></trkpt><trkpt lat="41.37593154627144" lon="13.980405731900293"><ele>201.0</ele><time>2026-04-12T10:34:54Z</time></trkpt><trkpt lat="41.375879895866184" lon="13.980297171108063"><ele>202.0</ele><time>2026-04-12T10:34:57Z</time></trkpt><trkpt lat="41.375892003778894" lon="13.980191050000544"><ele>203.0</ele><time>2026-04-12T10:34:58Z</time></trkpt><trkpt lat="41.37583499696856" lon="13.980090120245096"><ele>204.0</ele><time>2026-04-12T10:34:59Z</time></trkpt><trkpt lat="41.375737503711335" lon="13.979917166452054"><ele>204.25</ele><time>2026-04-12T10:35:00Z</time></trkpt><trkpt lat="41.375667371291584" lon="13.97984736815302"><ele>204.5</ele><time>2026-04-12T10:35:01Z</time></trkpt><trkpt lat="41.37560996493538" lon="13.979799227964357"><ele>204.75</ele><time>2026-04-12T10:35:02Z</time></trkpt><trkpt lat="41.37548227391569" lon="13.979751999704565"><ele>205.0</ele><time>2026-04-12T10:35:04Z</time></trkpt><trkpt lat="41.37530205459112" lon="13.979804295526298"><ele>205.8</ele><time>2026-04-12T10:35:05Z</time></trkpt><trkpt lat="41.37518097645002" lon="13.979867015399275"><ele>206.6</ele><time>2026-04-12T10:35:07Z</time></trkpt><trkpt lat="41.37507380513809" lon="13.979920035093922"><ele>207.39999999999998</ele><time>2026-04-12T10:35:08Z</time></trkpt><trkpt lat="41.3749789786179" lon="13.979920553160266"><ele>208.2</ele><time>2026-04-12T10:35:09Z</time></trkpt><trkpt lat="41.375000359061424" lon="13.98003747223195"><ele>209.0</ele><time>2026-04-12T10:35:11Z</time></trkpt><trkpt lat="41.37515498708406" lon="13.980029841657876"><ele>209.0</ele><time>2026-04-12T10:35:13Z</time></trkpt><trkpt lat="41.37535542509053" lon="13.98006563138115"><ele>209.0</ele><time>2026-04-12T10:35:15Z</time></trkpt><trkpt lat="41.375454104141156" lon="13.980082913986584"><ele>209.0</ele><time>2026-04-12T10:35:16Z</time></trkpt><trkpt lat="41.37554806863387" lon="13.9801224486859"><ele>209.0</ele><time>2026-04-12T10:35:17Z</time></trkpt><trkpt lat="41.375625470158184" lon="13.980158170437722"><ele>208.16666666666669</ele><time>2026-04-12T10:35:18Z</time></trkpt><trkpt lat="41.37569446806524" lon="13.980202321320151"><ele>207.33333333333334</ele><time>2026-04-12T10:35:19Z</time></trkpt><trkpt lat="41.375758456159154" lon="13.980302981683545"><ele>206.5</ele><time>2026-04-12T10:35:21Z</time></trkpt><trkpt lat="41.375712978166476" lon="13.980447598235218"><ele>205.66666666666669</ele><time>2026-04-12T10:35:23Z</time></trkpt><trkpt lat="41.37568015138147" lon="13.980540213482922"><ele>204.83333333333334</ele><time>2026-04-12T10:35:24Z</time></trkpt><trkpt lat="41.37566227974672" lon="13.980627163835232"><ele>204.0</ele><time>2026-04-12T10:35:25Z</time></trkpt><trkpt lat="41.37569031945756" lon="13.980716871498306"><ele>204.0</ele><time>2026-04-12T10:35:27Z</time></trkpt><trkpt lat="41.375746445447476" lon="13.980769504464655"><ele>204.0</ele><time>2026-04-12T10:35:28Z</time></trkpt><trkpt lat="41.37583077814473" lon="13.980797027832512"><ele>204.0</ele><time>2026-04-12T10:35:29Z</time></trkpt><trkpt lat="41.37589559213639" lon="13.980797193131648"><ele>204.0</ele><time>2026-04-12T10:35:30Z</time></trkpt><trkpt lat="41.37596554404751" lon="13.980789479376414"><ele>204.0</ele><time>2026-04-12T10:35:31Z</time></trkpt><trkpt lat="41.37609016885478" lon="13.980856773718424"><ele>204.0</ele><time>2026-04-12T10:35:33Z</time></trkpt><trkpt lat="41.37615216089481" lon="13.9808868612837"><ele>203.0</ele><time>2026-04-12T10:35:34Z</time></trkpt><trkpt lat="41.376274419492255" lon="13.980941987645515"><ele>202.0</ele><time>2026-04-12T10:35:35Z</time></trkpt><trkpt lat="41.37636710237951" lon="13.981023488445386"><ele>201.0</ele><time>2026-04-12T10:35:38Z</time></trkpt><trkpt lat="41.37640831747238" lon="13.981120303323396"><ele>200.0</ele><time>2026-04-12T10:35:39Z</time></trkpt><trkpt lat="41.37651067961653" lon="13.981164838433056"><ele>199.0</ele><time>2026-04-12T10:35:41Z</time></trkpt><trkpt lat="41.3764963438334" lon="13.981249524352782"><ele>196.66666666666666</ele><time>2026-04-12T10:35:42Z</time></trkpt><trkpt lat="41.37653365763236" lon="13.981331346326021"><ele>194.33333333333331</ele><time>2026-04-12T10:35:43Z</time></trkpt><trkpt lat="41.376627556814704" lon="13.981456445194768"><ele>192.0</ele><time>2026-04-12T10:35:45Z</time></trkpt><trkpt lat="41.377117485979014" lon="13.9820107137533"><ele>190.33333333333334</ele><time>2026-04-12T10:35:46Z</time></trkpt><trkpt lat="41.37719497765816" lon="13.982079525069977"><ele>188.66666666666666</ele><time>2026-04-12T10:35:47Z</time></trkpt><trkpt lat="41.377262929650605" lon="13.982121324525165"><ele>187.0</ele><time>2026-04-12T10:35:48Z</time></trkpt><trkpt lat="41.37734567982753" lon="13.982149611283642"><ele>185.33333333333331</ele><time>2026-04-12T10:35:49Z</time></trkpt><trkpt lat="41.377389491476784" lon="13.98224050846616"><ele>183.66666666666666</ele><time>2026-04-12T10:35:50Z</time></trkpt><trkpt lat="41.377413326920134" lon="13.982339430429406"><ele>182.0</ele><time>2026-04-12T10:35:51Z</time></trkpt><trkpt lat="41.37742204144144" lon="13.982442507912804"><ele>182.0</ele><time>2026-04-12T10:35:52Z</time></trkpt><trkpt lat="41.377487931514736" lon="13.982496747478564"><ele>182.0</ele><time>2026-04-12T10:35:53Z</time></trkpt><trkpt lat="41.37754385195438" lon="13.982668375637287"><ele>182.0</ele><time>2026-04-12T10:35:55Z</time></trkpt><trkpt lat="41.377634332819724" lon="13.982771185053245"><ele>182.0</ele><time>2026-04-12T10:35:56Z</time></trkpt><trkpt lat="41.37770915568043" lon="13.98284370537751"><ele>182.0</ele><time>2026-04-12T10:35:57Z</time></trkpt><trkpt lat="41.377758411073685" lon="13.982902799727915"><ele>181.0</ele><time>2026-04-12T10:35:58Z</time></trkpt><trkpt lat="41.37781329213164" lon="13.982966710203096"><ele>180.0</ele><time>2026-04-12T10:35:59Z</time></trkpt><trkpt lat="41.377932192348204" lon="13.982987590169337"><ele>179.0</ele><time>2026-04-12T10:36:01Z</time></trkpt><trkpt lat="41.378029672972794" lon="13.98304090951889"><ele>178.0</ele><time>2026-04-12T10:36:02Z</time></trkpt><trkpt lat="41.378107407228846" lon="13.983070083696429"><ele>177.0</ele><time>2026-04-12T10:36:03Z</time></trkpt><trkpt lat="41.37818604806731" lon="13.983136554071802"><ele>177.0</ele><time>2026-04-12T10:36:05Z</time></trkpt><trkpt lat="41.37824962777972" lon="13.983133962653195"><ele>177.0</ele><time>2026-04-12T10:36:07Z</time></trkpt><trkpt lat="41.378325070193256" lon="13.983106550166614"><ele>177.0</ele><time>2026-04-12T10:36:08Z</time></trkpt><trkpt lat="41.37840771433487" lon="13.982991405464357"><ele>177.0</ele><time>2026-04-12T10:36:10Z</time></trkpt><trkpt lat="41.378499735152154" lon="13.983032527725022"><ele>177.0</ele><time>2026-04-12T10:36:12Z</time></trkpt><trkpt lat="41.3785932870368" lon="13.983081074124526"><ele>177.0</ele><time>2026-04-12T10:36:14Z</time></trkpt><trkpt lat="41.37867791899838" lon="13.98311620986986"><ele>177.0</ele><time>2026-04-12T10:36:15Z</time></trkpt><trkpt lat="41.37876372371507" lon="13.983147844449473"><ele>177.0</ele><time>2026-04-12T10:36:16Z</time></trkpt><trkpt lat="41.378880123155895" lon="13.98321450848958"><ele>177.0</ele><time>2026-04-12T10:36:17Z</time></trkpt><trkpt lat="41.379004243906785" lon="13.983363711682205"><ele>181.5</ele><time>2026-04-12T10:36:18Z</time></trkpt><trkpt lat="41.37912737335004" lon="13.983428486589442"><ele>186.0</ele><time>2026-04-12T10:36:19Z</time></trkpt><trkpt lat="41.379228512791805" lon="13.983493167421464"><ele>190.5</ele><time>2026-04-12T10:36:20Z</time></trkpt><trkpt lat="41.379326723585486" lon="13.98351548564479"><ele>195.0</ele><time>2026-04-12T10:36:21Z</time></trkpt><trkpt lat="41.379496577168254" lon="13.983512783853502"><ele>195.0</ele><time>2026-04-12T10:36:22Z</time></trkpt><trkpt lat="41.37958043377466" lon="13.983485608193277"><ele>195.0</ele><time>2026-04-12T10:36:24Z</time></trkpt><trkpt lat="41.37968106649144" lon="13.983461604644775"><ele>195.0</ele><time>2026-04-12T10:36:25Z</time></trkpt><trkpt lat="41.37974771850946" lon="13.98346396846476"><ele>195.0</ele><time>2026-04-12T10:36:28Z</time></trkpt><trkpt lat="41.37982282114598" lon="13.983479273580457"><ele>195.0</ele><time>2026-04-12T10:36:30Z</time></trkpt><trkpt lat="41.3799134986425" lon="13.98348800400691"><ele>195.0</ele><time>2026-04-12T10:36:32Z</time></trkpt><trkpt lat="41.38006608169146" lon="13.98348054316482"><ele>194.4</ele><time>2026-04-12T10:36:37Z</time></trkpt><trkpt lat="41.38013048966688" lon="13.983446947084296"><ele>193.8</ele><time>2026-04-12T10:36:38Z</time></trkpt><trkpt lat="41.38026931888175" lon="13.983494642101128"><ele>193.2</ele><time>2026-04-12T10:36:43Z</time></trkpt><trkpt lat="41.38036436844719" lon="13.983563395534127"><ele>192.6</ele><time>2026-04-12T10:36:46Z</time></trkpt><trkpt lat="41.3804468909015" lon="13.983651108228576"><ele>192.0</ele><time>2026-04-12T10:36:49Z</time></trkpt><trkpt lat="41.380552796129344" lon="13.983709417639806"><ele>191.2</ele><time>2026-04-12T10:36:50Z</time></trkpt><trkpt lat="41.380657818656694" lon="13.983870136220622"><ele>190.39999999999998</ele><time>2026-04-12T10:36:51Z</time></trkpt><trkpt lat="41.38075354556718" lon="13.984000985634905"><ele>189.60000000000002</ele><time>2026-04-12T10:36:52Z</time></trkpt><trkpt lat="41.380820386143" lon="13.984029630013087"><ele>188.8</ele><time>2026-04-12T10:36:53Z</time></trkpt><trkpt lat="41.380883014929694" lon="13.984048025488203"><ele>188.0</ele><time>2026-04-12T10:36:54Z</time></trkpt><trkpt lat="41.380931716024456" lon="13.98416379421237"><ele>190.83333333333331</ele><time>2026-04-12T10:36:56Z</time></trkpt><trkpt lat="41.380981505786224" lon="13.984260729396246"><ele>193.66666666666666</ele><time>2026-04-12T10:36:59Z</time></trkpt><trkpt lat="41.381048114354634" lon="13.98431872776235"><ele>196.5</ele><time>2026-04-12T10:37:01Z</time></trkpt><trkpt lat="41.381112466777836" lon="13.984393199509618"><ele>199.33333333333331</ele><time>2026-04-12T10:37:03Z</time></trkpt><trkpt lat="41.38118409755217" lon="13.98443936213313"><ele>202.16666666666666</ele><time>2026-04-12T10:37:06Z</time></trkpt><trkpt lat="41.38124370087465" lon="13.984496495644299"><ele>205.0</ele><time>2026-04-12T10:37:08Z</time></trkpt><trkpt lat="41.38133467715222" lon="13.984580131191498"><ele>203.0</ele><time>2026-04-12T10:37:10Z</time></trkpt><trkpt lat="41.381369309990305" lon="13.984658041179559"><ele>201.0</ele><time>2026-04-12T10:37:11Z</time></trkpt><trkpt lat="41.3814720610584" lon="13.984725333972305"><ele>199.0</ele><time>2026-04-12T10:37:13Z</time></trkpt><trkpt lat="41.38154305195382" lon="13.984782867488793"><ele>197.0</ele><time>2026-04-12T10:37:14Z</time></trkpt><trkpt lat="41.381614655166224" lon="13.984827394862576"><ele>195.0</ele><time>2026-04-12T10:37:15Z</time></trkpt><trkpt lat="41.381718619305396" lon="13.984887780958246"><ele>195.0</ele><time>2026-04-12T10:37:16Z</time></trkpt><trkpt lat="41.38179233523886" lon="13.984966501421761"><ele>195.0</ele><time>2026-04-12T10:37:17Z</time></trkpt><trkpt lat="41.38189381435212" lon="13.985068536926653"><ele>195.0</ele><time>2026-04-12T10:37:18Z</time></trkpt><trkpt lat="41.381993752583405" lon="13.985112833506747"><ele>195.0</ele><time>2026-04-12T10:37:19Z</time></trkpt><trkpt lat="41.38208557618456" lon="13.985123622598758"><ele>195.0</ele><time>2026-04-12T10:37:20Z</time></trkpt><trkpt lat="41.3821701264181" lon="13.985127004554291"><ele>196.5</ele><time>2026-04-12T10:37:21Z</time></trkpt><trkpt lat="41.38225665245765" lon="13.985254089379277"><ele>198.0</ele><time>2026-04-12T10:37:22Z</time></trkpt><trkpt lat="41.38239926079806" lon="13.985430421378323"><ele>199.5</ele><time>2026-04-12T10:37:23Z</time></trkpt><trkpt lat="41.38248588364771" lon="13.985477139734188"><ele>201.0</ele><time>2026-04-12T10:37:24Z</time></trkpt><trkpt lat="41.382626321894506" lon="13.985645160893537"><ele>201.0</ele><time>2026-04-12T10:37:25Z</time></trkpt><trkpt lat="41.38277180366612" lon="13.985801491589926"><ele>201.0</ele><time>2026-04-12T10:37:26Z</time></trkpt><trkpt lat="41.38291057035247" lon="13.985904623067837"><ele>201.0</ele><time>2026-04-12T10:37:27Z</time></trkpt><trkpt lat="41.38301593532628" lon="13.985982683722149"><ele>200.75</ele><time>2026-04-12T10:37:28Z</time></trkpt><trkpt lat="41.383114247023485" lon="13.986079518121402"><ele>200.5</ele><time>2026-04-12T10:37:29Z</time></trkpt><trkpt lat="41.3831973519933" lon="13.986159896289875"><ele>200.25</ele><time>2026-04-12T10:37:30Z</time></trkpt><trkpt lat="41.38327165084341" lon="13.98629299008229"><ele>200.0</ele><time>2026-04-12T10:37:31Z</time></trkpt><trkpt lat="41.38336086789215" lon="13.986384607184185"><ele>200.0</ele><time>2026-04-12T10:37:32Z</time></trkpt><trkpt lat="41.383476372037855" lon="13.98654509729537"><ele>200.0</ele><time>2026-04-12T10:37:33Z</time></trkpt><trkpt lat="41.38355062590847" lon="13.986667235531582"><ele>200.0</ele><time>2026-04-12T10:37:34Z</time></trkpt><trkpt lat="41.38360518314489" lon="13.986743337001755"><ele>200.0</ele><time>2026-04-12T10:37:35Z</time></trkpt><trkpt lat="41.38367007707157" lon="13.98677942901497"><ele>200.0</ele><time>2026-04-12T10:37:36Z</time></trkpt><trkpt lat="41.38377594983268" lon="13.986822984184192"><ele>200.4</ele><time>2026-04-12T10:37:38Z</time></trkpt><trkpt lat="41.38373833532081" lon="13.98689243601189"><ele>200.8</ele><time>2026-04-12T10:37:41Z</time></trkpt><trkpt lat="41.38361626052177" lon="13.986834935280282"><ele>201.2</ele><time>2026-04-12T10:37:44Z</time></trkpt><trkpt lat="41.3835427313704" lon="13.986838649537953"><ele>201.6</ele><time>2026-04-12T10:37:46Z</time></trkpt><trkpt lat="41.383434962900935" lon="13.986836467761387"><ele>202.0</ele><time>2026-04-12T10:37:47Z</time></trkpt><trkpt lat="41.38335666950858" lon="13.98686019683004"><ele>202.0</ele><time>2026-04-12T10:37:48Z</time></trkpt><trkpt lat="41.38330952597053" lon="13.986973556299708"><ele>202.0</ele><time>2026-04-12T10:37:50Z</time></trkpt><trkpt lat="41.383322935736835" lon="13.987172366459788"><ele>202.0</ele><time>2026-04-12T10:37:52Z</time></trkpt><trkpt lat="41.38333309205968" lon="13.987322837689254"><ele>202.0</ele><time>2026-04-12T10:37:53Z</time></trkpt><trkpt lat="41.38333873347844" lon="13.98747845984455"><ele>201.33333333333331</ele><time>2026-04-12T10:37:54Z</time></trkpt><trkpt lat="41.383352990459244" lon="13.987605012426343"><ele>200.66666666666666</ele><time>2026-04-12T10:37:55Z</time></trkpt><trkpt lat="41.38336485222222" lon="13.987733586650009"><ele>200.0</ele><time>2026-04-12T10:37:56Z</time></trkpt><trkpt lat="41.3833674094998" lon="13.987832231078146"><ele>199.33333333333331</ele><time>2026-04-12T10:37:57Z</time></trkpt><trkpt lat="41.383379498606736" lon="13.987952330059676"><ele>198.66666666666666</ele><time>2026-04-12T10:37:58Z</time></trkpt><trkpt lat="41.38339100388751" lon="13.988064978740482"><ele>198.0</ele><time>2026-04-12T10:37:59Z</time></trkpt><trkpt lat="41.383391379482575" lon="13.98824424674172"><ele>198.0</ele><time>2026-04-12T10:38:01Z</time></trkpt><trkpt lat="41.383362996202365" lon="13.988342245515835"><ele>198.0</ele><time>2026-04-12T10:38:02Z</time></trkpt><trkpt lat="41.383334880298435" lon="13.988453515566178"><ele>198.0</ele><time>2026-04-12T10:38:03Z</time></trkpt><trkpt lat="41.38331447641614" lon="13.988559775221546"><ele>198.0</ele><time>2026-04-12T10:38:04Z</time></trkpt><trkpt lat="41.38328082006797" lon="13.988636446507138"><ele>198.0</ele><time>2026-04-12T10:38:05Z</time></trkpt><trkpt lat="41.38325655599443" lon="13.988725608516535"><ele>198.0</ele><time>2026-04-12T10:38:06Z</time></trkpt><trkpt lat="41.383149397665605" lon="13.988789738753441"><ele>196.75</ele><time>2026-04-12T10:38:07Z</time></trkpt><trkpt lat="41.38303421435629" lon="13.988923339792192"><ele>195.5</ele><time>2026-04-12T10:38:08Z</time></trkpt><trkpt lat="41.38297016727324" lon="13.989037477206994"><ele>194.25</ele><time>2026-04-12T10:38:09Z</time></trkpt><trkpt lat="41.382917592430694" lon="13.989123389946972"><ele>193.0</ele><time>2026-04-12T10:38:10Z</time></trkpt><trkpt lat="41.38289708024695" lon="13.989263267635677"><ele>192.99999999999997</ele><time>2026-04-12T10:38:12Z</time></trkpt><trkpt lat="41.382908899404704" lon="13.98936605845081"><ele>193.0</ele><time>2026-04-12T10:38:13Z</time></trkpt><trkpt lat="41.382908337151356" lon="13.989502776686388"><ele>193.0</ele><time>2026-04-12T10:38:14Z</time></trkpt><trkpt lat="41.38289361864548" lon="13.989632052615374"><ele>193.0</ele><time>2026-04-12T10:38:15Z</time></trkpt><trkpt lat="41.38288840964935" lon="13.989760127784237"><ele>192.99999999999997</ele><time>2026-04-12T10:38:16Z</time></trkpt><trkpt lat="41.38290115297794" lon="13.989853475209799"><ele>193.0</ele><time>2026-04-12T10:38:17Z</time></trkpt><trkpt lat="41.38294575167593" lon="13.989950258480912"><ele>194.33333333333331</ele><time>2026-04-12T10:38:18Z</time></trkpt><trkpt lat="41.38299845923862" lon="13.990019702866288"><ele>195.66666666666666</ele><time>2026-04-12T10:38:19Z</time></trkpt><trkpt lat="41.38306265093992" lon="13.990122668047205"><ele>197.0</ele><time>2026-04-12T10:38:20Z</time></trkpt><trkpt lat="41.38312478558579" lon="13.990179589182839"><ele>198.33333333333331</ele><time>2026-04-12T10:38:21Z</time></trkpt><trkpt lat="41.38318568749344" lon="13.99023162268624"><ele>199.66666666666666</ele><time>2026-04-12T10:38:22Z</time></trkpt><trkpt lat="41.3832668048209" lon="13.990313602541159"><ele>201.0</ele><time>2026-04-12T10:38:23Z</time></trkpt><trkpt lat="41.38335460833718" lon="13.990395165406545"><ele>201.0</ele><time>2026-04-12T10:38:24Z</time></trkpt><trkpt lat="41.38342811723167" lon="13.990499080206103"><ele>201.0</ele><time>2026-04-12T10:38:25Z</time></trkpt><trkpt lat="41.383488441128335" lon="13.99061141956483"><ele>201.0</ele><time>2026-04-12T10:38:26Z</time></trkpt><trkpt lat="41.38352594425776" lon="13.990682780293254"><ele>201.0</ele><time>2026-04-12T10:38:27Z</time></trkpt><trkpt lat="41.38356227824668" lon="13.990903857440951"><ele>201.0</ele><time>2026-04-12T10:38:28Z</time></trkpt><trkpt lat="41.383599081146215" lon="13.991037730028182"><ele>202.4</ele><time>2026-04-12T10:38:29Z</time></trkpt><trkpt lat="41.38362703458296" lon="13.991203444880691"><ele>203.8</ele><time>2026-04-12T10:38:30Z</time></trkpt><trkpt lat="41.383662948892564" lon="13.9913546449135"><ele>205.20000000000002</ele><time>2026-04-12T10:38:31Z</time></trkpt><trkpt lat="41.38367437853583" lon="13.99144751749377"><ele>206.60000000000002</ele><time>2026-04-12T10:38:32Z</time></trkpt><trkpt lat="41.38371576402224" lon="13.991588731020524"><ele>208.0</ele><time>2026-04-12T10:38:33Z</time></trkpt><trkpt lat="41.38372050816985" lon="13.991779471806877"><ele>208.0</ele><time>2026-04-12T10:38:35Z</time></trkpt><trkpt lat="41.38371677993649" lon="13.991865330298246"><ele>208.0</ele><time>2026-04-12T10:38:36Z</time></trkpt><trkpt lat="41.38370766312804" lon="13.99200284766862"><ele>208.0</ele><time>2026-04-12T10:38:37Z</time></trkpt><trkpt lat="41.38364741844129" lon="13.992087827421246"><ele>208.0</ele><time>2026-04-12T10:38:39Z</time></trkpt><trkpt lat="41.38359568953247" lon="13.99228458157818"><ele>208.0</ele><time>2026-04-12T10:38:40Z</time></trkpt><trkpt lat="41.38353458656361" lon="13.992381373190785"><ele>208.0</ele><time>2026-04-12T10:38:41Z</time></trkpt><trkpt lat="41.38346708831563" lon="13.992483425819728"><ele>208.0</ele><time>2026-04-12T10:38:42Z</time></trkpt><trkpt lat="41.383425687367556" lon="13.992576534885249"><ele>208.0</ele><time>2026-04-12T10:38:43Z</time></trkpt><trkpt lat="41.38340445328643" lon="13.992662266867763"><ele>208.0</ele><time>2026-04-12T10:38:45Z</time></trkpt><trkpt lat="41.38349208564103" lon="13.992743174814844"><ele>208.0</ele><time>2026-04-12T10:38:48Z</time></trkpt><trkpt lat="41.38358390543021" lon="13.992801084081103"><ele>208.60000000000002</ele><time>2026-04-12T10:38:49Z</time></trkpt><trkpt lat="41.38365969212958" lon="13.99288827759839"><ele>209.20000000000002</ele><time>2026-04-12T10:38:50Z</time></trkpt><trkpt lat="41.383737832882595" lon="13.992992697966757"><ele>209.8</ele><time>2026-04-12T10:38:51Z</time></trkpt><trkpt lat="41.383797654542" lon="13.993086134177227"><ele>210.4</ele><time>2026-04-12T10:38:52Z</time></trkpt><trkpt lat="41.38385148740422" lon="13.993194143941261"><ele>211.0</ele><time>2026-04-12T10:38:53Z</time></trkpt><trkpt lat="41.38389466289108" lon="13.993331198396195"><ele>207.20000000000002</ele><time>2026-04-12T10:38:54Z</time></trkpt><trkpt lat="41.38392929484242" lon="13.993484287062548"><ele>203.4</ele><time>2026-04-12T10:38:55Z</time></trkpt><trkpt lat="41.38395794748401" lon="13.993596516787074"><ele>199.6</ele><time>2026-04-12T10:38:56Z</time></trkpt><trkpt lat="41.38398710993085" lon="13.993713566189573"><ele>195.8</ele><time>2026-04-12T10:38:57Z</time></trkpt><trkpt lat="41.38399800062101" lon="13.993841397634704"><ele>192.0</ele><time>2026-04-12T10:38:58Z</time></trkpt><trkpt lat="41.38398842522828" lon="13.993957816692841"><ele>192.0</ele><time>2026-04-12T10:38:59Z</time></trkpt><trkpt lat="41.38395874808941" lon="13.994052043514802"><ele>192.0</ele><time>2026-04-12T10:39:00Z</time></trkpt><trkpt lat="41.383908666761805" lon="13.994157883783446"><ele>192.0</ele><time>2026-04-12T10:39:01Z</time></trkpt><trkpt lat="41.38385451204987" lon="13.994263975816615"><ele>192.0</ele><time>2026-04-12T10:39:02Z</time></trkpt><trkpt lat="41.38380583873516" lon="13.994357679660931"><ele>192.0</ele><time>2026-04-12T10:39:03Z</time></trkpt><trkpt lat="41.38375832283972" lon="13.994434668698872"><ele>192.0</ele><time>2026-04-12T10:39:04Z</time></trkpt><trkpt lat="41.38369041314803" lon="13.994549162097606"><ele>197.0</ele><time>2026-04-12T10:39:06Z</time></trkpt><trkpt lat="41.38356900641203" lon="13.99467454429476"><ele>202.0</ele><time>2026-04-12T10:39:08Z</time></trkpt><trkpt lat="41.38347749557905" lon="13.994708907138895"><ele>207.0</ele><time>2026-04-12T10:39:09Z</time></trkpt><trkpt lat="41.38339871282203" lon="13.994771525865518"><ele>212.0</ele><time>2026-04-12T10:39:10Z</time></trkpt><trkpt lat="41.38328202989969" lon="13.994836417120007"><ele>212.0</ele><time>2026-04-12T10:39:12Z</time></trkpt><trkpt lat="41.38319688658872" lon="13.99483690603649"><ele>212.0</ele><time>2026-04-12T10:39:13Z</time></trkpt><trkpt lat="41.382962796921575" lon="13.99486486264046"><ele>212.0</ele><time>2026-04-12T10:39:14Z</time></trkpt><trkpt lat="41.38280088551988" lon="13.994844780290158"><ele>214.33333333333334</ele><time>2026-04-12T10:39:15Z</time></trkpt><trkpt lat="41.38264510809788" lon="13.994813559409803"><ele>216.66666666666669</ele><time>2026-04-12T10:39:16Z</time></trkpt><trkpt lat="41.38248688597206" lon="13.994808666265646"><ele>219.0</ele><time>2026-04-12T10:39:17Z</time></trkpt><trkpt lat="41.3823356403627" lon="13.994794624032941"><ele>219.0</ele><time>2026-04-12T10:39:18Z</time></trkpt><trkpt lat="41.38222871461972" lon="13.994787563872144"><ele>219.0</ele><time>2026-04-12T10:39:19Z</time></trkpt><trkpt lat="41.38209645015745" lon="13.994774496111374"><ele>219.0</ele><time>2026-04-12T10:39:20Z</time></trkpt><trkpt lat="41.38198955365755" lon="13.994735527344861"><ele>219.0</ele><time>2026-04-12T10:39:21Z</time></trkpt><trkpt lat="41.38188748898995" lon="13.994662785373052"><ele>219.75</ele><time>2026-04-12T10:39:22Z</time></trkpt><trkpt lat="41.38177186360005" lon="13.99457999337361"><ele>220.5</ele><time>2026-04-12T10:39:23Z</time></trkpt><trkpt lat="41.38166299269486" lon="13.994504798380753"><ele>221.25</ele><time>2026-04-12T10:39:24Z</time></trkpt><trkpt lat="41.38152842291373" lon="13.99443406174472"><ele>222.0</ele><time>2026-04-12T10:39:25Z</time></trkpt><trkpt lat="41.38140114872205" lon="13.994378949615868"><ele>223.2</ele><time>2026-04-12T10:39:26Z</time></trkpt><trkpt lat="41.381293804392975" lon="13.994345005751422"><ele>224.39999999999998</ele><time>2026-04-12T10:39:27Z</time></trkpt><trkpt lat="41.381200131022425" lon="13.994327200807962"><ele>225.60000000000002</ele><time>2026-04-12T10:39:28Z</time></trkpt><trkpt lat="41.381117152074424" lon="13.99433495988786"><ele>226.8</ele><time>2026-04-12T10:39:29Z</time></trkpt><trkpt lat="41.381011600279614" lon="13.994411976154552"><ele>228.0</ele><time>2026-04-12T10:39:30Z</time></trkpt><trkpt lat="41.380909739411685" lon="13.994485927690938"><ele>228.0</ele><time>2026-04-12T10:39:31Z</time></trkpt><trkpt lat="41.380797313270676" lon="13.994561633071196"><ele>228.0</ele><time>2026-04-12T10:39:32Z</time></trkpt><trkpt lat="41.3806800440186" lon="13.99463292873431"><ele>228.0</ele><time>2026-04-12T10:39:33Z</time></trkpt><trkpt lat="41.380572900122026" lon="13.994708279798962"><ele>228.0</ele><time>2026-04-12T10:39:34Z</time></trkpt><trkpt lat="41.38044572568812" lon="13.994746331488763"><ele>228.75</ele><time>2026-04-12T10:39:35Z</time></trkpt><trkpt lat="41.38031224179339" lon="13.994758484761014"><ele>229.5</ele><time>2026-04-12T10:39:36Z</time></trkpt><trkpt lat="41.38017402359636" lon="13.994780435642232"><ele>230.25</ele><time>2026-04-12T10:39:37Z</time></trkpt><trkpt lat="41.380044131014834" lon="13.994803456382343"><ele>231.0</ele><time>2026-04-12T10:39:38Z</time></trkpt><trkpt lat="41.37991990906666" lon="13.994830298262885"><ele>231.0</ele><time>2026-04-12T10:39:39Z</time></trkpt><trkpt lat="41.37979219732048" lon="13.994844576235957"><ele>231.0</ele><time>2026-04-12T10:39:40Z</time></trkpt><trkpt lat="41.37965455247224" lon="13.994859310814089"><ele>231.0</ele><time>2026-04-12T10:39:41Z</time></trkpt><trkpt lat="41.3795281928326" lon="13.994871609994695"><ele>231.0</ele><time>2026-04-12T10:39:42Z</time></trkpt><trkpt lat="41.37943006420282" lon="13.994885596445668"><ele>231.8</ele><time>2026-04-12T10:39:43Z</time></trkpt><trkpt lat="41.37936629527329" lon="13.994891948895079"><ele>232.60000000000002</ele><time>2026-04-12T10:39:44Z</time></trkpt><trkpt lat="41.37929446909111" lon="13.994916640704451"><ele>233.4</ele><time>2026-04-12T10:39:46Z</time></trkpt><trkpt lat="41.3793141209881" lon="13.99514210629181"><ele>234.2</ele><time>2026-04-12T10:39:49Z</time></trkpt><trkpt lat="41.37936521154415" lon="13.995241549212398"><ele>235.0</ele><time>2026-04-12T10:39:50Z</time></trkpt><trkpt lat="41.37942858174136" lon="13.995355366021142"><ele>235.0</ele><time>2026-04-12T10:39:51Z</time></trkpt><trkpt lat="41.37948406487276" lon="13.995486669301497"><ele>235.0</ele><time>2026-04-12T10:39:52Z</time></trkpt><trkpt lat="41.37953207142443" lon="13.995622443059792"><ele>235.0</ele><time>2026-04-12T10:39:53Z</time></trkpt><trkpt lat="41.37957465887773" lon="13.99575087342545"><ele>235.0</ele><time>2026-04-12T10:39:54Z</time></trkpt><trkpt lat="41.37961803543843" lon="13.995872076830315"><ele>235.0</ele><time>2026-04-12T10:39:55Z</time></trkpt><trkpt lat="41.37966052216567" lon="13.995977052353368"><ele>232.75</ele><time>2026-04-12T10:39:56Z</time></trkpt><trkpt lat="41.37973149505899" lon="13.996077593722687"><ele>230.5</ele><time>2026-04-12T10:39:57Z</time></trkpt><trkpt lat="41.37982004738724" lon="13.996177154130569"><ele>228.25</ele><time>2026-04-12T10:39:58Z</time></trkpt><trkpt lat="41.37991441464152" lon="13.996268128866431"><ele>226.0</ele><time>2026-04-12T10:39:59Z</time></trkpt><trkpt lat="41.38000927464814" lon="13.996358901245422"><ele>226.0</ele><time>2026-04-12T10:40:00Z</time></trkpt><trkpt lat="41.38010157654975" lon="13.996454632244522"><ele>226.0</ele><time>2026-04-12T10:40:01Z</time></trkpt><trkpt lat="41.38019412384377" lon="13.996571453145839"><ele>226.0</ele><time>2026-04-12T10:40:02.001Z</time></trkpt><trkpt lat="41.380286229013876" lon="13.99671148304057"><ele>226.0</ele><time>2026-04-12T10:40:03.001Z</time></trkpt><trkpt lat="41.380364689142695" lon="13.996830083285191"><ele>225.5</ele><time>2026-04-12T10:40:04.001Z</time></trkpt><trkpt lat="41.38044594174693" lon="13.99693959688508"><ele>225.0</ele><time>2026-04-12T10:40:05.001Z</time></trkpt><trkpt lat="41.380539529539284" lon="13.997050913770902"><ele>224.5</ele><time>2026-04-12T10:40:06.001Z</time></trkpt><trkpt lat="41.38064332872904" lon="13.99716330829458"><ele>224.0</ele><time>2026-04-12T10:40:07.001Z</time></trkpt><trkpt lat="41.38075863493644" lon="13.997278673457698"><ele>223.25</ele><time>2026-04-12T10:40:08.001Z</time></trkpt><trkpt lat="41.38087070487055" lon="13.997385111118442"><ele>222.5</ele><time>2026-04-12T10:40:09.001Z</time></trkpt><trkpt lat="41.38099513542657" lon="13.997495234468412"><ele>221.75</ele><time>2026-04-12T10:40:10.001Z</time></trkpt><trkpt lat="41.381126952247506" lon="13.99759768956274"><ele>221.0</ele><time>2026-04-12T10:40:11.001Z</time></trkpt><trkpt lat="41.381254402444426" lon="13.997688073760509"><ele>219.33333333333334</ele><time>2026-04-12T10:40:12.001Z</time></trkpt><trkpt lat="41.3813877012971" lon="13.99778168420192"><ele>217.66666666666669</ele><time>2026-04-12T10:40:13.001Z</time></trkpt><trkpt lat="41.38151282152109" lon="13.997892125074474"><ele>216.0</ele><time>2026-04-12T10:40:14.001Z</time></trkpt><trkpt lat="41.38164180050162" lon="13.997992284739997"><ele>216.0</ele><time>2026-04-12T10:40:15.001Z</time></trkpt><trkpt lat="41.38177700209302" lon="13.998090511924037"><ele>216.0</ele><time>2026-04-12T10:40:16.001Z</time></trkpt><trkpt lat="41.38191613517871" lon="13.998188162544716"><ele>216.0</ele><time>2026-04-12T10:40:17.001Z</time></trkpt><trkpt lat="41.38204944199572" lon="13.9982870382245"><ele>215.25</ele><time>2026-04-12T10:40:18.001Z</time></trkpt><trkpt lat="41.38217445465281" lon="13.998379988076275"><ele>214.5</ele><time>2026-04-12T10:40:19.001Z</time></trkpt><trkpt lat="41.38228859458402" lon="13.998465328874305"><ele>213.75</ele><time>2026-04-12T10:40:20.001Z</time></trkpt><trkpt lat="41.38239279222098" lon="13.998544458871109"><ele>213.0</ele><time>2026-04-12T10:40:21.001Z</time></trkpt><trkpt lat="41.38250538889154" lon="13.998637965126251"><ele>213.0</ele><time>2026-04-12T10:40:22.001Z</time></trkpt><trkpt lat="41.38260666341149" lon="13.998745468192269"><ele>213.0</ele><time>2026-04-12T10:40:23.001Z</time></trkpt><trkpt lat="41.38267930128985" lon="13.998845233283278"><ele>213.0</ele><time>2026-04-12T10:40:24.001Z</time></trkpt><trkpt lat="41.3827214856359" lon="13.9989299203106"><ele>213.0</ele><time>2026-04-12T10:40:25.001Z</time></trkpt><trkpt lat="41.38269498972013" lon="13.999090972032228"><ele>213.0</ele><time>2026-04-12T10:40:27.001Z</time></trkpt><trkpt lat="41.382638739593666" lon="13.999185150345918"><ele>212.60000000000002</ele><time>2026-04-12T10:40:28.001Z</time></trkpt><trkpt lat="41.382581966534794" lon="13.999317381418825"><ele>212.20000000000002</ele><time>2026-04-12T10:40:29.001Z</time></trkpt><trkpt lat="41.382519672653146" lon="13.999428241649767"><ele>211.8</ele><time>2026-04-12T10:40:30Z</time></trkpt><trkpt lat="41.38247292351837" lon="13.999519873239032"><ele>211.4</ele><time>2026-04-12T10:40:31Z</time></trkpt><trkpt lat="41.38243409122855" lon="13.999608834253445"><ele>211.0</ele><time>2026-04-12T10:40:32Z</time></trkpt><trkpt lat="41.38244260296141" lon="13.999760634334107"><ele>211.0</ele><time>2026-04-12T10:40:34Z</time></trkpt><trkpt lat="41.382502012759566" lon="13.999866209940368"><ele>211.0</ele><time>2026-04-12T10:40:35Z</time></trkpt><trkpt lat="41.382586129487805" lon="13.999958054833394"><ele>211.0</ele><time>2026-04-12T10:40:36Z</time></trkpt><trkpt lat="41.382664897966926" lon="14.000070720233666"><ele>211.0</ele><time>2026-04-12T10:40:37Z</time></trkpt><trkpt lat="41.38274609176676" lon="14.000158568250413"><ele>211.0</ele><time>2026-04-12T10:40:38Z</time></trkpt><trkpt lat="41.382815132690254" lon="14.00023160587731"><ele>211.0</ele><time>2026-04-12T10:40:39Z</time></trkpt><trkpt lat="41.382876450601515" lon="14.0002964733805"><ele>211.0</ele><time>2026-04-12T10:40:40Z</time></trkpt><trkpt lat="41.382925842152915" lon="14.000352546967655"><ele>211.0</ele><time>2026-04-12T10:40:41Z</time></trkpt><trkpt lat="41.383077486342046" lon="14.000190791232594"><ele>211.0</ele><time>2026-04-12T10:40:46Z</time></trkpt><trkpt lat="41.38312575421728" lon="14.000087533057966"><ele>211.0</ele><time>2026-04-12T10:40:47Z</time></trkpt><trkpt lat="41.383204080888724" lon="13.999996726974716"><ele>210.5</ele><time>2026-04-12T10:40:48Z</time></trkpt><trkpt lat="41.38329272201175" lon="13.999913609827649"><ele>210.0</ele><time>2026-04-12T10:40:49Z</time></trkpt><trkpt lat="41.38340221635553" lon="13.999790719665134"><ele>209.5</ele><time>2026-04-12T10:40:50Z</time></trkpt><trkpt lat="41.383504389275835" lon="13.99967068967217"><ele>209.0</ele><time>2026-04-12T10:40:51Z</time></trkpt><trkpt lat="41.38360782612578" lon="13.999539325899956"><ele>209.0</ele><time>2026-04-12T10:40:52Z</time></trkpt><trkpt lat="41.38370988348061" lon="13.999403967931087"><ele>209.0</ele><time>2026-04-12T10:40:53Z</time></trkpt><trkpt lat="41.383811977077436" lon="13.999274837857813"><ele>209.0</ele><time>2026-04-12T10:40:54Z</time></trkpt><trkpt lat="41.38392049116967" lon="13.999154926264657"><ele>209.0</ele><time>2026-04-12T10:40:55Z</time></trkpt><trkpt lat="41.38402641167689" lon="13.999031402927065"><ele>208.25</ele><time>2026-04-12T10:40:56Z</time></trkpt><trkpt lat="41.3841298154804" lon="13.998879957188276"><ele>207.5</ele><time>2026-04-12T10:40:57Z</time></trkpt><trkpt lat="41.38422698303543" lon="13.998740739645626"><ele>206.75</ele><time>2026-04-12T10:40:58Z</time></trkpt><trkpt lat="41.384327736344915" lon="13.998599147303555"><ele>206.0</ele><time>2026-04-12T10:40:59Z</time></trkpt><trkpt lat="41.3844337305129" lon="13.998453287132174"><ele>206.25</ele><time>2026-04-12T10:41:00Z</time></trkpt><trkpt lat="41.38454212917149" lon="13.998301097600427"><ele>206.5</ele><time>2026-04-12T10:41:01Z</time></trkpt><trkpt lat="41.38464913754081" lon="13.998151341486452"><ele>206.75</ele><time>2026-04-12T10:41:02Z</time></trkpt><trkpt lat="41.384738425163626" lon="13.998016924124997"><ele>207.0</ele><time>2026-04-12T10:41:03Z</time></trkpt><trkpt lat="41.384824949130184" lon="13.997890055599253"><ele>206.6</ele><time>2026-04-12T10:41:04Z</time></trkpt><trkpt lat="41.38491275908231" lon="13.997789766962821"><ele>206.2</ele><time>2026-04-12T10:41:05Z</time></trkpt><trkpt lat="41.384981435311836" lon="13.997716180000612"><ele>205.8</ele><time>2026-04-12T10:41:06Z</time></trkpt><trkpt lat="41.385044570632864" lon="13.997666295090312"><ele>205.4</ele><time>2026-04-12T10:41:08Z</time></trkpt><trkpt lat="41.385155291301444" lon="13.997736713243675"><ele>205.0</ele><time>2026-04-12T10:41:11Z</time></trkpt><trkpt lat="41.38519984385995" lon="13.99782769574328"><ele>205.0</ele><time>2026-04-12T10:41:12Z</time></trkpt><trkpt lat="41.38526041419127" lon="13.99790787236627"><ele>205.0</ele><time>2026-04-12T10:41:13Z</time></trkpt><trkpt lat="41.385332169493694" lon="13.998000530671916"><ele>205.0</ele><time>2026-04-12T10:41:14Z</time></trkpt><trkpt lat="41.38541404813048" lon="13.99809759182794"><ele>205.0</ele><time>2026-04-12T10:41:15Z</time></trkpt><trkpt lat="41.3854957421794" lon="13.998201447131919"><ele>205.0</ele><time>2026-04-12T10:41:16Z</time></trkpt><trkpt lat="41.38558095811746" lon="13.99829500556767"><ele>204.83333333333331</ele><time>2026-04-12T10:41:17Z</time></trkpt><trkpt lat="41.38566864110752" lon="13.99836520049755"><ele>204.66666666666666</ele><time>2026-04-12T10:41:18Z</time></trkpt><trkpt lat="41.38574229415352" lon="13.998434764976514"><ele>204.5</ele><time>2026-04-12T10:41:19Z</time></trkpt><trkpt lat="41.385804006813444" lon="13.998525684774009"><ele>204.33333333333331</ele><time>2026-04-12T10:41:20Z</time></trkpt><trkpt lat="41.38584361688452" lon="13.998629682516732"><ele>204.16666666666666</ele><time>2026-04-12T10:41:21Z</time></trkpt><trkpt lat="41.38586373709259" lon="13.998714137613579"><ele>204.0</ele><time>2026-04-12T10:41:23Z</time></trkpt><trkpt lat="41.38596127138317" lon="13.99882038195524"><ele>204.0</ele><time>2026-04-12T10:41:25Z</time></trkpt><trkpt lat="41.38604667166373" lon="13.998859788600226"><ele>204.0</ele><time>2026-04-12T10:41:26Z</time></trkpt><trkpt lat="41.386117720047245" lon="13.998878415582313"><ele>204.0</ele><time>2026-04-12T10:41:27Z</time></trkpt><trkpt lat="41.38623061986664" lon="13.998787510863258"><ele>204.0</ele><time>2026-04-12T10:41:29Z</time></trkpt><trkpt lat="41.38628952025816" lon="13.998683522380231"><ele>204.0</ele><time>2026-04-12T10:41:30Z</time></trkpt><trkpt lat="41.38635910651414" lon="13.998582499290908"><ele>204.0</ele><time>2026-04-12T10:41:31Z</time></trkpt><trkpt lat="41.386453636483736" lon="13.998517331308436"><ele>204.0</ele><time>2026-04-12T10:41:32Z</time></trkpt><trkpt lat="41.3865808204415" lon="13.998469549968638"><ele>204.0</ele><time>2026-04-12T10:41:33Z</time></trkpt><trkpt lat="41.386707892011586" lon="13.998438443323456"><ele>204.0</ele><time>2026-04-12T10:41:34Z</time></trkpt><trkpt lat="41.38682228226181" lon="13.998373949936727"><ele>204.0</ele><time>2026-04-12T10:41:35Z</time></trkpt><trkpt lat="41.38693617294054" lon="13.99828179681927"><ele>204.0</ele><time>2026-04-12T10:41:36Z</time></trkpt><trkpt lat="41.38705060854508" lon="13.998179973854892"><ele>204.0</ele><time>2026-04-12T10:41:37Z</time></trkpt><trkpt lat="41.387161592372216" lon="13.998089208890054"><ele>204.0</ele><time>2026-04-12T10:41:38Z</time></trkpt><trkpt lat="41.38726450064323" lon="13.997990893420754"><ele>203.79999999999998</ele><time>2026-04-12T10:41:39Z</time></trkpt><trkpt lat="41.38736116547432" lon="13.997905026333996"><ele>203.6</ele><time>2026-04-12T10:41:40Z</time></trkpt><trkpt lat="41.38744239840936" lon="13.99782491275349"><ele>203.4</ele><time>2026-04-12T10:41:41Z</time></trkpt><trkpt lat="41.38750955690355" lon="13.997729870680649"><ele>203.2</ele><time>2026-04-12T10:41:42Z</time></trkpt><trkpt lat="41.387554286640345" lon="13.99758758952896"><ele>203.0</ele><time>2026-04-12T10:41:43Z</time></trkpt><trkpt lat="41.38759388155551" lon="13.99740913212392"><ele>202.75</ele><time>2026-04-12T10:41:44Z</time></trkpt><trkpt lat="41.387632862823345" lon="13.997246504648897"><ele>202.5</ele><time>2026-04-12T10:41:45Z</time></trkpt><trkpt lat="41.38769247158823" lon="13.99710500287232"><ele>202.25</ele><time>2026-04-12T10:41:46Z</time></trkpt><trkpt lat="41.38777922306653" lon="13.996988136099949"><ele>202.0</ele><time>2026-04-12T10:41:47Z</time></trkpt><trkpt lat="41.38788997983199" lon="13.996903532965497"><ele>201.5</ele><time>2026-04-12T10:41:48Z</time></trkpt><trkpt lat="41.38801644002984" lon="13.996841120875091"><ele>201.0</ele><time>2026-04-12T10:41:49Z</time></trkpt><trkpt lat="41.388144888311274" lon="13.99677759671105"><ele>200.5</ele><time>2026-04-12T10:41:50Z</time></trkpt><trkpt lat="41.38827476092267" lon="13.996730360137756"><ele>200.0</ele><time>2026-04-12T10:41:51Z</time></trkpt><trkpt lat="41.38840102749581" lon="13.996685539414765"><ele>200.0</ele><time>2026-04-12T10:41:52Z</time></trkpt><trkpt lat="41.38852801684797" lon="13.996636635365713"><ele>200.0</ele><time>2026-04-12T10:41:53Z</time></trkpt><trkpt lat="41.38864322521947" lon="13.996567882234771"><ele>200.0</ele><time>2026-04-12T10:41:54Z</time></trkpt><trkpt lat="41.388750812235116" lon="13.996472643641509"><ele>200.0</ele><time>2026-04-12T10:41:55Z</time></trkpt><trkpt lat="41.38884855119468" lon="13.996348406701962"><ele>200.0</ele><time>2026-04-12T10:41:56Z</time></trkpt><trkpt lat="41.38894736792378" lon="13.99622944402111"><ele>200.0</ele><time>2026-04-12T10:41:57Z</time></trkpt><trkpt lat="41.38902479290913" lon="13.996127336615443"><ele>200.0</ele><time>2026-04-12T10:41:58Z</time></trkpt><trkpt lat="41.38908487236271" lon="13.995999154999467"><ele>200.0</ele><time>2026-04-12T10:41:59Z</time></trkpt><trkpt lat="41.38913459451977" lon="13.995836921491152"><ele>199.75</ele><time>2026-04-12T10:42:00Z</time></trkpt><trkpt lat="41.38917146952543" lon="13.995659410891848"><ele>199.5</ele><time>2026-04-12T10:42:01Z</time></trkpt><trkpt lat="41.38920753941708" lon="13.99544757697523"><ele>199.25</ele><time>2026-04-12T10:42:02Z</time></trkpt><trkpt lat="41.38924734309789" lon="13.995272992975597"><ele>199.0</ele><time>2026-04-12T10:42:03Z</time></trkpt><trkpt lat="41.38930809581433" lon="13.995134317428109"><ele>199.0</ele><time>2026-04-12T10:42:04Z</time></trkpt><trkpt lat="41.38937339750384" lon="13.9950256857659"><ele>199.0</ele><time>2026-04-12T10:42:05Z</time></trkpt><trkpt lat="41.38945602688139" lon="13.994919378703747"><ele>199.0</ele><time>2026-04-12T10:42:06Z</time></trkpt><trkpt lat="41.38954278997913" lon="13.994821326022667"><ele>199.0</ele><time>2026-04-12T10:42:07Z</time></trkpt><trkpt lat="41.38963384365472" lon="13.994724170133418"><ele>200.5</ele><time>2026-04-12T10:42:08Z</time></trkpt><trkpt lat="41.38971427831694" lon="13.994600776623672"><ele>202.0</ele><time>2026-04-12T10:42:09Z</time></trkpt><trkpt lat="41.389773847794736" lon="13.994449068252838"><ele>203.5</ele><time>2026-04-12T10:42:10Z</time></trkpt><trkpt lat="41.3898148303214" lon="13.994292958031707"><ele>205.0</ele><time>2026-04-12T10:42:11Z</time></trkpt><trkpt lat="41.389861654899654" lon="13.994130576317696"><ele>205.0</ele><time>2026-04-12T10:42:12Z</time></trkpt><trkpt lat="41.38991426893285" lon="13.993994829287075"><ele>205.0</ele><time>2026-04-12T10:42:13Z</time></trkpt><trkpt lat="41.38997891841673" lon="13.993875370534466"><ele>205.0</ele><time>2026-04-12T10:42:14Z</time></trkpt><trkpt lat="41.39003513344196" lon="13.993770616250472"><ele>205.0</ele><time>2026-04-12T10:42:15Z</time></trkpt><trkpt lat="41.39007991287141" lon="13.993653143269228"><ele>205.0</ele><time>2026-04-12T10:42:16Z</time></trkpt><trkpt lat="41.39011056210903" lon="13.993501803159836"><ele>203.0</ele><time>2026-04-12T10:42:17Z</time></trkpt><trkpt lat="41.39013612890417" lon="13.993323419480788"><ele>201.0</ele><time>2026-04-12T10:42:18Z</time></trkpt><trkpt lat="41.39016117488477" lon="13.993144353178247"><ele>199.0</ele><time>2026-04-12T10:42:19Z</time></trkpt><trkpt lat="41.39018098409233" lon="13.992983937950385"><ele>197.0</ele><time>2026-04-12T10:42:20Z</time></trkpt><trkpt lat="41.3902056694829" lon="13.992811930595476"><ele>197.0</ele><time>2026-04-12T10:42:21Z</time></trkpt><trkpt lat="41.390230198332965" lon="13.992636113414244"><ele>197.0</ele><time>2026-04-12T10:42:22Z</time></trkpt><trkpt lat="41.39025577457196" lon="13.992471657359873"><ele>197.0</ele><time>2026-04-12T10:42:23Z</time></trkpt><trkpt lat="41.39027392142544" lon="13.992294492247767"><ele>197.0</ele><time>2026-04-12T10:42:24Z</time></trkpt><trkpt lat="41.39029265310455" lon="13.99212956889347"><ele>194.5</ele><time>2026-04-12T10:42:25Z</time></trkpt><trkpt lat="41.390311120772104" lon="13.991974950935765"><ele>192.0</ele><time>2026-04-12T10:42:26Z</time></trkpt><trkpt lat="41.39033633262459" lon="13.991835960803627"><ele>189.5</ele><time>2026-04-12T10:42:27Z</time></trkpt><trkpt lat="41.390392927015775" lon="13.991682776240431"><ele>187.0</ele><time>2026-04-12T10:42:28Z</time></trkpt><trkpt lat="41.39047196247254" lon="13.991544108865941"><ele>184.25</ele><time>2026-04-12T10:42:29Z</time></trkpt><trkpt lat="41.390567741564766" lon="13.991406722403424"><ele>181.5</ele><time>2026-04-12T10:42:30Z</time></trkpt><trkpt lat="41.39067190879333" lon="13.991286360727358"><ele>178.75</ele><time>2026-04-12T10:42:31Z</time></trkpt><trkpt lat="41.39077565383615" lon="13.99118544243223"><ele>176.0</ele><time>2026-04-12T10:42:32Z</time></trkpt><trkpt lat="41.39089111532103" lon="13.99108005407427"><ele>176.0</ele><time>2026-04-12T10:42:33Z</time></trkpt><trkpt lat="41.39098961395551" lon="13.990998785319515"><ele>176.0</ele><time>2026-04-12T10:42:34Z</time></trkpt><trkpt lat="41.39106287884417" lon="13.990957597381634"><ele>176.0</ele><time>2026-04-12T10:42:35Z</time></trkpt><trkpt lat="41.39113442678619" lon="13.990903008766525"><ele>176.0</ele><time>2026-04-12T10:42:37Z</time></trkpt><trkpt lat="41.39120185812502" lon="13.990866462497678"><ele>176.0</ele><time>2026-04-12T10:42:39Z</time></trkpt><trkpt lat="41.391121296937584" lon="13.990707659106118"><ele>175.0</ele><time>2026-04-12T10:42:44Z</time></trkpt><trkpt lat="41.39103688844168" lon="13.990634306231785"><ele>174.0</ele><time>2026-04-12T10:42:46Z</time></trkpt><trkpt lat="41.39095916036824" lon="13.990600494771162"><ele>173.0</ele><time>2026-04-12T10:42:47Z</time></trkpt><trkpt lat="41.390868420366424" lon="13.99060678135859"><ele>172.0</ele><time>2026-04-12T10:42:49Z</time></trkpt><trkpt lat="41.39077030994416" lon="13.990593555313179"><ele>171.0</ele><time>2026-04-12T10:42:51Z</time></trkpt><trkpt lat="41.390676355746784" lon="13.990585258445812"><ele>171.0</ele><time>2026-04-12T10:42:52Z</time></trkpt><trkpt lat="41.39061830862187" lon="13.990678096435005"><ele>171.0</ele><time>2026-04-12T10:42:54Z</time></trkpt><trkpt lat="41.39050943894723" lon="13.99057373705278"><ele>171.0</ele><time>2026-04-12T10:42:55Z</time></trkpt><trkpt lat="41.39044099849916" lon="13.990574453038189"><ele>171.0</ele><time>2026-04-12T10:42:56Z</time></trkpt><trkpt lat="41.39034946380476" lon="13.990615144526378"><ele>171.0</ele><time>2026-04-12T10:42:58Z</time></trkpt><trkpt lat="41.39026851933694" lon="13.99070549884731"><ele>170.83333333333334</ele><time>2026-04-12T10:43:00Z</time></trkpt><trkpt lat="41.39021508319685" lon="13.99076267346424"><ele>170.66666666666666</ele><time>2026-04-12T10:43:02Z</time></trkpt><trkpt lat="41.390132976392714" lon="13.99077918086157"><ele>170.5</ele><time>2026-04-12T10:43:06Z</time></trkpt><trkpt lat="41.39003402947346" lon="13.990814718751771"><ele>170.33333333333331</ele><time>2026-04-12T10:43:08Z</time></trkpt><trkpt lat="41.38997558981035" lon="13.990858991966325"><ele>170.16666666666666</ele><time>2026-04-12T10:43:09Z</time></trkpt><trkpt lat="41.389912135214686" lon="13.990896776997321"><ele>170.0</ele><time>2026-04-12T10:43:12Z</time></trkpt><trkpt lat="41.38981784155006" lon="13.990969208446053"><ele>171.6</ele><time>2026-04-12T10:43:14Z</time></trkpt><trkpt lat="41.389751493203995" lon="13.991072640630387"><ele>173.2</ele><time>2026-04-12T10:43:16Z</time></trkpt><trkpt lat="41.389693721595364" lon="13.991123888065822"><ele>174.8</ele><time>2026-04-12T10:43:18Z</time></trkpt><trkpt lat="41.38967885234398" lon="13.99121357422745"><ele>176.4</ele><time>2026-04-12T10:43:23Z</time></trkpt><trkpt lat="41.389570071127494" lon="13.991236575090522"><ele>178.0</ele><time>2026-04-12T10:43:26Z</time></trkpt><trkpt lat="41.389452793049855" lon="13.991258702257262"><ele>178.0</ele><time>2026-04-12T10:43:29Z</time></trkpt><trkpt lat="41.3894332811188" lon="13.991383814076567"><ele>178.0</ele><time>2026-04-12T10:43:32Z</time></trkpt><trkpt lat="41.389381440477116" lon="13.991467723858632"><ele>178.0</ele><time>2026-04-12T10:43:37Z</time></trkpt><trkpt lat="41.389281092939775" lon="13.991506531335347"><ele>178.0</ele><time>2026-04-12T10:43:41Z</time></trkpt><trkpt lat="41.38917733936341" lon="13.991508720770403"><ele>178.0</ele><time>2026-04-12T10:43:44Z</time></trkpt><trkpt lat="41.38913215564828" lon="13.991439903263641"><ele>178.0</ele><time>2026-04-12T10:43:47Z</time></trkpt><trkpt lat="41.38900842807963" lon="13.991370307054165"><ele>178.0</ele><time>2026-04-12T10:43:49Z</time></trkpt><trkpt lat="41.388950756936346" lon="13.991268695721331"><ele>178.0</ele><time>2026-04-12T10:43:51Z</time></trkpt><trkpt lat="41.38883189237717" lon="13.991210075845158"><ele>178.0</ele><time>2026-04-12T10:43:53Z</time></trkpt><trkpt lat="41.38875743228976" lon="13.991173392513838"><ele>178.0</ele><time>2026-04-12T10:43:55Z</time></trkpt><trkpt lat="41.388801919953906" lon="13.991094352090418"><ele>178.0</ele><time>2026-04-12T10:43:58Z</time></trkpt><trkpt lat="41.388844726506555" lon="13.991010159006676"><ele>178.0</ele><time>2026-04-12T10:44:01Z</time></trkpt><trkpt lat="41.38885437015281" lon="13.99085329605209"><ele>178.0</ele><time>2026-04-12T10:44:03Z</time></trkpt><trkpt lat="41.38888749382437" lon="13.990721245881454"><ele>178.0</ele><time>2026-04-12T10:44:06Z</time></trkpt><trkpt lat="41.38896760460916" lon="13.990657675518005"><ele>178.0</ele><time>2026-04-12T10:44:08Z</time></trkpt><trkpt lat="41.38892955951323" lon="13.990553813156737"><ele>176.0</ele><time>2026-04-12T10:44:11Z</time></trkpt><trkpt lat="41.38890618478279" lon="13.990472413169707"><ele>174.0</ele><time>2026-04-12T10:44:13Z</time></trkpt><trkpt lat="41.38892445037933" lon="13.99038753641749"><ele>172.0</ele><time>2026-04-12T10:44:15Z</time></trkpt><trkpt lat="41.388940124914555" lon="13.990296972163422"><ele>170.0</ele><time>2026-04-12T10:44:18Z</time></trkpt><trkpt lat="41.389038936332135" lon="13.990184369709498"><ele>168.0</ele><time>2026-04-12T10:44:19Z</time></trkpt><trkpt lat="41.38911797644042" lon="13.990083396761067"><ele>166.0</ele><time>2026-04-12T10:44:20Z</time></trkpt><trkpt lat="41.389200277862834" lon="13.990016066729691"><ele>166.33333333333334</ele><time>2026-04-12T10:44:21Z</time></trkpt><trkpt lat="41.389246962385656" lon="13.989926781342417"><ele>166.66666666666669</ele><time>2026-04-12T10:44:22Z</time></trkpt><trkpt lat="41.38927712413243" lon="13.989832073896594"><ele>167.0</ele><time>2026-04-12T10:44:23Z</time></trkpt><trkpt lat="41.389303052643115" lon="13.989744829165668"><ele>167.33333333333334</ele><time>2026-04-12T10:44:24Z</time></trkpt><trkpt lat="41.389288847276404" lon="13.989659660949203"><ele>167.66666666666666</ele><time>2026-04-12T10:44:25Z</time></trkpt><trkpt lat="41.38923489274776" lon="13.989507006983445"><ele>168.0</ele><time>2026-04-12T10:44:27Z</time></trkpt><trkpt lat="41.38919737946436" lon="13.98941876587817"><ele>168.0</ele><time>2026-04-12T10:44:28Z</time></trkpt><trkpt lat="41.389149183455345" lon="13.98930413847971"><ele>168.0</ele><time>2026-04-12T10:44:29Z</time></trkpt><trkpt lat="41.389107013897586" lon="13.989204549022313"><ele>168.0</ele><time>2026-04-12T10:44:30Z</time></trkpt><trkpt lat="41.389048758841845" lon="13.98909421521815"><ele>168.0</ele><time>2026-04-12T10:44:31Z</time></trkpt><trkpt lat="41.38899734727409" lon="13.988978272406529"><ele>168.0</ele><time>2026-04-12T10:44:32Z</time></trkpt><trkpt lat="41.38895715930412" lon="13.988885424309986"><ele>169.83333333333334</ele><time>2026-04-12T10:44:33Z</time></trkpt><trkpt lat="41.38893823134296" lon="13.988790162495178"><ele>171.66666666666666</ele><time>2026-04-12T10:44:34Z</time></trkpt><trkpt lat="41.3889181569913" lon="13.988686274459775"><ele>173.5</ele><time>2026-04-12T10:44:35Z</time></trkpt><trkpt lat="41.38888631077793" lon="13.988591893142173"><ele>175.33333333333331</ele><time>2026-04-12T10:44:36Z</time></trkpt><trkpt lat="41.388866688169244" lon="13.988482913217085"><ele>177.16666666666666</ele><time>2026-04-12T10:44:37Z</time></trkpt><trkpt lat="41.388832100886404" lon="13.988388900601114"><ele>179.0</ele><time>2026-04-12T10:44:38Z</time></trkpt><trkpt lat="41.38880869160218" lon="13.988196372611693"><ele>181.39999999999998</ele><time>2026-04-12T10:44:39Z</time></trkpt><trkpt lat="41.38877754743145" lon="13.98803175078845"><ele>183.8</ele><time>2026-04-12T10:44:40Z</time></trkpt><trkpt lat="41.388741127363424" lon="13.987887579336245"><ele>186.2</ele><time>2026-04-12T10:44:41Z</time></trkpt><trkpt lat="41.38871968501433" lon="13.987743395727719"><ele>188.60000000000002</ele><time>2026-04-12T10:44:42Z</time></trkpt><trkpt lat="41.38870392571831" lon="13.98763370338779"><ele>191.0</ele><time>2026-04-12T10:44:43Z</time></trkpt><trkpt lat="41.38870036059279" lon="13.987505160379333"><ele>191.66666666666666</ele><time>2026-04-12T10:44:45Z</time></trkpt><trkpt lat="41.38882896781419" lon="13.98747450908763"><ele>192.33333333333331</ele><time>2026-04-12T10:44:48Z</time></trkpt><trkpt lat="41.38891890001931" lon="13.987490032241995"><ele>193.0</ele><time>2026-04-12T10:44:49Z</time></trkpt><trkpt lat="41.38915139550242" lon="13.987479870467304"><ele>191.4</ele><time>2026-04-12T10:44:51Z</time></trkpt><trkpt lat="41.38925971113782" lon="13.987489803424445"><ele>189.8</ele><time>2026-04-12T10:44:52Z</time></trkpt><trkpt lat="41.389340193018676" lon="13.987508422117996"><ele>188.2</ele><time>2026-04-12T10:44:53Z</time></trkpt><trkpt lat="41.38941677733108" lon="13.98747297717815"><ele>186.6</ele><time>2026-04-12T10:44:55Z</time></trkpt><trkpt lat="41.38954518072024" lon="13.987405440213527"><ele>185.0</ele><time>2026-04-12T10:44:59Z</time></trkpt><trkpt lat="41.38965010838277" lon="13.987401485288288"><ele>183.25</ele><time>2026-04-12T10:45:00Z</time></trkpt><trkpt lat="41.38976523714469" lon="13.987422978286636"><ele>181.5</ele><time>2026-04-12T10:45:01Z</time></trkpt><trkpt lat="41.38988159841592" lon="13.987432935497617"><ele>179.75</ele><time>2026-04-12T10:45:02Z</time></trkpt><trkpt lat="41.39001287516247" lon="13.98744524919985"><ele>178.0</ele><time>2026-04-12T10:45:03Z</time></trkpt><trkpt lat="41.390147083811" lon="13.987454886608122"><ele>178.0</ele><time>2026-04-12T10:45:04Z</time></trkpt><trkpt lat="41.3902990862479" lon="13.98746312965009"><ele>178.0</ele><time>2026-04-12T10:45:05Z</time></trkpt><trkpt lat="41.390439086857626" lon="13.987470691887175"><ele>178.0</ele><time>2026-04-12T10:45:06Z</time></trkpt><trkpt lat="41.390580482376166" lon="13.987483272823859"><ele>178.0</ele><time>2026-04-12T10:45:07Z</time></trkpt><trkpt lat="41.390726615353906" lon="13.987497032456362"><ele>178.66666666666669</ele><time>2026-04-12T10:45:08Z</time></trkpt><trkpt lat="41.39088619487181" lon="13.987534332966314"><ele>179.33333333333334</ele><time>2026-04-12T10:45:09Z</time></trkpt><trkpt lat="41.39104342741958" lon="13.987544981570707"><ele>180.0</ele><time>2026-04-12T10:45:10Z</time></trkpt><trkpt lat="41.39120239587537" lon="13.987550618001599"><ele>179.25</ele><time>2026-04-12T10:45:11Z</time></trkpt><trkpt lat="41.39134958917847" lon="13.9875463904618"><ele>178.5</ele><time>2026-04-12T10:45:12Z</time></trkpt><trkpt lat="41.39149360290706" lon="13.987523263082334"><ele>177.75</ele><time>2026-04-12T10:45:13Z</time></trkpt><trkpt lat="41.391643053133215" lon="13.98746341488272"><ele>177.0</ele><time>2026-04-12T10:45:14Z</time></trkpt><trkpt lat="41.39177090029051" lon="13.987395047883837"><ele>175.33333333333334</ele><time>2026-04-12T10:45:15Z</time></trkpt><trkpt lat="41.39193376815771" lon="13.98731654569123"><ele>173.66666666666669</ele><time>2026-04-12T10:45:16Z</time></trkpt><trkpt lat="41.39206819651301" lon="13.987211468261657"><ele>172.0</ele><time>2026-04-12T10:45:17Z</time></trkpt><trkpt lat="41.39216562497201" lon="13.987043136759246"><ele>171.33333333333334</ele><time>2026-04-12T10:45:18Z</time></trkpt><trkpt lat="41.392269170287356" lon="13.986911174002724"><ele>170.66666666666666</ele><time>2026-04-12T10:45:19Z</time></trkpt><trkpt lat="41.392377280883494" lon="13.986747506462565"><ele>170.0</ele><time>2026-04-12T10:45:20Z</time></trkpt><trkpt lat="41.39248025806962" lon="13.98660721514613"><ele>169.25</ele><time>2026-04-12T10:45:21Z</time></trkpt><trkpt lat="41.39258113691481" lon="13.98645917067472"><ele>168.5</ele><time>2026-04-12T10:45:22Z</time></trkpt><trkpt lat="41.392675225422956" lon="13.98631229464922"><ele>167.75</ele><time>2026-04-12T10:45:23Z</time></trkpt><trkpt lat="41.3927820443693" lon="13.986169493088704"><ele>167.0</ele><time>2026-04-12T10:45:24Z</time></trkpt><trkpt lat="41.39288405006785" lon="13.986020136063328"><ele>167.0</ele><time>2026-04-12T10:45:25Z</time></trkpt><trkpt lat="41.392974553133534" lon="13.985869532333995"><ele>167.0</ele><time>2026-04-12T10:45:26Z</time></trkpt><trkpt lat="41.393071871633744" lon="13.985720182196538"><ele>167.0</ele><time>2026-04-12T10:45:27Z</time></trkpt><trkpt lat="41.39318521648021" lon="13.9855590205078"><ele>167.0</ele><time>2026-04-12T10:45:28Z</time></trkpt><trkpt lat="41.393293392768165" lon="13.98539620863665"><ele>167.0</ele><time>2026-04-12T10:45:29Z</time></trkpt><trkpt lat="41.39339063701195" lon="13.985243526958318"><ele>167.0</ele><time>2026-04-12T10:45:30Z</time></trkpt><trkpt lat="41.393487320819666" lon="13.985084813918721"><ele>163.66666666666666</ele><time>2026-04-12T10:45:31Z</time></trkpt><trkpt lat="41.39358008344678" lon="13.984930254390475"><ele>160.33333333333334</ele><time>2026-04-12T10:45:32Z</time></trkpt><trkpt lat="41.39367629824889" lon="13.984770589067722"><ele>157.0</ele><time>2026-04-12T10:45:33Z</time></trkpt><trkpt lat="41.393775675336954" lon="13.984617901377037"><ele>156.75</ele><time>2026-04-12T10:45:34Z</time></trkpt><trkpt lat="41.39388080208436" lon="13.984475901152912"><ele>156.5</ele><time>2026-04-12T10:45:35Z</time></trkpt><trkpt lat="41.393989381317105" lon="13.984344669066637"><ele>156.25</ele><time>2026-04-12T10:45:36Z</time></trkpt><trkpt lat="41.394113595137654" lon="13.984225527575296"><ele>156.0</ele><time>2026-04-12T10:45:37Z</time></trkpt><trkpt lat="41.39424528232474" lon="13.984113557775748"><ele>156.0</ele><time>2026-04-12T10:45:38Z</time></trkpt><trkpt lat="41.394370683119405" lon="13.984018966598525"><ele>156.0</ele><time>2026-04-12T10:45:39Z</time></trkpt><trkpt lat="41.394505662942414" lon="13.983944238255878"><ele>156.0</ele><time>2026-04-12T10:45:40Z</time></trkpt><trkpt lat="41.39465032463033" lon="13.983885016355782"><ele>156.0</ele><time>2026-04-12T10:45:41Z</time></trkpt><trkpt lat="41.39479450611259" lon="13.983845640736293"><ele>156.66666666666666</ele><time>2026-04-12T10:45:42Z</time></trkpt><trkpt lat="41.39495339844001" lon="13.98382360767509"><ele>157.33333333333331</ele><time>2026-04-12T10:45:43Z</time></trkpt><trkpt lat="41.395108148303216" lon="13.983825538270453"><ele>158.0</ele><time>2026-04-12T10:45:44Z</time></trkpt><trkpt lat="41.39525793756989" lon="13.983850251386055"><ele>158.0</ele><time>2026-04-12T10:45:45Z</time></trkpt><trkpt lat="41.39540025796308" lon="13.983924665288741"><ele>158.0</ele><time>2026-04-12T10:45:46Z</time></trkpt><trkpt lat="41.39554514775604" lon="13.983977666888238"><ele>158.0</ele><time>2026-04-12T10:45:47Z</time></trkpt><trkpt lat="41.395694651945504" lon="13.984030560105666"><ele>157.66666666666666</ele><time>2026-04-12T10:45:48Z</time></trkpt><trkpt lat="41.3958424990423" lon="13.984082350144035"><ele>157.33333333333334</ele><time>2026-04-12T10:45:49Z</time></trkpt><trkpt lat="41.39598773323533" lon="13.984133398237873"><ele>157.0</ele><time>2026-04-12T10:45:50Z</time></trkpt><trkpt lat="41.39613343572779" lon="13.984183892998713"><ele>157.0</ele><time>2026-04-12T10:45:51Z</time></trkpt><trkpt lat="41.39628563402841" lon="13.984230867877493"><ele>157.0</ele><time>2026-04-12T10:45:52Z</time></trkpt><trkpt lat="41.39643896702406" lon="13.98427126682164"><ele>157.0</ele><time>2026-04-12T10:45:53Z</time></trkpt><trkpt lat="41.39659690214207" lon="13.984297493794712"><ele>157.0</ele><time>2026-04-12T10:45:54Z</time></trkpt><trkpt lat="41.39675645650391" lon="13.984356938588768"><ele>157.0</ele><time>2026-04-12T10:45:55Z</time></trkpt><trkpt lat="41.39689551800166" lon="13.984452037712567"><ele>157.0</ele><time>2026-04-12T10:45:56Z</time></trkpt><trkpt lat="41.397028076815786" lon="13.984525075903539"><ele>157.0</ele><time>2026-04-12T10:45:57Z</time></trkpt><trkpt lat="41.39714760335706" lon="13.984589610845111"><ele>157.0</ele><time>2026-04-12T10:45:58Z</time></trkpt><trkpt lat="41.39724711708173" lon="13.984642434562996"><ele>157.0</ele><time>2026-04-12T10:45:59Z</time></trkpt><trkpt lat="41.39735112838442" lon="13.984672084867798"><ele>157.0</ele><time>2026-04-12T10:46:00Z</time></trkpt><trkpt lat="41.397441741089885" lon="13.984722113142018"><ele>157.0</ele><time>2026-04-12T10:46:01Z</time></trkpt><trkpt lat="41.39752669080074" lon="13.984766237616732"><ele>156.79999999999998</ele><time>2026-04-12T10:46:02Z</time></trkpt><trkpt lat="41.39760766562235" lon="13.984807648575831"><ele>156.6</ele><time>2026-04-12T10:46:03Z</time></trkpt><trkpt lat="41.39768728832101" lon="13.984852432823903"><ele>156.39999999999998</ele><time>2026-04-12T10:46:04Z</time></trkpt><trkpt lat="41.39775864469487" lon="13.984909793555072"><ele>156.2</ele><time>2026-04-12T10:46:05Z</time></trkpt><trkpt lat="41.39781484224149" lon="13.985000490754201"><ele>156.0</ele><time>2026-04-12T10:46:06Z</time></trkpt><trkpt lat="41.397856630141746" lon="13.98515152890404"><ele>155.6</ele><time>2026-04-12T10:46:07Z</time></trkpt><trkpt lat="41.39793300453601" lon="13.98527329874453"><ele>155.2</ele><time>2026-04-12T10:46:08Z</time></trkpt><trkpt lat="41.39800543132534" lon="13.98539035723069"><ele>154.8</ele><time>2026-04-12T10:46:09Z</time></trkpt><trkpt lat="41.39807005408007" lon="13.985499671137633"><ele>154.4</ele><time>2026-04-12T10:46:10Z</time></trkpt><trkpt lat="41.39813736437983" lon="13.985613530792568"><ele>154.0</ele><time>2026-04-12T10:46:11Z</time></trkpt><trkpt lat="41.398190470677534" lon="13.98570645228261"><ele>154.0</ele><time>2026-04-12T10:46:12Z</time></trkpt><trkpt lat="41.39824354882069" lon="13.985807959061187"><ele>154.0</ele><time>2026-04-12T10:46:13Z</time></trkpt><trkpt lat="41.39829151554553" lon="13.985903842828325"><ele>154.0</ele><time>2026-04-12T10:46:14Z</time></trkpt><trkpt lat="41.398342355820894" lon="13.985995952452893"><ele>154.0</ele><time>2026-04-12T10:46:15Z</time></trkpt><trkpt lat="41.39838842715981" lon="13.986072780906671"><ele>154.0</ele><time>2026-04-12T10:46:16Z</time></trkpt><trkpt lat="41.39844924766014" lon="13.98611367496705"><ele>154.0</ele><time>2026-04-12T10:46:17Z</time></trkpt><trkpt lat="41.398511638174" lon="13.986150188791987"><ele>153.5</ele><time>2026-04-12T10:46:19Z</time></trkpt><trkpt lat="41.39839107212598" lon="13.98624298638789"><ele>153.0</ele><time>2026-04-12T10:46:22Z</time></trkpt><trkpt lat="41.39829106739131" lon="13.986322756477168"><ele>152.5</ele><time>2026-04-12T10:46:23Z</time></trkpt><trkpt lat="41.398178959801655" lon="13.986401244500598"><ele>152.0</ele><time>2026-04-12T10:46:24Z</time></trkpt><trkpt lat="41.39808029809237" lon="13.986478923085793"><ele>151.5</ele><time>2026-04-12T10:46:25Z</time></trkpt><trkpt lat="41.39796919037766" lon="13.986558919786093"><ele>151.0</ele><time>2026-04-12T10:46:26Z</time></trkpt><trkpt lat="41.3978743663189" lon="13.986647166129517"><ele>150.5</ele><time>2026-04-12T10:46:27Z</time></trkpt><trkpt lat="41.397770962486256" lon="13.986719315126766"><ele>150.0</ele><time>2026-04-12T10:46:28Z</time></trkpt><trkpt lat="41.39767295114331" lon="13.986787709764357"><ele>149.5</ele><time>2026-04-12T10:46:29Z</time></trkpt><trkpt lat="41.39757682965427" lon="13.98684580717134"><ele>149.0</ele><time>2026-04-12T10:46:30Z</time></trkpt><trkpt lat="41.3974978478887" lon="13.986860172538815"><ele>148.5</ele><time>2026-04-12T10:46:31Z</time></trkpt><trkpt lat="41.39741763617693" lon="13.986892248940638"><ele>148.0</ele><time>2026-04-12T10:46:32Z</time></trkpt><trkpt lat="41.39735286044376" lon="13.986914366736254"><ele>147.5</ele><time>2026-04-12T10:46:33Z</time></trkpt><trkpt lat="41.39729516745912" lon="13.986949753444113"><ele>147.0</ele><time>2026-04-12T10:46:34Z</time></trkpt><trkpt lat="41.39716601401805" lon="13.987048122252261"><ele>147.0</ele><time>2026-04-12T10:46:36Z</time></trkpt><trkpt lat="41.39706310826379" lon="13.987098269685049"><ele>147.0</ele><time>2026-04-12T10:46:37Z</time></trkpt><trkpt lat="41.39696772780629" lon="13.987145128445995"><ele>147.0</ele><time>2026-04-12T10:46:38Z</time></trkpt><trkpt lat="41.396862794183455" lon="13.987223460718175"><ele>147.0</ele><time>2026-04-12T10:46:39Z</time></trkpt><trkpt lat="41.39678741561238" lon="13.987291033410415"><ele>147.0</ele><time>2026-04-12T10:46:40Z</time></trkpt><trkpt lat="41.39670746345439" lon="13.987313980376321"><ele>147.0</ele><time>2026-04-12T10:46:41Z</time></trkpt><trkpt lat="41.396628502109294" lon="13.987362154962309"><ele>147.0</ele><time>2026-04-12T10:46:42Z</time></trkpt><trkpt lat="41.39654034373962" lon="13.987420133884548"><ele>147.0</ele><time>2026-04-12T10:46:43Z</time></trkpt><trkpt lat="41.39643302879581" lon="13.987501071829394"><ele>147.0</ele><time>2026-04-12T10:46:44Z</time></trkpt><trkpt lat="41.39633864959174" lon="13.987571009707203"><ele>147.0</ele><time>2026-04-12T10:46:45Z</time></trkpt><trkpt lat="41.39623853535187" lon="13.987679035072002"><ele>148.5</ele><time>2026-04-12T10:46:46Z</time></trkpt><trkpt lat="41.39615288466331" lon="13.987779206017295"><ele>150.0</ele><time>2026-04-12T10:46:47Z</time></trkpt><trkpt lat="41.39606833475784" lon="13.987877287272061"><ele>151.5</ele><time>2026-04-12T10:46:48Z</time></trkpt><trkpt lat="41.39597665154545" lon="13.987985734437386"><ele>153.0</ele><time>2026-04-12T10:46:49Z</time></trkpt><trkpt lat="41.395884677983595" lon="13.988122113696559"><ele>153.0</ele><time>2026-04-12T10:46:50Z</time></trkpt><trkpt lat="41.39575523627216" lon="13.988198719436213"><ele>153.0</ele><time>2026-04-12T10:46:51Z</time></trkpt><trkpt lat="41.39564911324025" lon="13.988253063220016"><ele>153.0</ele><time>2026-04-12T10:46:52Z</time></trkpt><trkpt lat="41.39555613110035" lon="13.988296412170202"><ele>153.0</ele><time>2026-04-12T10:46:53Z</time></trkpt><trkpt lat="41.39545076650192" lon="13.988332230059758"><ele>152.5</ele><time>2026-04-12T10:46:54Z</time></trkpt><trkpt lat="41.39533961328382" lon="13.9883810949402"><ele>152.0</ele><time>2026-04-12T10:46:55Z</time></trkpt><trkpt lat="41.39521747943686" lon="13.988417091551756"><ele>151.5</ele><time>2026-04-12T10:46:56Z</time></trkpt><trkpt lat="41.39509510831729" lon="13.988426421683492"><ele>151.0</ele><time>2026-04-12T10:46:57Z</time></trkpt><trkpt lat="41.39495985859575" lon="13.988447205473143"><ele>151.0</ele><time>2026-04-12T10:46:58Z</time></trkpt><trkpt lat="41.3948324951921" lon="13.988463456249228"><ele>151.0</ele><time>2026-04-12T10:46:59Z</time></trkpt><trkpt lat="41.3947057737577" lon="13.988472065985263"><ele>151.0</ele><time>2026-04-12T10:47:00Z</time></trkpt><trkpt lat="41.39459008821608" lon="13.988472938583417"><ele>151.0</ele><time>2026-04-12T10:47:01Z</time></trkpt><trkpt lat="41.39447584868425" lon="13.988481451323942"><ele>151.75</ele><time>2026-04-12T10:47:02Z</time></trkpt><trkpt lat="41.39438475903835" lon="13.98851562705788"><ele>152.5</ele><time>2026-04-12T10:47:03Z</time></trkpt><trkpt lat="41.394286324436386" lon="13.98856589404949"><ele>153.25</ele><time>2026-04-12T10:47:04Z</time></trkpt><trkpt lat="41.39414707177612" lon="13.98863703029426"><ele>154.0</ele><time>2026-04-12T10:47:05Z</time></trkpt><trkpt lat="41.39405437651874" lon="13.988689924323468"><ele>154.0</ele><time>2026-04-12T10:47:06Z</time></trkpt><trkpt lat="41.39399171752519" lon="13.988750016094873"><ele>154.0</ele><time>2026-04-12T10:47:07Z</time></trkpt><trkpt lat="41.39388147847719" lon="13.988815681497007"><ele>154.0</ele><time>2026-04-12T10:47:08Z</time></trkpt><trkpt lat="41.3937743095455" lon="13.988867057998489"><ele>154.0</ele><time>2026-04-12T10:47:09Z</time></trkpt><trkpt lat="41.39366766178106" lon="13.988918520624647"><ele>154.0</ele><time>2026-04-12T10:47:10Z</time></trkpt><trkpt lat="41.393551975030654" lon="13.988970010250405"><ele>154.4</ele><time>2026-04-12T10:47:11Z</time></trkpt><trkpt lat="41.39343849793238" lon="13.989010239441754"><ele>154.8</ele><time>2026-04-12T10:47:12Z</time></trkpt><trkpt lat="41.39332265044593" lon="13.989034898903366"><ele>155.2</ele><time>2026-04-12T10:47:13Z</time></trkpt><trkpt lat="41.393221790411225" lon="13.98905875186339"><ele>155.6</ele><time>2026-04-12T10:47:14Z</time></trkpt><trkpt lat="41.39312118167415" lon="13.989115296461351"><ele>156.0</ele><time>2026-04-12T10:47:15Z</time></trkpt><trkpt lat="41.393041308010055" lon="13.989169650406595"><ele>156.6</ele><time>2026-04-12T10:47:16Z</time></trkpt><trkpt lat="41.39297745591862" lon="13.989259501278552"><ele>157.2</ele><time>2026-04-12T10:47:17Z</time></trkpt><trkpt lat="41.39293209505954" lon="13.989348886898387"><ele>157.8</ele><time>2026-04-12T10:47:18Z</time></trkpt><trkpt lat="41.39288012963753" lon="13.989461027920592"><ele>158.4</ele><time>2026-04-12T10:47:19Z</time></trkpt><trkpt lat="41.39282547879188" lon="13.989551595570523"><ele>159.0</ele><time>2026-04-12T10:47:20Z</time></trkpt><trkpt lat="41.39274918178295" lon="13.989657456858994"><ele>159.0</ele><time>2026-04-12T10:47:21Z</time></trkpt><trkpt lat="41.392653097145335" lon="13.989744111994229"><ele>159.0</ele><time>2026-04-12T10:47:22Z</time></trkpt><trkpt lat="41.392561949166414" lon="13.989813059718221"><ele>159.0</ele><time>2026-04-12T10:47:23Z</time></trkpt><trkpt lat="41.392457109942335" lon="13.989866356425662"><ele>159.0</ele><time>2026-04-12T10:47:24Z</time></trkpt><trkpt lat="41.39236047038546" lon="13.989935479693644"><ele>159.0</ele><time>2026-04-12T10:47:25Z</time></trkpt><trkpt lat="41.392239264309694" lon="13.990026424142835"><ele>161.0</ele><time>2026-04-12T10:47:26Z</time></trkpt><trkpt lat="41.39212491431139" lon="13.99011549286984"><ele>163.0</ele><time>2026-04-12T10:47:27Z</time></trkpt><trkpt lat="41.39200652621911" lon="13.990205119787744"><ele>165.0</ele><time>2026-04-12T10:47:28Z</time></trkpt><trkpt lat="41.3918994053508" lon="13.990296547016923"><ele>167.0</ele><time>2026-04-12T10:47:29Z</time></trkpt><trkpt lat="41.39177130444424" lon="13.990390115750825"><ele>167.0</ele><time>2026-04-12T10:47:30Z</time></trkpt><trkpt lat="41.39163677796663" lon="13.990469695831525"><ele>167.0</ele><time>2026-04-12T10:47:31Z</time></trkpt><trkpt lat="41.39151425275672" lon="13.990559680972595"><ele>167.0</ele><time>2026-04-12T10:47:32Z</time></trkpt><trkpt lat="41.39139516259618" lon="13.990651480730056"><ele>167.0</ele><time>2026-04-12T10:47:33Z</time></trkpt><trkpt lat="41.391284506319884" lon="13.990750747811514"><ele>167.8</ele><time>2026-04-12T10:47:34Z</time></trkpt><trkpt lat="41.39117407851669" lon="13.990820960970042"><ele>168.6</ele><time>2026-04-12T10:47:35Z</time></trkpt><trkpt lat="41.39109170599062" lon="13.990876998755514"><ele>169.4</ele><time>2026-04-12T10:47:36Z</time></trkpt><trkpt lat="41.39101829670428" lon="13.990935005727627"><ele>170.20000000000002</ele><time>2026-04-12T10:47:37Z</time></trkpt><trkpt lat="41.390945917392884" lon="13.991012258033047"><ele>171.0</ele><time>2026-04-12T10:47:38Z</time></trkpt><trkpt lat="41.390837661737834" lon="13.991076815716209"><ele>172.0</ele><time>2026-04-12T10:47:39Z</time></trkpt><trkpt lat="41.390735603050594" lon="13.991159728631324"><ele>173.0</ele><time>2026-04-12T10:47:40Z</time></trkpt><trkpt lat="41.39064755911013" lon="13.99125008829792"><ele>174.0</ele><time>2026-04-12T10:47:41Z</time></trkpt><trkpt lat="41.390567178942995" lon="13.99134950286232"><ele>175.0</ele><time>2026-04-12T10:47:42Z</time></trkpt><trkpt lat="41.390492346676695" lon="13.99144669588603"><ele>176.0</ele><time>2026-04-12T10:47:43Z</time></trkpt><trkpt lat="41.39041509148072" lon="13.991559936491422"><ele>178.75</ele><time>2026-04-12T10:47:44Z</time></trkpt><trkpt lat="41.39034720589368" lon="13.991681664910436"><ele>181.5</ele><time>2026-04-12T10:47:45Z</time></trkpt><trkpt lat="41.390299442420904" lon="13.991835359590484"><ele>184.25</ele><time>2026-04-12T10:47:46Z</time></trkpt><trkpt lat="41.39027497069913" lon="13.991996543281772"><ele>187.0</ele><time>2026-04-12T10:47:47Z</time></trkpt><trkpt lat="41.39025682392274" lon="13.992164972769862"><ele>187.0</ele><time>2026-04-12T10:47:48Z</time></trkpt><trkpt lat="41.39023626228141" lon="13.992332712514758"><ele>187.0</ele><time>2026-04-12T10:47:49Z</time></trkpt><trkpt lat="41.39021653759291" lon="13.992498880307329"><ele>187.0</ele><time>2026-04-12T10:47:50Z</time></trkpt><trkpt lat="41.39019076991111" lon="13.992662636467564"><ele>187.0</ele><time>2026-04-12T10:47:51Z</time></trkpt><trkpt lat="41.39016248955954" lon="13.992838028539337"><ele>189.5</ele><time>2026-04-12T10:47:52Z</time></trkpt><trkpt lat="41.39013501714488" lon="13.993018903564025"><ele>192.0</ele><time>2026-04-12T10:47:53Z</time></trkpt><trkpt lat="41.39011613789583" lon="13.993208074073872"><ele>194.5</ele><time>2026-04-12T10:47:54Z</time></trkpt><trkpt lat="41.39009571531698" lon="13.993350666230652"><ele>197.0</ele><time>2026-04-12T10:47:55Z</time></trkpt><trkpt lat="41.390083654441014" lon="13.993461873154809"><ele>198.6</ele><time>2026-04-12T10:47:56Z</time></trkpt><trkpt lat="41.39004665273037" lon="13.993582855219257"><ele>200.2</ele><time>2026-04-12T10:47:57Z</time></trkpt><trkpt lat="41.3900360156871" lon="13.99367971422116"><ele>201.8</ele><time>2026-04-12T10:47:58Z</time></trkpt><trkpt lat="41.389985204734295" lon="13.993790245248606"><ele>203.4</ele><time>2026-04-12T10:47:59Z</time></trkpt><trkpt lat="41.38992528944181" lon="13.993907107676172"><ele>205.0</ele><time>2026-04-12T10:48:00Z</time></trkpt><trkpt lat="41.389864769429906" lon="13.994052397483426"><ele>205.0</ele><time>2026-04-12T10:48:01Z</time></trkpt><trkpt lat="41.389805425314876" lon="13.994203241823637"><ele>205.0</ele><time>2026-04-12T10:48:02Z</time></trkpt><trkpt lat="41.389773276762114" lon="13.994328028268857"><ele>205.0</ele><time>2026-04-12T10:48:03Z</time></trkpt><trkpt lat="41.38971896251045" lon="13.994457525824412"><ele>205.0</ele><time>2026-04-12T10:48:04Z</time></trkpt><trkpt lat="41.38967385327375" lon="13.994591381128464"><ele>205.0</ele><time>2026-04-12T10:48:05Z</time></trkpt><trkpt lat="41.38960217920187" lon="13.994698717767472"><ele>203.8</ele><time>2026-04-12T10:48:06Z</time></trkpt><trkpt lat="41.38951863055429" lon="13.99479113907565"><ele>202.6</ele><time>2026-04-12T10:48:07Z</time></trkpt><trkpt lat="41.38943438245627" lon="13.994878209662144"><ele>201.39999999999998</ele><time>2026-04-12T10:48:08Z</time></trkpt><trkpt lat="41.389357453847914" lon="13.994968563952744"><ele>200.2</ele><time>2026-04-12T10:48:09Z</time></trkpt><trkpt lat="41.389292033423715" lon="13.995082291005858"><ele>199.0</ele><time>2026-04-12T10:48:10Z</time></trkpt><trkpt lat="41.38924212470953" lon="13.995212407205148"><ele>199.0</ele><time>2026-04-12T10:48:11Z</time></trkpt><trkpt lat="41.389182336973995" lon="13.995356171801436"><ele>199.0</ele><time>2026-04-12T10:48:12Z</time></trkpt><trkpt lat="41.389144667352156" lon="13.995506667921305"><ele>199.0</ele><time>2026-04-12T10:48:13Z</time></trkpt><trkpt lat="41.3891085861697" lon="13.995659775966505"><ele>199.0</ele><time>2026-04-12T10:48:14Z</time></trkpt><trkpt lat="41.38907723955228" lon="13.995804043724727"><ele>199.2</ele><time>2026-04-12T10:48:15Z</time></trkpt><trkpt lat="41.3890547242857" lon="13.995948638485684"><ele>199.39999999999998</ele><time>2026-04-12T10:48:16Z</time></trkpt><trkpt lat="41.38900214345956" lon="13.996056881042472"><ele>199.6</ele><time>2026-04-12T10:48:17Z</time></trkpt><trkpt lat="41.38894653754991" lon="13.996188178614476"><ele>199.8</ele><time>2026-04-12T10:48:18Z</time></trkpt><trkpt lat="41.38885798006527" lon="13.996290462016118"><ele>200.0</ele><time>2026-04-12T10:48:19Z</time></trkpt><trkpt lat="41.388764360847624" lon="13.996394856069262"><ele>200.0</ele><time>2026-04-12T10:48:20Z</time></trkpt><trkpt lat="41.38867265688695" lon="13.996492714427776"><ele>200.0</ele><time>2026-04-12T10:48:21Z</time></trkpt><trkpt lat="41.38857556424456" lon="13.996581725940601"><ele>200.0</ele><time>2026-04-12T10:48:22Z</time></trkpt><trkpt lat="41.38846594110327" lon="13.996642044712592"><ele>200.0</ele><time>2026-04-12T10:48:23Z</time></trkpt><trkpt lat="41.388351935946744" lon="13.996678819725927"><ele>200.0</ele><time>2026-04-12T10:48:24Z</time></trkpt><trkpt lat="41.388236115363235" lon="13.996725757117261"><ele>200.0</ele><time>2026-04-12T10:48:25Z</time></trkpt><trkpt lat="41.38812043966986" lon="13.99678023186925"><ele>200.0</ele><time>2026-04-12T10:48:26Z</time></trkpt><trkpt lat="41.38799760860297" lon="13.996833462223398"><ele>200.0</ele><time>2026-04-12T10:48:27Z</time></trkpt><trkpt lat="41.38787468626978" lon="13.996893266412386"><ele>200.5</ele><time>2026-04-12T10:48:28Z</time></trkpt><trkpt lat="41.38777030813664" lon="13.99696918277534"><ele>201.0</ele><time>2026-04-12T10:48:29Z</time></trkpt><trkpt lat="41.38768292886769" lon="13.997061321667685"><ele>201.5</ele><time>2026-04-12T10:48:30Z</time></trkpt><trkpt lat="41.38761680528151" lon="13.997179653631603"><ele>202.0</ele><time>2026-04-12T10:48:31Z</time></trkpt><trkpt lat="41.387567773461186" lon="13.99731847114989"><ele>202.0</ele><time>2026-04-12T10:48:32Z</time></trkpt><trkpt lat="41.38753242813868" lon="13.997460158006405"><ele>202.0</ele><time>2026-04-12T10:48:33Z</time></trkpt><trkpt lat="41.387524430675555" lon="13.997591647821348"><ele>202.0</ele><time>2026-04-12T10:48:34Z</time></trkpt><trkpt lat="41.38748637124519" lon="13.997713614514115"><ele>202.0</ele><time>2026-04-12T10:48:35Z</time></trkpt><trkpt lat="41.387439471245635" lon="13.997802212080243"><ele>202.0</ele><time>2026-04-12T10:48:36Z</time></trkpt><trkpt lat="41.38737224083782" lon="13.997881029988385"><ele>202.25</ele><time>2026-04-12T10:48:37Z</time></trkpt><trkpt lat="41.38728121179243" lon="13.997960534490147"><ele>202.5</ele><time>2026-04-12T10:48:38Z</time></trkpt><trkpt lat="41.38717924776061" lon="13.998047020732066"><ele>202.75</ele><time>2026-04-12T10:48:39Z</time></trkpt><trkpt lat="41.38707360441151" lon="13.9981337435071"><ele>203.0</ele><time>2026-04-12T10:48:40Z</time></trkpt><trkpt lat="41.38696835535059" lon="13.998223104852244"><ele>203.2</ele><time>2026-04-12T10:48:41Z</time></trkpt><trkpt lat="41.38686532946708" lon="13.998312082963489"><ele>203.4</ele><time>2026-04-12T10:48:42Z</time></trkpt><trkpt lat="41.38677508251336" lon="13.998379981868489"><ele>203.6</ele><time>2026-04-12T10:48:43Z</time></trkpt><trkpt lat="41.38667375863426" lon="13.998421530780648"><ele>203.79999999999998</ele><time>2026-04-12T10:48:44Z</time></trkpt><trkpt lat="41.38657037610232" lon="13.998453569726165"><ele>204.0</ele><time>2026-04-12T10:48:45Z</time></trkpt><trkpt lat="41.38647377165077" lon="13.998488289134542"><ele>204.0</ele><time>2026-04-12T10:48:46Z</time></trkpt><trkpt lat="41.386381739874835" lon="13.998545812403613"><ele>204.0</ele><time>2026-04-12T10:48:47Z</time></trkpt><trkpt lat="41.38629496096532" lon="13.998638705247636"><ele>204.0</ele><time>2026-04-12T10:48:48Z</time></trkpt><trkpt lat="41.3862383510886" lon="13.998732613659435"><ele>204.0</ele><time>2026-04-12T10:48:49Z</time></trkpt><trkpt lat="41.38619696538656" lon="13.99881209657557"><ele>204.0</ele><time>2026-04-12T10:48:50Z</time></trkpt><trkpt lat="41.38611036741477" lon="13.998872713288568"><ele>204.0</ele><time>2026-04-12T10:48:52Z</time></trkpt><trkpt lat="41.3859773365071" lon="13.998791823712365"><ele>204.0</ele><time>2026-04-12T10:48:54Z</time></trkpt><trkpt lat="41.38590736372341" lon="13.998770168296325"><ele>204.0</ele><time>2026-04-12T10:48:55Z</time></trkpt><trkpt lat="41.385841287833166" lon="13.99874483867087"><ele>204.0</ele><time>2026-04-12T10:49:03Z</time></trkpt><trkpt lat="41.385859993065566" lon="13.998616616474107"><ele>204.0</ele><time>2026-04-12T10:49:07Z</time></trkpt><trkpt lat="41.38579037799129" lon="13.998495649343214"><ele>204.0</ele><time>2026-04-12T10:49:09Z</time></trkpt><trkpt lat="41.38574377652296" lon="13.998418360655695"><ele>204.0</ele><time>2026-04-12T10:49:10Z</time></trkpt><trkpt lat="41.38569359530045" lon="13.99835143848756"><ele>204.0</ele><time>2026-04-12T10:49:11Z</time></trkpt><trkpt lat="41.38558135382527" lon="13.998271672539982"><ele>204.0</ele><time>2026-04-12T10:49:13Z</time></trkpt><trkpt lat="41.385480661744715" lon="13.998165108851707"><ele>204.0</ele><time>2026-04-12T10:49:15Z</time></trkpt><trkpt lat="41.38543458398405" lon="13.998099585968944"><ele>204.0</ele><time>2026-04-12T10:49:16Z</time></trkpt><trkpt lat="41.385387807826305" lon="13.998039655633436"><ele>204.0</ele><time>2026-04-12T10:49:18Z</time></trkpt><trkpt lat="41.3854918919754" lon="13.998162553532312"><ele>204.0</ele><time>2026-04-12T10:49:26Z</time></trkpt><trkpt lat="41.38554872353956" lon="13.998262500059855"><ele>204.0</ele><time>2026-04-12T10:49:27Z</time></trkpt><trkpt lat="41.38565370857111" lon="13.998354829085782"><ele>204.0</ele><time>2026-04-12T10:49:28Z</time></trkpt><trkpt lat="41.38575952419054" lon="13.998454102766566"><ele>204.0</ele><time>2026-04-12T10:49:29Z</time></trkpt><trkpt lat="41.385830418044854" lon="13.998522452034234"><ele>204.0</ele><time>2026-04-12T10:49:30Z</time></trkpt><trkpt lat="41.38586669130289" lon="13.998616066528648"><ele>204.0</ele><time>2026-04-12T10:49:31Z</time></trkpt><trkpt lat="41.385881767369234" lon="13.998748475703282"><ele>204.0</ele><time>2026-04-12T10:49:33Z</time></trkpt><trkpt lat="41.38597766560563" lon="13.998852718575648"><ele>204.0</ele><time>2026-04-12T10:49:36Z</time></trkpt><trkpt lat="41.386052062729874" lon="13.998892229678916"><ele>204.0</ele><time>2026-04-12T10:49:37Z</time></trkpt><trkpt lat="41.38613524616172" lon="13.998922703635747"><ele>204.0</ele><time>2026-04-12T10:49:38Z</time></trkpt><trkpt lat="41.38624063215949" lon="13.998838408839742"><ele>204.0</ele><time>2026-04-12T10:49:40Z</time></trkpt><trkpt lat="41.386283329029276" lon="13.998743898611789"><ele>204.0</ele><time>2026-04-12T10:49:41Z</time></trkpt><trkpt lat="41.38635566863171" lon="13.99863285245295"><ele>204.0</ele><time>2026-04-12T10:49:42Z</time></trkpt><trkpt lat="41.386463375846816" lon="13.998535262639532"><ele>204.0</ele><time>2026-04-12T10:49:43Z</time></trkpt><trkpt lat="41.3865917344731" lon="13.998492525661911"><ele>204.0</ele><time>2026-04-12T10:49:44Z</time></trkpt><trkpt lat="41.38672238672015" lon="13.998445960293983"><ele>204.0</ele><time>2026-04-12T10:49:45Z</time></trkpt><trkpt lat="41.386868408250244" lon="13.998393494997346"><ele>204.0</ele><time>2026-04-12T10:49:46Z</time></trkpt><trkpt lat="41.38699361012936" lon="13.998283436483566"><ele>204.0</ele><time>2026-04-12T10:49:47Z</time></trkpt><trkpt lat="41.3871030521766" lon="13.99816169799529"><ele>204.0</ele><time>2026-04-12T10:49:48Z</time></trkpt><trkpt lat="41.38721600477463" lon="13.998049306666504"><ele>204.0</ele><time>2026-04-12T10:49:49Z</time></trkpt><trkpt lat="41.387312829247186" lon="13.99797416658547"><ele>204.0</ele><time>2026-04-12T10:49:50Z</time></trkpt><trkpt lat="41.38740681098121" lon="13.9978821293559"><ele>203.75</ele><time>2026-04-12T10:49:51Z</time></trkpt><trkpt lat="41.38748701780093" lon="13.997778865525166"><ele>203.5</ele><time>2026-04-12T10:49:52Z</time></trkpt><trkpt lat="41.38754105793808" lon="13.9976484791369"><ele>203.25</ele><time>2026-04-12T10:49:53Z</time></trkpt><trkpt lat="41.3875782968112" lon="13.99746956179006"><ele>203.0</ele><time>2026-04-12T10:49:54Z</time></trkpt><trkpt lat="41.387620608347845" lon="13.99728028813674"><ele>202.75</ele><time>2026-04-12T10:49:55Z</time></trkpt><trkpt lat="41.387676750949005" lon="13.997120295206717"><ele>202.5</ele><time>2026-04-12T10:49:56Z</time></trkpt><trkpt lat="41.38777854532926" lon="13.997022254851558"><ele>202.25</ele><time>2026-04-12T10:49:57Z</time></trkpt><trkpt lat="41.38788222545417" lon="13.996941877620488"><ele>202.0</ele><time>2026-04-12T10:49:58Z</time></trkpt><trkpt lat="41.3880137994193" lon="13.996876663983926"><ele>201.33333333333331</ele><time>2026-04-12T10:49:59Z</time></trkpt><trkpt lat="41.38816258987868" lon="13.996809100290811"><ele>200.66666666666669</ele><time>2026-04-12T10:50:00Z</time></trkpt><trkpt lat="41.38833235658932" lon="13.99673666653187"><ele>200.0</ele><time>2026-04-12T10:50:01Z</time></trkpt><trkpt lat="41.3884715557128" lon="13.996660628843134"><ele>200.0</ele><time>2026-04-12T10:50:02Z</time></trkpt><trkpt lat="41.38860657574497" lon="13.996597456839936"><ele>200.0</ele><time>2026-04-12T10:50:03Z</time></trkpt><trkpt lat="41.38872433006361" lon="13.996503263399223"><ele>200.0</ele><time>2026-04-12T10:50:04Z</time></trkpt><trkpt lat="41.38883893570558" lon="13.996365944606822"><ele>200.0</ele><time>2026-04-12T10:50:05Z</time></trkpt><trkpt lat="41.38894477756948" lon="13.996233182159594"><ele>200.0</ele><time>2026-04-12T10:50:06Z</time></trkpt><trkpt lat="41.38902658599778" lon="13.996115050975472"><ele>200.0</ele><time>2026-04-12T10:50:07Z</time></trkpt><trkpt lat="41.38908323493087" lon="13.995972662860655"><ele>200.0</ele><time>2026-04-12T10:50:08Z</time></trkpt><trkpt lat="41.38912467341005" lon="13.995787322133452"><ele>200.0</ele><time>2026-04-12T10:50:09Z</time></trkpt><trkpt lat="41.389172392189224" lon="13.9955543972508"><ele>199.75</ele><time>2026-04-12T10:50:10Z</time></trkpt><trkpt lat="41.38921617761589" lon="13.995346233717353"><ele>199.5</ele><time>2026-04-12T10:50:11Z</time></trkpt><trkpt lat="41.3892640828622" lon="13.995181724987846"><ele>199.25</ele><time>2026-04-12T10:50:12Z</time></trkpt><trkpt lat="41.38933767709754" lon="13.995041967021509"><ele>199.0</ele><time>2026-04-12T10:50:13Z</time></trkpt><trkpt lat="41.38942632757342" lon="13.99492226010745"><ele>199.0</ele><time>2026-04-12T10:50:14Z</time></trkpt><trkpt lat="41.38953162304817" lon="13.994814087666843"><ele>199.0</ele><time>2026-04-12T10:50:15Z</time></trkpt><trkpt lat="41.38963667669367" lon="13.994712000002972"><ele>199.0</ele><time>2026-04-12T10:50:16Z</time></trkpt><trkpt lat="41.38972545099071" lon="13.99458952556614"><ele>199.0</ele><time>2026-04-12T10:50:17Z</time></trkpt><trkpt lat="41.38979366631464" lon="13.994411468952377"><ele>200.5</ele><time>2026-04-12T10:50:18Z</time></trkpt><trkpt lat="41.38983666512823" lon="13.994225794899943"><ele>202.0</ele><time>2026-04-12T10:50:19Z</time></trkpt><trkpt lat="41.389891187646946" lon="13.994031761561688"><ele>203.5</ele><time>2026-04-12T10:50:20Z</time></trkpt><trkpt lat="41.38995815678293" lon="13.993881683997078"><ele>205.0</ele><time>2026-04-12T10:50:21Z</time></trkpt><trkpt lat="41.390033927853" lon="13.99374925502783"><ele>205.0</ele><time>2026-04-12T10:50:22Z</time></trkpt><trkpt lat="41.39009131512936" lon="13.993639899680938"><ele>205.0</ele><time>2026-04-12T10:50:23Z</time></trkpt><trkpt lat="41.39011648523414" lon="13.993535577613464"><ele>205.0</ele><time>2026-04-12T10:50:24Z</time></trkpt><trkpt lat="41.39013619536037" lon="13.993381313248648"><ele>205.0</ele><time>2026-04-12T10:50:25Z</time></trkpt><trkpt lat="41.39015327086425" lon="13.993223804614274"><ele>205.0</ele><time>2026-04-12T10:50:26Z</time></trkpt><trkpt lat="41.39016851849092" lon="13.993085602492949"><ele>203.0</ele><time>2026-04-12T10:50:27Z</time></trkpt><trkpt lat="41.39019125236511" lon="13.992934962997023"><ele>201.0</ele><time>2026-04-12T10:50:28Z</time></trkpt><trkpt lat="41.39021396054352" lon="13.992779704336206"><ele>199.0</ele><time>2026-04-12T10:50:29Z</time></trkpt><trkpt lat="41.390235816687635" lon="13.99264110839571"><ele>197.0</ele><time>2026-04-12T10:50:30Z</time></trkpt><trkpt lat="41.39026012938625" lon="13.992465069715019"><ele>194.5</ele><time>2026-04-12T10:50:31Z</time></trkpt><trkpt lat="41.390294269014625" lon="13.992293860869054"><ele>192.0</ele><time>2026-04-12T10:50:32Z</time></trkpt><trkpt lat="41.39031139965887" lon="13.992117011728151"><ele>189.5</ele><time>2026-04-12T10:50:33Z</time></trkpt><trkpt lat="41.39032937290163" lon="13.991950261762595"><ele>187.0</ele><time>2026-04-12T10:50:34Z</time></trkpt><trkpt lat="41.39036322104448" lon="13.991786601480364"><ele>184.0</ele><time>2026-04-12T10:50:35Z</time></trkpt><trkpt lat="41.39041858228943" lon="13.991613420566248"><ele>181.0</ele><time>2026-04-12T10:50:36Z</time></trkpt><trkpt lat="41.390516700019134" lon="13.991463774472784"><ele>178.0</ele><time>2026-04-12T10:50:37Z</time></trkpt><trkpt lat="41.390640028292665" lon="13.991311537172637"><ele>177.33333333333334</ele><time>2026-04-12T10:50:38Z</time></trkpt><trkpt lat="41.39077837375785" lon="13.99116183625633"><ele>176.66666666666666</ele><time>2026-04-12T10:50:39Z</time></trkpt><trkpt lat="41.390916984791176" lon="13.991069698133211"><ele>176.0</ele><time>2026-04-12T10:50:40Z</time></trkpt><trkpt lat="41.39103324710789" lon="13.990988394330932"><ele>176.0</ele><time>2026-04-12T10:50:41Z</time></trkpt><trkpt lat="41.39113305292726" lon="13.99091704973731"><ele>176.0</ele><time>2026-04-12T10:50:42Z</time></trkpt><trkpt lat="41.391206642099604" lon="13.990862782533819"><ele>176.0</ele><time>2026-04-12T10:50:43Z</time></trkpt><trkpt lat="41.39126227910273" lon="13.990819982102526"><ele>176.0</ele><time>2026-04-12T10:50:50Z</time></trkpt><trkpt lat="41.391097236546074" lon="13.990631355713848"><ele>175.16666666666666</ele><time>2026-04-12T10:50:56Z</time></trkpt><trkpt lat="41.39102596425016" lon="13.990586730426022"><ele>174.33333333333331</ele><time>2026-04-12T10:50:57Z</time></trkpt><trkpt lat="41.39092215411616" lon="13.990526660398022"><ele>173.5</ele><time>2026-04-12T10:50:59Z</time></trkpt><trkpt lat="41.390867621783485" lon="13.990478200941372"><ele>172.66666666666666</ele><time>2026-04-12T10:51:00Z</time></trkpt><trkpt lat="41.390815193367025" lon="13.99043074430181"><ele>171.83333333333334</ele><time>2026-04-12T10:51:01Z</time></trkpt><trkpt lat="41.39075446438783" lon="13.990383356440507"><ele>171.0</ele><time>2026-04-12T10:51:02Z</time></trkpt><trkpt lat="41.39055255744145" lon="13.990572129066244"><ele>170.83333333333334</ele><time>2026-04-12T10:51:03Z</time></trkpt><trkpt lat="41.39048632968459" lon="13.990552418997874"><ele>170.66666666666666</ele><time>2026-04-12T10:51:04Z</time></trkpt><trkpt lat="41.39040459722127" lon="13.990631256311993"><ele>170.5</ele><time>2026-04-12T10:51:05Z</time></trkpt><trkpt lat="41.39032245617148" lon="13.99070455130643"><ele>170.33333333333331</ele><time>2026-04-12T10:51:07Z</time></trkpt><trkpt lat="41.390247447965194" lon="13.990775350430871"><ele>170.16666666666666</ele><time>2026-04-12T10:51:10Z</time></trkpt><trkpt lat="41.39016805257859" lon="13.990809363742404"><ele>170.0</ele><time>2026-04-12T10:51:14Z</time></trkpt><trkpt lat="41.39007751603187" lon="13.990866960813033"><ele>171.6</ele><time>2026-04-12T10:51:16Z</time></trkpt><trkpt lat="41.39001036594495" lon="13.990857488625062"><ele>173.2</ele><time>2026-04-12T10:51:18Z</time></trkpt><trkpt lat="41.389892565868756" lon="13.990902997226884"><ele>174.8</ele><time>2026-04-12T10:51:19Z</time></trkpt><trkpt lat="41.38980369009923" lon="13.990996393704572"><ele>176.4</ele><time>2026-04-12T10:51:21Z</time></trkpt><trkpt lat="41.38975916904656" lon="13.991068808894804"><ele>178.0</ele><time>2026-04-12T10:51:22Z</time></trkpt><trkpt lat="41.38970833171016" lon="13.991165446776659"><ele>178.0</ele><time>2026-04-12T10:51:26Z</time></trkpt><trkpt lat="41.3896640540015" lon="13.991230939837095"><ele>178.0</ele><time>2026-04-12T10:51:28Z</time></trkpt><trkpt lat="41.389598424238216" lon="13.991232024782938"><ele>178.0</ele><time>2026-04-12T10:51:30Z</time></trkpt><trkpt lat="41.3895194327887" lon="13.991235335011652"><ele>178.0</ele><time>2026-04-12T10:51:32Z</time></trkpt><trkpt lat="41.38945083222274" lon="13.991264154288658"><ele>178.0</ele><time>2026-04-12T10:51:35Z</time></trkpt><trkpt lat="41.38940622733091" lon="13.991376304294814"><ele>178.0</ele><time>2026-04-12T10:51:37Z</time></trkpt><trkpt lat="41.38931367757986" lon="13.991440746734979"><ele>178.0</ele><time>2026-04-12T10:51:39Z</time></trkpt><trkpt lat="41.38923998476289" lon="13.991496453020735"><ele>178.0</ele><time>2026-04-12T10:51:41Z</time></trkpt><trkpt lat="41.38917444016679" lon="13.991540455737576"><ele>178.0</ele><time>2026-04-12T10:51:44Z</time></trkpt><trkpt lat="41.38911790103564" lon="13.99150137233526"><ele>178.0</ele><time>2026-04-12T10:51:46Z</time></trkpt><trkpt lat="41.389062799329004" lon="13.991456778143586"><ele>178.0</ele><time>2026-04-12T10:51:47Z</time></trkpt><trkpt lat="41.38892709761671" lon="13.991481918066176"><ele>178.0</ele><time>2026-04-12T10:51:48Z</time></trkpt><trkpt lat="41.388861461275546" lon="13.99146130398215"><ele>177.33333333333334</ele><time>2026-04-12T10:51:51Z</time></trkpt><trkpt lat="41.38873956832738" lon="13.99144428116926"><ele>176.66666666666669</ele><time>2026-04-12T10:51:52Z</time></trkpt><trkpt lat="41.38865722187043" lon="13.991409653507871"><ele>176.0</ele><time>2026-04-12T10:51:53Z</time></trkpt><trkpt lat="41.38862145243528" lon="13.991324934679366"><ele>175.33333333333334</ele><time>2026-04-12T10:51:56Z</time></trkpt><trkpt lat="41.388634998742106" lon="13.991231663677778"><ele>174.66666666666666</ele><time>2026-04-12T10:51:59Z</time></trkpt><trkpt lat="41.38871102980007" lon="13.991162527453294"><ele>174.0</ele><time>2026-04-12T10:52:03Z</time></trkpt><trkpt lat="41.38876691734315" lon="13.991115603715079"><ele>174.0</ele><time>2026-04-12T10:52:05Z</time></trkpt><trkpt lat="41.388774303547144" lon="13.990992050441735"><ele>174.0</ele><time>2026-04-12T10:52:06Z</time></trkpt><trkpt lat="41.38884302572137" lon="13.990775422005077"><ele>174.0</ele><time>2026-04-12T10:52:09Z</time></trkpt><trkpt lat="41.388924588131836" lon="13.990694041399548"><ele>174.0</ele><time>2026-04-12T10:52:10Z</time></trkpt><trkpt lat="41.38892438509309" lon="13.990607295811904"><ele>174.0</ele><time>2026-04-12T10:52:13Z</time></trkpt><trkpt lat="41.38888814098987" lon="13.990536523067712"><ele>173.0</ele><time>2026-04-12T10:52:15Z</time></trkpt><trkpt lat="41.38890232523268" lon="13.990413563925118"><ele>172.0</ele><time>2026-04-12T10:52:17Z</time></trkpt><trkpt lat="41.38896855766445" lon="13.990260364967282"><ele>171.0</ele><time>2026-04-12T10:52:18Z</time></trkpt><trkpt lat="41.38899464339545" lon="13.99017017170616"><ele>170.0</ele><time>2026-04-12T10:52:19Z</time></trkpt><trkpt lat="41.38904423236733" lon="13.99011625892511"><ele>169.0</ele><time>2026-04-12T10:52:20Z</time></trkpt><trkpt lat="41.38911705301493" lon="13.99006854868503"><ele>168.0</ele><time>2026-04-12T10:52:21Z</time></trkpt><trkpt lat="41.38915203557251" lon="13.98995975098386"><ele>168.0</ele><time>2026-04-12T10:52:22Z</time></trkpt><trkpt lat="41.38923448809098" lon="13.989894540022506"><ele>168.0</ele><time>2026-04-12T10:52:23Z</time></trkpt><trkpt lat="41.38928979570395" lon="13.98982505006268"><ele>168.0</ele><time>2026-04-12T10:52:24Z</time></trkpt><trkpt lat="41.389328702950884" lon="13.989743746525683"><ele>168.0</ele><time>2026-04-12T10:52:25Z</time></trkpt><trkpt lat="41.38934493030515" lon="13.989662636345107"><ele>168.0</ele><time>2026-04-12T10:52:26Z</time></trkpt><trkpt lat="41.3892701703059" lon="13.989525944656299"><ele>168.0</ele><time>2026-04-12T10:52:27Z</time></trkpt><trkpt lat="41.389194024327075" lon="13.989365749960863"><ele>168.0</ele><time>2026-04-12T10:52:29Z</time></trkpt><trkpt lat="41.38915134295827" lon="13.989249064401466"><ele>168.0</ele><time>2026-04-12T10:52:30Z</time></trkpt><trkpt lat="41.389096075436264" lon="13.989116054387097"><ele>168.0</ele><time>2026-04-12T10:52:31Z</time></trkpt><trkpt lat="41.389048905175194" lon="13.98901000226254"><ele>168.0</ele><time>2026-04-12T10:52:32Z</time></trkpt><trkpt lat="41.388999664161204" lon="13.988889029056306"><ele>168.0</ele><time>2026-04-12T10:52:33Z</time></trkpt><trkpt lat="41.388954866242784" lon="13.988767170701717"><ele>170.2</ele><time>2026-04-12T10:52:34Z</time></trkpt><trkpt lat="41.388912048754676" lon="13.988562557598774"><ele>172.4</ele><time>2026-04-12T10:52:36Z</time></trkpt><trkpt lat="41.38888063083208" lon="13.988451624210958"><ele>174.6</ele><time>2026-04-12T10:52:37Z</time></trkpt><trkpt lat="41.3888642623136" lon="13.988314054510054"><ele>176.79999999999998</ele><time>2026-04-12T10:52:38Z</time></trkpt><trkpt lat="41.388827722516005" lon="13.988220469586524"><ele>179.0</ele><time>2026-04-12T10:52:39Z</time></trkpt><trkpt lat="41.38878952509069" lon="13.988058706272335"><ele>180.2</ele><time>2026-04-12T10:52:40Z</time></trkpt><trkpt lat="41.38876327424372" lon="13.987909360845368"><ele>181.39999999999998</ele><time>2026-04-12T10:52:41Z</time></trkpt><trkpt lat="41.38873890020513" lon="13.98776206030013"><ele>182.6</ele><time>2026-04-12T10:52:42Z</time></trkpt><trkpt lat="41.38871766120248" lon="13.987644077099533"><ele>183.8</ele><time>2026-04-12T10:52:43Z</time></trkpt><trkpt lat="41.38868934175884" lon="13.987562153828419"><ele>185.0</ele><time>2026-04-12T10:52:44Z</time></trkpt><trkpt lat="41.388860431407494" lon="13.987497592729461"><ele>185.0</ele><time>2026-04-12T10:52:48Z</time></trkpt><trkpt lat="41.38897643103808" lon="13.987493486373996"><ele>185.0</ele><time>2026-04-12T10:52:49Z</time></trkpt><trkpt lat="41.389071211663556" lon="13.987494895352413"><ele>185.0</ele><time>2026-04-12T10:52:50Z</time></trkpt><trkpt lat="41.38918350381027" lon="13.98749599623499"><ele>185.0</ele><time>2026-04-12T10:52:51Z</time></trkpt><trkpt lat="41.38927050607667" lon="13.98749304550781"><ele>185.0</ele><time>2026-04-12T10:52:52Z</time></trkpt><trkpt lat="41.3893509857898" lon="13.987506782218281"><ele>185.0</ele><time>2026-04-12T10:52:53Z</time></trkpt><trkpt lat="41.3894183843657" lon="13.987498148191802"><ele>185.0</ele><time>2026-04-12T10:52:55Z</time></trkpt><trkpt lat="41.38950198169493" lon="13.98740506912898"><ele>185.0</ele><time>2026-04-12T10:52:58Z</time></trkpt><trkpt lat="41.38960825325897" lon="13.987390307386221"><ele>185.0</ele><time>2026-04-12T10:52:59Z</time></trkpt><trkpt lat="41.389732195744116" lon="13.987402163511746"><ele>185.0</ele><time>2026-04-12T10:53:00Z</time></trkpt><trkpt lat="41.389874616862635" lon="13.987425981189588"><ele>182.66666666666666</ele><time>2026-04-12T10:53:01Z</time></trkpt><trkpt lat="41.39002216611358" lon="13.987433929888525"><ele>180.33333333333334</ele><time>2026-04-12T10:53:02Z</time></trkpt><trkpt lat="41.39019154799801" lon="13.987448479460726"><ele>178.0</ele><time>2026-04-12T10:53:03Z</time></trkpt><trkpt lat="41.39036118770431" lon="13.987465698946082"><ele>177.66666666666669</ele><time>2026-04-12T10:53:04Z</time></trkpt><trkpt lat="41.390539609124126" lon="13.987487198417426"><ele>177.33333333333334</ele><time>2026-04-12T10:53:05Z</time></trkpt><trkpt lat="41.39071903146117" lon="13.98750772774707"><ele>177.0</ele><time>2026-04-12T10:53:06Z</time></trkpt><trkpt lat="41.39090663195816" lon="13.987524820201818"><ele>177.0</ele><time>2026-04-12T10:53:07Z</time></trkpt><trkpt lat="41.391088798454774" lon="13.98753691693004"><ele>177.0</ele><time>2026-04-12T10:53:08Z</time></trkpt><trkpt lat="41.391263285155695" lon="13.9875367829736"><ele>177.0</ele><time>2026-04-12T10:53:09Z</time></trkpt><trkpt lat="41.391441081382304" lon="13.987519843918605"><ele>175.33333333333334</ele><time>2026-04-12T10:53:10Z</time></trkpt><trkpt lat="41.39161056943133" lon="13.987479080169251"><ele>173.66666666666669</ele><time>2026-04-12T10:53:11Z</time></trkpt><trkpt lat="41.39178080541416" lon="13.98740961118219"><ele>172.0</ele><time>2026-04-12T10:53:12Z</time></trkpt><trkpt lat="41.39192494881533" lon="13.987303660087585"><ele>172.0</ele><time>2026-04-12T10:53:13Z</time></trkpt><trkpt lat="41.392060337171465" lon="13.987179173519273"><ele>172.0</ele><time>2026-04-12T10:53:14Z</time></trkpt><trkpt lat="41.3921852471822" lon="13.987013283597177"><ele>172.0</ele><time>2026-04-12T10:53:15Z</time></trkpt><trkpt lat="41.39230730031183" lon="13.98684254287168"><ele>170.33333333333334</ele><time>2026-04-12T10:53:16Z</time></trkpt><trkpt lat="41.39242127952778" lon="13.98667477814153"><ele>168.66666666666666</ele><time>2026-04-12T10:53:17Z</time></trkpt><trkpt lat="41.39252500387158" lon="13.986521320549658"><ele>167.0</ele><time>2026-04-12T10:53:18Z</time></trkpt><trkpt lat="41.392620480009874" lon="13.986377300826918"><ele>167.0</ele><time>2026-04-12T10:53:19Z</time></trkpt><trkpt lat="41.39271925380587" lon="13.986232050212505"><ele>167.0</ele><time>2026-04-12T10:53:20Z</time></trkpt><trkpt lat="41.39281492427707" lon="13.98609252019871"><ele>167.0</ele><time>2026-04-12T10:53:21Z</time></trkpt><trkpt lat="41.39292165083653" lon="13.985931267280613"><ele>167.0</ele><time>2026-04-12T10:53:22Z</time></trkpt><trkpt lat="41.39303925323665" lon="13.985764145120992"><ele>167.0</ele><time>2026-04-12T10:53:23Z</time></trkpt><trkpt lat="41.393143451506305" lon="13.985605013327632"><ele>167.0</ele><time>2026-04-12T10:53:24Z</time></trkpt><trkpt lat="41.39323981807214" lon="13.985445662820087"><ele>167.0</ele><time>2026-04-12T10:53:25Z</time></trkpt><trkpt lat="41.3933402874457" lon="13.9852825712501"><ele>167.0</ele><time>2026-04-12T10:53:26Z</time></trkpt><trkpt lat="41.39343633050213" lon="13.985119128661617"><ele>167.0</ele><time>2026-04-12T10:53:27Z</time></trkpt><trkpt lat="41.39354520334252" lon="13.98495442381516"><ele>166.25</ele><time>2026-04-12T10:53:28Z</time></trkpt><trkpt lat="41.39365080669525" lon="13.9847948303332"><ele>165.5</ele><time>2026-04-12T10:53:29Z</time></trkpt><trkpt lat="41.393747886953655" lon="13.984640551903047"><ele>164.75</ele><time>2026-04-12T10:53:30Z</time></trkpt><trkpt lat="41.393836638553445" lon="13.984502510627646"><ele>164.0</ele><time>2026-04-12T10:53:31Z</time></trkpt><trkpt lat="41.39392724487158" lon="13.984383769312592"><ele>164.0</ele><time>2026-04-12T10:53:32Z</time></trkpt><trkpt lat="41.39402218736656" lon="13.98429381540813"><ele>164.0</ele><time>2026-04-12T10:53:33Z</time></trkpt><trkpt lat="41.394136527696894" lon="13.984206294656403"><ele>164.0</ele><time>2026-04-12T10:53:34Z</time></trkpt><trkpt lat="41.39426261022528" lon="13.98410107019358"><ele>164.0</ele><time>2026-04-12T10:53:35Z</time></trkpt><trkpt lat="41.39440098865939" lon="13.984001905191718"><ele>162.0</ele><time>2026-04-12T10:53:36Z</time></trkpt><trkpt lat="41.394553889044936" lon="13.98391905888578"><ele>160.0</ele><time>2026-04-12T10:53:37Z</time></trkpt><trkpt lat="41.39472043419674" lon="13.98386075477611"><ele>158.0</ele><time>2026-04-12T10:53:38Z</time></trkpt><trkpt lat="41.39490468979587" lon="13.983832445157182"><ele>158.0</ele><time>2026-04-12T10:53:39Z</time></trkpt><trkpt lat="41.39508873656995" lon="13.983819986523587"><ele>158.0</ele><time>2026-04-12T10:53:40Z</time></trkpt><trkpt lat="41.39528483194702" lon="13.983879304191541"><ele>158.0</ele><time>2026-04-12T10:53:41Z</time></trkpt><trkpt lat="41.39548436918106" lon="13.983955433506848"><ele>156.33333333333331</ele><time>2026-04-12T10:53:42Z</time></trkpt><trkpt lat="41.39569282673106" lon="13.984008549253186"><ele>154.66666666666666</ele><time>2026-04-12T10:53:43Z</time></trkpt><trkpt lat="41.39587195235475" lon="13.984085772376925"><ele>153.0</ele><time>2026-04-12T10:53:44Z</time></trkpt><trkpt lat="41.39604233327128" lon="13.984145210396326"><ele>154.33333333333334</ele><time>2026-04-12T10:53:45Z</time></trkpt><trkpt lat="41.39620626670427" lon="13.984206064114815"><ele>155.66666666666669</ele><time>2026-04-12T10:53:46Z</time></trkpt><trkpt lat="41.39635419922011" lon="13.984250756662206"><ele>157.0</ele><time>2026-04-12T10:53:47Z</time></trkpt><trkpt lat="41.39649897446987" lon="13.984290944989253"><ele>157.0</ele><time>2026-04-12T10:53:48Z</time></trkpt><trkpt lat="41.396629620766376" lon="13.984330268451872"><ele>157.0</ele><time>2026-04-12T10:53:49Z</time></trkpt><trkpt lat="41.39676457285022" lon="13.984379077787636"><ele>157.0</ele><time>2026-04-12T10:53:50Z</time></trkpt><trkpt lat="41.39690064790946" lon="13.984442112504837"><ele>157.0</ele><time>2026-04-12T10:53:51Z</time></trkpt><trkpt lat="41.39703577389588" lon="13.984518018642028"><ele>156.75</ele><time>2026-04-12T10:53:52Z</time></trkpt><trkpt lat="41.397170222060645" lon="13.984594126904629"><ele>156.5</ele><time>2026-04-12T10:53:53Z</time></trkpt><trkpt lat="41.39729715852204" lon="13.984662853615268"><ele>156.25</ele><time>2026-04-12T10:53:54Z</time></trkpt><trkpt lat="41.3974089892359" lon="13.984722980365403"><ele>156.0</ele><time>2026-04-12T10:53:55Z</time></trkpt><trkpt lat="41.39751505910971" lon="13.98477779586307"><ele>156.0</ele><time>2026-04-12T10:53:56Z</time></trkpt><trkpt lat="41.397623929887025" lon="13.98483378431522"><ele>156.0</ele><time>2026-04-12T10:53:57Z</time></trkpt><trkpt lat="41.3977144649108" lon="13.98487127084749"><ele>156.0</ele><time>2026-04-12T10:53:58Z</time></trkpt><trkpt lat="41.397797227753856" lon="13.984940044064933"><ele>156.0</ele><time>2026-04-12T10:53:59Z</time></trkpt><trkpt lat="41.39782355597554" lon="13.985096599823631"><ele>156.0</ele><time>2026-04-12T10:54:00Z</time></trkpt><trkpt lat="41.3979043331595" lon="13.985227585513535"><ele>155.33333333333334</ele><time>2026-04-12T10:54:01Z</time></trkpt><trkpt lat="41.39799770651901" lon="13.98537728970972"><ele>154.66666666666669</ele><time>2026-04-12T10:54:02Z</time></trkpt><trkpt lat="41.39809779315066" lon="13.985546593513902"><ele>154.0</ele><time>2026-04-12T10:54:03Z</time></trkpt><trkpt lat="41.39818765801424" lon="13.985701320232492"><ele>154.0</ele><time>2026-04-12T10:54:04Z</time></trkpt><trkpt lat="41.398264150240756" lon="13.985836850342208"><ele>154.0</ele><time>2026-04-12T10:54:05Z</time></trkpt><trkpt lat="41.398327773531854" lon="13.985971634367418"><ele>154.0</ele><time>2026-04-12T10:54:06Z</time></trkpt><trkpt lat="41.398382343251484" lon="13.986062640486429"><ele>154.0</ele><time>2026-04-12T10:54:07Z</time></trkpt><trkpt lat="41.398456346630205" lon="13.986120096346568"><ele>154.0</ele><time>2026-04-12T10:54:08Z</time></trkpt><trkpt lat="41.39854217078253" lon="13.986162647214657"><ele>153.0</ele><time>2026-04-12T10:54:10Z</time></trkpt><trkpt lat="41.398418999920125" lon="13.986245642506459"><ele>152.0</ele><time>2026-04-12T10:54:14Z</time></trkpt><trkpt lat="41.39851581621784" lon="13.986714317279748"><ele>151.2</ele><time>2026-04-12T10:54:16Z</time></trkpt><trkpt lat="41.398532490898916" lon="13.986839664229924"><ele>150.39999999999998</ele><time>2026-04-12T10:54:17Z</time></trkpt><trkpt lat="41.39849762450793" lon="13.986956482907107"><ele>149.60000000000002</ele><time>2026-04-12T10:54:19Z</time></trkpt><trkpt lat="41.39839559836742" lon="13.987029763185815"><ele>148.8</ele><time>2026-04-12T10:54:21Z</time></trkpt><trkpt lat="41.39831720988764" lon="13.987085667827053"><ele>148.0</ele><time>2026-04-12T10:54:23Z</time></trkpt><trkpt lat="41.39830259849855" lon="13.987225855665498"><ele>148.0</ele><time>2026-04-12T10:54:25Z</time></trkpt><trkpt lat="41.39829354336673" lon="13.987367579431604"><ele>148.0</ele><time>2026-04-12T10:54:26Z</time></trkpt><trkpt lat="41.398280273333015" lon="13.987473712781206"><ele>148.0</ele><time>2026-04-12T10:54:27Z</time></trkpt><trkpt lat="41.398276521213305" lon="13.987585844684505"><ele>148.0</ele><time>2026-04-12T10:54:28Z</time></trkpt><trkpt lat="41.39832431753614" lon="13.987663302004513"><ele>148.0</ele><time>2026-04-12T10:54:30Z</time></trkpt><trkpt lat="41.398465468977314" lon="13.987690930906535"><ele>147.0</ele><time>2026-04-12T10:54:32Z</time></trkpt><trkpt lat="41.398578667361285" lon="13.98770693507561"><ele>146.0</ele><time>2026-04-12T10:54:33Z</time></trkpt><trkpt lat="41.398727780512665" lon="13.98771863904795"><ele>145.0</ele><time>2026-04-12T10:54:34Z</time></trkpt><trkpt lat="41.39885769381463" lon="13.98773825818401"><ele>144.0</ele><time>2026-04-12T10:54:35Z</time></trkpt><trkpt lat="41.3989846071344" lon="13.987739502169589"><ele>143.0</ele><time>2026-04-12T10:54:36Z</time></trkpt><trkpt lat="41.39912123588818" lon="13.987747945929673"><ele>142.0</ele><time>2026-04-12T10:54:37Z</time></trkpt><trkpt lat="41.39925813426993" lon="13.987752728039862"><ele>141.0</ele><time>2026-04-12T10:54:38Z</time></trkpt><trkpt lat="41.39939770964879" lon="13.98774368875978"><ele>140.0</ele><time>2026-04-12T10:54:39Z</time></trkpt><trkpt lat="41.39951845891104" lon="13.987732176279176"><ele>140.0</ele><time>2026-04-12T10:54:40Z</time></trkpt><trkpt lat="41.39962351734207" lon="13.987725283763876"><ele>140.0</ele><time>2026-04-12T10:54:41Z</time></trkpt><trkpt lat="41.39972975448955" lon="13.987698898678042"><ele>140.0</ele><time>2026-04-12T10:54:42Z</time></trkpt><trkpt lat="41.39983033138903" lon="13.9876605232792"><ele>140.0</ele><time>2026-04-12T10:54:43Z</time></trkpt><trkpt lat="41.39994246387455" lon="13.987631519243726"><ele>140.0</ele><time>2026-04-12T10:54:44Z</time></trkpt><trkpt lat="41.400068941412925" lon="13.987599051273177"><ele>139.75</ele><time>2026-04-12T10:54:45Z</time></trkpt><trkpt lat="41.400219468674564" lon="13.98756245954465"><ele>139.5</ele><time>2026-04-12T10:54:46Z</time></trkpt><trkpt lat="41.40032755789944" lon="13.987520555681455"><ele>139.25</ele><time>2026-04-12T10:54:47Z</time></trkpt><trkpt lat="41.400411904312584" lon="13.98748568399604"><ele>139.0</ele><time>2026-04-12T10:54:48Z</time></trkpt><trkpt lat="41.40052628796112" lon="13.987440659025244"><ele>140.25</ele><time>2026-04-12T10:54:49Z</time></trkpt><trkpt lat="41.400671303064776" lon="13.987357479235657"><ele>141.5</ele><time>2026-04-12T10:54:50Z</time></trkpt><trkpt lat="41.40079442612939" lon="13.98729618361098"><ele>142.75</ele><time>2026-04-12T10:54:51Z</time></trkpt><trkpt lat="41.40090686874315" lon="13.987241245179382"><ele>144.0</ele><time>2026-04-12T10:54:52Z</time></trkpt><trkpt lat="41.40099268190987" lon="13.987202008019056"><ele>144.00000000000003</ele><time>2026-04-12T10:54:53Z</time></trkpt><trkpt lat="41.40106054735287" lon="13.987177185587267"><ele>144.0</ele><time>2026-04-12T10:54:54Z</time></trkpt><trkpt lat="41.4011259822528" lon="13.987155803129344"><ele>144.0</ele><time>2026-04-12T10:54:55Z</time></trkpt><trkpt lat="41.40118777033633" lon="13.98711249615704"><ele>144.0</ele><time>2026-04-12T10:54:56Z</time></trkpt><trkpt lat="41.40125226043742" lon="13.987047769850145"><ele>144.0</ele><time>2026-04-12T10:54:57Z</time></trkpt><trkpt lat="41.40130857053848" lon="13.986994071812173"><ele>144.00000000000003</ele><time>2026-04-12T10:54:58Z</time></trkpt><trkpt lat="41.40137444414525" lon="13.986962262887603"><ele>144.0</ele><time>2026-04-12T11:10:23Z</time></trkpt><trkpt lat="41.40143475531229" lon="13.986914879634051"><ele>143.4</ele><time>2026-04-12T11:10:26Z</time></trkpt><trkpt lat="41.401570355622" lon="13.986892290777083"><ele>142.8</ele><time>2026-04-12T11:11:08.001Z</time></trkpt><trkpt lat="41.40163108268284" lon="13.986864681987528"><ele>142.2</ele><time>2026-04-12T11:11:10.001Z</time></trkpt><trkpt lat="41.40169961550778" lon="13.986822894197486"><ele>141.6</ele><time>2026-04-12T11:11:12.001Z</time></trkpt><trkpt lat="41.40176882928892" lon="13.986797145074544"><ele>141.0</ele><time>2026-04-12T11:11:14.001Z</time></trkpt><trkpt lat="41.401881036219585" lon="13.986767379881307"><ele>141.0</ele><time>2026-04-12T11:11:17.001Z</time></trkpt><trkpt lat="41.40195894452787" lon="13.986682120693468"><ele>141.0</ele><time>2026-04-12T11:11:19.001Z</time></trkpt><trkpt lat="41.40199581873203" lon="13.986571722582976"><ele>141.0</ele><time>2026-04-12T11:11:21.001Z</time></trkpt><trkpt lat="41.40201935247283" lon="13.986489370095619"><ele>141.0</ele><time>2026-04-12T11:11:22.001Z</time></trkpt><trkpt lat="41.402022488335156" lon="13.986401413414267"><ele>141.0</ele><time>2026-04-12T11:11:24.001Z</time></trkpt><trkpt lat="41.402035331886864" lon="13.986278383584509"><ele>141.0</ele><time>2026-04-12T11:11:26.001Z</time></trkpt><trkpt lat="41.40205459109761" lon="13.986151419168726"><ele>142.4</ele><time>2026-04-12T11:11:27.001Z</time></trkpt><trkpt lat="41.40206769461147" lon="13.986030880674921"><ele>143.8</ele><time>2026-04-12T11:11:28.001Z</time></trkpt><trkpt lat="41.40203125881361" lon="13.985903065285552"><ele>145.20000000000002</ele><time>2026-04-12T11:11:29.001Z</time></trkpt><trkpt lat="41.40202117511048" lon="13.985729614585866"><ele>146.6</ele><time>2026-04-12T11:11:30.001Z</time></trkpt><trkpt lat="41.40198022179891" lon="13.985607321305714"><ele>148.0</ele><time>2026-04-12T11:11:31.001Z</time></trkpt><trkpt lat="41.40194458354902" lon="13.985504104182048"><ele>148.4</ele><time>2026-04-12T11:11:32.001Z</time></trkpt><trkpt lat="41.40191788548626" lon="13.985419427595987"><ele>148.8</ele><time>2026-04-12T11:11:35.001Z</time></trkpt><trkpt lat="41.402016087735866" lon="13.98533010156145"><ele>149.2</ele><time>2026-04-12T11:11:37.001Z</time></trkpt><trkpt lat="41.402119598928074" lon="13.985289950096849"><ele>149.6</ele><time>2026-04-12T11:11:38.001Z</time></trkpt><trkpt lat="41.40220838084337" lon="13.985235671313237"><ele>150.0</ele><time>2026-04-12T11:11:39.001Z</time></trkpt><trkpt lat="41.40227500645929" lon="13.985181861172803"><ele>149.0</ele><time>2026-04-12T11:11:40.001Z</time></trkpt><trkpt lat="41.40235680727415" lon="13.985163672574123"><ele>148.0</ele><time>2026-04-12T11:11:41.001Z</time></trkpt><trkpt lat="41.402444215613066" lon="13.985148655365625"><ele>147.0</ele><time>2026-04-12T11:11:42.001Z</time></trkpt><trkpt lat="41.402555329253666" lon="13.98517296564591"><ele>146.0</ele><time>2026-04-12T11:11:43.001Z</time></trkpt><trkpt lat="41.402677984510014" lon="13.985195037658375"><ele>145.0</ele><time>2026-04-12T11:11:44.001Z</time></trkpt><trkpt lat="41.4027887313671" lon="13.985237400979639"><ele>145.0</ele><time>2026-04-12T11:11:45.001Z</time></trkpt><trkpt lat="41.402906936203316" lon="13.985244263084248"><ele>145.0</ele><time>2026-04-12T11:11:46.001Z</time></trkpt><trkpt lat="41.40300622056457" lon="13.985291407494886"><ele>145.0</ele><time>2026-04-12T11:11:47.001Z</time></trkpt><trkpt lat="41.40309031909594" lon="13.985363580707546"><ele>145.0</ele><time>2026-04-12T11:11:48.001Z</time></trkpt><trkpt lat="41.40316382781317" lon="13.985442892682727"><ele>145.0</ele><time>2026-04-12T11:11:49.001Z</time></trkpt><trkpt lat="41.40321729250672" lon="13.9854885560645"><ele>141.75</ele><time>2026-04-12T11:11:50.001Z</time></trkpt><trkpt lat="41.40327825322687" lon="13.985631384919982"><ele>138.5</ele><time>2026-04-12T11:11:52.001Z</time></trkpt><trkpt lat="41.40334213782511" lon="13.985754202885714"><ele>135.25</ele><time>2026-04-12T11:11:54.001Z</time></trkpt><trkpt lat="41.403434401991234" lon="13.985815936678295"><ele>132.0</ele><time>2026-04-12T11:11:55.001Z</time></trkpt><trkpt lat="41.403646885849554" lon="13.985680986673385"><ele>132.0</ele><time>2026-04-12T11:11:56.001Z</time></trkpt><trkpt lat="41.403713099789776" lon="13.985735118478164"><ele>132.0</ele><time>2026-04-12T11:11:57.001Z</time></trkpt><trkpt lat="41.40376232143388" lon="13.985798590133443"><ele>132.0</ele><time>2026-04-12T11:11:58.001Z</time></trkpt><trkpt lat="41.40384566500373" lon="13.985937414924502"><ele>132.0</ele><time>2026-04-12T11:12:00Z</time></trkpt><trkpt lat="41.4038850052473" lon="13.986054128188771"><ele>132.0</ele><time>2026-04-12T11:12:01Z</time></trkpt><trkpt lat="41.4039307576246" lon="13.986154208052247"><ele>130.0</ele><time>2026-04-12T11:12:02Z</time></trkpt><trkpt lat="41.403961916427725" lon="13.986233412030927"><ele>128.0</ele><time>2026-04-12T11:12:03Z</time></trkpt><trkpt lat="41.40399916401257" lon="13.98630390519265"><ele>126.0</ele><time>2026-04-12T11:12:04Z</time></trkpt><trkpt lat="41.40406412384992" lon="13.986366846425828"><ele>124.0</ele><time>2026-04-12T11:12:05Z</time></trkpt><trkpt lat="41.40414644894085" lon="13.986416095485874"><ele>122.0</ele><time>2026-04-12T11:12:06Z</time></trkpt><trkpt lat="41.40421818093913" lon="13.98643684834395"><ele>120.0</ele><time>2026-04-12T11:12:07Z</time></trkpt><trkpt lat="41.404316855639834" lon="13.98642782351415"><ele>120.0</ele><time>2026-04-12T11:12:08Z</time></trkpt><trkpt lat="41.40443668524526" lon="13.986385797271629"><ele>120.0</ele><time>2026-04-12T11:12:09Z</time></trkpt><trkpt lat="41.40452508851451" lon="13.986369322641197"><ele>120.0</ele><time>2026-04-12T11:12:10Z</time></trkpt><trkpt lat="41.40478362084418" lon="13.986301022562918"><ele>119.2</ele><time>2026-04-12T11:12:14Z</time></trkpt><trkpt lat="41.4047950297086" lon="13.986181616952328"><ele>118.4</ele><time>2026-04-12T11:12:15Z</time></trkpt><trkpt lat="41.404865150779344" lon="13.98599409027884"><ele>117.6</ele><time>2026-04-12T11:12:17Z</time></trkpt><trkpt lat="41.40488650743281" lon="13.98590369743066"><ele>116.8</ele><time>2026-04-12T11:12:18Z</time></trkpt><trkpt lat="41.40490520135055" lon="13.985765935356426"><ele>116.0</ele><time>2026-04-12T11:12:21Z</time></trkpt><trkpt lat="41.404915614820894" lon="13.985677264948293"><ele>116.00000000000001</ele><time>2026-04-12T11:12:23Z</time></trkpt><trkpt lat="41.40490264118605" lon="13.985587659844022"><ele>116.0</ele><time>2026-04-12T11:12:25Z</time></trkpt><trkpt lat="41.40494570387253" lon="13.985514137125339"><ele>116.00000000000001</ele><time>2026-04-12T11:12:27Z</time></trkpt><trkpt lat="41.40499449248472" lon="13.985436376460495"><ele>116.00000000000001</ele><time>2026-04-12T11:12:28Z</time></trkpt><trkpt lat="41.405017837175336" lon="13.985345507039783"><ele>116.0</ele><time>2026-04-12T11:12:29Z</time></trkpt><trkpt lat="41.40503633603489" lon="13.985253448428788"><ele>116.00000000000001</ele><time>2026-04-12T11:12:30Z</time></trkpt><trkpt lat="41.40507355803291" lon="13.985166434404757"><ele>116.00000000000001</ele><time>2026-04-12T11:12:33Z</time></trkpt><trkpt lat="41.40513736282511" lon="13.985119194268126"><ele>115.99999999999999</ele><time>2026-04-12T11:12:35Z</time></trkpt><trkpt lat="41.40511182484436" lon="13.985041339625072"><ele>116.0</ele><time>2026-04-12T11:12:37Z</time></trkpt><trkpt lat="41.405078317823126" lon="13.98494879369458"><ele>116.0</ele><time>2026-04-12T11:12:38Z</time></trkpt><trkpt lat="41.40503416513515" lon="13.984844020381354"><ele>116.0</ele><time>2026-04-12T11:12:40Z</time></trkpt><trkpt lat="41.40497480243957" lon="13.984805449989995"><ele>115.99999999999999</ele><time>2026-04-12T11:12:42Z</time></trkpt><trkpt lat="41.40497483857079" lon="13.984645611627855"><ele>116.0</ele><time>2026-04-12T11:12:44Z</time></trkpt><trkpt lat="41.40501121856941" lon="13.984531350322907"><ele>117.16666666666666</ele><time>2026-04-12T11:12:46Z</time></trkpt><trkpt lat="41.405072854512994" lon="13.98450278881931"><ele>118.33333333333333</ele><time>2026-04-12T11:12:47Z</time></trkpt><trkpt lat="41.40513615826802" lon="13.98445518205103"><ele>119.5</ele><time>2026-04-12T11:12:49Z</time></trkpt><trkpt lat="41.40522567232187" lon="13.984383690573056"><ele>120.66666666666666</ele><time>2026-04-12T11:12:51Z</time></trkpt><trkpt lat="41.405304299471354" lon="13.984342856623693"><ele>121.83333333333333</ele><time>2026-04-12T11:12:53Z</time></trkpt><trkpt lat="41.40536485656568" lon="13.984291255021411"><ele>123.0</ele><time>2026-04-12T11:12:54Z</time></trkpt><trkpt lat="41.40541402360121" lon="13.984237021750664"><ele>123.0</ele><time>2026-04-12T11:12:55Z</time></trkpt><trkpt lat="41.405484697681366" lon="13.984213489330758"><ele>123.00000000000001</ele><time>2026-04-12T11:12:56Z</time></trkpt><trkpt lat="41.40561863895444" lon="13.984199282291163"><ele>123.00000000000001</ele><time>2026-04-12T11:12:58Z</time></trkpt><trkpt lat="41.40570201603743" lon="13.984186636145168"><ele>123.0</ele><time>2026-04-12T11:12:59Z</time></trkpt><trkpt lat="41.4057833913475" lon="13.984164911091252"><ele>123.0</ele><time>2026-04-12T11:13:00Z</time></trkpt><trkpt lat="41.40593617287584" lon="13.984180225932"><ele>122.5</ele><time>2026-04-12T11:13:02Z</time></trkpt><trkpt lat="41.406120612302566" lon="13.984160740317451"><ele>122.0</ele><time>2026-04-12T11:13:05Z</time></trkpt><trkpt lat="41.40618896725844" lon="13.984154187688853"><ele>121.5</ele><time>2026-04-12T11:13:06Z</time></trkpt><trkpt lat="41.40627224375596" lon="13.98415123718845"><ele>121.0</ele><time>2026-04-12T11:13:07Z</time></trkpt><trkpt lat="41.40638597498454" lon="13.984131899006456"><ele>121.00000000000001</ele><time>2026-04-12T11:13:09Z</time></trkpt><trkpt lat="41.40649303122274" lon="13.984134548888152"><ele>121.0</ele><time>2026-04-12T11:13:11Z</time></trkpt><trkpt lat="41.40655180597438" lon="13.984087163724517"><ele>121.0</ele><time>2026-04-12T11:13:13Z</time></trkpt><trkpt lat="41.40662826614533" lon="13.98401789773293"><ele>121.0</ele><time>2026-04-12T11:13:15Z</time></trkpt><trkpt lat="41.40665756749804" lon="13.983934942625085"><ele>121.00000000000001</ele><time>2026-04-12T11:13:17Z</time></trkpt><trkpt lat="41.40665673715244" lon="13.983841163877523"><ele>121.0</ele><time>2026-04-12T11:13:18Z</time></trkpt><trkpt lat="41.40667793252166" lon="13.983731432030744"><ele>121.0</ele><time>2026-04-12T11:13:19Z</time></trkpt><trkpt lat="41.406694762730915" lon="13.983555138868489"><ele>121.0</ele><time>2026-04-12T11:13:21Z</time></trkpt><trkpt lat="41.40672660812997" lon="13.983463860183756"><ele>121.0</ele><time>2026-04-12T11:13:22Z</time></trkpt><trkpt lat="41.40677024816149" lon="13.983351643059587"><ele>121.0</ele><time>2026-04-12T11:13:24Z</time></trkpt><trkpt lat="41.40688545169575" lon="13.983258403735475"><ele>121.0</ele><time>2026-04-12T11:13:29Z</time></trkpt><trkpt lat="41.4069560519765" lon="13.983254391825268"><ele>121.0</ele><time>2026-04-12T11:13:34.001Z</time></trkpt><trkpt lat="41.40702943600742" lon="13.983293766277368"><ele>121.0</ele><time>2026-04-12T11:13:35.001Z</time></trkpt><trkpt lat="41.40711988334918" lon="13.983340101064554"><ele>121.0</ele><time>2026-04-12T11:13:36.001Z</time></trkpt><trkpt lat="41.40718069177556" lon="13.983396561230785"><ele>121.0</ele><time>2026-04-12T11:13:37.001Z</time></trkpt><trkpt lat="41.40723936680271" lon="13.983458678298371"><ele>121.0</ele><time>2026-04-12T11:13:38.001Z</time></trkpt><trkpt lat="41.40712890823473" lon="13.983690897361148"><ele>122.75</ele><time>2026-04-12T11:13:39.001Z</time></trkpt><trkpt lat="41.40719359611366" lon="13.98380494380902"><ele>124.5</ele><time>2026-04-12T11:13:41.001Z</time></trkpt><trkpt lat="41.40724668684026" lon="13.98389937460156"><ele>126.25</ele><time>2026-04-12T11:13:42.001Z</time></trkpt><trkpt lat="41.40730180590304" lon="13.983997040390172"><ele>128.0</ele><time>2026-04-12T11:13:44.001Z</time></trkpt><trkpt lat="41.40764591704762" lon="13.983482115739008"><ele>125.66666666666666</ele><time>2026-04-12T11:13:46.001Z</time></trkpt><trkpt lat="41.4076853289176" lon="13.983336418240924"><ele>123.33333333333334</ele><time>2026-04-12T11:13:47.001Z</time></trkpt><trkpt lat="41.40776650483277" lon="13.983142447403266"><ele>121.0</ele><time>2026-04-12T11:13:48.001Z</time></trkpt><trkpt lat="41.407841735090045" lon="13.98292753644436"><ele>121.0</ele><time>2026-04-12T11:13:49.001Z</time></trkpt><trkpt lat="41.407937144028786" lon="13.982722860511945"><ele>121.0</ele><time>2026-04-12T11:13:50.001Z</time></trkpt><trkpt lat="41.408013718050846" lon="13.982573426179291"><ele>121.0</ele><time>2026-04-12T11:13:51.001Z</time></trkpt><trkpt lat="41.408057961204335" lon="13.98249160430626"><ele>121.0</ele><time>2026-04-12T11:13:52.001Z</time></trkpt><trkpt lat="41.40815640817904" lon="13.982436342840138"><ele>122.19999999999999</ele><time>2026-04-12T11:13:54.001Z</time></trkpt><trkpt lat="41.408287780167846" lon="13.982518836871458"><ele>123.39999999999999</ele><time>2026-04-12T11:13:56.001Z</time></trkpt><trkpt lat="41.40836782255235" lon="13.982580536473602"><ele>124.6</ele><time>2026-04-12T11:13:57.001Z</time></trkpt><trkpt lat="41.40843930317939" lon="13.98268750263094"><ele>125.8</ele><time>2026-04-12T11:13:58.001Z</time></trkpt><trkpt lat="41.40848995521103" lon="13.98278265633563"><ele>127.0</ele><time>2026-04-12T11:13:59.001Z</time></trkpt><trkpt lat="41.40857161572035" lon="13.982881415535552"><ele>127.0</ele><time>2026-04-12T11:14:00.001Z</time></trkpt><trkpt lat="41.408671956501244" lon="13.982960543535759"><ele>126.99999999999999</ele><time>2026-04-12T11:14:01.001Z</time></trkpt><trkpt lat="41.40875711647484" lon="13.983007999997076"><ele>126.99999999999999</ele><time>2026-04-12T11:14:02.001Z</time></trkpt><trkpt lat="41.40882146429382" lon="13.983007993272205"><ele>127.0</ele><time>2026-04-12T11:14:03.001Z</time></trkpt><trkpt lat="41.40889774779772" lon="13.982965232380476"><ele>127.0</ele><time>2026-04-12T11:14:04.001Z</time></trkpt><trkpt lat="41.40897732380443" lon="13.982850784441416"><ele>126.8</ele><time>2026-04-12T11:14:05.001Z</time></trkpt><trkpt lat="41.40906466371601" lon="13.982770791488601"><ele>126.6</ele><time>2026-04-12T11:14:06Z</time></trkpt><trkpt lat="41.40914356123114" lon="13.982719431791567"><ele>126.39999999999999</ele><time>2026-04-12T11:14:07Z</time></trkpt><trkpt lat="41.40921925469444" lon="13.982690970651035"><ele>126.19999999999999</ele><time>2026-04-12T11:14:08Z</time></trkpt><trkpt lat="41.40930801049615" lon="13.982702050737474"><ele>126.0</ele><time>2026-04-12T11:14:09Z</time></trkpt><trkpt lat="41.40940661196014" lon="13.982724138742098"><ele>126.0</ele><time>2026-04-12T11:14:10Z</time></trkpt><trkpt lat="41.409502476759975" lon="13.982683999348662"><ele>126.0</ele><time>2026-04-12T11:14:11Z</time></trkpt><trkpt lat="41.40959809776488" lon="13.982602507858674"><ele>126.0</ele><time>2026-04-12T11:14:12Z</time></trkpt><trkpt lat="41.40969150821308" lon="13.982516744831628"><ele>126.0</ele><time>2026-04-12T11:14:13Z</time></trkpt><trkpt lat="41.409848773980286" lon="13.982557589397949"><ele>125.5</ele><time>2026-04-12T11:14:14Z</time></trkpt><trkpt lat="41.40989801840363" lon="13.98248749889015"><ele>125.0</ele><time>2026-04-12T11:14:15Z</time></trkpt><trkpt lat="41.40998610790442" lon="13.982395209482206"><ele>124.5</ele><time>2026-04-12T11:14:16Z</time></trkpt><trkpt lat="41.410091951048074" lon="13.982282437028289"><ele>124.0</ele><time>2026-04-12T11:14:17Z</time></trkpt><trkpt lat="41.41022743572269" lon="13.982189027969381"><ele>124.0</ele><time>2026-04-12T11:14:18Z</time></trkpt><trkpt lat="41.41037227522163" lon="13.982087725973411"><ele>124.0</ele><time>2026-04-12T11:14:19Z</time></trkpt><trkpt lat="41.41051455314193" lon="13.981995522510884"><ele>124.0</ele><time>2026-04-12T11:14:20Z</time></trkpt><trkpt lat="41.410655995082585" lon="13.981901443432225"><ele>123.5</ele><time>2026-04-12T11:14:21Z</time></trkpt><trkpt lat="41.410787042864456" lon="13.9818160116599"><ele>123.0</ele><time>2026-04-12T11:14:22Z</time></trkpt><trkpt lat="41.410904119038165" lon="13.981735787484448"><ele>122.5</ele><time>2026-04-12T11:14:23Z</time></trkpt><trkpt lat="41.4110172146863" lon="13.981651352930907"><ele>122.0</ele><time>2026-04-12T11:14:24Z</time></trkpt><trkpt lat="41.411121207702685" lon="13.981566433471464"><ele>122.0</ele><time>2026-04-12T11:14:25Z</time></trkpt><trkpt lat="41.41121022402584" lon="13.981479167147485"><ele>122.0</ele><time>2026-04-12T11:14:26Z</time></trkpt><trkpt lat="41.411300273817744" lon="13.98135924174369"><ele>122.0</ele><time>2026-04-12T11:14:27Z</time></trkpt><trkpt lat="41.4113844432589" lon="13.981217593539998"><ele>122.0</ele><time>2026-04-12T11:14:28Z</time></trkpt><trkpt lat="41.41147612854992" lon="13.981067104269979"><ele>121.66666666666666</ele><time>2026-04-12T11:14:29Z</time></trkpt><trkpt lat="41.41157609078026" lon="13.980909791806853"><ele>121.33333333333334</ele><time>2026-04-12T11:14:30Z</time></trkpt><trkpt lat="41.41167327953525" lon="13.980752413560644"><ele>121.0</ele><time>2026-04-12T11:14:31Z</time></trkpt><trkpt lat="41.411767507799084" lon="13.980594633703241"><ele>121.0</ele><time>2026-04-12T11:14:32Z</time></trkpt><trkpt lat="41.41185423957393" lon="13.980449505351125"><ele>121.0</ele><time>2026-04-12T11:14:33Z</time></trkpt><trkpt lat="41.41193602704609" lon="13.980321601141998"><ele>121.0</ele><time>2026-04-12T11:14:34Z</time></trkpt><trkpt lat="41.41203167009272" lon="13.980230777797845"><ele>121.0</ele><time>2026-04-12T11:14:35Z</time></trkpt><trkpt lat="41.4120778023119" lon="13.980150596278058"><ele>121.0</ele><time>2026-04-12T11:14:36Z</time></trkpt><trkpt lat="41.41212018427502" lon="13.980074692494153"><ele>121.0</ele><time>2026-04-12T11:14:37Z</time></trkpt><trkpt lat="41.41215525714665" lon="13.980003035855905"><ele>121.0</ele><time>2026-04-12T11:14:38Z</time></trkpt><trkpt lat="41.412191570629695" lon="13.97991702260883"><ele>121.0</ele><time>2026-04-12T11:14:40Z</time></trkpt><trkpt lat="41.41202766237282" lon="13.979743745791497"><ele>121.0</ele><time>2026-04-12T11:14:41Z</time></trkpt><trkpt lat="41.41197168014705" lon="13.979626406525258"><ele>120.0</ele><time>2026-04-12T11:14:42Z</time></trkpt><trkpt lat="41.41191298318236" lon="13.979498400529195"><ele>119.0</ele><time>2026-04-12T11:14:43Z</time></trkpt><trkpt lat="41.41186011851963" lon="13.97935665407247"><ele>118.0</ele><time>2026-04-12T11:14:44Z</time></trkpt><trkpt lat="41.41180411455777" lon="13.979216678044446"><ele>117.0</ele><time>2026-04-12T11:14:45Z</time></trkpt><trkpt lat="41.41177503756428" lon="13.979125571832578"><ele>116.0</ele><time>2026-04-12T11:14:46Z</time></trkpt><trkpt lat="41.41174857928387" lon="13.97900548788529"><ele>115.4</ele><time>2026-04-12T11:14:48Z</time></trkpt><trkpt lat="41.41180901103509" lon="13.978904162070876"><ele>114.8</ele><time>2026-04-12T11:14:50Z</time></trkpt><trkpt lat="41.41175648029299" lon="13.978845592797498"><ele>114.20000000000002</ele><time>2026-04-12T11:14:53Z</time></trkpt><trkpt lat="41.411669882428775" lon="13.978830172402404"><ele>113.60000000000001</ele><time>2026-04-12T11:14:54Z</time></trkpt><trkpt lat="41.411596061458944" lon="13.978690844905424"><ele>113.0</ele><time>2026-04-12T11:14:56Z</time></trkpt><trkpt lat="41.41156445043663" lon="13.978589628113726"><ele>112.99999999999999</ele><time>2026-04-12T11:14:57Z</time></trkpt><trkpt lat="41.41154223667696" lon="13.978497698817067"><ele>113.0</ele><time>2026-04-12T11:14:58Z</time></trkpt><trkpt lat="41.411469308026305" lon="13.9784446017713"><ele>113.0</ele><time>2026-04-12T11:15:01Z</time></trkpt><trkpt lat="41.41137741260977" lon="13.978363787981971"><ele>113.0</ele><time>2026-04-12T11:15:03Z</time></trkpt><trkpt lat="41.41133356443394" lon="13.97825836106578"><ele>112.99999999999999</ele><time>2026-04-12T11:15:05Z</time></trkpt><trkpt lat="41.411345697723256" lon="13.97814878003082"><ele>113.0</ele><time>2026-04-12T11:15:06Z</time></trkpt><trkpt lat="41.41139258286917" lon="13.978081602403062"><ele>112.80000000000001</ele><time>2026-04-12T11:15:07Z</time></trkpt><trkpt lat="41.41145528364578" lon="13.97799510386672"><ele>112.60000000000001</ele><time>2026-04-12T11:15:08Z</time></trkpt><trkpt lat="41.41150654022226" lon="13.977888346803383"><ele>112.39999999999999</ele><time>2026-04-12T11:15:09Z</time></trkpt><trkpt lat="41.41158003893164" lon="13.977807715886405"><ele>112.19999999999999</ele><time>2026-04-12T11:15:10Z</time></trkpt><trkpt lat="41.41166418187164" lon="13.977717420645453"><ele>112.0</ele><time>2026-04-12T11:15:12Z</time></trkpt><trkpt lat="41.4116896430544" lon="13.977619611508652"><ele>111.50000000000001</ele><time>2026-04-12T11:15:14Z</time></trkpt><trkpt lat="41.41169629601409" lon="13.977499952751906"><ele>111.0</ele><time>2026-04-12T11:15:17Z</time></trkpt><trkpt lat="41.411670858261225" lon="13.977393813807101"><ele>110.5</ele><time>2026-04-12T11:15:18Z</time></trkpt><trkpt lat="41.41164846935309" lon="13.97730445542451"><ele>110.0</ele><time>2026-04-12T11:15:19Z</time></trkpt><trkpt lat="41.41164218352883" lon="13.97721430638643"><ele>109.50000000000001</ele><time>2026-04-12T11:15:20Z</time></trkpt><trkpt lat="41.41163259746914" lon="13.977091966095653"><ele>109.0</ele><time>2026-04-12T11:15:21Z</time></trkpt><trkpt lat="41.411627515590204" lon="13.977001123939738"><ele>109.00000000000001</ele><time>2026-04-12T11:15:22Z</time></trkpt><trkpt lat="41.41158379055942" lon="13.976903827419138"><ele>109.0</ele><time>2026-04-12T11:15:24Z</time></trkpt><trkpt lat="41.41154696502377" lon="13.976829346327335"><ele>109.0</ele><time>2026-04-12T11:15:26Z</time></trkpt><trkpt lat="41.411488887763866" lon="13.976718187169794"><ele>109.0</ele><time>2026-04-12T11:15:28Z</time></trkpt><trkpt lat="41.411477928533174" lon="13.976629462371479"><ele>109.00000000000001</ele><time>2026-04-12T11:15:29Z</time></trkpt><trkpt lat="41.41149280539787" lon="13.976515261321556"><ele>109.0</ele><time>2026-04-12T11:15:31.001Z</time></trkpt><trkpt lat="41.41154706508043" lon="13.976432056832005"><ele>108.4</ele><time>2026-04-12T11:15:34.001Z</time></trkpt><trkpt lat="41.41160562291044" lon="13.97639632757901"><ele>107.80000000000001</ele><time>2026-04-12T11:15:36.001Z</time></trkpt><trkpt lat="41.411669998653544" lon="13.976374071311618"><ele>107.19999999999999</ele><time>2026-04-12T11:15:39.001Z</time></trkpt><trkpt lat="41.411723191151324" lon="13.976197873841386"><ele>106.6</ele><time>2026-04-12T11:15:45.001Z</time></trkpt><trkpt lat="41.41173202340853" lon="13.976090166690541"><ele>106.0</ele><time>2026-04-12T11:15:46.001Z</time></trkpt><trkpt lat="41.41171792029312" lon="13.975791046136433"><ele>106.00000000000001</ele><time>2026-04-12T11:15:48.001Z</time></trkpt><trkpt lat="41.41169650873383" lon="13.975677646131459"><ele>106.0</ele><time>2026-04-12T11:15:49.001Z</time></trkpt><trkpt lat="41.41169214152066" lon="13.97558487091022"><ele>106.0</ele><time>2026-04-12T11:15:50.001Z</time></trkpt><trkpt lat="41.41170468609382" lon="13.975502537999198"><ele>106.0</ele><time>2026-04-12T11:15:51.001Z</time></trkpt><trkpt lat="41.41170586647246" lon="13.975352806148011"><ele>106.00000000000001</ele><time>2026-04-12T11:15:53.001Z</time></trkpt><trkpt lat="41.41174836242128" lon="13.97526247355974"><ele>106.0</ele><time>2026-04-12T11:15:54.001Z</time></trkpt><trkpt lat="41.41176268102401" lon="13.975176987957555"><ele>106.00000000000001</ele><time>2026-04-12T11:15:55.001Z</time></trkpt><trkpt lat="41.41177455841716" lon="13.975066410913513"><ele>106.0</ele><time>2026-04-12T11:15:58.001Z</time></trkpt><trkpt lat="41.411688647379215" lon="13.97511711531493"><ele>106.0</ele><time>2026-04-12T11:16:00.001Z</time></trkpt><trkpt lat="41.41163100045081" lon="13.975162926987355"><ele>106.0</ele><time>2026-04-12T11:16:01.001Z</time></trkpt><trkpt lat="41.41159592531082" lon="13.975293574875069"><ele>106.00000000000001</ele><time>2026-04-12T11:16:03.001Z</time></trkpt><trkpt lat="41.41160515834962" lon="13.975382914951387"><ele>106.0</ele><time>2026-04-12T11:16:09.001Z</time></trkpt><trkpt lat="41.41155285170709" lon="13.975459228543361"><ele>106.0</ele><time>2026-04-12T11:16:11.001Z</time></trkpt><trkpt lat="41.411428028048846" lon="13.97547636630736"><ele>106.0</ele><time>2026-04-12T11:16:13Z</time></trkpt><trkpt lat="41.41133834371388" lon="13.975330086619866"><ele>106.0</ele><time>2026-04-12T11:16:17Z</time></trkpt><trkpt lat="41.41144130087843" lon="13.975061225644238"><ele>108.5</ele><time>2026-04-12T11:16:18Z</time></trkpt><trkpt lat="41.41158943660492" lon="13.97479032936157"><ele>111.0</ele><time>2026-04-12T11:16:19Z</time></trkpt><trkpt lat="41.41171179352936" lon="13.974541111544506"><ele>111.0</ele><time>2026-04-12T11:16:20Z</time></trkpt><trkpt lat="41.411787095720925" lon="13.974410283691567"><ele>111.0</ele><time>2026-04-12T11:16:21Z</time></trkpt><trkpt lat="41.41187514703367" lon="13.974294781972917"><ele>111.0</ele><time>2026-04-12T11:16:22Z</time></trkpt><trkpt lat="41.41190118499971" lon="13.974181723822038"><ele>111.0</ele><time>2026-04-12T11:16:23Z</time></trkpt><trkpt lat="41.41189049992314" lon="13.974065863681636"><ele>111.0</ele><time>2026-04-12T11:16:24Z</time></trkpt><trkpt lat="41.41188646343943" lon="13.973956790333155"><ele>111.75</ele><time>2026-04-12T11:16:25Z</time></trkpt><trkpt lat="41.41190721772903" lon="13.97377754945257"><ele>112.5</ele><time>2026-04-12T11:16:26Z</time></trkpt><trkpt lat="41.41201553104541" lon="13.97364448461503"><ele>113.25</ele><time>2026-04-12T11:16:27Z</time></trkpt><trkpt lat="41.41207924922033" lon="13.973489085921353"><ele>114.0</ele><time>2026-04-12T11:16:28Z</time></trkpt><trkpt lat="41.41217666017705" lon="13.973365137404107"><ele>111.66666666666666</ele><time>2026-04-12T11:16:29Z</time></trkpt><trkpt lat="41.41232663013286" lon="13.973155028835285"><ele>109.33333333333333</ele><time>2026-04-12T11:16:30Z</time></trkpt><trkpt lat="41.41241952588251" lon="13.972998914334402"><ele>107.0</ele><time>2026-04-12T11:16:31Z</time></trkpt><trkpt lat="41.412493520244674" lon="13.972887933464241"><ele>107.0</ele><time>2026-04-12T11:16:32Z</time></trkpt><trkpt lat="41.41256832784661" lon="13.972795309039576"><ele>106.99999999999999</ele><time>2026-04-12T11:16:33Z</time></trkpt><trkpt lat="41.41266865693685" lon="13.972730513534767"><ele>106.99999999999999</ele><time>2026-04-12T11:16:34Z</time></trkpt><trkpt lat="41.41276016581843" lon="13.972648931506075"><ele>107.0</ele><time>2026-04-12T11:16:35Z</time></trkpt><trkpt lat="41.41284468586521" lon="13.972559477105225"><ele>107.0</ele><time>2026-04-12T11:16:36Z</time></trkpt><trkpt lat="41.412918855608936" lon="13.972453138180233"><ele>106.39999999999999</ele><time>2026-04-12T11:16:37Z</time></trkpt><trkpt lat="41.41296833794546" lon="13.972356088249501"><ele>105.79999999999998</ele><time>2026-04-12T11:16:38Z</time></trkpt><trkpt lat="41.41301032388844" lon="13.972177174204127"><ele>105.2</ele><time>2026-04-12T11:16:39Z</time></trkpt><trkpt lat="41.41300103682184" lon="13.972091582111336"><ele>104.6</ele><time>2026-04-12T11:16:41Z</time></trkpt><trkpt lat="41.41303043250513" lon="13.971938188741863"><ele>104.0</ele><time>2026-04-12T11:16:42Z</time></trkpt><trkpt lat="41.41304068029088" lon="13.971773365797695"><ele>104.25</ele><time>2026-04-12T11:16:43Z</time></trkpt><trkpt lat="41.413031256203155" lon="13.971531558234439"><ele>104.5</ele><time>2026-04-12T11:16:44Z</time></trkpt><trkpt lat="41.41302240803479" lon="13.971373904700872"><ele>104.75</ele><time>2026-04-12T11:16:45Z</time></trkpt><trkpt lat="41.412999368690485" lon="13.97120329129427"><ele>105.0</ele><time>2026-04-12T11:16:46Z</time></trkpt><trkpt lat="41.413000378262346" lon="13.971083748341014"><ele>105.0</ele><time>2026-04-12T11:16:47Z</time></trkpt><trkpt lat="41.41298797973938" lon="13.97096343100086"><ele>105.0</ele><time>2026-04-12T11:16:48Z</time></trkpt><trkpt lat="41.41297655916083" lon="13.970848701231589"><ele>105.0</ele><time>2026-04-12T11:16:49Z</time></trkpt><trkpt lat="41.41298943624448" lon="13.970684859148525"><ele>105.0</ele><time>2026-04-12T11:16:50Z</time></trkpt><trkpt lat="41.41300212489268" lon="13.97051478712126"><ele>105.0</ele><time>2026-04-12T11:16:51Z</time></trkpt><trkpt lat="41.41300285310784" lon="13.970293591164282"><ele>105.0</ele><time>2026-04-12T11:16:52Z</time></trkpt><trkpt lat="41.41302389889723" lon="13.970067778379388"><ele>105.0</ele><time>2026-04-12T11:16:53Z</time></trkpt><trkpt lat="41.41303083302556" lon="13.969900447006802"><ele>105.0</ele><time>2026-04-12T11:16:54Z</time></trkpt><trkpt lat="41.413090126380276" lon="13.969724933596238"><ele>105.0</ele><time>2026-04-12T11:16:55Z</time></trkpt><trkpt lat="41.413165799211555" lon="13.969579890634735"><ele>105.16666666666667</ele><time>2026-04-12T11:16:56Z</time></trkpt><trkpt lat="41.41324054210726" lon="13.9694578923807"><ele>105.33333333333334</ele><time>2026-04-12T11:16:57Z</time></trkpt><trkpt lat="41.41325187451949" lon="13.969374373911378"><ele>105.5</ele><time>2026-04-12T11:16:58Z</time></trkpt><trkpt lat="41.413255424511476" lon="13.969257446155272"><ele>105.66666666666667</ele><time>2026-04-12T11:16:59Z</time></trkpt><trkpt lat="41.413267978661295" lon="13.96916083888447"><ele>105.83333333333334</ele><time>2026-04-12T11:17:00Z</time></trkpt><trkpt lat="41.41322600403955" lon="13.969037289304195"><ele>106.0</ele><time>2026-04-12T11:17:02Z</time></trkpt><trkpt lat="41.41311756796438" lon="13.968971602442108"><ele>105.50000000000001</ele><time>2026-04-12T11:17:04Z</time></trkpt><trkpt lat="41.413037584532894" lon="13.968921976027612"><ele>105.0</ele><time>2026-04-12T11:17:05Z</time></trkpt><trkpt lat="41.41294024651486" lon="13.96887965641613"><ele>104.5</ele><time>2026-04-12T11:17:06Z</time></trkpt><trkpt lat="41.412895693183955" lon="13.968798356865916"><ele>104.0</ele><time>2026-04-12T11:17:07Z</time></trkpt><trkpt lat="41.41283434007374" lon="13.968742559904896"><ele>103.50000000000001</ele><time>2026-04-12T11:17:08Z</time></trkpt><trkpt lat="41.41278169987416" lon="13.968695674137582"><ele>103.0</ele><time>2026-04-12T11:17:09Z</time></trkpt><trkpt lat="41.412951013814805" lon="13.968599590615188"><ele>103.0</ele><time>2026-04-12T11:17:13Z</time></trkpt><trkpt lat="41.41302665015916" lon="13.968553778785525"><ele>103.0</ele><time>2026-04-12T11:17:14Z</time></trkpt><trkpt lat="41.41311772621862" lon="13.968460289648126"><ele>103.0</ele><time>2026-04-12T11:17:15Z</time></trkpt><trkpt lat="41.41322255641312" lon="13.968350151998582"><ele>103.0</ele><time>2026-04-12T11:17:16Z</time></trkpt><trkpt lat="41.41335595715594" lon="13.968188390115294"><ele>103.33333333333334</ele><time>2026-04-12T11:17:17Z</time></trkpt><trkpt lat="41.41349925304825" lon="13.968026575020975"><ele>103.66666666666666</ele><time>2026-04-12T11:17:18Z</time></trkpt><trkpt lat="41.413655182344264" lon="13.96786633263683"><ele>104.0</ele><time>2026-04-12T11:17:19Z</time></trkpt><trkpt lat="41.41379310597523" lon="13.967728670406489"><ele>104.25</ele><time>2026-04-12T11:17:20Z</time></trkpt><trkpt lat="41.41392893396049" lon="13.967627034454278"><ele>104.5</ele><time>2026-04-12T11:17:21Z</time></trkpt><trkpt lat="41.414052992352644" lon="13.967550682754926"><ele>104.75</ele><time>2026-04-12T11:17:22Z</time></trkpt><trkpt lat="41.414162831218555" lon="13.967506696146607"><ele>105.0</ele><time>2026-04-12T11:17:23Z</time></trkpt><trkpt lat="41.414280697390055" lon="13.967396861599902"><ele>105.75</ele><time>2026-04-12T11:17:24Z</time></trkpt><trkpt lat="41.41438972856237" lon="13.967279891673225"><ele>106.5</ele><time>2026-04-12T11:17:25Z</time></trkpt><trkpt lat="41.4144952881602" lon="13.967135728025351"><ele>107.25</ele><time>2026-04-12T11:17:26Z</time></trkpt><trkpt lat="41.41457578654813" lon="13.967041009246424"><ele>108.0</ele><time>2026-04-12T11:17:27Z</time></trkpt><trkpt lat="41.41463754167379" lon="13.966973149715159"><ele>107.83333333333333</ele><time>2026-04-12T11:17:28Z</time></trkpt><trkpt lat="41.41474068446793" lon="13.966960413325728"><ele>107.66666666666666</ele><time>2026-04-12T11:17:30Z</time></trkpt><trkpt lat="41.414801857585644" lon="13.96701551683613"><ele>107.5</ele><time>2026-04-12T11:17:31Z</time></trkpt><trkpt lat="41.41486597637113" lon="13.967092287620835"><ele>107.33333333333333</ele><time>2026-04-12T11:17:32Z</time></trkpt><trkpt lat="41.414927957095735" lon="13.967115004360158"><ele>107.16666666666666</ele><time>2026-04-12T11:17:33Z</time></trkpt><trkpt lat="41.41499013603743" lon="13.96705678387838"><ele>107.0</ele><time>2026-04-12T11:17:34Z</time></trkpt><trkpt lat="41.41502169096551" lon="13.966931764779094"><ele>107.0</ele><time>2026-04-12T11:17:36Z</time></trkpt><trkpt lat="41.41507080496821" lon="13.966656127828681"><ele>107.0</ele><time>2026-04-12T11:17:38Z</time></trkpt><trkpt lat="41.41508834066889" lon="13.966503798696301"><ele>107.0</ele><time>2026-04-12T11:17:39Z</time></trkpt><trkpt lat="41.4151024346352" lon="13.966402687661567"><ele>107.0</ele><time>2026-04-12T11:17:40Z</time></trkpt><trkpt lat="41.415218702336865" lon="13.966455673122477"><ele>107.0</ele><time>2026-04-12T11:17:43Z</time></trkpt><trkpt lat="41.41526536532489" lon="13.96651761145881"><ele>107.0</ele><time>2026-04-12T11:17:44Z</time></trkpt><trkpt lat="41.4153234469862" lon="13.966596356502276"><ele>107.0</ele><time>2026-04-12T11:17:45Z</time></trkpt><trkpt lat="41.415456788390856" lon="13.966762286785332"><ele>107.0</ele><time>2026-04-12T11:17:46Z</time></trkpt><trkpt lat="41.41555384431979" lon="13.966948584450348"><ele>105.0</ele><time>2026-04-12T11:17:47Z</time></trkpt><trkpt lat="41.41560287929038" lon="13.9671578059732"><ele>103.0</ele><time>2026-04-12T11:17:48Z</time></trkpt><trkpt lat="41.41565280659568" lon="13.967407412016145"><ele>101.0</ele><time>2026-04-12T11:17:49Z</time></trkpt><trkpt lat="41.415708934697214" lon="13.967678228790637"><ele>100.66666666666666</ele><time>2026-04-12T11:17:50.001Z</time></trkpt><trkpt lat="41.415766261259215" lon="13.967949936786072"><ele>100.33333333333334</ele><time>2026-04-12T11:17:51.001Z</time></trkpt><trkpt lat="41.41582865657733" lon="13.968241855895915"><ele>100.0</ele><time>2026-04-12T11:17:52.001Z</time></trkpt><trkpt lat="41.41588997890452" lon="13.96852639346186"><ele>99.66666666666667</ele><time>2026-04-12T11:17:53.001Z</time></trkpt><trkpt lat="41.41594554169699" lon="13.968782741055486"><ele>99.33333333333334</ele><time>2026-04-12T11:17:54.001Z</time></trkpt><trkpt lat="41.41599537867256" lon="13.969012415016826"><ele>99.0</ele><time>2026-04-12T11:17:55.001Z</time></trkpt><trkpt lat="41.41604286099579" lon="13.969228726939843"><ele>99.0</ele><time>2026-04-12T11:17:56.001Z</time></trkpt><trkpt lat="41.41607862197172" lon="13.969395348837367"><ele>99.0</ele><time>2026-04-12T11:17:57.001Z</time></trkpt><trkpt lat="41.416094297408826" lon="13.969524496878375"><ele>99.0</ele><time>2026-04-12T11:17:58.001Z</time></trkpt><trkpt lat="41.416099695870564" lon="13.96965135256232"><ele>99.0</ele><time>2026-04-12T11:17:59.001Z</time></trkpt><trkpt lat="41.416095545339104" lon="13.969736134993713"><ele>99.0</ele><time>2026-04-12T11:18:01.001Z</time></trkpt><trkpt lat="41.41629609329446" lon="13.96970111809175"><ele>97.75</ele><time>2026-04-12T11:18:03.001Z</time></trkpt><trkpt lat="41.416414580899655" lon="13.969664294981431"><ele>96.5</ele><time>2026-04-12T11:18:04.001Z</time></trkpt><trkpt lat="41.416538044314166" lon="13.969591167104435"><ele>95.25</ele><time>2026-04-12T11:18:05.001Z</time></trkpt><trkpt lat="41.4167025474052" lon="13.96954004738592"><ele>94.0</ele><time>2026-04-12T11:18:06.001Z</time></trkpt><trkpt lat="41.41680544056243" lon="13.96949286152111"><ele>94.0</ele><time>2026-04-12T11:18:07.001Z</time></trkpt><trkpt lat="41.41688168759853" lon="13.969427080529208"><ele>94.0</ele><time>2026-04-12T11:18:08.001Z</time></trkpt><trkpt lat="41.416955866640585" lon="13.969384435043105"><ele>94.0</ele><time>2026-04-12T11:18:09.001Z</time></trkpt><trkpt lat="41.41697036474901" lon="13.96926545128826"><ele>94.0</ele><time>2026-04-12T11:18:10.001Z</time></trkpt><trkpt lat="41.41696049583406" lon="13.969125189660046"><ele>94.0</ele><time>2026-04-12T11:18:11.001Z</time></trkpt><trkpt lat="41.41692688380093" lon="13.968946727783528"><ele>94.33333333333333</ele><time>2026-04-12T11:18:12.001Z</time></trkpt><trkpt lat="41.416872078958455" lon="13.968742660005642"><ele>94.66666666666667</ele><time>2026-04-12T11:18:13.001Z</time></trkpt><trkpt lat="41.41682539275587" lon="13.96849193874458"><ele>95.0</ele><time>2026-04-12T11:18:14.001Z</time></trkpt><trkpt lat="41.41674189917926" lon="13.968239032169894"><ele>97.0</ele><time>2026-04-12T11:18:15.001Z</time></trkpt><trkpt lat="41.41667434553225" lon="13.967990366749772"><ele>99.0</ele><time>2026-04-12T11:18:16.001Z</time></trkpt><trkpt lat="41.416603199147765" lon="13.967777279924851"><ele>101.0</ele><time>2026-04-12T11:18:17.001Z</time></trkpt><trkpt lat="41.41655246707114" lon="13.967611057203715"><ele>103.75</ele><time>2026-04-12T11:18:18Z</time></trkpt><trkpt lat="41.416534673880726" lon="13.967478105437511"><ele>106.5</ele><time>2026-04-12T11:18:19Z</time></trkpt><trkpt lat="41.41657966508759" lon="13.96735917647767"><ele>109.25</ele><time>2026-04-12T11:18:20Z</time></trkpt><trkpt lat="41.4166268427894" lon="13.967232333031511"><ele>112.0</ele><time>2026-04-12T11:18:21Z</time></trkpt><trkpt lat="41.41668041035559" lon="13.967051998131764"><ele>112.0</ele><time>2026-04-12T11:18:22Z</time></trkpt><trkpt lat="41.41672388121362" lon="13.966867315897028"><ele>112.0</ele><time>2026-04-12T11:18:23Z</time></trkpt><trkpt lat="41.416759076248816" lon="13.966677371231459"><ele>112.0</ele><time>2026-04-12T11:18:24Z</time></trkpt><trkpt lat="41.41679910409585" lon="13.966468462932164"><ele>112.0</ele><time>2026-04-12T11:18:25Z</time></trkpt><trkpt lat="41.41684539637827" lon="13.966225455446011"><ele>112.0</ele><time>2026-04-12T11:18:26Z</time></trkpt><trkpt lat="41.41689574617788" lon="13.965955038295961"><ele>112.0</ele><time>2026-04-12T11:18:27Z</time></trkpt><trkpt lat="41.41694903240769" lon="13.965661533078704"><ele>110.0</ele><time>2026-04-12T11:18:28Z</time></trkpt><trkpt lat="41.41699680143576" lon="13.965395989920415"><ele>108.0</ele><time>2026-04-12T11:18:29Z</time></trkpt><trkpt lat="41.41704028125058" lon="13.965158375634838"><ele>106.0</ele><time>2026-04-12T11:18:30Z</time></trkpt><trkpt lat="41.41708671168972" lon="13.964939768058239"><ele>104.66666666666667</ele><time>2026-04-12T11:18:31Z</time></trkpt><trkpt lat="41.417148454699195" lon="13.964729602714778"><ele>103.33333333333334</ele><time>2026-04-12T11:18:32Z</time></trkpt><trkpt lat="41.41723324071528" lon="13.964530638348089"><ele>102.0</ele><time>2026-04-12T11:18:33Z</time></trkpt><trkpt lat="41.41733503797313" lon="13.964353094485418"><ele>107.0</ele><time>2026-04-12T11:18:34Z</time></trkpt><trkpt lat="41.41744604819171" lon="13.964158069998195"><ele>112.0</ele><time>2026-04-12T11:18:35Z</time></trkpt><trkpt lat="41.41755564422866" lon="13.963957351536395"><ele>117.0</ele><time>2026-04-12T11:18:36Z</time></trkpt><trkpt lat="41.41766076802254" lon="13.963759548452247"><ele>117.0</ele><time>2026-04-12T11:18:37Z</time></trkpt><trkpt lat="41.417770682130346" lon="13.963545073134888"><ele>117.0</ele><time>2026-04-12T11:18:38Z</time></trkpt><trkpt lat="41.41786538659578" lon="13.963344470576892"><ele>117.0</ele><time>2026-04-12T11:18:39Z</time></trkpt><trkpt lat="41.41795182575475" lon="13.963111619794649"><ele>116.33333333333334</ele><time>2026-04-12T11:18:40Z</time></trkpt><trkpt lat="41.418022843050835" lon="13.962850209304568"><ele>115.66666666666667</ele><time>2026-04-12T11:18:41Z</time></trkpt><trkpt lat="41.418096118203465" lon="13.962567025696593"><ele>115.0</ele><time>2026-04-12T11:18:42Z</time></trkpt><trkpt lat="41.4181763106623" lon="13.962282275747516"><ele>115.0</ele><time>2026-04-12T11:18:43Z</time></trkpt><trkpt lat="41.41824434388962" lon="13.962042992966467"><ele>115.0</ele><time>2026-04-12T11:18:44Z</time></trkpt><trkpt lat="41.41834701305442" lon="13.961858851206815"><ele>115.0</ele><time>2026-04-12T11:18:45Z</time></trkpt><trkpt lat="41.41845736217234" lon="13.961644396959521"><ele>110.33333333333334</ele><time>2026-04-12T11:18:46Z</time></trkpt><trkpt lat="41.41859987403678" lon="13.961419683101708"><ele>105.66666666666666</ele><time>2026-04-12T11:18:47Z</time></trkpt><trkpt lat="41.41872592720941" lon="13.961184945999875"><ele>101.0</ele><time>2026-04-12T11:18:48Z</time></trkpt><trkpt lat="41.41883651430166" lon="13.960968191474175"><ele>106.66666666666666</ele><time>2026-04-12T11:18:49Z</time></trkpt><trkpt lat="41.41893548022106" lon="13.960753367560953"><ele>112.33333333333334</ele><time>2026-04-12T11:18:50Z</time></trkpt><trkpt lat="41.419033134110826" lon="13.960530486861991"><ele>118.0</ele><time>2026-04-12T11:18:51Z</time></trkpt><trkpt lat="41.419139487166845" lon="13.960307512938837"><ele>118.0</ele><time>2026-04-12T11:18:52Z</time></trkpt><trkpt lat="41.41925719616014" lon="13.960077238322233"><ele>118.0</ele><time>2026-04-12T11:18:53Z</time></trkpt><trkpt lat="41.41938584682495" lon="13.95984590924501"><ele>118.0</ele><time>2026-04-12T11:18:54Z</time></trkpt><trkpt lat="41.41950925556536" lon="13.959620949839497"><ele>116.33333333333334</ele><time>2026-04-12T11:18:55Z</time></trkpt><trkpt lat="41.41963047820086" lon="13.959400915368299"><ele>114.66666666666666</ele><time>2026-04-12T11:18:56Z</time></trkpt><trkpt lat="41.41974261030661" lon="13.95920200235084"><ele>113.0</ele><time>2026-04-12T11:18:57Z</time></trkpt><trkpt lat="41.41985606758343" lon="13.959021731848576"><ele>113.0</ele><time>2026-04-12T11:18:58Z</time></trkpt><trkpt lat="41.41998155662465" lon="13.958849125937691"><ele>113.0</ele><time>2026-04-12T11:18:59Z</time></trkpt><trkpt lat="41.42012095047485" lon="13.958682425611068"><ele>113.0</ele><time>2026-04-12T11:19:00Z</time></trkpt><trkpt lat="41.42025055842216" lon="13.958509531710902"><ele>116.0</ele><time>2026-04-12T11:19:01Z</time></trkpt><trkpt lat="41.42036583538032" lon="13.95834213994648"><ele>119.0</ele><time>2026-04-12T11:19:02Z</time></trkpt><trkpt lat="41.420480772680676" lon="13.958176961814434"><ele>122.0</ele><time>2026-04-12T11:19:03Z</time></trkpt><trkpt lat="41.42057695885118" lon="13.957996323445336"><ele>122.0</ele><time>2026-04-12T11:19:04Z</time></trkpt><trkpt lat="41.42066340059018" lon="13.957783384773252"><ele>122.0</ele><time>2026-04-12T11:19:05Z</time></trkpt><trkpt lat="41.42074479180057" lon="13.957545279705247"><ele>122.0</ele><time>2026-04-12T11:19:06Z</time></trkpt><trkpt lat="41.42082765697394" lon="13.957288156801797"><ele>116.33333333333333</ele><time>2026-04-12T11:19:07Z</time></trkpt><trkpt lat="41.42090945747608" lon="13.957021919221297"><ele>110.66666666666666</ele><time>2026-04-12T11:19:08Z</time></trkpt><trkpt lat="41.42099668901596" lon="13.95675360611929"><ele>105.0</ele><time>2026-04-12T11:19:09Z</time></trkpt><trkpt lat="41.42109952644229" lon="13.956498189345595"><ele>100.66666666666667</ele><time>2026-04-12T11:19:10Z</time></trkpt><trkpt lat="41.42119633809322" lon="13.956276764716574"><ele>96.33333333333334</ele><time>2026-04-12T11:19:11Z</time></trkpt><trkpt lat="41.42129190361135" lon="13.956076695607132"><ele>92.0</ele><time>2026-04-12T11:19:12Z</time></trkpt><trkpt lat="41.42136775940523" lon="13.955879805516432"><ele>95.75</ele><time>2026-04-12T11:19:13Z</time></trkpt><trkpt lat="41.42140507846625" lon="13.955654304250471"><ele>99.5</ele><time>2026-04-12T11:19:14Z</time></trkpt><trkpt lat="41.42145625514126" lon="13.95547176584024"><ele>103.25</ele><time>2026-04-12T11:19:15Z</time></trkpt><trkpt lat="41.421486621792184" lon="13.955311025379515"><ele>107.0</ele><time>2026-04-12T11:19:16Z</time></trkpt><trkpt lat="41.421518429674556" lon="13.955176109715726"><ele>106.99999999999999</ele><time>2026-04-12T11:19:17Z</time></trkpt><trkpt lat="41.42153737720055" lon="13.955060338018743"><ele>107.0</ele><time>2026-04-12T11:19:18Z</time></trkpt><trkpt lat="41.42154128231495" lon="13.95495724920137"><ele>107.0</ele><time>2026-04-12T11:19:19Z</time></trkpt><trkpt lat="41.42154784751513" lon="13.954845185935893"><ele>107.0</ele><time>2026-04-12T11:19:21Z</time></trkpt><trkpt lat="41.421580894167114" lon="13.954730707678266"><ele>106.99999999999999</ele><time>2026-04-12T11:19:22Z</time></trkpt><trkpt lat="41.42159000559148" lon="13.954624258322669"><ele>107.0</ele><time>2026-04-12T11:19:23Z</time></trkpt><trkpt lat="41.42159884831864" lon="13.954516061507006"><ele>105.66666666666666</ele><time>2026-04-12T11:19:24Z</time></trkpt><trkpt lat="41.42160104027198" lon="13.954361192567955"><ele>104.33333333333333</ele><time>2026-04-12T11:19:25Z</time></trkpt><trkpt lat="41.42159825715134" lon="13.954260837351619"><ele>103.0</ele><time>2026-04-12T11:19:26Z</time></trkpt><trkpt lat="41.42160706121586" lon="13.95415867955761"><ele>101.66666666666666</ele><time>2026-04-12T11:19:27Z</time></trkpt><trkpt lat="41.42163279068888" lon="13.954073181848909"><ele>100.33333333333333</ele><time>2026-04-12T11:19:28Z</time></trkpt><trkpt lat="41.421659887382496" lon="13.953938087010373"><ele>99.0</ele><time>2026-04-12T11:19:29Z</time></trkpt><trkpt lat="41.42178489945608" lon="13.953817426011401"><ele>97.0</ele><time>2026-04-12T11:19:31Z</time></trkpt><trkpt lat="41.42186949233149" lon="13.953644799554786"><ele>95.0</ele><time>2026-04-12T11:19:32Z</time></trkpt><trkpt lat="41.42194430171032" lon="13.9534489361942"><ele>93.0</ele><time>2026-04-12T11:19:33Z</time></trkpt><trkpt lat="41.421986375931695" lon="13.953281923795329"><ele>91.5</ele><time>2026-04-12T11:19:34Z</time></trkpt><trkpt lat="41.42202038618215" lon="13.953135704938415"><ele>90.0</ele><time>2026-04-12T11:19:35Z</time></trkpt><trkpt lat="41.4220612056353" lon="13.952939901732579"><ele>88.5</ele><time>2026-04-12T11:19:36Z</time></trkpt><trkpt lat="41.42209714251557" lon="13.95274262699202"><ele>87.0</ele><time>2026-04-12T11:19:37Z</time></trkpt><trkpt lat="41.422129780823155" lon="13.95255743912174"><ele>92.0</ele><time>2026-04-12T11:19:38Z</time></trkpt><trkpt lat="41.422157409454464" lon="13.952391786561867"><ele>97.0</ele><time>2026-04-12T11:19:39Z</time></trkpt><trkpt lat="41.422184195582574" lon="13.95223805861711"><ele>102.0</ele><time>2026-04-12T11:19:40Z</time></trkpt><trkpt lat="41.4222083655599" lon="13.952102187469176"><ele>107.0</ele><time>2026-04-12T11:19:41Z</time></trkpt><trkpt lat="41.422231711779865" lon="13.951971688669362"><ele>107.0</ele><time>2026-04-12T11:19:42Z</time></trkpt><trkpt lat="41.4222603274521" lon="13.951857629484655"><ele>106.99999999999999</ele><time>2026-04-12T11:19:44Z</time></trkpt><trkpt lat="41.42227978714824" lon="13.951742620014562"><ele>106.99999999999999</ele><time>2026-04-12T11:19:47Z</time></trkpt><trkpt lat="41.42234151418924" lon="13.951634999930569"><ele>107.0</ele><time>2026-04-12T11:19:51Z</time></trkpt><trkpt lat="41.42240428432333" lon="13.951523585932788"><ele>107.0</ele><time>2026-04-12T11:19:53Z</time></trkpt><trkpt lat="41.42246207446029" lon="13.95145671479838"><ele>105.66666666666666</ele><time>2026-04-12T11:19:55Z</time></trkpt><trkpt lat="41.422530444958795" lon="13.951362804801208"><ele>104.33333333333333</ele><time>2026-04-12T11:19:56Z</time></trkpt><trkpt lat="41.42257959903266" lon="13.95129371551783"><ele>103.0</ele><time>2026-04-12T11:19:57Z</time></trkpt><trkpt lat="41.422631799042776" lon="13.95122034497881"><ele>101.66666666666666</ele><time>2026-04-12T11:19:58.001Z</time></trkpt><trkpt lat="41.42267030169286" lon="13.951108577358903"><ele>100.33333333333333</ele><time>2026-04-12T11:19:59.001Z</time></trkpt><trkpt lat="41.422709708101536" lon="13.950987064756028"><ele>99.0</ele><time>2026-04-12T11:20:00.001Z</time></trkpt><trkpt lat="41.422814019597865" lon="13.950742768279229"><ele>97.75</ele><time>2026-04-12T11:20:01.001Z</time></trkpt><trkpt lat="41.42290982785201" lon="13.950559462322458"><ele>96.5</ele><time>2026-04-12T11:20:02.001Z</time></trkpt><trkpt lat="41.4229669409147" lon="13.950459257828799"><ele>95.25</ele><time>2026-04-12T11:20:03.001Z</time></trkpt><trkpt lat="41.42297301509185" lon="13.950334145267583"><ele>94.0</ele><time>2026-04-12T11:20:04.001Z</time></trkpt><trkpt lat="41.42304230305282" lon="13.950189594486366"><ele>96.5</ele><time>2026-04-12T11:20:05.001Z</time></trkpt><trkpt lat="41.42309515150225" lon="13.950094722088327"><ele>99.0</ele><time>2026-04-12T11:20:06.001Z</time></trkpt><trkpt lat="41.4231400029632" lon="13.950020155596212"><ele>101.5</ele><time>2026-04-12T11:20:07.001Z</time></trkpt><trkpt lat="41.423096393475134" lon="13.949935445248173"><ele>104.0</ele><time>2026-04-12T11:20:09.001Z</time></trkpt><trkpt lat="41.42317859872826" lon="13.949799023823154"><ele>106.50000000000001</ele><time>2026-04-12T11:20:11.001Z</time></trkpt><trkpt lat="41.42322542773907" lon="13.949716297278098"><ele>109.0</ele><time>2026-04-12T11:20:12.001Z</time></trkpt><trkpt lat="41.423281914090005" lon="13.949657390329794"><ele>109.0</ele><time>2026-04-12T11:20:16.001Z</time></trkpt><trkpt lat="41.42330244544077" lon="13.9495472445275"><ele>109.0</ele><time>2026-04-12T11:20:19.001Z</time></trkpt><trkpt lat="41.42355721247661" lon="13.948938691187859"><ele>110.16666666666667</ele><time>2026-04-12T11:20:20.001Z</time></trkpt><trkpt lat="41.4236125068026" lon="13.948848391435488"><ele>111.33333333333334</ele><time>2026-04-12T11:20:21.001Z</time></trkpt><trkpt lat="41.42366697478485" lon="13.94874973447925"><ele>112.5</ele><time>2026-04-12T11:20:22.001Z</time></trkpt><trkpt lat="41.42371780939886" lon="13.9486072638451"><ele>113.66666666666666</ele><time>2026-04-12T11:20:24Z</time></trkpt><trkpt lat="41.4237555790364" lon="13.948522007282628"><ele>114.83333333333333</ele><time>2026-04-12T11:20:25Z</time></trkpt><trkpt lat="41.42379348361654" lon="13.94844819633194"><ele>116.0</ele><time>2026-04-12T11:20:26Z</time></trkpt><trkpt lat="41.42385678379244" lon="13.94834728034465"><ele>116.0</ele><time>2026-04-12T11:20:27Z</time></trkpt><trkpt lat="41.42393073169809" lon="13.948239453681179"><ele>116.0</ele><time>2026-04-12T11:20:28Z</time></trkpt><trkpt lat="41.424030446378936" lon="13.94811380572081"><ele>116.0</ele><time>2026-04-12T11:20:30Z</time></trkpt><trkpt lat="41.42409869351676" lon="13.948028065488101"><ele>116.0</ele><time>2026-04-12T11:20:31Z</time></trkpt><trkpt lat="41.42416208823587" lon="13.94794842160817"><ele>116.0</ele><time>2026-04-12T11:20:32Z</time></trkpt><trkpt lat="41.42423563239912" lon="13.947821891517034"><ele>116.0</ele><time>2026-04-12T11:20:34Z</time></trkpt><trkpt lat="41.424286939269095" lon="13.947710610445752"><ele>116.0</ele><time>2026-04-12T11:20:35Z</time></trkpt><trkpt lat="41.42439434392066" lon="13.947538474790603"><ele>116.0</ele><time>2026-04-12T11:20:38Z</time></trkpt><trkpt lat="41.424186863891" lon="13.946585094986723"><ele>111.6</ele><time>2026-04-12T11:20:39Z</time></trkpt><trkpt lat="41.424253389755386" lon="13.946474767277023"><ele>107.19999999999999</ele><time>2026-04-12T11:20:40Z</time></trkpt><trkpt lat="41.42428033957675" lon="13.946354984447417"><ele>102.80000000000001</ele><time>2026-04-12T11:20:41Z</time></trkpt><trkpt lat="41.4243083566266" lon="13.946246337313061"><ele>98.4</ele><time>2026-04-12T11:20:42Z</time></trkpt><trkpt lat="41.424334269709824" lon="13.946110172610418"><ele>94.0</ele><time>2026-04-12T11:20:43Z</time></trkpt><trkpt lat="41.42436697933883" lon="13.94603200822278"><ele>94.0</ele><time>2026-04-12T11:20:44Z</time></trkpt><trkpt lat="41.424455159443106" lon="13.945969928403041"><ele>94.0</ele><time>2026-04-12T11:20:45Z</time></trkpt><trkpt lat="41.42453103085111" lon="13.945877393846136"><ele>94.0</ele><time>2026-04-12T11:20:46Z</time></trkpt><trkpt lat="41.42459376315947" lon="13.945774263676734"><ele>94.0</ele><time>2026-04-12T11:20:47Z</time></trkpt><trkpt lat="41.42467469799855" lon="13.945639258174033"><ele>94.0</ele><time>2026-04-12T11:20:48Z</time></trkpt><trkpt lat="41.4247523707055" lon="13.945545174563193"><ele>94.0</ele><time>2026-04-12T11:20:49Z</time></trkpt><trkpt lat="41.42481882107201" lon="13.945448904733002"><ele>94.0</ele><time>2026-04-12T11:20:50Z</time></trkpt><trkpt lat="41.4248966843096" lon="13.945376135147862"><ele>94.0</ele><time>2026-04-12T11:20:51Z</time></trkpt><trkpt lat="41.42497935399643" lon="13.945302175953307"><ele>94.0</ele><time>2026-04-12T11:20:52Z</time></trkpt><trkpt lat="41.42503907410331" lon="13.945203107552315"><ele>94.0</ele><time>2026-04-12T11:20:53Z</time></trkpt><trkpt lat="41.425084176500064" lon="13.94511845663543"><ele>92.83333333333333</ele><time>2026-04-12T11:20:54Z</time></trkpt><trkpt lat="41.4251579562808" lon="13.94499130900717"><ele>91.66666666666666</ele><time>2026-04-12T11:20:56Z</time></trkpt><trkpt lat="41.42520720656191" lon="13.944922359629059"><ele>90.5</ele><time>2026-04-12T11:20:57Z</time></trkpt><trkpt lat="41.425254491847326" lon="13.944827345386715"><ele>89.33333333333333</ele><time>2026-04-12T11:20:58Z</time></trkpt><trkpt lat="41.42530224155482" lon="13.944765817265084"><ele>88.16666666666667</ele><time>2026-04-12T11:20:59Z</time></trkpt><trkpt lat="41.42536983036918" lon="13.94465997318619"><ele>87.0</ele><time>2026-04-12T11:21:00Z</time></trkpt><trkpt lat="41.42543568111601" lon="13.944572865900303"><ele>86.6</ele><time>2026-04-12T11:21:01Z</time></trkpt><trkpt lat="41.425526583261075" lon="13.944462701922742"><ele>86.19999999999999</ele><time>2026-04-12T11:21:02Z</time></trkpt><trkpt lat="41.425605605649686" lon="13.944375621436643"><ele>85.8</ele><time>2026-04-12T11:21:03Z</time></trkpt><trkpt lat="41.425683821164625" lon="13.944291934500868"><ele>85.4</ele><time>2026-04-12T11:21:04Z</time></trkpt><trkpt lat="41.42575373362374" lon="13.944194113435257"><ele>85.0</ele><time>2026-04-12T11:21:05Z</time></trkpt><trkpt lat="41.42581413593467" lon="13.944105901908022"><ele>85.0</ele><time>2026-04-12T11:21:06Z</time></trkpt><trkpt lat="41.425877260782485" lon="13.944010719266924"><ele>85.0</ele><time>2026-04-12T11:21:07Z</time></trkpt><trkpt lat="41.425958402615414" lon="13.943902975397124"><ele>85.0</ele><time>2026-04-12T11:21:08Z</time></trkpt><trkpt lat="41.42603748296007" lon="13.943788283401195"><ele>85.0</ele><time>2026-04-12T11:21:09Z</time></trkpt><trkpt lat="41.42611232611586" lon="13.943693062060342"><ele>85.0</ele><time>2026-04-12T11:21:10Z</time></trkpt><trkpt lat="41.42618135763064" lon="13.94362871606524"><ele>85.0</ele><time>2026-04-12T11:21:11Z</time></trkpt><trkpt lat="41.426249368275066" lon="13.94356962014732"><ele>85.0</ele><time>2026-04-12T11:21:12Z</time></trkpt><trkpt lat="41.426329171311444" lon="13.943502452146179"><ele>85.0</ele><time>2026-04-12T11:21:13Z</time></trkpt><trkpt lat="41.42641510434595" lon="13.943417884484075"><ele>85.0</ele><time>2026-04-12T11:21:14Z</time></trkpt><trkpt lat="41.42647961412449" lon="13.94332453992872"><ele>85.0</ele><time>2026-04-12T11:21:15Z</time></trkpt><trkpt lat="41.426541289608615" lon="13.94318636854235"><ele>84.0</ele><time>2026-04-12T11:21:16Z</time></trkpt><trkpt lat="41.42659908815911" lon="13.943089032575712"><ele>83.0</ele><time>2026-04-12T11:21:17Z</time></trkpt><trkpt lat="41.42665465147105" lon="13.943028506576159"><ele>82.0</ele><time>2026-04-12T11:21:18Z</time></trkpt><trkpt lat="41.42673833475361" lon="13.942998220168123"><ele>81.0</ele><time>2026-04-12T11:21:20Z</time></trkpt><trkpt lat="41.42684463624828" lon="13.943012289768602"><ele>80.0</ele><time>2026-04-12T11:21:22Z</time></trkpt><trkpt lat="41.42692407076322" lon="13.942965444314787"><ele>79.0</ele><time>2026-04-12T11:21:23Z</time></trkpt><trkpt lat="41.42699905453057" lon="13.94286959410719"><ele>79.0</ele><time>2026-04-12T11:21:24Z</time></trkpt><trkpt lat="41.42708715233434" lon="13.942771670638978"><ele>79.0</ele><time>2026-04-12T11:21:25Z</time></trkpt><trkpt lat="41.427181414959996" lon="13.94268629590488"><ele>79.0</ele><time>2026-04-12T11:21:26Z</time></trkpt><trkpt lat="41.427255395929556" lon="13.94259207431025"><ele>79.0</ele><time>2026-04-12T11:21:27Z</time></trkpt><trkpt lat="41.42731514561208" lon="13.942509475993063"><ele>79.0</ele><time>2026-04-12T11:21:28Z</time></trkpt><trkpt lat="41.42738025884172" lon="13.942394607496485"><ele>78.75</ele><time>2026-04-12T11:21:29Z</time></trkpt><trkpt lat="41.42745496332384" lon="13.942268972148788"><ele>78.5</ele><time>2026-04-12T11:21:30Z</time></trkpt><trkpt lat="41.42754176292825" lon="13.942158789255386"><ele>78.25</ele><time>2026-04-12T11:21:31Z</time></trkpt><trkpt lat="41.42763811938742" lon="13.942053775757723"><ele>78.0</ele><time>2026-04-12T11:21:32Z</time></trkpt><trkpt lat="41.42772768181873" lon="13.941944314336562"><ele>78.0</ele><time>2026-04-12T11:21:33Z</time></trkpt><trkpt lat="41.427809616537395" lon="13.941833896054266"><ele>78.0</ele><time>2026-04-12T11:21:34Z</time></trkpt><trkpt lat="41.42788081322512" lon="13.941728434669436"><ele>78.0</ele><time>2026-04-12T11:21:35Z</time></trkpt><trkpt lat="41.42794870991776" lon="13.941633396243121"><ele>78.0</ele><time>2026-04-12T11:21:36Z</time></trkpt><trkpt lat="41.428015729101325" lon="13.941534544064549"><ele>78.0</ele><time>2026-04-12T11:21:37Z</time></trkpt><trkpt lat="41.42808832703415" lon="13.941439199008606"><ele>78.33333333333333</ele><time>2026-04-12T11:21:38Z</time></trkpt><trkpt lat="41.42815670583063" lon="13.941348615644424"><ele>78.66666666666667</ele><time>2026-04-12T11:21:39Z</time></trkpt><trkpt lat="41.42822058801604" lon="13.941244702277018"><ele>79.0</ele><time>2026-04-12T11:21:40Z</time></trkpt><trkpt lat="41.428255337562156" lon="13.941174537404695"><ele>79.33333333333334</ele><time>2026-04-12T11:21:42Z</time></trkpt><trkpt lat="41.42821724395723" lon="13.941253860483235"><ele>79.66666666666667</ele><time>2026-04-12T11:21:49Z</time></trkpt><trkpt lat="41.428153017958074" lon="13.941218991853281"><ele>80.0</ele><time>2026-04-12T11:21:55Z</time></trkpt><trkpt lat="41.42810325327634" lon="13.941157873951973"><ele>80.0</ele><time>2026-04-12T11:21:57Z</time></trkpt><trkpt lat="41.428040266496886" lon="13.941084959283806"><ele>80.0</ele><time>2026-04-12T11:21:59.024Z</time></trkpt><trkpt lat="41.427955764969404" lon="13.940976324289135"><ele>80.0</ele><time>2026-04-12T11:22:01.024Z</time></trkpt><trkpt lat="41.42786424757714" lon="13.940986160658872"><ele>80.0</ele><time>2026-04-12T11:22:02.001Z</time></trkpt><trkpt lat="41.42776831203436" lon="13.940969705936627"><ele>80.0</ele><time>2026-04-12T11:22:04.001Z</time></trkpt><trkpt lat="41.42766517778226" lon="13.940974183865938"><ele>78.8</ele><time>2026-04-12T11:22:06.001Z</time></trkpt><trkpt lat="41.427576937210425" lon="13.940992848048186"><ele>77.6</ele><time>2026-04-12T11:22:07.001Z</time></trkpt><trkpt lat="41.42746812903147" lon="13.941009576056022"><ele>76.4</ele><time>2026-04-12T11:22:09.001Z</time></trkpt><trkpt lat="41.42737796354854" lon="13.940917741378698"><ele>75.2</ele><time>2026-04-12T11:22:11.001Z</time></trkpt><trkpt lat="41.42735752078686" lon="13.940825483785034"><ele>74.0</ele><time>2026-04-12T11:22:14.001Z</time></trkpt><trkpt lat="41.42733587017791" lon="13.940730157000685"><ele>71.75</ele><time>2026-04-12T11:22:19.001Z</time></trkpt><trkpt lat="41.42725709415329" lon="13.940722953002341"><ele>69.5</ele><time>2026-04-12T11:22:22.001Z</time></trkpt><trkpt lat="41.42731026921439" lon="13.940447561018589"><ele>67.25</ele><time>2026-04-12T11:22:27.001Z</time></trkpt><trkpt lat="41.42735557370278" lon="13.94031814911101"><ele>65.0</ele><time>2026-04-12T11:22:29.001Z</time></trkpt><trkpt lat="41.427310647137446" lon="13.940216952583489"><ele>65.0</ele><time>2026-04-12T11:22:30Z</time></trkpt><trkpt lat="41.42732547158318" lon="13.940084251151344"><ele>65.0</ele><time>2026-04-12T11:22:32Z</time></trkpt><trkpt lat="41.42736860599419" lon="13.9399668271558"><ele>65.0</ele><time>2026-04-12T11:22:34Z</time></trkpt><trkpt lat="41.427382790379575" lon="13.93987560197377"><ele>65.0</ele><time>2026-04-12T11:22:35Z</time></trkpt><trkpt lat="41.427400105719194" lon="13.93971915927055"><ele>65.0</ele><time>2026-04-12T11:22:36Z</time></trkpt><trkpt lat="41.42742995820286" lon="13.939608371381095"><ele>64.0</ele><time>2026-04-12T11:22:37Z</time></trkpt><trkpt lat="41.4274488254449" lon="13.93951036302426"><ele>63.0</ele><time>2026-04-12T11:22:38Z</time></trkpt><trkpt lat="41.42747023034903" lon="13.939367045186664"><ele>62.0</ele><time>2026-04-12T11:22:39Z</time></trkpt><trkpt lat="41.427439124764255" lon="13.939249859918151"><ele>61.0</ele><time>2026-04-12T11:22:41Z</time></trkpt><trkpt lat="41.42739160853041" lon="13.939170836761253"><ele>60.0</ele><time>2026-04-12T11:22:42Z</time></trkpt><trkpt lat="41.4273008379223" lon="13.939061756387211"><ele>59.6</ele><time>2026-04-12T11:22:43Z</time></trkpt><trkpt lat="41.42722048953313" lon="13.938963748997116"><ele>59.2</ele><time>2026-04-12T11:22:44Z</time></trkpt><trkpt lat="41.42715680495248" lon="13.938836749636195"><ele>58.8</ele><time>2026-04-12T11:22:45Z</time></trkpt><trkpt lat="41.42711895852579" lon="13.938713967053976"><ele>58.4</ele><time>2026-04-12T11:22:46Z</time></trkpt><trkpt lat="41.42710514514861" lon="13.938607137564214"><ele>58.0</ele><time>2026-04-12T11:22:47Z</time></trkpt><trkpt lat="41.42709096107456" lon="13.938519782666782"><ele>59.0</ele><time>2026-04-12T11:22:48Z</time></trkpt><trkpt lat="41.42697785222547" lon="13.938442390856618"><ele>60.0</ele><time>2026-04-12T11:22:50Z</time></trkpt><trkpt lat="41.426914064164706" lon="13.938414997142518"><ele>61.0</ele><time>2026-04-12T11:22:51Z</time></trkpt><trkpt lat="41.42684641354044" lon="13.938364431018277"><ele>62.0</ele><time>2026-04-12T11:22:52Z</time></trkpt><trkpt lat="41.42675806614367" lon="13.938295520538553"><ele>63.0</ele><time>2026-04-12T11:22:53Z</time></trkpt><trkpt lat="41.426672990158096" lon="13.938191743814555"><ele>63.4</ele><time>2026-04-12T11:22:54Z</time></trkpt><trkpt lat="41.42663828780932" lon="13.938117990211554"><ele>63.8</ele><time>2026-04-12T11:22:55Z</time></trkpt><trkpt lat="41.42653466941755" lon="13.93806333992445"><ele>64.2</ele><time>2026-04-12T11:22:57Z</time></trkpt><trkpt lat="41.426402290079" lon="13.93806203398334"><ele>64.6</ele><time>2026-04-12T11:22:59Z</time></trkpt><trkpt lat="41.426341028276866" lon="13.938025052285566"><ele>65.0</ele><time>2026-04-12T11:23:00Z</time></trkpt><trkpt lat="41.42631580102956" lon="13.937853173710428"><ele>65.0</ele><time>2026-04-12T11:23:02Z</time></trkpt><trkpt lat="41.42634225802722" lon="13.937734806727066"><ele>65.0</ele><time>2026-04-12T11:23:03Z</time></trkpt><trkpt lat="41.42636913801803" lon="13.937580777860655"><ele>65.0</ele><time>2026-04-12T11:23:04Z</time></trkpt><trkpt lat="41.42637636497547" lon="13.937444552547605"><ele>65.0</ele><time>2026-04-12T11:23:05Z</time></trkpt><trkpt lat="41.42636487771186" lon="13.937284735339164"><ele>65.0</ele><time>2026-04-12T11:23:06Z</time></trkpt><trkpt lat="41.42636998949559" lon="13.937165237381327"><ele>64.6</ele><time>2026-04-12T11:23:07Z</time></trkpt><trkpt lat="41.426393355458295" lon="13.937078961540035"><ele>64.2</ele><time>2026-04-12T11:23:08Z</time></trkpt><trkpt lat="41.426450567191665" lon="13.936977950543385"><ele>63.8</ele><time>2026-04-12T11:23:10Z</time></trkpt><trkpt lat="41.42638243483789" lon="13.936916866357235"><ele>63.4</ele><time>2026-04-12T11:23:12Z</time></trkpt><trkpt lat="41.42623148547858" lon="13.93696349924556"><ele>63.0</ele><time>2026-04-12T11:23:14Z</time></trkpt><trkpt lat="41.42614995460484" lon="13.937031037136308"><ele>65.0</ele><time>2026-04-12T11:23:15Z</time></trkpt><trkpt lat="41.426074929369975" lon="13.937111248919107"><ele>67.0</ele><time>2026-04-12T11:23:16Z</time></trkpt><trkpt lat="41.4260172038933" lon="13.937212828201297"><ele>69.0</ele><time>2026-04-12T11:23:17Z</time></trkpt><trkpt lat="41.425959699600966" lon="13.937318973414616"><ele>71.0</ele><time>2026-04-12T11:23:18Z</time></trkpt><trkpt lat="41.42588125447333" lon="13.937441422817141"><ele>73.0</ele><time>2026-04-12T11:23:19Z</time></trkpt><trkpt lat="41.425796300588246" lon="13.93753142470023"><ele>73.2</ele><time>2026-04-12T11:23:20Z</time></trkpt><trkpt lat="41.425718116438915" lon="13.937619311050902"><ele>73.4</ele><time>2026-04-12T11:23:21Z</time></trkpt><trkpt lat="41.425639499810536" lon="13.937718991240637"><ele>73.60000000000001</ele><time>2026-04-12T11:23:22Z</time></trkpt><trkpt lat="41.425573329605264" lon="13.937823252219959"><ele>73.8</ele><time>2026-04-12T11:23:23Z</time></trkpt><trkpt lat="41.42552846500129" lon="13.937917337316302"><ele>74.0</ele><time>2026-04-12T11:23:24Z</time></trkpt><trkpt lat="41.42548091128793" lon="13.938014035316439"><ele>76.0</ele><time>2026-04-12T11:23:25Z</time></trkpt><trkpt lat="41.42542964952255" lon="13.938101662652906"><ele>78.0</ele><time>2026-04-12T11:23:26Z</time></trkpt><trkpt lat="41.42534470890255" lon="13.938177377683543"><ele>80.0</ele><time>2026-04-12T11:23:27Z</time></trkpt><trkpt lat="41.42525487077444" lon="13.9382370046756"><ele>82.0</ele><time>2026-04-12T11:23:28Z</time></trkpt><trkpt lat="41.425174505507826" lon="13.938302911449988"><ele>84.0</ele><time>2026-04-12T11:23:29Z</time></trkpt><trkpt lat="41.4251050269522" lon="13.93839236059521"><ele>84.33333333333333</ele><time>2026-04-12T11:23:30Z</time></trkpt><trkpt lat="41.42505698657214" lon="13.93846961777374"><ele>84.66666666666667</ele><time>2026-04-12T11:23:31Z</time></trkpt><trkpt lat="41.42499832292472" lon="13.93853339220269"><ele>85.0</ele><time>2026-04-12T11:23:32Z</time></trkpt><trkpt lat="41.42492375548808" lon="13.938558316978384"><ele>85.33333333333334</ele><time>2026-04-12T11:23:33Z</time></trkpt><trkpt lat="41.424812775628574" lon="13.938565693437205"><ele>85.66666666666667</ele><time>2026-04-12T11:23:34Z</time></trkpt><trkpt lat="41.4247127852207" lon="13.938563280421176"><ele>86.0</ele><time>2026-04-12T11:23:35Z</time></trkpt><trkpt lat="41.42460270113438" lon="13.938560460415465"><ele>87.0</ele><time>2026-04-12T11:23:36Z</time></trkpt><trkpt lat="41.4244968325309" lon="13.938553710751743"><ele>88.0</ele><time>2026-04-12T11:23:37Z</time></trkpt><trkpt lat="41.42439791538145" lon="13.938533471772423"><ele>89.0</ele><time>2026-04-12T11:23:38Z</time></trkpt><trkpt lat="41.424307211881676" lon="13.93846155350908"><ele>90.0</ele><time>2026-04-12T11:23:39Z</time></trkpt><trkpt lat="41.424188284629764" lon="13.93835663960426"><ele>90.0</ele><time>2026-04-12T11:23:40Z</time></trkpt><trkpt lat="41.42406069529468" lon="13.938235462328501"><ele>90.0</ele><time>2026-04-12T11:23:41Z</time></trkpt><trkpt lat="41.423942871222735" lon="13.938130746463099"><ele>90.0</ele><time>2026-04-12T11:23:42Z</time></trkpt><trkpt lat="41.423820396615945" lon="13.938040185445109"><ele>90.0</ele><time>2026-04-12T11:23:43Z</time></trkpt><trkpt lat="41.42370003420792" lon="13.937945872809495"><ele>91.0</ele><time>2026-04-12T11:23:44Z</time></trkpt><trkpt lat="41.423591048724184" lon="13.937864979930117"><ele>92.0</ele><time>2026-04-12T11:23:45Z</time></trkpt><trkpt lat="41.4234961172722" lon="13.93777942471894"><ele>93.0</ele><time>2026-04-12T11:23:46Z</time></trkpt><trkpt lat="41.423393035037854" lon="13.93769582882304"><ele>94.0</ele><time>2026-04-12T11:23:47Z</time></trkpt><trkpt lat="41.42329393679612" lon="13.937611301984889"><ele>93.25</ele><time>2026-04-12T11:23:48Z</time></trkpt><trkpt lat="41.423189873858355" lon="13.937524077234492"><ele>92.5</ele><time>2026-04-12T11:23:49Z</time></trkpt><trkpt lat="41.42308762131731" lon="13.937443384325945"><ele>91.75</ele><time>2026-04-12T11:23:50Z</time></trkpt><trkpt lat="41.423006041222" lon="13.937355884065244"><ele>91.0</ele><time>2026-04-12T11:23:51Z</time></trkpt><trkpt lat="41.42290931053646" lon="13.937276823085558"><ele>91.0</ele><time>2026-04-12T11:23:52Z</time></trkpt><trkpt lat="41.42280412799926" lon="13.937193770550415"><ele>91.0</ele><time>2026-04-12T11:23:53Z</time></trkpt><trkpt lat="41.42272078243288" lon="13.937127648218045"><ele>91.0</ele><time>2026-04-12T11:23:54Z</time></trkpt><trkpt lat="41.42264107078769" lon="13.93707800736999"><ele>91.0</ele><time>2026-04-12T11:23:55Z</time></trkpt><trkpt lat="41.422552065990224" lon="13.937027001784715"><ele>91.0</ele><time>2026-04-12T11:23:56Z</time></trkpt><trkpt lat="41.42246878857633" lon="13.936941193993153"><ele>91.0</ele><time>2026-04-12T11:23:57Z</time></trkpt><trkpt lat="41.42237428996783" lon="13.936833582211028"><ele>91.0</ele><time>2026-04-12T11:23:58Z</time></trkpt><trkpt lat="41.42227361656994" lon="13.936721447452364"><ele>91.0</ele><time>2026-04-12T11:23:59Z</time></trkpt><trkpt lat="41.42217783247283" lon="13.936621510651616"><ele>91.0</ele><time>2026-04-12T11:24:00Z</time></trkpt><trkpt lat="41.42207993751259" lon="13.936517560276968"><ele>90.5</ele><time>2026-04-12T11:24:01Z</time></trkpt><trkpt lat="41.42197443420188" lon="13.936409001405824"><ele>90.0</ele><time>2026-04-12T11:24:02Z</time></trkpt><trkpt lat="41.42188136011935" lon="13.936288937737986"><ele>89.5</ele><time>2026-04-12T11:24:03Z</time></trkpt><trkpt lat="41.42178816270347" lon="13.93617290183434"><ele>89.0</ele><time>2026-04-12T11:24:04Z</time></trkpt><trkpt lat="41.42171446530982" lon="13.936079713987755"><ele>89.0</ele><time>2026-04-12T11:24:05Z</time></trkpt><trkpt lat="41.42165365097294" lon="13.935983693056665"><ele>89.0</ele><time>2026-04-12T11:24:06Z</time></trkpt><trkpt lat="41.42162921650429" lon="13.935863610877659"><ele>89.0</ele><time>2026-04-12T11:24:08Z</time></trkpt><trkpt lat="41.421631065694136" lon="13.935758181514531"><ele>89.0</ele><time>2026-04-12T11:24:09Z</time></trkpt><trkpt lat="41.42163150013987" lon="13.935627291948967"><ele>89.0</ele><time>2026-04-12T11:24:10Z</time></trkpt><trkpt lat="41.421604297400805" lon="13.935496939196078"><ele>88.75</ele><time>2026-04-12T11:24:11Z</time></trkpt><trkpt lat="41.42158030299811" lon="13.935359337336351"><ele>88.5</ele><time>2026-04-12T11:24:12.001Z</time></trkpt><trkpt lat="41.42150152308211" lon="13.935216382024757"><ele>88.25</ele><time>2026-04-12T11:24:13.001Z</time></trkpt><trkpt lat="41.421425023059356" lon="13.935096268231977"><ele>88.0</ele><time>2026-04-12T11:24:14.001Z</time></trkpt><trkpt lat="41.4213557878202" lon="13.934977052466325"><ele>88.80000000000001</ele><time>2026-04-12T11:24:15.001Z</time></trkpt><trkpt lat="41.421293067894744" lon="13.93484776106276"><ele>89.6</ele><time>2026-04-12T11:24:16.001Z</time></trkpt><trkpt lat="41.4212334029277" lon="13.934722933009231"><ele>90.4</ele><time>2026-04-12T11:24:17.001Z</time></trkpt><trkpt lat="41.4211909564448" lon="13.934591366989974"><ele>91.19999999999999</ele><time>2026-04-12T11:24:18.001Z</time></trkpt><trkpt lat="41.42116883228177" lon="13.93444493973053"><ele>92.0</ele><time>2026-04-12T11:24:19.001Z</time></trkpt><trkpt lat="41.42112785264295" lon="13.934312742929134"><ele>91.33333333333334</ele><time>2026-04-12T11:24:20.001Z</time></trkpt><trkpt lat="41.421070212919055" lon="13.934214065224152"><ele>90.66666666666667</ele><time>2026-04-12T11:24:21.001Z</time></trkpt><trkpt lat="41.42100936244281" lon="13.934143824890562"><ele>90.0</ele><time>2026-04-12T11:24:22.001Z</time></trkpt><trkpt lat="41.42092915860823" lon="13.934083686713725"><ele>89.33333333333333</ele><time>2026-04-12T11:24:23.001Z</time></trkpt><trkpt lat="41.420858770400194" lon="13.934032020750221"><ele>88.66666666666666</ele><time>2026-04-12T11:24:24.001Z</time></trkpt><trkpt lat="41.42079609836065" lon="13.933977800111363"><ele>88.0</ele><time>2026-04-12T11:24:25.001Z</time></trkpt><trkpt lat="41.42070237119074" lon="13.934055734399328"><ele>88.0</ele><time>2026-04-12T11:24:29.001Z</time></trkpt><trkpt lat="41.42067978280158" lon="13.934159443896581"><ele>88.0</ele><time>2026-04-12T11:24:30.001Z</time></trkpt><trkpt lat="41.42065679709842" lon="13.93428036838082"><ele>88.0</ele><time>2026-04-12T11:24:31.001Z</time></trkpt><trkpt lat="41.420635376962395" lon="13.934414645961214"><ele>88.0</ele><time>2026-04-12T11:24:32.001Z</time></trkpt><trkpt lat="41.42061380710897" lon="13.934571883746413"><ele>88.0</ele><time>2026-04-12T11:24:33.001Z</time></trkpt><trkpt lat="41.42055368541537" lon="13.934729944950297"><ele>89.0</ele><time>2026-04-12T11:24:34.001Z</time></trkpt><trkpt lat="41.42052013096676" lon="13.934894371565994"><ele>90.0</ele><time>2026-04-12T11:24:35.001Z</time></trkpt><trkpt lat="41.4204799211495" lon="13.935065541139995"><ele>91.0</ele><time>2026-04-12T11:24:36Z</time></trkpt><trkpt lat="41.42045090325954" lon="13.935240410183997"><ele>92.0</ele><time>2026-04-12T11:24:37Z</time></trkpt><trkpt lat="41.4204034294185" lon="13.935417662149494"><ele>93.5</ele><time>2026-04-12T11:24:38Z</time></trkpt><trkpt lat="41.42035575715159" lon="13.935597442711979"><ele>95.0</ele><time>2026-04-12T11:24:39Z</time></trkpt><trkpt lat="41.42030446621859" lon="13.935787085826961"><ele>96.5</ele><time>2026-04-12T11:24:40Z</time></trkpt><trkpt lat="41.420238533490256" lon="13.935971074576765"><ele>98.0</ele><time>2026-04-12T11:24:41Z</time></trkpt><trkpt lat="41.420184736857884" lon="13.936168304357784"><ele>98.33333333333333</ele><time>2026-04-12T11:24:42Z</time></trkpt><trkpt lat="41.42012916806793" lon="13.936377069794046"><ele>98.66666666666666</ele><time>2026-04-12T11:24:43Z</time></trkpt><trkpt lat="41.42007541546744" lon="13.936579287543653"><ele>99.0</ele><time>2026-04-12T11:24:44Z</time></trkpt><trkpt lat="41.42002894949013" lon="13.9367863859613"><ele>97.66666666666667</ele><time>2026-04-12T11:24:45Z</time></trkpt><trkpt lat="41.419954109450124" lon="13.936963520547721"><ele>96.33333333333334</ele><time>2026-04-12T11:24:46Z</time></trkpt><trkpt lat="41.41985490735266" lon="13.937117198639351"><ele>95.0</ele><time>2026-04-12T11:24:47Z</time></trkpt><trkpt lat="41.41973369176092" lon="13.937240626573146"><ele>96.33333333333334</ele><time>2026-04-12T11:24:48Z</time></trkpt><trkpt lat="41.41959224673512" lon="13.937322879521492"><ele>97.66666666666667</ele><time>2026-04-12T11:24:49Z</time></trkpt><trkpt lat="41.419450655376444" lon="13.937409474165445"><ele>99.0</ele><time>2026-04-12T11:24:50Z</time></trkpt><trkpt lat="41.41929951905826" lon="13.93751839255033"><ele>99.0</ele><time>2026-04-12T11:24:51Z</time></trkpt><trkpt lat="41.41915425940891" lon="13.937616113445705"><ele>99.0</ele><time>2026-04-12T11:24:52Z</time></trkpt><trkpt lat="41.419006658868426" lon="13.937713375498298"><ele>99.0</ele><time>2026-04-12T11:24:53Z</time></trkpt><trkpt lat="41.41885711550461" lon="13.93781162080839"><ele>100.0</ele><time>2026-04-12T11:24:54Z</time></trkpt><trkpt lat="41.418710069799225" lon="13.937910760231535"><ele>101.0</ele><time>2026-04-12T11:24:55Z</time></trkpt><trkpt lat="41.41856089889139" lon="13.938007613374156"><ele>102.0</ele><time>2026-04-12T11:24:56Z</time></trkpt><trkpt lat="41.41841779912918" lon="13.938103877567467"><ele>102.0</ele><time>2026-04-12T11:24:57Z</time></trkpt><trkpt lat="41.41827699883937" lon="13.938201532962719"><ele>102.0</ele><time>2026-04-12T11:24:58Z</time></trkpt><trkpt lat="41.418137807678285" lon="13.938298381672256"><ele>102.0</ele><time>2026-04-12T11:24:59Z</time></trkpt><trkpt lat="41.41800086424985" lon="13.93839585345463"><ele>102.33333333333334</ele><time>2026-04-12T11:25:00Z</time></trkpt><trkpt lat="41.417863582032936" lon="13.938496521054137"><ele>102.66666666666667</ele><time>2026-04-12T11:25:01Z</time></trkpt><trkpt lat="41.417727606232035" lon="13.938602235289858"><ele>103.0</ele><time>2026-04-12T11:25:02Z</time></trkpt><trkpt lat="41.41759854506338" lon="13.93871627378444"><ele>103.0</ele><time>2026-04-12T11:25:03Z</time></trkpt><trkpt lat="41.41747781771565" lon="13.938856374843946"><ele>103.0</ele><time>2026-04-12T11:25:04Z</time></trkpt><trkpt lat="41.4173665695204" lon="13.939013777827695"><ele>103.0</ele><time>2026-04-12T11:25:05Z</time></trkpt><trkpt lat="41.41726862388583" lon="13.93918193711554"><ele>104.33333333333334</ele><time>2026-04-12T11:25:06Z</time></trkpt><trkpt lat="41.417189400375285" lon="13.939367346386263"><ele>105.66666666666666</ele><time>2026-04-12T11:25:07Z</time></trkpt><trkpt lat="41.417128057243616" lon="13.939574907862232"><ele>107.0</ele><time>2026-04-12T11:25:08Z</time></trkpt><trkpt lat="41.417100559570905" lon="13.939780550287816"><ele>105.33333333333333</ele><time>2026-04-12T11:25:09Z</time></trkpt><trkpt lat="41.41707370049982" lon="13.939990667864985"><ele>103.66666666666666</ele><time>2026-04-12T11:25:10Z</time></trkpt><trkpt lat="41.41706094983599" lon="13.940202561403229"><ele>102.0</ele><time>2026-04-12T11:25:11Z</time></trkpt><trkpt lat="41.41704403046782" lon="13.940422985577777"><ele>102.0</ele><time>2026-04-12T11:25:12Z</time></trkpt><trkpt lat="41.41703007243531" lon="13.94064729399738"><ele>102.0</ele><time>2026-04-12T11:25:13Z</time></trkpt><trkpt lat="41.41701325081995" lon="13.940875978769347"><ele>102.0</ele><time>2026-04-12T11:25:14Z</time></trkpt><trkpt lat="41.41699211197671" lon="13.941076953163412"><ele>104.5</ele><time>2026-04-12T11:25:15Z</time></trkpt><trkpt lat="41.41693988093177" lon="13.941253066864403"><ele>107.0</ele><time>2026-04-12T11:25:16Z</time></trkpt><trkpt lat="41.416853611756196" lon="13.941416035227208"><ele>109.5</ele><time>2026-04-12T11:25:17Z</time></trkpt><trkpt lat="41.41674345052078" lon="13.941566418238386"><ele>112.0</ele><time>2026-04-12T11:25:18Z</time></trkpt><trkpt lat="41.41661505054512" lon="13.941702300368945"><ele>111.33333333333334</ele><time>2026-04-12T11:25:19Z</time></trkpt><trkpt lat="41.41646862369551" lon="13.94183313487336"><ele>110.66666666666666</ele><time>2026-04-12T11:25:20Z</time></trkpt><trkpt lat="41.41633768922128" lon="13.941958833773636"><ele>110.0</ele><time>2026-04-12T11:25:21Z</time></trkpt><trkpt lat="41.41622107542064" lon="13.942074005174732"><ele>110.0</ele><time>2026-04-12T11:25:22Z</time></trkpt><trkpt lat="41.41611134727297" lon="13.94219697470234"><ele>110.0</ele><time>2026-04-12T11:25:23Z</time></trkpt><trkpt lat="41.41602505651188" lon="13.942322628977289"><ele>110.0</ele><time>2026-04-12T11:25:24Z</time></trkpt><trkpt lat="41.41594181302539" lon="13.942460137163723"><ele>110.0</ele><time>2026-04-12T11:25:25Z</time></trkpt><trkpt lat="41.415864543608805" lon="13.942624604824891"><ele>113.33333333333333</ele><time>2026-04-12T11:25:26Z</time></trkpt><trkpt lat="41.41579541363013" lon="13.942804234213659"><ele>116.66666666666666</ele><time>2026-04-12T11:25:27Z</time></trkpt><trkpt lat="41.41573919026807" lon="13.943003961469618"><ele>120.0</ele><time>2026-04-12T11:25:28Z</time></trkpt><trkpt lat="41.41569120830882" lon="13.943210662978998"><ele>119.66666666666666</ele><time>2026-04-12T11:25:29Z</time></trkpt><trkpt lat="41.41565541935262" lon="13.943432890012083"><ele>119.33333333333333</ele><time>2026-04-12T11:25:30Z</time></trkpt><trkpt lat="41.4156207250977" lon="13.943643586931396"><ele>119.0</ele><time>2026-04-12T11:25:31Z</time></trkpt><trkpt lat="41.415583544720455" lon="13.943863004255563"><ele>119.0</ele><time>2026-04-12T11:25:32Z</time></trkpt><trkpt lat="41.415549125974124" lon="13.944079280718778"><ele>119.0</ele><time>2026-04-12T11:25:33Z</time></trkpt><trkpt lat="41.41551384730073" lon="13.944277298963922"><ele>119.0</ele><time>2026-04-12T11:25:34Z</time></trkpt><trkpt lat="41.41547413152994" lon="13.94448449238566"><ele>117.25</ele><time>2026-04-12T11:25:35Z</time></trkpt><trkpt lat="41.41544021863757" lon="13.94467476706634"><ele>115.5</ele><time>2026-04-12T11:25:36Z</time></trkpt><trkpt lat="41.4154065741691" lon="13.94485876105787"><ele>113.75</ele><time>2026-04-12T11:25:37Z</time></trkpt><trkpt lat="41.41537324000251" lon="13.945042581082"><ele>112.0</ele><time>2026-04-12T11:25:38Z</time></trkpt><trkpt lat="41.41534228582534" lon="13.945212030184953"><ele>111.75</ele><time>2026-04-12T11:25:39Z</time></trkpt><trkpt lat="41.415299746261155" lon="13.945388088185679"><ele>111.5</ele><time>2026-04-12T11:25:40Z</time></trkpt><trkpt lat="41.415269234942905" lon="13.945553032057163"><ele>111.25</ele><time>2026-04-12T11:25:41Z</time></trkpt><trkpt lat="41.41523836115223" lon="13.945707301772423"><ele>111.0</ele><time>2026-04-12T11:25:42Z</time></trkpt><trkpt lat="41.41520956252611" lon="13.945839599491517"><ele>111.19999999999999</ele><time>2026-04-12T11:25:43Z</time></trkpt><trkpt lat="41.41518552713804" lon="13.945970889823931"><ele>111.39999999999999</ele><time>2026-04-12T11:25:44Z</time></trkpt><trkpt lat="41.415166245480016" lon="13.946094333284814"><ele>111.6</ele><time>2026-04-12T11:25:45Z</time></trkpt><trkpt lat="41.41514656308804" lon="13.946200670863728"><ele>111.8</ele><time>2026-04-12T11:25:46Z</time></trkpt><trkpt lat="41.4151130089059" lon="13.946280830295645"><ele>112.0</ele><time>2026-04-12T11:25:47Z</time></trkpt><trkpt lat="41.414918477743115" lon="13.946274435214118"><ele>112.0</ele><time>2026-04-12T11:25:50Z</time></trkpt><trkpt lat="41.41481732956603" lon="13.946238367232171"><ele>112.0</ele><time>2026-04-12T11:25:51Z</time></trkpt><trkpt lat="41.41469971584695" lon="13.946216988362986"><ele>112.0</ele><time>2026-04-12T11:25:52Z</time></trkpt><trkpt lat="41.41459341514057" lon="13.946143741683573"><ele>112.0</ele><time>2026-04-12T11:25:53Z</time></trkpt><trkpt lat="41.414466177732365" lon="13.946100252580864"><ele>112.0</ele><time>2026-04-12T11:25:54Z</time></trkpt><trkpt lat="41.414342158964175" lon="13.946021987254158"><ele>112.0</ele><time>2026-04-12T11:25:55Z</time></trkpt><trkpt lat="41.414216017180415" lon="13.945934981522582"><ele>112.0</ele><time>2026-04-12T11:25:56Z</time></trkpt><trkpt lat="41.41409062832213" lon="13.94583372899127"><ele>112.0</ele><time>2026-04-12T11:25:57Z</time></trkpt><trkpt lat="41.413958686604936" lon="13.945740042832007"><ele>112.0</ele><time>2026-04-12T11:25:58Z</time></trkpt><trkpt lat="41.413840020813154" lon="13.945654970160282"><ele>112.0</ele><time>2026-04-12T11:25:59Z</time></trkpt><trkpt lat="41.41371338574263" lon="13.945565671242504"><ele>112.0</ele><time>2026-04-12T11:26:00Z</time></trkpt><trkpt lat="41.413587791198424" lon="13.94547765861415"><ele>112.0</ele><time>2026-04-12T11:26:01Z</time></trkpt><trkpt lat="41.413454904234264" lon="13.945387721445147"><ele>112.25</ele><time>2026-04-12T11:26:02Z</time></trkpt><trkpt lat="41.413330313246156" lon="13.94530394285385"><ele>112.5</ele><time>2026-04-12T11:26:03Z</time></trkpt><trkpt lat="41.413212058767236" lon="13.945224891193087"><ele>112.75</ele><time>2026-04-12T11:26:04Z</time></trkpt><trkpt lat="41.41309607311529" lon="13.945150936634494"><ele>113.0</ele><time>2026-04-12T11:26:05Z</time></trkpt><trkpt lat="41.41298822787265" lon="13.945081996647717"><ele>113.0</ele><time>2026-04-12T11:26:06Z</time></trkpt><trkpt lat="41.41289478348295" lon="13.945006687672473"><ele>113.00000000000001</ele><time>2026-04-12T11:26:07Z</time></trkpt><trkpt lat="41.4128168699555" lon="13.944927389269314"><ele>113.00000000000001</ele><time>2026-04-12T11:26:08Z</time></trkpt><trkpt lat="41.4127689858573" lon="13.94484838288767"><ele>113.0</ele><time>2026-04-12T11:26:09Z</time></trkpt><trkpt lat="41.412762232551444" lon="13.944756167509437"><ele>113.0</ele><time>2026-04-12T11:26:10Z</time></trkpt><trkpt lat="41.412586639280605" lon="13.944755178125549"><ele>113.0</ele><time>2026-04-12T11:26:11Z</time></trkpt><trkpt lat="41.41255201424491" lon="13.944626550913181"><ele>113.00000000000001</ele><time>2026-04-12T11:26:12Z</time></trkpt><trkpt lat="41.412522529394685" lon="13.944483912389343"><ele>113.00000000000001</ele><time>2026-04-12T11:26:13Z</time></trkpt><trkpt lat="41.41248700336747" lon="13.94433962037588"><ele>113.0</ele><time>2026-04-12T11:26:14Z</time></trkpt><trkpt lat="41.41243161095285" lon="13.94421195424856"><ele>113.0</ele><time>2026-04-12T11:26:15Z</time></trkpt><trkpt lat="41.41237240498875" lon="13.944091875257097"><ele>113.2</ele><time>2026-04-12T11:26:16Z</time></trkpt><trkpt lat="41.41232124793346" lon="13.943983035570032"><ele>113.4</ele><time>2026-04-12T11:26:17Z</time></trkpt><trkpt lat="41.41227757785022" lon="13.943883470370904"><ele>113.60000000000001</ele><time>2026-04-12T11:26:18Z</time></trkpt><trkpt lat="41.41223266146862" lon="13.943805082965495"><ele>113.80000000000001</ele><time>2026-04-12T11:26:19Z</time></trkpt><trkpt lat="41.41216478293118" lon="13.943671344061643"><ele>114.0</ele><time>2026-04-12T11:26:21Z</time></trkpt><trkpt lat="41.412082564783105" lon="13.943654416741163"><ele>114.0</ele><time>2026-04-12T11:26:23.001Z</time></trkpt><trkpt lat="41.41201882426386" lon="13.943734573804623"><ele>114.0</ele><time>2026-04-12T11:26:24.001Z</time></trkpt><trkpt lat="41.41197443865015" lon="13.943830774482485"><ele>114.0</ele><time>2026-04-12T11:26:25.001Z</time></trkpt><trkpt lat="41.41194124662223" lon="13.943915960303302"><ele>114.0</ele><time>2026-04-12T11:26:26.001Z</time></trkpt><trkpt lat="41.41195293618536" lon="13.944036245691764"><ele>114.0</ele><time>2026-04-12T11:26:28.001Z</time></trkpt><trkpt lat="41.41201603303512" lon="13.944139994601487"><ele>114.0</ele><time>2026-04-12T11:26:30.001Z</time></trkpt><trkpt lat="41.41197246633956" lon="13.944238979041671"><ele>115.66666666666666</ele><time>2026-04-12T11:26:34.001Z</time></trkpt><trkpt lat="41.4119012611034" lon="13.944297945405543"><ele>117.33333333333333</ele><time>2026-04-12T11:26:35.001Z</time></trkpt><trkpt lat="41.41186267030893" lon="13.944372958376205"><ele>119.0</ele><time>2026-04-12T11:26:37.001Z</time></trkpt><trkpt lat="41.41175694455798" lon="13.944792399476025"><ele>119.0</ele><time>2026-04-12T11:26:38.001Z</time></trkpt><trkpt lat="41.41167887983649" lon="13.944794639555518"><ele>119.0</ele><time>2026-04-12T11:26:39.001Z</time></trkpt><trkpt lat="41.41149924439656" lon="13.944915797992413"><ele>119.0</ele><time>2026-04-12T11:26:41.001Z</time></trkpt><trkpt lat="41.41145212993607" lon="13.945009358501757"><ele>119.0</ele><time>2026-04-12T11:26:42Z</time></trkpt><trkpt lat="41.41138366713118" lon="13.945077491685387"><ele>119.0</ele><time>2026-04-12T11:26:43Z</time></trkpt><trkpt lat="41.411276156054704" lon="13.945093735358673"><ele>119.99999999999999</ele><time>2026-04-12T11:26:45Z</time></trkpt><trkpt lat="41.411203865382525" lon="13.945121931012679"><ele>121.0</ele><time>2026-04-12T11:26:46Z</time></trkpt><trkpt lat="41.41113867092338" lon="13.945149917673238"><ele>122.0</ele><time>2026-04-12T11:26:47Z</time></trkpt><trkpt lat="41.4110578757509" lon="13.94513215780185"><ele>123.0</ele><time>2026-04-12T11:26:48Z</time></trkpt><trkpt lat="41.41098437306897" lon="13.9451739123953"><ele>123.99999999999999</ele><time>2026-04-12T11:26:50Z</time></trkpt><trkpt lat="41.41093077269754" lon="13.945229764507673"><ele>125.0</ele><time>2026-04-12T11:26:51Z</time></trkpt><trkpt lat="41.410860928829294" lon="13.945304289215331"><ele>124.99999999999999</ele><time>2026-04-12T11:26:53Z</time></trkpt><trkpt lat="41.410787850035845" lon="13.945264421322598"><ele>125.0</ele><time>2026-04-12T11:26:59Z</time></trkpt><trkpt lat="41.41071302726744" lon="13.945377846504215"><ele>125.0</ele><time>2026-04-12T11:27:02Z</time></trkpt><trkpt lat="41.41065176666099" lon="13.945421983225108"><ele>125.0</ele><time>2026-04-12T11:27:04Z</time></trkpt><trkpt lat="41.4105675138229" lon="13.945463565634629"><ele>124.99999999999999</ele><time>2026-04-12T11:27:07Z</time></trkpt><trkpt lat="41.41051578774196" lon="13.945525477013502"><ele>125.0</ele><time>2026-04-12T11:27:12Z</time></trkpt><trkpt lat="41.410443420513175" lon="13.945609915511579"><ele>125.2</ele><time>2026-04-12T11:27:15Z</time></trkpt><trkpt lat="41.41032909945733" lon="13.945624550710077"><ele>125.4</ele><time>2026-04-12T11:27:18Z</time></trkpt><trkpt lat="41.41028775326074" lon="13.945740843211981"><ele>125.6</ele><time>2026-04-12T11:27:20Z</time></trkpt><trkpt lat="41.41021623942526" lon="13.945735768661038"><ele>125.8</ele><time>2026-04-12T11:27:21Z</time></trkpt><trkpt lat="41.41017576905002" lon="13.945841343264432"><ele>126.0</ele><time>2026-04-12T11:27:22Z</time></trkpt><trkpt lat="41.41014084940242" lon="13.945993496765372"><ele>127.6</ele><time>2026-04-12T11:27:24Z</time></trkpt><trkpt lat="41.410062439585886" lon="13.946052223691108"><ele>129.2</ele><time>2026-04-12T11:27:26Z</time></trkpt><trkpt lat="41.40995338114378" lon="13.946111854758454"><ele>130.8</ele><time>2026-04-12T11:27:28Z</time></trkpt><trkpt lat="41.40987910098174" lon="13.946157897774299"><ele>132.4</ele><time>2026-04-12T11:27:30Z</time></trkpt><trkpt lat="41.40978217356045" lon="13.946214296670119"><ele>134.0</ele><time>2026-04-12T11:27:33Z</time></trkpt><trkpt lat="41.409726581767906" lon="13.946262554708479"><ele>133.75</ele><time>2026-04-12T11:27:36Z</time></trkpt><trkpt lat="41.40965862162398" lon="13.946336361279277"><ele>133.5</ele><time>2026-04-12T11:27:38Z</time></trkpt><trkpt lat="41.4095966452501" lon="13.946365583451419"><ele>133.25</ele><time>2026-04-12T11:27:40Z</time></trkpt><trkpt lat="41.409485447577346" lon="13.946406498018403"><ele>133.0</ele><time>2026-04-12T11:27:42Z</time></trkpt><trkpt lat="41.40931083394522" lon="13.946509321666099"><ele>133.0</ele><time>2026-04-12T11:27:44Z</time></trkpt><trkpt lat="41.40924070657633" lon="13.946571085994039"><ele>133.0</ele><time>2026-04-12T11:27:45Z</time></trkpt><trkpt lat="41.4092104189958" lon="13.94666604009636"><ele>133.0</ele><time>2026-04-12T11:27:46Z</time></trkpt><trkpt lat="41.409169539851185" lon="13.946763830549683"><ele>133.0</ele><time>2026-04-12T11:27:47Z</time></trkpt><trkpt lat="41.40909989307408" lon="13.946857094738682"><ele>133.0</ele><time>2026-04-12T11:27:49Z</time></trkpt><trkpt lat="41.409001912462614" lon="13.946964533473762"><ele>134.33333333333334</ele><time>2026-04-12T11:27:51Z</time></trkpt><trkpt lat="41.40892669781569" lon="13.946983106585298"><ele>135.66666666666669</ele><time>2026-04-12T11:27:52Z</time></trkpt><trkpt lat="41.40883788543394" lon="13.947057091272656"><ele>137.0</ele><time>2026-04-12T11:27:54Z</time></trkpt><trkpt lat="41.4087841915206" lon="13.947123182442068"><ele>138.33333333333334</ele><time>2026-04-12T11:27:56Z</time></trkpt><trkpt lat="41.408696626152384" lon="13.94714308368016"><ele>139.66666666666666</ele><time>2026-04-12T11:27:59Z</time></trkpt><trkpt lat="41.40866127757297" lon="13.947214921364123"><ele>141.0</ele><time>2026-04-12T11:28:00Z</time></trkpt><trkpt lat="41.40858254404943" lon="13.947290365013046"><ele>141.0</ele><time>2026-04-12T11:28:03Z</time></trkpt><trkpt lat="41.408548523993375" lon="13.947365358099532"><ele>141.0</ele><time>2026-04-12T11:28:05Z</time></trkpt><trkpt lat="41.408453474635294" lon="13.947401537208611"><ele>141.0</ele><time>2026-04-12T11:28:07Z</time></trkpt><trkpt lat="41.408419457891156" lon="13.9474743597523"><ele>141.0</ele><time>2026-04-12T11:28:10Z</time></trkpt><trkpt lat="41.40831842312853" lon="13.947555151017315"><ele>141.0</ele><time>2026-04-12T11:28:12Z</time></trkpt><trkpt lat="41.40826267242701" lon="13.947614236864856"><ele>141.0</ele><time>2026-04-12T11:28:14Z</time></trkpt><trkpt lat="41.40821589131923" lon="13.947677174093338"><ele>142.83333333333334</ele><time>2026-04-12T11:28:16Z</time></trkpt><trkpt lat="41.408167382398894" lon="13.947750903682563"><ele>144.66666666666666</ele><time>2026-04-12T11:28:19Z</time></trkpt><trkpt lat="41.408126294589835" lon="13.947830535669517"><ele>146.5</ele><time>2026-04-12T11:28:22.001Z</time></trkpt><trkpt lat="41.40806522261814" lon="13.947870502063926"><ele>148.33333333333331</ele><time>2026-04-12T11:28:24.001Z</time></trkpt><trkpt lat="41.407987772435945" lon="13.94798282011994"><ele>150.16666666666666</ele><time>2026-04-12T11:28:26.001Z</time></trkpt><trkpt lat="41.40791226254428" lon="13.948028390730581"><ele>152.0</ele><time>2026-04-12T11:28:29.001Z</time></trkpt><trkpt lat="41.40789600432325" lon="13.948150565589868"><ele>153.33333333333331</ele><time>2026-04-12T11:28:31.001Z</time></trkpt><trkpt lat="41.40786874458093" lon="13.948246387478218"><ele>154.66666666666666</ele><time>2026-04-12T11:28:33.001Z</time></trkpt><trkpt lat="41.407837577470595" lon="13.948340048402756"><ele>156.0</ele><time>2026-04-12T11:28:36.001Z</time></trkpt><trkpt lat="41.40778717917647" lon="13.948397660436727"><ele>157.33333333333334</ele><time>2026-04-12T11:28:38.001Z</time></trkpt><trkpt lat="41.40778174314839" lon="13.948529540179711"><ele>158.66666666666669</ele><time>2026-04-12T11:28:41.001Z</time></trkpt><trkpt lat="41.40777552478658" lon="13.948644243234963"><ele>160.0</ele><time>2026-04-12T11:28:44.001Z</time></trkpt><trkpt lat="41.407775960739464" lon="13.94883219052587"><ele>161.8</ele><time>2026-04-12T11:28:47.001Z</time></trkpt><trkpt lat="41.40770659388821" lon="13.948956581540898"><ele>163.6</ele><time>2026-04-12T11:28:50Z</time></trkpt><trkpt lat="41.40768644779767" lon="13.94908722579843"><ele>165.39999999999998</ele><time>2026-04-12T11:28:52Z</time></trkpt><trkpt lat="41.40766611663098" lon="13.949214336832704"><ele>167.2</ele><time>2026-04-12T11:28:55Z</time></trkpt><trkpt lat="41.40761559031106" lon="13.949266391160704"><ele>169.0</ele><time>2026-04-12T11:28:56Z</time></trkpt><trkpt lat="41.40752628771214" lon="13.949303200158964"><ele>169.5</ele><time>2026-04-12T11:28:57Z</time></trkpt><trkpt lat="41.40747136194902" lon="13.94936299637679"><ele>170.0</ele><time>2026-04-12T11:28:59Z</time></trkpt><trkpt lat="41.40740722309064" lon="13.949425396581239"><ele>170.5</ele><time>2026-04-12T11:29:01Z</time></trkpt><trkpt lat="41.40733971628111" lon="13.94947997447605"><ele>171.0</ele><time>2026-04-12T11:29:03Z</time></trkpt><trkpt lat="41.40732082557468" lon="13.949584449836212"><ele>171.5</ele><time>2026-04-12T11:29:05Z</time></trkpt><trkpt lat="41.40726218938482" lon="13.94964084663818"><ele>172.0</ele><time>2026-04-12T11:29:06Z</time></trkpt><trkpt lat="41.407185001957416" lon="13.949684237477792"><ele>172.0</ele><time>2026-04-12T11:29:08Z</time></trkpt><trkpt lat="41.40718724171036" lon="13.949772001255804"><ele>172.0</ele><time>2026-04-12T11:29:10Z</time></trkpt><trkpt lat="41.40740050494562" lon="13.949818776271822"><ele>172.0</ele><time>2026-04-12T11:29:18Z</time></trkpt><trkpt lat="41.40748157143307" lon="13.949821842321265"><ele>172.0</ele><time>2026-04-12T11:29:20Z</time></trkpt><trkpt lat="41.40754233867936" lon="13.949863777388137"><ele>172.0</ele><time>2026-04-12T11:29:23Z</time></trkpt><trkpt lat="41.40769716568849" lon="13.949903660296235"><ele>172.0</ele><time>2026-04-12T11:29:27Z</time></trkpt><trkpt lat="41.40777098551089" lon="13.949948317890465"><ele>172.0</ele><time>2026-04-12T11:29:30Z</time></trkpt><trkpt lat="41.407836725380214" lon="13.95000467856005"><ele>172.0</ele><time>2026-04-12T11:29:33Z</time></trkpt><trkpt lat="41.40788771910585" lon="13.950101346585951"><ele>172.0</ele><time>2026-04-12T11:29:34Z</time></trkpt><trkpt lat="41.4079405209144" lon="13.950183374711262"><ele>172.0</ele><time>2026-04-12T11:29:35Z</time></trkpt><trkpt lat="41.40819487337769" lon="13.950323237520948"><ele>168.5</ele><time>2026-04-12T11:29:37Z</time></trkpt><trkpt lat="41.40830018296203" lon="13.9503773479298"><ele>165.0</ele><time>2026-04-12T11:29:40Z</time></trkpt><trkpt lat="41.40835174652412" lon="13.950435286906208"><ele>161.5</ele><time>2026-04-12T11:29:42Z</time></trkpt><trkpt lat="41.408453304162855" lon="13.950557710592335"><ele>158.0</ele><time>2026-04-12T11:29:45Z</time></trkpt><trkpt lat="41.40919647264392" lon="13.950883236437575"><ele>155.0</ele><time>2026-04-12T11:29:47Z</time></trkpt><trkpt lat="41.40941866540649" lon="13.95094151047494"><ele>152.0</ele><time>2026-04-12T11:29:50Z</time></trkpt><trkpt lat="41.409511924786" lon="13.951049797909908"><ele>149.0</ele><time>2026-04-12T11:29:52Z</time></trkpt><trkpt lat="41.40967131565901" lon="13.95108099944295"><ele>147.0</ele><time>2026-04-12T11:29:53Z</time></trkpt><trkpt lat="41.409772818494034" lon="13.951133287267456"><ele>145.0</ele><time>2026-04-12T11:29:54Z</time></trkpt><trkpt lat="41.409865889503685" lon="13.951214594122375"><ele>143.0</ele><time>2026-04-12T11:29:55Z</time></trkpt><trkpt lat="41.40995328885007" lon="13.951249945578246"><ele>141.0</ele><time>2026-04-12T11:29:56Z</time></trkpt><trkpt lat="41.410019106572996" lon="13.951315439311557"><ele>139.0</ele><time>2026-04-12T11:29:57Z</time></trkpt><trkpt lat="41.410093668272246" lon="13.95136624772607"><ele>139.0</ele><time>2026-04-12T11:29:58Z</time></trkpt><trkpt lat="41.41019644965191" lon="13.951445986514331"><ele>139.0</ele><time>2026-04-12T11:29:59Z</time></trkpt><trkpt lat="41.410314426316525" lon="13.951540228592213"><ele>139.0</ele><time>2026-04-12T11:30:00Z</time></trkpt><trkpt lat="41.410422374819476" lon="13.951619648766652"><ele>139.0</ele><time>2026-04-12T11:30:01Z</time></trkpt><trkpt lat="41.410560607490524" lon="13.95169778673512"><ele>136.5</ele><time>2026-04-12T11:30:02Z</time></trkpt><trkpt lat="41.410695477818386" lon="13.951793742900154"><ele>134.0</ele><time>2026-04-12T11:30:03Z</time></trkpt><trkpt lat="41.410802611725565" lon="13.951875409183401"><ele>131.5</ele><time>2026-04-12T11:30:04Z</time></trkpt><trkpt lat="41.41089391868225" lon="13.951935085333675"><ele>129.0</ele><time>2026-04-12T11:30:05Z</time></trkpt><trkpt lat="41.41099204766826" lon="13.952007041730445"><ele>129.0</ele><time>2026-04-12T11:30:06Z</time></trkpt><trkpt lat="41.41109283467408" lon="13.9520715568685"><ele>129.0</ele><time>2026-04-12T11:30:07Z</time></trkpt><trkpt lat="41.41118158447855" lon="13.952134145548229"><ele>129.0</ele><time>2026-04-12T11:30:08Z</time></trkpt><trkpt lat="41.41118957079013" lon="13.95223187001919"><ele>129.0</ele><time>2026-04-12T11:30:10Z</time></trkpt><trkpt lat="41.41115797545921" lon="13.952307971032145"><ele>129.0</ele><time>2026-04-12T11:30:11Z</time></trkpt><trkpt lat="41.411102863072585" lon="13.952415747568848"><ele>129.0</ele><time>2026-04-12T11:30:12Z</time></trkpt><trkpt lat="41.41105031665379" lon="13.952550564053904"><ele>128.75</ele><time>2026-04-12T11:30:13Z</time></trkpt><trkpt lat="41.4110036128104" lon="13.95267037942039"><ele>128.5</ele><time>2026-04-12T11:30:14Z</time></trkpt><trkpt lat="41.41096881083066" lon="13.952791715989004"><ele>128.25</ele><time>2026-04-12T11:30:15Z</time></trkpt><trkpt lat="41.411091485346056" lon="13.95303014246658"><ele>128.0</ele><time>2026-04-12T11:30:16Z</time></trkpt><trkpt lat="41.41105141764371" lon="13.953131318674433"><ele>128.0</ele><time>2026-04-12T11:30:17Z</time></trkpt><trkpt lat="41.411017217219374" lon="13.95321916042465"><ele>128.0</ele><time>2026-04-12T11:30:18Z</time></trkpt><trkpt lat="41.41098741059039" lon="13.953295716579595"><ele>128.0</ele><time>2026-04-12T11:30:19Z</time></trkpt><trkpt lat="41.41093788858969" lon="13.95342290988979"><ele>128.0</ele><time>2026-04-12T11:30:21Z</time></trkpt><trkpt lat="41.4108375583542" lon="13.953680600626264"><ele>128.20000000000002</ele><time>2026-04-12T11:30:29.023Z</time></trkpt><trkpt lat="41.41097788848902" lon="13.953731284967349"><ele>128.4</ele><time>2026-04-12T11:30:34Z</time></trkpt><trkpt lat="41.41091781280058" lon="13.953859795174758"><ele>128.60000000000002</ele><time>2026-04-12T11:30:35Z</time></trkpt><trkpt lat="41.41087973214355" lon="13.953957603345799"><ele>128.8</ele><time>2026-04-12T11:30:36Z</time></trkpt><trkpt lat="41.4108502011554" lon="13.954033450368707"><ele>129.0</ele><time>2026-04-12T11:30:37Z</time></trkpt><trkpt lat="41.410810438429515" lon="13.95413500589214"><ele>129.33333333333334</ele><time>2026-04-12T11:30:38Z</time></trkpt><trkpt lat="41.41077460735672" lon="13.954226442194045"><ele>129.66666666666666</ele><time>2026-04-12T11:30:39Z</time></trkpt><trkpt lat="41.41074078179185" lon="13.95431275809155"><ele>130.0</ele><time>2026-04-12T11:30:40Z</time></trkpt><trkpt lat="41.41069781711424" lon="13.954422398881876"><ele>130.33333333333331</ele><time>2026-04-12T11:30:41.001Z</time></trkpt><trkpt lat="41.41065376020795" lon="13.954534823074292"><ele>130.66666666666666</ele><time>2026-04-12T11:30:42.001Z</time></trkpt><trkpt lat="41.410611173207485" lon="13.95464349713617"><ele>131.0</ele><time>2026-04-12T11:30:43.001Z</time></trkpt><trkpt lat="41.41055798330699" lon="13.95477922755898"><ele>131.0</ele><time>2026-04-12T11:30:44.001Z</time></trkpt><trkpt lat="41.41050438633792" lon="13.954915995458203"><ele>131.0</ele><time>2026-04-12T11:30:45.001Z</time></trkpt><trkpt lat="41.41046333466006" lon="13.955020749184683"><ele>131.0</ele><time>2026-04-12T11:30:46.001Z</time></trkpt><trkpt lat="41.410437273731176" lon="13.955132663616396"><ele>131.0</ele><time>2026-04-12T11:30:47.001Z</time></trkpt><trkpt lat="41.41040713276444" lon="13.955268674507357"><ele>131.0</ele><time>2026-04-12T11:30:48.001Z</time></trkpt><trkpt lat="41.41038660920844" lon="13.955394676872016"><ele>134.0</ele><time>2026-04-12T11:30:49.001Z</time></trkpt><trkpt lat="41.4110489421806" lon="13.955960445026593"><ele>134.0</ele><time>2026-04-12T11:30:50.001Z</time></trkpt><trkpt lat="41.41103730896389" lon="13.956045712692314"><ele>134.0</ele><time>2026-04-12T11:30:51.001Z</time></trkpt><trkpt lat="41.41102431061576" lon="13.95618896179242"><ele>134.0</ele><time>2026-04-12T11:30:52.001Z</time></trkpt><trkpt lat="41.41102035860364" lon="13.956349546705008"><ele>134.0</ele><time>2026-04-12T11:30:53.001Z</time></trkpt><trkpt lat="41.41102044021036" lon="13.956517406477495"><ele>134.0</ele><time>2026-04-12T11:30:54Z</time></trkpt><trkpt lat="41.411018505797884" lon="13.956702673714911"><ele>134.0</ele><time>2026-04-12T11:30:55Z</time></trkpt><trkpt lat="41.411019178878846" lon="13.956860009476685"><ele>134.0</ele><time>2026-04-12T11:30:56Z</time></trkpt><trkpt lat="41.410997078564165" lon="13.957022695123875"><ele>134.0</ele><time>2026-04-12T11:30:57Z</time></trkpt><trkpt lat="41.410941197969755" lon="13.957203135883931"><ele>134.0</ele><time>2026-04-12T11:30:58Z</time></trkpt><trkpt lat="41.410874941391164" lon="13.957382898543202"><ele>133.66666666666666</ele><time>2026-04-12T11:30:59Z</time></trkpt><trkpt lat="41.410815383725314" lon="13.957556165058302"><ele>133.33333333333334</ele><time>2026-04-12T11:31:00Z</time></trkpt><trkpt lat="41.410759904425355" lon="13.957749407229752"><ele>133.0</ele><time>2026-04-12T11:31:01Z</time></trkpt><trkpt lat="41.41070188202932" lon="13.957940934363808"><ele>133.0</ele><time>2026-04-12T11:31:02Z</time></trkpt><trkpt lat="41.410639815978335" lon="13.958128025795496"><ele>133.0</ele><time>2026-04-12T11:31:03Z</time></trkpt><trkpt lat="41.41056419637567" lon="13.958312849784836"><ele>133.0</ele><time>2026-04-12T11:31:04Z</time></trkpt><trkpt lat="41.41047899657145" lon="13.958488532818699"><ele>135.0</ele><time>2026-04-12T11:31:05Z</time></trkpt><trkpt lat="41.41039315725311" lon="13.958658426303346"><ele>137.0</ele><time>2026-04-12T11:31:06Z</time></trkpt><trkpt lat="41.41030610491995" lon="13.958851579915951"><ele>139.0</ele><time>2026-04-12T11:31:07Z</time></trkpt><trkpt lat="41.41021628164597" lon="13.959057749151867"><ele>137.33333333333334</ele><time>2026-04-12T11:31:08Z</time></trkpt><trkpt lat="41.4101314879533" lon="13.959274712432679"><ele>135.66666666666666</ele><time>2026-04-12T11:31:09Z</time></trkpt><trkpt lat="41.41005488386069" lon="13.959467967547216"><ele>134.0</ele><time>2026-04-12T11:31:10Z</time></trkpt><trkpt lat="41.40998800134281" lon="13.959643949672419"><ele>134.0</ele><time>2026-04-12T11:31:11Z</time></trkpt><trkpt lat="41.40992180449528" lon="13.959811167984194"><ele>134.0</ele><time>2026-04-12T11:31:12Z</time></trkpt><trkpt lat="41.4098695577603" lon="13.959968334644179"><ele>134.0</ele><time>2026-04-12T11:31:13Z</time></trkpt><trkpt lat="41.40984381851015" lon="13.960157946028026"><ele>134.0</ele><time>2026-04-12T11:31:14Z</time></trkpt><trkpt lat="41.40981797090191" lon="13.960366828865947"><ele>133.25</ele><time>2026-04-12T11:31:15Z</time></trkpt><trkpt lat="41.4097794359019" lon="13.960564495049962"><ele>132.5</ele><time>2026-04-12T11:31:16Z</time></trkpt><trkpt lat="41.409731906204044" lon="13.960758490186675"><ele>131.75</ele><time>2026-04-12T11:31:17Z</time></trkpt><trkpt lat="41.40968000609515" lon="13.960925230482873"><ele>131.0</ele><time>2026-04-12T11:31:18Z</time></trkpt><trkpt lat="41.409635453642544" lon="13.961107382530631"><ele>129.75</ele><time>2026-04-12T11:31:19Z</time></trkpt><trkpt lat="41.40959441832934" lon="13.961273966433277"><ele>128.5</ele><time>2026-04-12T11:31:20Z</time></trkpt><trkpt lat="41.40955134217263" lon="13.96142248522806"><ele>127.25</ele><time>2026-04-12T11:31:21Z</time></trkpt><trkpt lat="41.409511752703615" lon="13.961571819462044"><ele>126.0</ele><time>2026-04-12T11:31:22Z</time></trkpt><trkpt lat="41.40945729412321" lon="13.961723102305816"><ele>125.75</ele><time>2026-04-12T11:31:23Z</time></trkpt><trkpt lat="41.40939014571663" lon="13.961878883308575"><ele>125.5</ele><time>2026-04-12T11:31:24Z</time></trkpt><trkpt lat="41.409310037264866" lon="13.962050592184303"><ele>125.25</ele><time>2026-04-12T11:31:25Z</time></trkpt><trkpt lat="41.40924957170691" lon="13.96221465401673"><ele>125.0</ele><time>2026-04-12T11:31:26Z</time></trkpt><trkpt lat="41.40918190095186" lon="13.962366828554757"><ele>125.0</ele><time>2026-04-12T11:31:27Z</time></trkpt><trkpt lat="41.4091019663276" lon="13.96250041612546"><ele>125.0</ele><time>2026-04-12T11:31:28Z</time></trkpt><trkpt lat="41.40901854476562" lon="13.962600338492175"><ele>125.0</ele><time>2026-04-12T11:31:29Z</time></trkpt><trkpt lat="41.408926181107844" lon="13.962671068957848"><ele>125.0</ele><time>2026-04-12T11:31:30Z</time></trkpt><trkpt lat="41.40886946378718" lon="13.962769258343494"><ele>125.0</ele><time>2026-04-12T11:31:31Z</time></trkpt><trkpt lat="41.408853924803935" lon="13.962934831774328"><ele>125.0</ele><time>2026-04-12T11:31:32Z</time></trkpt><trkpt lat="41.40885727278761" lon="13.963111081097562"><ele>125.0</ele><time>2026-04-12T11:31:33Z</time></trkpt><trkpt lat="41.40885583840891" lon="13.963312409458997"><ele>125.0</ele><time>2026-04-12T11:31:34Z</time></trkpt><trkpt lat="41.40888915249479" lon="13.9635047614591"><ele>125.0</ele><time>2026-04-12T11:31:35Z</time></trkpt><trkpt lat="41.408916331769916" lon="13.963663943986901"><ele>125.4</ele><time>2026-04-12T11:31:36Z</time></trkpt><trkpt lat="41.40892524294206" lon="13.963798796796013"><ele>125.8</ele><time>2026-04-12T11:31:37Z</time></trkpt><trkpt lat="41.40889872436848" lon="13.96392314160324"><ele>126.19999999999999</ele><time>2026-04-12T11:31:38Z</time></trkpt><trkpt lat="41.40885760154239" lon="13.964046095534727"><ele>126.6</ele><time>2026-04-12T11:31:39Z</time></trkpt><trkpt lat="41.40880395452707" lon="13.964183164362783"><ele>127.0</ele><time>2026-04-12T11:31:40Z</time></trkpt><trkpt lat="41.40874587913297" lon="13.964313344374103"><ele>125.5</ele><time>2026-04-12T11:31:41Z</time></trkpt><trkpt lat="41.40868437156993" lon="13.964441835195542"><ele>124.0</ele><time>2026-04-12T11:31:42Z</time></trkpt><trkpt lat="41.40861178966181" lon="13.964589125525844"><ele>122.5</ele><time>2026-04-12T11:31:43Z</time></trkpt><trkpt lat="41.408536027097625" lon="13.96474311414772"><ele>121.0</ele><time>2026-04-12T11:31:44Z</time></trkpt><trkpt lat="41.40846470437977" lon="13.964913001315132"><ele>120.0</ele><time>2026-04-12T11:31:45Z</time></trkpt><trkpt lat="41.40837562936134" lon="13.965068805311558"><ele>119.0</ele><time>2026-04-12T11:31:46Z</time></trkpt><trkpt lat="41.40826988667168" lon="13.96524002111109"><ele>118.0</ele><time>2026-04-12T11:31:47Z</time></trkpt><trkpt lat="41.40815678702574" lon="13.965410221405833"><ele>118.0</ele><time>2026-04-12T11:31:48Z</time></trkpt><trkpt lat="41.408043362583356" lon="13.965582946342229"><ele>118.0</ele><time>2026-04-12T11:31:49Z</time></trkpt><trkpt lat="41.40794382576594" lon="13.965744444177496"><ele>118.0</ele><time>2026-04-12T11:31:50Z</time></trkpt><trkpt lat="41.40785816293761" lon="13.965916190663533"><ele>118.0</ele><time>2026-04-12T11:31:51Z</time></trkpt><trkpt lat="41.407776848806435" lon="13.96610486698094"><ele>118.0</ele><time>2026-04-12T11:31:52Z</time></trkpt><trkpt lat="41.407706085718964" lon="13.966294900625542"><ele>118.0</ele><time>2026-04-12T11:31:53Z</time></trkpt><trkpt lat="41.407641162807636" lon="13.96646234977745"><ele>118.0</ele><time>2026-04-12T11:31:54Z</time></trkpt><trkpt lat="41.40756650332148" lon="13.966654041365592"><ele>118.0</ele><time>2026-04-12T11:31:55Z</time></trkpt><trkpt lat="41.407513460848115" lon="13.96687627486771"><ele>118.0</ele><time>2026-04-12T11:31:56Z</time></trkpt><trkpt lat="41.407440739755685" lon="13.967063746977855"><ele>118.33333333333334</ele><time>2026-04-12T11:31:57Z</time></trkpt><trkpt lat="41.40736881407182" lon="13.96726794257421"><ele>118.66666666666666</ele><time>2026-04-12T11:31:58Z</time></trkpt><trkpt lat="41.407296669996015" lon="13.967469023736996"><ele>119.0</ele><time>2026-04-12T11:31:59Z</time></trkpt><trkpt lat="41.40723312771634" lon="13.967663898155507"><ele>119.0</ele><time>2026-04-12T11:32:00Z</time></trkpt><trkpt lat="41.40717966367285" lon="13.967871634602947"><ele>119.0</ele><time>2026-04-12T11:32:01Z</time></trkpt><trkpt lat="41.40710351875607" lon="13.968056939916583"><ele>119.0</ele><time>2026-04-12T11:32:02Z</time></trkpt><trkpt lat="41.40700328463552" lon="13.968213024685799"><ele>120.25</ele><time>2026-04-12T11:32:03Z</time></trkpt><trkpt lat="41.40692167439593" lon="13.96837470692357"><ele>121.5</ele><time>2026-04-12T11:32:04Z</time></trkpt><trkpt lat="41.40682423969913" lon="13.968539152541586"><ele>122.75</ele><time>2026-04-12T11:32:05Z</time></trkpt><trkpt lat="41.40673460752505" lon="13.968693024160109"><ele>124.0</ele><time>2026-04-12T11:32:06Z</time></trkpt><trkpt lat="41.40663074541694" lon="13.96880935603736"><ele>124.0</ele><time>2026-04-12T11:32:07Z</time></trkpt><trkpt lat="41.40651496286798" lon="13.96892268829343"><ele>124.0</ele><time>2026-04-12T11:32:08Z</time></trkpt><trkpt lat="41.40638401998457" lon="13.969034598044056"><ele>124.0</ele><time>2026-04-12T11:32:09Z</time></trkpt><trkpt lat="41.40624487271481" lon="13.96913747137047"><ele>124.75</ele><time>2026-04-12T11:32:10Z</time></trkpt><trkpt lat="41.406119150969964" lon="13.96921913449568"><ele>125.5</ele><time>2026-04-12T11:32:11Z</time></trkpt><trkpt lat="41.4059974697515" lon="13.969289072539043"><ele>126.25</ele><time>2026-04-12T11:32:12Z</time></trkpt><trkpt lat="41.405897001931606" lon="13.969340944679471"><ele>127.0</ele><time>2026-04-12T11:32:13Z</time></trkpt><trkpt lat="41.405808013531214" lon="13.96941427306445"><ele>127.00000000000001</ele><time>2026-04-12T11:32:14Z</time></trkpt><trkpt lat="41.40574807934797" lon="13.969454289108812"><ele>127.0</ele><time>2026-04-12T11:32:15Z</time></trkpt><trkpt lat="41.40570539501683" lon="13.969331786409294"><ele>127.0</ele><time>2026-04-12T11:32:19Z</time></trkpt><trkpt lat="41.40567071845679" lon="13.969254548082754"><ele>127.0</ele><time>2026-04-12T11:32:20Z</time></trkpt><trkpt lat="41.40563495177744" lon="13.969177482611608"><ele>127.00000000000001</ele><time>2026-04-12T11:32:21Z</time></trkpt><trkpt lat="41.405595309253854" lon="13.969082720942028"><ele>127.0</ele><time>2026-04-12T11:32:22Z</time></trkpt><trkpt lat="41.40555701810267" lon="13.968992678347368"><ele>127.0</ele><time>2026-04-12T11:32:23Z</time></trkpt><trkpt lat="41.40555680018025" lon="13.968881322534246"><ele>127.0</ele><time>2026-04-12T11:32:25Z</time></trkpt><trkpt lat="41.40526986899141" lon="13.968936630875882"><ele>127.0</ele><time>2026-04-12T11:32:26Z</time></trkpt><trkpt lat="41.405213894647304" lon="13.968866058404792"><ele>128.25</ele><time>2026-04-12T11:32:27Z</time></trkpt><trkpt lat="41.40516615183294" lon="13.96881046013787"><ele>129.5</ele><time>2026-04-12T11:32:28Z</time></trkpt><trkpt lat="41.40509326791676" lon="13.9687213528093"><ele>130.75</ele><time>2026-04-12T11:32:30.021Z</time></trkpt><trkpt lat="41.40500063364488" lon="13.968632044001568"><ele>132.0</ele><time>2026-04-12T11:32:32.025Z</time></trkpt><trkpt lat="41.40486942329889" lon="13.968469445710342"><ele>132.0</ele><time>2026-04-12T11:32:34Z</time></trkpt><trkpt lat="41.40474802515535" lon="13.968365137396818"><ele>132.0</ele><time>2026-04-12T11:32:36Z</time></trkpt><trkpt lat="41.40467767620546" lon="13.96825573790107"><ele>132.0</ele><time>2026-04-12T11:32:37Z</time></trkpt><trkpt lat="41.40461912995217" lon="13.968195807856524"><ele>132.0</ele><time>2026-04-12T11:32:38Z</time></trkpt><trkpt lat="41.404554969729816" lon="13.968080753231828"><ele>132.0</ele><time>2026-04-12T11:32:39Z</time></trkpt><trkpt lat="41.40450677866586" lon="13.967991255264772"><ele>131.75</ele><time>2026-04-12T11:32:41Z</time></trkpt><trkpt lat="41.404498888831995" lon="13.967905470542393"><ele>131.5</ele><time>2026-04-12T11:32:45Z</time></trkpt><trkpt lat="41.40449484648249" lon="13.967821027747938"><ele>131.25</ele><time>2026-04-12T11:33:11Z</time></trkpt><trkpt lat="41.40462867461423" lon="13.967588790835421"><ele>131.0</ele><time>2026-04-12T11:34:30Z</time></trkpt><trkpt lat="41.40471552645796" lon="13.96744882003744"><ele>131.0</ele><time>2026-04-12T11:34:31Z</time></trkpt><trkpt lat="41.40478715067862" lon="13.967344842982339"><ele>131.0</ele><time>2026-04-12T11:34:32Z</time></trkpt><trkpt lat="41.40482630888916" lon="13.967265348953681"><ele>131.0</ele><time>2026-04-12T11:34:33Z</time></trkpt><trkpt lat="41.40485897376854" lon="13.967387496988188"><ele>131.0</ele><time>2026-04-12T11:34:36Z</time></trkpt><trkpt lat="41.40483299217472" lon="13.967491628184453"><ele>131.0</ele><time>2026-04-12T11:34:37Z</time></trkpt><trkpt lat="41.40492632941129" lon="13.967600675203627"><ele>131.0</ele><time>2026-04-12T11:34:39Z</time></trkpt><trkpt lat="41.40503292619678" lon="13.967688389749714"><ele>131.0</ele><time>2026-04-12T11:34:40Z</time></trkpt><trkpt lat="41.405092858947434" lon="13.96776983199673"><ele>131.0</ele><time>2026-04-12T11:34:41Z</time></trkpt><trkpt lat="41.40515217446932" lon="13.967723601093738"><ele>131.0</ele><time>2026-04-12T11:34:44Z</time></trkpt><trkpt lat="41.40518191384799" lon="13.967633337902857"><ele>131.0</ele><time>2026-04-12T11:34:45Z</time></trkpt><trkpt lat="41.40521314181757" lon="13.967545232128076"><ele>131.0</ele><time>2026-04-12T11:34:46Z</time></trkpt><trkpt lat="41.40522374534434" lon="13.967461926829026"><ele>131.0</ele><time>2026-04-12T11:34:47Z</time></trkpt><trkpt lat="41.40520932522892" lon="13.967372866073909"><ele>131.0</ele><time>2026-04-12T11:34:48Z</time></trkpt><trkpt lat="41.4051481936784" lon="13.967305305437144"><ele>131.0</ele><time>2026-04-12T11:34:49Z</time></trkpt><trkpt lat="41.40505060953072" lon="13.967247768376302"><ele>131.0</ele><time>2026-04-12T11:34:50Z</time></trkpt><trkpt lat="41.40496690462088" lon="13.967172595739116"><ele>131.0</ele><time>2026-04-12T11:34:51Z</time></trkpt><trkpt lat="41.404928286736244" lon="13.967100725236982"><ele>131.0</ele><time>2026-04-12T11:34:52Z</time></trkpt><trkpt lat="41.40494644943337" lon="13.967003755311381"><ele>131.0</ele><time>2026-04-12T11:34:53Z</time></trkpt><trkpt lat="41.404996867961" lon="13.96689083916125"><ele>131.0</ele><time>2026-04-12T11:34:54Z</time></trkpt><trkpt lat="41.40509471289303" lon="13.966741126913684"><ele>131.0</ele><time>2026-04-12T11:34:55Z</time></trkpt><trkpt lat="41.40518801172349" lon="13.966590143253033"><ele>131.0</ele><time>2026-04-12T11:34:56Z</time></trkpt><trkpt lat="41.405252811720054" lon="13.966467071204208"><ele>131.0</ele><time>2026-04-12T11:34:57Z</time></trkpt><trkpt lat="41.40529003603697" lon="13.966351704823305"><ele>131.0</ele><time>2026-04-12T11:34:58Z</time></trkpt><trkpt lat="41.40529668597799" lon="13.966243129391339"><ele>131.0</ele><time>2026-04-12T11:34:59Z</time></trkpt><trkpt lat="41.405284100131254" lon="13.966153736481324"><ele>131.0</ele><time>2026-04-12T11:35:00Z</time></trkpt><trkpt lat="41.40517841586675" lon="13.96602694274378"><ele>131.0</ele><time>2026-04-12T11:35:02Z</time></trkpt><trkpt lat="41.40507257283898" lon="13.965975428951111"><ele>131.0</ele><time>2026-04-12T11:35:03Z</time></trkpt><trkpt lat="41.404972364382495" lon="13.965943235912146"><ele>131.0</ele><time>2026-04-12T11:35:04Z</time></trkpt><trkpt lat="41.40488336327612" lon="13.965981702849467"><ele>131.0</ele><time>2026-04-12T11:35:05Z</time></trkpt><trkpt lat="41.40484474022218" lon="13.96614263764349"><ele>131.0</ele><time>2026-04-12T11:35:07Z</time></trkpt><trkpt lat="41.404843417701244" lon="13.966313139423448"><ele>131.0</ele><time>2026-04-12T11:35:08Z</time></trkpt><trkpt lat="41.40483403776306" lon="13.96651389441974"><ele>131.0</ele><time>2026-04-12T11:35:09Z</time></trkpt><trkpt lat="41.404822575062816" lon="13.966694514327752"><ele>131.0</ele><time>2026-04-12T11:35:10Z</time></trkpt><trkpt lat="41.40481998573778" lon="13.966808063708049"><ele>131.0</ele><time>2026-04-12T11:35:11Z</time></trkpt><trkpt lat="41.40479439687852" lon="13.966903577299624"><ele>131.0</ele><time>2026-04-12T11:35:13Z</time></trkpt><trkpt lat="41.404685617968966" lon="13.966815948950236"><ele>133.0</ele><time>2026-04-12T11:35:15Z</time></trkpt><trkpt lat="41.4046101644504" lon="13.96668797060297"><ele>135.0</ele><time>2026-04-12T11:35:16Z</time></trkpt><trkpt lat="41.40454230755607" lon="13.966499629536875"><ele>137.0</ele><time>2026-04-12T11:35:17Z</time></trkpt><trkpt lat="41.404489174751745" lon="13.96634160334214"><ele>139.0</ele><time>2026-04-12T11:35:18Z</time></trkpt><trkpt lat="41.40446348423842" lon="13.966243504772022"><ele>139.0</ele><time>2026-04-12T11:35:19Z</time></trkpt><trkpt lat="41.40454714208589" lon="13.966084024077794"><ele>139.0</ele><time>2026-04-12T11:35:21Z</time></trkpt><trkpt lat="41.40463083136064" lon="13.965994563889957"><ele>139.0</ele><time>2026-04-12T11:35:22Z</time></trkpt><trkpt lat="41.40467046187062" lon="13.965903862631828"><ele>139.0</ele><time>2026-04-12T11:35:23Z</time></trkpt><trkpt lat="41.40461152946265" lon="13.965829791735926"><ele>139.0</ele><time>2026-04-12T11:35:26Z</time></trkpt><trkpt lat="41.40455094302096" lon="13.965885261282297"><ele>139.0</ele><time>2026-04-12T11:35:27Z</time></trkpt><trkpt lat="41.40448059412808" lon="13.965992802795375"><ele>139.0</ele><time>2026-04-12T11:35:28Z</time></trkpt><trkpt lat="41.40440530485904" lon="13.966101630295626"><ele>139.0</ele><time>2026-04-12T11:35:29Z</time></trkpt><trkpt lat="41.40432530531398" lon="13.966185158668504"><ele>139.0</ele><time>2026-04-12T11:35:30Z</time></trkpt><trkpt lat="41.404254375791034" lon="13.966167698888546"><ele>139.0</ele><time>2026-04-12T11:35:32Z</time></trkpt><trkpt lat="41.404292964605155" lon="13.965983867099808"><ele>139.0</ele><time>2026-04-12T11:35:34Z</time></trkpt><trkpt lat="41.40435339741353" lon="13.96586770120803"><ele>139.0</ele><time>2026-04-12T11:35:35Z</time></trkpt><trkpt lat="41.404369826896364" lon="13.965783239110799"><ele>139.0</ele><time>2026-04-12T11:35:36Z</time></trkpt><trkpt lat="41.40428912114186" lon="13.965742524455319"><ele>139.0</ele><time>2026-04-12T11:35:38Z</time></trkpt><trkpt lat="41.40422555835434" lon="13.965775609529308"><ele>139.0</ele><time>2026-04-12T11:35:39Z</time></trkpt><trkpt lat="41.40418281024618" lon="13.965856718868935"><ele>139.0</ele><time>2026-04-12T11:35:40Z</time></trkpt><trkpt lat="41.40413342333219" lon="13.96596911328541"><ele>139.0</ele><time>2026-04-12T11:35:41Z</time></trkpt><trkpt lat="41.40404159537096" lon="13.96597269621163"><ele>139.0</ele><time>2026-04-12T11:35:43Z</time></trkpt><trkpt lat="41.403991638517255" lon="13.965898824800414"><ele>139.0</ele><time>2026-04-12T11:35:44Z</time></trkpt><trkpt lat="41.40393666716606" lon="13.965792248909612"><ele>139.0</ele><time>2026-04-12T11:35:45Z</time></trkpt><trkpt lat="41.403991176991354" lon="13.965602583456182"><ele>139.0</ele><time>2026-04-12T11:35:47Z</time></trkpt><trkpt lat="41.404084234679" lon="13.965443212979705"><ele>139.0</ele><time>2026-04-12T11:35:48Z</time></trkpt><trkpt lat="41.40411962387977" lon="13.965370275522169"><ele>139.0</ele><time>2026-04-12T11:35:49Z</time></trkpt><trkpt lat="41.40407689854973" lon="13.965303079469557"><ele>139.0</ele><time>2026-04-12T11:35:51Z</time></trkpt><trkpt lat="41.40396572435947" lon="13.965356626067623"><ele>139.0</ele><time>2026-04-12T11:35:53Z</time></trkpt><trkpt lat="41.40385878221553" lon="13.9654920593711"><ele>139.0</ele><time>2026-04-12T11:35:54Z</time></trkpt><trkpt lat="41.40380749608007" lon="13.965568104446772"><ele>139.0</ele><time>2026-04-12T11:35:55Z</time></trkpt><trkpt lat="41.403871407346244" lon="13.96568550775529"><ele>139.0</ele><time>2026-04-12T11:35:57Z</time></trkpt><trkpt lat="41.40385126572083" lon="13.965833812049464"><ele>139.0</ele><time>2026-04-12T11:35:59Z</time></trkpt><trkpt lat="41.40378054714062" lon="13.965949370832107"><ele>139.0</ele><time>2026-04-12T11:36:00Z</time></trkpt><trkpt lat="41.403700585709714" lon="13.96606592169514"><ele>142.4</ele><time>2026-04-12T11:36:01Z</time></trkpt><trkpt lat="41.4036282416306" lon="13.966158838185603"><ele>145.8</ele><time>2026-04-12T11:36:02Z</time></trkpt><trkpt lat="41.403520969621965" lon="13.966148270569251"><ele>149.2</ele><time>2026-04-12T11:36:04Z</time></trkpt><trkpt lat="41.403537952885756" lon="13.966268493927267"><ele>152.6</ele><time>2026-04-12T11:36:06Z</time></trkpt><trkpt lat="41.40360881123317" lon="13.966295914011784"><ele>156.0</ele><time>2026-04-12T11:36:07Z</time></trkpt><trkpt lat="41.40371540317586" lon="13.966284848690165"><ele>156.0</ele><time>2026-04-12T11:36:08Z</time></trkpt><trkpt lat="41.403828433217384" lon="13.966215694803635"><ele>156.0</ele><time>2026-04-12T11:36:09Z</time></trkpt><trkpt lat="41.4039122995318" lon="13.966109108633706"><ele>156.0</ele><time>2026-04-12T11:36:10Z</time></trkpt><trkpt lat="41.40396154045708" lon="13.966021924494305"><ele>156.0</ele><time>2026-04-12T11:36:11Z</time></trkpt><trkpt lat="41.40405414889066" lon="13.96603728803287"><ele>156.0</ele><time>2026-04-12T11:36:13Z</time></trkpt><trkpt lat="41.4041092591256" lon="13.966159559947117"><ele>156.0</ele><time>2026-04-12T11:36:15Z</time></trkpt><trkpt lat="41.40403527465585" lon="13.966282067283167"><ele>156.0</ele><time>2026-04-12T11:36:17Z</time></trkpt><trkpt lat="41.40395114945433" lon="13.966305938489462"><ele>156.0</ele><time>2026-04-12T11:36:18Z</time></trkpt><trkpt lat="41.403842375095145" lon="13.966331709426848"><ele>156.0</ele><time>2026-04-12T11:36:19Z</time></trkpt><trkpt lat="41.403752249903036" lon="13.9663936805086"><ele>156.0</ele><time>2026-04-12T11:36:20Z</time></trkpt><trkpt lat="41.403677294874136" lon="13.966504510196598"><ele>156.0</ele><time>2026-04-12T11:36:21Z</time></trkpt><trkpt lat="41.40361415673982" lon="13.96666654231049"><ele>156.0</ele><time>2026-04-12T11:36:22Z</time></trkpt><trkpt lat="41.4035711479848" lon="13.966795954766013"><ele>156.0</ele><time>2026-04-12T11:36:23Z</time></trkpt><trkpt lat="41.40362191906891" lon="13.966887338973796"><ele>156.0</ele><time>2026-04-12T11:36:25Z</time></trkpt><trkpt lat="41.40370889121385" lon="13.96691690361009"><ele>156.0</ele><time>2026-04-12T11:36:26Z</time></trkpt><trkpt lat="41.4037867397569" lon="13.966985312996728"><ele>156.0</ele><time>2026-04-12T11:36:27Z</time></trkpt><trkpt lat="41.403859233559125" lon="13.966833736355467"><ele>156.0</ele><time>2026-04-12T11:36:31Z</time></trkpt><trkpt lat="41.40376873023751" lon="13.966633001554897"><ele>156.0</ele><time>2026-04-12T11:36:33Z</time></trkpt><trkpt lat="41.40381168008609" lon="13.966558889583652"><ele>156.0</ele><time>2026-04-12T11:36:34Z</time></trkpt><trkpt lat="41.4038877426025" lon="13.966509237524146"><ele>151.75</ele><time>2026-04-12T11:36:35Z</time></trkpt><trkpt lat="41.40398785633176" lon="13.96646785007978"><ele>147.5</ele><time>2026-04-12T11:36:36Z</time></trkpt><trkpt lat="41.40410955453997" lon="13.966394463757503"><ele>143.25</ele><time>2026-04-12T11:36:37Z</time></trkpt><trkpt lat="41.4042210617966" lon="13.966395268287046"><ele>139.0</ele><time>2026-04-12T11:36:39Z</time></trkpt><trkpt lat="41.40421714531772" lon="13.966542205940913"><ele>138.5</ele><time>2026-04-12T11:36:40Z</time></trkpt><trkpt lat="41.40423504543888" lon="13.966721911078979"><ele>138.0</ele><time>2026-04-12T11:36:42Z</time></trkpt><trkpt lat="41.40410486148888" lon="13.966815867618314"><ele>137.5</ele><time>2026-04-12T11:36:43Z</time></trkpt><trkpt lat="41.40402458870543" lon="13.966883631866999"><ele>137.0</ele><time>2026-04-12T11:36:44Z</time></trkpt><trkpt lat="41.40392135407928" lon="13.966994985475775"><ele>137.0</ele><time>2026-04-12T11:36:45Z</time></trkpt><trkpt lat="41.40387434957328" lon="13.967115611690009"><ele>137.0</ele><time>2026-04-12T11:36:46Z</time></trkpt><trkpt lat="41.4038334375536" lon="13.967196013043425"><ele>137.0</ele><time>2026-04-12T11:36:47Z</time></trkpt><trkpt lat="41.403965203712616" lon="13.967222902179879"><ele>137.0</ele><time>2026-04-12T11:36:48Z</time></trkpt><trkpt lat="41.404070118285624" lon="13.967151898919266"><ele>137.0</ele><time>2026-04-12T11:36:50Z</time></trkpt><trkpt lat="41.40414745578085" lon="13.967122047310005"><ele>137.0</ele><time>2026-04-12T11:36:51Z</time></trkpt><trkpt lat="41.404196484447795" lon="13.96693508488912"><ele>137.0</ele><time>2026-04-12T11:36:52Z</time></trkpt><trkpt lat="41.40429088069063" lon="13.966818070377911"><ele>137.0</ele><time>2026-04-12T11:36:53Z</time></trkpt><trkpt lat="41.4043428512712" lon="13.966727137782067"><ele>137.0</ele><time>2026-04-12T11:36:54Z</time></trkpt><trkpt lat="41.40437575120123" lon="13.966621488580591"><ele>137.0</ele><time>2026-04-12T11:36:55Z</time></trkpt><trkpt lat="41.40433981200457" lon="13.966459048389241"><ele>137.0</ele><time>2026-04-12T11:36:56Z</time></trkpt><trkpt lat="41.404471249566036" lon="13.96657458532264"><ele>137.0</ele><time>2026-04-12T11:37:00Z</time></trkpt><trkpt lat="41.40451316187518" lon="13.96672753437871"><ele>137.0</ele><time>2026-04-12T11:37:01Z</time></trkpt><trkpt lat="41.40453596195095" lon="13.966856855937467"><ele>137.0</ele><time>2026-04-12T11:37:02Z</time></trkpt><trkpt lat="41.40451841073921" lon="13.966942570487742"><ele>137.0</ele><time>2026-04-12T11:37:03Z</time></trkpt><trkpt lat="41.40445854833716" lon="13.96698623113881"><ele>137.0</ele><time>2026-04-12T11:37:04Z</time></trkpt><trkpt lat="41.404363769970125" lon="13.967055189344272"><ele>137.0</ele><time>2026-04-12T11:37:05Z</time></trkpt><trkpt lat="41.40424523490635" lon="13.967127431963386"><ele>137.0</ele><time>2026-04-12T11:37:06Z</time></trkpt><trkpt lat="41.40427705864357" lon="13.967202540314487"><ele>137.0</ele><time>2026-04-12T11:37:09Z</time></trkpt><trkpt lat="41.404352789016244" lon="13.967171548169755"><ele>137.0</ele><time>2026-04-12T11:37:10Z</time></trkpt><trkpt lat="41.40444909568465" lon="13.967118760281803"><ele>137.0</ele><time>2026-04-12T11:37:11Z</time></trkpt><trkpt lat="41.40452733249864" lon="13.967066000893718"><ele>137.0</ele><time>2026-04-12T11:37:12Z</time></trkpt><trkpt lat="41.40452926642721" lon="13.967160067258998"><ele>137.0</ele><time>2026-04-12T11:37:15Z</time></trkpt><trkpt lat="41.404455253639526" lon="13.96729551158883"><ele>137.0</ele><time>2026-04-12T11:37:17Z</time></trkpt><trkpt lat="41.40438558145488" lon="13.967349314348933"><ele>137.0</ele><time>2026-04-12T11:37:18Z</time></trkpt><trkpt lat="41.40416220091426" lon="13.96738533790934"><ele>137.0</ele><time>2026-04-12T11:37:19Z</time></trkpt><trkpt lat="41.40411600969353" lon="13.96745742455527"><ele>137.0</ele><time>2026-04-12T11:37:21Z</time></trkpt><trkpt lat="41.404288022745355" lon="13.967526972801075"><ele>137.0</ele><time>2026-04-12T11:37:25Z</time></trkpt><trkpt lat="41.40457026457654" lon="13.967263846439565"><ele>135.5</ele><time>2026-04-12T11:37:26Z</time></trkpt><trkpt lat="41.40471526000175" lon="13.96714920611907"><ele>134.0</ele><time>2026-04-12T11:37:27Z</time></trkpt><trkpt lat="41.40478148747485" lon="13.967115932974467"><ele>132.5</ele><time>2026-04-12T11:37:28Z</time></trkpt><trkpt lat="41.40479471039421" lon="13.967244364109526"><ele>131.0</ele><time>2026-04-12T11:37:30Z</time></trkpt><trkpt lat="41.4047331613376" lon="13.967384014110236"><ele>131.0</ele><time>2026-04-12T11:37:32Z</time></trkpt><trkpt lat="41.40468830897578" lon="13.967461456865948"><ele>131.0</ele><time>2026-04-12T11:37:33Z</time></trkpt><trkpt lat="41.404557454001946" lon="13.967498378800753"><ele>131.0</ele><time>2026-04-12T11:37:35Z</time></trkpt><trkpt lat="41.40444090715424" lon="13.967573854624614"><ele>131.0</ele><time>2026-04-12T11:37:36Z</time></trkpt><trkpt lat="41.40437232985393" lon="13.96763405633434"><ele>131.0</ele><time>2026-04-12T11:39:52Z</time></trkpt><trkpt lat="41.40428533973123" lon="13.967614546841991"><ele>131.5</ele><time>2026-04-12T11:39:54Z</time></trkpt><trkpt lat="41.40417033458477" lon="13.967591554680018"><ele>132.0</ele><time>2026-04-12T11:39:56Z</time></trkpt><trkpt lat="41.404070951003455" lon="13.96758656077648"><ele>132.5</ele><time>2026-04-12T11:39:58Z</time></trkpt><trkpt lat="41.404004500693944" lon="13.967548726041251"><ele>133.0</ele><time>2026-04-12T11:39:59Z</time></trkpt><trkpt lat="41.403939626856236" lon="13.967490662913558"><ele>133.5</ele><time>2026-04-12T11:40:00Z</time></trkpt><trkpt lat="41.403874823799086" lon="13.967423934773512"><ele>134.0</ele><time>2026-04-12T11:40:01Z</time></trkpt><trkpt lat="41.40379579123633" lon="13.967359437538907"><ele>138.33333333333331</ele><time>2026-04-12T11:40:02Z</time></trkpt><trkpt lat="41.403714462908724" lon="13.967308927215777"><ele>142.66666666666666</ele><time>2026-04-12T11:40:03Z</time></trkpt><trkpt lat="41.40362402822045" lon="13.967270841753532"><ele>147.0</ele><time>2026-04-12T11:40:04Z</time></trkpt><trkpt lat="41.4035474741789" lon="13.96720490499602"><ele>151.33333333333334</ele><time>2026-04-12T11:40:05Z</time></trkpt><trkpt lat="41.403481316436576" lon="13.967136265571947"><ele>155.66666666666669</ele><time>2026-04-12T11:40:06Z</time></trkpt><trkpt lat="41.40340910787469" lon="13.967068488494915"><ele>160.0</ele><time>2026-04-12T11:40:08Z</time></trkpt><trkpt lat="41.40334028850856" lon="13.966933011968381"><ele>160.0</ele><time>2026-04-12T11:40:11Z</time></trkpt><trkpt lat="41.40330903925957" lon="13.966841233828568"><ele>160.0</ele><time>2026-04-12T11:40:12Z</time></trkpt><trkpt lat="41.403269375727305" lon="13.966735248118711"><ele>160.0</ele><time>2026-04-12T11:40:13Z</time></trkpt><trkpt lat="41.403218863397534" lon="13.966618766901195"><ele>160.0</ele><time>2026-04-12T11:40:14Z</time></trkpt><trkpt lat="41.403171121706265" lon="13.96651822043084"><ele>160.0</ele><time>2026-04-12T11:40:15Z</time></trkpt><trkpt lat="41.4031289128697" lon="13.96641329168707"><ele>160.0</ele><time>2026-04-12T11:40:16Z</time></trkpt><trkpt lat="41.403082713237666" lon="13.96629179334267"><ele>159.0</ele><time>2026-04-12T11:40:17Z</time></trkpt><trkpt lat="41.40302833318201" lon="13.966164128121353"><ele>158.0</ele><time>2026-04-12T11:40:18Z</time></trkpt><trkpt lat="41.40298123751763" lon="13.966026593167056"><ele>157.0</ele><time>2026-04-12T11:40:19Z</time></trkpt><trkpt lat="41.40292688020183" lon="13.965878008138699"><ele>156.0</ele><time>2026-04-12T11:40:20Z</time></trkpt><trkpt lat="41.40288657080487" lon="13.965682238850574"><ele>158.5</ele><time>2026-04-12T11:40:21Z</time></trkpt><trkpt lat="41.402839862414055" lon="13.96549533945931"><ele>161.0</ele><time>2026-04-12T11:40:22Z</time></trkpt><trkpt lat="41.40281202551226" lon="13.965311181493654"><ele>163.5</ele><time>2026-04-12T11:40:23Z</time></trkpt><trkpt lat="41.402783777208214" lon="13.9651264498489"><ele>166.0</ele><time>2026-04-12T11:40:24Z</time></trkpt><trkpt lat="41.40276564070007" lon="13.964925905252509"><ele>166.0</ele><time>2026-04-12T11:40:25Z</time></trkpt><trkpt lat="41.402765752878736" lon="13.964729760748389"><ele>166.0</ele><time>2026-04-12T11:40:26Z</time></trkpt><trkpt lat="41.40277370308016" lon="13.964537153545093"><ele>166.0</ele><time>2026-04-12T11:40:27Z</time></trkpt><trkpt lat="41.40279346149721" lon="13.964335627289415"><ele>166.0</ele><time>2026-04-12T11:40:28Z</time></trkpt><trkpt lat="41.40281364244211" lon="13.964134342984215"><ele>170.33333333333334</ele><time>2026-04-12T11:40:29Z</time></trkpt><trkpt lat="41.402820706947104" lon="13.963934436039278"><ele>174.66666666666666</ele><time>2026-04-12T11:40:30Z</time></trkpt><trkpt lat="41.402829736600836" lon="13.963740827513401"><ele>179.0</ele><time>2026-04-12T11:40:31Z</time></trkpt><trkpt lat="41.402852400938905" lon="13.963526424480973"><ele>183.66666666666666</ele><time>2026-04-12T11:40:32Z</time></trkpt><trkpt lat="41.4028345485892" lon="13.96333019640922"><ele>188.33333333333331</ele><time>2026-04-12T11:40:33Z</time></trkpt><trkpt lat="41.402790427045446" lon="13.96312534300304"><ele>193.0</ele><time>2026-04-12T11:40:34Z</time></trkpt><trkpt lat="41.40273217151262" lon="13.962931602944256"><ele>193.0</ele><time>2026-04-12T11:40:35Z</time></trkpt><trkpt lat="41.4026798809069" lon="13.962728936208263"><ele>193.0</ele><time>2026-04-12T11:40:36Z</time></trkpt><trkpt lat="41.40263177160278" lon="13.962531543604676"><ele>193.0</ele><time>2026-04-12T11:40:37Z</time></trkpt><trkpt lat="41.40261131804261" lon="13.962325733826969"><ele>194.0</ele><time>2026-04-12T11:40:38Z</time></trkpt><trkpt lat="41.40258280588174" lon="13.962136385907982"><ele>195.0</ele><time>2026-04-12T11:40:39Z</time></trkpt><trkpt lat="41.40257514297749" lon="13.96196733534323"><ele>196.0</ele><time>2026-04-12T11:40:40Z</time></trkpt><trkpt lat="41.40259438256898" lon="13.96180660501426"><ele>197.0</ele><time>2026-04-12T11:40:41Z</time></trkpt><trkpt lat="41.40259341119694" lon="13.96160462696984"><ele>199.33333333333334</ele><time>2026-04-12T11:40:42Z</time></trkpt><trkpt lat="41.402611058223464" lon="13.961393092969436"><ele>201.66666666666669</ele><time>2026-04-12T11:40:43Z</time></trkpt><trkpt lat="41.402639450997725" lon="13.96119070823815"><ele>204.0</ele><time>2026-04-12T11:40:44Z</time></trkpt><trkpt lat="41.40267602785376" lon="13.960990609514255"><ele>208.66666666666669</ele><time>2026-04-12T11:40:45Z</time></trkpt><trkpt lat="41.40271645230019" lon="13.960795525935433"><ele>213.33333333333334</ele><time>2026-04-12T11:40:46Z</time></trkpt><trkpt lat="41.40276381969519" lon="13.960579026531244"><ele>218.0</ele><time>2026-04-12T11:40:47Z</time></trkpt><trkpt lat="41.40282533715599" lon="13.96038810603996"><ele>218.0</ele><time>2026-04-12T11:40:48Z</time></trkpt><trkpt lat="41.40289869648992" lon="13.960195401147216"><ele>218.0</ele><time>2026-04-12T11:40:49Z</time></trkpt><trkpt lat="41.4029765779981" lon="13.959982857522697"><ele>218.0</ele><time>2026-04-12T11:40:50Z</time></trkpt><trkpt lat="41.403029261876846" lon="13.95977959489686"><ele>214.33333333333334</ele><time>2026-04-12T11:40:51Z</time></trkpt><trkpt lat="41.403112517096304" lon="13.95956966971151"><ele>210.66666666666669</ele><time>2026-04-12T11:40:52Z</time></trkpt><trkpt lat="41.40317121778236" lon="13.959340294016428"><ele>207.0</ele><time>2026-04-12T11:40:53Z</time></trkpt><trkpt lat="41.40322195166047" lon="13.959107115449498"><ele>207.0</ele><time>2026-04-12T11:40:54Z</time></trkpt><trkpt lat="41.40326123889821" lon="13.958872235448212"><ele>207.0</ele><time>2026-04-12T11:40:55Z</time></trkpt><trkpt lat="41.403289098004876" lon="13.958630535020928"><ele>207.0</ele><time>2026-04-12T11:40:56Z</time></trkpt><trkpt lat="41.40331633079622" lon="13.958393446047506"><ele>210.0</ele><time>2026-04-12T11:40:57Z</time></trkpt><trkpt lat="41.40333315990574" lon="13.95816476103541"><ele>213.0</ele><time>2026-04-12T11:40:58Z</time></trkpt><trkpt lat="41.40335315419921" lon="13.957942356155105"><ele>216.0</ele><time>2026-04-12T11:40:59Z</time></trkpt><trkpt lat="41.403359369964086" lon="13.95771572121987"><ele>220.0</ele><time>2026-04-12T11:41:00Z</time></trkpt><trkpt lat="41.403379275119626" lon="13.957495684559685"><ele>224.0</ele><time>2026-04-12T11:41:01Z</time></trkpt><trkpt lat="41.40339452065787" lon="13.957281460696521"><ele>228.0</ele><time>2026-04-12T11:41:02Z</time></trkpt><trkpt lat="41.4034057261011" lon="13.957062906634647"><ele>228.0</ele><time>2026-04-12T11:41:03Z</time></trkpt><trkpt lat="41.40341359492192" lon="13.956847942106078"><ele>228.0</ele><time>2026-04-12T11:41:04Z</time></trkpt><trkpt lat="41.40343764534667" lon="13.956628359410049"><ele>228.0</ele><time>2026-04-12T11:41:05Z</time></trkpt><trkpt lat="41.40347284035253" lon="13.956416031982462"><ele>232.33333333333331</ele><time>2026-04-12T11:41:06Z</time></trkpt><trkpt lat="41.403515441914806" lon="13.956202265889443"><ele>236.66666666666666</ele><time>2026-04-12T11:41:07Z</time></trkpt><trkpt lat="41.40355929442744" lon="13.955976004604048"><ele>241.0</ele><time>2026-04-12T11:41:08Z</time></trkpt><trkpt lat="41.40360761657525" lon="13.95575622339865"><ele>245.66666666666666</ele><time>2026-04-12T11:41:09Z</time></trkpt><trkpt lat="41.40365721113022" lon="13.955544058744644"><ele>250.33333333333331</ele><time>2026-04-12T11:41:10Z</time></trkpt><trkpt lat="41.40370420578136" lon="13.955324864943115"><ele>255.0</ele><time>2026-04-12T11:41:11Z</time></trkpt><trkpt lat="41.40373677661494" lon="13.955127527557634"><ele>256.0</ele><time>2026-04-12T11:41:12Z</time></trkpt><trkpt lat="41.40374843142624" lon="13.954935690183593"><ele>257.0</ele><time>2026-04-12T11:41:13Z</time></trkpt><trkpt lat="41.40375384612833" lon="13.95476049568728"><ele>258.0</ele><time>2026-04-12T11:41:14Z</time></trkpt><trkpt lat="41.40374016742658" lon="13.95455708664031"><ele>259.0</ele><time>2026-04-12T11:41:15Z</time></trkpt><trkpt lat="41.403704631509086" lon="13.954350157418812"><ele>261.3333333333333</ele><time>2026-04-12T11:41:16Z</time></trkpt><trkpt lat="41.4036561942583" lon="13.954138738292107"><ele>263.6666666666667</ele><time>2026-04-12T11:41:17Z</time></trkpt><trkpt lat="41.40360313724353" lon="13.953932514340062"><ele>266.0</ele><time>2026-04-12T11:41:18Z</time></trkpt><trkpt lat="41.40355540899253" lon="13.953721426240659"><ele>266.0</ele><time>2026-04-12T11:41:19Z</time></trkpt><trkpt lat="41.403506193666765" lon="13.953518553358677"><ele>266.0</ele><time>2026-04-12T11:41:20Z</time></trkpt><trkpt lat="41.40345276428063" lon="13.953319453993874"><ele>266.0</ele><time>2026-04-12T11:41:21Z</time></trkpt><trkpt lat="41.403406518558825" lon="13.95312427580408"><ele>267.0</ele><time>2026-04-12T11:41:22Z</time></trkpt><trkpt lat="41.40335599525397" lon="13.952928460198946"><ele>268.0</ele><time>2026-04-12T11:41:23Z</time></trkpt><trkpt lat="41.403303673016445" lon="13.952721380354964"><ele>269.0</ele><time>2026-04-12T11:41:24Z</time></trkpt><trkpt lat="41.403250865892836" lon="13.952514900568183"><ele>270.0</ele><time>2026-04-12T11:41:25Z</time></trkpt><trkpt lat="41.40319668541356" lon="13.952309090242585"><ele>271.0</ele><time>2026-04-12T11:41:26Z</time></trkpt><trkpt lat="41.403146545406585" lon="13.95210302747501"><ele>272.0</ele><time>2026-04-12T11:41:27Z</time></trkpt><trkpt lat="41.403098892143475" lon="13.951893391468223"><ele>272.0</ele><time>2026-04-12T11:41:28Z</time></trkpt><trkpt lat="41.40306393439685" lon="13.95167295675555"><ele>272.0</ele><time>2026-04-12T11:41:29Z</time></trkpt><trkpt lat="41.40303508089839" lon="13.951458285914125"><ele>272.0</ele><time>2026-04-12T11:41:30Z</time></trkpt><trkpt lat="41.40300296858128" lon="13.951233840926127"><ele>278.25</ele><time>2026-04-12T11:41:31Z</time></trkpt><trkpt lat="41.40297316614129" lon="13.951014036206526"><ele>284.5</ele><time>2026-04-12T11:41:32Z</time></trkpt><trkpt lat="41.40295078174961" lon="13.950820597812427"><ele>290.75</ele><time>2026-04-12T11:41:33Z</time></trkpt><trkpt lat="41.402928406466415" lon="13.950652302683718"><ele>297.0</ele><time>2026-04-12T11:41:34Z</time></trkpt><trkpt lat="41.402909494822566" lon="13.950499896202057"><ele>297.0</ele><time>2026-04-12T11:41:35Z</time></trkpt><trkpt lat="41.40287996300448" lon="13.950365487934087"><ele>297.0</ele><time>2026-04-12T11:41:36Z</time></trkpt><trkpt lat="41.40284586808316" lon="13.950233134800747"><ele>297.0</ele><time>2026-04-12T11:41:37Z</time></trkpt><trkpt lat="41.40277275570847" lon="13.950139237393815"><ele>297.0</ele><time>2026-04-12T11:41:38Z</time></trkpt><trkpt lat="41.40268971193118" lon="13.950107667052972"><ele>297.0</ele><time>2026-04-12T11:41:39Z</time></trkpt><trkpt lat="41.40258531283755" lon="13.950152133819252"><ele>297.0</ele><time>2026-04-12T11:41:40Z</time></trkpt><trkpt lat="41.40251563984767" lon="13.950279239083466"><ele>297.0</ele><time>2026-04-12T11:41:41Z</time></trkpt><trkpt lat="41.402471025839034" lon="13.950406688948718"><ele>297.0</ele><time>2026-04-12T11:41:42Z</time></trkpt><trkpt lat="41.402418688361195" lon="13.950538241814014"><ele>297.0</ele><time>2026-04-12T11:41:43Z</time></trkpt><trkpt lat="41.402366245430336" lon="13.950679632974603"><ele>297.0</ele><time>2026-04-12T11:41:44Z</time></trkpt><trkpt lat="41.40231712719451" lon="13.950814922419173"><ele>297.0</ele><time>2026-04-12T11:41:45Z</time></trkpt><trkpt lat="41.402258270045095" lon="13.950982079945797"><ele>297.0</ele><time>2026-04-12T11:41:46Z</time></trkpt><trkpt lat="41.40219847790043" lon="13.951152684971527"><ele>297.0</ele><time>2026-04-12T11:41:47Z</time></trkpt><trkpt lat="41.402153699167926" lon="13.951330789708836"><ele>304.3333333333333</ele><time>2026-04-12T11:41:48Z</time></trkpt><trkpt lat="41.402087173296785" lon="13.95148936065873"><ele>311.66666666666663</ele><time>2026-04-12T11:41:49Z</time></trkpt><trkpt lat="41.40201912602406" lon="13.951671956190733"><ele>319.0</ele><time>2026-04-12T11:41:50Z</time></trkpt><trkpt lat="41.40194638936981" lon="13.951876961715078"><ele>319.0</ele><time>2026-04-12T11:41:51Z</time></trkpt><trkpt lat="41.40187385937028" lon="13.952083805286122"><ele>319.0</ele><time>2026-04-12T11:41:52Z</time></trkpt><trkpt lat="41.40180631493694" lon="13.952303791204379"><ele>319.0</ele><time>2026-04-12T11:41:53Z</time></trkpt><trkpt lat="41.401741172768205" lon="13.952515392452952"><ele>318.3333333333333</ele><time>2026-04-12T11:41:54Z</time></trkpt><trkpt lat="41.40165954642469" lon="13.952713318904877"><ele>317.6666666666667</ele><time>2026-04-12T11:41:55Z</time></trkpt><trkpt lat="41.40158520413456" lon="13.952919771572455"><ele>317.0</ele><time>2026-04-12T11:41:56Z</time></trkpt><trkpt lat="41.40151454621625" lon="13.95311527053718"><ele>317.0</ele><time>2026-04-12T11:41:57Z</time></trkpt><trkpt lat="41.40143658639533" lon="13.953322521498247"><ele>317.0</ele><time>2026-04-12T11:41:58Z</time></trkpt><trkpt lat="41.401358288801745" lon="13.953530670583504"><ele>317.0</ele><time>2026-04-12T11:41:59Z</time></trkpt><trkpt lat="41.401277019875785" lon="13.95373644620887"><ele>321.33333333333337</ele><time>2026-04-12T11:42:00Z</time></trkpt><trkpt lat="41.40119324301418" lon="13.953939968739022"><ele>325.6666666666667</ele><time>2026-04-12T11:42:01Z</time></trkpt><trkpt lat="41.40110697293594" lon="13.954148714188984"><ele>330.0</ele><time>2026-04-12T11:42:02Z</time></trkpt><trkpt lat="41.4010159443557" lon="13.954371841046006"><ele>330.0</ele><time>2026-04-12T11:42:03Z</time></trkpt><trkpt lat="41.40093064187173" lon="13.95458687779453"><ele>330.0</ele><time>2026-04-12T11:42:04Z</time></trkpt><trkpt lat="41.40084845485279" lon="13.954800531632118"><ele>330.0</ele><time>2026-04-12T11:42:05Z</time></trkpt><trkpt lat="41.40075920030344" lon="13.955038988908468"><ele>330.0</ele><time>2026-04-12T11:42:06Z</time></trkpt><trkpt lat="41.40067324831175" lon="13.955277078322549"><ele>330.0</ele><time>2026-04-12T11:42:07Z</time></trkpt><trkpt lat="41.400594328595524" lon="13.95550449799533"><ele>330.0</ele><time>2026-04-12T11:42:08Z</time></trkpt><trkpt lat="41.400525289413295" lon="13.955713117187754"><ele>337.0</ele><time>2026-04-12T11:42:09Z</time></trkpt><trkpt lat="41.40046612660078" lon="13.955892670943507"><ele>344.0</ele><time>2026-04-12T11:42:10Z</time></trkpt><trkpt lat="41.40041662393588" lon="13.956042906805292"><ele>351.0</ele><time>2026-04-12T11:42:11Z</time></trkpt><trkpt lat="41.400363084364365" lon="13.956205394409412"><ele>358.0</ele><time>2026-04-12T11:42:12Z</time></trkpt><trkpt lat="41.4003053408673" lon="13.956385843501378"><ele>358.0</ele><time>2026-04-12T11:42:13Z</time></trkpt><trkpt lat="41.40025941097195" lon="13.95657827219207"><ele>358.0</ele><time>2026-04-12T11:42:14Z</time></trkpt><trkpt lat="41.400189870593515" lon="13.956770409035274"><ele>358.0</ele><time>2026-04-12T11:42:15Z</time></trkpt><trkpt lat="41.40011670604845" lon="13.956963699779186"><ele>358.25</ele><time>2026-04-12T11:42:16Z</time></trkpt><trkpt lat="41.40004545080247" lon="13.957149052415538"><ele>358.5</ele><time>2026-04-12T11:42:17Z</time></trkpt><trkpt lat="41.39996725245932" lon="13.957283961709855"><ele>358.75</ele><time>2026-04-12T11:42:18Z</time></trkpt><trkpt lat="41.39990308708578" lon="13.95736334695055"><ele>359.0</ele><time>2026-04-12T11:42:19Z</time></trkpt><trkpt lat="41.39977673234179" lon="13.957362732148663"><ele>359.0</ele><time>2026-04-12T11:42:21Z</time></trkpt><trkpt lat="41.39973241010126" lon="13.957272567915776"><ele>359.0</ele><time>2026-04-12T11:42:22Z</time></trkpt><trkpt lat="41.39973785393183" lon="13.957105805606542"><ele>359.0</ele><time>2026-04-12T11:42:23Z</time></trkpt><trkpt lat="41.39974016627792" lon="13.956984669694762"><ele>359.0</ele><time>2026-04-12T11:42:24Z</time></trkpt><trkpt lat="41.39975592144819" lon="13.956812524066562"><ele>359.0</ele><time>2026-04-12T11:42:25Z</time></trkpt><trkpt lat="41.399739554364515" lon="13.95663898161523"><ele>359.0</ele><time>2026-04-12T11:42:26Z</time></trkpt><trkpt lat="41.399739686917236" lon="13.956446913734133"><ele>359.0</ele><time>2026-04-12T11:42:27Z</time></trkpt><trkpt lat="41.39973875952443" lon="13.956262029577008"><ele>359.0</ele><time>2026-04-12T11:42:28Z</time></trkpt><trkpt lat="41.39975636317999" lon="13.95604974512029"><ele>359.0</ele><time>2026-04-12T11:42:29Z</time></trkpt><trkpt lat="41.399761150926956" lon="13.95583000336844"><ele>359.0</ele><time>2026-04-12T11:42:30Z</time></trkpt><trkpt lat="41.399763279570315" lon="13.955609512184186"><ele>359.0</ele><time>2026-04-12T11:42:31Z</time></trkpt><trkpt lat="41.3997668650962" lon="13.955375098358521"><ele>359.0</ele><time>2026-04-12T11:42:32Z</time></trkpt><trkpt lat="41.399782083293594" lon="13.955147676917255"><ele>360.33333333333337</ele><time>2026-04-12T11:42:33Z</time></trkpt><trkpt lat="41.3997969394535" lon="13.95491188110786"><ele>361.6666666666667</ele><time>2026-04-12T11:42:34Z</time></trkpt><trkpt lat="41.39979951400305" lon="13.954671495273592"><ele>363.0</ele><time>2026-04-12T11:42:35Z</time></trkpt><trkpt lat="41.39981707331976" lon="13.954420101005093"><ele>365.3333333333333</ele><time>2026-04-12T11:42:36Z</time></trkpt><trkpt lat="41.399810971855636" lon="13.954152943974622"><ele>367.66666666666663</ele><time>2026-04-12T11:42:37Z</time></trkpt><trkpt lat="41.39982152030053" lon="13.953897618907058"><ele>370.0</ele><time>2026-04-12T11:42:38Z</time></trkpt><trkpt lat="41.39983057333408" lon="13.953633511838836"><ele>370.0</ele><time>2026-04-12T11:42:39Z</time></trkpt><trkpt lat="41.39983818390903" lon="13.953379053615938"><ele>370.0</ele><time>2026-04-12T11:42:40Z</time></trkpt><trkpt lat="41.399863471493" lon="13.953119160525906"><ele>370.0</ele><time>2026-04-12T11:42:41Z</time></trkpt><trkpt lat="41.39987027243793" lon="13.952864669174303"><ele>370.3333333333333</ele><time>2026-04-12T11:42:42Z</time></trkpt><trkpt lat="41.39987738528709" lon="13.952621854993664"><ele>370.6666666666667</ele><time>2026-04-12T11:42:43Z</time></trkpt><trkpt lat="41.39988289998293" lon="13.952367586626647"><ele>371.0</ele><time>2026-04-12T11:42:44Z</time></trkpt><trkpt lat="41.39988789257591" lon="13.952137390967826"><ele>371.33333333333337</ele><time>2026-04-12T11:42:45Z</time></trkpt><trkpt lat="41.39989191023222" lon="13.951906446573224"><ele>371.6666666666667</ele><time>2026-04-12T11:42:46Z</time></trkpt><trkpt lat="41.399881269990345" lon="13.951699630336151"><ele>372.0</ele><time>2026-04-12T11:42:47Z</time></trkpt><trkpt lat="41.39988642198506" lon="13.951508752657743"><ele>373.0</ele><time>2026-04-12T11:42:48Z</time></trkpt><trkpt lat="41.39988753833961" lon="13.951362190915722"><ele>374.0</ele><time>2026-04-12T11:42:49Z</time></trkpt><trkpt lat="41.399876380709486" lon="13.95125218358758"><ele>375.0</ele><time>2026-04-12T11:42:50Z</time></trkpt><trkpt lat="41.399863186638505" lon="13.951162573171914"><ele>376.0</ele><time>2026-04-12T11:42:51Z</time></trkpt><trkpt lat="41.39981134562872" lon="13.951103506632975"><ele>377.0</ele><time>2026-04-12T11:42:52Z</time></trkpt><trkpt lat="41.39972764003865" lon="13.95108088134323"><ele>378.0</ele><time>2026-04-12T11:42:53Z</time></trkpt><trkpt lat="41.3996110938811" lon="13.95112701726699"><ele>385.0</ele><time>2026-04-12T11:42:54Z</time></trkpt><trkpt lat="41.39952630928957" lon="13.951253825489813"><ele>392.0</ele><time>2026-04-12T11:42:55Z</time></trkpt><trkpt lat="41.39946496600128" lon="13.951400776930127"><ele>399.0</ele><time>2026-04-12T11:42:56Z</time></trkpt><trkpt lat="41.399408573798155" lon="13.951552380934617"><ele>406.0</ele><time>2026-04-12T11:42:57Z</time></trkpt><trkpt lat="41.39936703056544" lon="13.951715341219167"><ele>406.0</ele><time>2026-04-12T11:42:58Z</time></trkpt><trkpt lat="41.39929465644387" lon="13.951880254175432"><ele>406.0</ele><time>2026-04-12T11:42:59Z</time></trkpt><trkpt lat="41.39923134971178" lon="13.952059288269622"><ele>406.0</ele><time>2026-04-12T11:43:00Z</time></trkpt><trkpt lat="41.399161223972804" lon="13.952239269882183"><ele>406.0</ele><time>2026-04-12T11:43:01Z</time></trkpt><trkpt lat="41.39909146416869" lon="13.95241687811306"><ele>404.6666666666667</ele><time>2026-04-12T11:43:02Z</time></trkpt><trkpt lat="41.39901716067761" lon="13.952614416992295"><ele>403.33333333333337</ele><time>2026-04-12T11:43:03Z</time></trkpt><trkpt lat="41.398945173531565" lon="13.952808624816353"><ele>402.0</ele><time>2026-04-12T11:43:04Z</time></trkpt><trkpt lat="41.3988785956857" lon="13.953015834624852"><ele>410.25</ele><time>2026-04-12T11:43:05Z</time></trkpt><trkpt lat="41.39880344957315" lon="13.95321567442561"><ele>418.5</ele><time>2026-04-12T11:43:06Z</time></trkpt><trkpt lat="41.39874768571757" lon="13.95336388288595"><ele>426.75</ele><time>2026-04-12T11:43:07Z</time></trkpt><trkpt lat="41.39870670662422" lon="13.953473378847212"><ele>435.0</ele><time>2026-04-12T11:43:08Z</time></trkpt><trkpt lat="41.39866293467707" lon="13.953561704293174"><ele>435.5</ele><time>2026-04-12T11:43:09Z</time></trkpt><trkpt lat="41.3985722341811" lon="13.95361955678272"><ele>436.0</ele><time>2026-04-12T11:43:11Z</time></trkpt><trkpt lat="41.39862309393737" lon="13.953868034104072"><ele>436.5</ele><time>2026-04-12T11:43:17Z</time></trkpt><trkpt lat="41.39866731041793" lon="13.953947325575317"><ele>437.0</ele><time>2026-04-12T11:43:19Z</time></trkpt><trkpt lat="41.398696438482574" lon="13.954087341177352"><ele>436.99999999999994</ele><time>2026-04-12T11:43:22Z</time></trkpt><trkpt lat="41.39871920982994" lon="13.95417346340776"><ele>437.0</ele><time>2026-04-12T11:43:24Z</time></trkpt><trkpt lat="41.398734575660995" lon="13.954340986998682"><ele>437.0</ele><time>2026-04-12T11:43:26Z</time></trkpt><trkpt lat="41.398724045684894" lon="13.954446761172813"><ele>437.0</ele><time>2026-04-12T11:43:28Z</time></trkpt><trkpt lat="41.398742913201616" lon="13.954549440370613"><ele>436.99999999999994</ele><time>2026-04-12T11:43:30Z</time></trkpt><trkpt lat="41.398756692697035" lon="13.954634435527487"><ele>437.0</ele><time>2026-04-12T11:43:32Z</time></trkpt><trkpt lat="41.398799262989016" lon="13.954713039044067"><ele>430.3333333333333</ele><time>2026-04-12T11:43:36Z</time></trkpt><trkpt lat="41.39887499055354" lon="13.954745844169317"><ele>423.66666666666663</ele><time>2026-04-12T11:43:39Z</time></trkpt><trkpt lat="41.39893159391604" lon="13.954822333589155"><ele>417.0</ele><time>2026-04-12T11:43:43Z</time></trkpt><trkpt lat="41.3990008111933" lon="13.954779451617059"><ele>410.33333333333337</ele><time>2026-04-12T11:43:48Z</time></trkpt><trkpt lat="41.399001735389604" lon="13.95466947521533"><ele>403.6666666666667</ele><time>2026-04-12T11:43:52Z</time></trkpt><trkpt lat="41.39906125360087" lon="13.954601373043348"><ele>397.0</ele><time>2026-04-12T11:43:54Z</time></trkpt><trkpt lat="41.39907532417393" lon="13.954495611160329"><ele>397.00000000000006</ele><time>2026-04-12T11:43:59Z</time></trkpt><trkpt lat="41.399070857972376" lon="13.954399967551666"><ele>397.0</ele><time>2026-04-12T11:44:01Z</time></trkpt><trkpt lat="41.3990600893605" lon="13.954300014347693"><ele>397.0</ele><time>2026-04-12T11:44:06Z</time></trkpt><trkpt lat="41.3990401158813" lon="13.954211091416104"><ele>397.0</ele><time>2026-04-12T11:44:08Z</time></trkpt><trkpt lat="41.39905618369493" lon="13.95407139626048"><ele>397.00000000000006</ele><time>2026-04-12T11:44:12Z</time></trkpt><trkpt lat="41.399050305121804" lon="13.95398592450702"><ele>397.0</ele><time>2026-04-12T11:44:14Z</time></trkpt><trkpt lat="41.399095950311654" lon="13.953852190301236"><ele>397.00000000000006</ele><time>2026-04-12T11:44:17Z</time></trkpt><trkpt lat="41.39915485820156" lon="13.953808405311113"><ele>397.0</ele><time>2026-04-12T11:44:20Z</time></trkpt><trkpt lat="41.399225844415284" lon="13.953845755375525"><ele>397.0</ele><time>2026-04-12T11:44:22Z</time></trkpt><trkpt lat="41.39927061544033" lon="13.953937827621395"><ele>397.0</ele><time>2026-04-12T11:44:25Z</time></trkpt><trkpt lat="41.39929567536845" lon="13.954066648030357"><ele>397.00000000000006</ele><time>2026-04-12T11:44:28Z</time></trkpt><trkpt lat="41.39930214313937" lon="13.954162302684589"><ele>397.0</ele><time>2026-04-12T11:44:30Z</time></trkpt><trkpt lat="41.399309771573286" lon="13.95427573924657"><ele>397.00000000000006</ele><time>2026-04-12T11:44:33Z</time></trkpt><trkpt lat="41.39931553668647" lon="13.954375662453273"><ele>397.0</ele><time>2026-04-12T11:44:36Z</time></trkpt><trkpt lat="41.39932433264688" lon="13.95449035403393"><ele>397.0</ele><time>2026-04-12T11:44:39Z</time></trkpt><trkpt lat="41.3993193609186" lon="13.95461745557964"><ele>397.0</ele><time>2026-04-12T11:44:42Z</time></trkpt><trkpt lat="41.399340769570614" lon="13.954713096444781"><ele>397.00000000000006</ele><time>2026-04-12T11:44:44Z</time></trkpt><trkpt lat="41.39935738213188" lon="13.954806252642664"><ele>397.0</ele><time>2026-04-12T11:44:48Z</time></trkpt><trkpt lat="41.39937649774199" lon="13.954906218962233"><ele>397.0</ele><time>2026-04-12T11:44:53Z</time></trkpt><trkpt lat="41.39939234833662" lon="13.954990044982676"><ele>397.0</ele><time>2026-04-12T11:44:57Z</time></trkpt><trkpt lat="41.399431469763165" lon="13.95511628837133"><ele>397.0</ele><time>2026-04-12T11:45:01Z</time></trkpt><trkpt lat="41.39944104269654" lon="13.955203708756482"><ele>397.0</ele><time>2026-04-12T11:45:04Z</time></trkpt><trkpt lat="41.39942685193685" lon="13.955287740062493"><ele>397.0</ele><time>2026-04-12T11:45:07Z</time></trkpt><trkpt lat="41.39943465274105" lon="13.955385672976561"><ele>397.0</ele><time>2026-04-12T11:45:10Z</time></trkpt><trkpt lat="41.399420172247076" lon="13.955477458060392"><ele>397.0</ele><time>2026-04-12T11:45:13Z</time></trkpt><trkpt lat="41.399392103688655" lon="13.955586028793535"><ele>395.8</ele><time>2026-04-12T11:45:15Z</time></trkpt><trkpt lat="41.3994062600128" lon="13.955694940096615"><ele>394.6</ele><time>2026-04-12T11:45:18Z</time></trkpt><trkpt lat="41.39939825343009" lon="13.955849967405596"><ele>393.40000000000003</ele><time>2026-04-12T11:45:21Z</time></trkpt><trkpt lat="41.39941164934201" lon="13.955959779322267"><ele>392.20000000000005</ele><time>2026-04-12T11:45:23Z</time></trkpt><trkpt lat="41.399397164159446" lon="13.956061226094455"><ele>391.0</ele><time>2026-04-12T11:45:25Z</time></trkpt><trkpt lat="41.39938403310073" lon="13.956180461539692"><ele>390.00000000000006</ele><time>2026-04-12T11:45:27Z</time></trkpt><trkpt lat="41.39938582695958" lon="13.956292015084703"><ele>389.0</ele><time>2026-04-12T11:45:29Z</time></trkpt><trkpt lat="41.399389403683465" lon="13.956405763118289"><ele>388.0</ele><time>2026-04-12T11:45:33Z</time></trkpt><trkpt lat="41.39938653060906" lon="13.956502938748757"><ele>387.0</ele><time>2026-04-12T11:45:35Z</time></trkpt><trkpt lat="41.39936472920372" lon="13.956601724143054"><ele>386.00000000000006</ele><time>2026-04-12T11:45:38Z</time></trkpt><trkpt lat="41.3993466675595" lon="13.956682742173488"><ele>385.0</ele><time>2026-04-12T11:45:40Z</time></trkpt><trkpt lat="41.39930746155578" lon="13.956767041145278"><ele>382.6</ele><time>2026-04-12T11:45:42Z</time></trkpt><trkpt lat="41.39922911393091" lon="13.956872790621349"><ele>380.2</ele><time>2026-04-12T11:45:44Z</time></trkpt><trkpt lat="41.3991756013965" lon="13.956968764275626"><ele>377.79999999999995</ele><time>2026-04-12T11:45:46Z</time></trkpt><trkpt lat="41.399128723851646" lon="13.957104961629886"><ele>375.4</ele><time>2026-04-12T11:45:48Z</time></trkpt><trkpt lat="41.399093289036124" lon="13.957177395646815"><ele>373.0</ele><time>2026-04-12T11:45:50Z</time></trkpt><trkpt lat="41.39907978170254" lon="13.957291940422209"><ele>373.0</ele><time>2026-04-12T11:45:52Z</time></trkpt><trkpt lat="41.39903053132153" lon="13.957439311237337"><ele>373.0</ele><time>2026-04-12T11:45:54Z</time></trkpt><trkpt lat="41.3990141732254" lon="13.957546191852181"><ele>373.0</ele><time>2026-04-12T11:45:56Z</time></trkpt><trkpt lat="41.398982281203104" lon="13.957621402505813"><ele>373.0</ele><time>2026-04-12T11:45:58Z</time></trkpt><trkpt lat="41.39891179292026" lon="13.95771521337645"><ele>373.0</ele><time>2026-04-12T11:46:00Z</time></trkpt><trkpt lat="41.39887859872461" lon="13.957842936597288"><ele>375.3333333333333</ele><time>2026-04-12T11:46:02Z</time></trkpt><trkpt lat="41.398824784219855" lon="13.957930744129817"><ele>377.66666666666663</ele><time>2026-04-12T11:46:04Z</time></trkpt><trkpt lat="41.398828448777515" lon="13.958075872279206"><ele>380.0</ele><time>2026-04-12T11:46:06Z</time></trkpt><trkpt lat="41.39880373498853" lon="13.95816870058203"><ele>382.3333333333333</ele><time>2026-04-12T11:46:07Z</time></trkpt><trkpt lat="41.39874035553565" lon="13.95827081344581"><ele>384.6666666666667</ele><time>2026-04-12T11:46:10Z</time></trkpt><trkpt lat="41.398804901235884" lon="13.958305422932604"><ele>387.0</ele><time>2026-04-12T11:46:12Z</time></trkpt><trkpt lat="41.398846109033656" lon="13.958378489599665"><ele>384.8</ele><time>2026-04-12T11:46:15Z</time></trkpt><trkpt lat="41.39888877465129" lon="13.958482365041881"><ele>382.6</ele><time>2026-04-12T11:46:17Z</time></trkpt><trkpt lat="41.398876779800005" lon="13.958586670080502"><ele>380.40000000000003</ele><time>2026-04-12T11:46:18Z</time></trkpt><trkpt lat="41.398851436225065" lon="13.95872029833376"><ele>378.20000000000005</ele><time>2026-04-12T11:46:19Z</time></trkpt><trkpt lat="41.398787514086166" lon="13.958852485633031"><ele>376.0</ele><time>2026-04-12T11:46:20Z</time></trkpt><trkpt lat="41.39869882539048" lon="13.958984860650556"><ele>376.0</ele><time>2026-04-12T11:46:21Z</time></trkpt><trkpt lat="41.39861290126451" lon="13.95904659114219"><ele>376.0</ele><time>2026-04-12T11:46:22Z</time></trkpt><trkpt lat="41.39858472023101" lon="13.959247295222491"><ele>376.0</ele><time>2026-04-12T11:46:24Z</time></trkpt><trkpt lat="41.39861651055102" lon="13.959424515513398"><ele>376.0</ele><time>2026-04-12T11:46:25Z</time></trkpt><trkpt lat="41.39860692724339" lon="13.959591095269687"><ele>373.0</ele><time>2026-04-12T11:46:26Z</time></trkpt><trkpt lat="41.39856133464685" lon="13.959715553596821"><ele>370.0</ele><time>2026-04-12T11:46:27Z</time></trkpt><trkpt lat="41.398472207338" lon="13.95984910480299"><ele>367.0</ele><time>2026-04-12T11:46:28Z</time></trkpt><trkpt lat="41.3983564884317" lon="13.959992859397977"><ele>364.0</ele><time>2026-04-12T11:46:29Z</time></trkpt><trkpt lat="41.39828593796452" lon="13.960125143165325"><ele>361.79999999999995</ele><time>2026-04-12T11:46:30Z</time></trkpt><trkpt lat="41.398226002942884" lon="13.960227493473608"><ele>359.59999999999997</ele><time>2026-04-12T11:46:31Z</time></trkpt><trkpt lat="41.39820872448987" lon="13.960346574710854"><ele>357.4</ele><time>2026-04-12T11:46:32Z</time></trkpt><trkpt lat="41.39821329436424" lon="13.960523764489517"><ele>355.2</ele><time>2026-04-12T11:46:33Z</time></trkpt><trkpt lat="41.39825180932625" lon="13.960619818026334"><ele>353.0</ele><time>2026-04-12T11:46:34Z</time></trkpt><trkpt lat="41.3982464450706" lon="13.96086446151443"><ele>351.5</ele><time>2026-04-12T11:46:35Z</time></trkpt><trkpt lat="41.398234750561436" lon="13.961027525089678"><ele>350.0</ele><time>2026-04-12T11:46:36Z</time></trkpt><trkpt lat="41.3982447328461" lon="13.961181835766443"><ele>348.5</ele><time>2026-04-12T11:46:39Z</time></trkpt><trkpt lat="41.39822403901199" lon="13.961342257826965"><ele>347.0</ele><time>2026-04-12T11:46:40Z</time></trkpt><trkpt lat="41.398251364063086" lon="13.961465952920623"><ele>347.0</ele><time>2026-04-12T11:46:41Z</time></trkpt><trkpt lat="41.3982615769754" lon="13.96157455605484"><ele>347.0</ele><time>2026-04-12T11:46:42Z</time></trkpt><trkpt lat="41.398257458558675" lon="13.96167220941068"><ele>347.0</ele><time>2026-04-12T11:46:43Z</time></trkpt><trkpt lat="41.39826740600053" lon="13.961865063715928"><ele>347.0</ele><time>2026-04-12T11:46:44Z</time></trkpt><trkpt lat="41.39827421668352" lon="13.961988988783133"><ele>347.0</ele><time>2026-04-12T11:46:45Z</time></trkpt><trkpt lat="41.3982558205457" lon="13.962118876321439"><ele>347.0</ele><time>2026-04-12T11:46:47Z</time></trkpt><trkpt lat="41.39827423480688" lon="13.962307300562166"><ele>347.0</ele><time>2026-04-12T11:46:48Z</time></trkpt><trkpt lat="41.398270758475" lon="13.96240717505312"><ele>347.0</ele><time>2026-04-12T11:46:49Z</time></trkpt><trkpt lat="41.39829712751405" lon="13.96269740674957"><ele>347.0</ele><time>2026-04-12T11:46:50Z</time></trkpt><trkpt lat="41.39829126403476" lon="13.962797706739465"><ele>347.8</ele><time>2026-04-12T11:46:51Z</time></trkpt><trkpt lat="41.39829539812663" lon="13.962882816604775"><ele>348.6</ele><time>2026-04-12T11:46:52Z</time></trkpt><trkpt lat="41.39828289768739" lon="13.963035353142542"><ele>349.40000000000003</ele><time>2026-04-12T11:46:53Z</time></trkpt><trkpt lat="41.398267980846754" lon="13.963154017603799"><ele>350.20000000000005</ele><time>2026-04-12T11:46:55Z</time></trkpt><trkpt lat="41.3982139584785" lon="13.963280565572658"><ele>351.0</ele><time>2026-04-12T11:46:57Z</time></trkpt><trkpt lat="41.398225261529305" lon="13.963377236138003"><ele>351.3333333333333</ele><time>2026-04-12T11:46:58Z</time></trkpt><trkpt lat="41.398222292478565" lon="13.963492239516622"><ele>351.6666666666667</ele><time>2026-04-12T11:47:00Z</time></trkpt><trkpt lat="41.39820682728209" lon="13.96361162954572"><ele>352.0</ele><time>2026-04-12T11:47:02Z</time></trkpt><trkpt lat="41.39822458947024" lon="13.963739454432178"><ele>352.33333333333337</ele><time>2026-04-12T11:47:04Z</time></trkpt><trkpt lat="41.39820764203532" lon="13.963841960318875"><ele>352.6666666666667</ele><time>2026-04-12T11:47:06Z</time></trkpt><trkpt lat="41.398224928385936" lon="13.96396470835642"><ele>353.0</ele><time>2026-04-12T11:47:08Z</time></trkpt><trkpt lat="41.39823118717324" lon="13.964104398841265"><ele>353.0</ele><time>2026-04-12T11:47:10Z</time></trkpt><trkpt lat="41.39825631926977" lon="13.96418539870645"><ele>353.0</ele><time>2026-04-12T11:47:12Z</time></trkpt><trkpt lat="41.398251691576405" lon="13.964299049087625"><ele>353.0</ele><time>2026-04-12T11:47:15Z</time></trkpt><trkpt lat="41.398285283564775" lon="13.96437763214105"><ele>353.0</ele><time>2026-04-12T11:47:17Z</time></trkpt><trkpt lat="41.398262070165245" lon="13.964472842369934"><ele>353.0</ele><time>2026-04-12T11:47:19Z</time></trkpt><trkpt lat="41.39826898032664" lon="13.96466319438377"><ele>353.0</ele><time>2026-04-12T11:47:21Z</time></trkpt><trkpt lat="41.39826943018021" lon="13.964782767504886"><ele>353.4</ele><time>2026-04-12T11:47:23Z</time></trkpt><trkpt lat="41.39827577975847" lon="13.96489835241176"><ele>353.79999999999995</ele><time>2026-04-12T11:47:25Z</time></trkpt><trkpt lat="41.398308074070165" lon="13.965010353045686"><ele>354.2</ele><time>2026-04-12T11:47:27Z</time></trkpt><trkpt lat="41.39830488097715" lon="13.965173885393419"><ele>354.6</ele><time>2026-04-12T11:47:29Z</time></trkpt><trkpt lat="41.39830556255487" lon="13.965295298671505"><ele>355.0</ele><time>2026-04-12T11:47:31Z</time></trkpt><trkpt lat="41.39824422834638" lon="13.965343863873322"><ele>351.0</ele><time>2026-04-12T11:47:33Z</time></trkpt><trkpt lat="41.39815056688709" lon="13.965379352139278"><ele>347.0</ele><time>2026-04-12T11:47:37Z</time></trkpt><trkpt lat="41.398066952547865" lon="13.965363358240085"><ele>343.0</ele><time>2026-04-12T11:47:40Z</time></trkpt><trkpt lat="41.39797679436352" lon="13.965336542976814"><ele>339.0</ele><time>2026-04-12T11:47:42Z</time></trkpt><trkpt lat="41.397875071285" lon="13.965332406104077"><ele>335.0</ele><time>2026-04-12T11:47:45Z</time></trkpt><trkpt lat="41.3977998285245" lon="13.965315966907575"><ele>332.5</ele><time>2026-04-12T11:47:48Z</time></trkpt><trkpt lat="41.39772319690112" lon="13.965304629282924"><ele>330.0</ele><time>2026-04-12T11:47:51Z</time></trkpt><trkpt lat="41.39764430140539" lon="13.965293762841803"><ele>327.5</ele><time>2026-04-12T11:47:54Z</time></trkpt><trkpt lat="41.397578455725544" lon="13.965299820464574"><ele>325.0</ele><time>2026-04-12T11:47:57Z</time></trkpt><trkpt lat="41.397487047456664" lon="13.965297674119483"><ele>322.5</ele><time>2026-04-12T11:48:01Z</time></trkpt><trkpt lat="41.39742460608785" lon="13.965271095602011"><ele>320.0</ele><time>2026-04-12T11:48:04Z</time></trkpt><trkpt lat="41.397355441964656" lon="13.9652870613343"><ele>320.0</ele><time>2026-04-12T11:48:08Z</time></trkpt><trkpt lat="41.39729221494972" lon="13.965261252855"><ele>320.0</ele><time>2026-04-12T11:48:12Z</time></trkpt><trkpt lat="41.39721609412687" lon="13.965258754006696"><ele>320.0</ele><time>2026-04-12T11:48:16Z</time></trkpt><trkpt lat="41.39711791036224" lon="13.965214676387992"><ele>320.0</ele><time>2026-04-12T11:48:19Z</time></trkpt><trkpt lat="41.39705060058265" lon="13.965208113191874"><ele>320.0</ele><time>2026-04-12T11:48:21Z</time></trkpt><trkpt lat="41.39696625118392" lon="13.965183919840037"><ele>320.0</ele><time>2026-04-12T11:48:24Z</time></trkpt><trkpt lat="41.39689950178394" lon="13.965164725786336"><ele>322.6666666666667</ele><time>2026-04-12T11:48:25Z</time></trkpt><trkpt lat="41.396821047538964" lon="13.96512416699766"><ele>325.33333333333337</ele><time>2026-04-12T11:48:27Z</time></trkpt><trkpt lat="41.396744859737595" lon="13.965084030384366"><ele>328.0</ele><time>2026-04-12T11:48:29Z</time></trkpt><trkpt lat="41.39667365734538" lon="13.965036008620716"><ele>330.6666666666667</ele><time>2026-04-12T11:48:31Z</time></trkpt><trkpt lat="41.39659424091917" lon="13.965006048754862"><ele>333.3333333333333</ele><time>2026-04-12T11:48:35Z</time></trkpt><trkpt lat="41.39652741397655" lon="13.965002025551419"><ele>336.0</ele><time>2026-04-12T11:48:38Z</time></trkpt><trkpt lat="41.39645708744378" lon="13.965017556413054"><ele>336.0</ele><time>2026-04-12T11:48:41Z</time></trkpt><trkpt lat="41.39638922405663" lon="13.964992555762004"><ele>336.0</ele><time>2026-04-12T11:48:45Z</time></trkpt><trkpt lat="41.396306139283766" lon="13.96502105627505"><ele>336.0</ele><time>2026-04-12T11:48:48Z</time></trkpt><trkpt lat="41.39621638684827" lon="13.965015234216356"><ele>336.0</ele><time>2026-04-12T11:48:49Z</time></trkpt><trkpt lat="41.39609010113596" lon="13.965016282786522"><ele>336.0</ele><time>2026-04-12T11:48:52Z</time></trkpt><trkpt lat="41.39598772374732" lon="13.965006957505388"><ele>334.0</ele><time>2026-04-12T11:48:54Z</time></trkpt><trkpt lat="41.39589955538769" lon="13.9649958362197"><ele>332.0</ele><time>2026-04-12T11:48:56Z</time></trkpt><trkpt lat="41.39582652971917" lon="13.964993667937016"><ele>330.0</ele><time>2026-04-12T11:49:00Z</time></trkpt><trkpt lat="41.39575358686509" lon="13.965010361736885"><ele>328.0</ele><time>2026-04-12T11:49:04Z</time></trkpt><trkpt lat="41.395655100907675" lon="13.965014567670893"><ele>326.0</ele><time>2026-04-12T11:49:06Z</time></trkpt><trkpt lat="41.39557059056878" lon="13.965015110654454"><ele>324.0</ele><time>2026-04-12T11:49:08Z</time></trkpt><trkpt lat="41.39547824065967" lon="13.965008437708264"><ele>317.3333333333333</ele><time>2026-04-12T11:49:11Z</time></trkpt><trkpt lat="41.395405138054635" lon="13.965036842381377"><ele>310.6666666666667</ele><time>2026-04-12T11:49:15Z</time></trkpt><trkpt lat="41.39533966024533" lon="13.965036608085477"><ele>304.0</ele><time>2026-04-12T11:49:21Z</time></trkpt><trkpt lat="41.3952489939286" lon="13.965084312852579"><ele>297.33333333333337</ele><time>2026-04-12T11:52:04Z</time></trkpt><trkpt lat="41.39517413317824" lon="13.965118489375277"><ele>290.6666666666667</ele><time>2026-04-12T11:52:07Z</time></trkpt><trkpt lat="41.39506236200261" lon="13.965144771273971"><ele>284.0</ele><time>2026-04-12T11:52:09Z</time></trkpt><trkpt lat="41.394962188932205" lon="13.96520005945724"><ele>284.0</ele><time>2026-04-12T11:52:11Z</time></trkpt><trkpt lat="41.39489882668779" lon="13.96524553095822"><ele>284.0</ele><time>2026-04-12T11:52:13Z</time></trkpt><trkpt lat="41.39482309000538" lon="13.965297873270515"><ele>284.0</ele><time>2026-04-12T11:52:16Z</time></trkpt><trkpt lat="41.394747115499015" lon="13.965364883884632"><ele>284.0</ele><time>2026-04-12T11:52:19Z</time></trkpt><trkpt lat="41.394648973876805" lon="13.9654225484574"><ele>284.0</ele><time>2026-04-12T11:52:21Z</time></trkpt><trkpt lat="41.39454068202312" lon="13.965459168653767"><ele>285.6666666666667</ele><time>2026-04-12T11:52:23Z</time></trkpt><trkpt lat="41.39445105861176" lon="13.965499040838727"><ele>287.33333333333337</ele><time>2026-04-12T11:52:24Z</time></trkpt><trkpt lat="41.3943864165225" lon="13.965522143623426"><ele>289.0</ele><time>2026-04-12T11:52:26Z</time></trkpt><trkpt lat="41.39429973168734" lon="13.965525992569427"><ele>290.6666666666667</ele><time>2026-04-12T11:52:30Z</time></trkpt><trkpt lat="41.3942172734743" lon="13.965546249340315"><ele>292.3333333333333</ele><time>2026-04-12T11:52:31Z</time></trkpt><trkpt lat="41.39412019112148" lon="13.965585909319639"><ele>294.0</ele><time>2026-04-12T11:52:33Z</time></trkpt><trkpt lat="41.394044613784125" lon="13.965619563370053"><ele>294.0</ele><time>2026-04-12T11:52:35Z</time></trkpt><trkpt lat="41.39397311246117" lon="13.965649582421962"><ele>294.0</ele><time>2026-04-12T11:52:37Z</time></trkpt><trkpt lat="41.39390649796461" lon="13.96567424019184"><ele>294.0</ele><time>2026-04-12T11:52:39Z</time></trkpt><trkpt lat="41.3938344000861" lon="13.965725004575466"><ele>294.0</ele><time>2026-04-12T11:52:41Z</time></trkpt><trkpt lat="41.39375936174688" lon="13.965769466726085"><ele>294.0</ele><time>2026-04-12T11:52:45Z</time></trkpt><trkpt lat="41.39370566891018" lon="13.965844263564554"><ele>294.0</ele><time>2026-04-12T11:52:47Z</time></trkpt><trkpt lat="41.39361370674907" lon="13.965923974145408"><ele>292.1666666666667</ele><time>2026-04-12T11:52:49Z</time></trkpt><trkpt lat="41.39356080320592" lon="13.965997434325418"><ele>290.3333333333333</ele><time>2026-04-12T11:52:51Z</time></trkpt><trkpt lat="41.39350455819558" lon="13.96612016945264"><ele>288.5</ele><time>2026-04-12T11:52:53Z</time></trkpt><trkpt lat="41.39343845532849" lon="13.96617060749276"><ele>286.66666666666663</ele><time>2026-04-12T11:52:54Z</time></trkpt><trkpt lat="41.39337246165746" lon="13.966202413883572"><ele>284.8333333333333</ele><time>2026-04-12T11:52:55Z</time></trkpt><trkpt lat="41.39327990360658" lon="13.966253022737341"><ele>283.0</ele><time>2026-04-12T11:52:57Z</time></trkpt><trkpt lat="41.39320628278551" lon="13.966293961077275"><ele>283.0</ele><time>2026-04-12T11:53:01Z</time></trkpt><trkpt lat="41.393144619091366" lon="13.966311443701985"><ele>283.0</ele><time>2026-04-12T11:53:03Z</time></trkpt><trkpt lat="41.39306895382816" lon="13.966310777279555"><ele>283.0</ele><time>2026-04-12T11:53:06Z</time></trkpt><trkpt lat="41.392997820597714" lon="13.96633204737285"><ele>283.0</ele><time>2026-04-12T11:53:07Z</time></trkpt><trkpt lat="41.392934802850206" lon="13.966329885010584"><ele>283.0</ele><time>2026-04-12T11:53:08Z</time></trkpt><trkpt lat="41.3928556397241" lon="13.966333443301156"><ele>283.0</ele><time>2026-04-12T11:53:10Z</time></trkpt><trkpt lat="41.39277511066974" lon="13.966311491637455"><ele>283.0</ele><time>2026-04-12T11:53:12Z</time></trkpt><trkpt lat="41.392687814665166" lon="13.966289370410097"><ele>283.16666666666663</ele><time>2026-04-12T11:53:15Z</time></trkpt><trkpt lat="41.39262029209145" lon="13.966244013680873"><ele>283.3333333333333</ele><time>2026-04-12T11:53:18Z</time></trkpt><trkpt lat="41.39254360113718" lon="13.966214409623053"><ele>283.5</ele><time>2026-04-12T11:53:21Z</time></trkpt><trkpt lat="41.39250353627206" lon="13.966117197001399"><ele>283.6666666666667</ele><time>2026-04-12T11:53:23Z</time></trkpt><trkpt lat="41.39237633928415" lon="13.96603389157983"><ele>283.83333333333337</ele><time>2026-04-12T11:53:25Z</time></trkpt><trkpt lat="41.3923095508444" lon="13.966025344417464"><ele>284.0</ele><time>2026-04-12T11:53:26Z</time></trkpt><trkpt lat="41.39222735626036" lon="13.965995656226594"><ele>282.33333333333337</ele><time>2026-04-12T11:53:28Z</time></trkpt><trkpt lat="41.3921710951681" lon="13.965955806774188"><ele>280.6666666666667</ele><time>2026-04-12T11:53:30Z</time></trkpt><trkpt lat="41.39208823474054" lon="13.965965434716686"><ele>279.0</ele><time>2026-04-12T11:53:32Z</time></trkpt><trkpt lat="41.39202719379921" lon="13.965944700342789"><ele>277.3333333333333</ele><time>2026-04-12T11:53:33Z</time></trkpt><trkpt lat="41.39190442039079" lon="13.965901230959991"><ele>275.66666666666663</ele><time>2026-04-12T11:53:36Z</time></trkpt><trkpt lat="41.391825953857456" lon="13.965876837317397"><ele>274.0</ele><time>2026-04-12T11:53:39Z</time></trkpt><trkpt lat="41.391761592515635" lon="13.96588975536463"><ele>274.0</ele><time>2026-04-12T11:53:42Z</time></trkpt><trkpt lat="41.3916610343039" lon="13.965864956044168"><ele>274.0</ele><time>2026-04-12T11:53:45Z</time></trkpt><trkpt lat="41.39159651872741" lon="13.96588031402351"><ele>274.0</ele><time>2026-04-12T11:53:47Z</time></trkpt><trkpt lat="41.3915274160066" lon="13.96588600712868"><ele>274.0</ele><time>2026-04-12T11:53:49Z</time></trkpt><trkpt lat="41.391442588309886" lon="13.965904850740582"><ele>274.0</ele><time>2026-04-12T11:53:51Z</time></trkpt><trkpt lat="41.39136901176819" lon="13.96591251649145"><ele>274.0</ele><time>2026-04-12T11:53:54Z</time></trkpt><trkpt lat="41.39129899937349" lon="13.965903805156344"><ele>273.8333333333333</ele><time>2026-04-12T11:53:57Z</time></trkpt><trkpt lat="41.39120441180912" lon="13.96590077221"><ele>273.66666666666663</ele><time>2026-04-12T11:54:00Z</time></trkpt><trkpt lat="41.391136514013574" lon="13.96590098065657"><ele>273.5</ele><time>2026-04-12T11:54:02Z</time></trkpt><trkpt lat="41.391072924433836" lon="13.965875629372476"><ele>273.3333333333333</ele><time>2026-04-12T11:54:05Z</time></trkpt><trkpt lat="41.39101229765693" lon="13.965846508482318"><ele>273.1666666666667</ele><time>2026-04-12T11:54:07Z</time></trkpt><trkpt lat="41.39091642016545" lon="13.965806312054495"><ele>273.0</ele><time>2026-04-12T11:54:10Z</time></trkpt><trkpt lat="41.3908351556536" lon="13.965800932830852"><ele>277.5</ele><time>2026-04-12T11:54:11Z</time></trkpt><trkpt lat="41.39075361215236" lon="13.965792935104231"><ele>282.0</ele><time>2026-04-12T11:54:12Z</time></trkpt><trkpt lat="41.39067467321256" lon="13.965775569063295"><ele>286.5</ele><time>2026-04-12T11:54:14Z</time></trkpt><trkpt lat="41.39059216124633" lon="13.96580183226464"><ele>291.0</ele><time>2026-04-12T11:54:15Z</time></trkpt><trkpt lat="41.39050184728235" lon="13.965804682422519"><ele>295.5</ele><time>2026-04-12T11:54:17Z</time></trkpt><trkpt lat="41.390396134160625" lon="13.965823736178121"><ele>300.0</ele><time>2026-04-12T11:54:19Z</time></trkpt><trkpt lat="41.390319691280524" lon="13.965845842825702"><ele>297.1666666666667</ele><time>2026-04-12T11:54:21Z</time></trkpt><trkpt lat="41.390246821415374" lon="13.965888241802395"><ele>294.3333333333333</ele><time>2026-04-12T11:54:23Z</time></trkpt><trkpt lat="41.390184228076556" lon="13.965940261085425"><ele>291.5</ele><time>2026-04-12T11:54:26Z</time></trkpt><trkpt lat="41.39008589180686" lon="13.965988735907569"><ele>288.66666666666663</ele><time>2026-04-12T11:54:28Z</time></trkpt><trkpt lat="41.39001843674286" lon="13.966003391473377"><ele>285.8333333333333</ele><time>2026-04-12T11:54:34Z</time></trkpt><trkpt lat="41.38993166454721" lon="13.966052253424381"><ele>283.0</ele><time>2026-04-12T11:54:36Z</time></trkpt><trkpt lat="41.38980385984204" lon="13.966061360068487"><ele>283.0</ele><time>2026-04-12T11:54:38Z</time></trkpt><trkpt lat="41.38967847612635" lon="13.966019941327508"><ele>283.0</ele><time>2026-04-12T11:54:40Z</time></trkpt><trkpt lat="41.38955939997493" lon="13.966050348565846"><ele>283.0</ele><time>2026-04-12T11:54:41Z</time></trkpt><trkpt lat="41.38946771672138" lon="13.966036081094888"><ele>283.0</ele><time>2026-04-12T11:54:42Z</time></trkpt><trkpt lat="41.38939107889477" lon="13.966042988759055"><ele>283.0</ele><time>2026-04-12T11:54:43Z</time></trkpt><trkpt lat="41.38932699136076" lon="13.966052617312803"><ele>283.5</ele><time>2026-04-12T11:54:44Z</time></trkpt><trkpt lat="41.38924676779011" lon="13.966043191064191"><ele>284.0</ele><time>2026-04-12T11:54:46Z</time></trkpt><trkpt lat="41.3891701544518" lon="13.966039031493965"><ele>284.5</ele><time>2026-04-12T11:54:49Z</time></trkpt><trkpt lat="41.38909026244716" lon="13.96606352157693"><ele>285.0</ele><time>2026-04-12T11:54:53Z</time></trkpt><trkpt lat="41.38901342628935" lon="13.966053545462053"><ele>285.5</ele><time>2026-04-12T11:54:55Z</time></trkpt><trkpt lat="41.38891890974653" lon="13.966083711768515"><ele>286.0</ele><time>2026-04-12T11:54:56Z</time></trkpt><trkpt lat="41.38884301322287" lon="13.966116788799392"><ele>287.16666666666663</ele><time>2026-04-12T11:54:57Z</time></trkpt><trkpt lat="41.38878112170432" lon="13.966144294665122"><ele>288.3333333333333</ele><time>2026-04-12T11:54:59Z</time></trkpt><trkpt lat="41.38870534585849" lon="13.966163408484475"><ele>289.5</ele><time>2026-04-12T11:55:02Z</time></trkpt><trkpt lat="41.3886343304295" lon="13.966206786999967"><ele>290.6666666666667</ele><time>2026-04-12T11:55:05Z</time></trkpt><trkpt lat="41.38857813159723" lon="13.966330963612421"><ele>291.83333333333337</ele><time>2026-04-12T11:55:08Z</time></trkpt><trkpt lat="41.38848517412991" lon="13.966343744512418"><ele>293.0</ele><time>2026-04-12T11:55:09Z</time></trkpt><trkpt lat="41.38841681003664" lon="13.966376241905513"><ele>293.0</ele><time>2026-04-12T11:55:10Z</time></trkpt><trkpt lat="41.38835304439328" lon="13.966401427064659"><ele>293.0</ele><time>2026-04-12T11:55:11Z</time></trkpt><trkpt lat="41.388292979975176" lon="13.966432410768538"><ele>293.0</ele><time>2026-04-12T11:55:12Z</time></trkpt><trkpt lat="41.388206474434675" lon="13.966487805384386"><ele>293.0</ele><time>2026-04-12T11:55:14Z</time></trkpt><trkpt lat="41.388125026663594" lon="13.96655478383492"><ele>293.0</ele><time>2026-04-12T11:55:16Z</time></trkpt><trkpt lat="41.388047700763316" lon="13.966580763219223"><ele>293.0</ele><time>2026-04-12T11:55:18Z</time></trkpt><trkpt lat="41.387947340627825" lon="13.966665225369724"><ele>291.4285714285714</ele><time>2026-04-12T11:55:20Z</time></trkpt><trkpt lat="41.38788678019504" lon="13.966721225608502"><ele>289.85714285714283</ele><time>2026-04-12T11:55:21Z</time></trkpt><trkpt lat="41.38783197737384" lon="13.966780404507867"><ele>288.2857142857143</ele><time>2026-04-12T11:55:23Z</time></trkpt><trkpt lat="41.38776259094699" lon="13.966812068539536"><ele>286.71428571428567</ele><time>2026-04-12T11:55:25Z</time></trkpt><trkpt lat="41.38769062374055" lon="13.966855649171908"><ele>285.1428571428571</ele><time>2026-04-12T11:55:27Z</time></trkpt><trkpt lat="41.38760544973173" lon="13.966865961318991"><ele>283.57142857142856</ele><time>2026-04-12T11:55:29Z</time></trkpt><trkpt lat="41.3875408276326" lon="13.966890712841971"><ele>282.0</ele><time>2026-04-12T11:55:30Z</time></trkpt><trkpt lat="41.387477921471074" lon="13.966913799805974"><ele>282.0</ele><time>2026-04-12T11:55:31Z</time></trkpt><trkpt lat="41.38739082266093" lon="13.966957853829767"><ele>282.0</ele><time>2026-04-12T11:55:34Z</time></trkpt><trkpt lat="41.38730783389141" lon="13.966954476288358"><ele>282.0</ele><time>2026-04-12T11:55:36Z</time></trkpt><trkpt lat="41.387229856956" lon="13.966955147565367"><ele>282.0</ele><time>2026-04-12T11:55:39Z</time></trkpt><trkpt lat="41.38714538118397" lon="13.966971618906374"><ele>282.0</ele><time>2026-04-12T11:55:42Z</time></trkpt><trkpt lat="41.38708244001025" lon="13.967009569949905"><ele>282.0</ele><time>2026-04-12T11:55:44Z</time></trkpt><trkpt lat="41.38698072434533" lon="13.967071596792364"><ele>281.42857142857144</ele><time>2026-04-12T11:55:46Z</time></trkpt><trkpt lat="41.38688829847278" lon="13.967106247477158"><ele>280.85714285714283</ele><time>2026-04-12T11:55:48Z</time></trkpt><trkpt lat="41.38681320053872" lon="13.967119516717126"><ele>280.2857142857143</ele><time>2026-04-12T11:55:49Z</time></trkpt><trkpt lat="41.38674980295368" lon="13.967140113380756"><ele>279.7142857142857</ele><time>2026-04-12T11:55:52Z</time></trkpt><trkpt lat="41.38668337621517" lon="13.967199370833448"><ele>279.14285714285717</ele><time>2026-04-12T11:55:54Z</time></trkpt><trkpt lat="41.38661535698474" lon="13.96719721044363"><ele>278.57142857142856</ele><time>2026-04-12T11:55:56Z</time></trkpt><trkpt lat="41.38656430296084" lon="13.967145859987612"><ele>278.0</ele><time>2026-04-12T11:55:58Z</time></trkpt><trkpt lat="41.386477929766926" lon="13.967200145246965"><ele>278.0</ele><time>2026-04-12T11:56:00Z</time></trkpt><trkpt lat="41.386403675421235" lon="13.967242272524734"><ele>278.0</ele><time>2026-04-12T11:56:02Z</time></trkpt><trkpt lat="41.38633519999563" lon="13.967260004264617"><ele>278.0</ele><time>2026-04-12T11:56:10Z</time></trkpt><trkpt lat="41.38626386035287" lon="13.967338047607836"><ele>278.0</ele><time>2026-04-12T11:56:13Z</time></trkpt><trkpt lat="41.38611668422564" lon="13.967443127149073"><ele>278.0</ele><time>2026-04-12T11:56:16Z</time></trkpt><trkpt lat="41.38608246954466" lon="13.967515995060943"><ele>262.5</ele><time>2026-04-12T11:56:18Z</time></trkpt><trkpt lat="41.38572027597491" lon="13.967717567596795"><ele>247.0</ele><time>2026-04-12T11:56:21Z</time></trkpt><trkpt lat="41.38563212703373" lon="13.967727945643286"><ele>247.0</ele><time>2026-04-12T11:56:22Z</time></trkpt><trkpt lat="41.385543630974155" lon="13.96773186263203"><ele>247.0</ele><time>2026-04-12T11:56:23Z</time></trkpt><trkpt lat="41.385071387929564" lon="13.96774972744843"><ele>246.16666666666666</ele><time>2026-04-12T11:56:24Z</time></trkpt><trkpt lat="41.384986454515214" lon="13.967706570568618"><ele>245.33333333333331</ele><time>2026-04-12T11:56:25Z</time></trkpt><trkpt lat="41.38490868017622" lon="13.967686394584103"><ele>244.5</ele><time>2026-04-12T11:56:27Z</time></trkpt><trkpt lat="41.38483770368008" lon="13.96768745820494"><ele>243.66666666666669</ele><time>2026-04-12T11:56:28Z</time></trkpt><trkpt lat="41.38475012675558" lon="13.96767443552386"><ele>242.83333333333334</ele><time>2026-04-12T11:56:29Z</time></trkpt><trkpt lat="41.38467897239039" lon="13.96766796500924"><ele>242.0</ele><time>2026-04-12T11:56:30Z</time></trkpt><trkpt lat="41.384610852168784" lon="13.967679636565938"><ele>241.0</ele><time>2026-04-12T11:56:31Z</time></trkpt><trkpt lat="41.38454418308212" lon="13.967701630610392"><ele>240.0</ele><time>2026-04-12T11:56:32Z</time></trkpt><trkpt lat="41.3844732405432" lon="13.967833993506593"><ele>239.0</ele><time>2026-04-12T11:56:34Z</time></trkpt><trkpt lat="41.384614785483144" lon="13.968110059330716"><ele>238.0</ele><time>2026-04-12T11:56:35Z</time></trkpt><trkpt lat="41.38465808765026" lon="13.968191298952368"><ele>239.0</ele><time>2026-04-12T11:56:36Z</time></trkpt><trkpt lat="41.38471345024834" lon="13.96830091130017"><ele>240.0</ele><time>2026-04-12T11:56:37Z</time></trkpt><trkpt lat="41.384760047436224" lon="13.968417500789124"><ele>241.0</ele><time>2026-04-12T11:56:38Z</time></trkpt><trkpt lat="41.38481506853727" lon="13.968512705879842"><ele>242.0</ele><time>2026-04-12T11:56:39Z</time></trkpt><trkpt lat="41.38496951910902" lon="13.968594127191505"><ele>239.6</ele><time>2026-04-12T11:56:40Z</time></trkpt><trkpt lat="41.385055586638636" lon="13.968637188963285"><ele>237.2</ele><time>2026-04-12T11:56:41Z</time></trkpt><trkpt lat="41.38514331164872" lon="13.968669008659802"><ele>234.8</ele><time>2026-04-12T11:56:42Z</time></trkpt><trkpt lat="41.38524413526015" lon="13.968615363525595"><ele>232.4</ele><time>2026-04-12T11:56:43Z</time></trkpt><trkpt lat="41.38534911702886" lon="13.968650730460359"><ele>230.0</ele><time>2026-04-12T11:56:45Z</time></trkpt><trkpt lat="41.38536001867609" lon="13.968736043592774"><ele>230.0</ele><time>2026-04-12T11:56:47Z</time></trkpt><trkpt lat="41.38536174014474" lon="13.968861064369515"><ele>230.0</ele><time>2026-04-12T11:56:48Z</time></trkpt><trkpt lat="41.385395108868686" lon="13.969022130097825"><ele>230.0</ele><time>2026-04-12T11:56:49Z</time></trkpt><trkpt lat="41.38544108571382" lon="13.96918268434173"><ele>230.0</ele><time>2026-04-12T11:56:50Z</time></trkpt><trkpt lat="41.38547001685302" lon="13.969349786851868"><ele>227.25</ele><time>2026-04-12T11:56:51Z</time></trkpt><trkpt lat="41.38547632121466" lon="13.96952479699057"><ele>224.5</ele><time>2026-04-12T11:56:52Z</time></trkpt><trkpt lat="41.385479632175084" lon="13.96970634476147"><ele>221.75</ele><time>2026-04-12T11:56:53Z</time></trkpt><trkpt lat="41.3854969262892" lon="13.969876927952326"><ele>219.0</ele><time>2026-04-12T11:56:54Z</time></trkpt><trkpt lat="41.38550628908416" lon="13.970032548475979"><ele>217.0</ele><time>2026-04-12T11:56:55Z</time></trkpt><trkpt lat="41.38552114512531" lon="13.970173497058191"><ele>215.0</ele><time>2026-04-12T11:56:56Z</time></trkpt><trkpt lat="41.38555623708968" lon="13.970325030921574"><ele>213.0</ele><time>2026-04-12T11:56:57Z</time></trkpt><trkpt lat="41.38562504877828" lon="13.970478507402355"><ele>211.0</ele><time>2026-04-12T11:56:58Z</time></trkpt><trkpt lat="41.385699748525525" lon="13.970631372232528"><ele>211.0</ele><time>2026-04-12T11:56:59Z</time></trkpt><trkpt lat="41.3857722698146" lon="13.970749418328495"><ele>211.0</ele><time>2026-04-12T11:57:00Z</time></trkpt><trkpt lat="41.385824709696074" lon="13.97083069483396"><ele>211.0</ele><time>2026-04-12T11:57:01Z</time></trkpt><trkpt lat="41.3858746880865" lon="13.970916610802556"><ele>211.0</ele><time>2026-04-12T11:57:02Z</time></trkpt><trkpt lat="41.385913776174974" lon="13.971094755476992"><ele>211.0</ele><time>2026-04-12T11:57:04Z</time></trkpt><trkpt lat="41.38588094936599" lon="13.971237728064418"><ele>209.25</ele><time>2026-04-12T11:57:05Z</time></trkpt><trkpt lat="41.38583618182592" lon="13.971377156553602"><ele>207.5</ele><time>2026-04-12T11:57:06Z</time></trkpt><trkpt lat="41.38580066802108" lon="13.971528110210256"><ele>205.75</ele><time>2026-04-12T11:57:07Z</time></trkpt><trkpt lat="41.38573594100528" lon="13.971686675957137"><ele>204.0</ele><time>2026-04-12T11:57:08Z</time></trkpt><trkpt lat="41.38559336026412" lon="13.971831410711156"><ele>202.25</ele><time>2026-04-12T11:57:09Z</time></trkpt><trkpt lat="41.385526474357114" lon="13.972021721407053"><ele>200.5</ele><time>2026-04-12T11:57:10Z</time></trkpt><trkpt lat="41.38546894782078" lon="13.9721978520513"><ele>198.75</ele><time>2026-04-12T11:57:11Z</time></trkpt><trkpt lat="41.385414907789006" lon="13.972365013822355"><ele>197.0</ele><time>2026-04-12T11:57:12Z</time></trkpt><trkpt lat="41.38537184566834" lon="13.972492026040403"><ele>196.8</ele><time>2026-04-12T11:57:13Z</time></trkpt><trkpt lat="41.38533699045736" lon="13.97259065960331"><ele>196.6</ele><time>2026-04-12T11:57:14Z</time></trkpt><trkpt lat="41.38530123074519" lon="13.972679901779227"><ele>196.4</ele><time>2026-04-12T11:57:19Z</time></trkpt><trkpt lat="41.38537886313799" lon="13.972815553397133"><ele>196.20000000000002</ele><time>2026-04-12T11:57:20Z</time></trkpt><trkpt lat="41.38547440014352" lon="13.972898314799007"><ele>196.0</ele><time>2026-04-12T11:57:21Z</time></trkpt><trkpt lat="41.38558074760097" lon="13.97300059840147"><ele>195.5</ele><time>2026-04-12T11:57:22Z</time></trkpt><trkpt lat="41.38567471349168" lon="13.97311000264156"><ele>195.0</ele><time>2026-04-12T11:57:23Z</time></trkpt><trkpt lat="41.38578056777322" lon="13.97323753517581"><ele>194.5</ele><time>2026-04-12T11:57:24Z</time></trkpt><trkpt lat="41.3858563466" lon="13.973395479614327"><ele>194.0</ele><time>2026-04-12T11:57:25Z</time></trkpt><trkpt lat="41.38594664061948" lon="13.97358354543215"><ele>195.33333333333334</ele><time>2026-04-12T11:57:26Z</time></trkpt><trkpt lat="41.386034598234254" lon="13.973766744942166"><ele>196.66666666666669</ele><time>2026-04-12T11:57:27Z</time></trkpt><trkpt lat="41.38612886115505" lon="13.973963851124246"><ele>198.0</ele><time>2026-04-12T11:57:28Z</time></trkpt><trkpt lat="41.386227799146276" lon="13.974171439281816"><ele>199.33333333333331</ele><time>2026-04-12T11:57:29Z</time></trkpt><trkpt lat="41.38632516754002" lon="13.974375734205196"><ele>200.66666666666666</ele><time>2026-04-12T11:57:30Z</time></trkpt><trkpt lat="41.386424849114334" lon="13.974575485564635"><ele>202.0</ele><time>2026-04-12T11:57:31Z</time></trkpt><trkpt lat="41.38652105589297" lon="13.97476763950406"><ele>201.66666666666666</ele><time>2026-04-12T11:57:32Z</time></trkpt><trkpt lat="41.38661180327545" lon="13.974952820934163"><ele>201.33333333333331</ele><time>2026-04-12T11:57:33Z</time></trkpt><trkpt lat="41.38670913829604" lon="13.975123140886671"><ele>201.0</ele><time>2026-04-12T11:57:34Z</time></trkpt><trkpt lat="41.38682119909701" lon="13.975264457812768"><ele>201.0</ele><time>2026-04-12T11:57:35Z</time></trkpt><trkpt lat="41.38697102891415" lon="13.975351581558709"><ele>201.0</ele><time>2026-04-12T11:57:36Z</time></trkpt><trkpt lat="41.38714667507467" lon="13.975393489296394"><ele>201.0</ele><time>2026-04-12T11:57:37Z</time></trkpt><trkpt lat="41.38732169132989" lon="13.975417206048071"><ele>200.33333333333331</ele><time>2026-04-12T11:57:38Z</time></trkpt><trkpt lat="41.38750560153037" lon="13.975433992034956"><ele>199.66666666666666</ele><time>2026-04-12T11:57:39Z</time></trkpt><trkpt lat="41.387691607568954" lon="13.975449511768128"><ele>199.0</ele><time>2026-04-12T11:57:40Z</time></trkpt><trkpt lat="41.38787765103082" lon="13.975469786772713"><ele>198.66666666666666</ele><time>2026-04-12T11:57:41Z</time></trkpt><trkpt lat="41.38806806868368" lon="13.975490925491265"><ele>198.33333333333331</ele><time>2026-04-12T11:57:42Z</time></trkpt><trkpt lat="41.388253279031254" lon="13.975520828343056"><ele>198.0</ele><time>2026-04-12T11:57:43Z</time></trkpt><trkpt lat="41.38842417055338" lon="13.975583692912078"><ele>198.0</ele><time>2026-04-12T11:57:44Z</time></trkpt><trkpt lat="41.3885950778434" lon="13.9756603115794"><ele>198.0</ele><time>2026-04-12T11:57:45Z</time></trkpt><trkpt lat="41.38877462545718" lon="13.975744057126043"><ele>198.0</ele><time>2026-04-12T11:57:46Z</time></trkpt><trkpt lat="41.388972759126645" lon="13.975816549791015"><ele>195.66666666666666</ele><time>2026-04-12T11:57:47Z</time></trkpt><trkpt lat="41.38915418051385" lon="13.975870784071974"><ele>193.33333333333331</ele><time>2026-04-12T11:57:48Z</time></trkpt><trkpt lat="41.38933865405327" lon="13.975918919693816"><ele>191.0</ele><time>2026-04-12T11:57:49Z</time></trkpt><trkpt lat="41.38952488234832" lon="13.975967073342595"><ele>190.33333333333331</ele><time>2026-04-12T11:57:50Z</time></trkpt><trkpt lat="41.389719709931676" lon="13.976019582283033"><ele>189.66666666666666</ele><time>2026-04-12T11:57:51Z</time></trkpt><trkpt lat="41.38990591516811" lon="13.976066755663991"><ele>189.0</ele><time>2026-04-12T11:57:52Z</time></trkpt><trkpt lat="41.3900910686013" lon="13.976114124821127"><ele>189.0</ele><time>2026-04-12T11:57:53Z</time></trkpt><trkpt lat="41.39028376995221" lon="13.976167799141212"><ele>189.0</ele><time>2026-04-12T11:57:54Z</time></trkpt><trkpt lat="41.3904592874989" lon="13.976216686539736"><ele>189.0</ele><time>2026-04-12T11:57:55Z</time></trkpt><trkpt lat="41.390628284415" lon="13.9762608077105"><ele>188.25</ele><time>2026-04-12T11:57:56Z</time></trkpt><trkpt lat="41.39079609719624" lon="13.97630540939179"><ele>187.5</ele><time>2026-04-12T11:57:57Z</time></trkpt><trkpt lat="41.39094080659798" lon="13.976364642984663"><ele>186.75</ele><time>2026-04-12T11:57:58Z</time></trkpt><trkpt lat="41.391039075377385" lon="13.976442422335086"><ele>186.0</ele><time>2026-04-12T11:57:59Z</time></trkpt><trkpt lat="41.39111728060049" lon="13.976538469388224"><ele>186.0</ele><time>2026-04-12T11:58:00Z</time></trkpt><trkpt lat="41.39116842677758" lon="13.976669930585858"><ele>186.0</ele><time>2026-04-12T11:58:01Z</time></trkpt><trkpt lat="41.391227953330294" lon="13.976829365995158"><ele>186.0</ele><time>2026-04-12T11:58:02Z</time></trkpt><trkpt lat="41.39130319238724" lon="13.977034367430416"><ele>186.0</ele><time>2026-04-12T11:58:03Z</time></trkpt><trkpt lat="41.39137927120588" lon="13.977241657145534"><ele>183.8</ele><time>2026-04-12T11:58:04Z</time></trkpt><trkpt lat="41.391437868451185" lon="13.977404600528072"><ele>181.60000000000002</ele><time>2026-04-12T11:58:05Z</time></trkpt><trkpt lat="41.39150021285592" lon="13.977541172065356"><ele>179.4</ele><time>2026-04-12T11:58:06Z</time></trkpt><trkpt lat="41.39153320508837" lon="13.97764296899249"><ele>177.2</ele><time>2026-04-12T11:58:07Z</time></trkpt><trkpt lat="41.39155331213993" lon="13.977732134460163"><ele>175.0</ele><time>2026-04-12T11:58:08Z</time></trkpt><trkpt lat="41.39152777345116" lon="13.977826959312576"><ele>173.5</ele><time>2026-04-12T11:58:09Z</time></trkpt><trkpt lat="41.391459984058734" lon="13.977905540044556"><ele>172.0</ele><time>2026-04-12T11:58:10Z</time></trkpt><trkpt lat="41.391357213459" lon="13.977972061897495"><ele>170.5</ele><time>2026-04-12T11:58:11Z</time></trkpt><trkpt lat="41.391214838737504" lon="13.978006839586575"><ele>169.0</ele><time>2026-04-12T11:58:12Z</time></trkpt><trkpt lat="41.391073023381665" lon="13.978053584541678"><ele>169.0</ele><time>2026-04-12T11:58:13Z</time></trkpt><trkpt lat="41.390935433105064" lon="13.97811399501412"><ele>169.0</ele><time>2026-04-12T11:58:14Z</time></trkpt><trkpt lat="41.390827703818495" lon="13.978164842622158"><ele>169.0</ele><time>2026-04-12T11:58:15Z</time></trkpt><trkpt lat="41.39073341934367" lon="13.978205799584416"><ele>169.0</ele><time>2026-04-12T11:58:16Z</time></trkpt><trkpt lat="41.390670624905155" lon="13.978226779263757"><ele>169.0</ele><time>2026-04-12T11:58:17Z</time></trkpt><trkpt lat="41.39059413346695" lon="13.978269820709942"><ele>167.5</ele><time>2026-04-12T11:58:18Z</time></trkpt><trkpt lat="41.390496314790454" lon="13.978301965631518"><ele>166.0</ele><time>2026-04-12T11:58:20Z</time></trkpt><trkpt lat="41.39039371617817" lon="13.978351238574673"><ele>164.5</ele><time>2026-04-12T11:58:22Z</time></trkpt><trkpt lat="41.39026341560357" lon="13.978152061336306"><ele>163.0</ele><time>2026-04-12T11:58:23Z</time></trkpt><trkpt lat="41.390167474864334" lon="13.978074538813418"><ele>163.0</ele><time>2026-04-12T11:58:24Z</time></trkpt><trkpt lat="41.390073459232596" lon="13.97798146827334"><ele>163.0</ele><time>2026-04-12T11:58:25Z</time></trkpt><trkpt lat="41.389960287350235" lon="13.977873665878263"><ele>163.0</ele><time>2026-04-12T11:58:26Z</time></trkpt><trkpt lat="41.38984877481041" lon="13.977784824976089"><ele>163.0</ele><time>2026-04-12T11:58:27Z</time></trkpt><trkpt lat="41.38971828785075" lon="13.977700575823443"><ele>163.25</ele><time>2026-04-12T11:58:28Z</time></trkpt><trkpt lat="41.389597410374336" lon="13.977659554323026"><ele>163.5</ele><time>2026-04-12T11:58:29Z</time></trkpt><trkpt lat="41.38946578518101" lon="13.977653764989828"><ele>163.75</ele><time>2026-04-12T11:58:30Z</time></trkpt><trkpt lat="41.38936497742469" lon="13.977653745555852"><ele>164.0</ele><time>2026-04-12T11:58:31Z</time></trkpt><trkpt lat="41.38924023114826" lon="13.97767922972893"><ele>164.0</ele><time>2026-04-12T11:58:32Z</time></trkpt><trkpt lat="41.38910446794801" lon="13.977741595221815"><ele>164.0</ele><time>2026-04-12T11:58:33Z</time></trkpt><trkpt lat="41.38898750641471" lon="13.977791098504435"><ele>164.0</ele><time>2026-04-12T11:58:34Z</time></trkpt><trkpt lat="41.38891937242705" lon="13.977777218907143"><ele>164.0</ele><time>2026-04-12T11:58:35Z</time></trkpt><trkpt lat="41.38885334379605" lon="13.977728861475232"><ele>164.0</ele><time>2026-04-12T11:58:36Z</time></trkpt><trkpt lat="41.38875396887482" lon="13.977657919456567"><ele>163.75</ele><time>2026-04-12T11:58:37Z</time></trkpt><trkpt lat="41.38860963316982" lon="13.977597943327781"><ele>163.5</ele><time>2026-04-12T11:58:38Z</time></trkpt><trkpt lat="41.38846250681788" lon="13.977572816607863"><ele>163.25</ele><time>2026-04-12T11:58:39Z</time></trkpt><trkpt lat="41.38831539374104" lon="13.977576574723422"><ele>163.0</ele><time>2026-04-12T11:58:40Z</time></trkpt><trkpt lat="41.3881715999861" lon="13.977579980754065"><ele>163.0</ele><time>2026-04-12T11:58:41Z</time></trkpt><trkpt lat="41.388055879750084" lon="13.977586120404412"><ele>163.0</ele><time>2026-04-12T11:58:42Z</time></trkpt><trkpt lat="41.38794012470687" lon="13.977615762043273"><ele>163.0</ele><time>2026-04-12T11:58:43Z</time></trkpt><trkpt lat="41.38783456402722" lon="13.97766840807029"><ele>163.0</ele><time>2026-04-12T11:58:44Z</time></trkpt><trkpt lat="41.38772994866286" lon="13.977733494874814"><ele>162.66666666666669</ele><time>2026-04-12T11:58:45Z</time></trkpt><trkpt lat="41.38764409140327" lon="13.977782731827864"><ele>162.33333333333334</ele><time>2026-04-12T11:58:46Z</time></trkpt><trkpt lat="41.387579935440066" lon="13.977863550562981"><ele>162.0</ele><time>2026-04-12T11:58:47Z</time></trkpt><trkpt lat="41.38751821708805" lon="13.977950841381801"><ele>161.66666666666666</ele><time>2026-04-12T11:58:48Z</time></trkpt><trkpt lat="41.3874817896447" lon="13.978036720364814"><ele>161.33333333333331</ele><time>2026-04-12T11:58:49Z</time></trkpt><trkpt lat="41.38742311144489" lon="13.978088271077418"><ele>161.0</ele><time>2026-04-12T11:58:50Z</time></trkpt><trkpt lat="41.38729187537315" lon="13.978123468112521"><ele>161.0</ele><time>2026-04-12T11:58:51Z</time></trkpt><trkpt lat="41.3872036888266" lon="13.978123451159423"><ele>161.0</ele><time>2026-04-12T11:58:52Z</time></trkpt><trkpt lat="41.38707933220514" lon="13.978116571492771"><ele>161.0</ele><time>2026-04-12T11:58:53Z</time></trkpt><trkpt lat="41.38696378383582" lon="13.978128635259587"><ele>161.0</ele><time>2026-04-12T11:58:54Z</time></trkpt><trkpt lat="41.38686275203414" lon="13.978138521991303"><ele>161.0</ele><time>2026-04-12T11:58:55Z</time></trkpt><trkpt lat="41.386750965490684" lon="13.978175904408706"><ele>161.20000000000002</ele><time>2026-04-12T11:58:56Z</time></trkpt><trkpt lat="41.38665143124225" lon="13.978250019312133"><ele>161.4</ele><time>2026-04-12T11:58:57Z</time></trkpt><trkpt lat="41.386549584998676" lon="13.978318979223644"><ele>161.6</ele><time>2026-04-12T11:58:58Z</time></trkpt><trkpt lat="41.38646736516997" lon="13.978365855494511"><ele>161.8</ele><time>2026-04-12T11:58:59Z</time></trkpt><trkpt lat="41.386388262312835" lon="13.978396212654404"><ele>162.0</ele><time>2026-04-12T11:59:00Z</time></trkpt><trkpt lat="41.386302341071065" lon="13.978432411367793"><ele>160.5</ele><time>2026-04-12T11:59:01Z</time></trkpt><trkpt lat="41.38622034646969" lon="13.978468513704431"><ele>159.0</ele><time>2026-04-12T11:59:02Z</time></trkpt><trkpt lat="41.38616438935426" lon="13.978514037140384"><ele>157.5</ele><time>2026-04-12T11:59:03Z</time></trkpt><trkpt lat="41.38609686657884" lon="13.978567982581422"><ele>156.0</ele><time>2026-04-12T11:59:04Z</time></trkpt><trkpt lat="41.38605880365012" lon="13.978640490765018"><ele>154.5</ele><time>2026-04-12T11:59:05Z</time></trkpt><trkpt lat="41.38602634817356" lon="13.978727847621444"><ele>153.0</ele><time>2026-04-12T11:59:06Z</time></trkpt><trkpt lat="41.38594517155692" lon="13.978856104618888"><ele>153.0</ele><time>2026-04-12T11:59:08Z</time></trkpt><trkpt lat="41.38583389835315" lon="13.978915048951984"><ele>153.0</ele><time>2026-04-12T11:59:09Z</time></trkpt><trkpt lat="41.385721678023884" lon="13.97899212452366"><ele>153.0</ele><time>2026-04-12T11:59:11Z</time></trkpt><trkpt lat="41.38566972961264" lon="13.979079930189997"><ele>153.0</ele><time>2026-04-12T11:59:12Z</time></trkpt><trkpt lat="41.38559408218851" lon="13.979189942474031"><ele>153.0</ele><time>2026-04-12T11:59:13Z</time></trkpt><trkpt lat="41.38549553428013" lon="13.979290786840641"><ele>150.6</ele><time>2026-04-12T11:59:14Z</time></trkpt><trkpt lat="41.38541936285731" lon="13.979378336579796"><ele>148.20000000000002</ele><time>2026-04-12T11:59:15Z</time></trkpt><trkpt lat="41.3853255245507" lon="13.979431675997452"><ele>145.8</ele><time>2026-04-12T11:59:16Z</time></trkpt><trkpt lat="41.38525515623599" lon="13.979444390925186"><ele>143.4</ele><time>2026-04-12T11:59:17Z</time></trkpt><trkpt lat="41.38514099414635" lon="13.979407309986998"><ele>141.0</ele><time>2026-04-12T11:59:19Z</time></trkpt><trkpt lat="41.38505544186644" lon="13.979427833257903"><ele>141.0</ele><time>2026-04-12T11:59:21Z</time></trkpt><trkpt lat="41.38493157466218" lon="13.979447040088145"><ele>141.0</ele><time>2026-04-12T11:59:22Z</time></trkpt><trkpt lat="41.38482600398772" lon="13.979439680787294"><ele>141.0</ele><time>2026-04-12T11:59:23Z</time></trkpt><trkpt lat="41.38473765039549" lon="13.979427360564376"><ele>141.0</ele><time>2026-04-12T11:59:27Z</time></trkpt><trkpt lat="41.384658215602514" lon="13.979440371475008"><ele>141.0</ele><time>2026-04-12T11:59:31Z</time></trkpt><trkpt lat="41.38449044552241" lon="13.979466862512348"><ele>142.25</ele><time>2026-04-12T11:59:37Z</time></trkpt><trkpt lat="41.384261645198734" lon="13.979444796283852"><ele>143.5</ele><time>2026-04-12T12:00:50Z</time></trkpt><trkpt lat="41.38416763829158" lon="13.979431991197963"><ele>144.75</ele><time>2026-04-12T12:00:52Z</time></trkpt><trkpt lat="41.38408383393586" lon="13.979456476426085"><ele>146.0</ele><time>2026-04-12T12:00:55Z</time></trkpt><trkpt lat="41.38401794687016" lon="13.979380597055414"><ele>146.0</ele><time>2026-04-12T12:00:58Z</time></trkpt><trkpt lat="41.38394921574828" lon="13.9793282749807"><ele>146.0</ele><time>2026-04-12T12:00:59Z</time></trkpt><trkpt lat="41.38383385531338" lon="13.979386935574906"><ele>146.0</ele><time>2026-04-12T12:01:02Z</time></trkpt><trkpt lat="41.38371501360687" lon="13.979492105248745"><ele>146.0</ele><time>2026-04-12T12:01:03Z</time></trkpt><trkpt lat="41.38365662861213" lon="13.979551373858119"><ele>146.0</ele><time>2026-04-12T12:01:04Z</time></trkpt><trkpt lat="41.38336141131438" lon="13.979508269107244"><ele>148.0</ele><time>2026-04-12T12:01:07Z</time></trkpt><trkpt lat="41.3831488620333" lon="13.979433693560066"><ele>150.0</ele><time>2026-04-12T12:01:08Z</time></trkpt><trkpt lat="41.38298061066328" lon="13.979353529382747"><ele>152.0</ele><time>2026-04-12T12:01:09Z</time></trkpt><trkpt lat="41.3828331295952" lon="13.979227079609743"><ele>153.2</ele><time>2026-04-12T12:01:10Z</time></trkpt><trkpt lat="41.38274879576366" lon="13.979148241613876"><ele>154.39999999999998</ele><time>2026-04-12T12:01:11Z</time></trkpt><trkpt lat="41.38270396311679" lon="13.979083716445485"><ele>155.60000000000002</ele><time>2026-04-12T12:01:12Z</time></trkpt><trkpt lat="41.38268476450587" lon="13.978904324194273"><ele>156.8</ele><time>2026-04-12T12:01:14Z</time></trkpt><trkpt lat="41.382657832902424" lon="13.978765305585647"><ele>158.0</ele><time>2026-04-12T12:01:15Z</time></trkpt><trkpt lat="41.382612070190746" lon="13.978640066306918"><ele>158.0</ele><time>2026-04-12T12:01:16Z</time></trkpt><trkpt lat="41.38253186364977" lon="13.978497569407"><ele>158.0</ele><time>2026-04-12T12:01:17Z</time></trkpt><trkpt lat="41.3824378895589" lon="13.978394168833892"><ele>158.0</ele><time>2026-04-12T12:01:18Z</time></trkpt><trkpt lat="41.3823668262677" lon="13.978355926211057"><ele>158.0</ele><time>2026-04-12T12:01:19Z</time></trkpt><trkpt lat="41.38228894366022" lon="13.978338165364487"><ele>158.0</ele><time>2026-04-12T12:01:20Z</time></trkpt><trkpt lat="41.382193814135256" lon="13.978273817304911"><ele>159.8</ele><time>2026-04-12T12:01:21Z</time></trkpt><trkpt lat="41.38208668646481" lon="13.978154589946351"><ele>161.60000000000002</ele><time>2026-04-12T12:01:22Z</time></trkpt><trkpt lat="41.381986715317375" lon="13.978043151245174"><ele>163.39999999999998</ele><time>2026-04-12T12:01:23Z</time></trkpt><trkpt lat="41.381914754238586" lon="13.978006765023427"><ele>165.2</ele><time>2026-04-12T12:01:24Z</time></trkpt><trkpt lat="41.381853972093296" lon="13.97803502634659"><ele>167.0</ele><time>2026-04-12T12:01:25Z</time></trkpt><trkpt lat="41.38179802672177" lon="13.978139275183308"><ele>167.0</ele><time>2026-04-12T12:01:26Z</time></trkpt><trkpt lat="41.38176732072247" lon="13.978264390796754"><ele>167.0</ele><time>2026-04-12T12:01:27Z</time></trkpt><trkpt lat="41.381679848901705" lon="13.978379205457376"><ele>167.0</ele><time>2026-04-12T12:01:28Z</time></trkpt><trkpt lat="41.38157706364979" lon="13.97848441939877"><ele>167.0</ele><time>2026-04-12T12:01:29Z</time></trkpt><trkpt lat="41.381523277724185" lon="13.978624197060029"><ele>166.6</ele><time>2026-04-12T12:01:30Z</time></trkpt><trkpt lat="41.38147644468802" lon="13.978730624538777"><ele>166.2</ele><time>2026-04-12T12:01:31Z</time></trkpt><trkpt lat="41.38139249157993" lon="13.978756375166185"><ele>165.8</ele><time>2026-04-12T12:01:35Z</time></trkpt><trkpt lat="41.38130400921315" lon="13.978807183511924"><ele>165.4</ele><time>2026-04-12T12:01:36Z</time></trkpt><trkpt lat="41.38117644472647" lon="13.97886613077618"><ele>165.0</ele><time>2026-04-12T12:01:37Z</time></trkpt><trkpt lat="41.38107860949091" lon="13.978837812467447"><ele>165.0</ele><time>2026-04-12T12:01:39Z</time></trkpt><trkpt lat="41.380990578545976" lon="13.978818724214317"><ele>165.0</ele><time>2026-04-12T12:01:40Z</time></trkpt><trkpt lat="41.380904084388575" lon="13.978877225869153"><ele>165.0</ele><time>2026-04-12T12:01:41Z</time></trkpt><trkpt lat="41.38082183825379" lon="13.97891678068051"><ele>165.0</ele><time>2026-04-12T12:01:42Z</time></trkpt><trkpt lat="41.38074608897554" lon="13.978897485002797"><ele>165.0</ele><time>2026-04-12T12:01:43Z</time></trkpt><trkpt lat="41.38067213005569" lon="13.97884860363784"><ele>165.0</ele><time>2026-04-12T12:01:44Z</time></trkpt><trkpt lat="41.380611222351696" lon="13.97887041954351"><ele>166.0</ele><time>2026-04-12T12:01:45Z</time></trkpt><trkpt lat="41.38049700973822" lon="13.978957550076528"><ele>167.0</ele><time>2026-04-12T12:01:47Z</time></trkpt><trkpt lat="41.38039318055232" lon="13.978963612858987"><ele>168.0</ele><time>2026-04-12T12:01:49Z</time></trkpt><trkpt lat="41.3803070469114" lon="13.97906142597895"><ele>169.0</ele><time>2026-04-12T12:01:51Z</time></trkpt><trkpt lat="41.38024569690943" lon="13.979100325004259"><ele>170.0</ele><time>2026-04-12T12:01:52Z</time></trkpt><trkpt lat="41.380141759984824" lon="13.979175033674672"><ele>169.33333333333331</ele><time>2026-04-12T12:01:54Z</time></trkpt><trkpt lat="41.38008970041745" lon="13.979274090429051"><ele>168.66666666666666</ele><time>2026-04-12T12:01:58Z</time></trkpt><trkpt lat="41.38002819165835" lon="13.979394193789474"><ele>168.0</ele><time>2026-04-12T12:02:00Z</time></trkpt><trkpt lat="41.37995917078742" lon="13.979385151030066"><ele>167.33333333333334</ele><time>2026-04-12T12:02:02Z</time></trkpt><trkpt lat="41.37987953355659" lon="13.97938412950875"><ele>166.66666666666669</ele><time>2026-04-12T12:02:03Z</time></trkpt><trkpt lat="41.3797853176958" lon="13.979400145713303"><ele>166.0</ele><time>2026-04-12T12:02:04Z</time></trkpt><trkpt lat="41.379650269280425" lon="13.979409326268462"><ele>166.0</ele><time>2026-04-12T12:02:05Z</time></trkpt><trkpt lat="41.379523880354334" lon="13.979377152968246"><ele>166.0</ele><time>2026-04-12T12:02:06Z</time></trkpt><trkpt lat="41.379412016373536" lon="13.979364421967645"><ele>166.0</ele><time>2026-04-12T12:02:07Z</time></trkpt><trkpt lat="41.37931372027934" lon="13.979335164512536"><ele>166.0</ele><time>2026-04-12T12:02:08Z</time></trkpt><trkpt lat="41.379144641072486" lon="13.979363767587591"><ele>166.0</ele><time>2026-04-12T12:02:10Z</time></trkpt><trkpt lat="41.37905806078639" lon="13.97943482302931"><ele>166.0</ele><time>2026-04-12T12:02:11Z</time></trkpt><trkpt lat="41.37900180099273" lon="13.979542969507225"><ele>166.0</ele><time>2026-04-12T12:02:13Z</time></trkpt><trkpt lat="41.37892471376183" lon="13.97954808072324"><ele>166.0</ele><time>2026-04-12T12:02:14Z</time></trkpt><trkpt lat="41.37883891561874" lon="13.979460257125503"><ele>166.0</ele><time>2026-04-12T12:02:17Z</time></trkpt><trkpt lat="41.37876758232262" lon="13.979406540312729"><ele>166.66666666666669</ele><time>2026-04-12T12:02:20Z</time></trkpt><trkpt lat="41.378728280565596" lon="13.979323610734314"><ele>167.33333333333334</ele><time>2026-04-12T12:02:23Z</time></trkpt><trkpt lat="41.37866271706827" lon="13.979349335854758"><ele>168.0</ele><time>2026-04-12T12:02:25Z</time></trkpt><trkpt lat="41.37859094183824" lon="13.979432405799667"><ele>168.66666666666666</ele><time>2026-04-12T12:02:27Z</time></trkpt><trkpt lat="41.37850635838244" lon="13.979346696710873"><ele>169.33333333333331</ele><time>2026-04-12T12:02:29Z</time></trkpt><trkpt lat="41.37845500232052" lon="13.979293303767315"><ele>170.0</ele><time>2026-04-12T12:02:31Z</time></trkpt><trkpt lat="41.378377900494655" lon="13.979211612519753"><ele>170.0</ele><time>2026-04-12T12:02:32Z</time></trkpt><trkpt lat="41.378224649982776" lon="13.979192622359717"><ele>170.0</ele><time>2026-04-12T12:02:33Z</time></trkpt><trkpt lat="41.377600404924394" lon="13.979072334285199"><ele>170.66666666666666</ele><time>2026-04-12T12:02:34Z</time></trkpt><trkpt lat="41.37738516927175" lon="13.979001938760113"><ele>171.33333333333334</ele><time>2026-04-12T12:02:35Z</time></trkpt><trkpt lat="41.377224503598306" lon="13.978934920544033"><ele>172.0</ele><time>2026-04-12T12:02:36Z</time></trkpt><trkpt lat="41.377124242382855" lon="13.978862235601175"><ele>172.5</ele><time>2026-04-12T12:02:37Z</time></trkpt><trkpt lat="41.37706766192521" lon="13.978762018568725"><ele>173.0</ele><time>2026-04-12T12:02:38Z</time></trkpt><trkpt lat="41.37709385168543" lon="13.978612232335061"><ele>173.5</ele><time>2026-04-12T12:02:39Z</time></trkpt><trkpt lat="41.37699337922997" lon="13.97876654257946"><ele>174.0</ele><time>2026-04-12T12:02:42Z</time></trkpt><trkpt lat="41.37684416047661" lon="13.978737185833127"><ele>174.0</ele><time>2026-04-12T12:02:43Z</time></trkpt><trkpt lat="41.37669203188404" lon="13.978705040019808"><ele>174.0</ele><time>2026-04-12T12:02:44Z</time></trkpt><trkpt lat="41.37657805548384" lon="13.978701170914306"><ele>174.0</ele><time>2026-04-12T12:02:45Z</time></trkpt><trkpt lat="41.376510306056346" lon="13.97875626399411"><ele>174.0</ele><time>2026-04-12T12:02:47Z</time></trkpt><trkpt lat="41.376548305074934" lon="13.978897006251222"><ele>174.0</ele><time>2026-04-12T12:02:50Z</time></trkpt><trkpt lat="41.3766172395567" lon="13.978925009800017"><ele>174.0</ele><time>2026-04-12T12:02:51Z</time></trkpt><trkpt lat="41.37672678600552" lon="13.978973329786879"><ele>174.0</ele><time>2026-04-12T12:02:55Z</time></trkpt><trkpt lat="41.3766574201257" lon="13.978990485789064"><ele>174.0</ele><time>2026-04-12T12:02:57Z</time></trkpt><trkpt lat="41.376581121073656" lon="13.978930076213379"><ele>174.0</ele><time>2026-04-12T12:02:58Z</time></trkpt><trkpt lat="41.37650562724241" lon="13.978855947020921"><ele>174.0</ele><time>2026-04-12T12:03:00Z</time></trkpt><trkpt lat="41.37642620876708" lon="13.978890273777596"><ele>177.79999999999998</ele><time>2026-04-12T12:03:03Z</time></trkpt><trkpt lat="41.37633125589014" lon="13.978833763738185"><ele>181.6</ele><time>2026-04-12T12:03:05Z</time></trkpt><trkpt lat="41.37629705706765" lon="13.978923207984893"><ele>185.4</ele><time>2026-04-12T12:03:07Z</time></trkpt><trkpt lat="41.376263056941475" lon="13.979022170836894"><ele>189.2</ele><time>2026-04-12T12:03:09Z</time></trkpt><trkpt lat="41.37619018223467" lon="13.979042654443257"><ele>193.0</ele><time>2026-04-12T12:03:12Z</time></trkpt><trkpt lat="41.37593109452786" lon="13.979029257765488"><ele>193.0</ele><time>2026-04-12T12:03:14Z</time></trkpt><trkpt lat="41.37616699147993" lon="13.979021634607747"><ele>193.0</ele><time>2026-04-12T12:03:15Z</time></trkpt><trkpt lat="41.37610492762482" lon="13.978943907857566"><ele>193.0</ele><time>2026-04-12T12:03:17Z</time></trkpt><trkpt lat="41.376024727802864" lon="13.978955465087934"><ele>193.0</ele><time>2026-04-12T12:03:18Z</time></trkpt><trkpt lat="41.37594406250274" lon="13.979014976701546"><ele>192.99999999999997</ele><time>2026-04-12T12:03:20Z</time></trkpt><trkpt lat="41.37586573919647" lon="13.979067155292036"><ele>193.0</ele><time>2026-04-12T12:03:22Z</time></trkpt><trkpt lat="41.37577706633226" lon="13.979117519511034"><ele>193.0</ele><time>2026-04-12T12:03:24Z</time></trkpt><trkpt lat="41.37575682617374" lon="13.97919978081801"><ele>193.0</ele><time>2026-04-12T12:03:26Z</time></trkpt><trkpt lat="41.37581254788696" lon="13.979283673248728"><ele>192.99999999999997</ele><time>2026-04-12T12:03:29Z</time></trkpt><trkpt lat="41.375855309871056" lon="13.979348189068977"><ele>193.0</ele><time>2026-04-12T12:03:32Z</time></trkpt><trkpt lat="41.37593292496723" lon="13.979363249672373"><ele>195.4</ele><time>2026-04-12T12:03:34Z</time></trkpt><trkpt lat="41.37601213103976" lon="13.979417846071337"><ele>197.8</ele><time>2026-04-12T12:03:37Z</time></trkpt><trkpt lat="41.37602843468802" lon="13.979547736378262"><ele>200.2</ele><time>2026-04-12T12:03:39Z</time></trkpt><trkpt lat="41.376087698320056" lon="13.97967296771768"><ele>202.6</ele><time>2026-04-12T12:03:41Z</time></trkpt><trkpt lat="41.37611569403077" lon="13.979785783324006"><ele>205.0</ele><time>2026-04-12T12:03:44Z</time></trkpt><trkpt lat="41.376171976171115" lon="13.979846862893416"><ele>203.0</ele><time>2026-04-12T12:03:46Z</time></trkpt><trkpt lat="41.37647185437001" lon="13.979873184997665"><ele>201.0</ele><time>2026-04-12T12:03:49Z</time></trkpt><trkpt lat="41.376598764113965" lon="13.979947325761419"><ele>199.0</ele><time>2026-04-12T12:03:50Z</time></trkpt><trkpt lat="41.37672515061167" lon="13.980044257347293"><ele>199.0</ele><time>2026-04-12T12:03:51Z</time></trkpt><trkpt lat="41.376841346808874" lon="13.980135314884603"><ele>199.0</ele><time>2026-04-12T12:03:52Z</time></trkpt><trkpt lat="41.37692547057375" lon="13.980208777918712"><ele>199.0</ele><time>2026-04-12T12:03:53Z</time></trkpt><trkpt lat="41.37695348884943" lon="13.980319708201218"><ele>199.0</ele><time>2026-04-12T12:03:56Z</time></trkpt><trkpt lat="41.37700031750456" lon="13.980387323637256"><ele>199.0</ele><time>2026-04-12T12:03:58Z</time></trkpt><trkpt lat="41.376984588466065" lon="13.980486630191239"><ele>199.0</ele><time>2026-04-12T12:04:00Z</time></trkpt><trkpt lat="41.376958559991664" lon="13.980568849086588"><ele>199.0</ele><time>2026-04-12T12:04:05Z</time></trkpt><trkpt lat="41.37688757668509" lon="13.980577999234793"><ele>199.0</ele><time>2026-04-12T12:04:07Z</time></trkpt><trkpt lat="41.376839730372375" lon="13.980492408251282"><ele>199.0</ele><time>2026-04-12T12:04:09Z</time></trkpt><trkpt lat="41.376223969562645" lon="13.98042632650619"><ele>200.0</ele><time>2026-04-12T12:04:11Z</time></trkpt><trkpt lat="41.3761049320111" lon="13.980389003512542"><ele>201.0</ele><time>2026-04-12T12:04:12Z</time></trkpt><trkpt lat="41.37599339814261" lon="13.980376873236747"><ele>202.0</ele><time>2026-04-12T12:04:13Z</time></trkpt><trkpt lat="41.37591977078473" lon="13.98034524657136"><ele>203.0</ele><time>2026-04-12T12:04:15Z</time></trkpt><trkpt lat="41.375961640934385" lon="13.980248174604768"><ele>204.0</ele><time>2026-04-12T12:04:16Z</time></trkpt><trkpt lat="41.37592220513702" lon="13.980178137109496"><ele>204.0</ele><time>2026-04-12T12:04:17Z</time></trkpt><trkpt lat="41.375823173582965" lon="13.980027567510646"><ele>204.0</ele><time>2026-04-12T12:04:18Z</time></trkpt><trkpt lat="41.37574576822358" lon="13.97991685788234"><ele>204.0</ele><time>2026-04-12T12:04:19Z</time></trkpt><trkpt lat="41.37568669756943" lon="13.979860861980617"><ele>204.0</ele><time>2026-04-12T12:04:20Z</time></trkpt><trkpt lat="41.37557186065109" lon="13.979836749002688"><ele>207.0</ele><time>2026-04-12T12:04:22Z</time></trkpt><trkpt lat="41.37543400757723" lon="13.979856095338146"><ele>210.0</ele><time>2026-04-12T12:04:23Z</time></trkpt><trkpt lat="41.375370308942124" lon="13.979828808603346"><ele>212.99999999999997</ele><time>2026-04-12T12:04:24Z</time></trkpt><trkpt lat="41.37526372387226" lon="13.97982148539774"><ele>216.0</ele><time>2026-04-12T12:04:25Z</time></trkpt><trkpt lat="41.375167552299835" lon="13.97985195391245"><ele>219.0</ele><time>2026-04-12T12:04:26Z</time></trkpt><trkpt lat="41.37505413838596" lon="13.979913521437956"><ele>219.0</ele><time>2026-04-12T12:04:27Z</time></trkpt><trkpt lat="41.374968203797756" lon="13.979908680565803"><ele>218.99999999999997</ele><time>2026-04-12T12:04:28Z</time></trkpt><trkpt lat="41.374900931290114" lon="13.97990385525728"><ele>218.99999999999997</ele><time>2026-04-12T12:04:29Z</time></trkpt><trkpt lat="41.37498043535798" lon="13.97996681752372"><ele>219.0</ele><time>2026-04-12T12:04:30Z</time></trkpt><trkpt lat="41.37513174847393" lon="13.979963381145925"><ele>219.0</ele><time>2026-04-12T12:04:31Z</time></trkpt><trkpt lat="41.37522964456251" lon="13.98003618242595"><ele>216.5</ele><time>2026-04-12T12:04:33Z</time></trkpt><trkpt lat="41.3754007238269" lon="13.980069772868575"><ele>214.0</ele><time>2026-04-12T12:04:35Z</time></trkpt><trkpt lat="41.37549897296266" lon="13.980096067789226"><ele>211.5</ele><time>2026-04-12T12:04:36Z</time></trkpt><trkpt lat="41.37560064582532" lon="13.980137036434048"><ele>209.0</ele><time>2026-04-12T12:04:37Z</time></trkpt><trkpt lat="41.37569131194108" lon="13.980197873129267"><ele>208.0</ele><time>2026-04-12T12:04:38Z</time></trkpt><trkpt lat="41.37577160411743" lon="13.980273420451786"><ele>207.0</ele><time>2026-04-12T12:04:40Z</time></trkpt><trkpt lat="41.37575752093947" lon="13.9804182385685"><ele>206.0</ele><time>2026-04-12T12:04:42Z</time></trkpt><trkpt lat="41.37571431581252" lon="13.98050986505686"><ele>205.0</ele><time>2026-04-12T12:04:43Z</time></trkpt><trkpt lat="41.37568992960816" lon="13.980604883661556"><ele>204.0</ele><time>2026-04-12T12:04:44Z</time></trkpt><trkpt lat="41.37570853077094" lon="13.980742805327836"><ele>204.0</ele><time>2026-04-12T12:04:46Z</time></trkpt><trkpt lat="41.37580636186389" lon="13.980754184138533"><ele>204.0</ele><time>2026-04-12T12:04:49Z</time></trkpt><trkpt lat="41.37587444228843" lon="13.980767156559775"><ele>204.0</ele><time>2026-04-12T12:04:51Z</time></trkpt><trkpt lat="41.375940993867296" lon="13.980805004759473"><ele>204.0</ele><time>2026-04-12T12:04:53Z</time></trkpt><trkpt lat="41.376122042767555" lon="13.980806804927605"><ele>204.0</ele><time>2026-04-12T12:04:56Z</time></trkpt><trkpt lat="41.376213637511874" lon="13.980925274064669"><ele>201.5</ele><time>2026-04-12T12:04:57Z</time></trkpt><trkpt lat="41.376268565270635" lon="13.980979770520078"><ele>199.0</ele><time>2026-04-12T12:04:58Z</time></trkpt><trkpt lat="41.37662391232939" lon="13.981324240597454"><ele>197.25</ele><time>2026-04-12T12:04:59Z</time></trkpt><trkpt lat="41.376735331689865" lon="13.98148286312425"><ele>195.5</ele><time>2026-04-12T12:05:00Z</time></trkpt><trkpt lat="41.376858110752316" lon="13.98159576436192"><ele>193.75</ele><time>2026-04-12T12:05:01Z</time></trkpt><trkpt lat="41.37695593339709" lon="13.981675728381923"><ele>192.0</ele><time>2026-04-12T12:05:02Z</time></trkpt><trkpt lat="41.37704212995279" lon="13.981796290389191"><ele>190.0</ele><time>2026-04-12T12:05:03Z</time></trkpt><trkpt lat="41.37709584251557" lon="13.981880802006213"><ele>188.0</ele><time>2026-04-12T12:05:04Z</time></trkpt><trkpt lat="41.377171884009236" lon="13.98199127126914"><ele>186.0</ele><time>2026-04-12T12:05:05Z</time></trkpt><trkpt lat="41.37725936452088" lon="13.982057854317251"><ele>184.0</ele><time>2026-04-12T12:05:06Z</time></trkpt><trkpt lat="41.37732915140917" lon="13.982109929305166"><ele>182.0</ele><time>2026-04-12T12:05:07Z</time></trkpt><trkpt lat="41.377398995424876" lon="13.982155585070592"><ele>182.0</ele><time>2026-04-12T12:05:08Z</time></trkpt><trkpt lat="41.37746454406887" lon="13.982203679212859"><ele>182.0</ele><time>2026-04-12T12:05:09Z</time></trkpt><trkpt lat="41.37748856794069" lon="13.98229609346462"><ele>182.0</ele><time>2026-04-12T12:05:10Z</time></trkpt><trkpt lat="41.37748523338101" lon="13.982429632242843"><ele>182.0</ele><time>2026-04-12T12:05:11Z</time></trkpt><trkpt lat="41.377537605131096" lon="13.982521851109839"><ele>182.0</ele><time>2026-04-12T12:05:12Z</time></trkpt><trkpt lat="41.3775763578634" lon="13.982649146236568"><ele>182.0</ele><time>2026-04-12T12:05:13Z</time></trkpt><trkpt lat="41.37761457108675" lon="13.98272042526376"><ele>181.16666666666666</ele><time>2026-04-12T12:05:14Z</time></trkpt><trkpt lat="41.37767900186503" lon="13.982769926109867"><ele>180.33333333333331</ele><time>2026-04-12T12:05:15Z</time></trkpt><trkpt lat="41.37773043766901" lon="13.982825311727229"><ele>179.5</ele><time>2026-04-12T12:05:16Z</time></trkpt><trkpt lat="41.37777507500276" lon="13.982914828920958"><ele>178.66666666666666</ele><time>2026-04-12T12:05:17Z</time></trkpt><trkpt lat="41.3778262072474" lon="13.982981507171276"><ele>177.83333333333334</ele><time>2026-04-12T12:05:18Z</time></trkpt><trkpt lat="41.37796732163657" lon="13.98303546821914"><ele>177.0</ele><time>2026-04-12T12:05:20Z</time></trkpt><trkpt lat="41.37807444512114" lon="13.983056852456869"><ele>177.0</ele><time>2026-04-12T12:05:21Z</time></trkpt><trkpt lat="41.378158928562954" lon="13.983085374475015"><ele>177.0</ele><time>2026-04-12T12:05:22Z</time></trkpt><trkpt lat="41.37824464971651" lon="13.983142726031561"><ele>177.0</ele><time>2026-04-12T12:05:24Z</time></trkpt><trkpt lat="41.37830993260938" lon="13.983107887402877"><ele>177.0</ele><time>2026-04-12T12:05:26Z</time></trkpt><trkpt lat="41.37840146942545" lon="13.983073507805752"><ele>177.0</ele><time>2026-04-12T12:05:27Z</time></trkpt><trkpt lat="41.37847543185377" lon="13.983039823588706"><ele>177.0</ele><time>2026-04-12T12:05:28Z</time></trkpt><trkpt lat="41.3785807297137" lon="13.983016711906622"><ele>177.0</ele><time>2026-04-12T12:05:30Z</time></trkpt><trkpt lat="41.37864467966693" lon="13.983034858825715"><ele>177.0</ele><time>2026-04-12T12:05:31Z</time></trkpt><trkpt lat="41.37856866083861" lon="13.983005831401927"><ele>177.0</ele><time>2026-04-12T12:05:32Z</time></trkpt><trkpt lat="41.37864521960072" lon="13.982998374573196"><ele>177.0</ele><time>2026-04-12T12:05:34Z</time></trkpt><trkpt lat="41.37919308410342" lon="13.98341480016099"><ele>181.5</ele><time>2026-04-12T12:05:37Z</time></trkpt><trkpt lat="41.37931687782814" lon="13.983483972152323"><ele>186.0</ele><time>2026-04-12T12:05:38Z</time></trkpt><trkpt lat="41.379434362041145" lon="13.983517833337872"><ele>190.5</ele><time>2026-04-12T12:05:39Z</time></trkpt><trkpt lat="41.379570542333894" lon="13.983511830565389"><ele>195.0</ele><time>2026-04-12T12:05:40Z</time></trkpt><trkpt lat="41.37965352303099" lon="13.983415689530279"><ele>194.5</ele><time>2026-04-12T12:05:41Z</time></trkpt><trkpt lat="41.37973886086358" lon="13.98336484887598"><ele>194.0</ele><time>2026-04-12T12:05:42Z</time></trkpt><trkpt lat="41.37983109652396" lon="13.983360277770638"><ele>193.5</ele><time>2026-04-12T12:05:43Z</time></trkpt><trkpt lat="41.3798972257056" lon="13.983347108429106"><ele>193.0</ele><time>2026-04-12T12:05:44Z</time></trkpt><trkpt lat="41.379981401991074" lon="13.983331376866811"><ele>192.5</ele><time>2026-04-12T12:05:45Z</time></trkpt><trkpt lat="41.38007285921976" lon="13.983411875525942"><ele>192.0</ele><time>2026-04-12T12:05:46Z</time></trkpt><trkpt lat="41.380134187977475" lon="13.983480423024956"><ele>192.0</ele><time>2026-04-12T12:05:47Z</time></trkpt><trkpt lat="41.38020238981501" lon="13.983554692449514"><ele>192.0</ele><time>2026-04-12T12:05:48Z</time></trkpt><trkpt lat="41.380273924948646" lon="13.983611893045916"><ele>192.0</ele><time>2026-04-12T12:05:49Z</time></trkpt><trkpt lat="41.38035982846157" lon="13.983658949268126"><ele>192.0</ele><time>2026-04-12T12:05:50Z</time></trkpt><trkpt lat="41.3804267039698" lon="13.983685429573045"><ele>192.0</ele><time>2026-04-12T12:05:51Z</time></trkpt><trkpt lat="41.38057445968377" lon="13.983803625475273"><ele>191.2</ele><time>2026-04-12T12:05:52Z</time></trkpt><trkpt lat="41.38066582684574" lon="13.983919867435828"><ele>190.39999999999998</ele><time>2026-04-12T12:05:53Z</time></trkpt><trkpt lat="41.38073404774874" lon="13.984005142258935"><ele>189.60000000000002</ele><time>2026-04-12T12:05:54Z</time></trkpt><trkpt lat="41.38078798863565" lon="13.983908021421831"><ele>188.8</ele><time>2026-04-12T12:05:55Z</time></trkpt><trkpt lat="41.380852038086445" lon="13.983947028677028"><ele>188.0</ele><time>2026-04-12T12:05:56Z</time></trkpt><trkpt lat="41.380950979561185" lon="13.984056441901576"><ele>188.0</ele><time>2026-04-12T12:05:58Z</time></trkpt><trkpt lat="41.38103709922992" lon="13.984099692294098"><ele>188.0</ele><time>2026-04-12T12:05:59Z</time></trkpt><trkpt lat="41.38113132895201" lon="13.984238909058364"><ele>188.0</ele><time>2026-04-12T12:06:00Z</time></trkpt><trkpt lat="41.38121318861244" lon="13.984413656982927"><ele>188.0</ele><time>2026-04-12T12:06:01Z</time></trkpt><trkpt lat="41.38132289639961" lon="13.984480958193522"><ele>189.4</ele><time>2026-04-12T12:06:02Z</time></trkpt><trkpt lat="41.38143476149716" lon="13.984585975376977"><ele>190.8</ele><time>2026-04-12T12:06:03Z</time></trkpt><trkpt lat="41.38151269849777" lon="13.984653808579118"><ele>192.2</ele><time>2026-04-12T12:06:04Z</time></trkpt><trkpt lat="41.38156865200748" lon="13.984755452514884"><ele>193.6</ele><time>2026-04-12T12:06:05Z</time></trkpt><trkpt lat="41.38164862037399" lon="13.984858714740191"><ele>195.0</ele><time>2026-04-12T12:06:06Z</time></trkpt><trkpt lat="41.381749034610024" lon="13.984949639705322"><ele>195.0</ele><time>2026-04-12T12:06:07Z</time></trkpt><trkpt lat="41.381863174741525" lon="13.984988973460162"><ele>195.0</ele><time>2026-04-12T12:06:08Z</time></trkpt><trkpt lat="41.381954262986355" lon="13.985033768370263"><ele>195.0</ele><time>2026-04-12T12:06:09Z</time></trkpt><trkpt lat="41.38201569509627" lon="13.985107086323595"><ele>195.0</ele><time>2026-04-12T12:06:10Z</time></trkpt><trkpt lat="41.382064529265406" lon="13.985207738856715"><ele>195.0</ele><time>2026-04-12T12:06:11Z</time></trkpt><trkpt lat="41.38210214298273" lon="13.98530962241649"><ele>196.2</ele><time>2026-04-12T12:06:12Z</time></trkpt><trkpt lat="41.382169571835604" lon="13.985327433776591"><ele>197.4</ele><time>2026-04-12T12:06:13Z</time></trkpt><trkpt lat="41.38222990279032" lon="13.98535536435277"><ele>198.60000000000002</ele><time>2026-04-12T12:06:14Z</time></trkpt><trkpt lat="41.382429708611326" lon="13.98542341296504"><ele>199.8</ele><time>2026-04-12T12:06:16Z</time></trkpt><trkpt lat="41.3825082039274" lon="13.985454562068846"><ele>201.0</ele><time>2026-04-12T12:06:17Z</time></trkpt><trkpt lat="41.38259735763471" lon="13.985538254914678"><ele>201.0</ele><time>2026-04-12T12:06:19Z</time></trkpt><trkpt lat="41.38271245669199" lon="13.985658477551276"><ele>201.0</ele><time>2026-04-12T12:06:20Z</time></trkpt><trkpt lat="41.38278783575902" lon="13.985747273294631"><ele>201.0</ele><time>2026-04-12T12:06:21Z</time></trkpt><trkpt lat="41.38290517142295" lon="13.985862334239243"><ele>201.0</ele><time>2026-04-12T12:06:22Z</time></trkpt><trkpt lat="41.382983945992166" lon="13.985964784799537"><ele>200.8</ele><time>2026-04-12T12:06:23Z</time></trkpt><trkpt lat="41.3830775471559" lon="13.986038080713755"><ele>200.60000000000002</ele><time>2026-04-12T12:06:24Z</time></trkpt><trkpt lat="41.383167287821834" lon="13.986098159536182"><ele>200.4</ele><time>2026-04-12T12:06:25Z</time></trkpt><trkpt lat="41.383226949165675" lon="13.986138618536945"><ele>200.2</ele><time>2026-04-12T12:06:26Z</time></trkpt><trkpt lat="41.383294364761696" lon="13.986229339756308"><ele>200.0</ele><time>2026-04-12T12:06:27Z</time></trkpt><trkpt lat="41.383356363828035" lon="13.986314631320823"><ele>200.0</ele><time>2026-04-12T12:06:28Z</time></trkpt><trkpt lat="41.3834108336362" lon="13.986440235980087"><ele>200.0</ele><time>2026-04-12T12:06:29Z</time></trkpt><trkpt lat="41.38348709153985" lon="13.986561080485625"><ele>200.0</ele><time>2026-04-12T12:06:30Z</time></trkpt><trkpt lat="41.38356730554812" lon="13.986656658495228"><ele>200.0</ele><time>2026-04-12T12:06:31Z</time></trkpt><trkpt lat="41.38361158620444" lon="13.986728416562205"><ele>200.0</ele><time>2026-04-12T12:06:32Z</time></trkpt><trkpt lat="41.38366866268742" lon="13.986797804884402"><ele>200.5</ele><time>2026-04-12T12:06:33Z</time></trkpt><trkpt lat="41.383770622090005" lon="13.98692462333217"><ele>201.0</ele><time>2026-04-12T12:06:35Z</time></trkpt><trkpt lat="41.38360289158661" lon="13.986877140484188"><ele>201.5</ele><time>2026-04-12T12:06:40Z</time></trkpt><trkpt lat="41.383487031657886" lon="13.986858855702335"><ele>202.0</ele><time>2026-04-12T12:06:41Z</time></trkpt><trkpt lat="41.38339205354032" lon="13.986851877392596"><ele>202.0</ele><time>2026-04-12T12:06:42Z</time></trkpt><trkpt lat="41.383326967800784" lon="13.986854499245235"><ele>202.0</ele><time>2026-04-12T12:06:43Z</time></trkpt><trkpt lat="41.38325931470768" lon="13.986925133467945"><ele>202.0</ele><time>2026-04-12T12:06:45Z</time></trkpt><trkpt lat="41.38326290990623" lon="13.987098336753935"><ele>202.0</ele><time>2026-04-12T12:06:47Z</time></trkpt><trkpt lat="41.38328899945134" lon="13.987248478123012"><ele>202.0</ele><time>2026-04-12T12:06:48Z</time></trkpt><trkpt lat="41.383268009486294" lon="13.9874062156566"><ele>201.2</ele><time>2026-04-12T12:06:49Z</time></trkpt><trkpt lat="41.38328274334291" lon="13.987570422944163"><ele>200.39999999999998</ele><time>2026-04-12T12:06:50Z</time></trkpt><trkpt lat="41.38329790230403" lon="13.987732742753334"><ele>199.60000000000002</ele><time>2026-04-12T12:06:51Z</time></trkpt><trkpt lat="41.383311228209976" lon="13.987869543793092"><ele>198.8</ele><time>2026-04-12T12:06:52Z</time></trkpt><trkpt lat="41.38333200353922" lon="13.987994980046405"><ele>198.0</ele><time>2026-04-12T12:06:53Z</time></trkpt><trkpt lat="41.38337094749094" lon="13.988110769185745"><ele>198.0</ele><time>2026-04-12T12:06:54Z</time></trkpt><trkpt lat="41.38338699824686" lon="13.988206662581891"><ele>198.0</ele><time>2026-04-12T12:06:55Z</time></trkpt><trkpt lat="41.383483333403426" lon="13.98823266953264"><ele>198.0</ele><time>2026-04-12T12:06:56Z</time></trkpt><trkpt lat="41.38344903383348" lon="13.988402652416125"><ele>198.0</ele><time>2026-04-12T12:06:57Z</time></trkpt><trkpt lat="41.38347188987565" lon="13.988528151401677"><ele>198.0</ele><time>2026-04-12T12:06:59Z</time></trkpt><trkpt lat="41.383254462609784" lon="13.988686223806088"><ele>195.75</ele><time>2026-04-12T12:07:00Z</time></trkpt><trkpt lat="41.38317913965138" lon="13.98878058925468"><ele>193.5</ele><time>2026-04-12T12:07:01Z</time></trkpt><trkpt lat="41.383068625452395" lon="13.988911394533025"><ele>191.25</ele><time>2026-04-12T12:07:02Z</time></trkpt><trkpt lat="41.3829827268113" lon="13.989036900469968"><ele>189.0</ele><time>2026-04-12T12:07:03Z</time></trkpt><trkpt lat="41.38292986941712" lon="13.989131501331904"><ele>190.0</ele><time>2026-04-12T12:07:04Z</time></trkpt><trkpt lat="41.38289803887948" lon="13.989262536717737"><ele>191.0</ele><time>2026-04-12T12:07:06Z</time></trkpt><trkpt lat="41.38290392446919" lon="13.989471652644312"><ele>192.0</ele><time>2026-04-12T12:07:08Z</time></trkpt><trkpt lat="41.38290380856241" lon="13.989617996656664"><ele>193.0</ele><time>2026-04-12T12:07:09Z</time></trkpt><trkpt lat="41.382883803519825" lon="13.989729429867754"><ele>193.0</ele><time>2026-04-12T12:07:10Z</time></trkpt><trkpt lat="41.382882445594404" lon="13.989816729092068"><ele>193.0</ele><time>2026-04-12T12:07:11Z</time></trkpt><trkpt lat="41.382967148144324" lon="13.989963967680497"><ele>193.0</ele><time>2026-04-12T12:07:13Z</time></trkpt><trkpt lat="41.38305402111325" lon="13.990035095097932"><ele>193.0</ele><time>2026-04-12T12:07:14Z</time></trkpt><trkpt lat="41.38314152049413" lon="13.990124183544786"><ele>193.0</ele><time>2026-04-12T12:07:15Z</time></trkpt><trkpt lat="41.38323443208663" lon="13.990185017077202"><ele>195.0</ele><time>2026-04-12T12:07:16Z</time></trkpt><trkpt lat="41.3833514380916" lon="13.990304372534736"><ele>197.0</ele><time>2026-04-12T12:07:17Z</time></trkpt><trkpt lat="41.383451574601715" lon="13.990424322619528"><ele>199.0</ele><time>2026-04-12T12:07:18Z</time></trkpt><trkpt lat="41.383518367004214" lon="13.990522217392027"><ele>201.0</ele><time>2026-04-12T12:07:19Z</time></trkpt><trkpt lat="41.38357482496412" lon="13.990648285444859"><ele>201.0</ele><time>2026-04-12T12:07:20Z</time></trkpt><trkpt lat="41.383613852238895" lon="13.990774455247944"><ele>201.0</ele><time>2026-04-12T12:07:21Z</time></trkpt><trkpt lat="41.38364080633591" lon="13.990934857081129"><ele>201.0</ele><time>2026-04-12T12:07:22Z</time></trkpt><trkpt lat="41.383666181306296" lon="13.991078125226542"><ele>201.0</ele><time>2026-04-12T12:07:23Z</time></trkpt><trkpt lat="41.38369737000603" lon="13.991272865860113"><ele>202.4</ele><time>2026-04-12T12:07:24Z</time></trkpt><trkpt lat="41.38371486446632" lon="13.991401458385003"><ele>203.8</ele><time>2026-04-12T12:07:25Z</time></trkpt><trkpt lat="41.38374666027943" lon="13.991584812748668"><ele>205.20000000000002</ele><time>2026-04-12T12:07:26Z</time></trkpt><trkpt lat="41.3837364044562" lon="13.991747825077498"><ele>206.60000000000002</ele><time>2026-04-12T12:07:27Z</time></trkpt><trkpt lat="41.38373627619124" lon="13.9918581690619"><ele>208.0</ele><time>2026-04-12T12:07:28Z</time></trkpt><trkpt lat="41.38369552392997" lon="13.992074130855242"><ele>208.0</ele><time>2026-04-12T12:07:30Z</time></trkpt><trkpt lat="41.383659501169966" lon="13.99220484643893"><ele>208.0</ele><time>2026-04-12T12:07:31Z</time></trkpt><trkpt lat="41.38361562618062" lon="13.992312969653211"><ele>208.0</ele><time>2026-04-12T12:07:32Z</time></trkpt><trkpt lat="41.38356923893801" lon="13.992417115459045"><ele>208.0</ele><time>2026-04-12T12:07:33Z</time></trkpt><trkpt lat="41.38354326635416" lon="13.992509895468897"><ele>208.0</ele><time>2026-04-12T12:07:34Z</time></trkpt><trkpt lat="41.38347990178368" lon="13.992591464411566"><ele>208.60000000000002</ele><time>2026-04-12T12:07:35Z</time></trkpt><trkpt lat="41.38341400602004" lon="13.992668615423765"><ele>209.20000000000002</ele><time>2026-04-12T12:07:36Z</time></trkpt><trkpt lat="41.383523579945766" lon="13.992752772346911"><ele>209.8</ele><time>2026-04-12T12:07:40Z</time></trkpt><trkpt lat="41.383605680833824" lon="13.992833385367085"><ele>210.4</ele><time>2026-04-12T12:07:41Z</time></trkpt><trkpt lat="41.383694717601344" lon="13.992921699045539"><ele>211.0</ele><time>2026-04-12T12:07:42Z</time></trkpt><trkpt lat="41.38377709484699" lon="13.993043642364803"><ele>211.0</ele><time>2026-04-12T12:07:43Z</time></trkpt><trkpt lat="41.38384242494588" lon="13.993181671115053"><ele>211.0</ele><time>2026-04-12T12:07:44Z</time></trkpt><trkpt lat="41.383892127818726" lon="13.993328397043381"><ele>211.0</ele><time>2026-04-12T12:07:45Z</time></trkpt><trkpt lat="41.383930477471054" lon="13.993463817019322"><ele>211.0</ele><time>2026-04-12T12:07:46Z</time></trkpt><trkpt lat="41.38396121843284" lon="13.993597383680799"><ele>207.20000000000002</ele><time>2026-04-12T12:07:47Z</time></trkpt><trkpt lat="41.38398831033568" lon="13.993738157733137"><ele>203.4</ele><time>2026-04-12T12:07:48Z</time></trkpt><trkpt lat="41.3839927493859" lon="13.993863734350917"><ele>199.6</ele><time>2026-04-12T12:07:49Z</time></trkpt><trkpt lat="41.383985620309126" lon="13.99398095455543"><ele>195.8</ele><time>2026-04-12T12:07:50Z</time></trkpt><trkpt lat="41.38395615263541" lon="13.994063152176986"><ele>192.0</ele><time>2026-04-12T12:07:51Z</time></trkpt><trkpt lat="41.38391694919139" lon="13.994183616555924"><ele>197.0</ele><time>2026-04-12T12:07:52Z</time></trkpt><trkpt lat="41.38384078266717" lon="13.994330390233594"><ele>202.0</ele><time>2026-04-12T12:07:53Z</time></trkpt><trkpt lat="41.38376904194866" lon="13.994462265595358"><ele>207.0</ele><time>2026-04-12T12:07:54Z</time></trkpt><trkpt lat="41.38369673078572" lon="13.994577965750443"><ele>212.0</ele><time>2026-04-12T12:07:55Z</time></trkpt><trkpt lat="41.383619968735196" lon="13.994650703226366"><ele>212.0</ele><time>2026-04-12T12:07:56Z</time></trkpt><trkpt lat="41.38354409444116" lon="13.994718676335227"><ele>212.0</ele><time>2026-04-12T12:07:57Z</time></trkpt><trkpt lat="41.383431430600574" lon="13.994771723929425"><ele>212.0</ele><time>2026-04-12T12:07:58Z</time></trkpt><trkpt lat="41.38331034877389" lon="13.994803407707074"><ele>212.0</ele><time>2026-04-12T12:07:59Z</time></trkpt><trkpt lat="41.38318974943735" lon="13.994833499085502"><ele>212.0</ele><time>2026-04-12T12:08:00Z</time></trkpt><trkpt lat="41.38306673942909" lon="13.994846907637173"><ele>212.0</ele><time>2026-04-12T12:08:01Z</time></trkpt><trkpt lat="41.38293538979708" lon="13.994855076689118"><ele>212.0</ele><time>2026-04-12T12:08:02Z</time></trkpt><trkpt lat="41.382792258122336" lon="13.994831241237211"><ele>212.0</ele><time>2026-04-12T12:08:03Z</time></trkpt><trkpt lat="41.38267786056864" lon="13.994811019152547"><ele>214.33333333333334</ele><time>2026-04-12T12:08:04Z</time></trkpt><trkpt lat="41.3825207253189" lon="13.994776194961451"><ele>216.66666666666669</ele><time>2026-04-12T12:08:05Z</time></trkpt><trkpt lat="41.382365580293275" lon="13.994792965793916"><ele>219.0</ele><time>2026-04-12T12:08:06Z</time></trkpt><trkpt lat="41.382160562095976" lon="13.994781468932382"><ele>219.75</ele><time>2026-04-12T12:08:07Z</time></trkpt><trkpt lat="41.382046619542365" lon="13.994770402238784"><ele>220.5</ele><time>2026-04-12T12:08:08Z</time></trkpt><trkpt lat="41.38193805132418" lon="13.994735646257599"><ele>221.25</ele><time>2026-04-12T12:08:09Z</time></trkpt><trkpt lat="41.38183632995177" lon="13.994643027765337"><ele>222.0</ele><time>2026-04-12T12:08:10Z</time></trkpt><trkpt lat="41.38171657907854" lon="13.994540260077923"><ele>222.0</ele><time>2026-04-12T12:08:11Z</time></trkpt><trkpt lat="41.38158809240658" lon="13.994464355291635"><ele>222.0</ele><time>2026-04-12T12:08:12Z</time></trkpt><trkpt lat="41.38145049436815" lon="13.99439974820844"><ele>222.0</ele><time>2026-04-12T12:08:13Z</time></trkpt><trkpt lat="41.38133623643004" lon="13.99434399731142"><ele>222.0</ele><time>2026-04-12T12:08:14Z</time></trkpt><trkpt lat="41.381256619868815" lon="13.994315504814631"><ele>223.5</ele><time>2026-04-12T12:08:15Z</time></trkpt><trkpt lat="41.381164699056995" lon="13.99433091202985"><ele>225.0</ele><time>2026-04-12T12:08:16Z</time></trkpt><trkpt lat="41.381051303762156" lon="13.994395974239508"><ele>226.5</ele><time>2026-04-12T12:08:17Z</time></trkpt><trkpt lat="41.380944502862505" lon="13.994483825606876"><ele>228.0</ele><time>2026-04-12T12:08:18Z</time></trkpt><trkpt lat="41.38081751288676" lon="13.994548742258923"><ele>228.0</ele><time>2026-04-12T12:08:19Z</time></trkpt><trkpt lat="41.380683601528816" lon="13.994647506509786"><ele>228.0</ele><time>2026-04-12T12:08:20Z</time></trkpt><trkpt lat="41.38054690688719" lon="13.994706415961021"><ele>228.0</ele><time>2026-04-12T12:08:21Z</time></trkpt><trkpt lat="41.38040577749123" lon="13.994745460083982"><ele>228.0</ele><time>2026-04-12T12:08:22Z</time></trkpt><trkpt lat="41.38024291479293" lon="13.994788643855559"><ele>229.0</ele><time>2026-04-12T12:08:23Z</time></trkpt><trkpt lat="41.380084434175835" lon="13.994812693706248"><ele>230.0</ele><time>2026-04-12T12:08:24Z</time></trkpt><trkpt lat="41.379915713131325" lon="13.994836415184732"><ele>231.0</ele><time>2026-04-12T12:08:25Z</time></trkpt><trkpt lat="41.379744928816635" lon="13.994857015061966"><ele>232.25</ele><time>2026-04-12T12:08:26Z</time></trkpt><trkpt lat="41.37959033158283" lon="13.994872617493616"><ele>233.5</ele><time>2026-04-12T12:08:27Z</time></trkpt><trkpt lat="41.379469314317326" lon="13.994882526285947"><ele>234.75</ele><time>2026-04-12T12:08:28Z</time></trkpt><trkpt lat="41.37937895872402" lon="13.994891043379239"><ele>236.0</ele><time>2026-04-12T12:08:29Z</time></trkpt><trkpt lat="41.37928984143511" lon="13.994920212104336"><ele>235.8</ele><time>2026-04-12T12:08:31Z</time></trkpt><trkpt lat="41.379292943948634" lon="13.995070669047978"><ele>235.60000000000002</ele><time>2026-04-12T12:08:34Z</time></trkpt><trkpt lat="41.37934088150463" lon="13.995194193074486"><ele>235.4</ele><time>2026-04-12T12:08:35Z</time></trkpt><trkpt lat="41.379406987979756" lon="13.99531721568345"><ele>235.2</ele><time>2026-04-12T12:08:36Z</time></trkpt><trkpt lat="41.37946550655355" lon="13.995441655577075"><ele>235.0</ele><time>2026-04-12T12:08:37Z</time></trkpt><trkpt lat="41.37951971876124" lon="13.9955851912839"><ele>235.0</ele><time>2026-04-12T12:08:38Z</time></trkpt><trkpt lat="41.37957499521721" lon="13.995718854258241"><ele>235.0</ele><time>2026-04-12T12:08:39Z</time></trkpt><trkpt lat="41.379631343206334" lon="13.995860400285242"><ele>235.0</ele><time>2026-04-12T12:08:40Z</time></trkpt><trkpt lat="41.37966445803893" lon="13.995986644905638"><ele>235.0</ele><time>2026-04-12T12:08:41Z</time></trkpt><trkpt lat="41.379750008348196" lon="13.996100129137991"><ele>232.75</ele><time>2026-04-12T12:08:42Z</time></trkpt><trkpt lat="41.3798483572633" lon="13.996205623347977"><ele>230.5</ele><time>2026-04-12T12:08:43Z</time></trkpt><trkpt lat="41.379966153398684" lon="13.996316893300193"><ele>228.25</ele><time>2026-04-12T12:08:44Z</time></trkpt><trkpt lat="41.38008208653286" lon="13.996433667342792"><ele>226.0</ele><time>2026-04-12T12:08:45Z</time></trkpt><trkpt lat="41.380189501624564" lon="13.996564519835896"><ele>225.5</ele><time>2026-04-12T12:08:46Z</time></trkpt><trkpt lat="41.380287130914404" lon="13.996712858296089"><ele>225.0</ele><time>2026-04-12T12:08:47Z</time></trkpt><trkpt lat="41.38037724431849" lon="13.996847267668395"><ele>224.5</ele><time>2026-04-12T12:08:48Z</time></trkpt><trkpt lat="41.38048052708675" lon="13.996982687752697"><ele>224.0</ele><time>2026-04-12T12:08:49Z</time></trkpt><trkpt lat="41.38058578041509" lon="13.997102338520053"><ele>223.0</ele><time>2026-04-12T12:08:50Z</time></trkpt><trkpt lat="41.38070518891035" lon="13.997226508641205"><ele>222.0</ele><time>2026-04-12T12:08:51Z</time></trkpt><trkpt lat="41.380836030266785" lon="13.997352605699113"><ele>221.0</ele><time>2026-04-12T12:08:52Z</time></trkpt><trkpt lat="41.38097562483664" lon="13.99747993475922"><ele>219.66666666666669</ele><time>2026-04-12T12:08:53Z</time></trkpt><trkpt lat="41.38111795447508" lon="13.997590770465056"><ele>218.33333333333331</ele><time>2026-04-12T12:08:54Z</time></trkpt><trkpt lat="41.381257403934995" lon="13.997697897113412"><ele>217.0</ele><time>2026-04-12T12:08:55Z</time></trkpt><trkpt lat="41.381402030515794" lon="13.997809917102257"><ele>216.66666666666666</ele><time>2026-04-12T12:08:56Z</time></trkpt><trkpt lat="41.38155001813324" lon="13.997931913477602"><ele>216.33333333333331</ele><time>2026-04-12T12:08:57Z</time></trkpt><trkpt lat="41.38170897079178" lon="13.99804639650093"><ele>216.0</ele><time>2026-04-12T12:08:58Z</time></trkpt><trkpt lat="41.381881402544906" lon="13.998167717556042"><ele>216.0</ele><time>2026-04-12T12:08:59Z</time></trkpt><trkpt lat="41.38202448858204" lon="13.998278577346447"><ele>216.0</ele><time>2026-04-12T12:09:00Z</time></trkpt><trkpt lat="41.38217321788599" lon="13.998393163038996"><ele>216.0</ele><time>2026-04-12T12:09:01Z</time></trkpt><trkpt lat="41.382312121868395" lon="13.998497242795034"><ele>215.25</ele><time>2026-04-12T12:09:02Z</time></trkpt><trkpt lat="41.38243354793643" lon="13.998592282851176"><ele>214.5</ele><time>2026-04-12T12:09:03Z</time></trkpt><trkpt lat="41.38254983306364" lon="13.998700840250159"><ele>213.75</ele><time>2026-04-12T12:09:04Z</time></trkpt><trkpt lat="41.382653493152446" lon="13.998810848215864"><ele>213.0</ele><time>2026-04-12T12:09:05Z</time></trkpt><trkpt lat="41.38270153532129" lon="13.99888955796228"><ele>213.0</ele><time>2026-04-12T12:09:06Z</time></trkpt><trkpt lat="41.382731276369626" lon="13.998971562747993"><ele>213.0</ele><time>2026-04-12T12:09:07Z</time></trkpt><trkpt lat="41.382668936389805" lon="13.999130168045975"><ele>213.0</ele><time>2026-04-12T12:09:09Z</time></trkpt><trkpt lat="41.38260840555395" lon="13.999251503135364"><ele>213.0</ele><time>2026-04-12T12:09:10Z</time></trkpt><trkpt lat="41.38254442369777" lon="13.999359505936297"><ele>213.0</ele><time>2026-04-12T12:09:11Z</time></trkpt><trkpt lat="41.382487520371875" lon="13.999459564485326"><ele>212.60000000000002</ele><time>2026-04-12T12:09:12Z</time></trkpt><trkpt lat="41.382446916141966" lon="13.99956285262003"><ele>212.20000000000002</ele><time>2026-04-12T12:09:13Z</time></trkpt><trkpt lat="41.38242943445225" lon="13.999661597662893"><ele>211.8</ele><time>2026-04-12T12:09:14Z</time></trkpt><trkpt lat="41.38243264645242" lon="13.999773191673246"><ele>211.4</ele><time>2026-04-12T12:09:15Z</time></trkpt><trkpt lat="41.382516242235816" lon="13.99989519636883"><ele>211.0</ele><time>2026-04-12T12:09:16Z</time></trkpt><trkpt lat="41.38261457447955" lon="14.000011922757917"><ele>211.0</ele><time>2026-04-12T12:09:17Z</time></trkpt><trkpt lat="41.38271926578724" lon="14.000130189356526"><ele>211.0</ele><time>2026-04-12T12:09:18Z</time></trkpt><trkpt lat="41.38281119819831" lon="14.000200926045787"><ele>211.0</ele><time>2026-04-12T12:09:19Z</time></trkpt><trkpt lat="41.3828799943396" lon="14.000281349113418"><ele>211.0</ele><time>2026-04-12T12:09:20Z</time></trkpt><trkpt lat="41.38293193388285" lon="14.00033490030978"><ele>211.0</ele><time>2026-04-12T12:09:21Z</time></trkpt><trkpt lat="41.3829748279543" lon="14.000416214448162"><ele>210.60000000000002</ele><time>2026-04-12T12:09:23Z</time></trkpt><trkpt lat="41.383061546397" lon="14.000280561098876"><ele>210.2</ele><time>2026-04-12T12:09:25Z</time></trkpt><trkpt lat="41.383084904635226" lon="14.000191102517197"><ele>209.8</ele><time>2026-04-12T12:09:26Z</time></trkpt><trkpt lat="41.383133499096886" lon="14.000078419083588"><ele>209.39999999999998</ele><time>2026-04-12T12:09:27Z</time></trkpt><trkpt lat="41.38321753440451" lon="13.999985016578787"><ele>209.0</ele><time>2026-04-12T12:09:28Z</time></trkpt><trkpt lat="41.38332104209684" lon="13.999878992495445"><ele>209.0</ele><time>2026-04-12T12:09:29Z</time></trkpt><trkpt lat="41.38342719301876" lon="13.999773929120222"><ele>209.0</ele><time>2026-04-12T12:09:30Z</time></trkpt><trkpt lat="41.383530626728856" lon="13.99964958028106"><ele>209.0</ele><time>2026-04-12T12:09:31Z</time></trkpt><trkpt lat="41.38363209261269" lon="13.999517440795838"><ele>209.0</ele><time>2026-04-12T12:09:32Z</time></trkpt><trkpt lat="41.38373278886867" lon="13.99938291792858"><ele>209.0</ele><time>2026-04-12T12:09:33Z</time></trkpt><trkpt lat="41.383830987877" lon="13.999262883532047"><ele>209.0</ele><time>2026-04-12T12:09:34Z</time></trkpt><trkpt lat="41.38393955340458" lon="13.999142022311295"><ele>209.0</ele><time>2026-04-12T12:09:35Z</time></trkpt><trkpt lat="41.3840449362198" lon="13.999012157473802"><ele>209.0</ele><time>2026-04-12T12:09:36Z</time></trkpt><trkpt lat="41.38414814582135" lon="13.998865576047635"><ele>208.0</ele><time>2026-04-12T12:09:37Z</time></trkpt><trkpt lat="41.384255112865766" lon="13.99871690258908"><ele>207.0</ele><time>2026-04-12T12:09:38Z</time></trkpt><trkpt lat="41.38436473221558" lon="13.998559996273444"><ele>206.0</ele><time>2026-04-12T12:09:39Z</time></trkpt><trkpt lat="41.384476499284126" lon="13.99840228784679"><ele>206.33333333333334</ele><time>2026-04-12T12:09:40Z</time></trkpt><trkpt lat="41.3845923219359" lon="13.998235974804842"><ele>206.66666666666669</ele><time>2026-04-12T12:09:41Z</time></trkpt><trkpt lat="41.384706981929384" lon="13.998067731001626"><ele>207.0</ele><time>2026-04-12T12:09:42Z</time></trkpt><trkpt lat="41.384816885398116" lon="13.997908787868731"><ele>206.6</ele><time>2026-04-12T12:09:43Z</time></trkpt><trkpt lat="41.38489880391668" lon="13.997784030343388"><ele>206.2</ele><time>2026-04-12T12:09:44Z</time></trkpt><trkpt lat="41.38496984566038" lon="13.997727606439579"><ele>205.8</ele><time>2026-04-12T12:09:45Z</time></trkpt><trkpt lat="41.385029612659196" lon="13.99767519878874"><ele>205.4</ele><time>2026-04-12T12:09:46Z</time></trkpt><trkpt lat="41.385098484548394" lon="13.997653509192114"><ele>205.0</ele><time>2026-04-12T12:09:49Z</time></trkpt><trkpt lat="41.385203313955294" lon="13.99780383285318"><ele>205.0</ele><time>2026-04-12T12:09:51Z</time></trkpt><trkpt lat="41.38527136185515" lon="13.99790721988434"><ele>205.0</ele><time>2026-04-12T12:09:52Z</time></trkpt><trkpt lat="41.38535126325716" lon="13.998016066914674"><ele>205.0</ele><time>2026-04-12T12:09:53Z</time></trkpt><trkpt lat="41.385447963600036" lon="13.998135246928594"><ele>205.0</ele><time>2026-04-12T12:09:54Z</time></trkpt><trkpt lat="41.385538354028284" lon="13.998236133527108"><ele>204.8</ele><time>2026-04-12T12:09:55Z</time></trkpt><trkpt lat="41.385627655884086" lon="13.998316568444327"><ele>204.6</ele><time>2026-04-12T12:09:56Z</time></trkpt><trkpt lat="41.38571860738392" lon="13.998386842094353"><ele>204.39999999999998</ele><time>2026-04-12T12:09:57Z</time></trkpt><trkpt lat="41.38579411126649" lon="13.998475555948234"><ele>204.2</ele><time>2026-04-12T12:09:58Z</time></trkpt><trkpt lat="41.38583972984937" lon="13.998589455677989"><ele>204.0</ele><time>2026-04-12T12:09:59Z</time></trkpt><trkpt lat="41.38586172507705" lon="13.998668645392115"><ele>204.0</ele><time>2026-04-12T12:10:00Z</time></trkpt><trkpt lat="41.38589926031186" lon="13.998754712473078"><ele>204.0</ele><time>2026-04-12T12:10:02Z</time></trkpt><trkpt lat="41.38596804019753" lon="13.99881554975936"><ele>204.0</ele><time>2026-04-12T12:10:03Z</time></trkpt><trkpt lat="41.38604909859728" lon="13.998868646853955"><ele>204.0</ele><time>2026-04-12T12:10:04Z</time></trkpt><trkpt lat="41.386117704258865" lon="13.998877502095512"><ele>204.0</ele><time>2026-04-12T12:10:05Z</time></trkpt><trkpt lat="41.38618371816687" lon="13.998856680359326"><ele>204.0</ele><time>2026-04-12T12:10:06Z</time></trkpt><trkpt lat="41.38624646263971" lon="13.998778221912579"><ele>204.0</ele><time>2026-04-12T12:10:07Z</time></trkpt><trkpt lat="41.38630441887071" lon="13.998658723432774"><ele>204.0</ele><time>2026-04-12T12:10:08Z</time></trkpt><trkpt lat="41.38638038905192" lon="13.99854598111595"><ele>204.0</ele><time>2026-04-12T12:10:09Z</time></trkpt><trkpt lat="41.386495674852256" lon="13.998483752136805"><ele>204.0</ele><time>2026-04-12T12:10:10Z</time></trkpt><trkpt lat="41.38661993886748" lon="13.998454835563265"><ele>204.0</ele><time>2026-04-12T12:10:11Z</time></trkpt><trkpt lat="41.38675981780633" lon="13.9984102969767"><ele>204.0</ele><time>2026-04-12T12:10:12Z</time></trkpt><trkpt lat="41.386893516417615" lon="13.998322195965446"><ele>204.0</ele><time>2026-04-12T12:10:13Z</time></trkpt><trkpt lat="41.38702519375213" lon="13.998202504188383"><ele>204.0</ele><time>2026-04-12T12:10:14Z</time></trkpt><trkpt lat="41.38715869521063" lon="13.998078292853592"><ele>204.0</ele><time>2026-04-12T12:10:15Z</time></trkpt><trkpt lat="41.38727668594608" lon="13.997970319200912"><ele>204.0</ele><time>2026-04-12T12:10:16Z</time></trkpt><trkpt lat="41.38737806745205" lon="13.997892007604802"><ele>204.0</ele><time>2026-04-12T12:10:17Z</time></trkpt><trkpt lat="41.38746314441771" lon="13.997800531298104"><ele>203.75</ele><time>2026-04-12T12:10:18Z</time></trkpt><trkpt lat="41.38752647633723" lon="13.997659258005605"><ele>203.5</ele><time>2026-04-12T12:10:19Z</time></trkpt><trkpt lat="41.387571221006674" lon="13.99748193689488"><ele>203.25</ele><time>2026-04-12T12:10:20Z</time></trkpt><trkpt lat="41.387612853351165" lon="13.997307530009763"><ele>203.0</ele><time>2026-04-12T12:10:21Z</time></trkpt><trkpt lat="41.38766193502987" lon="13.997151530236666"><ele>202.75</ele><time>2026-04-12T12:10:22Z</time></trkpt><trkpt lat="41.387738830704365" lon="13.997024885781205"><ele>202.5</ele><time>2026-04-12T12:10:23Z</time></trkpt><trkpt lat="41.387845163841114" lon="13.996924671745669"><ele>202.25</ele><time>2026-04-12T12:10:24Z</time></trkpt><trkpt lat="41.38797476389694" lon="13.996850698070958"><ele>202.0</ele><time>2026-04-12T12:10:25Z</time></trkpt><trkpt lat="41.38812941183478" lon="13.996777986993976"><ele>201.5</ele><time>2026-04-12T12:10:26Z</time></trkpt><trkpt lat="41.38827499280462" lon="13.99671363106462"><ele>201.0</ele><time>2026-04-12T12:10:27Z</time></trkpt><trkpt lat="41.38842288298668" lon="13.996664303811851"><ele>200.5</ele><time>2026-04-12T12:10:28Z</time></trkpt><trkpt lat="41.38854692079372" lon="13.996620308151023"><ele>200.0</ele><time>2026-04-12T12:10:29Z</time></trkpt><trkpt lat="41.388666295765965" lon="13.996552917741434"><ele>200.0</ele><time>2026-04-12T12:10:30Z</time></trkpt><trkpt lat="41.388786148289476" lon="13.996432425478433"><ele>200.0</ele><time>2026-04-12T12:10:31Z</time></trkpt><trkpt lat="41.388895491365886" lon="13.996292574099238"><ele>200.0</ele><time>2026-04-12T12:10:32Z</time></trkpt><trkpt lat="41.388995544264326" lon="13.996164339925377"><ele>200.0</ele><time>2026-04-12T12:10:33Z</time></trkpt><trkpt lat="41.38906808964566" lon="13.996036528445252"><ele>200.0</ele><time>2026-04-12T12:10:34Z</time></trkpt><trkpt lat="41.38913082799978" lon="13.99586905598359"><ele>200.0</ele><time>2026-04-12T12:10:35Z</time></trkpt><trkpt lat="41.38915496219826" lon="13.99566865804376"><ele>200.0</ele><time>2026-04-12T12:10:36Z</time></trkpt><trkpt lat="41.38918933847206" lon="13.995460485262258"><ele>199.75</ele><time>2026-04-12T12:10:37Z</time></trkpt><trkpt lat="41.38924438722763" lon="13.995276896755417"><ele>199.5</ele><time>2026-04-12T12:10:38Z</time></trkpt><trkpt lat="41.38930127654995" lon="13.995113505828577"><ele>199.25</ele><time>2026-04-12T12:10:39Z</time></trkpt><trkpt lat="41.38937548029753" lon="13.994985206416128"><ele>199.0</ele><time>2026-04-12T12:10:40Z</time></trkpt><trkpt lat="41.389466260074" lon="13.994868886703037"><ele>199.0</ele><time>2026-04-12T12:10:41Z</time></trkpt><trkpt lat="41.3895836555631" lon="13.994761257923468"><ele>199.0</ele><time>2026-04-12T12:10:42Z</time></trkpt><trkpt lat="41.38969270287245" lon="13.994646992472928"><ele>199.0</ele><time>2026-04-12T12:10:43Z</time></trkpt><trkpt lat="41.38976742202091" lon="13.99451873366524"><ele>199.0</ele><time>2026-04-12T12:10:44Z</time></trkpt><trkpt lat="41.38981691600321" lon="13.994342975996608"><ele>200.5</ele><time>2026-04-12T12:10:45Z</time></trkpt><trkpt lat="41.38985362907814" lon="13.99414566098181"><ele>202.0</ele><time>2026-04-12T12:10:46Z</time></trkpt><trkpt lat="41.38991780942782" lon="13.993958137164535"><ele>203.5</ele><time>2026-04-12T12:10:47Z</time></trkpt><trkpt lat="41.38999794234314" lon="13.993822620719756"><ele>205.0</ele><time>2026-04-12T12:10:48Z</time></trkpt><trkpt lat="41.39006058423995" lon="13.993726578364418"><ele>205.0</ele><time>2026-04-12T12:10:49Z</time></trkpt><trkpt lat="41.39008593906119" lon="13.993612324124545"><ele>205.0</ele><time>2026-04-12T12:10:50Z</time></trkpt><trkpt lat="41.39011945566003" lon="13.993442782486062"><ele>205.0</ele><time>2026-04-12T12:10:51Z</time></trkpt><trkpt lat="41.39014416282607" lon="13.993243392341023"><ele>205.0</ele><time>2026-04-12T12:10:52Z</time></trkpt><trkpt lat="41.39016998276943" lon="13.993024066075483"><ele>203.0</ele><time>2026-04-12T12:10:53Z</time></trkpt><trkpt lat="41.39020233870167" lon="13.992830693555788"><ele>201.0</ele><time>2026-04-12T12:10:54Z</time></trkpt><trkpt lat="41.390236900412226" lon="13.992632513438206"><ele>199.0</ele><time>2026-04-12T12:10:55Z</time></trkpt><trkpt lat="41.39026647179768" lon="13.992440002191245"><ele>197.0</ele><time>2026-04-12T12:10:56Z</time></trkpt><trkpt lat="41.39028841481103" lon="13.992253025704242"><ele>194.5</ele><time>2026-04-12T12:10:57Z</time></trkpt><trkpt lat="41.390310396755126" lon="13.992068419734272"><ele>192.0</ele><time>2026-04-12T12:10:58Z</time></trkpt><trkpt lat="41.39033168303051" lon="13.991885205891219"><ele>189.5</ele><time>2026-04-12T12:10:59Z</time></trkpt><trkpt lat="41.390373154067085" lon="13.991716820307428"><ele>187.0</ele><time>2026-04-12T12:11:00Z</time></trkpt><trkpt lat="41.390446250226965" lon="13.99156204209957"><ele>184.25</ele><time>2026-04-12T12:11:01Z</time></trkpt><trkpt lat="41.39054512421882" lon="13.991421926866597"><ele>181.5</ele><time>2026-04-12T12:11:02Z</time></trkpt><trkpt lat="41.390661876856036" lon="13.991284073133693"><ele>178.75</ele><time>2026-04-12T12:11:03Z</time></trkpt><trkpt lat="41.39077618304126" lon="13.991163619217852"><ele>176.0</ele><time>2026-04-12T12:11:04Z</time></trkpt><trkpt lat="41.39090546030308" lon="13.991078055046513"><ele>176.0</ele><time>2026-04-12T12:11:05Z</time></trkpt><trkpt lat="41.39102533765421" lon="13.990993904979643"><ele>176.0</ele><time>2026-04-12T12:11:06Z</time></trkpt><trkpt lat="41.391115512713526" lon="13.990905272914482"><ele>176.0</ele><time>2026-04-12T12:11:07Z</time></trkpt><trkpt lat="41.39119460788038" lon="13.990851453822401"><ele>176.0</ele><time>2026-04-12T12:11:08Z</time></trkpt><trkpt lat="41.39128301309961" lon="13.990804031616527"><ele>176.0</ele><time>2026-04-12T12:11:10Z</time></trkpt><trkpt lat="41.39113011922869" lon="13.990681399821648"><ele>175.0</ele><time>2026-04-12T12:11:15Z</time></trkpt><trkpt lat="41.39106479714572" lon="13.990639619281742"><ele>174.0</ele><time>2026-04-12T12:11:17Z</time></trkpt><trkpt lat="41.390983278476384" lon="13.990585677002263"><ele>173.0</ele><time>2026-04-12T12:11:19Z</time></trkpt><trkpt lat="41.39089866347686" lon="13.990567676297593"><ele>172.0</ele><time>2026-04-12T12:11:21Z</time></trkpt><trkpt lat="41.39076423423225" lon="13.990546337360003"><ele>171.0</ele><time>2026-04-12T12:11:23Z</time></trkpt><trkpt lat="41.39070524183867" lon="13.990616143374048"><ele>171.0</ele><time>2026-04-12T12:11:24Z</time></trkpt><trkpt lat="41.390520021282356" lon="13.990572118359934"><ele>171.0</ele><time>2026-04-12T12:11:26Z</time></trkpt><trkpt lat="41.39034665412824" lon="13.990662991518885"><ele>171.0</ele><time>2026-04-12T12:11:28Z</time></trkpt><trkpt lat="41.39027729717243" lon="13.990711199811136"><ele>170.8</ele><time>2026-04-12T12:11:29Z</time></trkpt><trkpt lat="41.39020681029502" lon="13.990798104463822"><ele>170.60000000000002</ele><time>2026-04-12T12:11:31Z</time></trkpt><trkpt lat="41.39009937760411" lon="13.990825055271467"><ele>170.4</ele><time>2026-04-12T12:11:36Z</time></trkpt><trkpt lat="41.38998748828483" lon="13.99091800565104"><ele>170.2</ele><time>2026-04-12T12:11:38Z</time></trkpt><trkpt lat="41.3899209981414" lon="13.990931171504036"><ele>170.0</ele><time>2026-04-12T12:11:39Z</time></trkpt><trkpt lat="41.38984881387563" lon="13.99092419774037"><ele>171.33333333333331</ele><time>2026-04-12T12:11:41Z</time></trkpt><trkpt lat="41.38980004737247" lon="13.991012992732522"><ele>172.66666666666666</ele><time>2026-04-12T12:11:43Z</time></trkpt><trkpt lat="41.3897158220199" lon="13.991094156957043"><ele>174.0</ele><time>2026-04-12T12:11:45Z</time></trkpt><trkpt lat="41.389683345718275" lon="13.991176735636758"><ele>175.33333333333334</ele><time>2026-04-12T12:11:49Z</time></trkpt><trkpt lat="41.389617088364574" lon="13.99122320654977"><ele>176.66666666666669</ele><time>2026-04-12T12:11:54Z</time></trkpt><trkpt lat="41.389536916416574" lon="13.991194204195246"><ele>178.0</ele><time>2026-04-12T12:11:56Z</time></trkpt><trkpt lat="41.38946591521066" lon="13.991249668868479"><ele>178.0</ele><time>2026-04-12T12:11:58Z</time></trkpt><trkpt lat="41.38941326707076" lon="13.991332072537062"><ele>178.0</ele><time>2026-04-12T12:12:00Z</time></trkpt><trkpt lat="41.38933432295119" lon="13.991425942895322"><ele>178.0</ele><time>2026-04-12T12:12:02Z</time></trkpt><trkpt lat="41.38924036032408" lon="13.99143653613251"><ele>178.0</ele><time>2026-04-12T12:12:04Z</time></trkpt><trkpt lat="41.38917428998555" lon="13.991514244725249"><ele>178.0</ele><time>2026-04-12T12:12:06Z</time></trkpt><trkpt lat="41.38906722157524" lon="13.991505628472"><ele>178.0</ele><time>2026-04-12T12:12:08Z</time></trkpt><trkpt lat="41.389014877934244" lon="13.991553011859233"><ele>178.0</ele><time>2026-04-12T12:12:10Z</time></trkpt><trkpt lat="41.38893167802366" lon="13.99148411704116"><ele>178.0</ele><time>2026-04-12T12:12:14Z</time></trkpt><trkpt lat="41.38886965290859" lon="13.991439113734382"><ele>178.0</ele><time>2026-04-12T12:12:15Z</time></trkpt><trkpt lat="41.388784137266825" lon="13.991383575508653"><ele>178.0</ele><time>2026-04-12T12:12:16Z</time></trkpt><trkpt lat="41.388706161538565" lon="13.991320293630233"><ele>178.0</ele><time>2026-04-12T12:12:18Z</time></trkpt><trkpt lat="41.388658201697844" lon="13.991243763246379"><ele>178.0</ele><time>2026-04-12T12:12:20Z</time></trkpt><trkpt lat="41.38869311760415" lon="13.991145936920322"><ele>178.0</ele><time>2026-04-12T12:12:25Z</time></trkpt><trkpt lat="41.38874319698649" lon="13.991060706065621"><ele>178.0</ele><time>2026-04-12T12:12:28Z</time></trkpt><trkpt lat="41.38885236215815" lon="13.99091995892148"><ele>178.0</ele><time>2026-04-12T12:12:34Z</time></trkpt><trkpt lat="41.38891517331371" lon="13.99080066717298"><ele>178.0</ele><time>2026-04-12T12:12:35Z</time></trkpt><trkpt lat="41.388917589579826" lon="13.990685843090944"><ele>175.0</ele><time>2026-04-12T12:12:36Z</time></trkpt><trkpt lat="41.38890061107747" lon="13.990592743530158"><ele>172.0</ele><time>2026-04-12T12:12:39Z</time></trkpt><trkpt lat="41.38891418750591" lon="13.990434681206139"><ele>169.0</ele><time>2026-04-12T12:12:40Z</time></trkpt><trkpt lat="41.388968565121964" lon="13.99019001783033"><ele>166.0</ele><time>2026-04-12T12:12:42Z</time></trkpt><trkpt lat="41.38900068104938" lon="13.990100089073467"><ele>166.0</ele><time>2026-04-12T12:12:43Z</time></trkpt><trkpt lat="41.3890832650531" lon="13.990015528961159"><ele>166.0</ele><time>2026-04-12T12:12:45Z</time></trkpt><trkpt lat="41.38915073544432" lon="13.989978410376498"><ele>166.0</ele><time>2026-04-12T12:12:46Z</time></trkpt><trkpt lat="41.38922154817123" lon="13.989924261282846"><ele>166.0</ele><time>2026-04-12T12:12:47Z</time></trkpt><trkpt lat="41.389278466553776" lon="13.989846952342388"><ele>166.0</ele><time>2026-04-12T12:12:48Z</time></trkpt><trkpt lat="41.38932744948307" lon="13.989762303918013"><ele>166.0</ele><time>2026-04-12T12:12:49Z</time></trkpt><trkpt lat="41.38927295196747" lon="13.989567388368396"><ele>166.5</ele><time>2026-04-12T12:12:51Z</time></trkpt><trkpt lat="41.38923556864225" lon="13.98940349909465"><ele>167.0</ele><time>2026-04-12T12:12:53Z</time></trkpt><trkpt lat="41.38915994361064" lon="13.989247658604329"><ele>167.5</ele><time>2026-04-12T12:12:54Z</time></trkpt><trkpt lat="41.38910126120237" lon="13.989202938598966"><ele>168.0</ele><time>2026-04-12T12:12:55Z</time></trkpt><trkpt lat="41.3890175061742" lon="13.98904434804952"><ele>170.2</ele><time>2026-04-12T12:12:56Z</time></trkpt><trkpt lat="41.388984078073136" lon="13.988926370210066"><ele>172.4</ele><time>2026-04-12T12:12:57Z</time></trkpt><trkpt lat="41.388931523429314" lon="13.988817079319409"><ele>174.6</ele><time>2026-04-12T12:12:58Z</time></trkpt><trkpt lat="41.38890713303151" lon="13.988720855885143"><ele>176.79999999999998</ele><time>2026-04-12T12:12:59Z</time></trkpt><trkpt lat="41.38888256736756" lon="13.98859715753727"><ele>179.0</ele><time>2026-04-12T12:13:00Z</time></trkpt><trkpt lat="41.38887562800507" lon="13.988462781654182"><ele>179.0</ele><time>2026-04-12T12:13:01Z</time></trkpt><trkpt lat="41.38887433591429" lon="13.988371775416205"><ele>179.0</ele><time>2026-04-12T12:13:02Z</time></trkpt><trkpt lat="41.38884766401001" lon="13.988226784143656"><ele>179.0</ele><time>2026-04-12T12:13:03Z</time></trkpt><trkpt lat="41.38881319724312" lon="13.988062758067269"><ele>179.0</ele><time>2026-04-12T12:13:04Z</time></trkpt><trkpt lat="41.38877704716107" lon="13.98790099536943"><ele>179.0</ele><time>2026-04-12T12:13:05Z</time></trkpt><trkpt lat="41.38875095981841" lon="13.98774917198868"><ele>180.0</ele><time>2026-04-12T12:13:06Z</time></trkpt><trkpt lat="41.38872797402215" lon="13.987643548100204"><ele>181.0</ele><time>2026-04-12T12:13:07Z</time></trkpt><trkpt lat="41.38870030364555" lon="13.987521091965485"><ele>182.0</ele><time>2026-04-12T12:13:09Z</time></trkpt><trkpt lat="41.38877661753713" lon="13.987474665108264"><ele>183.0</ele><time>2026-04-12T12:13:11Z</time></trkpt><trkpt lat="41.38884707387812" lon="13.987487517583322"><ele>184.0</ele><time>2026-04-12T12:13:12Z</time></trkpt><trkpt lat="41.388944005230314" lon="13.987509276453673"><ele>185.0</ele><time>2026-04-12T12:13:13Z</time></trkpt><trkpt lat="41.38904293185448" lon="13.987508493580124"><ele>185.0</ele><time>2026-04-12T12:13:14Z</time></trkpt><trkpt lat="41.38911861644617" lon="13.987515304121395"><ele>185.0</ele><time>2026-04-12T12:13:15Z</time></trkpt><trkpt lat="41.389199249146486" lon="13.98751526578129"><ele>185.0</ele><time>2026-04-12T12:13:16Z</time></trkpt><trkpt lat="41.389277648472586" lon="13.98752279511784"><ele>185.0</ele><time>2026-04-12T12:13:17Z</time></trkpt><trkpt lat="41.389340725286594" lon="13.987536951683735"><ele>185.0</ele><time>2026-04-12T12:13:18Z</time></trkpt><trkpt lat="41.38941116711424" lon="13.987496272923197"><ele>185.0</ele><time>2026-04-12T12:13:20Z</time></trkpt><trkpt lat="41.38957360644198" lon="13.987461130591194"><ele>183.25</ele><time>2026-04-12T12:13:24Z</time></trkpt><trkpt lat="41.389690510786785" lon="13.987454126833818"><ele>181.5</ele><time>2026-04-12T12:13:25Z</time></trkpt><trkpt lat="41.38981423196969" lon="13.9874465475543"><ele>179.75</ele><time>2026-04-12T12:13:26Z</time></trkpt><trkpt lat="41.38993889965086" lon="13.987438760545631"><ele>178.0</ele><time>2026-04-12T12:13:27Z</time></trkpt><trkpt lat="41.390079721200316" lon="13.98744560511947"><ele>178.0</ele><time>2026-04-12T12:13:28Z</time></trkpt><trkpt lat="41.39022280893935" lon="13.987455658784206"><ele>178.0</ele><time>2026-04-12T12:13:29Z</time></trkpt><trkpt lat="41.39036826462922" lon="13.987471565731381"><ele>178.0</ele><time>2026-04-12T12:13:30Z</time></trkpt><trkpt lat="41.39051400126684" lon="13.987485943022362"><ele>178.0</ele><time>2026-04-12T12:13:31Z</time></trkpt><trkpt lat="41.39065985467051" lon="13.987499543287768"><ele>178.5</ele><time>2026-04-12T12:13:32Z</time></trkpt><trkpt lat="41.39080168843847" lon="13.98751177910219"><ele>179.0</ele><time>2026-04-12T12:13:33Z</time></trkpt><trkpt lat="41.390948066224716" lon="13.987520350700636"><ele>179.5</ele><time>2026-04-12T12:13:34Z</time></trkpt><trkpt lat="41.391094152043294" lon="13.987526624104898"><ele>180.0</ele><time>2026-04-12T12:13:35Z</time></trkpt><trkpt lat="41.391245641725654" lon="13.987550618005109"><ele>179.0</ele><time>2026-04-12T12:13:36Z</time></trkpt><trkpt lat="41.39139688588652" lon="13.987542780041373"><ele>178.0</ele><time>2026-04-12T12:13:37Z</time></trkpt><trkpt lat="41.3915475341114" lon="13.987508267040287"><ele>177.0</ele><time>2026-04-12T12:13:38Z</time></trkpt><trkpt lat="41.39169028567179" lon="13.987440144675721"><ele>175.33333333333334</ele><time>2026-04-12T12:13:39Z</time></trkpt><trkpt lat="41.39183868725428" lon="13.987370144177211"><ele>173.66666666666669</ele><time>2026-04-12T12:13:40Z</time></trkpt><trkpt lat="41.39197247977274" lon="13.987255804057343"><ele>172.0</ele><time>2026-04-12T12:13:41Z</time></trkpt><trkpt lat="41.39210755165286" lon="13.987127504007793"><ele>171.33333333333334</ele><time>2026-04-12T12:13:42Z</time></trkpt><trkpt lat="41.39224135478753" lon="13.986967550292238"><ele>170.66666666666666</ele><time>2026-04-12T12:13:43Z</time></trkpt><trkpt lat="41.39235932736964" lon="13.986778190725953"><ele>170.0</ele><time>2026-04-12T12:13:44Z</time></trkpt><trkpt lat="41.392488014281845" lon="13.986581561909855"><ele>169.0</ele><time>2026-04-12T12:13:45Z</time></trkpt><trkpt lat="41.39261542051557" lon="13.986400507232364"><ele>168.0</ele><time>2026-04-12T12:13:46Z</time></trkpt><trkpt lat="41.39274113314236" lon="13.986217410671935"><ele>167.0</ele><time>2026-04-12T12:13:47Z</time></trkpt><trkpt lat="41.39286584839941" lon="13.98603359491244"><ele>167.0</ele><time>2026-04-12T12:13:48Z</time></trkpt><trkpt lat="41.392990761897245" lon="13.98584580081983"><ele>167.0</ele><time>2026-04-12T12:13:49Z</time></trkpt><trkpt lat="41.39311614490201" lon="13.985654249923785"><ele>167.0</ele><time>2026-04-12T12:13:50Z</time></trkpt><trkpt lat="41.393241456006976" lon="13.98545392408228"><ele>167.0</ele><time>2026-04-12T12:13:51Z</time></trkpt><trkpt lat="41.39336240301215" lon="13.985262667380287"><ele>167.0</ele><time>2026-04-12T12:13:52Z</time></trkpt><trkpt lat="41.393476942380566" lon="13.985080074604285"><ele>167.0</ele><time>2026-04-12T12:13:53Z</time></trkpt><trkpt lat="41.39359118101091" lon="13.984897108027688"><ele>166.0</ele><time>2026-04-12T12:13:54Z</time></trkpt><trkpt lat="41.39370931500747" lon="13.984716224896259"><ele>165.0</ele><time>2026-04-12T12:13:55Z</time></trkpt><trkpt lat="41.39380837979221" lon="13.984546977880104"><ele>164.0</ele><time>2026-04-12T12:13:56Z</time></trkpt><trkpt lat="41.39392341614856" lon="13.984387247978304"><ele>164.0</ele><time>2026-04-12T12:13:57Z</time></trkpt><trkpt lat="41.39406028161293" lon="13.98424976502362"><ele>164.0</ele><time>2026-04-12T12:13:58Z</time></trkpt><trkpt lat="41.3942159207537" lon="13.984124684217969"><ele>164.0</ele><time>2026-04-12T12:13:59Z</time></trkpt><trkpt lat="41.394378800395195" lon="13.984010269240267"><ele>162.0</ele><time>2026-04-12T12:14:00Z</time></trkpt><trkpt lat="41.39454627710399" lon="13.983920013637878"><ele>160.0</ele><time>2026-04-12T12:14:01Z</time></trkpt><trkpt lat="41.394721272809264" lon="13.983853621431123"><ele>158.0</ele><time>2026-04-12T12:14:02Z</time></trkpt><trkpt lat="41.39489127495796" lon="13.983845817446305"><ele>158.0</ele><time>2026-04-12T12:14:03Z</time></trkpt><trkpt lat="41.39505793165563" lon="13.98383661971748"><ele>158.0</ele><time>2026-04-12T12:14:04Z</time></trkpt><trkpt lat="41.39523181703111" lon="13.983855417536441"><ele>158.0</ele><time>2026-04-12T12:14:05Z</time></trkpt><trkpt lat="41.395402776428206" lon="13.98392558609445"><ele>156.33333333333331</ele><time>2026-04-12T12:14:06Z</time></trkpt><trkpt lat="41.395576986301315" lon="13.983989313125077"><ele>154.66666666666666</ele><time>2026-04-12T12:14:07Z</time></trkpt><trkpt lat="41.395751474683486" lon="13.984050249485186"><ele>153.0</ele><time>2026-04-12T12:14:08Z</time></trkpt><trkpt lat="41.39593086925304" lon="13.984113513795176"><ele>153.0</ele><time>2026-04-12T12:14:09Z</time></trkpt><trkpt lat="41.396117763822446" lon="13.984178525975521"><ele>153.0</ele><time>2026-04-12T12:14:10Z</time></trkpt><trkpt lat="41.39631181480306" lon="13.984237966693442"><ele>153.0</ele><time>2026-04-12T12:14:11Z</time></trkpt><trkpt lat="41.39648779890292" lon="13.984283251341092"><ele>154.33333333333334</ele><time>2026-04-12T12:14:12Z</time></trkpt><trkpt lat="41.39666409107892" lon="13.984338226026358"><ele>155.66666666666669</ele><time>2026-04-12T12:14:13Z</time></trkpt><trkpt lat="41.39683504989574" lon="13.984419488963786"><ele>157.0</ele><time>2026-04-12T12:14:14Z</time></trkpt><trkpt lat="41.39699868828151" lon="13.98450879693769"><ele>157.0</ele><time>2026-04-12T12:14:15Z</time></trkpt><trkpt lat="41.39714652132412" lon="13.984589035980196"><ele>157.0</ele><time>2026-04-12T12:14:16Z</time></trkpt><trkpt lat="41.397271499215" lon="13.984655376575539"><ele>157.0</ele><time>2026-04-12T12:14:17Z</time></trkpt><trkpt lat="41.39738009418405" lon="13.984712853530072"><ele>157.0</ele><time>2026-04-12T12:14:18Z</time></trkpt><trkpt lat="41.397475086744635" lon="13.984763096991314"><ele>156.79999999999998</ele><time>2026-04-12T12:14:19Z</time></trkpt><trkpt lat="41.397562841271935" lon="13.98480841150979"><ele>156.6</ele><time>2026-04-12T12:14:20Z</time></trkpt><trkpt lat="41.39763769936028" lon="13.984847036551992"><ele>156.39999999999998</ele><time>2026-04-12T12:14:21Z</time></trkpt><trkpt lat="41.39770808282996" lon="13.984880335135992"><ele>156.2</ele><time>2026-04-12T12:14:22Z</time></trkpt><trkpt lat="41.397787810593535" lon="13.984917400446422"><ele>156.0</ele><time>2026-04-12T12:14:23Z</time></trkpt><trkpt lat="41.39781185371191" lon="13.985076983217695"><ele>155.5</ele><time>2026-04-12T12:14:24Z</time></trkpt><trkpt lat="41.39789246953158" lon="13.985208670962455"><ele>155.0</ele><time>2026-04-12T12:14:25Z</time></trkpt><trkpt lat="41.39798296468123" lon="13.985352954836436"><ele>154.5</ele><time>2026-04-12T12:14:26Z</time></trkpt><trkpt lat="41.39806644704852" lon="13.98549357031699"><ele>154.0</ele><time>2026-04-12T12:14:27Z</time></trkpt><trkpt lat="41.3981525045098" lon="13.985639765701604"><ele>154.0</ele><time>2026-04-12T12:14:28Z</time></trkpt><trkpt lat="41.39822568229325" lon="13.98577224500005"><ele>154.0</ele><time>2026-04-12T12:14:29Z</time></trkpt><trkpt lat="41.398287061505314" lon="13.985894939878396"><ele>154.0</ele><time>2026-04-12T12:14:30Z</time></trkpt><trkpt lat="41.39833760988708" lon="13.985988038326015"><ele>154.0</ele><time>2026-04-12T12:14:31Z</time></trkpt><trkpt lat="41.398379098589764" lon="13.986057228215856"><ele>154.0</ele><time>2026-04-12T12:14:32Z</time></trkpt><trkpt lat="41.398434052477704" lon="13.986099936521361"><ele>153.33333333333334</ele><time>2026-04-12T12:14:33Z</time></trkpt><trkpt lat="41.398500317990745" lon="13.986143561016144"><ele>152.66666666666666</ele><time>2026-04-12T12:14:35Z</time></trkpt><trkpt lat="41.39839907938983" lon="13.986275435660975"><ele>152.0</ele><time>2026-04-12T12:14:42Z</time></trkpt><trkpt lat="41.398525306280476" lon="13.986628378860077"><ele>151.2</ele><time>2026-04-12T12:14:43Z</time></trkpt><trkpt lat="41.39853768961338" lon="13.986740550895064"><ele>150.39999999999998</ele><time>2026-04-12T12:14:44Z</time></trkpt><trkpt lat="41.39853146199703" lon="13.986879558779751"><ele>149.60000000000002</ele><time>2026-04-12T12:14:46Z</time></trkpt><trkpt lat="41.39844234782335" lon="13.98694453291327"><ele>148.8</ele><time>2026-04-12T12:14:48Z</time></trkpt><trkpt lat="41.398389186758024" lon="13.986996704163065"><ele>148.0</ele><time>2026-04-12T12:14:49Z</time></trkpt><trkpt lat="41.39831779681809" lon="13.987076962855223"><ele>148.0</ele><time>2026-04-12T12:14:51Z</time></trkpt><trkpt lat="41.3982974093221" lon="13.987195854345844"><ele>148.0</ele><time>2026-04-12T12:14:53Z</time></trkpt><trkpt lat="41.39831249312422" lon="13.987306266904628"><ele>148.0</ele><time>2026-04-12T12:14:54Z</time></trkpt><trkpt lat="41.398299358621564" lon="13.987413251403586"><ele>148.0</ele><time>2026-04-12T12:14:55Z</time></trkpt><trkpt lat="41.39830286478584" lon="13.987528837442117"><ele>148.0</ele><time>2026-04-12T12:14:57Z</time></trkpt><trkpt lat="41.398380590862395" lon="13.987637923439983"><ele>147.0</ele><time>2026-04-12T12:14:59Z</time></trkpt><trkpt lat="41.39851386143566" lon="13.987667553725954"><ele>146.0</ele><time>2026-04-12T12:15:01Z</time></trkpt><trkpt lat="41.398615470058125" lon="13.987668777373106"><ele>145.0</ele><time>2026-04-12T12:15:02Z</time></trkpt><trkpt lat="41.39872592418449" lon="13.987678333980469"><ele>144.0</ele><time>2026-04-12T12:15:03Z</time></trkpt><trkpt lat="41.39886687266014" lon="13.987702798450044"><ele>143.0</ele><time>2026-04-12T12:15:04Z</time></trkpt><trkpt lat="41.39901762264082" lon="13.987721468185033"><ele>142.0</ele><time>2026-04-12T12:15:05Z</time></trkpt><trkpt lat="41.39916565646644" lon="13.987724227081106"><ele>141.0</ele><time>2026-04-12T12:15:06Z</time></trkpt><trkpt lat="41.39930927526359" lon="13.987719571190219"><ele>140.0</ele><time>2026-04-12T12:15:07Z</time></trkpt><trkpt lat="41.39943751052774" lon="13.98771623919637"><ele>140.0</ele><time>2026-04-12T12:15:08Z</time></trkpt><trkpt lat="41.39955722593133" lon="13.987715964229803"><ele>140.0</ele><time>2026-04-12T12:15:09Z</time></trkpt><trkpt lat="41.399668395288806" lon="13.987705013017694"><ele>140.0</ele><time>2026-04-12T12:15:10Z</time></trkpt><trkpt lat="41.399778917470975" lon="13.987680526996193"><ele>140.0</ele><time>2026-04-12T12:15:11Z</time></trkpt><trkpt lat="41.399897027335605" lon="13.987656076745333"><ele>139.75</ele><time>2026-04-12T12:15:12Z</time></trkpt><trkpt lat="41.40002084839849" lon="13.987607771660283"><ele>139.5</ele><time>2026-04-12T12:15:13Z</time></trkpt><trkpt lat="41.40014879131809" lon="13.987568047753605"><ele>139.25</ele><time>2026-04-12T12:15:14Z</time></trkpt><trkpt lat="41.40026771714898" lon="13.98753352052239"><ele>139.0</ele><time>2026-04-12T12:15:15Z</time></trkpt><trkpt lat="41.40036312988733" lon="13.987502586910399"><ele>140.0</ele><time>2026-04-12T12:15:16Z</time></trkpt><trkpt lat="41.40044734560887" lon="13.987466938328652"><ele>141.0</ele><time>2026-04-12T12:15:17Z</time></trkpt><trkpt lat="41.40054229151107" lon="13.987409888679853"><ele>142.0</ele><time>2026-04-12T12:15:18Z</time></trkpt><trkpt lat="41.40065257748372" lon="13.987361052389014"><ele>143.0</ele><time>2026-04-12T12:15:19Z</time></trkpt><trkpt lat="41.40076762357149" lon="13.987303010556426"><ele>144.0</ele><time>2026-04-12T12:15:20Z</time></trkpt><trkpt lat="41.4008817091362" lon="13.987245742583347"><ele>144.0</ele><time>2026-04-12T12:15:21Z</time></trkpt><trkpt lat="41.40097625545168" lon="13.987196093556227"><ele>144.0</ele><time>2026-04-12T12:15:22Z</time></trkpt><trkpt lat="41.40105361685551" lon="13.98716408304558"><ele>144.0</ele><time>2026-04-12T12:15:23Z</time></trkpt><trkpt lat="41.4011470151242" lon="13.987134333187106"><ele>144.0</ele><time>2026-04-12T12:15:25Z</time></trkpt><trkpt lat="41.40121983628588" lon="13.987085873121552"><ele>144.0</ele><time>2026-04-12T12:15:26Z</time></trkpt><trkpt lat="41.40128801775743" lon="13.98703442076965"><ele>144.0</ele><time>2026-04-12T12:15:27Z</time></trkpt><trkpt lat="41.401348095975465" lon="13.98698986947902"><ele>144.0</ele><time>2026-04-12T12:15:29Z</time></trkpt><trkpt lat="41.4013272761825" lon="13.98690641804493"><ele>144.0</ele><time>2026-04-12T12:20:15Z</time></trkpt><trkpt lat="41.40146031698019" lon="13.986944380420123"><ele>144.0</ele><time>2026-04-12T12:40:51Z</time></trkpt><trkpt lat="41.40152858930656" lon="13.986926954102664"><ele>144.0</ele><time>2026-04-12T12:40:55Z</time></trkpt><trkpt lat="41.40161216412873" lon="13.986882618688957"><ele>144.0</ele><time>2026-04-12T12:41:07.001Z</time></trkpt><trkpt lat="41.40169495116441" lon="13.986833838908568"><ele>143.5</ele><time>2026-04-12T12:41:09.001Z</time></trkpt><trkpt lat="41.401783573494676" lon="13.986825416492536"><ele>143.0</ele><time>2026-04-12T12:41:19.001Z</time></trkpt><trkpt lat="41.40184460677661" lon="13.986799509831913"><ele>142.5</ele><time>2026-04-12T12:41:21.001Z</time></trkpt><trkpt lat="41.401923718174345" lon="13.986724231298536"><ele>142.0</ele><time>2026-04-12T12:41:24.001Z</time></trkpt><trkpt lat="41.40197616931585" lon="13.986628592744763"><ele>141.5</ele><time>2026-04-12T12:41:26.001Z</time></trkpt><trkpt lat="41.40201493508629" lon="13.986531236422207"><ele>141.0</ele><time>2026-04-12T12:41:28.001Z</time></trkpt><trkpt lat="41.40202762280852" lon="13.98640804375519"><ele>142.16666666666666</ele><time>2026-04-12T12:41:30.001Z</time></trkpt><trkpt lat="41.402065644272426" lon="13.9863203755509"><ele>143.33333333333334</ele><time>2026-04-12T12:41:31.001Z</time></trkpt><trkpt lat="41.402089745116164" lon="13.98623236591489"><ele>144.5</ele><time>2026-04-12T12:41:32.001Z</time></trkpt><trkpt lat="41.40208734036946" lon="13.986066694825183"><ele>145.66666666666669</ele><time>2026-04-12T12:41:34.001Z</time></trkpt><trkpt lat="41.40209857181496" lon="13.985965074960482"><ele>146.83333333333334</ele><time>2026-04-12T12:41:35.001Z</time></trkpt><trkpt lat="41.402067852723825" lon="13.985870425206304"><ele>148.0</ele><time>2026-04-12T12:41:36.001Z</time></trkpt><trkpt lat="41.402031584883524" lon="13.985760699480707"><ele>148.33333333333334</ele><time>2026-04-12T12:41:37.001Z</time></trkpt><trkpt lat="41.40200403764167" lon="13.985678438811025"><ele>148.66666666666669</ele><time>2026-04-12T12:41:38.001Z</time></trkpt><trkpt lat="41.40197792134697" lon="13.985600451532576"><ele>149.0</ele><time>2026-04-12T12:41:39.001Z</time></trkpt><trkpt lat="41.40193672096255" lon="13.985481503091508"><ele>149.33333333333334</ele><time>2026-04-12T12:41:41.001Z</time></trkpt><trkpt lat="41.401947269253675" lon="13.985363042480431"><ele>149.66666666666666</ele><time>2026-04-12T12:41:44.001Z</time></trkpt><trkpt lat="41.402055426203916" lon="13.985337300041994"><ele>150.0</ele><time>2026-04-12T12:41:45.001Z</time></trkpt><trkpt lat="41.40212958222108" lon="13.985297107796868"><ele>149.0</ele><time>2026-04-12T12:41:46.001Z</time></trkpt><trkpt lat="41.40220091057469" lon="13.985245521239158"><ele>148.0</ele><time>2026-04-12T12:41:47.001Z</time></trkpt><trkpt lat="41.40226270071008" lon="13.985177748088988"><ele>147.0</ele><time>2026-04-12T12:41:48.001Z</time></trkpt><trkpt lat="41.40232099867811" lon="13.985124153996491"><ele>146.0</ele><time>2026-04-12T12:41:49.001Z</time></trkpt><trkpt lat="41.40245206087244" lon="13.985177211993719"><ele>145.0</ele><time>2026-04-12T12:41:50.001Z</time></trkpt><trkpt lat="41.40254380427243" lon="13.985190423739702"><ele>145.0</ele><time>2026-04-12T12:41:51.001Z</time></trkpt><trkpt lat="41.402644328512096" lon="13.985209656426859"><ele>145.0</ele><time>2026-04-12T12:41:52.001Z</time></trkpt><trkpt lat="41.4027505525807" lon="13.985231800002687"><ele>145.0</ele><time>2026-04-12T12:41:53.001Z</time></trkpt><trkpt lat="41.402863178025584" lon="13.985241840447303"><ele>145.0</ele><time>2026-04-12T12:41:54.001Z</time></trkpt><trkpt lat="41.40296832788873" lon="13.985266230323205"><ele>145.0</ele><time>2026-04-12T12:41:55.001Z</time></trkpt><trkpt lat="41.403042824598266" lon="13.985317701356607"><ele>142.83333333333334</ele><time>2026-04-12T12:41:56.001Z</time></trkpt><trkpt lat="41.40310721307807" lon="13.985376364427283"><ele>140.66666666666669</ele><time>2026-04-12T12:41:57.001Z</time></trkpt><trkpt lat="41.40317398488906" lon="13.985439427571114"><ele>138.5</ele><time>2026-04-12T12:41:58.001Z</time></trkpt><trkpt lat="41.40321780317832" lon="13.985503568795755"><ele>136.33333333333334</ele><time>2026-04-12T12:41:59.001Z</time></trkpt><trkpt lat="41.40328192859729" lon="13.985638459841741"><ele>134.16666666666666</ele><time>2026-04-12T12:42:01.001Z</time></trkpt><trkpt lat="41.40331996506117" lon="13.985711589307924"><ele>132.0</ele><time>2026-04-12T12:42:02.001Z</time></trkpt><trkpt lat="41.40353511780938" lon="13.985615406078924"><ele>132.0</ele><time>2026-04-12T12:42:03.001Z</time></trkpt><trkpt lat="41.40362341926732" lon="13.98564559095143"><ele>132.0</ele><time>2026-04-12T12:42:04.002Z</time></trkpt><trkpt lat="41.40370328599919" lon="13.985693431391166"><ele>132.0</ele><time>2026-04-12T12:42:05.002Z</time></trkpt><trkpt lat="41.403771939955824" lon="13.985756580120835"><ele>132.0</ele><time>2026-04-12T12:42:06.002Z</time></trkpt><trkpt lat="41.4038164381057" lon="13.98582815465159"><ele>132.0</ele><time>2026-04-12T12:42:07.002Z</time></trkpt><trkpt lat="41.40384813398653" lon="13.985916785274364"><ele>132.0</ele><time>2026-04-12T12:42:08.002Z</time></trkpt><trkpt lat="41.40389371177916" lon="13.985995407539482"><ele>130.0</ele><time>2026-04-12T12:42:09.002Z</time></trkpt><trkpt lat="41.403918352968795" lon="13.986095095394669"><ele>128.0</ele><time>2026-04-12T12:42:10.002Z</time></trkpt><trkpt lat="41.40396173571123" lon="13.986180320881266"><ele>126.0</ele><time>2026-04-12T12:42:11.002Z</time></trkpt><trkpt lat="41.40401088255924" lon="13.986254559978896"><ele>124.0</ele><time>2026-04-12T12:42:12.002Z</time></trkpt><trkpt lat="41.40406573299952" lon="13.98634491172352"><ele>122.0</ele><time>2026-04-12T12:42:13.002Z</time></trkpt><trkpt lat="41.40411346871404" lon="13.98641455776573"><ele>120.0</ele><time>2026-04-12T12:42:14.002Z</time></trkpt><trkpt lat="41.40418265331841" lon="13.9864492123245"><ele>120.0</ele><time>2026-04-12T12:42:15.002Z</time></trkpt><trkpt lat="41.40426719201143" lon="13.986455516557166"><ele>120.0</ele><time>2026-04-12T12:42:16.002Z</time></trkpt><trkpt lat="41.404352909574925" lon="13.986454270112292"><ele>120.0</ele><time>2026-04-12T12:42:17.002Z</time></trkpt><trkpt lat="41.40443672283549" lon="13.98641133193834"><ele>120.0</ele><time>2026-04-12T12:42:18.001Z</time></trkpt><trkpt lat="41.40454078051943" lon="13.986362461755679"><ele>120.0</ele><time>2026-04-12T12:42:19.001Z</time></trkpt><trkpt lat="41.404649049126824" lon="13.98631522638953"><ele>119.16666666666667</ele><time>2026-04-12T12:42:20.001Z</time></trkpt><trkpt lat="41.40471928888099" lon="13.986307887890916"><ele>118.33333333333334</ele><time>2026-04-12T12:42:21.001Z</time></trkpt><trkpt lat="41.404797945007275" lon="13.986294288549518"><ele>117.5</ele><time>2026-04-12T12:42:23Z</time></trkpt><trkpt lat="41.40478015636672" lon="13.986195631471224"><ele>116.66666666666667</ele><time>2026-04-12T12:42:25Z</time></trkpt><trkpt lat="41.4048298114024" lon="13.98613835857749"><ele>115.83333333333334</ele><time>2026-04-12T12:42:26Z</time></trkpt><trkpt lat="41.404874424249954" lon="13.986015293790153"><ele>115.0</ele><time>2026-04-12T12:42:27Z</time></trkpt><trkpt lat="41.40490903486516" lon="13.985889373728984"><ele>115.16666666666667</ele><time>2026-04-12T12:42:28Z</time></trkpt><trkpt lat="41.404937745660575" lon="13.98578533786499"><ele>115.33333333333334</ele><time>2026-04-12T12:42:29Z</time></trkpt><trkpt lat="41.40491198308884" lon="13.985683818582388"><ele>115.5</ele><time>2026-04-12T12:42:31Z</time></trkpt><trkpt lat="41.404903253868646" lon="13.985587654808374"><ele>115.66666666666666</ele><time>2026-04-12T12:42:33Z</time></trkpt><trkpt lat="41.40496955029693" lon="13.985484163809257"><ele>115.83333333333333</ele><time>2026-04-12T12:42:38Z</time></trkpt><trkpt lat="41.40499381066483" lon="13.98539655934394"><ele>116.0</ele><time>2026-04-12T12:42:40Z</time></trkpt><trkpt lat="41.40499493199032" lon="13.985283216830057"><ele>115.99999999999999</ele><time>2026-04-12T12:42:42.001Z</time></trkpt><trkpt lat="41.405046033332724" lon="13.985212580724482"><ele>116.0</ele><time>2026-04-12T12:42:45.001Z</time></trkpt><trkpt lat="41.40511173283453" lon="13.985148528539192"><ele>116.0</ele><time>2026-04-12T12:42:48.001Z</time></trkpt><trkpt lat="41.40509566145542" lon="13.985062330067203"><ele>116.0</ele><time>2026-04-12T12:42:52.001Z</time></trkpt><trkpt lat="41.40504982596462" lon="13.984934436153203"><ele>115.99999999999999</ele><time>2026-04-12T12:42:55.001Z</time></trkpt><trkpt lat="41.40503876143388" lon="13.984832709895887"><ele>116.0</ele><time>2026-04-12T12:43:01.001Z</time></trkpt><trkpt lat="41.405074039701255" lon="13.984749781366636"><ele>117.4</ele><time>2026-04-12T12:43:03.001Z</time></trkpt><trkpt lat="41.40514782576588" lon="13.984685480177443"><ele>118.8</ele><time>2026-04-12T12:43:06.001Z</time></trkpt><trkpt lat="41.40523274366246" lon="13.984581446492099"><ele>120.20000000000002</ele><time>2026-04-12T12:43:08.001Z</time></trkpt><trkpt lat="41.40530402519357" lon="13.984496745635603"><ele>121.60000000000001</ele><time>2026-04-12T12:43:09.001Z</time></trkpt><trkpt lat="41.4054370456165" lon="13.984423075908753"><ele>123.0</ele><time>2026-04-12T12:43:11.001Z</time></trkpt><trkpt lat="41.40551143157088" lon="13.984360734693544"><ele>123.66666666666666</ele><time>2026-04-12T12:43:14.001Z</time></trkpt><trkpt lat="41.405601077949306" lon="13.984328317941479"><ele>124.33333333333333</ele><time>2026-04-12T12:43:16.001Z</time></trkpt><trkpt lat="41.40569633245809" lon="13.984255333759906"><ele>125.0</ele><time>2026-04-12T12:43:18.001Z</time></trkpt><trkpt lat="41.40621840037635" lon="13.984161353432404"><ele>124.2</ele><time>2026-04-12T12:43:21.001Z</time></trkpt><trkpt lat="41.40629461839756" lon="13.984095167278685"><ele>123.4</ele><time>2026-04-12T12:43:22.001Z</time></trkpt><trkpt lat="41.40637191411071" lon="13.984062854680852"><ele>122.6</ele><time>2026-04-12T12:43:23.001Z</time></trkpt><trkpt lat="41.40656784927677" lon="13.984049694830054"><ele>121.8</ele><time>2026-04-12T12:43:27.001Z</time></trkpt><trkpt lat="41.4066298693773" lon="13.983981280764333"><ele>121.0</ele><time>2026-04-12T12:43:30.001Z</time></trkpt><trkpt lat="41.40665413970345" lon="13.983882006799787"><ele>121.0</ele><time>2026-04-12T12:43:32.001Z</time></trkpt><trkpt lat="41.40672251915961" lon="13.983719000290485"><ele>121.0</ele><time>2026-04-12T12:43:34.001Z</time></trkpt><trkpt lat="41.40673995339457" lon="13.983610379683471"><ele>121.0</ele><time>2026-04-12T12:43:35.001Z</time></trkpt><trkpt lat="41.406722139356646" lon="13.983511845164262"><ele>121.0</ele><time>2026-04-12T12:43:36.001Z</time></trkpt><trkpt lat="41.40676467842781" lon="13.983437915300991"><ele>121.0</ele><time>2026-04-12T12:43:37.001Z</time></trkpt><trkpt lat="41.40678343669674" lon="13.98331593862621"><ele>121.0</ele><time>2026-04-12T12:43:40.001Z</time></trkpt><trkpt lat="41.40684177077706" lon="13.983254392345712"><ele>121.0</ele><time>2026-04-12T12:43:41.001Z</time></trkpt><trkpt lat="41.406906530650105" lon="13.9832030995331"><ele>121.0</ele><time>2026-04-12T12:43:42.001Z</time></trkpt><trkpt lat="41.40697836234758" lon="13.983153729811448"><ele>121.0</ele><time>2026-04-12T12:43:44.001Z</time></trkpt><trkpt lat="41.40705361102984" lon="13.98324384084455"><ele>121.0</ele><time>2026-04-12T12:43:48.001Z</time></trkpt><trkpt lat="41.40721569625131" lon="13.983312088127125"><ele>122.4</ele><time>2026-04-12T12:43:50.001Z</time></trkpt><trkpt lat="41.40730832805402" lon="13.98335776759698"><ele>123.8</ele><time>2026-04-12T12:43:51.001Z</time></trkpt><trkpt lat="41.40737011343678" lon="13.983407493260612"><ele>125.20000000000002</ele><time>2026-04-12T12:43:52.001Z</time></trkpt><trkpt lat="41.40746870068232" lon="13.983487933061081"><ele>126.60000000000001</ele><time>2026-04-12T12:43:54.001Z</time></trkpt><trkpt lat="41.40752018890334" lon="13.983555960686651"><ele>128.0</ele><time>2026-04-12T12:43:55.002Z</time></trkpt><trkpt lat="41.407575418962104" lon="13.983652752699845"><ele>128.0</ele><time>2026-04-12T12:43:57.002Z</time></trkpt><trkpt lat="41.40763896056266" lon="13.98356721425815"><ele>128.0</ele><time>2026-04-12T12:43:58.002Z</time></trkpt><trkpt lat="41.40773093911231" lon="13.983302318232646"><ele>128.0</ele><time>2026-04-12T12:44:02.002Z</time></trkpt><trkpt lat="41.407753818509214" lon="13.983133918761656"><ele>128.0</ele><time>2026-04-12T12:44:03.002Z</time></trkpt><trkpt lat="41.407801903800134" lon="13.98297751677011"><ele>127.75</ele><time>2026-04-12T12:44:04.002Z</time></trkpt><trkpt lat="41.407896531029785" lon="13.982797578449356"><ele>127.5</ele><time>2026-04-12T12:44:05.002Z</time></trkpt><trkpt lat="41.40796232778207" lon="13.982653785962867"><ele>127.25</ele><time>2026-04-12T12:44:06.002Z</time></trkpt><trkpt lat="41.408032096992756" lon="13.98252351360686"><ele>127.0</ele><time>2026-04-12T12:44:07.002Z</time></trkpt><trkpt lat="41.40810893709983" lon="13.982425265222615"><ele>127.0</ele><time>2026-04-12T12:44:08.002Z</time></trkpt><trkpt lat="41.408157423358766" lon="13.982345602693501"><ele>126.99999999999999</ele><time>2026-04-12T12:44:09.002Z</time></trkpt><trkpt lat="41.408178870373085" lon="13.982266090383282"><ele>126.99999999999999</ele><time>2026-04-12T12:44:11.002Z</time></trkpt><trkpt lat="41.408194443938015" lon="13.982492461275912"><ele>127.0</ele><time>2026-04-12T12:44:23.002Z</time></trkpt><trkpt lat="41.40825391660017" lon="13.982531407441241"><ele>127.0</ele><time>2026-04-12T12:44:24.001Z</time></trkpt><trkpt lat="41.40832232796856" lon="13.982569743875061"><ele>127.00000000000001</ele><time>2026-04-12T12:44:25.001Z</time></trkpt><trkpt lat="41.40837916960936" lon="13.982643572044932"><ele>127.0</ele><time>2026-04-12T12:44:26.001Z</time></trkpt><trkpt lat="41.40843580008465" lon="13.982720977974944"><ele>127.0</ele><time>2026-04-12T12:44:27.001Z</time></trkpt><trkpt lat="41.40847991550982" lon="13.982803697105467"><ele>127.0</ele><time>2026-04-12T12:44:28.001Z</time></trkpt><trkpt lat="41.408575896012906" lon="13.982883200383547"><ele>127.00000000000001</ele><time>2026-04-12T12:44:29.001Z</time></trkpt><trkpt lat="41.40864944240881" lon="13.982929555488637"><ele>127.0</ele><time>2026-04-12T12:44:30.001Z</time></trkpt><trkpt lat="41.40875008920301" lon="13.98298489682712"><ele>126.8</ele><time>2026-04-12T12:44:31.001Z</time></trkpt><trkpt lat="41.40886858769253" lon="13.982945558382779"><ele>126.6</ele><time>2026-04-12T12:44:33.001Z</time></trkpt><trkpt lat="41.408961726351734" lon="13.982842008820793"><ele>126.39999999999999</ele><time>2026-04-12T12:44:34.001Z</time></trkpt><trkpt lat="41.40904430612806" lon="13.982764198750559"><ele>126.19999999999999</ele><time>2026-04-12T12:44:35.001Z</time></trkpt><trkpt lat="41.409134408009734" lon="13.982717785760842"><ele>126.0</ele><time>2026-04-12T12:44:36.001Z</time></trkpt><trkpt lat="41.4092273454972" lon="13.982699968244658"><ele>126.0</ele><time>2026-04-12T12:44:37.001Z</time></trkpt><trkpt lat="41.409329335808984" lon="13.98271542069346"><ele>126.0</ele><time>2026-04-12T12:44:38.001Z</time></trkpt><trkpt lat="41.409429825326235" lon="13.982722540372263"><ele>126.0</ele><time>2026-04-12T12:44:39.001Z</time></trkpt><trkpt lat="41.4095228656046" lon="13.982702380694759"><ele>126.0</ele><time>2026-04-12T12:44:40.001Z</time></trkpt><trkpt lat="41.409618352351444" lon="13.982619999146902"><ele>126.0</ele><time>2026-04-12T12:44:41.001Z</time></trkpt><trkpt lat="41.4097077839019" lon="13.982541411185627"><ele>125.6</ele><time>2026-04-12T12:44:42.001Z</time></trkpt><trkpt lat="41.4097863040217" lon="13.982491415946717"><ele>125.19999999999999</ele><time>2026-04-12T12:44:43.001Z</time></trkpt><trkpt lat="41.40987316739861" lon="13.982431801931302"><ele>124.80000000000001</ele><time>2026-04-12T12:44:44.001Z</time></trkpt><trkpt lat="41.409978517536906" lon="13.982367317479858"><ele>124.4</ele><time>2026-04-12T12:44:45.001Z</time></trkpt><trkpt lat="41.41009524829212" lon="13.982289150374921"><ele>124.0</ele><time>2026-04-12T12:44:46.001Z</time></trkpt><trkpt lat="41.41021725772197" lon="13.982198351933599"><ele>124.0</ele><time>2026-04-12T12:44:47.001Z</time></trkpt><trkpt lat="41.41034420157316" lon="13.98211022776736"><ele>124.0</ele><time>2026-04-12T12:44:48.001Z</time></trkpt><trkpt lat="41.41046844988717" lon="13.982033284619597"><ele>124.0</ele><time>2026-04-12T12:44:49.001Z</time></trkpt><trkpt lat="41.41058181664834" lon="13.981959947222625"><ele>124.0</ele><time>2026-04-12T12:44:50.001Z</time></trkpt><trkpt lat="41.410691347479215" lon="13.981885920057747"><ele>123.6</ele><time>2026-04-12T12:44:51.001Z</time></trkpt><trkpt lat="41.41079253793628" lon="13.981816798827445"><ele>123.2</ele><time>2026-04-12T12:44:52.001Z</time></trkpt><trkpt lat="41.41089280627733" lon="13.981748585456508"><ele>122.79999999999998</ele><time>2026-04-12T12:44:53.001Z</time></trkpt><trkpt lat="41.410981928495794" lon="13.981689052224436"><ele>122.39999999999999</ele><time>2026-04-12T12:44:54.001Z</time></trkpt><trkpt lat="41.411072440035255" lon="13.98162290133874"><ele>122.0</ele><time>2026-04-12T12:44:55.001Z</time></trkpt><trkpt lat="41.411161237236485" lon="13.981537866361279"><ele>122.0</ele><time>2026-04-12T12:44:56.001Z</time></trkpt><trkpt lat="41.411252230313195" lon="13.98142911833336"><ele>122.0</ele><time>2026-04-12T12:44:57.001Z</time></trkpt><trkpt lat="41.411336130088806" lon="13.981302470690194"><ele>122.0</ele><time>2026-04-12T12:44:58.001Z</time></trkpt><trkpt lat="41.41142059073861" lon="13.981161625222148"><ele>122.0</ele><time>2026-04-12T12:44:59.001Z</time></trkpt><trkpt lat="41.41150132989723" lon="13.981010061045495"><ele>121.75</ele><time>2026-04-12T12:45:00.001Z</time></trkpt><trkpt lat="41.41160317119697" lon="13.980873197592004"><ele>121.5</ele><time>2026-04-12T12:45:01.001Z</time></trkpt><trkpt lat="41.41168639699973" lon="13.980724618941219"><ele>121.25</ele><time>2026-04-12T12:45:02.001Z</time></trkpt><trkpt lat="41.41177711204317" lon="13.980598510895799"><ele>121.0</ele><time>2026-04-12T12:45:03.001Z</time></trkpt><trkpt lat="41.41186589829039" lon="13.98047223410276"><ele>121.0</ele><time>2026-04-12T12:45:04.001Z</time></trkpt><trkpt lat="41.41195277627518" lon="13.980343609271733"><ele>121.0</ele><time>2026-04-12T12:45:05.001Z</time></trkpt><trkpt lat="41.41202434475237" lon="13.980229545925976"><ele>121.0</ele><time>2026-04-12T12:45:06.001Z</time></trkpt><trkpt lat="41.41208031937843" lon="13.980135923874753"><ele>121.0</ele><time>2026-04-12T12:45:07.001Z</time></trkpt><trkpt lat="41.412116129752114" lon="13.980055802185754"><ele>121.0</ele><time>2026-04-12T12:45:08.001Z</time></trkpt><trkpt lat="41.41216167598779" lon="13.97999246024794"><ele>121.5</ele><time>2026-04-12T12:45:09.001Z</time></trkpt><trkpt lat="41.412206231972355" lon="13.979917494374298"><ele>122.0</ele><time>2026-04-12T12:45:11.001Z</time></trkpt><trkpt lat="41.41202702311765" lon="13.979725658518275"><ele>122.5</ele><time>2026-04-12T12:45:12.001Z</time></trkpt><trkpt lat="41.41195457837475" lon="13.979617225696105"><ele>123.0</ele><time>2026-04-12T12:45:13.001Z</time></trkpt><trkpt lat="41.411888649237014" lon="13.979481816082338"><ele>121.60000000000001</ele><time>2026-04-12T12:45:14.001Z</time></trkpt><trkpt lat="41.41183330288359" lon="13.979338831076127"><ele>120.20000000000002</ele><time>2026-04-12T12:45:15.001Z</time></trkpt><trkpt lat="41.41180205526007" lon="13.97920601960664"><ele>118.8</ele><time>2026-04-12T12:45:16.001Z</time></trkpt><trkpt lat="41.4117779863088" lon="13.979102051799225"><ele>117.4</ele><time>2026-04-12T12:45:17.001Z</time></trkpt><trkpt lat="41.411769031716105" lon="13.978960426443143"><ele>116.0</ele><time>2026-04-12T12:45:19.001Z</time></trkpt><trkpt lat="41.411822522003035" lon="13.978889313653786"><ele>115.49999999999999</ele><time>2026-04-12T12:45:21.001Z</time></trkpt><trkpt lat="41.411734212496796" lon="13.978859019555363"><ele>115.0</ele><time>2026-04-12T12:45:24.001Z</time></trkpt><trkpt lat="41.41162865137684" lon="13.978779896499137"><ele>114.5</ele><time>2026-04-12T12:45:26.001Z</time></trkpt><trkpt lat="41.41160617783019" lon="13.978699302885076"><ele>114.0</ele><time>2026-04-12T12:45:27.001Z</time></trkpt><trkpt lat="41.41157908093647" lon="13.978609423033564"><ele>113.49999999999999</ele><time>2026-04-12T12:45:28.001Z</time></trkpt><trkpt lat="41.41156626135269" lon="13.97851069443696"><ele>113.0</ele><time>2026-04-12T12:45:29.001Z</time></trkpt><trkpt lat="41.41150469235198" lon="13.978461667574933"><ele>112.99999999999999</ele><time>2026-04-12T12:45:32.001Z</time></trkpt><trkpt lat="41.41145250815399" lon="13.978393401879206"><ele>113.0</ele><time>2026-04-12T12:45:34.001Z</time></trkpt><trkpt lat="41.4114057498294" lon="13.978331051286457"><ele>113.0</ele><time>2026-04-12T12:45:36.001Z</time></trkpt><trkpt lat="41.41139427364815" lon="13.978204424382167"><ele>113.0</ele><time>2026-04-12T12:45:37.001Z</time></trkpt><trkpt lat="41.411412623016375" lon="13.978101577790373"><ele>112.99999999999999</ele><time>2026-04-12T12:45:38.001Z</time></trkpt><trkpt lat="41.4114609326933" lon="13.978007564416028"><ele>113.0</ele><time>2026-04-12T12:45:39.001Z</time></trkpt><trkpt lat="41.41153543048258" lon="13.977906296720423"><ele>112.83333333333333</ele><time>2026-04-12T12:45:40.001Z</time></trkpt><trkpt lat="41.41159848345469" lon="13.977833861511902"><ele>112.66666666666666</ele><time>2026-04-12T12:45:41.001Z</time></trkpt><trkpt lat="41.41169003063828" lon="13.977758312779116"><ele>112.5</ele><time>2026-04-12T12:45:43.001Z</time></trkpt><trkpt lat="41.411716605384875" lon="13.97765946584188"><ele>112.33333333333334</ele><time>2026-04-12T12:45:45.001Z</time></trkpt><trkpt lat="41.41171590645976" lon="13.977528389128375"><ele>112.16666666666667</ele><time>2026-04-12T12:45:48.001Z</time></trkpt><trkpt lat="41.411707558385054" lon="13.977423819483967"><ele>112.0</ele><time>2026-04-12T12:45:49.001Z</time></trkpt><trkpt lat="41.41166757476175" lon="13.977343207235467"><ele>111.39999999999999</ele><time>2026-04-12T12:45:50.001Z</time></trkpt><trkpt lat="41.41166287244321" lon="13.977192800029048"><ele>110.79999999999998</ele><time>2026-04-12T12:45:52.001Z</time></trkpt><trkpt lat="41.41166812476852" lon="13.977101234943879"><ele>110.2</ele><time>2026-04-12T12:45:53.001Z</time></trkpt><trkpt lat="41.411650397999836" lon="13.976916402080665"><ele>109.6</ele><time>2026-04-12T12:45:55.001Z</time></trkpt><trkpt lat="41.411617267248836" lon="13.976810986547985"><ele>109.0</ele><time>2026-04-12T12:45:57.001Z</time></trkpt><trkpt lat="41.411520085611805" lon="13.976766466562339"><ele>108.16666666666667</ele><time>2026-04-12T12:45:59.001Z</time></trkpt><trkpt lat="41.41149030300406" lon="13.976645063672498"><ele>107.33333333333334</ele><time>2026-04-12T12:46:01.001Z</time></trkpt><trkpt lat="41.411503423239864" lon="13.97653385468149"><ele>106.5</ele><time>2026-04-12T12:46:03.001Z</time></trkpt><trkpt lat="41.411539182449125" lon="13.976451835614819"><ele>105.66666666666666</ele><time>2026-04-12T12:46:08.001Z</time></trkpt><trkpt lat="41.411623983336554" lon="13.976416199665175"><ele>104.83333333333333</ele><time>2026-04-12T12:46:10.001Z</time></trkpt><trkpt lat="41.41167847289642" lon="13.976346381322779"><ele>104.0</ele><time>2026-04-12T12:46:12.002Z</time></trkpt><trkpt lat="41.411737720824306" lon="13.976278068624246"><ele>104.0</ele><time>2026-04-12T12:46:13.002Z</time></trkpt><trkpt lat="41.41180220457346" lon="13.97616826212559"><ele>104.0</ele><time>2026-04-12T12:46:15.002Z</time></trkpt><trkpt lat="41.41179134936905" lon="13.976031842562952"><ele>104.0</ele><time>2026-04-12T12:46:18.002Z</time></trkpt><trkpt lat="41.41178046469978" lon="13.97587236796915"><ele>104.0</ele><time>2026-04-12T12:46:19.002Z</time></trkpt><trkpt lat="41.411732329889645" lon="13.97571432517415"><ele>104.4</ele><time>2026-04-12T12:46:21.002Z</time></trkpt><trkpt lat="41.411721705092944" lon="13.975586862777359"><ele>104.80000000000001</ele><time>2026-04-12T12:46:23.002Z</time></trkpt><trkpt lat="41.41172429866637" lon="13.975478338200283"><ele>105.19999999999999</ele><time>2026-04-12T12:46:24.002Z</time></trkpt><trkpt lat="41.411745048420066" lon="13.975358312102621"><ele>105.6</ele><time>2026-04-12T12:46:25.002Z</time></trkpt><trkpt lat="41.411768752520786" lon="13.975271638098668"><ele>106.0</ele><time>2026-04-12T12:46:26.002Z</time></trkpt><trkpt lat="41.41181686961113" lon="13.975128738583681"><ele>106.0</ele><time>2026-04-12T12:46:28.002Z</time></trkpt><trkpt lat="41.4117859410123" lon="13.97503833745177"><ele>106.0</ele><time>2026-04-12T12:46:31.001Z</time></trkpt><trkpt lat="41.411690272717145" lon="13.97508625025894"><ele>106.0</ele><time>2026-04-12T12:46:33.001Z</time></trkpt><trkpt lat="41.41161934230182" lon="13.975226574354533"><ele>106.0</ele><time>2026-04-12T12:46:35.001Z</time></trkpt><trkpt lat="41.41153440078962" lon="13.975292313009865"><ele>106.0</ele><time>2026-04-12T12:46:37.001Z</time></trkpt><trkpt lat="41.41144433469852" lon="13.975334292475251"><ele>106.0</ele><time>2026-04-12T12:46:39.001Z</time></trkpt><trkpt lat="41.411433987771744" lon="13.975214247017407"><ele>106.0</ele><time>2026-04-12T12:46:45.001Z</time></trkpt><trkpt lat="41.41150702457181" lon="13.975133811815178"><ele>106.0</ele><time>2026-04-12T12:46:48.001Z</time></trkpt><trkpt lat="41.411594120528285" lon="13.974997676859822"><ele>106.0</ele><time>2026-04-12T12:46:49.001Z</time></trkpt><trkpt lat="41.41169766513063" lon="13.974731519217679"><ele>107.25</ele><time>2026-04-12T12:46:50.001Z</time></trkpt><trkpt lat="41.411771692642944" lon="13.974567333859163"><ele>108.5</ele><time>2026-04-12T12:46:51.001Z</time></trkpt><trkpt lat="41.411836738349166" lon="13.974407106677978"><ele>109.75</ele><time>2026-04-12T12:46:52.001Z</time></trkpt><trkpt lat="41.41183745075383" lon="13.974268370663232"><ele>111.0</ele><time>2026-04-12T12:46:53.001Z</time></trkpt><trkpt lat="41.41185452741564" lon="13.974089460860547"><ele>111.75</ele><time>2026-04-12T12:46:54.001Z</time></trkpt><trkpt lat="41.41187275728832" lon="13.973937565099211"><ele>112.5</ele><time>2026-04-12T12:46:55.001Z</time></trkpt><trkpt lat="41.411922425904585" lon="13.97380152703385"><ele>113.25</ele><time>2026-04-12T12:46:56.001Z</time></trkpt><trkpt lat="41.41197702731303" lon="13.973685973519881"><ele>114.0</ele><time>2026-04-12T12:46:57.001Z</time></trkpt><trkpt lat="41.41207143531691" lon="13.973564065896461"><ele>112.25</ele><time>2026-04-12T12:46:58.001Z</time></trkpt><trkpt lat="41.41216662990067" lon="13.973428768235996"><ele>110.5</ele><time>2026-04-12T12:46:59.001Z</time></trkpt><trkpt lat="41.41227205161551" lon="13.973262276094964"><ele>108.75</ele><time>2026-04-12T12:47:00.001Z</time></trkpt><trkpt lat="41.412366414086534" lon="13.9731237592636"><ele>107.0</ele><time>2026-04-12T12:47:01.001Z</time></trkpt><trkpt lat="41.41244946165243" lon="13.972999188549847"><ele>107.0</ele><time>2026-04-12T12:47:02.001Z</time></trkpt><trkpt lat="41.412522984796155" lon="13.972892907586195"><ele>107.0</ele><time>2026-04-12T12:47:03.001Z</time></trkpt><trkpt lat="41.41259937416505" lon="13.972795734136108"><ele>107.0</ele><time>2026-04-12T12:47:04.001Z</time></trkpt><trkpt lat="41.41270843981135" lon="13.972708840545103"><ele>107.0</ele><time>2026-04-12T12:47:05.001Z</time></trkpt><trkpt lat="41.41280508369325" lon="13.972618341493149"><ele>107.0</ele><time>2026-04-12T12:47:06.001Z</time></trkpt><trkpt lat="41.41287465850255" lon="13.972531176625392"><ele>106.99999999999999</ele><time>2026-04-12T12:47:07.001Z</time></trkpt><trkpt lat="41.41292783877289" lon="13.972409065205644"><ele>106.99999999999999</ele><time>2026-04-12T12:47:08.001Z</time></trkpt><trkpt lat="41.412953164470174" lon="13.972253553841703"><ele>107.0</ele><time>2026-04-12T12:47:09.001Z</time></trkpt><trkpt lat="41.41299221930748" lon="13.972122003421761"><ele>107.0</ele><time>2026-04-12T12:47:10.001Z</time></trkpt><trkpt lat="41.41302118252163" lon="13.971976890174037"><ele>106.5</ele><time>2026-04-12T12:47:11.001Z</time></trkpt><trkpt lat="41.4130635252913" lon="13.971869358383431"><ele>106.0</ele><time>2026-04-12T12:47:12.001Z</time></trkpt><trkpt lat="41.4130392452467" lon="13.971746483635927"><ele>105.5</ele><time>2026-04-12T12:47:13.001Z</time></trkpt><trkpt lat="41.41304115968975" lon="13.971482428225489"><ele>105.0</ele><time>2026-04-12T12:47:14.001Z</time></trkpt><trkpt lat="41.413015268328344" lon="13.971332062686557"><ele>105.0</ele><time>2026-04-12T12:47:15.001Z</time></trkpt><trkpt lat="41.41299290033238" lon="13.971214311332021"><ele>105.0</ele><time>2026-04-12T12:47:16.001Z</time></trkpt><trkpt lat="41.412976004903726" lon="13.97105508442873"><ele>105.0</ele><time>2026-04-12T12:47:17.001Z</time></trkpt><trkpt lat="41.412976732823964" lon="13.97091216824617"><ele>105.0</ele><time>2026-04-12T12:47:18.001Z</time></trkpt><trkpt lat="41.412968954492364" lon="13.97078964327361"><ele>105.0</ele><time>2026-04-12T12:47:19.001Z</time></trkpt><trkpt lat="41.41295689677747" lon="13.970690835575434"><ele>105.0</ele><time>2026-04-12T12:47:20.001Z</time></trkpt><trkpt lat="41.412968486175686" lon="13.97056412156543"><ele>105.0</ele><time>2026-04-12T12:47:21.001Z</time></trkpt><trkpt lat="41.41299275585584" lon="13.970479356243338"><ele>105.0</ele><time>2026-04-12T12:47:22.001Z</time></trkpt><trkpt lat="41.4129839330104" lon="13.970350208747693"><ele>105.0</ele><time>2026-04-12T12:47:23.001Z</time></trkpt><trkpt lat="41.412985906358905" lon="13.970215800187942"><ele>105.0</ele><time>2026-04-12T12:47:24.001Z</time></trkpt><trkpt lat="41.41298535877951" lon="13.970099347304716"><ele>105.0</ele><time>2026-04-12T12:47:25.001Z</time></trkpt><trkpt lat="41.413054705639176" lon="13.969918887052236"><ele>105.16666666666667</ele><time>2026-04-12T12:47:26.001Z</time></trkpt><trkpt lat="41.413112573023554" lon="13.969789280259434"><ele>105.33333333333334</ele><time>2026-04-12T12:47:27.001Z</time></trkpt><trkpt lat="41.413151405100116" lon="13.96965869900959"><ele>105.5</ele><time>2026-04-12T12:47:28.001Z</time></trkpt><trkpt lat="41.41318022738844" lon="13.969566559912696"><ele>105.66666666666667</ele><time>2026-04-12T12:47:29.001Z</time></trkpt><trkpt lat="41.41320062018498" lon="13.969464975446883"><ele>105.83333333333334</ele><time>2026-04-12T12:47:30.001Z</time></trkpt><trkpt lat="41.413218955062945" lon="13.96938024806131"><ele>106.0</ele><time>2026-04-12T12:47:31.001Z</time></trkpt><trkpt lat="41.413236127718456" lon="13.969296983158856"><ele>106.0</ele><time>2026-04-12T12:47:33.001Z</time></trkpt><trkpt lat="41.413227332761686" lon="13.969203236564338"><ele>106.0</ele><time>2026-04-12T12:47:34.001Z</time></trkpt><trkpt lat="41.41312015929711" lon="13.969048335874378"><ele>106.0</ele><time>2026-04-12T12:47:36.001Z</time></trkpt><trkpt lat="41.41304888346565" lon="13.969023218998432"><ele>106.0</ele><time>2026-04-12T12:47:37.001Z</time></trkpt><trkpt lat="41.412944996149335" lon="13.968935282874714"><ele>106.0</ele><time>2026-04-12T12:47:39.001Z</time></trkpt><trkpt lat="41.41289882205652" lon="13.968877777218148"><ele>105.4</ele><time>2026-04-12T12:47:40.001Z</time></trkpt><trkpt lat="41.41283496639949" lon="13.968820834574613"><ele>104.8</ele><time>2026-04-12T12:47:41.001Z</time></trkpt><trkpt lat="41.41278372130578" lon="13.968719203248341"><ele>104.2</ele><time>2026-04-12T12:47:42.001Z</time></trkpt><trkpt lat="41.41286084033852" lon="13.96864184358642"><ele>103.60000000000001</ele><time>2026-04-12T12:47:44.001Z</time></trkpt><trkpt lat="41.41292695158226" lon="13.968621807526628"><ele>103.0</ele><time>2026-04-12T12:47:45.001Z</time></trkpt><trkpt lat="41.413061860973" lon="13.968517687909367"><ele>103.0</ele><time>2026-04-12T12:47:47.001Z</time></trkpt><trkpt lat="41.41312479416625" lon="13.968429488173626"><ele>103.0</ele><time>2026-04-12T12:47:48.001Z</time></trkpt><trkpt lat="41.413223051145074" lon="13.968355420621187"><ele>103.0</ele><time>2026-04-12T12:47:49.001Z</time></trkpt><trkpt lat="41.41333535535379" lon="13.968239672768847"><ele>103.0</ele><time>2026-04-12T12:47:50.001Z</time></trkpt><trkpt lat="41.41346233863844" lon="13.968098291484905"><ele>103.33333333333334</ele><time>2026-04-12T12:47:51.001Z</time></trkpt><trkpt lat="41.41359460989505" lon="13.967938813288002"><ele>103.66666666666666</ele><time>2026-04-12T12:47:52.001Z</time></trkpt><trkpt lat="41.413727120288115" lon="13.967802979854877"><ele>104.0</ele><time>2026-04-12T12:47:53.001Z</time></trkpt><trkpt lat="41.41385531656626" lon="13.967693017944278"><ele>104.25</ele><time>2026-04-12T12:47:54.001Z</time></trkpt><trkpt lat="41.4139746269897" lon="13.967618256247318"><ele>104.5</ele><time>2026-04-12T12:47:55.001Z</time></trkpt><trkpt lat="41.414093322093656" lon="13.967564172095205"><ele>104.75</ele><time>2026-04-12T12:47:56.001Z</time></trkpt><trkpt lat="41.41420341890287" lon="13.967492805048726"><ele>105.0</ele><time>2026-04-12T12:47:57.001Z</time></trkpt><trkpt lat="41.414312309347764" lon="13.967381742928586"><ele>105.4</ele><time>2026-04-12T12:47:58.001Z</time></trkpt><trkpt lat="41.41441062458352" lon="13.967256023224177"><ele>105.8</ele><time>2026-04-12T12:47:59.001Z</time></trkpt><trkpt lat="41.41450496600022" lon="13.967140124946178"><ele>106.19999999999999</ele><time>2026-04-12T12:48:00.001Z</time></trkpt><trkpt lat="41.414584421981765" lon="13.96705710541183"><ele>106.6</ele><time>2026-04-12T12:48:01.001Z</time></trkpt><trkpt lat="41.414644411082804" lon="13.966996770401725"><ele>107.0</ele><time>2026-04-12T12:48:02.001Z</time></trkpt><trkpt lat="41.414733798405535" lon="13.966958816167676"><ele>106.99999999999999</ele><time>2026-04-12T12:48:04.001Z</time></trkpt><trkpt lat="41.41479143251027" lon="13.967006226565283"><ele>107.0</ele><time>2026-04-12T12:48:05.001Z</time></trkpt><trkpt lat="41.41486116425292" lon="13.967059739995493"><ele>107.0</ele><time>2026-04-12T12:48:06.001Z</time></trkpt><trkpt lat="41.414946734356526" lon="13.967085792565042"><ele>107.0</ele><time>2026-04-12T12:48:08.001Z</time></trkpt><trkpt lat="41.415027508341154" lon="13.96698330276764"><ele>106.99999999999999</ele><time>2026-04-12T12:48:10.001Z</time></trkpt><trkpt lat="41.415050547330075" lon="13.96689934699682"><ele>107.0</ele><time>2026-04-12T12:48:11.001Z</time></trkpt><trkpt lat="41.415049352938844" lon="13.966799890083335"><ele>106.99999999999999</ele><time>2026-04-12T12:48:12.001Z</time></trkpt><trkpt lat="41.4150579045111" lon="13.966688568794995"><ele>107.0</ele><time>2026-04-12T12:48:13.001Z</time></trkpt><trkpt lat="41.41506392482893" lon="13.96659056195958"><ele>107.0</ele><time>2026-04-12T12:48:14.001Z</time></trkpt><trkpt lat="41.415094146178845" lon="13.966457257237732"><ele>107.0</ele><time>2026-04-12T12:48:16.001Z</time></trkpt><trkpt lat="41.41512449679137" lon="13.96638356687899"><ele>106.99999999999999</ele><time>2026-04-12T12:48:18.001Z</time></trkpt><trkpt lat="41.41521644178103" lon="13.966450711654998"><ele>107.0</ele><time>2026-04-12T12:48:19.001Z</time></trkpt><trkpt lat="41.415261400182686" lon="13.966511913783435"><ele>107.0</ele><time>2026-04-12T12:48:20.001Z</time></trkpt><trkpt lat="41.41531250675494" lon="13.966564063984894"><ele>107.0</ele><time>2026-04-12T12:48:21.001Z</time></trkpt><trkpt lat="41.415381786585" lon="13.966651021117109"><ele>107.0</ele><time>2026-04-12T12:48:22.001Z</time></trkpt><trkpt lat="41.41550320139136" lon="13.966872795947276"><ele>107.0</ele><time>2026-04-12T12:48:23.001Z</time></trkpt><trkpt lat="41.4155732992598" lon="13.967044128177278"><ele>105.0</ele><time>2026-04-12T12:48:24.001Z</time></trkpt><trkpt lat="41.41563519595665" lon="13.967245307670895"><ele>103.0</ele><time>2026-04-12T12:48:25.001Z</time></trkpt><trkpt lat="41.415664160693" lon="13.967462194915187"><ele>101.0</ele><time>2026-04-12T12:48:26.001Z</time></trkpt><trkpt lat="41.41570994365383" lon="13.967683096655913"><ele>100.66666666666666</ele><time>2026-04-12T12:48:27.001Z</time></trkpt><trkpt lat="41.415760181412395" lon="13.967921491589193"><ele>100.33333333333334</ele><time>2026-04-12T12:48:28.001Z</time></trkpt><trkpt lat="41.41581348059808" lon="13.968170854215867"><ele>100.0</ele><time>2026-04-12T12:48:29.001Z</time></trkpt><trkpt lat="41.415866888509335" lon="13.968419862060529"><ele>98.66666666666667</ele><time>2026-04-12T12:48:30.001Z</time></trkpt><trkpt lat="41.41592371688499" lon="13.968682048878533"><ele>97.33333333333334</ele><time>2026-04-12T12:48:31.001Z</time></trkpt><trkpt lat="41.415977058297074" lon="13.968928071363555"><ele>96.0</ele><time>2026-04-12T12:48:32.001Z</time></trkpt><trkpt lat="41.41602222076803" lon="13.969135264903953"><ele>96.6</ele><time>2026-04-12T12:48:33.002Z</time></trkpt><trkpt lat="41.41605870197636" lon="13.969296726690356"><ele>97.19999999999999</ele><time>2026-04-12T12:48:34.002Z</time></trkpt><trkpt lat="41.41608590253768" lon="13.969441954531684"><ele>97.80000000000001</ele><time>2026-04-12T12:48:35.001Z</time></trkpt><trkpt lat="41.41609790515619" lon="13.969562132128912"><ele>98.4</ele><time>2026-04-12T12:48:36.001Z</time></trkpt><trkpt lat="41.41609975161894" lon="13.969652847542227"><ele>99.0</ele><time>2026-04-12T12:48:37.001Z</time></trkpt><trkpt lat="41.416104410341916" lon="13.969739848226661"><ele>97.33333333333333</ele><time>2026-04-12T12:48:39.001Z</time></trkpt><trkpt lat="41.4163282851796" lon="13.969694511364434"><ele>95.66666666666666</ele><time>2026-04-12T12:48:41.001Z</time></trkpt><trkpt lat="41.4164192309126" lon="13.969652687824057"><ele>94.0</ele><time>2026-04-12T12:48:42.001Z</time></trkpt><trkpt lat="41.41654315829124" lon="13.96960136708549"><ele>94.0</ele><time>2026-04-12T12:48:43.001Z</time></trkpt><trkpt lat="41.416660020915444" lon="13.969547590046313"><ele>94.0</ele><time>2026-04-12T12:48:44.001Z</time></trkpt><trkpt lat="41.41676353997662" lon="13.969504727790234"><ele>94.0</ele><time>2026-04-12T12:48:45.001Z</time></trkpt><trkpt lat="41.416854756735425" lon="13.969457339961686"><ele>94.0</ele><time>2026-04-12T12:48:46.001Z</time></trkpt><trkpt lat="41.41691504656346" lon="13.969408053022239"><ele>94.0</ele><time>2026-04-12T12:48:47.001Z</time></trkpt><trkpt lat="41.416945969633794" lon="13.969322570457896"><ele>94.0</ele><time>2026-04-12T12:48:48.001Z</time></trkpt><trkpt lat="41.41695606227255" lon="13.96920494912613"><ele>94.0</ele><time>2026-04-12T12:48:49.001Z</time></trkpt><trkpt lat="41.416950880194065" lon="13.969049307317881"><ele>94.0</ele><time>2026-04-12T12:48:50.001Z</time></trkpt><trkpt lat="41.41692124891077" lon="13.968890913661731"><ele>94.0</ele><time>2026-04-12T12:48:51.001Z</time></trkpt><trkpt lat="41.41687710594249" lon="13.968707448285793"><ele>94.33333333333333</ele><time>2026-04-12T12:48:52.001Z</time></trkpt><trkpt lat="41.416828675618135" lon="13.968519375975497"><ele>94.66666666666667</ele><time>2026-04-12T12:48:53.001Z</time></trkpt><trkpt lat="41.41678018913625" lon="13.968318258635529"><ele>95.0</ele><time>2026-04-12T12:48:54.001Z</time></trkpt><trkpt lat="41.41672609103363" lon="13.968109418111613"><ele>96.5</ele><time>2026-04-12T12:48:55.001Z</time></trkpt><trkpt lat="41.41666128202585" lon="13.967909869090706"><ele>98.0</ele><time>2026-04-12T12:48:56.001Z</time></trkpt><trkpt lat="41.41659925418665" lon="13.96773556534617"><ele>99.5</ele><time>2026-04-12T12:48:57.001Z</time></trkpt><trkpt lat="41.41656536800057" lon="13.967584747675266"><ele>101.0</ele><time>2026-04-12T12:48:58Z</time></trkpt><trkpt lat="41.41656884756941" lon="13.967454967700565"><ele>103.75</ele><time>2026-04-12T12:48:59Z</time></trkpt><trkpt lat="41.416614584739385" lon="13.967329318425405"><ele>106.5</ele><time>2026-04-12T12:49:00Z</time></trkpt><trkpt lat="41.41667031171646" lon="13.967191395633844"><ele>109.25</ele><time>2026-04-12T12:49:01Z</time></trkpt><trkpt lat="41.41670360238275" lon="13.967032632359649"><ele>112.0</ele><time>2026-04-12T12:49:02Z</time></trkpt><trkpt lat="41.416735476362355" lon="13.966864338664555"><ele>112.0</ele><time>2026-04-12T12:49:03Z</time></trkpt><trkpt lat="41.41676812108812" lon="13.96668178946516"><ele>112.0</ele><time>2026-04-12T12:49:04.001Z</time></trkpt><trkpt lat="41.41680669165649" lon="13.966487852729035"><ele>112.0</ele><time>2026-04-12T12:49:05.001Z</time></trkpt><trkpt lat="41.416844926430294" lon="13.966286999155367"><ele>112.0</ele><time>2026-04-12T12:49:06.001Z</time></trkpt><trkpt lat="41.416882091820916" lon="13.966077176525964"><ele>110.0</ele><time>2026-04-12T12:49:07.001Z</time></trkpt><trkpt lat="41.41692063464244" lon="13.96586113244744"><ele>108.0</ele><time>2026-04-12T12:49:08.001Z</time></trkpt><trkpt lat="41.41695884700344" lon="13.965651201984576"><ele>106.0</ele><time>2026-04-12T12:49:09.001Z</time></trkpt><trkpt lat="41.416999390922435" lon="13.965434069020112"><ele>106.0</ele><time>2026-04-12T12:49:10.001Z</time></trkpt><trkpt lat="41.41704056001191" lon="13.965218942363842"><ele>106.0</ele><time>2026-04-12T12:49:11.001Z</time></trkpt><trkpt lat="41.41707863395023" lon="13.96502535923903"><ele>106.0</ele><time>2026-04-12T12:49:12.001Z</time></trkpt><trkpt lat="41.4171268713012" lon="13.964841986105423"><ele>114.66666666666667</ele><time>2026-04-12T12:49:13.001Z</time></trkpt><trkpt lat="41.41719337446492" lon="13.964663531151755"><ele>123.33333333333334</ele><time>2026-04-12T12:49:14.001Z</time></trkpt><trkpt lat="41.41728197867739" lon="13.96448447749879"><ele>132.0</ele><time>2026-04-12T12:49:15.001Z</time></trkpt><trkpt lat="41.41737974597177" lon="13.964318643341466"><ele>127.0</ele><time>2026-04-12T12:49:16.001Z</time></trkpt><trkpt lat="41.417471756720715" lon="13.964138189741885"><ele>122.0</ele><time>2026-04-12T12:49:17.001Z</time></trkpt><trkpt lat="41.417561466992424" lon="13.963963291096425"><ele>117.0</ele><time>2026-04-12T12:49:18.001Z</time></trkpt><trkpt lat="41.417652183048304" lon="13.963789836147631"><ele>117.0</ele><time>2026-04-12T12:49:19.001Z</time></trkpt><trkpt lat="41.417744514511625" lon="13.963611612646638"><ele>117.0</ele><time>2026-04-12T12:49:20.001Z</time></trkpt><trkpt lat="41.41783212294459" lon="13.96342211305023"><ele>117.0</ele><time>2026-04-12T12:49:21.001Z</time></trkpt><trkpt lat="41.417912397543546" lon="13.963222425439522"><ele>121.66666666666666</ele><time>2026-04-12T12:49:22.001Z</time></trkpt><trkpt lat="41.41798385297984" lon="13.963006182484927"><ele>126.33333333333333</ele><time>2026-04-12T12:49:23.001Z</time></trkpt><trkpt lat="41.418048673727505" lon="13.962774275033121"><ele>131.0</ele><time>2026-04-12T12:49:24.001Z</time></trkpt><trkpt lat="41.418112732631506" lon="13.962540962636064"><ele>125.66666666666666</ele><time>2026-04-12T12:49:25.001Z</time></trkpt><trkpt lat="41.41817011610167" lon="13.962336785704688"><ele>120.33333333333334</ele><time>2026-04-12T12:49:26.001Z</time></trkpt><trkpt lat="41.41822570923362" lon="13.962144752144756"><ele>115.0</ele><time>2026-04-12T12:49:27.001Z</time></trkpt><trkpt lat="41.41830182260994" lon="13.961978277459936"><ele>115.0</ele><time>2026-04-12T12:49:28.001Z</time></trkpt><trkpt lat="41.418393626331216" lon="13.961811187398075"><ele>115.0</ele><time>2026-04-12T12:49:29.001Z</time></trkpt><trkpt lat="41.41849267967062" lon="13.961623463498059"><ele>115.0</ele><time>2026-04-12T12:49:30.001Z</time></trkpt><trkpt lat="41.41859848916238" lon="13.961436416655985"><ele>110.33333333333334</ele><time>2026-04-12T12:49:31.001Z</time></trkpt><trkpt lat="41.41869833084919" lon="13.961258979248566"><ele>105.66666666666666</ele><time>2026-04-12T12:49:32.001Z</time></trkpt><trkpt lat="41.418789237664434" lon="13.961083602332778"><ele>101.0</ele><time>2026-04-12T12:49:33.001Z</time></trkpt><trkpt lat="41.418871930131786" lon="13.960906137505253"><ele>106.66666666666666</ele><time>2026-04-12T12:49:34.001Z</time></trkpt><trkpt lat="41.41895595770638" lon="13.960719849336723"><ele>112.33333333333334</ele><time>2026-04-12T12:49:35.001Z</time></trkpt><trkpt lat="41.41904337427329" lon="13.960530221104708"><ele>118.0</ele><time>2026-04-12T12:49:36.001Z</time></trkpt><trkpt lat="41.41913419767137" lon="13.960334875631393"><ele>118.0</ele><time>2026-04-12T12:49:37.001Z</time></trkpt><trkpt lat="41.41923237123932" lon="13.960145299589616"><ele>118.0</ele><time>2026-04-12T12:49:38.001Z</time></trkpt><trkpt lat="41.41933609711572" lon="13.95995782789488"><ele>118.0</ele><time>2026-04-12T12:49:39.001Z</time></trkpt><trkpt lat="41.4194425787162" lon="13.959766635369737"><ele>112.33333333333334</ele><time>2026-04-12T12:49:40.001Z</time></trkpt><trkpt lat="41.41953860925316" lon="13.959586655451096"><ele>106.66666666666666</ele><time>2026-04-12T12:49:41.001Z</time></trkpt><trkpt lat="41.419629863739516" lon="13.95942078938823"><ele>101.0</ele><time>2026-04-12T12:49:42.001Z</time></trkpt><trkpt lat="41.4197189779597" lon="13.959268785462134"><ele>105.0</ele><time>2026-04-12T12:49:43.001Z</time></trkpt><trkpt lat="41.41981205400788" lon="13.959115697072315"><ele>109.0</ele><time>2026-04-12T12:49:44.001Z</time></trkpt><trkpt lat="41.41991255079756" lon="13.958961238487968"><ele>113.0</ele><time>2026-04-12T12:49:45.001Z</time></trkpt><trkpt lat="41.42003188323098" lon="13.958808671800211"><ele>113.0</ele><time>2026-04-12T12:49:46.001Z</time></trkpt><trkpt lat="41.42015652023366" lon="13.958653146681566"><ele>113.0</ele><time>2026-04-12T12:49:47.001Z</time></trkpt><trkpt lat="41.42027060571139" lon="13.958499015246383"><ele>113.0</ele><time>2026-04-12T12:49:48.001Z</time></trkpt><trkpt lat="41.4203775338184" lon="13.958345340185456"><ele>116.0</ele><time>2026-04-12T12:49:49.001Z</time></trkpt><trkpt lat="41.420474883112846" lon="13.958203158792191"><ele>119.0</ele><time>2026-04-12T12:49:50.001Z</time></trkpt><trkpt lat="41.420562811349804" lon="13.958040982758876"><ele>122.0</ele><time>2026-04-12T12:49:51.001Z</time></trkpt><trkpt lat="41.420644093518156" lon="13.957854355870076"><ele>122.0</ele><time>2026-04-12T12:49:52.001Z</time></trkpt><trkpt lat="41.42071904267496" lon="13.957643534433915"><ele>122.0</ele><time>2026-04-12T12:49:53.001Z</time></trkpt><trkpt lat="41.42079406030573" lon="13.957418554884155"><ele>122.0</ele><time>2026-04-12T12:49:54.001Z</time></trkpt><trkpt lat="41.42086936373838" lon="13.957180789314876"><ele>116.33333333333333</ele><time>2026-04-12T12:49:55.001Z</time></trkpt><trkpt lat="41.42094815465969" lon="13.956936228420014"><ele>110.66666666666666</ele><time>2026-04-12T12:49:56.001Z</time></trkpt><trkpt lat="41.42103323858986" lon="13.956694318641066"><ele>105.0</ele><time>2026-04-12T12:49:57.001Z</time></trkpt><trkpt lat="41.42112248841131" lon="13.95647995448002"><ele>100.66666666666667</ele><time>2026-04-12T12:49:58.001Z</time></trkpt><trkpt lat="41.421205026412764" lon="13.956284907114366"><ele>96.33333333333334</ele><time>2026-04-12T12:49:59.001Z</time></trkpt><trkpt lat="41.42128540158375" lon="13.956103590782861"><ele>92.0</ele><time>2026-04-12T12:50:00.001Z</time></trkpt><trkpt lat="41.421353002644665" lon="13.955918711149241"><ele>97.0</ele><time>2026-04-12T12:50:01.001Z</time></trkpt><trkpt lat="41.42140934004083" lon="13.955709693628497"><ele>102.0</ele><time>2026-04-12T12:50:02.001Z</time></trkpt><trkpt lat="41.42145133198387" lon="13.955481553690095"><ele>107.0</ele><time>2026-04-12T12:50:03.001Z</time></trkpt><trkpt lat="41.42149001341478" lon="13.955269040067364"><ele>107.0</ele><time>2026-04-12T12:50:04.001Z</time></trkpt><trkpt lat="41.42152050037445" lon="13.955135112351849"><ele>106.99999999999999</ele><time>2026-04-12T12:50:05.001Z</time></trkpt><trkpt lat="41.421540326242685" lon="13.955035420644922"><ele>106.99999999999999</ele><time>2026-04-12T12:50:06.001Z</time></trkpt><trkpt lat="41.42155081669845" lon="13.954901905943188"><ele>107.0</ele><time>2026-04-12T12:50:08.001Z</time></trkpt><trkpt lat="41.42156867864547" lon="13.954784615814944"><ele>107.0</ele><time>2026-04-12T12:50:11.001Z</time></trkpt><trkpt lat="41.4215855246639" lon="13.95467660853532"><ele>105.39999999999999</ele><time>2026-04-12T12:50:12.001Z</time></trkpt><trkpt lat="41.421599251208136" lon="13.95450835608482"><ele>103.79999999999998</ele><time>2026-04-12T12:50:14.001Z</time></trkpt><trkpt lat="41.42160119624396" lon="13.954364664540982"><ele>102.2</ele><time>2026-04-12T12:50:15.001Z</time></trkpt><trkpt lat="41.42159825715735" lon="13.954277169017624"><ele>100.6</ele><time>2026-04-12T12:50:16.001Z</time></trkpt><trkpt lat="41.42160512246327" lon="13.95418207521485"><ele>99.0</ele><time>2026-04-12T12:50:17.001Z</time></trkpt><trkpt lat="41.42165068165821" lon="13.953983974453893"><ele>97.0</ele><time>2026-04-12T12:50:19.001Z</time></trkpt><trkpt lat="41.42140644019975" lon="13.953759214564933"><ele>95.0</ele><time>2026-04-12T12:50:20.001Z</time></trkpt><trkpt lat="41.42141526383198" lon="13.953620484813428"><ele>93.0</ele><time>2026-04-12T12:50:21.001Z</time></trkpt><trkpt lat="41.42143426794354" lon="13.953481262709648"><ele>91.5</ele><time>2026-04-12T12:50:22.001Z</time></trkpt><trkpt lat="41.421459182730146" lon="13.953340525568452"><ele>90.0</ele><time>2026-04-12T12:50:23.001Z</time></trkpt><trkpt lat="41.42148606718323" lon="13.953179964529452"><ele>88.5</ele><time>2026-04-12T12:50:24.001Z</time></trkpt><trkpt lat="41.42154971225238" lon="13.952996362559297"><ele>87.0</ele><time>2026-04-12T12:50:25.001Z</time></trkpt><trkpt lat="41.42160602192272" lon="13.952821730784152"><ele>87.0</ele><time>2026-04-12T12:50:26.001Z</time></trkpt><trkpt lat="41.4216580365814" lon="13.952679609658633"><ele>87.0</ele><time>2026-04-12T12:50:27.001Z</time></trkpt><trkpt lat="41.42170073685393" lon="13.952525139446589"><ele>87.0</ele><time>2026-04-12T12:50:28.001Z</time></trkpt><trkpt lat="41.42173773972063" lon="13.95236867611921"><ele>87.0</ele><time>2026-04-12T12:50:29.001Z</time></trkpt><trkpt lat="41.42177544406396" lon="13.952207979566046"><ele>86.8</ele><time>2026-04-12T12:50:30.001Z</time></trkpt><trkpt lat="41.421804031840665" lon="13.952039420512016"><ele>86.6</ele><time>2026-04-12T12:50:31.001Z</time></trkpt><trkpt lat="41.42181992047237" lon="13.951923566883437"><ele>86.39999999999999</ele><time>2026-04-12T12:50:32.001Z</time></trkpt><trkpt lat="41.42180223287524" lon="13.95173876058375"><ele>86.19999999999999</ele><time>2026-04-12T12:50:34.001Z</time></trkpt><trkpt lat="41.4217900470041" lon="13.95164292511849"><ele>86.0</ele><time>2026-04-12T12:50:35.001Z</time></trkpt><trkpt lat="41.421771234044776" lon="13.951537046314167"><ele>86.4</ele><time>2026-04-12T12:50:37.001Z</time></trkpt><trkpt lat="41.42182537801069" lon="13.951451324430282"><ele>86.8</ele><time>2026-04-12T12:50:39.001Z</time></trkpt><trkpt lat="41.42188615387019" lon="13.951405279546186"><ele>87.2</ele><time>2026-04-12T12:50:40.001Z</time></trkpt><trkpt lat="41.42195544283167" lon="13.951258746254753"><ele>87.60000000000001</ele><time>2026-04-12T12:50:42.001Z</time></trkpt><trkpt lat="41.421994195427004" lon="13.951152326373053"><ele>88.0</ele><time>2026-04-12T12:50:43.001Z</time></trkpt><trkpt lat="41.42203313794355" lon="13.951053924904448"><ele>88.0</ele><time>2026-04-12T12:50:44.001Z</time></trkpt><trkpt lat="41.422090116383224" lon="13.950962557139883"><ele>88.0</ele><time>2026-04-12T12:50:45.001Z</time></trkpt><trkpt lat="41.42214028116682" lon="13.950866533720927"><ele>88.0</ele><time>2026-04-12T12:50:46.001Z</time></trkpt><trkpt lat="41.422190179114715" lon="13.950763054728453"><ele>88.0</ele><time>2026-04-12T12:50:47Z</time></trkpt><trkpt lat="41.422227615427914" lon="13.950636400899443"><ele>88.0</ele><time>2026-04-12T12:50:48Z</time></trkpt><trkpt lat="41.42227102665618" lon="13.950539808152206"><ele>88.16666666666666</ele><time>2026-04-12T12:50:49Z</time></trkpt><trkpt lat="41.422313962078924" lon="13.950420915908968"><ele>88.33333333333333</ele><time>2026-04-12T12:50:50Z</time></trkpt><trkpt lat="41.422370002237" lon="13.950330969039994"><ele>88.5</ele><time>2026-04-12T12:50:51Z</time></trkpt><trkpt lat="41.42241060350807" lon="13.950246672074126"><ele>88.66666666666667</ele><time>2026-04-12T12:50:52Z</time></trkpt><trkpt lat="41.4224389075126" lon="13.950152659606482"><ele>88.83333333333334</ele><time>2026-04-12T12:50:53Z</time></trkpt><trkpt lat="41.4224700122577" lon="13.950045107904591"><ele>89.0</ele><time>2026-04-12T12:50:54Z</time></trkpt><trkpt lat="41.42250011485458" lon="13.949855717665518"><ele>89.0</ele><time>2026-04-12T12:50:55Z</time></trkpt><trkpt lat="41.42254905159825" lon="13.949759329709398"><ele>89.0</ele><time>2026-04-12T12:50:56Z</time></trkpt><trkpt lat="41.42261437506288" lon="13.949570105386652"><ele>89.0</ele><time>2026-04-12T12:50:59Z</time></trkpt><trkpt lat="41.42264799712954" lon="13.949454569360237"><ele>89.0</ele><time>2026-04-12T12:51:00Z</time></trkpt><trkpt lat="41.422680448881145" lon="13.94937426628217"><ele>89.0</ele><time>2026-04-12T12:51:02Z</time></trkpt><trkpt lat="41.422720809981875" lon="13.949286508241087"><ele>88.25</ele><time>2026-04-12T12:51:03Z</time></trkpt><trkpt lat="41.42274410407521" lon="13.949196755593984"><ele>87.5</ele><time>2026-04-12T12:51:04Z</time></trkpt><trkpt lat="41.422793311127556" lon="13.949001962642196"><ele>86.75</ele><time>2026-04-12T12:51:06Z</time></trkpt><trkpt lat="41.42283573664255" lon="13.948922686206142"><ele>86.0</ele><time>2026-04-12T12:51:07Z</time></trkpt><trkpt lat="41.42295282606642" lon="13.94875952897982"><ele>88.4</ele><time>2026-04-12T12:51:08Z</time></trkpt><trkpt lat="41.42302001542439" lon="13.94864166798649"><ele>90.8</ele><time>2026-04-12T12:51:09Z</time></trkpt><trkpt lat="41.42306852889518" lon="13.948541282113577"><ele>93.2</ele><time>2026-04-12T12:51:10Z</time></trkpt><trkpt lat="41.42315939603015" lon="13.94840822408177"><ele>95.60000000000001</ele><time>2026-04-12T12:51:12Z</time></trkpt><trkpt lat="41.42322028322078" lon="13.948303941543449"><ele>98.0</ele><time>2026-04-12T12:51:13Z</time></trkpt><trkpt lat="41.42328414754921" lon="13.948191855359799"><ele>98.0</ele><time>2026-04-12T12:51:14Z</time></trkpt><trkpt lat="41.4233644997301" lon="13.948024460401951"><ele>98.0</ele><time>2026-04-12T12:51:15Z</time></trkpt><trkpt lat="41.42343700741715" lon="13.947897478771454"><ele>98.0</ele><time>2026-04-12T12:51:16Z</time></trkpt><trkpt lat="41.423491064350806" lon="13.947771187618233"><ele>98.0</ele><time>2026-04-12T12:51:17Z</time></trkpt><trkpt lat="41.423544263497476" lon="13.94767418558834"><ele>98.0</ele><time>2026-04-12T12:51:18Z</time></trkpt><trkpt lat="41.42361807593164" lon="13.947565175583678"><ele>98.0</ele><time>2026-04-12T12:51:19Z</time></trkpt><trkpt lat="41.42368223706448" lon="13.94747257795747"><ele>98.0</ele><time>2026-04-12T12:51:20Z</time></trkpt><trkpt lat="41.423728128528005" lon="13.947358705762635"><ele>98.0</ele><time>2026-04-12T12:51:21Z</time></trkpt><trkpt lat="41.42377459851701" lon="13.947254356290657"><ele>98.0</ele><time>2026-04-12T12:51:22Z</time></trkpt><trkpt lat="41.42383913288227" lon="13.947142198130441"><ele>97.2</ele><time>2026-04-12T12:51:23Z</time></trkpt><trkpt lat="41.42389160397036" lon="13.947036827800442"><ele>96.4</ele><time>2026-04-12T12:51:24Z</time></trkpt><trkpt lat="41.42392282471205" lon="13.946960713913784"><ele>95.60000000000001</ele><time>2026-04-12T12:51:25Z</time></trkpt><trkpt lat="41.42398974579805" lon="13.946845080763014"><ele>94.80000000000001</ele><time>2026-04-12T12:51:26Z</time></trkpt><trkpt lat="41.42407092394712" lon="13.946721471856984"><ele>94.0</ele><time>2026-04-12T12:51:27Z</time></trkpt><trkpt lat="41.42415653202771" lon="13.946599107267245"><ele>94.0</ele><time>2026-04-12T12:51:28Z</time></trkpt><trkpt lat="41.42421898867291" lon="13.946487547987214"><ele>94.0</ele><time>2026-04-12T12:51:29Z</time></trkpt><trkpt lat="41.42428053726459" lon="13.946351594255026"><ele>94.0</ele><time>2026-04-12T12:51:30Z</time></trkpt><trkpt lat="41.42431419305495" lon="13.946206563733764"><ele>94.0</ele><time>2026-04-12T12:51:31.001Z</time></trkpt><trkpt lat="41.42436740043521" lon="13.946095826203933"><ele>94.0</ele><time>2026-04-12T12:51:32.001Z</time></trkpt><trkpt lat="41.42441724560081" lon="13.945989442230495"><ele>94.0</ele><time>2026-04-12T12:51:33.001Z</time></trkpt><trkpt lat="41.42451215652046" lon="13.945880543306034"><ele>94.0</ele><time>2026-04-12T12:51:34.001Z</time></trkpt><trkpt lat="41.42458215022605" lon="13.945775172740618"><ele>94.0</ele><time>2026-04-12T12:51:35.001Z</time></trkpt><trkpt lat="41.424628865367865" lon="13.945665400705515"><ele>94.0</ele><time>2026-04-12T12:51:36.001Z</time></trkpt><trkpt lat="41.424711857789696" lon="13.945563867449852"><ele>94.0</ele><time>2026-04-12T12:51:37.001Z</time></trkpt><trkpt lat="41.424776168547695" lon="13.945505517567305"><ele>94.0</ele><time>2026-04-12T12:51:38.001Z</time></trkpt><trkpt lat="41.424827600985246" lon="13.945430965756348"><ele>94.0</ele><time>2026-04-12T12:51:39.001Z</time></trkpt><trkpt lat="41.42491042910588" lon="13.945352460952305"><ele>94.0</ele><time>2026-04-12T12:51:40.001Z</time></trkpt><trkpt lat="41.424972766015486" lon="13.94526648177951"><ele>94.0</ele><time>2026-04-12T12:51:41.001Z</time></trkpt><trkpt lat="41.425035104592304" lon="13.945172453085469"><ele>94.0</ele><time>2026-04-12T12:51:42.001Z</time></trkpt><trkpt lat="41.42508130813412" lon="13.945097012129022"><ele>94.0</ele><time>2026-04-12T12:51:43.001Z</time></trkpt><trkpt lat="41.42513110871407" lon="13.945021477625248"><ele>93.6</ele><time>2026-04-12T12:51:44.001Z</time></trkpt><trkpt lat="41.42517293912363" lon="13.944947555911385"><ele>93.2</ele><time>2026-04-12T12:51:45.001Z</time></trkpt><trkpt lat="41.4252221887009" lon="13.944865773001203"><ele>92.8</ele><time>2026-04-12T12:51:46.001Z</time></trkpt><trkpt lat="41.425314412448714" lon="13.944692630189229"><ele>92.39999999999999</ele><time>2026-04-12T12:51:47.001Z</time></trkpt><trkpt lat="41.4253953193952" lon="13.94460504057242"><ele>92.0</ele><time>2026-04-12T12:51:48.001Z</time></trkpt><trkpt lat="41.42549849147527" lon="13.944500630312483"><ele>92.0</ele><time>2026-04-12T12:51:49.001Z</time></trkpt><trkpt lat="41.42557101926359" lon="13.944415483280345"><ele>92.0</ele><time>2026-04-12T12:51:50.001Z</time></trkpt><trkpt lat="41.425641894032125" lon="13.944323680407916"><ele>92.0</ele><time>2026-04-12T12:51:51.001Z</time></trkpt><trkpt lat="41.42570646095401" lon="13.94426127076055"><ele>92.0</ele><time>2026-04-12T12:51:52.001Z</time></trkpt><trkpt lat="41.42577044386351" lon="13.944169363159089"><ele>92.0</ele><time>2026-04-12T12:51:53.001Z</time></trkpt><trkpt lat="41.42582974849597" lon="13.944079656326476"><ele>90.6</ele><time>2026-04-12T12:51:54.001Z</time></trkpt><trkpt lat="41.42590246097006" lon="13.943978119564974"><ele>89.19999999999999</ele><time>2026-04-12T12:51:55.001Z</time></trkpt><trkpt lat="41.42597573621746" lon="13.943880556262496"><ele>87.8</ele><time>2026-04-12T12:51:56.001Z</time></trkpt><trkpt lat="41.426053283563405" lon="13.943778838679581"><ele>86.4</ele><time>2026-04-12T12:51:57.001Z</time></trkpt><trkpt lat="41.42613321483304" lon="13.943687765922139"><ele>85.0</ele><time>2026-04-12T12:51:58.001Z</time></trkpt><trkpt lat="41.42622650055048" lon="13.943611918269832"><ele>85.0</ele><time>2026-04-12T12:51:59.001Z</time></trkpt><trkpt lat="41.426306180398825" lon="13.9435462687663"><ele>85.0</ele><time>2026-04-12T12:52:00.001Z</time></trkpt><trkpt lat="41.426368914194846" lon="13.943466341282505"><ele>85.0</ele><time>2026-04-12T12:52:01.001Z</time></trkpt><trkpt lat="41.42644063111076" lon="13.943355902651481"><ele>85.0</ele><time>2026-04-12T12:52:02.001Z</time></trkpt><trkpt lat="41.426513517465" lon="13.943231500897598"><ele>85.0</ele><time>2026-04-12T12:52:03.001Z</time></trkpt><trkpt lat="41.42658243040325" lon="13.943121904005823"><ele>83.8</ele><time>2026-04-12T12:52:04.001Z</time></trkpt><trkpt lat="41.426636903568316" lon="13.943051454633995"><ele>82.6</ele><time>2026-04-12T12:52:05.001Z</time></trkpt><trkpt lat="41.4266990324266" lon="13.943027409339436"><ele>81.4</ele><time>2026-04-12T12:52:06.001Z</time></trkpt><trkpt lat="41.426812204513794" lon="13.943022774506806"><ele>80.2</ele><time>2026-04-12T12:52:08.001Z</time></trkpt><trkpt lat="41.426923127626296" lon="13.942948771796486"><ele>79.0</ele><time>2026-04-12T12:52:10.001Z</time></trkpt><trkpt lat="41.42700226481443" lon="13.942846867106057"><ele>79.0</ele><time>2026-04-12T12:52:11.001Z</time></trkpt><trkpt lat="41.42709360463801" lon="13.942754208612998"><ele>79.0</ele><time>2026-04-12T12:52:12.001Z</time></trkpt><trkpt lat="41.42719171340577" lon="13.942658954511323"><ele>79.0</ele><time>2026-04-12T12:52:13.001Z</time></trkpt><trkpt lat="41.427274685043315" lon="13.94255992899836"><ele>79.0</ele><time>2026-04-12T12:52:14.001Z</time></trkpt><trkpt lat="41.42734929482545" lon="13.942433122372819"><ele>78.75</ele><time>2026-04-12T12:52:15.001Z</time></trkpt><trkpt lat="41.42742477657779" lon="13.942309138923495"><ele>78.5</ele><time>2026-04-12T12:52:16.001Z</time></trkpt><trkpt lat="41.42750962037539" lon="13.94219013022783"><ele>78.25</ele><time>2026-04-12T12:52:17.001Z</time></trkpt><trkpt lat="41.42760609421146" lon="13.94209030938135"><ele>78.0</ele><time>2026-04-12T12:52:18.001Z</time></trkpt><trkpt lat="41.427704395767556" lon="13.941983937398335"><ele>78.0</ele><time>2026-04-12T12:52:19.001Z</time></trkpt><trkpt lat="41.4278009455733" lon="13.941853919830477"><ele>78.0</ele><time>2026-04-12T12:52:20.001Z</time></trkpt><trkpt lat="41.42787659007666" lon="13.941738743851165"><ele>78.0</ele><time>2026-04-12T12:52:21.001Z</time></trkpt><trkpt lat="41.42796580183551" lon="13.94162876214605"><ele>78.0</ele><time>2026-04-12T12:52:22.001Z</time></trkpt><trkpt lat="41.428041631138356" lon="13.941508970420651"><ele>78.33333333333333</ele><time>2026-04-12T12:52:23.001Z</time></trkpt><trkpt lat="41.42810663888985" lon="13.941406137472173"><ele>78.66666666666667</ele><time>2026-04-12T12:52:24.001Z</time></trkpt><trkpt lat="41.4281791697304" lon="13.941300846687392"><ele>79.0</ele><time>2026-04-12T12:52:25.001Z</time></trkpt><trkpt lat="41.428229466702184" lon="13.94121024227147"><ele>79.33333333333334</ele><time>2026-04-12T12:52:26.001Z</time></trkpt><trkpt lat="41.428156213548235" lon="13.941188581013819"><ele>79.66666666666667</ele><time>2026-04-12T12:52:48Z</time></trkpt><trkpt lat="41.428104885270685" lon="13.941134177727"><ele>80.0</ele><time>2026-04-12T12:52:49Z</time></trkpt><trkpt lat="41.428024635423284" lon="13.941059727813144"><ele>78.8</ele><time>2026-04-12T12:52:51Z</time></trkpt><trkpt lat="41.427937419014086" lon="13.940986129177196"><ele>77.6</ele><time>2026-04-12T12:52:53Z</time></trkpt><trkpt lat="41.42783024649648" lon="13.940979326355627"><ele>76.4</ele><time>2026-04-12T12:52:55Z</time></trkpt><trkpt lat="41.42773565811963" lon="13.94099733257271"><ele>75.2</ele><time>2026-04-12T12:52:58Z</time></trkpt><trkpt lat="41.42766643269044" lon="13.941003539577824"><ele>74.0</ele><time>2026-04-12T12:52:59Z</time></trkpt><trkpt lat="41.427575818910086" lon="13.941007308758163"><ele>74.0</ele><time>2026-04-12T12:53:00Z</time></trkpt><trkpt lat="41.42750170637833" lon="13.94101960960632"><ele>74.0</ele><time>2026-04-12T12:53:01Z</time></trkpt><trkpt lat="41.42739713489281" lon="13.940997265199599"><ele>74.0</ele><time>2026-04-12T12:53:03Z</time></trkpt><trkpt lat="41.427372474652536" lon="13.940870654482408"><ele>74.0</ele><time>2026-04-12T12:53:05Z</time></trkpt><trkpt lat="41.42733444999501" lon="13.940785372322665"><ele>74.0</ele><time>2026-04-12T12:53:08Z</time></trkpt><trkpt lat="41.42726305792542" lon="13.940756463689628"><ele>74.0</ele><time>2026-04-12T12:53:18Z</time></trkpt><trkpt lat="41.42727802440294" lon="13.940655372524"><ele>71.75</ele><time>2026-04-12T12:53:20Z</time></trkpt><trkpt lat="41.42730848159568" lon="13.94051167125755"><ele>69.5</ele><time>2026-04-12T12:53:22Z</time></trkpt><trkpt lat="41.427368886524555" lon="13.940369498290135"><ele>67.25</ele><time>2026-04-12T12:53:24Z</time></trkpt><trkpt lat="41.42737347720357" lon="13.940160431950764"><ele>65.0</ele><time>2026-04-12T12:53:26Z</time></trkpt><trkpt lat="41.42738465855169" lon="13.940074168506285"><ele>64.16666666666667</ele><time>2026-04-12T12:53:27Z</time></trkpt><trkpt lat="41.42741416000285" lon="13.939935832022142"><ele>63.333333333333336</ele><time>2026-04-12T12:53:29Z</time></trkpt><trkpt lat="41.4274470424243" lon="13.93986135778644"><ele>62.5</ele><time>2026-04-12T12:53:30Z</time></trkpt><trkpt lat="41.42746301935597" lon="13.939768320767758"><ele>61.66666666666667</ele><time>2026-04-12T12:53:34Z</time></trkpt><trkpt lat="41.427434115441784" lon="13.939641503019121"><ele>60.833333333333336</ele><time>2026-04-12T12:53:36Z</time></trkpt><trkpt lat="41.42743318736139" lon="13.939549692129734"><ele>60.0</ele><time>2026-04-12T12:53:37Z</time></trkpt><trkpt lat="41.42738265420107" lon="13.939379519548819"><ele>59.5</ele><time>2026-04-12T12:53:38Z</time></trkpt><trkpt lat="41.427321562573454" lon="13.939190734710722"><ele>59.0</ele><time>2026-04-12T12:53:39Z</time></trkpt><trkpt lat="41.42723742475021" lon="13.939041244044915"><ele>58.5</ele><time>2026-04-12T12:53:40Z</time></trkpt><trkpt lat="41.42717948713757" lon="13.938935857423726"><ele>58.0</ele><time>2026-04-12T12:53:41Z</time></trkpt><trkpt lat="41.427137199679606" lon="13.938807892743831"><ele>59.0</ele><time>2026-04-12T12:53:42Z</time></trkpt><trkpt lat="41.427113102644455" lon="13.93870319557177"><ele>60.0</ele><time>2026-04-12T12:53:43Z</time></trkpt><trkpt lat="41.42711303250335" lon="13.938598925398697"><ele>61.0</ele><time>2026-04-12T12:53:44Z</time></trkpt><trkpt lat="41.42708867062786" lon="13.93852062384611"><ele>62.0</ele><time>2026-04-12T12:53:45Z</time></trkpt><trkpt lat="41.42694796044082" lon="13.938433498154753"><ele>63.0</ele><time>2026-04-12T12:53:47Z</time></trkpt><trkpt lat="41.42687205669516" lon="13.938383675560265"><ele>63.333333333333336</ele><time>2026-04-12T12:53:48Z</time></trkpt><trkpt lat="41.42679696651418" lon="13.938327463659613"><ele>63.66666666666667</ele><time>2026-04-12T12:53:49Z</time></trkpt><trkpt lat="41.426734218207834" lon="13.938263181891116"><ele>64.0</ele><time>2026-04-12T12:53:50.001Z</time></trkpt><trkpt lat="41.426668262279875" lon="13.938191993610491"><ele>64.33333333333334</ele><time>2026-04-12T12:53:51.001Z</time></trkpt><trkpt lat="41.42663744615041" lon="13.938115538994976"><ele>64.66666666666667</ele><time>2026-04-12T12:53:52.001Z</time></trkpt><trkpt lat="41.426539542565635" lon="13.938074964248864"><ele>65.0</ele><time>2026-04-12T12:53:54.001Z</time></trkpt><trkpt lat="41.426463886344074" lon="13.93806721975312"><ele>65.0</ele><time>2026-04-12T12:53:55.001Z</time></trkpt><trkpt lat="41.42640007022219" lon="13.93806323629762"><ele>65.0</ele><time>2026-04-12T12:53:56.001Z</time></trkpt><trkpt lat="41.42634054126381" lon="13.937964399821304"><ele>65.0</ele><time>2026-04-12T12:53:58.001Z</time></trkpt><trkpt lat="41.426338395398" lon="13.937845144589144"><ele>65.0</ele><time>2026-04-12T12:53:59.001Z</time></trkpt><trkpt lat="41.426356900787354" lon="13.937704292558978"><ele>65.0</ele><time>2026-04-12T12:54:00.001Z</time></trkpt><trkpt lat="41.42638740786747" lon="13.937562547543141"><ele>64.6</ele><time>2026-04-12T12:54:01.001Z</time></trkpt><trkpt lat="41.42639660955956" lon="13.937394420734991"><ele>64.2</ele><time>2026-04-12T12:54:02.001Z</time></trkpt><trkpt lat="41.42639482975991" lon="13.937236645217608"><ele>63.8</ele><time>2026-04-12T12:54:03.001Z</time></trkpt><trkpt lat="41.426398781129066" lon="13.937112346256066"><ele>63.4</ele><time>2026-04-12T12:54:04.001Z</time></trkpt><trkpt lat="41.42646127992624" lon="13.936998714040763"><ele>63.0</ele><time>2026-04-12T12:54:06.001Z</time></trkpt><trkpt lat="41.426388622934304" lon="13.936944814971293"><ele>65.5</ele><time>2026-04-12T12:54:09.001Z</time></trkpt><trkpt lat="41.42627268048365" lon="13.936996209266644"><ele>68.0</ele><time>2026-04-12T12:54:11.001Z</time></trkpt><trkpt lat="41.42614447021024" lon="13.937088739387864"><ele>70.5</ele><time>2026-04-12T12:54:12.001Z</time></trkpt><trkpt lat="41.42606576779889" lon="13.937198667890558"><ele>73.0</ele><time>2026-04-12T12:54:13.001Z</time></trkpt><trkpt lat="41.42599106897348" lon="13.937319265043506"><ele>73.0</ele><time>2026-04-12T12:54:14.001Z</time></trkpt><trkpt lat="41.42590856341858" lon="13.937431413088863"><ele>73.0</ele><time>2026-04-12T12:54:15.001Z</time></trkpt><trkpt lat="41.42581602596732" lon="13.937532117278122"><ele>73.0</ele><time>2026-04-12T12:54:16.001Z</time></trkpt><trkpt lat="41.42573353937966" lon="13.937624406675418"><ele>73.0</ele><time>2026-04-12T12:54:17.001Z</time></trkpt><trkpt lat="41.42564936268438" lon="13.937737743098687"><ele>73.2</ele><time>2026-04-12T12:54:18.001Z</time></trkpt><trkpt lat="41.42558358139446" lon="13.93784667272161"><ele>73.4</ele><time>2026-04-12T12:54:19.001Z</time></trkpt><trkpt lat="41.425527327789794" lon="13.937974941872122"><ele>73.60000000000001</ele><time>2026-04-12T12:54:20.001Z</time></trkpt><trkpt lat="41.42545226571198" lon="13.938085093460458"><ele>73.8</ele><time>2026-04-12T12:54:21.001Z</time></trkpt><trkpt lat="41.42536671689091" lon="13.938172181074297"><ele>74.0</ele><time>2026-04-12T12:54:22.001Z</time></trkpt><trkpt lat="41.42528192096418" lon="13.93823866761567"><ele>75.66666666666667</ele><time>2026-04-12T12:54:23.001Z</time></trkpt><trkpt lat="41.42519757204566" lon="13.938294820732725"><ele>77.33333333333334</ele><time>2026-04-12T12:54:24.001Z</time></trkpt><trkpt lat="41.425127278175" lon="13.9383819616958"><ele>79.0</ele><time>2026-04-12T12:54:25.001Z</time></trkpt><trkpt lat="41.42507019201485" lon="13.93847884885816"><ele>80.66666666666667</ele><time>2026-04-12T12:54:26.001Z</time></trkpt><trkpt lat="41.42501429671099" lon="13.93854820055114"><ele>82.33333333333333</ele><time>2026-04-12T12:54:27.001Z</time></trkpt><trkpt lat="41.42494663647555" lon="13.938586873849351"><ele>84.0</ele><time>2026-04-12T12:54:28.001Z</time></trkpt><trkpt lat="41.42485880150414" lon="13.938591501605693"><ele>84.4</ele><time>2026-04-12T12:54:29.001Z</time></trkpt><trkpt lat="41.424765368170576" lon="13.938586081576126"><ele>84.80000000000001</ele><time>2026-04-12T12:54:30.001Z</time></trkpt><trkpt lat="41.42466697256088" lon="13.938575605439702"><ele>85.19999999999999</ele><time>2026-04-12T12:54:31.001Z</time></trkpt><trkpt lat="41.42456413120521" lon="13.93856120133382"><ele>85.6</ele><time>2026-04-12T12:54:32.001Z</time></trkpt><trkpt lat="41.42445973324273" lon="13.938554808724282"><ele>86.0</ele><time>2026-04-12T12:54:33.001Z</time></trkpt><trkpt lat="41.42437546219347" lon="13.938518468397186"><ele>86.8</ele><time>2026-04-12T12:54:34.001Z</time></trkpt><trkpt lat="41.424299093261965" lon="13.938454687762745"><ele>87.6</ele><time>2026-04-12T12:54:35.001Z</time></trkpt><trkpt lat="41.42421103776069" lon="13.938380391547103"><ele>88.4</ele><time>2026-04-12T12:54:36.001Z</time></trkpt><trkpt lat="41.424127844036676" lon="13.938306937117348"><ele>89.2</ele><time>2026-04-12T12:54:37.001Z</time></trkpt><trkpt lat="41.42403811719257" lon="13.938236051801413"><ele>90.0</ele><time>2026-04-12T12:54:38.001Z</time></trkpt><trkpt lat="41.42394117031925" lon="13.938157667641054"><ele>90.0</ele><time>2026-04-12T12:54:39.001Z</time></trkpt><trkpt lat="41.42385132660103" lon="13.938079972346506"><ele>90.0</ele><time>2026-04-12T12:54:40.001Z</time></trkpt><trkpt lat="41.42374798836184" lon="13.93798987790692"><ele>90.0</ele><time>2026-04-12T12:54:41.001Z</time></trkpt><trkpt lat="41.423635900803724" lon="13.937893798664563"><ele>90.0</ele><time>2026-04-12T12:54:42.001Z</time></trkpt><trkpt lat="41.423539958984016" lon="13.937807884725526"><ele>91.0</ele><time>2026-04-12T12:54:43.001Z</time></trkpt><trkpt lat="41.4234389471426" lon="13.93772667020824"><ele>92.0</ele><time>2026-04-12T12:54:44.001Z</time></trkpt><trkpt lat="41.42333811017494" lon="13.937648781673191"><ele>93.0</ele><time>2026-04-12T12:54:45.001Z</time></trkpt><trkpt lat="41.4232430560118" lon="13.937565917505381"><ele>94.0</ele><time>2026-04-12T12:54:46.001Z</time></trkpt><trkpt lat="41.42313576158678" lon="13.93747914414173"><ele>93.4</ele><time>2026-04-12T12:54:47.001Z</time></trkpt><trkpt lat="41.42303815808821" lon="13.937396065419714"><ele>92.80000000000001</ele><time>2026-04-12T12:54:48.001Z</time></trkpt><trkpt lat="41.422942685657425" lon="13.93731672630514"><ele>92.19999999999999</ele><time>2026-04-12T12:54:49.001Z</time></trkpt><trkpt lat="41.42285595274737" lon="13.937253857848622"><ele>91.6</ele><time>2026-04-12T12:54:50.001Z</time></trkpt><trkpt lat="41.42278740217199" lon="13.937182542189353"><ele>91.0</ele><time>2026-04-12T12:54:51.001Z</time></trkpt><trkpt lat="41.42272565256074" lon="13.937126293011188"><ele>91.0</ele><time>2026-04-12T12:54:52.001Z</time></trkpt><trkpt lat="41.422638067023435" lon="13.937086287256298"><ele>91.0</ele><time>2026-04-12T12:54:53Z</time></trkpt><trkpt lat="41.42256036461934" lon="13.937034259473277"><ele>91.0</ele><time>2026-04-12T12:54:54Z</time></trkpt><trkpt lat="41.42248138249715" lon="13.936948618033414"><ele>91.0</ele><time>2026-04-12T12:54:55Z</time></trkpt><trkpt lat="41.422397054403426" lon="13.936860455749699"><ele>91.0</ele><time>2026-04-12T12:54:56Z</time></trkpt><trkpt lat="41.422306688058036" lon="13.936763835079867"><ele>90.5</ele><time>2026-04-12T12:54:57Z</time></trkpt><trkpt lat="41.42221841201869" lon="13.936665519905251"><ele>90.0</ele><time>2026-04-12T12:54:58Z</time></trkpt><trkpt lat="41.42212893952575" lon="13.936564315687916"><ele>89.5</ele><time>2026-04-12T12:54:59Z</time></trkpt><trkpt lat="41.42203853385989" lon="13.936453434949385"><ele>89.0</ele><time>2026-04-12T12:55:00Z</time></trkpt><trkpt lat="41.421950546096745" lon="13.936339579406482"><ele>89.0</ele><time>2026-04-12T12:55:01Z</time></trkpt><trkpt lat="41.421861272223374" lon="13.936234311504705"><ele>89.0</ele><time>2026-04-12T12:55:02Z</time></trkpt><trkpt lat="41.42178714795755" lon="13.936150894287707"><ele>89.0</ele><time>2026-04-12T12:55:03Z</time></trkpt><trkpt lat="41.42172310347423" lon="13.936071391307259"><ele>89.0</ele><time>2026-04-12T12:55:04Z</time></trkpt><trkpt lat="41.421648398571165" lon="13.935949348601246"><ele>89.0</ele><time>2026-04-12T12:55:06Z</time></trkpt><trkpt lat="41.421640136084726" lon="13.935779095406138"><ele>88.80000000000001</ele><time>2026-04-12T12:55:08Z</time></trkpt><trkpt lat="41.421643282906984" lon="13.935674823979417"><ele>88.60000000000001</ele><time>2026-04-12T12:55:09Z</time></trkpt><trkpt lat="41.421625192787324" lon="13.93556755303659"><ele>88.4</ele><time>2026-04-12T12:55:10Z</time></trkpt><trkpt lat="41.421589618561576" lon="13.93544323571759"><ele>88.2</ele><time>2026-04-12T12:55:11Z</time></trkpt><trkpt lat="41.421541110730175" lon="13.935304139077061"><ele>88.0</ele><time>2026-04-12T12:55:12Z</time></trkpt><trkpt lat="41.42149304704334" lon="13.935188339980176"><ele>88.0</ele><time>2026-04-12T12:55:13Z</time></trkpt><trkpt lat="41.42144265446747" lon="13.93508465334415"><ele>88.0</ele><time>2026-04-12T12:55:14Z</time></trkpt><trkpt lat="41.42138273137539" lon="13.934967252109477"><ele>88.0</ele><time>2026-04-12T12:55:15Z</time></trkpt><trkpt lat="41.421308538463805" lon="13.934835803422517"><ele>88.0</ele><time>2026-04-12T12:55:16Z</time></trkpt><trkpt lat="41.42125022982419" lon="13.934712275066488"><ele>88.0</ele><time>2026-04-12T12:55:17Z</time></trkpt><trkpt lat="41.42121435716332" lon="13.934613024317237"><ele>88.0</ele><time>2026-04-12T12:55:18Z</time></trkpt><trkpt lat="41.42119978784512" lon="13.934483965873271"><ele>88.0</ele><time>2026-04-12T12:55:19Z</time></trkpt><trkpt lat="41.421169433044696" lon="13.934371325901344"><ele>88.0</ele><time>2026-04-12T12:55:20Z</time></trkpt><trkpt lat="41.42111112193668" lon="13.934274654853278"><ele>88.0</ele><time>2026-04-12T12:55:21Z</time></trkpt><trkpt lat="41.42106337440194" lon="13.934197552929039"><ele>88.0</ele><time>2026-04-12T12:55:22Z</time></trkpt><trkpt lat="41.42094615445446" lon="13.934096720587526"><ele>88.0</ele><time>2026-04-12T12:55:24Z</time></trkpt><trkpt lat="41.42087787320245" lon="13.934071857396377"><ele>88.0</ele><time>2026-04-12T12:55:25Z</time></trkpt><trkpt lat="41.42079137237251" lon="13.933988976046429"><ele>88.0</ele><time>2026-04-12T12:55:27Z</time></trkpt><trkpt lat="41.42071075956859" lon="13.93401592325661"><ele>88.0</ele><time>2026-04-12T12:55:30Z</time></trkpt><trkpt lat="41.420677320500324" lon="13.934101413591396"><ele>88.0</ele><time>2026-04-12T12:55:31Z</time></trkpt><trkpt lat="41.42066819338295" lon="13.93420434116671"><ele>88.0</ele><time>2026-04-12T12:55:32Z</time></trkpt><trkpt lat="41.42065692253641" lon="13.934328252563816"><ele>89.0</ele><time>2026-04-12T12:55:33Z</time></trkpt><trkpt lat="41.42063131573232" lon="13.934476573153763"><ele>90.0</ele><time>2026-04-12T12:55:34Z</time></trkpt><trkpt lat="41.4205753912479" lon="13.934612607898188"><ele>91.0</ele><time>2026-04-12T12:55:35Z</time></trkpt><trkpt lat="41.42054614291554" lon="13.934770492524171"><ele>92.0</ele><time>2026-04-12T12:55:36Z</time></trkpt><trkpt lat="41.42052341838624" lon="13.934951312381282"><ele>93.5</ele><time>2026-04-12T12:55:37Z</time></trkpt><trkpt lat="41.420467657958554" lon="13.9351138541978"><ele>95.0</ele><time>2026-04-12T12:55:38Z</time></trkpt><trkpt lat="41.42042272531555" lon="13.935284234355485"><ele>96.5</ele><time>2026-04-12T12:55:39Z</time></trkpt><trkpt lat="41.420371923545694" lon="13.93547686982919"><ele>98.0</ele><time>2026-04-12T12:55:40Z</time></trkpt><trkpt lat="41.42032182812783" lon="13.935665698093887"><ele>98.0</ele><time>2026-04-12T12:55:41Z</time></trkpt><trkpt lat="41.42027042607164" lon="13.93585414932364"><ele>98.0</ele><time>2026-04-12T12:55:42Z</time></trkpt><trkpt lat="41.42023385032929" lon="13.936050817650301"><ele>98.0</ele><time>2026-04-12T12:55:43Z</time></trkpt><trkpt lat="41.42016565935589" lon="13.936247528063335"><ele>98.33333333333333</ele><time>2026-04-12T12:55:44Z</time></trkpt><trkpt lat="41.42012262780945" lon="13.936447255533714"><ele>98.66666666666666</ele><time>2026-04-12T12:55:45Z</time></trkpt><trkpt lat="41.4200692345221" lon="13.936646795035372"><ele>99.0</ele><time>2026-04-12T12:55:46Z</time></trkpt><trkpt lat="41.4200081460064" lon="13.936834047615829"><ele>99.0</ele><time>2026-04-12T12:55:47Z</time></trkpt><trkpt lat="41.419936052658066" lon="13.937002035605188"><ele>99.0</ele><time>2026-04-12T12:55:48Z</time></trkpt><trkpt lat="41.419835598246664" lon="13.93713827331251"><ele>99.0</ele><time>2026-04-12T12:55:49Z</time></trkpt><trkpt lat="41.4197133728898" lon="13.93724785948865"><ele>99.0</ele><time>2026-04-12T12:55:50Z</time></trkpt><trkpt lat="41.419573355943996" lon="13.937349574533677"><ele>99.0</ele><time>2026-04-12T12:55:51Z</time></trkpt><trkpt lat="41.41942010645004" lon="13.937450696432974"><ele>99.0</ele><time>2026-04-12T12:55:52Z</time></trkpt><trkpt lat="41.41925679218173" lon="13.937548958890034"><ele>99.0</ele><time>2026-04-12T12:55:53Z</time></trkpt><trkpt lat="41.419093806211585" lon="13.937651549779696"><ele>99.0</ele><time>2026-04-12T12:55:54Z</time></trkpt><trkpt lat="41.41892975288615" lon="13.937753347580104"><ele>99.0</ele><time>2026-04-12T12:55:55Z</time></trkpt><trkpt lat="41.41876275921965" lon="13.937864461278672"><ele>99.0</ele><time>2026-04-12T12:55:56Z</time></trkpt><trkpt lat="41.41859682877776" lon="13.937976618797482"><ele>100.0</ele><time>2026-04-12T12:55:57Z</time></trkpt><trkpt lat="41.41842892307357" lon="13.938092835813135"><ele>101.0</ele><time>2026-04-12T12:55:58Z</time></trkpt><trkpt lat="41.418262794983825" lon="13.938209351558907"><ele>102.0</ele><time>2026-04-12T12:55:59Z</time></trkpt><trkpt lat="41.418098259074064" lon="13.938317469397505"><ele>102.33333333333334</ele><time>2026-04-12T12:56:00Z</time></trkpt><trkpt lat="41.41793707612668" lon="13.938437757933466"><ele>102.66666666666667</ele><time>2026-04-12T12:56:01Z</time></trkpt><trkpt lat="41.41778230881287" lon="13.93855496474418"><ele>103.0</ele><time>2026-04-12T12:56:02Z</time></trkpt><trkpt lat="41.417630870176204" lon="13.938682802608152"><ele>103.0</ele><time>2026-04-12T12:56:03Z</time></trkpt><trkpt lat="41.41749274365739" lon="13.938831832876408"><ele>103.0</ele><time>2026-04-12T12:56:04Z</time></trkpt><trkpt lat="41.4173664097646" lon="13.939003292261248"><ele>103.0</ele><time>2026-04-12T12:56:05Z</time></trkpt><trkpt lat="41.417264072388534" lon="13.939186576592716"><ele>104.33333333333334</ele><time>2026-04-12T12:56:06Z</time></trkpt><trkpt lat="41.41718283745305" lon="13.93937978443442"><ele>105.66666666666666</ele><time>2026-04-12T12:56:07Z</time></trkpt><trkpt lat="41.417125624816556" lon="13.939592057135291"><ele>107.0</ele><time>2026-04-12T12:56:08Z</time></trkpt><trkpt lat="41.41709379432721" lon="13.939820763020151"><ele>105.33333333333333</ele><time>2026-04-12T12:56:09Z</time></trkpt><trkpt lat="41.41706668795178" lon="13.940061693058793"><ele>103.66666666666666</ele><time>2026-04-12T12:56:10Z</time></trkpt><trkpt lat="41.41705275865654" lon="13.94030093480063"><ele>102.0</ele><time>2026-04-12T12:56:11Z</time></trkpt><trkpt lat="41.41703936201452" lon="13.940549118028656"><ele>102.0</ele><time>2026-04-12T12:56:12Z</time></trkpt><trkpt lat="41.41702563441962" lon="13.940783241786932"><ele>102.0</ele><time>2026-04-12T12:56:13Z</time></trkpt><trkpt lat="41.41702448211166" lon="13.940992902039737"><ele>102.0</ele><time>2026-04-12T12:56:14Z</time></trkpt><trkpt lat="41.41698408123277" lon="13.941184229933503"><ele>105.33333333333334</ele><time>2026-04-12T12:56:15Z</time></trkpt><trkpt lat="41.416909233773595" lon="13.94136108017275"><ele>108.66666666666667</ele><time>2026-04-12T12:56:16Z</time></trkpt><trkpt lat="41.41679800264964" lon="13.941505792075311"><ele>112.0</ele><time>2026-04-12T12:56:17Z</time></trkpt><trkpt lat="41.41667462741053" lon="13.941636303615837"><ele>111.33333333333334</ele><time>2026-04-12T12:56:18Z</time></trkpt><trkpt lat="41.41654491611658" lon="13.94178160770095"><ele>110.66666666666666</ele><time>2026-04-12T12:56:19Z</time></trkpt><trkpt lat="41.416404959207085" lon="13.941910431368713"><ele>110.0</ele><time>2026-04-12T12:56:20.001Z</time></trkpt><trkpt lat="41.4162673450949" lon="13.942046290880462"><ele>110.0</ele><time>2026-04-12T12:56:21.001Z</time></trkpt><trkpt lat="41.4161384916772" lon="13.942185081195495"><ele>110.0</ele><time>2026-04-12T12:56:22.001Z</time></trkpt><trkpt lat="41.416026000905774" lon="13.94232455219432"><ele>110.0</ele><time>2026-04-12T12:56:23.001Z</time></trkpt><trkpt lat="41.4159298678731" lon="13.942489630894244"><ele>113.33333333333333</ele><time>2026-04-12T12:56:24.001Z</time></trkpt><trkpt lat="41.415839396699646" lon="13.942661162950808"><ele>116.66666666666666</ele><time>2026-04-12T12:56:25.001Z</time></trkpt><trkpt lat="41.41577227585916" lon="13.942858806380782"><ele>120.0</ele><time>2026-04-12T12:56:26.001Z</time></trkpt><trkpt lat="41.41571884414401" lon="13.94307407789521"><ele>120.0</ele><time>2026-04-12T12:56:27.001Z</time></trkpt><trkpt lat="41.41567440748848" lon="13.943297263038033"><ele>120.0</ele><time>2026-04-12T12:56:28.001Z</time></trkpt><trkpt lat="41.41563428455911" lon="13.9435206006421"><ele>120.0</ele><time>2026-04-12T12:56:29.001Z</time></trkpt><trkpt lat="41.41559250380879" lon="13.943753378434788"><ele>119.66666666666666</ele><time>2026-04-12T12:56:30.001Z</time></trkpt><trkpt lat="41.41555025083074" lon="13.94399069275389"><ele>119.33333333333333</ele><time>2026-04-12T12:56:31.001Z</time></trkpt><trkpt lat="41.415508539135246" lon="13.944232258925544"><ele>119.0</ele><time>2026-04-12T12:56:32.001Z</time></trkpt><trkpt lat="41.415461741672026" lon="13.94448135657476"><ele>116.66666666666666</ele><time>2026-04-12T12:56:33.001Z</time></trkpt><trkpt lat="41.41541436032843" lon="13.944732499976126"><ele>114.33333333333334</ele><time>2026-04-12T12:56:34.001Z</time></trkpt><trkpt lat="41.415365390851385" lon="13.944993775702603"><ele>112.0</ele><time>2026-04-12T12:56:35.001Z</time></trkpt><trkpt lat="41.415320149538296" lon="13.945239914118963"><ele>111.66666666666667</ele><time>2026-04-12T12:56:36.001Z</time></trkpt><trkpt lat="41.41527881555859" lon="13.945460244703654"><ele>111.33333333333334</ele><time>2026-04-12T12:56:37.001Z</time></trkpt><trkpt lat="41.41524115213763" lon="13.9456571560718"><ele>111.0</ele><time>2026-04-12T12:56:38.001Z</time></trkpt><trkpt lat="41.415208434757" lon="13.945828207807986"><ele>111.16666666666667</ele><time>2026-04-12T12:56:39.001Z</time></trkpt><trkpt lat="41.4151812173843" lon="13.945971184257266"><ele>111.33333333333334</ele><time>2026-04-12T12:56:40.001Z</time></trkpt><trkpt lat="41.41515891456844" lon="13.946092348905298"><ele>111.5</ele><time>2026-04-12T12:56:41.001Z</time></trkpt><trkpt lat="41.415140466750486" lon="13.946192570429089"><ele>111.66666666666667</ele><time>2026-04-12T12:56:42.001Z</time></trkpt><trkpt lat="41.415120321050686" lon="13.946280454916904"><ele>111.83333333333334</ele><time>2026-04-12T12:56:43.001Z</time></trkpt><trkpt lat="41.415083911748866" lon="13.946353729267788"><ele>112.0</ele><time>2026-04-12T12:56:45.001Z</time></trkpt><trkpt lat="41.41492087313302" lon="13.946275289006554"><ele>112.0</ele><time>2026-04-12T12:56:46.001Z</time></trkpt><trkpt lat="41.41481793567937" lon="13.946238583324803"><ele>112.0</ele><time>2026-04-12T12:56:47.001Z</time></trkpt><trkpt lat="41.41469902270006" lon="13.946216806307781"><ele>112.0</ele><time>2026-04-12T12:56:48.001Z</time></trkpt><trkpt lat="41.41458492143481" lon="13.946139453812833"><ele>112.0</ele><time>2026-04-12T12:56:49.001Z</time></trkpt><trkpt lat="41.414454429453485" lon="13.946089345424893"><ele>112.0</ele><time>2026-04-12T12:56:50.001Z</time></trkpt><trkpt lat="41.41432249175509" lon="13.94600845919879"><ele>112.0</ele><time>2026-04-12T12:56:51.001Z</time></trkpt><trkpt lat="41.41419030986949" lon="13.945912594352304"><ele>112.0</ele><time>2026-04-12T12:56:52.001Z</time></trkpt><trkpt lat="41.4140532823344" lon="13.945807329776306"><ele>112.0</ele><time>2026-04-12T12:56:53.001Z</time></trkpt><trkpt lat="41.41391152607158" lon="13.945706232932551"><ele>112.0</ele><time>2026-04-12T12:56:54.001Z</time></trkpt><trkpt lat="41.413760715738505" lon="13.945619811881858"><ele>112.0</ele><time>2026-04-12T12:56:55.001Z</time></trkpt><trkpt lat="41.41361893917413" lon="13.945499496619318"><ele>112.25</ele><time>2026-04-12T12:56:56.001Z</time></trkpt><trkpt lat="41.41347657354964" lon="13.94540229256881"><ele>112.5</ele><time>2026-04-12T12:56:57.001Z</time></trkpt><trkpt lat="41.41334455525211" lon="13.94531351964097"><ele>112.75</ele><time>2026-04-12T12:56:58.001Z</time></trkpt><trkpt lat="41.41322204240864" lon="13.945231549667584"><ele>113.0</ele><time>2026-04-12T12:56:59Z</time></trkpt><trkpt lat="41.413100101653264" lon="13.945153452134084"><ele>113.0</ele><time>2026-04-12T12:57:00Z</time></trkpt><trkpt lat="41.4129898112281" lon="13.945083191961741"><ele>113.00000000000001</ele><time>2026-04-12T12:57:01Z</time></trkpt><trkpt lat="41.41290196019224" lon="13.945012844557686"><ele>113.00000000000001</ele><time>2026-04-12T12:57:02Z</time></trkpt><trkpt lat="41.41282360330561" lon="13.944934383205835"><ele>113.0</ele><time>2026-04-12T12:57:03Z</time></trkpt><trkpt lat="41.41277434447546" lon="13.944855516143754"><ele>113.0</ele><time>2026-04-12T12:57:04Z</time></trkpt><trkpt lat="41.41276637987994" lon="13.9447656237327"><ele>113.0</ele><time>2026-04-12T12:57:05Z</time></trkpt><trkpt lat="41.41257080847726" lon="13.94463107617322"><ele>113.0</ele><time>2026-04-12T12:57:07Z</time></trkpt><trkpt lat="41.412533260874106" lon="13.944494081467546"><ele>113.0</ele><time>2026-04-12T12:57:08Z</time></trkpt><trkpt lat="41.41249147834159" lon="13.944349729664282"><ele>113.0</ele><time>2026-04-12T12:57:09Z</time></trkpt><trkpt lat="41.412435321640295" lon="13.944201938150723"><ele>113.16666666666666</ele><time>2026-04-12T12:57:10Z</time></trkpt><trkpt lat="41.412374733505985" lon="13.94406044496683"><ele>113.33333333333333</ele><time>2026-04-12T12:57:11Z</time></trkpt><trkpt lat="41.41232475558017" lon="13.94395805875965"><ele>113.5</ele><time>2026-04-12T12:57:12Z</time></trkpt><trkpt lat="41.41228158540129" lon="13.943876652345077"><ele>113.66666666666666</ele><time>2026-04-12T12:57:13Z</time></trkpt><trkpt lat="41.41223677761096" lon="13.94380753935502"><ele>113.83333333333333</ele><time>2026-04-12T12:57:14Z</time></trkpt><trkpt lat="41.41220023789144" lon="13.943732332200774"><ele>114.0</ele><time>2026-04-12T12:57:15Z</time></trkpt><trkpt lat="41.41212608171588" lon="13.943634925329675"><ele>114.0</ele><time>2026-04-12T12:57:17Z</time></trkpt><trkpt lat="41.412022113588776" lon="13.943736913066125"><ele>114.0</ele><time>2026-04-12T12:57:19Z</time></trkpt><trkpt lat="41.41197544487681" lon="13.9438464772159"><ele>114.0</ele><time>2026-04-12T12:57:20Z</time></trkpt><trkpt lat="41.411936781849" lon="13.943943443226088"><ele>114.0</ele><time>2026-04-12T12:57:21Z</time></trkpt><trkpt lat="41.411998383425406" lon="13.944080044387812"><ele>114.0</ele><time>2026-04-12T12:57:24Z</time></trkpt><trkpt lat="41.41202201385179" lon="13.944182255888117"><ele>114.83333333333333</ele><time>2026-04-12T12:57:26Z</time></trkpt><trkpt lat="41.41197137946437" lon="13.944250960643934"><ele>115.66666666666666</ele><time>2026-04-12T12:57:27Z</time></trkpt><trkpt lat="41.411920202665286" lon="13.944363738226373"><ele>116.5</ele><time>2026-04-12T12:57:29Z</time></trkpt><trkpt lat="41.4118837356271" lon="13.94444079534386"><ele>117.33333333333333</ele><time>2026-04-12T12:57:30Z</time></trkpt><trkpt lat="41.41183847262506" lon="13.94455324327104"><ele>118.16666666666666</ele><time>2026-04-12T12:57:31Z</time></trkpt><trkpt lat="41.41180828056865" lon="13.944654322714436"><ele>119.0</ele><time>2026-04-12T12:57:32Z</time></trkpt><trkpt lat="41.41175341235133" lon="13.94473002603998"><ele>119.0</ele><time>2026-04-12T12:57:34Z</time></trkpt><trkpt lat="41.41167284634272" lon="13.94474650450612"><ele>119.0</ele><time>2026-04-12T12:57:36Z</time></trkpt><trkpt lat="41.41158307814999" lon="13.944832439753814"><ele>119.0</ele><time>2026-04-12T12:57:37Z</time></trkpt><trkpt lat="41.41151608999373" lon="13.944930353096291"><ele>119.0</ele><time>2026-04-12T12:57:38Z</time></trkpt><trkpt lat="41.411411670633434" lon="13.94496229895757"><ele>119.0</ele><time>2026-04-12T12:57:40Z</time></trkpt><trkpt lat="41.411300790049026" lon="13.945048458064536"><ele>119.99999999999999</ele><time>2026-04-12T12:57:42Z</time></trkpt><trkpt lat="41.41122150052666" lon="13.945051752930299"><ele>121.0</ele><time>2026-04-12T12:57:45Z</time></trkpt><trkpt lat="41.411134202449766" lon="13.945109073570702"><ele>122.0</ele><time>2026-04-12T12:57:47Z</time></trkpt><trkpt lat="41.41105277557097" lon="13.945150984084156"><ele>123.0</ele><time>2026-04-12T12:57:48Z</time></trkpt><trkpt lat="41.41099814229841" lon="13.945255249324081"><ele>123.99999999999999</ele><time>2026-04-12T12:57:51Z</time></trkpt><trkpt lat="41.41092918353882" lon="13.945285696093652"><ele>125.0</ele><time>2026-04-12T12:57:54Z</time></trkpt><trkpt lat="41.410831547158196" lon="13.945307673720706"><ele>124.99999999999999</ele><time>2026-04-12T12:57:57Z</time></trkpt><trkpt lat="41.410774744843245" lon="13.945370738684575"><ele>125.0</ele><time>2026-04-12T12:57:58Z</time></trkpt><trkpt lat="41.41071216221842" lon="13.945406308104612"><ele>125.0</ele><time>2026-04-12T12:57:59Z</time></trkpt><trkpt lat="41.41062711642542" lon="13.945468772876882"><ele>125.0</ele><time>2026-04-12T12:58:03Z</time></trkpt><trkpt lat="41.4105426631105" lon="13.945530141346875"><ele>124.99999999999999</ele><time>2026-04-12T12:58:04Z</time></trkpt><trkpt lat="41.41049867143606" lon="13.945593777358017"><ele>125.0</ele><time>2026-04-12T12:58:08Z</time></trkpt><trkpt lat="41.41042852142433" lon="13.945626270720204"><ele>125.16666666666666</ele><time>2026-04-12T12:58:11Z</time></trkpt><trkpt lat="41.410369544721824" lon="13.945667231531367"><ele>125.33333333333333</ele><time>2026-04-12T12:58:13Z</time></trkpt><trkpt lat="41.41028369737781" lon="13.945724696062943"><ele>125.5</ele><time>2026-04-12T12:58:15Z</time></trkpt><trkpt lat="41.41022646390633" lon="13.945833498592112"><ele>125.66666666666666</ele><time>2026-04-12T12:58:18Z</time></trkpt><trkpt lat="41.410225058662775" lon="13.945950930586005"><ele>125.83333333333333</ele><time>2026-04-12T12:58:19Z</time></trkpt><trkpt lat="41.41024146861747" lon="13.946076048695348"><ele>126.0</ele><time>2026-04-12T12:58:21Z</time></trkpt><trkpt lat="41.41016419332139" lon="13.94609828704372"><ele>127.6</ele><time>2026-04-12T12:58:23Z</time></trkpt><trkpt lat="41.41009061089055" lon="13.946151601500938"><ele>129.2</ele><time>2026-04-12T12:58:25Z</time></trkpt><trkpt lat="41.41000820551212" lon="13.946187954500896"><ele>130.8</ele><time>2026-04-12T12:58:27Z</time></trkpt><trkpt lat="41.40995062505246" lon="13.94625145033143"><ele>132.4</ele><time>2026-04-12T12:58:30Z</time></trkpt><trkpt lat="41.4098779605865" lon="13.94633253744864"><ele>134.0</ele><time>2026-04-12T12:58:32Z</time></trkpt><trkpt lat="41.40977602381956" lon="13.946440456055253"><ele>134.0</ele><time>2026-04-12T12:58:34.001Z</time></trkpt><trkpt lat="41.409706434234415" lon="13.946474745573099"><ele>134.0</ele><time>2026-04-12T12:58:36.001Z</time></trkpt><trkpt lat="41.409565461189935" lon="13.94651966276933"><ele>134.0</ele><time>2026-04-12T12:58:38.001Z</time></trkpt><trkpt lat="41.40949241261001" lon="13.946553166285637"><ele>134.0</ele><time>2026-04-12T12:58:39.001Z</time></trkpt><trkpt lat="41.40943202957819" lon="13.946626928314364"><ele>134.0</ele><time>2026-04-12T12:58:41.001Z</time></trkpt><trkpt lat="41.409356751583175" lon="13.94670546368424"><ele>135.4</ele><time>2026-04-12T12:58:43.001Z</time></trkpt><trkpt lat="41.409229305662926" lon="13.946784347949547"><ele>136.8</ele><time>2026-04-12T12:58:45.001Z</time></trkpt><trkpt lat="41.40915965715657" lon="13.946858463830308"><ele>138.2</ele><time>2026-04-12T12:58:47.001Z</time></trkpt><trkpt lat="41.40908232947097" lon="13.9468658763076"><ele>139.6</ele><time>2026-04-12T12:58:48.001Z</time></trkpt><trkpt lat="41.40905539760146" lon="13.946965974629897"><ele>141.0</ele><time>2026-04-12T12:58:50.001Z</time></trkpt><trkpt lat="41.40899563171015" lon="13.946995360266023"><ele>141.0</ele><time>2026-04-12T12:58:51.001Z</time></trkpt><trkpt lat="41.40890813307156" lon="13.947091241476288"><ele>141.0</ele><time>2026-04-12T12:58:54.001Z</time></trkpt><trkpt lat="41.40882335111046" lon="13.947143535762482"><ele>141.0</ele><time>2026-04-12T12:58:56.001Z</time></trkpt><trkpt lat="41.40873214884551" lon="13.947200541524674"><ele>141.0</ele><time>2026-04-12T12:58:58.001Z</time></trkpt><trkpt lat="41.40870894554967" lon="13.94731448449436"><ele>141.0</ele><time>2026-04-12T12:59:00.001Z</time></trkpt><trkpt lat="41.408636120498024" lon="13.94737261372524"><ele>141.0</ele><time>2026-04-12T12:59:03.001Z</time></trkpt><trkpt lat="41.40857143390435" lon="13.947416742151916"><ele>141.0</ele><time>2026-04-12T12:59:04.001Z</time></trkpt><trkpt lat="41.408497254189996" lon="13.947445069519713"><ele>141.0</ele><time>2026-04-12T12:59:06Z</time></trkpt><trkpt lat="41.40841988329753" lon="13.947533598643355"><ele>141.0</ele><time>2026-04-12T12:59:08Z</time></trkpt><trkpt lat="41.40837542011428" lon="13.94762677817601"><ele>141.0</ele><time>2026-04-12T12:59:10Z</time></trkpt><trkpt lat="41.4083170025915" lon="13.94770080548109"><ele>141.0</ele><time>2026-04-12T12:59:12Z</time></trkpt><trkpt lat="41.40827699579524" lon="13.947850878954995"><ele>142.83333333333334</ele><time>2026-04-12T12:59:15Z</time></trkpt><trkpt lat="41.40819119068488" lon="13.94790250588432"><ele>144.66666666666666</ele><time>2026-04-12T12:59:18Z</time></trkpt><trkpt lat="41.40812120674529" lon="13.947947119257654"><ele>146.5</ele><time>2026-04-12T12:59:19Z</time></trkpt><trkpt lat="41.40806119149992" lon="13.948005379347606"><ele>148.33333333333331</ele><time>2026-04-12T12:59:21Z</time></trkpt><trkpt lat="41.40800704071772" lon="13.948073276519695"><ele>150.16666666666666</ele><time>2026-04-12T12:59:23Z</time></trkpt><trkpt lat="41.40802112522614" lon="13.948169639150327"><ele>152.0</ele><time>2026-04-12T12:59:25Z</time></trkpt><trkpt lat="41.407956826609954" lon="13.948299165607802"><ele>153.6</ele><time>2026-04-12T12:59:27Z</time></trkpt><trkpt lat="41.4079190021446" lon="13.948375078568528"><ele>155.2</ele><time>2026-04-12T12:59:28Z</time></trkpt><trkpt lat="41.40787503659926" lon="13.94850732032915"><ele>156.8</ele><time>2026-04-12T12:59:30Z</time></trkpt><trkpt lat="41.407825031790466" lon="13.948648388005246"><ele>158.4</ele><time>2026-04-12T12:59:32Z</time></trkpt><trkpt lat="41.40780881498961" lon="13.948748035130006"><ele>160.0</ele><time>2026-04-12T12:59:34Z</time></trkpt><trkpt lat="41.40771847293116" lon="13.948811227199224"><ele>161.5</ele><time>2026-04-12T12:59:36Z</time></trkpt><trkpt lat="41.40773443014956" lon="13.948944038211312"><ele>163.0</ele><time>2026-04-12T12:59:38Z</time></trkpt><trkpt lat="41.40775690191613" lon="13.94904935795724"><ele>164.5</ele><time>2026-04-12T12:59:40Z</time></trkpt><trkpt lat="41.4077536678064" lon="13.949148489433972"><ele>166.0</ele><time>2026-04-12T12:59:42Z</time></trkpt><trkpt lat="41.40767066984098" lon="13.949254592841548"><ele>167.5</ele><time>2026-04-12T12:59:44Z</time></trkpt><trkpt lat="41.40760742850807" lon="13.949313340351775"><ele>169.0</ele><time>2026-04-12T12:59:48Z</time></trkpt><trkpt lat="41.40752549121855" lon="13.949375579147665"><ele>169.42857142857144</ele><time>2026-04-12T12:59:50Z</time></trkpt><trkpt lat="41.40749022066946" lon="13.949450295058778"><ele>169.85714285714286</ele><time>2026-04-12T12:59:52Z</time></trkpt><trkpt lat="41.40747521083033" lon="13.949534477314328"><ele>170.28571428571428</ele><time>2026-04-12T12:59:54Z</time></trkpt><trkpt lat="41.40742821878069" lon="13.949593476125951"><ele>170.71428571428572</ele><time>2026-04-12T12:59:56Z</time></trkpt><trkpt lat="41.40737381535309" lon="13.949645333128077"><ele>171.14285714285714</ele><time>2026-04-12T12:59:58Z</time></trkpt><trkpt lat="41.40730285632815" lon="13.949654962991085"><ele>171.57142857142858</ele><time>2026-04-12T12:59:59Z</time></trkpt><trkpt lat="41.4072389025903" lon="13.949692641640544"><ele>172.0</ele><time>2026-04-12T13:00:01Z</time></trkpt><trkpt lat="41.407227148456606" lon="13.949816542696283"><ele>172.00000000000003</ele><time>2026-04-12T13:00:04Z</time></trkpt><trkpt lat="41.4072953306051" lon="13.949845051451213"><ele>172.0</ele><time>2026-04-12T13:00:06Z</time></trkpt><trkpt lat="41.40735894312574" lon="13.949819334373123"><ele>172.0</ele><time>2026-04-12T13:00:08Z</time></trkpt><trkpt lat="41.407422992733956" lon="13.949781533126313"><ele>172.0</ele><time>2026-04-12T13:00:11Z</time></trkpt><trkpt lat="41.40749664044697" lon="13.94975967813333"><ele>172.0</ele><time>2026-04-12T13:00:12Z</time></trkpt><trkpt lat="41.40755186568707" lon="13.949809366506935"><ele>172.00000000000003</ele><time>2026-04-12T13:00:14Z</time></trkpt><trkpt lat="41.4076467465308" lon="13.949841068884686"><ele>172.0</ele><time>2026-04-12T13:00:17Z</time></trkpt><trkpt lat="41.407703752955406" lon="13.949900691319034"><ele>172.0</ele><time>2026-04-12T13:00:19Z</time></trkpt><trkpt lat="41.40775714339971" lon="13.949981041289657"><ele>172.0</ele><time>2026-04-12T13:00:22Z</time></trkpt><trkpt lat="41.407810401953526" lon="13.95006497922784"><ele>172.0</ele><time>2026-04-12T13:00:25Z</time></trkpt><trkpt lat="41.407923208896634" lon="13.950114838288322"><ele>172.0</ele><time>2026-04-12T13:00:28Z</time></trkpt><trkpt lat="41.407976913994204" lon="13.950197514248478"><ele>172.0</ele><time>2026-04-12T13:00:30Z</time></trkpt><trkpt lat="41.40814231455189" lon="13.950313606540938"><ele>167.33333333333334</ele><time>2026-04-12T13:00:32Z</time></trkpt><trkpt lat="41.408247644167446" lon="13.950351789702028"><ele>162.66666666666666</ele><time>2026-04-12T13:00:33Z</time></trkpt><trkpt lat="41.40832849926495" lon="13.95036459246224"><ele>158.0</ele><time>2026-04-12T13:00:34Z</time></trkpt><trkpt lat="41.40868693170296" lon="13.950394755074997"><ele>158.0</ele><time>2026-04-12T13:00:38Z</time></trkpt><trkpt lat="41.40877465518765" lon="13.950434473246117"><ele>158.0</ele><time>2026-04-12T13:00:39Z</time></trkpt><trkpt lat="41.408846443765995" lon="13.95047943796126"><ele>158.0</ele><time>2026-04-12T13:00:40Z</time></trkpt><trkpt lat="41.40892285709426" lon="13.950548773473935"><ele>158.0</ele><time>2026-04-12T13:00:41Z</time></trkpt><trkpt lat="41.40901548407203" lon="13.950621978978374"><ele>158.0</ele><time>2026-04-12T13:00:42Z</time></trkpt><trkpt lat="41.40910561266044" lon="13.95069377517051"><ele>156.20000000000002</ele><time>2026-04-12T13:00:43Z</time></trkpt><trkpt lat="41.40921391805069" lon="13.950768157267634"><ele>154.4</ele><time>2026-04-12T13:00:44Z</time></trkpt><trkpt lat="41.40931740288988" lon="13.950845847822036"><ele>152.60000000000002</ele><time>2026-04-12T13:00:45Z</time></trkpt><trkpt lat="41.409408197477994" lon="13.950905710429176"><ele>150.8</ele><time>2026-04-12T13:00:46.001Z</time></trkpt><trkpt lat="41.409493179197966" lon="13.950981656637149"><ele>149.0</ele><time>2026-04-12T13:00:47.001Z</time></trkpt><trkpt lat="41.409582071642966" lon="13.95106593694425"><ele>146.5</ele><time>2026-04-12T13:00:48.001Z</time></trkpt><trkpt lat="41.40969583966804" lon="13.951149612274856"><ele>144.0</ele><time>2026-04-12T13:00:49.001Z</time></trkpt><trkpt lat="41.40980515525726" lon="13.951228505126258"><ele>141.5</ele><time>2026-04-12T13:00:50.001Z</time></trkpt><trkpt lat="41.40993396265581" lon="13.95134535870783"><ele>139.0</ele><time>2026-04-12T13:00:51.001Z</time></trkpt><trkpt lat="41.41005968308036" lon="13.951439340505814"><ele>139.0</ele><time>2026-04-12T13:00:52.001Z</time></trkpt><trkpt lat="41.41018058168039" lon="13.951534074935825"><ele>139.0</ele><time>2026-04-12T13:00:53.001Z</time></trkpt><trkpt lat="41.41033999104235" lon="13.95163286953511"><ele>139.0</ele><time>2026-04-12T13:00:54.001Z</time></trkpt><trkpt lat="41.41047864137109" lon="13.951722525393956"><ele>136.5</ele><time>2026-04-12T13:00:55.001Z</time></trkpt><trkpt lat="41.41061296108641" lon="13.951810379897797"><ele>134.0</ele><time>2026-04-12T13:00:56.001Z</time></trkpt><trkpt lat="41.41074748664729" lon="13.951891795981"><ele>131.5</ele><time>2026-04-12T13:00:57.001Z</time></trkpt><trkpt lat="41.41086734850391" lon="13.951967389715577"><ele>129.0</ele><time>2026-04-12T13:00:58.001Z</time></trkpt><trkpt lat="41.41097352672085" lon="13.952030883599951"><ele>129.0</ele><time>2026-04-12T13:00:59.001Z</time></trkpt><trkpt lat="41.41106039278897" lon="13.952083581126908"><ele>129.0</ele><time>2026-04-12T13:01:00.001Z</time></trkpt><trkpt lat="41.41112862384738" lon="13.952130977984924"><ele>129.0</ele><time>2026-04-12T13:01:01.001Z</time></trkpt><trkpt lat="41.41116601742569" lon="13.95227544896594"><ele>129.0</ele><time>2026-04-12T13:01:03.001Z</time></trkpt><trkpt lat="41.411136527484516" lon="13.952381542895617"><ele>129.0</ele><time>2026-04-12T13:01:04.001Z</time></trkpt><trkpt lat="41.411088461062214" lon="13.95250240172132"><ele>128.75</ele><time>2026-04-12T13:01:05.001Z</time></trkpt><trkpt lat="41.41119863630804" lon="13.952758655747575"><ele>128.5</ele><time>2026-04-12T13:01:06.001Z</time></trkpt><trkpt lat="41.41114828795602" lon="13.95288622151832"><ele>128.25</ele><time>2026-04-12T13:01:07.001Z</time></trkpt><trkpt lat="41.4111041419814" lon="13.952998072407258"><ele>128.0</ele><time>2026-04-12T13:01:08.001Z</time></trkpt><trkpt lat="41.41106346703493" lon="13.953101129154058"><ele>127.99999999999999</ele><time>2026-04-12T13:01:09.001Z</time></trkpt><trkpt lat="41.41102825913619" lon="13.95319079816978"><ele>128.0</ele><time>2026-04-12T13:01:10.001Z</time></trkpt><trkpt lat="41.41099727845875" lon="13.953270369764272"><ele>128.0</ele><time>2026-04-12T13:01:11Z</time></trkpt><trkpt lat="41.41096701076572" lon="13.953348110357526"><ele>128.0</ele><time>2026-04-12T13:01:12Z</time></trkpt><trkpt lat="41.41091849231081" lon="13.953472726995233"><ele>127.99999999999999</ele><time>2026-04-12T13:01:14Z</time></trkpt><trkpt lat="41.41088401459316" lon="13.953561280833487"><ele>128.0</ele><time>2026-04-12T13:01:19Z</time></trkpt><trkpt lat="41.41084223778926" lon="13.953668581706694"><ele>128.33333333333331</ele><time>2026-04-12T13:01:21.021Z</time></trkpt><trkpt lat="41.41080639863941" lon="13.95376063227255"><ele>128.66666666666666</ele><time>2026-04-12T13:01:23.021Z</time></trkpt><trkpt lat="41.411054371233476" lon="13.953582394037127"><ele>129.0</ele><time>2026-04-12T13:01:25Z</time></trkpt><trkpt lat="41.41094968019495" lon="13.953777947421555"><ele>129.0</ele><time>2026-04-12T13:01:28Z</time></trkpt><trkpt lat="41.41090346918846" lon="13.953896636785737"><ele>129.0</ele><time>2026-04-12T13:01:29Z</time></trkpt><trkpt lat="41.41085255051527" lon="13.95402741653325"><ele>129.0</ele><time>2026-04-12T13:01:30Z</time></trkpt><trkpt lat="41.41079975577485" lon="13.95416226870856"><ele>129.0</ele><time>2026-04-12T13:01:31Z</time></trkpt><trkpt lat="41.41075238057929" lon="13.954283161666574"><ele>129.0</ele><time>2026-04-12T13:01:32Z</time></trkpt><trkpt lat="41.410688584594055" lon="13.954445958756034"><ele>129.33333333333334</ele><time>2026-04-12T13:01:34Z</time></trkpt><trkpt lat="41.410651222354026" lon="13.954541301469582"><ele>129.66666666666666</ele><time>2026-04-12T13:01:35Z</time></trkpt><trkpt lat="41.41060002628734" lon="13.954671947882751"><ele>130.0</ele><time>2026-04-12T13:01:36Z</time></trkpt><trkpt lat="41.41055185723741" lon="13.954794866158583"><ele>130.33333333333331</ele><time>2026-04-12T13:01:37Z</time></trkpt><trkpt lat="41.410518390723446" lon="13.95488026628708"><ele>130.66666666666666</ele><time>2026-04-12T13:01:38Z</time></trkpt><trkpt lat="41.41048590802846" lon="13.95496315569097"><ele>131.0</ele><time>2026-04-12T13:01:39Z</time></trkpt><trkpt lat="41.41044971263719" lon="13.95509844881719"><ele>132.0</ele><time>2026-04-12T13:01:40Z</time></trkpt><trkpt lat="41.41042662772425" lon="13.955215335565311"><ele>133.0</ele><time>2026-04-12T13:01:41Z</time></trkpt><trkpt lat="41.41041171466755" lon="13.955315231366567"><ele>134.0</ele><time>2026-04-12T13:01:42Z</time></trkpt><trkpt lat="41.41104203064067" lon="13.955938932796101"><ele>134.0</ele><time>2026-04-12T13:01:44Z</time></trkpt><trkpt lat="41.41102877514381" lon="13.956059398166445"><ele>134.0</ele><time>2026-04-12T13:01:45Z</time></trkpt><trkpt lat="41.41102427265285" lon="13.956222557798057"><ele>134.0</ele><time>2026-04-12T13:01:46Z</time></trkpt><trkpt lat="41.411022177707295" lon="13.956401876514576"><ele>134.0</ele><time>2026-04-12T13:01:47Z</time></trkpt><trkpt lat="41.41101697338829" lon="13.956574531386325"><ele>134.0</ele><time>2026-04-12T13:01:48Z</time></trkpt><trkpt lat="41.411012029441984" lon="13.956732991288339"><ele>134.0</ele><time>2026-04-12T13:01:49Z</time></trkpt><trkpt lat="41.41099981398109" lon="13.956889387664795"><ele>134.0</ele><time>2026-04-12T13:01:50Z</time></trkpt><trkpt lat="41.4109641390726" lon="13.957057320708468"><ele>134.0</ele><time>2026-04-12T13:01:51Z</time></trkpt><trkpt lat="41.41090508617732" lon="13.957221274360146"><ele>134.0</ele><time>2026-04-12T13:01:52Z</time></trkpt><trkpt lat="41.41085206591832" lon="13.957384801066041"><ele>134.0</ele><time>2026-04-12T13:01:53Z</time></trkpt><trkpt lat="41.41080339587268" lon="13.957554790470624"><ele>134.0</ele><time>2026-04-12T13:01:54Z</time></trkpt><trkpt lat="41.41074249315466" lon="13.95772130714319"><ele>134.0</ele><time>2026-04-12T13:01:55Z</time></trkpt><trkpt lat="41.41069079080233" lon="13.957900082669854"><ele>133.75</ele><time>2026-04-12T13:01:56Z</time></trkpt><trkpt lat="41.41062839694103" lon="13.9580777733055"><ele>133.5</ele><time>2026-04-12T13:01:57Z</time></trkpt><trkpt lat="41.4105603003464" lon="13.958239742203231"><ele>133.25</ele><time>2026-04-12T13:01:58Z</time></trkpt><trkpt lat="41.41048004382385" lon="13.958409974375728"><ele>133.0</ele><time>2026-04-12T13:01:59Z</time></trkpt><trkpt lat="41.41039138633548" lon="13.958582831387794"><ele>135.0</ele><time>2026-04-12T13:02:00Z</time></trkpt><trkpt lat="41.41033374755678" lon="13.958744678631934"><ele>137.0</ele><time>2026-04-12T13:02:01Z</time></trkpt><trkpt lat="41.41025100062315" lon="13.958950912499699"><ele>139.0</ele><time>2026-04-12T13:02:02Z</time></trkpt><trkpt lat="41.41016454857564" lon="13.959147104844254"><ele>137.75</ele><time>2026-04-12T13:02:03Z</time></trkpt><trkpt lat="41.41009320225242" lon="13.959343116291985"><ele>136.5</ele><time>2026-04-12T13:02:04Z</time></trkpt><trkpt lat="41.41002985547052" lon="13.959503260497979"><ele>135.25</ele><time>2026-04-12T13:02:05Z</time></trkpt><trkpt lat="41.40997166943241" lon="13.959668654916241"><ele>134.0</ele><time>2026-04-12T13:02:06Z</time></trkpt><trkpt lat="41.40990474711522" lon="13.959841443592657"><ele>134.0</ele><time>2026-04-12T13:02:07Z</time></trkpt><trkpt lat="41.40985621145318" lon="13.96001890963167"><ele>134.0</ele><time>2026-04-12T13:02:08Z</time></trkpt><trkpt lat="41.40983159058952" lon="13.96022163171727"><ele>134.0</ele><time>2026-04-12T13:02:09Z</time></trkpt><trkpt lat="41.40980926410428" lon="13.960416586286884"><ele>134.0</ele><time>2026-04-12T13:02:10Z</time></trkpt><trkpt lat="41.40977452467094" lon="13.960615645406598"><ele>133.0</ele><time>2026-04-12T13:02:11Z</time></trkpt><trkpt lat="41.409726718777016" lon="13.960814985496217"><ele>132.0</ele><time>2026-04-12T13:02:12Z</time></trkpt><trkpt lat="41.40967589211523" lon="13.961009116314424"><ele>131.0</ele><time>2026-04-12T13:02:13Z</time></trkpt><trkpt lat="41.40962776649458" lon="13.961215603041705"><ele>129.33333333333331</ele><time>2026-04-12T13:02:14Z</time></trkpt><trkpt lat="41.40958497676568" lon="13.96140736503105"><ele>127.66666666666666</ele><time>2026-04-12T13:02:15Z</time></trkpt><trkpt lat="41.40949748213982" lon="13.961571686739703"><ele>126.0</ele><time>2026-04-12T13:02:16Z</time></trkpt><trkpt lat="41.40943722479496" lon="13.961761505914371"><ele>125.75</ele><time>2026-04-12T13:02:17Z</time></trkpt><trkpt lat="41.409366235316966" lon="13.96193243407887"><ele>125.5</ele><time>2026-04-12T13:02:18Z</time></trkpt><trkpt lat="41.4092907512105" lon="13.962098111640945"><ele>125.25</ele><time>2026-04-12T13:02:19Z</time></trkpt><trkpt lat="41.409219559509545" lon="13.962259219035873"><ele>125.0</ele><time>2026-04-12T13:02:20Z</time></trkpt><trkpt lat="41.40914799703679" lon="13.962419255891977"><ele>125.0</ele><time>2026-04-12T13:02:21Z</time></trkpt><trkpt lat="41.409066912413216" lon="13.962568887798692"><ele>125.0</ele><time>2026-04-12T13:02:22Z</time></trkpt><trkpt lat="41.408951613612295" lon="13.962637214750124"><ele>125.0</ele><time>2026-04-12T13:02:23Z</time></trkpt><trkpt lat="41.40887839846521" lon="13.962753922629291"><ele>125.0</ele><time>2026-04-12T13:02:24Z</time></trkpt><trkpt lat="41.408853555644875" lon="13.962916352255089"><ele>125.0</ele><time>2026-04-12T13:02:25Z</time></trkpt><trkpt lat="41.40884200957356" lon="13.963088873604745"><ele>125.0</ele><time>2026-04-12T13:02:26Z</time></trkpt><trkpt lat="41.40885128435413" lon="13.963272973405122"><ele>125.0</ele><time>2026-04-12T13:02:27Z</time></trkpt><trkpt lat="41.40888012703798" lon="13.963459703535568"><ele>125.0</ele><time>2026-04-12T13:02:28Z</time></trkpt><trkpt lat="41.40890882951382" lon="13.963623514650763"><ele>125.4</ele><time>2026-04-12T13:02:29Z</time></trkpt><trkpt lat="41.40892692200453" lon="13.963762510532334"><ele>125.8</ele><time>2026-04-12T13:02:30Z</time></trkpt><trkpt lat="41.408905446660874" lon="13.963886375235054"><ele>126.19999999999999</ele><time>2026-04-12T13:02:31Z</time></trkpt><trkpt lat="41.408864301718715" lon="13.96402378859804"><ele>126.6</ele><time>2026-04-12T13:02:32Z</time></trkpt><trkpt lat="41.408808432493956" lon="13.964171726743231"><ele>127.0</ele><time>2026-04-12T13:02:33Z</time></trkpt><trkpt lat="41.408740673390575" lon="13.964324219254385"><ele>125.0</ele><time>2026-04-12T13:02:34Z</time></trkpt><trkpt lat="41.408663558320754" lon="13.964483905000318"><ele>123.0</ele><time>2026-04-12T13:02:35Z</time></trkpt><trkpt lat="41.40858048778567" lon="13.964652747221324"><ele>121.0</ele><time>2026-04-12T13:02:36Z</time></trkpt><trkpt lat="41.40849300138767" lon="13.9648281504773"><ele>121.0</ele><time>2026-04-12T13:02:37Z</time></trkpt><trkpt lat="41.40841553520955" lon="13.965007614818598"><ele>121.0</ele><time>2026-04-12T13:02:38Z</time></trkpt><trkpt lat="41.408301399947675" lon="13.965167577382754"><ele>121.0</ele><time>2026-04-12T13:02:39Z</time></trkpt><trkpt lat="41.40819025037222" lon="13.965338499392251"><ele>121.0</ele><time>2026-04-12T13:02:40Z</time></trkpt><trkpt lat="41.40807652063194" lon="13.965512505543352"><ele>121.0</ele><time>2026-04-12T13:02:41Z</time></trkpt><trkpt lat="41.40796082079043" lon="13.965691499219815"><ele>121.0</ele><time>2026-04-12T13:02:42Z</time></trkpt><trkpt lat="41.40786393747941" lon="13.965885268554628"><ele>120.0</ele><time>2026-04-12T13:02:43Z</time></trkpt><trkpt lat="41.40777771914139" lon="13.96608879942456"><ele>119.0</ele><time>2026-04-12T13:02:44Z</time></trkpt><trkpt lat="41.40769603775708" lon="13.966293169268676"><ele>118.0</ele><time>2026-04-12T13:02:45Z</time></trkpt><trkpt lat="41.4076204356415" lon="13.966499461820517"><ele>118.33333333333334</ele><time>2026-04-12T13:02:46Z</time></trkpt><trkpt lat="41.407552711970766" lon="13.966708518900075"><ele>118.66666666666666</ele><time>2026-04-12T13:02:47Z</time></trkpt><trkpt lat="41.407488936233186" lon="13.966914511004815"><ele>119.0</ele><time>2026-04-12T13:02:48Z</time></trkpt><trkpt lat="41.407421995313946" lon="13.967118159596184"><ele>119.0</ele><time>2026-04-12T13:02:49Z</time></trkpt><trkpt lat="41.407350389052034" lon="13.967319411408594"><ele>119.0</ele><time>2026-04-12T13:02:50Z</time></trkpt><trkpt lat="41.40727888245419" lon="13.967523575473972"><ele>119.0</ele><time>2026-04-12T13:02:51Z</time></trkpt><trkpt lat="41.40721311007242" lon="13.967725289057011"><ele>120.66666666666666</ele><time>2026-04-12T13:02:52Z</time></trkpt><trkpt lat="41.40714417059381" lon="13.967926082570939"><ele>122.33333333333334</ele><time>2026-04-12T13:02:53Z</time></trkpt><trkpt lat="41.40705814037616" lon="13.968111757130268"><ele>124.0</ele><time>2026-04-12T13:02:54Z</time></trkpt><trkpt lat="41.406961038492554" lon="13.968288889868317"><ele>124.0</ele><time>2026-04-12T13:02:55Z</time></trkpt><trkpt lat="41.40686391380443" lon="13.968463305531076"><ele>124.0</ele><time>2026-04-12T13:02:56Z</time></trkpt><trkpt lat="41.40677513961143" lon="13.968642267554111"><ele>124.0</ele><time>2026-04-12T13:02:57Z</time></trkpt><trkpt lat="41.40666311674232" lon="13.968794398775364"><ele>124.0</ele><time>2026-04-12T13:02:58Z</time></trkpt><trkpt lat="41.40652956940723" lon="13.968909015116173"><ele>124.0</ele><time>2026-04-12T13:02:59Z</time></trkpt><trkpt lat="41.4063988069152" lon="13.969024109442755"><ele>124.0</ele><time>2026-04-12T13:03:00Z</time></trkpt><trkpt lat="41.40627816297785" lon="13.969113999294663"><ele>124.75</ele><time>2026-04-12T13:03:01Z</time></trkpt><trkpt lat="41.406152227171155" lon="13.969197766478134"><ele>125.5</ele><time>2026-04-12T13:03:02Z</time></trkpt><trkpt lat="41.4060291732612" lon="13.969272542538095"><ele>126.25</ele><time>2026-04-12T13:03:03Z</time></trkpt><trkpt lat="41.40591857648444" lon="13.969329491095897"><ele>127.0</ele><time>2026-04-12T13:03:04Z</time></trkpt><trkpt lat="41.40583138687402" lon="13.969381179642117"><ele>127.00000000000001</ele><time>2026-04-12T13:03:05.001Z</time></trkpt><trkpt lat="41.405768274747686" lon="13.969424910343248"><ele>127.0</ele><time>2026-04-12T13:03:06.001Z</time></trkpt><trkpt lat="41.40570753118738" lon="13.969451011335867"><ele>127.0</ele><time>2026-04-12T13:03:08.001Z</time></trkpt><trkpt lat="41.40568946446608" lon="13.969296302972175"><ele>127.0</ele><time>2026-04-12T13:03:10.001Z</time></trkpt><trkpt lat="41.40565681941065" lon="13.969223774797948"><ele>127.00000000000001</ele><time>2026-04-12T13:03:11.001Z</time></trkpt><trkpt lat="41.405619987271194" lon="13.969145805197956"><ele>127.0</ele><time>2026-04-12T13:03:12.001Z</time></trkpt><trkpt lat="41.40558577105436" lon="13.969060292375882"><ele>127.0</ele><time>2026-04-12T13:03:13.001Z</time></trkpt><trkpt lat="41.40554824133147" lon="13.968972040520105"><ele>127.0</ele><time>2026-04-12T13:03:14.001Z</time></trkpt><trkpt lat="41.40530269738771" lon="13.968856069394553"><ele>127.0</ele><time>2026-04-12T13:03:18Z</time></trkpt><trkpt lat="41.40522358997548" lon="13.968757184567734"><ele>127.0</ele><time>2026-04-12T13:03:20Z</time></trkpt><trkpt lat="41.40515059257126" lon="13.968641553502087"><ele>128.0</ele><time>2026-04-12T13:03:22.017Z</time></trkpt><trkpt lat="41.405089267600815" lon="13.968517679134262"><ele>129.0</ele><time>2026-04-12T13:03:24Z</time></trkpt><trkpt lat="41.40500131623422" lon="13.968467686942017"><ele>130.0</ele><time>2026-04-12T13:03:25Z</time></trkpt><trkpt lat="41.40491707860405" lon="13.968411137166822"><ele>131.0</ele><time>2026-04-12T13:03:26Z</time></trkpt><trkpt lat="41.40484539430478" lon="13.968335594764211"><ele>132.0</ele><time>2026-04-12T13:03:27Z</time></trkpt><trkpt lat="41.40478638720875" lon="13.96827367632876"><ele>132.16666666666666</ele><time>2026-04-12T13:03:28Z</time></trkpt><trkpt lat="41.404727022987366" lon="13.968229133788054"><ele>132.33333333333334</ele><time>2026-04-12T13:03:29Z</time></trkpt><trkpt lat="41.404657481407405" lon="13.968179782697174"><ele>132.5</ele><time>2026-04-12T13:03:31Z</time></trkpt><trkpt lat="41.404588463932605" lon="13.968091573899502"><ele>132.66666666666669</ele><time>2026-04-12T13:03:33Z</time></trkpt><trkpt lat="41.40454257560737" lon="13.968030911943256"><ele>132.83333333333334</ele><time>2026-04-12T13:03:34Z</time></trkpt><trkpt lat="41.40448061063366" lon="13.967946959631396"><ele>133.0</ele><time>2026-04-12T13:03:36Z</time></trkpt><trkpt lat="41.404497168570956" lon="13.96774085340497"><ele>133.25</ele><time>2026-04-12T13:05:25Z</time></trkpt><trkpt lat="41.40461416313511" lon="13.967609923088983"><ele>133.5</ele><time>2026-04-12T13:05:56Z</time></trkpt><trkpt lat="41.404693511908754" lon="13.967469896212007"><ele>133.75</ele><time>2026-04-12T13:05:57Z</time></trkpt><trkpt lat="41.40476713998927" lon="13.967338907708458"><ele>134.0</ele><time>2026-04-12T13:05:58Z</time></trkpt><trkpt lat="41.40481914137698" lon="13.967267663787545"><ele>133.8</ele><time>2026-04-12T13:05:59Z</time></trkpt><trkpt lat="41.40480704371635" lon="13.967432813936155"><ele>133.60000000000002</ele><time>2026-04-12T13:06:03Z</time></trkpt><trkpt lat="41.40481142336608" lon="13.96753885513191"><ele>133.4</ele><time>2026-04-12T13:06:04Z</time></trkpt><trkpt lat="41.40487574117369" lon="13.967591219256102"><ele>133.20000000000002</ele><time>2026-04-12T13:06:05Z</time></trkpt><trkpt lat="41.40497359083029" lon="13.967672522433432"><ele>133.0</ele><time>2026-04-12T13:06:06Z</time></trkpt><trkpt lat="41.405051734185164" lon="13.967774683643858"><ele>133.0</ele><time>2026-04-12T13:06:07Z</time></trkpt><trkpt lat="41.40516970444197" lon="13.967608677301433"><ele>133.0</ele><time>2026-04-12T13:06:11Z</time></trkpt><trkpt lat="41.40520861468259" lon="13.96748899096326"><ele>133.0</ele><time>2026-04-12T13:06:12Z</time></trkpt><trkpt lat="41.40522559044988" lon="13.967396844455392"><ele>133.0</ele><time>2026-04-12T13:06:13Z</time></trkpt><trkpt lat="41.405138242143856" lon="13.967271526739928"><ele>132.6</ele><time>2026-04-12T13:06:15Z</time></trkpt><trkpt lat="41.40504710804536" lon="13.967219425916698"><ele>132.20000000000002</ele><time>2026-04-12T13:06:16Z</time></trkpt><trkpt lat="41.40496820751196" lon="13.967182303150176"><ele>131.8</ele><time>2026-04-12T13:06:17Z</time></trkpt><trkpt lat="41.40492910036822" lon="13.967100392452336"><ele>131.4</ele><time>2026-04-12T13:06:18Z</time></trkpt><trkpt lat="41.404962573760116" lon="13.96685791415167"><ele>131.0</ele><time>2026-04-12T13:06:20Z</time></trkpt><trkpt lat="41.40504206182683" lon="13.966740553070226"><ele>131.0</ele><time>2026-04-12T13:06:21Z</time></trkpt><trkpt lat="41.40515244450184" lon="13.966596177358491"><ele>131.0</ele><time>2026-04-12T13:06:22Z</time></trkpt><trkpt lat="41.4052248969423" lon="13.96646211284942"><ele>131.0</ele><time>2026-04-12T13:06:23Z</time></trkpt><trkpt lat="41.40527168378541" lon="13.966332564336676"><ele>131.0</ele><time>2026-04-12T13:06:24Z</time></trkpt><trkpt lat="41.405283898359336" lon="13.96623060720818"><ele>131.0</ele><time>2026-04-12T13:06:25Z</time></trkpt><trkpt lat="41.40526670642614" lon="13.966144437039851"><ele>131.0</ele><time>2026-04-12T13:06:26Z</time></trkpt><trkpt lat="41.40517507252845" lon="13.966013752052195"><ele>131.0</ele><time>2026-04-12T13:06:28Z</time></trkpt><trkpt lat="41.405084693556745" lon="13.96596832016112"><ele>131.0</ele><time>2026-04-12T13:06:29Z</time></trkpt><trkpt lat="41.40498876699341" lon="13.965933456236819"><ele>131.0</ele><time>2026-04-12T13:06:30Z</time></trkpt><trkpt lat="41.404910852377135" lon="13.965928433081949"><ele>131.0</ele><time>2026-04-12T13:06:31Z</time></trkpt><trkpt lat="41.404838927858776" lon="13.966071054361274"><ele>131.0</ele><time>2026-04-12T13:06:33Z</time></trkpt><trkpt lat="41.4048317845877" lon="13.966224365786534"><ele>131.0</ele><time>2026-04-12T13:06:34Z</time></trkpt><trkpt lat="41.40484301271558" lon="13.966385970608687"><ele>131.0</ele><time>2026-04-12T13:06:35Z</time></trkpt><trkpt lat="41.40483046727508" lon="13.966578348038103"><ele>131.0</ele><time>2026-04-12T13:06:36Z</time></trkpt><trkpt lat="41.40481473897618" lon="13.966746185024496"><ele>131.0</ele><time>2026-04-12T13:06:37Z</time></trkpt><trkpt lat="41.40481577077574" lon="13.96684677023144"><ele>131.0</ele><time>2026-04-12T13:06:38Z</time></trkpt><trkpt lat="41.40476171911416" lon="13.966898809772152"><ele>131.0</ele><time>2026-04-12T13:06:40Z</time></trkpt><trkpt lat="41.40463672878446" lon="13.966768181747838"><ele>131.0</ele><time>2026-04-12T13:06:42Z</time></trkpt><trkpt lat="41.40456949338447" lon="13.96662049533127"><ele>133.0</ele><time>2026-04-12T13:06:43Z</time></trkpt><trkpt lat="41.404507587833145" lon="13.966438803129126"><ele>135.0</ele><time>2026-04-12T13:06:44Z</time></trkpt><trkpt lat="41.404468608942956" lon="13.966294716545427"><ele>137.0</ele><time>2026-04-12T13:06:45Z</time></trkpt><trkpt lat="41.4044598438748" lon="13.96620147014128"><ele>139.0</ele><time>2026-04-12T13:06:46Z</time></trkpt><trkpt lat="41.40455369881651" lon="13.96603015336117"><ele>139.0</ele><time>2026-04-12T13:06:48Z</time></trkpt><trkpt lat="41.40463174557448" lon="13.96594002871579"><ele>139.0</ele><time>2026-04-12T13:06:49Z</time></trkpt><trkpt lat="41.4046736272016" lon="13.96586666950242"><ele>139.0</ele><time>2026-04-12T13:06:50Z</time></trkpt><trkpt lat="41.40463794251658" lon="13.965796208495883"><ele>139.0</ele><time>2026-04-12T13:06:52Z</time></trkpt><trkpt lat="41.40451530169663" lon="13.965862791053203"><ele>139.0</ele><time>2026-04-12T13:06:54Z</time></trkpt><trkpt lat="41.40444988820791" lon="13.965974271964042"><ele>139.0</ele><time>2026-04-12T13:06:55Z</time></trkpt><trkpt lat="41.404357267933825" lon="13.966111681398745"><ele>139.0</ele><time>2026-04-12T13:06:56Z</time></trkpt><trkpt lat="41.404287630616295" lon="13.966180288633135"><ele>139.0</ele><time>2026-04-12T13:06:57Z</time></trkpt><trkpt lat="41.404244471452365" lon="13.966071849824482"><ele>139.0</ele><time>2026-04-12T13:07:00Z</time></trkpt><trkpt lat="41.40428919303965" lon="13.965946948252489"><ele>139.0</ele><time>2026-04-12T13:07:01Z</time></trkpt><trkpt lat="41.404328800500295" lon="13.965852727063867"><ele>139.0</ele><time>2026-04-12T13:07:02Z</time></trkpt><trkpt lat="41.40432717472024" lon="13.96574756111109"><ele>139.0</ele><time>2026-04-12T13:07:04Z</time></trkpt><trkpt lat="41.40422426801326" lon="13.965781702732231"><ele>139.0</ele><time>2026-04-12T13:07:06Z</time></trkpt><trkpt lat="41.40412086220508" lon="13.965853065176765"><ele>139.0</ele><time>2026-04-12T13:07:08Z</time></trkpt><trkpt lat="41.40407948485518" lon="13.965939407085749"><ele>139.0</ele><time>2026-04-12T13:07:09Z</time></trkpt><trkpt lat="41.4040298062938" lon="13.965993141614183"><ele>139.0</ele><time>2026-04-12T13:07:10Z</time></trkpt><trkpt lat="41.40391935861665" lon="13.96590291397675"><ele>139.0</ele><time>2026-04-12T13:07:12Z</time></trkpt><trkpt lat="41.403887545452875" lon="13.965817316302271"><ele>139.0</ele><time>2026-04-12T13:07:13Z</time></trkpt><trkpt lat="41.403882244017225" lon="13.965703994158043"><ele>139.0</ele><time>2026-04-12T13:07:14Z</time></trkpt><trkpt lat="41.40392194672831" lon="13.965547329866867"><ele>139.0</ele><time>2026-04-12T13:07:15Z</time></trkpt><trkpt lat="41.404112439077885" lon="13.965406179336743"><ele>139.0</ele><time>2026-04-12T13:07:16Z</time></trkpt><trkpt lat="41.404132399205444" lon="13.965322733736683"><ele>139.0</ele><time>2026-04-12T13:07:17Z</time></trkpt><trkpt lat="41.40408972014159" lon="13.965257614916926"><ele>139.0</ele><time>2026-04-12T13:07:19Z</time></trkpt><trkpt lat="41.40400595589813" lon="13.9652317914477"><ele>139.0</ele><time>2026-04-12T13:07:21Z</time></trkpt><trkpt lat="41.40390211923576" lon="13.965316610499746"><ele>139.0</ele><time>2026-04-12T13:07:22Z</time></trkpt><trkpt lat="41.4038281162181" lon="13.965435749888307"><ele>139.0</ele><time>2026-04-12T13:07:23Z</time></trkpt><trkpt lat="41.40379766966899" lon="13.965538771035098"><ele>139.0</ele><time>2026-04-12T13:07:24Z</time></trkpt><trkpt lat="41.40381442507655" lon="13.965633733849796"><ele>139.0</ele><time>2026-04-12T13:07:25.001Z</time></trkpt><trkpt lat="41.40383726513961" lon="13.965718644120699"><ele>139.0</ele><time>2026-04-12T13:07:26.001Z</time></trkpt><trkpt lat="41.40384111241349" lon="13.965824632525612"><ele>139.0</ele><time>2026-04-12T13:07:27.001Z</time></trkpt><trkpt lat="41.40374382224914" lon="13.96597216695262"><ele>142.4</ele><time>2026-04-12T13:07:28.001Z</time></trkpt><trkpt lat="41.40365821821332" lon="13.966103992932256"><ele>145.8</ele><time>2026-04-12T13:07:29Z</time></trkpt><trkpt lat="41.40360698199502" lon="13.966178771765142"><ele>149.2</ele><time>2026-04-12T13:07:30Z</time></trkpt><trkpt lat="41.40351350696926" lon="13.96616048837109"><ele>152.6</ele><time>2026-04-12T13:07:32Z</time></trkpt><trkpt lat="41.403558847903554" lon="13.966262032656902"><ele>156.0</ele><time>2026-04-12T13:07:34Z</time></trkpt><trkpt lat="41.40365071719007" lon="13.966309026959241"><ele>156.0</ele><time>2026-04-12T13:07:35Z</time></trkpt><trkpt lat="41.40374641698889" lon="13.966268578155322"><ele>156.0</ele><time>2026-04-12T13:07:36Z</time></trkpt><trkpt lat="41.403843497260496" lon="13.966188297561253"><ele>156.0</ele><time>2026-04-12T13:07:37Z</time></trkpt><trkpt lat="41.40391349634868" lon="13.966099836933784"><ele>156.0</ele><time>2026-04-12T13:07:38Z</time></trkpt><trkpt lat="41.40396060121228" lon="13.966028310627511"><ele>156.0</ele><time>2026-04-12T13:07:39Z</time></trkpt><trkpt lat="41.404060261801526" lon="13.966052514207885"><ele>156.0</ele><time>2026-04-12T13:07:41Z</time></trkpt><trkpt lat="41.40410816580254" lon="13.966107951898536"><ele>156.0</ele><time>2026-04-12T13:07:42Z</time></trkpt><trkpt lat="41.40406690747615" lon="13.966234443271235"><ele>156.0</ele><time>2026-04-12T13:07:44Z</time></trkpt><trkpt lat="41.404005278158415" lon="13.966299896432725"><ele>156.0</ele><time>2026-04-12T13:07:45Z</time></trkpt><trkpt lat="41.403914086216645" lon="13.96633754211905"><ele>156.0</ele><time>2026-04-12T13:07:46Z</time></trkpt><trkpt lat="41.40380276666271" lon="13.966356164167529"><ele>156.0</ele><time>2026-04-12T13:07:47Z</time></trkpt><trkpt lat="41.403728040111574" lon="13.966413170785552"><ele>156.0</ele><time>2026-04-12T13:07:48Z</time></trkpt><trkpt lat="41.40365637269943" lon="13.966538670568038"><ele>156.0</ele><time>2026-04-12T13:07:49Z</time></trkpt><trkpt lat="41.4036012186973" lon="13.966697039883902"><ele>156.0</ele><time>2026-04-12T13:07:50Z</time></trkpt><trkpt lat="41.40356454212945" lon="13.96680237514993"><ele>156.0</ele><time>2026-04-12T13:07:51Z</time></trkpt><trkpt lat="41.403617276638734" lon="13.966908264251964"><ele>156.0</ele><time>2026-04-12T13:07:53Z</time></trkpt><trkpt lat="41.403700315946665" lon="13.966941819527287"><ele>156.0</ele><time>2026-04-12T13:07:54Z</time></trkpt><trkpt lat="41.4037744138311" lon="13.967007571524306"><ele>156.0</ele><time>2026-04-12T13:07:55Z</time></trkpt><trkpt lat="41.40383846281809" lon="13.966987708639373"><ele>156.0</ele><time>2026-04-12T13:07:57Z</time></trkpt><trkpt lat="41.40385011956231" lon="13.96690490030542"><ele>156.0</ele><time>2026-04-12T13:07:58Z</time></trkpt><trkpt lat="41.403835626383604" lon="13.966799639832503"><ele>156.0</ele><time>2026-04-12T13:07:59Z</time></trkpt><trkpt lat="41.403788954695806" lon="13.966687759447908"><ele>156.0</ele><time>2026-04-12T13:08:00Z</time></trkpt><trkpt lat="41.40381678273198" lon="13.966553502623192"><ele>156.0</ele><time>2026-04-12T13:08:02Z</time></trkpt><trkpt lat="41.40390133451664" lon="13.966502785252695"><ele>156.0</ele><time>2026-04-12T13:08:03Z</time></trkpt><trkpt lat="41.40402022585727" lon="13.966438270424904"><ele>156.0</ele><time>2026-04-12T13:08:04Z</time></trkpt><trkpt lat="41.40411446974234" lon="13.966393858507159"><ele>156.0</ele><time>2026-04-12T13:08:05Z</time></trkpt><trkpt lat="41.40418758770844" lon="13.966457788944997"><ele>152.6</ele><time>2026-04-12T13:08:07Z</time></trkpt><trkpt lat="41.404202450313534" lon="13.966553270689714"><ele>149.2</ele><time>2026-04-12T13:08:08Z</time></trkpt><trkpt lat="41.40418863530883" lon="13.966662947037348"><ele>145.8</ele><time>2026-04-12T13:08:09Z</time></trkpt><trkpt lat="41.404158500526066" lon="13.96677027671923"><ele>142.4</ele><time>2026-04-12T13:08:10Z</time></trkpt><trkpt lat="41.404081976832934" lon="13.966866660021708"><ele>139.0</ele><time>2026-04-12T13:08:11Z</time></trkpt><trkpt lat="41.40397298067485" lon="13.966951780846252"><ele>138.6</ele><time>2026-04-12T13:08:12Z</time></trkpt><trkpt lat="41.40389457083517" lon="13.967045371616045"><ele>138.2</ele><time>2026-04-12T13:08:13Z</time></trkpt><trkpt lat="41.40387543862754" lon="13.967178686899508"><ele>137.79999999999998</ele><time>2026-04-12T13:08:15Z</time></trkpt><trkpt lat="41.40401934464597" lon="13.967195918364666"><ele>137.4</ele><time>2026-04-12T13:08:17Z</time></trkpt><trkpt lat="41.40409339312558" lon="13.967121774296738"><ele>137.0</ele><time>2026-04-12T13:08:18Z</time></trkpt><trkpt lat="41.40417811135045" lon="13.966996074320809"><ele>137.0</ele><time>2026-04-12T13:08:19Z</time></trkpt><trkpt lat="41.404269106214905" lon="13.96684775407564"><ele>137.0</ele><time>2026-04-12T13:08:20Z</time></trkpt><trkpt lat="41.40434563690173" lon="13.966735942700433"><ele>137.0</ele><time>2026-04-12T13:08:21Z</time></trkpt><trkpt lat="41.404375507027815" lon="13.966647862815348"><ele>137.0</ele><time>2026-04-12T13:08:22Z</time></trkpt><trkpt lat="41.40436279177698" lon="13.966533030874892"><ele>137.0</ele><time>2026-04-12T13:08:23Z</time></trkpt><trkpt lat="41.40435343020317" lon="13.966421957323512"><ele>137.0</ele><time>2026-04-12T13:08:24Z</time></trkpt><trkpt lat="41.40444048606224" lon="13.966520638329989"><ele>137.0</ele><time>2026-04-12T13:08:27Z</time></trkpt><trkpt lat="41.40448850051671" lon="13.966652263045368"><ele>137.0</ele><time>2026-04-12T13:08:28Z</time></trkpt><trkpt lat="41.40453319359664" lon="13.96679309259443"><ele>137.0</ele><time>2026-04-12T13:08:29Z</time></trkpt><trkpt lat="41.40451936204328" lon="13.96693565539636"><ele>137.0</ele><time>2026-04-12T13:08:31Z</time></trkpt><trkpt lat="41.40444756625573" lon="13.96699247721201"><ele>137.0</ele><time>2026-04-12T13:08:32Z</time></trkpt><trkpt lat="41.404324667186714" lon="13.967080928658882"><ele>137.0</ele><time>2026-04-12T13:08:33Z</time></trkpt><trkpt lat="41.40424022844578" lon="13.96714835663609"><ele>137.0</ele><time>2026-04-12T13:08:34Z</time></trkpt><trkpt lat="41.404391489028804" lon="13.967162864411987"><ele>137.0</ele><time>2026-04-12T13:08:38Z</time></trkpt><trkpt lat="41.404489333863175" lon="13.967094021792812"><ele>137.0</ele><time>2026-04-12T13:08:39Z</time></trkpt><trkpt lat="41.40455702387562" lon="13.967072534640787"><ele>137.0</ele><time>2026-04-12T13:08:40Z</time></trkpt><trkpt lat="41.40455520208079" lon="13.967169886503948"><ele>137.0</ele><time>2026-04-12T13:08:42Z</time></trkpt><trkpt lat="41.40450122519293" lon="13.967254211228106"><ele>137.0</ele><time>2026-04-12T13:08:43Z</time></trkpt><trkpt lat="41.404385826917824" lon="13.967293741055242"><ele>137.0</ele><time>2026-04-12T13:08:44Z</time></trkpt><trkpt lat="41.40425745341024" lon="13.967341941085758"><ele>137.0</ele><time>2026-04-12T13:08:45Z</time></trkpt><trkpt lat="41.404142616119344" lon="13.967385713633377"><ele>137.0</ele><time>2026-04-12T13:08:46Z</time></trkpt><trkpt lat="41.404197034750325" lon="13.967450618284941"><ele>137.0</ele><time>2026-04-12T13:08:50Z</time></trkpt><trkpt lat="41.404240225256046" lon="13.96751763108837"><ele>137.0</ele><time>2026-04-12T13:08:52Z</time></trkpt><trkpt lat="41.40453870420348" lon="13.967285797247882"><ele>135.79999999999998</ele><time>2026-04-12T13:08:53Z</time></trkpt><trkpt lat="41.40469419407644" lon="13.967166618100405"><ele>134.6</ele><time>2026-04-12T13:08:54Z</time></trkpt><trkpt lat="41.40475869223449" lon="13.9671188863426"><ele>133.39999999999998</ele><time>2026-04-12T13:08:55Z</time></trkpt><trkpt lat="41.404771868978294" lon="13.967238393288941"><ele>132.2</ele><time>2026-04-12T13:08:58Z</time></trkpt><trkpt lat="41.404735318909374" lon="13.967321408931152"><ele>131.0</ele><time>2026-04-12T13:08:59Z</time></trkpt><trkpt lat="41.40468556441119" lon="13.96737633971397"><ele>131.75</ele><time>2026-04-12T13:09:00Z</time></trkpt><trkpt lat="41.40464697097471" lon="13.967447319081288"><ele>132.5</ele><time>2026-04-12T13:09:01Z</time></trkpt><trkpt lat="41.404621119356825" lon="13.967529219204716"><ele>133.25</ele><time>2026-04-12T13:09:03Z</time></trkpt><trkpt lat="41.40448920784304" lon="13.96759587057484"><ele>134.0</ele><time>2026-04-12T13:09:05Z</time></trkpt><trkpt lat="41.404296706453216" lon="13.96763473876569"><ele>134.0</ele><time>2026-04-12T13:10:26Z</time></trkpt><trkpt lat="41.40421833961763" lon="13.967624426322347"><ele>134.0</ele><time>2026-04-12T13:10:27Z</time></trkpt><trkpt lat="41.40413084956313" lon="13.967601295458625"><ele>134.0</ele><time>2026-04-12T13:10:28Z</time></trkpt><trkpt lat="41.40406501652893" lon="13.967591973981836"><ele>134.0</ele><time>2026-04-12T13:10:29Z</time></trkpt><trkpt lat="41.40399625010389" lon="13.9675545980558"><ele>134.0</ele><time>2026-04-12T13:10:30Z</time></trkpt><trkpt lat="41.40392786410931" lon="13.967489673516774"><ele>134.0</ele><time>2026-04-12T13:10:31Z</time></trkpt><trkpt lat="41.40384372594439" lon="13.96740540078632"><ele>139.2</ele><time>2026-04-12T13:10:32Z</time></trkpt><trkpt lat="41.40375352223561" lon="13.967331161837878"><ele>144.4</ele><time>2026-04-12T13:10:33Z</time></trkpt><trkpt lat="41.40365960577309" lon="13.967262502611767"><ele>149.6</ele><time>2026-04-12T13:10:34Z</time></trkpt><trkpt lat="41.40357784654774" lon="13.967200786728746"><ele>154.8</ele><time>2026-04-12T13:10:35Z</time></trkpt><trkpt lat="41.40349662261992" lon="13.967137417754182"><ele>160.0</ele><time>2026-04-12T13:10:36Z</time></trkpt><trkpt lat="41.40343896046355" lon="13.967076768972637"><ele>160.0</ele><time>2026-04-12T13:10:37Z</time></trkpt><trkpt lat="41.40338571361805" lon="13.966989350727196"><ele>160.0</ele><time>2026-04-12T13:10:39Z</time></trkpt><trkpt lat="41.40334413884473" lon="13.966902951152637"><ele>160.0</ele><time>2026-04-12T13:10:40Z</time></trkpt><trkpt lat="41.40329978344733" lon="13.966786227839867"><ele>160.0</ele><time>2026-04-12T13:10:41Z</time></trkpt><trkpt lat="41.40324829577887" lon="13.966653710345485"><ele>160.0</ele><time>2026-04-12T13:10:42Z</time></trkpt><trkpt lat="41.40319260275845" lon="13.966515852427749"><ele>159.0</ele><time>2026-04-12T13:10:43Z</time></trkpt><trkpt lat="41.403118699590685" lon="13.966376772288742"><ele>158.0</ele><time>2026-04-12T13:10:44Z</time></trkpt><trkpt lat="41.40306358754189" lon="13.966198899274893"><ele>157.0</ele><time>2026-04-12T13:10:45Z</time></trkpt><trkpt lat="41.40300913520133" lon="13.966035040535191"><ele>156.0</ele><time>2026-04-12T13:10:46Z</time></trkpt><trkpt lat="41.40293140457139" lon="13.965866567195071"><ele>162.33333333333334</ele><time>2026-04-12T13:10:47Z</time></trkpt><trkpt lat="41.40287246587476" lon="13.965672702586069"><ele>168.66666666666669</ele><time>2026-04-12T13:10:48Z</time></trkpt><trkpt lat="41.40282754931301" lon="13.965476470780153"><ele>175.0</ele><time>2026-04-12T13:10:49Z</time></trkpt><trkpt lat="41.402796455504706" lon="13.96527223040912"><ele>175.0</ele><time>2026-04-12T13:10:50Z</time></trkpt><trkpt lat="41.40277851201098" lon="13.965063372123558"><ele>175.0</ele><time>2026-04-12T13:10:51Z</time></trkpt><trkpt lat="41.4027724121422" lon="13.96485093080618"><ele>175.0</ele><time>2026-04-12T13:10:52Z</time></trkpt><trkpt lat="41.40278772753687" lon="13.964645571919107"><ele>176.0</ele><time>2026-04-12T13:10:53Z</time></trkpt><trkpt lat="41.40280286254294" lon="13.964462292058878"><ele>177.0</ele><time>2026-04-12T13:10:54Z</time></trkpt><trkpt lat="41.40281449227186" lon="13.964271065996753"><ele>178.0</ele><time>2026-04-12T13:10:55Z</time></trkpt><trkpt lat="41.4028199627175" lon="13.964093342912316"><ele>179.0</ele><time>2026-04-12T13:10:56Z</time></trkpt><trkpt lat="41.40283961668633" lon="13.96390813600628"><ele>179.0</ele><time>2026-04-12T13:10:57Z</time></trkpt><trkpt lat="41.40284261384648" lon="13.963717087956441"><ele>179.0</ele><time>2026-04-12T13:10:58Z</time></trkpt><trkpt lat="41.40283815693871" lon="13.963530986824072"><ele>179.0</ele><time>2026-04-12T13:10:59Z</time></trkpt><trkpt lat="41.40283817091776" lon="13.963345786596507"><ele>179.0</ele><time>2026-04-12T13:11:00Z</time></trkpt><trkpt lat="41.40280802508002" lon="13.96318373870751"><ele>182.5</ele><time>2026-04-12T13:11:01Z</time></trkpt><trkpt lat="41.402775821596016" lon="13.963002245662032"><ele>186.0</ele><time>2026-04-12T13:11:02Z</time></trkpt><trkpt lat="41.402734962403485" lon="13.96283996566367"><ele>189.5</ele><time>2026-04-12T13:11:03Z</time></trkpt><trkpt lat="41.40268693425125" lon="13.96272081236403"><ele>193.0</ele><time>2026-04-12T13:11:04Z</time></trkpt><trkpt lat="41.402653261259765" lon="13.962581504576802"><ele>194.0</ele><time>2026-04-12T13:11:05Z</time></trkpt><trkpt lat="41.40262797758897" lon="13.962435847762269"><ele>195.0</ele><time>2026-04-12T13:11:06Z</time></trkpt><trkpt lat="41.40259849396654" lon="13.962282663662"><ele>196.0</ele><time>2026-04-12T13:11:07Z</time></trkpt><trkpt lat="41.402588617175994" lon="13.96212980046854"><ele>197.0</ele><time>2026-04-12T13:11:08Z</time></trkpt><trkpt lat="41.40257620591138" lon="13.961957582524485"><ele>197.0</ele><time>2026-04-12T13:11:09Z</time></trkpt><trkpt lat="41.40257924029102" lon="13.9617760683527"><ele>197.0</ele><time>2026-04-12T13:11:10Z</time></trkpt><trkpt lat="41.40258185412999" lon="13.961608085230125"><ele>197.0</ele><time>2026-04-12T13:11:11Z</time></trkpt><trkpt lat="41.402610554972455" lon="13.961435337979506"><ele>197.0</ele><time>2026-04-12T13:11:12Z</time></trkpt><trkpt lat="41.40263279368677" lon="13.961240733477766"><ele>199.33333333333334</ele><time>2026-04-12T13:11:13Z</time></trkpt><trkpt lat="41.402656893050825" lon="13.96104479267987"><ele>201.66666666666669</ele><time>2026-04-12T13:11:14Z</time></trkpt><trkpt lat="41.40268160070762" lon="13.960842771010299"><ele>204.0</ele><time>2026-04-12T13:11:15Z</time></trkpt><trkpt lat="41.40274178663341" lon="13.960658901108287"><ele>207.5</ele><time>2026-04-12T13:11:16Z</time></trkpt><trkpt lat="41.40280269280948" lon="13.960456465977208"><ele>211.0</ele><time>2026-04-12T13:11:17Z</time></trkpt><trkpt lat="41.40287139043527" lon="13.960290772070728"><ele>214.5</ele><time>2026-04-12T13:11:18Z</time></trkpt><trkpt lat="41.40293105685383" lon="13.960131573486708"><ele>218.0</ele><time>2026-04-12T13:11:19Z</time></trkpt><trkpt lat="41.402973253806046" lon="13.95995174128042"><ele>212.5</ele><time>2026-04-12T13:11:20Z</time></trkpt><trkpt lat="41.403030943447405" lon="13.959774426658921"><ele>207.0</ele><time>2026-04-12T13:11:21Z</time></trkpt><trkpt lat="41.40308878088386" lon="13.95959665762959"><ele>201.5</ele><time>2026-04-12T13:11:22Z</time></trkpt><trkpt lat="41.40315688865987" lon="13.95942832068518"><ele>196.0</ele><time>2026-04-12T13:11:23Z</time></trkpt><trkpt lat="41.40320304409045" lon="13.959215519363697"><ele>199.66666666666666</ele><time>2026-04-12T13:11:24Z</time></trkpt><trkpt lat="41.40323897085707" lon="13.959025782219026"><ele>203.33333333333331</ele><time>2026-04-12T13:11:25Z</time></trkpt><trkpt lat="41.40328338940705" lon="13.958836457961562"><ele>207.0</ele><time>2026-04-12T13:11:26Z</time></trkpt><trkpt lat="41.40330574765927" lon="13.958607623184326"><ele>207.0</ele><time>2026-04-12T13:11:27Z</time></trkpt><trkpt lat="41.40333169626183" lon="13.95839116375118"><ele>207.0</ele><time>2026-04-12T13:11:28Z</time></trkpt><trkpt lat="41.40335212295455" lon="13.958184422396974"><ele>207.0</ele><time>2026-04-12T13:11:29Z</time></trkpt><trkpt lat="41.40336345348852" lon="13.957957223513894"><ele>210.0</ele><time>2026-04-12T13:11:30Z</time></trkpt><trkpt lat="41.403380372941115" lon="13.957729619401558"><ele>213.0</ele><time>2026-04-12T13:11:31Z</time></trkpt><trkpt lat="41.403399735639674" lon="13.957490096048133"><ele>216.0</ele><time>2026-04-12T13:11:32Z</time></trkpt><trkpt lat="41.40340189065824" lon="13.9572896379714"><ele>219.0</ele><time>2026-04-12T13:11:33Z</time></trkpt><trkpt lat="41.40339811000304" lon="13.957103725354266"><ele>222.0</ele><time>2026-04-12T13:11:34Z</time></trkpt><trkpt lat="41.403413718667935" lon="13.956923319744485"><ele>225.0</ele><time>2026-04-12T13:11:35Z</time></trkpt><trkpt lat="41.40343781652707" lon="13.956737081066631"><ele>228.0</ele><time>2026-04-12T13:11:36Z</time></trkpt><trkpt lat="41.40345732594134" lon="13.956527788152805"><ele>232.33333333333331</ele><time>2026-04-12T13:11:37Z</time></trkpt><trkpt lat="41.40348686109825" lon="13.956324073946256"><ele>236.66666666666666</ele><time>2026-04-12T13:11:38Z</time></trkpt><trkpt lat="41.403534087214" lon="13.956118810231862"><ele>241.0</ele><time>2026-04-12T13:11:39Z</time></trkpt><trkpt lat="41.40358145994781" lon="13.955908544550162"><ele>245.66666666666666</ele><time>2026-04-12T13:11:40Z</time></trkpt><trkpt lat="41.40362012862221" lon="13.955693365830648"><ele>250.33333333333331</ele><time>2026-04-12T13:11:41Z</time></trkpt><trkpt lat="41.40367079440652" lon="13.955479704931358"><ele>255.0</ele><time>2026-04-12T13:11:42Z</time></trkpt><trkpt lat="41.4037115838896" lon="13.9552741909814"><ele>255.0</ele><time>2026-04-12T13:11:43Z</time></trkpt><trkpt lat="41.403754522605134" lon="13.95507861767485"><ele>255.0</ele><time>2026-04-12T13:11:44Z</time></trkpt><trkpt lat="41.40377122288176" lon="13.954884182123543"><ele>255.0</ele><time>2026-04-12T13:11:45Z</time></trkpt><trkpt lat="41.40376509199235" lon="13.954702294650088"><ele>255.0</ele><time>2026-04-12T13:11:46Z</time></trkpt><trkpt lat="41.40374221589386" lon="13.95450559673947"><ele>256.3333333333333</ele><time>2026-04-12T13:11:47Z</time></trkpt><trkpt lat="41.40370700926112" lon="13.954303007464745"><ele>257.66666666666663</ele><time>2026-04-12T13:11:48Z</time></trkpt><trkpt lat="41.40365402959118" lon="13.95409782785028"><ele>259.0</ele><time>2026-04-12T13:11:49Z</time></trkpt><trkpt lat="41.40359712033037" lon="13.953888257686856"><ele>261.3333333333333</ele><time>2026-04-12T13:11:50Z</time></trkpt><trkpt lat="41.40354592773026" lon="13.953678583963496"><ele>263.6666666666667</ele><time>2026-04-12T13:11:51Z</time></trkpt><trkpt lat="41.403498256317036" lon="13.953479534244632"><ele>266.0</ele><time>2026-04-12T13:11:52Z</time></trkpt><trkpt lat="41.403442610061006" lon="13.9532823347743"><ele>266.75</ele><time>2026-04-12T13:11:53Z</time></trkpt><trkpt lat="41.403401646530874" lon="13.95310244064969"><ele>267.5</ele><time>2026-04-12T13:11:54Z</time></trkpt><trkpt lat="41.40335237383755" lon="13.952933047862716"><ele>268.25</ele><time>2026-04-12T13:11:55Z</time></trkpt><trkpt lat="41.40330620114087" lon="13.952756870364274"><ele>269.0</ele><time>2026-04-12T13:11:56Z</time></trkpt><trkpt lat="41.40326078756807" lon="13.952581340189134"><ele>269.75</ele><time>2026-04-12T13:11:57Z</time></trkpt><trkpt lat="41.40321283455201" lon="13.95241310667596"><ele>270.5</ele><time>2026-04-12T13:11:58Z</time></trkpt><trkpt lat="41.40318503149255" lon="13.952242962718193"><ele>271.25</ele><time>2026-04-12T13:11:59Z</time></trkpt><trkpt lat="41.403149365657505" lon="13.952075642025308"><ele>272.0</ele><time>2026-04-12T13:12:00Z</time></trkpt><trkpt lat="41.40311839558344" lon="13.951914905998057"><ele>272.0</ele><time>2026-04-12T13:12:01Z</time></trkpt><trkpt lat="41.403073248453936" lon="13.95175347808441"><ele>272.0</ele><time>2026-04-12T13:12:02Z</time></trkpt><trkpt lat="41.40305246982041" lon="13.951554432756245"><ele>272.0</ele><time>2026-04-12T13:12:03Z</time></trkpt><trkpt lat="41.4030275004663" lon="13.9513455336319"><ele>272.0</ele><time>2026-04-12T13:12:04Z</time></trkpt><trkpt lat="41.403008435969184" lon="13.951128914950319"><ele>278.25</ele><time>2026-04-12T13:12:05Z</time></trkpt><trkpt lat="41.402987117190634" lon="13.950921766764145"><ele>284.5</ele><time>2026-04-12T13:12:06Z</time></trkpt><trkpt lat="41.40296029538899" lon="13.950735552733898"><ele>290.75</ele><time>2026-04-12T13:12:07Z</time></trkpt><trkpt lat="41.40293941273022" lon="13.950565370218376"><ele>297.0</ele><time>2026-04-12T13:12:08Z</time></trkpt><trkpt lat="41.40291125803222" lon="13.950408789783053"><ele>297.0</ele><time>2026-04-12T13:12:09Z</time></trkpt><trkpt lat="41.40286325641737" lon="13.950293274343265"><ele>297.0</ele><time>2026-04-12T13:12:10Z</time></trkpt><trkpt lat="41.402813547979385" lon="13.950183449152082"><ele>297.0</ele><time>2026-04-12T13:12:11Z</time></trkpt><trkpt lat="41.402734730340946" lon="13.950119480663496"><ele>297.0</ele><time>2026-04-12T13:12:12Z</time></trkpt><trkpt lat="41.4026348457875" lon="13.95012278282177"><ele>297.0</ele><time>2026-04-12T13:12:13Z</time></trkpt><trkpt lat="41.40254223753737" lon="13.950198958138746"><ele>297.0</ele><time>2026-04-12T13:12:14Z</time></trkpt><trkpt lat="41.402489960699654" lon="13.950360115286855"><ele>297.0</ele><time>2026-04-12T13:12:15Z</time></trkpt><trkpt lat="41.40243992679232" lon="13.950483182183678"><ele>297.0</ele><time>2026-04-12T13:12:16Z</time></trkpt><trkpt lat="41.40238123131231" lon="13.950638356385722"><ele>297.0</ele><time>2026-04-12T13:12:17Z</time></trkpt><trkpt lat="41.40232996197015" lon="13.950779570842252"><ele>297.0</ele><time>2026-04-12T13:12:18Z</time></trkpt><trkpt lat="41.40227512077201" lon="13.95093399995469"><ele>297.0</ele><time>2026-04-12T13:12:19Z</time></trkpt><trkpt lat="41.4022319564073" lon="13.95110021062734"><ele>297.0</ele><time>2026-04-12T13:12:20Z</time></trkpt><trkpt lat="41.402159097903194" lon="13.951255376568255"><ele>297.0</ele><time>2026-04-12T13:12:21Z</time></trkpt><trkpt lat="41.40209128903274" lon="13.951416809852311"><ele>302.5</ele><time>2026-04-12T13:12:22Z</time></trkpt><trkpt lat="41.40203034442867" lon="13.951585337557535"><ele>308.0</ele><time>2026-04-12T13:12:23Z</time></trkpt><trkpt lat="41.40197631344422" lon="13.951746660450642"><ele>313.5</ele><time>2026-04-12T13:12:24Z</time></trkpt><trkpt lat="41.401924487831124" lon="13.951905321437625"><ele>319.0</ele><time>2026-04-12T13:12:25Z</time></trkpt><trkpt lat="41.40187895915565" lon="13.95207208482904"><ele>319.0</ele><time>2026-04-12T13:12:26Z</time></trkpt><trkpt lat="41.40183403356174" lon="13.952230485458514"><ele>319.0</ele><time>2026-04-12T13:12:27Z</time></trkpt><trkpt lat="41.40176234163801" lon="13.95240143329225"><ele>319.0</ele><time>2026-04-12T13:12:28Z</time></trkpt><trkpt lat="41.40170052925807" lon="13.952580116101469"><ele>319.0</ele><time>2026-04-12T13:12:29Z</time></trkpt><trkpt lat="41.40164782967895" lon="13.952752120838262"><ele>318.3333333333333</ele><time>2026-04-12T13:12:30Z</time></trkpt><trkpt lat="41.40159581533586" lon="13.952926432885455"><ele>317.6666666666667</ele><time>2026-04-12T13:12:31Z</time></trkpt><trkpt lat="41.40153026169922" lon="13.953114994163426"><ele>317.0</ele><time>2026-04-12T13:12:32Z</time></trkpt><trkpt lat="41.401445805431706" lon="13.953298013432459"><ele>313.6666666666667</ele><time>2026-04-12T13:12:33Z</time></trkpt><trkpt lat="41.40137008119707" lon="13.953499321268895"><ele>310.3333333333333</ele><time>2026-04-12T13:12:34Z</time></trkpt><trkpt lat="41.40129146879357" lon="13.953699943681858"><ele>307.0</ele><time>2026-04-12T13:12:35Z</time></trkpt><trkpt lat="41.40120826462229" lon="13.953903621330792"><ele>314.66666666666663</ele><time>2026-04-12T13:12:36Z</time></trkpt><trkpt lat="41.40112665824577" lon="13.954101082180383"><ele>322.3333333333333</ele><time>2026-04-12T13:12:37Z</time></trkpt><trkpt lat="41.40104670242295" lon="13.954295694529666"><ele>330.0</ele><time>2026-04-12T13:12:38Z</time></trkpt><trkpt lat="41.40096840093855" lon="13.954489548154292"><ele>330.0</ele><time>2026-04-12T13:12:39Z</time></trkpt><trkpt lat="41.40089022961957" lon="13.954691046758185"><ele>330.0</ele><time>2026-04-12T13:12:40Z</time></trkpt><trkpt lat="41.40081222448219" lon="13.954896070949065"><ele>330.0</ele><time>2026-04-12T13:12:41Z</time></trkpt><trkpt lat="41.40073749036942" lon="13.955098268412835"><ele>330.0</ele><time>2026-04-12T13:12:42Z</time></trkpt><trkpt lat="41.400667692947316" lon="13.955292779768973"><ele>330.0</ele><time>2026-04-12T13:12:43Z</time></trkpt><trkpt lat="41.40060142233236" lon="13.955483440895767"><ele>330.0</ele><time>2026-04-12T13:12:44Z</time></trkpt><trkpt lat="41.40054552175858" lon="13.955651713875513"><ele>337.0</ele><time>2026-04-12T13:12:45Z</time></trkpt><trkpt lat="41.40049546576273" lon="13.955803629104604"><ele>344.0</ele><time>2026-04-12T13:12:46Z</time></trkpt><trkpt lat="41.40045979746591" lon="13.955965820238346"><ele>351.0</ele><time>2026-04-12T13:12:47Z</time></trkpt><trkpt lat="41.40038747751155" lon="13.956122721556085"><ele>358.0</ele><time>2026-04-12T13:12:48Z</time></trkpt><trkpt lat="41.40033031937832" lon="13.956278677716895"><ele>358.0</ele><time>2026-04-12T13:12:49Z</time></trkpt><trkpt lat="41.40027066671535" lon="13.956441840712309"><ele>358.0</ele><time>2026-04-12T13:12:50Z</time></trkpt><trkpt lat="41.40020566256254" lon="13.956605305763468"><ele>358.0</ele><time>2026-04-12T13:12:51Z</time></trkpt><trkpt lat="41.40015999207732" lon="13.956764232837179"><ele>358.0</ele><time>2026-04-12T13:12:52Z</time></trkpt><trkpt lat="41.400109696788675" lon="13.95694198509826"><ele>358.2</ele><time>2026-04-12T13:12:53Z</time></trkpt><trkpt lat="41.40004991326748" lon="13.957108517589543"><ele>358.4</ele><time>2026-04-12T13:12:54Z</time></trkpt><trkpt lat="41.39999093433987" lon="13.957245017368283"><ele>358.59999999999997</ele><time>2026-04-12T13:12:55Z</time></trkpt><trkpt lat="41.39993257814944" lon="13.957328714460322"><ele>358.79999999999995</ele><time>2026-04-12T13:12:56Z</time></trkpt><trkpt lat="41.399842119698995" lon="13.957365858354361"><ele>359.0</ele><time>2026-04-12T13:12:57Z</time></trkpt><trkpt lat="41.399776570033715" lon="13.957377819724043"><ele>359.0</ele><time>2026-04-12T13:12:58Z</time></trkpt><trkpt lat="41.39971951380658" lon="13.957287596423292"><ele>359.0</ele><time>2026-04-12T13:12:59Z</time></trkpt><trkpt lat="41.39971528877764" lon="13.957202588272077"><ele>359.0</ele><time>2026-04-12T13:13:00Z</time></trkpt><trkpt lat="41.3997439051041" lon="13.957053873079763"><ele>359.0</ele><time>2026-04-12T13:13:01Z</time></trkpt><trkpt lat="41.39974107446492" lon="13.956929167334101"><ele>359.0</ele><time>2026-04-12T13:13:02Z</time></trkpt><trkpt lat="41.399756687809635" lon="13.956799294667917"><ele>358.75</ele><time>2026-04-12T13:13:03Z</time></trkpt><trkpt lat="41.39974855415637" lon="13.95664748208678"><ele>358.5</ele><time>2026-04-12T13:13:04Z</time></trkpt><trkpt lat="41.39974668908926" lon="13.956473076481226"><ele>358.25</ele><time>2026-04-12T13:13:05Z</time></trkpt><trkpt lat="41.39974238628346" lon="13.956309302022941"><ele>358.0</ele><time>2026-04-12T13:13:06Z</time></trkpt><trkpt lat="41.39974892674796" lon="13.956099515446866"><ele>358.0</ele><time>2026-04-12T13:13:07Z</time></trkpt><trkpt lat="41.39975448648089" lon="13.955935254680067"><ele>358.0</ele><time>2026-04-12T13:13:08Z</time></trkpt><trkpt lat="41.399763015685494" lon="13.9557446520796"><ele>358.0</ele><time>2026-04-12T13:13:09Z</time></trkpt><trkpt lat="41.399773337414594" lon="13.955532481585541"><ele>358.0</ele><time>2026-04-12T13:13:10Z</time></trkpt><trkpt lat="41.39978814780519" lon="13.955333778698694"><ele>358.3333333333333</ele><time>2026-04-12T13:13:11Z</time></trkpt><trkpt lat="41.399796230579426" lon="13.955092290637918"><ele>358.6666666666667</ele><time>2026-04-12T13:13:12Z</time></trkpt><trkpt lat="41.3998048483722" lon="13.954883226760327"><ele>359.0</ele><time>2026-04-12T13:13:13Z</time></trkpt><trkpt lat="41.399798393775725" lon="13.954643380042327"><ele>360.33333333333337</ele><time>2026-04-12T13:13:14Z</time></trkpt><trkpt lat="41.39980322417398" lon="13.954400615469785"><ele>361.6666666666667</ele><time>2026-04-12T13:13:15Z</time></trkpt><trkpt lat="41.3998169805377" lon="13.954178226156872"><ele>363.0</ele><time>2026-04-12T13:13:16Z</time></trkpt><trkpt lat="41.399827307074794" lon="13.95394863192006"><ele>365.3333333333333</ele><time>2026-04-12T13:13:17Z</time></trkpt><trkpt lat="41.39982786141736" lon="13.953738739142928"><ele>367.66666666666663</ele><time>2026-04-12T13:13:18Z</time></trkpt><trkpt lat="41.399850029995534" lon="13.9535000342193"><ele>370.0</ele><time>2026-04-12T13:13:19Z</time></trkpt><trkpt lat="41.39985765764923" lon="13.95328618459692"><ele>370.3333333333333</ele><time>2026-04-12T13:13:20Z</time></trkpt><trkpt lat="41.39986476276818" lon="13.953070840701985"><ele>370.6666666666667</ele><time>2026-04-12T13:13:21Z</time></trkpt><trkpt lat="41.39987110125561" lon="13.952833654465572"><ele>371.0</ele><time>2026-04-12T13:13:22Z</time></trkpt><trkpt lat="41.39987764627902" lon="13.952609821746734"><ele>371.33333333333337</ele><time>2026-04-12T13:13:23Z</time></trkpt><trkpt lat="41.39988218407361" lon="13.952400595798512"><ele>371.6666666666667</ele><time>2026-04-12T13:13:24Z</time></trkpt><trkpt lat="41.39988729612715" lon="13.952164892201466"><ele>372.0</ele><time>2026-04-12T13:13:25Z</time></trkpt><trkpt lat="41.39989086537422" lon="13.95197193089229"><ele>372.0</ele><time>2026-04-12T13:13:26Z</time></trkpt><trkpt lat="41.39989361108186" lon="13.951799850954222"><ele>372.0</ele><time>2026-04-12T13:13:27Z</time></trkpt><trkpt lat="41.39989663340993" lon="13.95163649970502"><ele>372.0</ele><time>2026-04-12T13:13:28Z</time></trkpt><trkpt lat="41.39989979199085" lon="13.951498100959796"><ele>372.0</ele><time>2026-04-12T13:13:29Z</time></trkpt><trkpt lat="41.39988498017749" lon="13.951352464061747"><ele>373.20000000000005</ele><time>2026-04-12T13:13:30Z</time></trkpt><trkpt lat="41.39987250533059" lon="13.951227587164887"><ele>374.4</ele><time>2026-04-12T13:13:31Z</time></trkpt><trkpt lat="41.39981128002575" lon="13.951103423532757"><ele>375.6</ele><time>2026-04-12T13:13:33Z</time></trkpt><trkpt lat="41.39973454244316" lon="13.951068086908052"><ele>376.79999999999995</ele><time>2026-04-12T13:13:34Z</time></trkpt><trkpt lat="41.3996358847966" lon="13.951105038766906"><ele>378.0</ele><time>2026-04-12T13:13:35Z</time></trkpt><trkpt lat="41.39953452093382" lon="13.951232148540077"><ele>385.0</ele><time>2026-04-12T13:13:36Z</time></trkpt><trkpt lat="41.39947689693541" lon="13.951370451480411"><ele>392.0</ele><time>2026-04-12T13:13:37Z</time></trkpt><trkpt lat="41.399421663960766" lon="13.951516439535544"><ele>399.0</ele><time>2026-04-12T13:13:38Z</time></trkpt><trkpt lat="41.39937074046292" lon="13.951655201505549"><ele>406.0</ele><time>2026-04-12T13:13:39Z</time></trkpt><trkpt lat="41.39931237927248" lon="13.951822612903538"><ele>406.0</ele><time>2026-04-12T13:13:40Z</time></trkpt><trkpt lat="41.39925924917876" lon="13.951978557593662"><ele>406.0</ele><time>2026-04-12T13:13:41Z</time></trkpt><trkpt lat="41.39920385108234" lon="13.952142916659572"><ele>406.0</ele><time>2026-04-12T13:13:42Z</time></trkpt><trkpt lat="41.399146228162245" lon="13.952313876221718"><ele>406.0</ele><time>2026-04-12T13:13:43Z</time></trkpt><trkpt lat="41.39908832242835" lon="13.952486368972549"><ele>405.0</ele><time>2026-04-12T13:13:44Z</time></trkpt><trkpt lat="41.399033484357304" lon="13.952653817515825"><ele>404.0</ele><time>2026-04-12T13:13:45Z</time></trkpt><trkpt lat="41.398977562899404" lon="13.95281519718891"><ele>403.0</ele><time>2026-04-12T13:13:46Z</time></trkpt><trkpt lat="41.398919815067835" lon="13.952979357799041"><ele>402.0</ele><time>2026-04-12T13:13:47Z</time></trkpt><trkpt lat="41.3988602348213" lon="13.953142384795672"><ele>408.6</ele><time>2026-04-12T13:13:48Z</time></trkpt><trkpt lat="41.398809276564556" lon="13.953288258889197"><ele>415.20000000000005</ele><time>2026-04-12T13:13:49Z</time></trkpt><trkpt lat="41.39875576882036" lon="13.953403347627944"><ele>421.8</ele><time>2026-04-12T13:13:50Z</time></trkpt><trkpt lat="41.398705542981" lon="13.95350224347731"><ele>428.4</ele><time>2026-04-12T13:13:51Z</time></trkpt><trkpt lat="41.398655299237575" lon="13.953556851826004"><ele>435.0</ele><time>2026-04-12T13:13:52Z</time></trkpt><trkpt lat="41.39857535843269" lon="13.953617388573393"><ele>435.5</ele><time>2026-04-12T13:13:54Z</time></trkpt><trkpt lat="41.39864946412147" lon="13.953870393816956"><ele>436.0</ele><time>2026-04-12T13:14:00Z</time></trkpt><trkpt lat="41.39868145725248" lon="13.953951274439218"><ele>436.5</ele><time>2026-04-12T13:14:02Z</time></trkpt><trkpt lat="41.398707947686525" lon="13.954055331235736"><ele>437.0</ele><time>2026-04-12T13:14:04Z</time></trkpt><trkpt lat="41.39870743875307" lon="13.954190824034727"><ele>436.6</ele><time>2026-04-12T13:14:06Z</time></trkpt><trkpt lat="41.39872978889893" lon="13.954323937510344"><ele>436.20000000000005</ele><time>2026-04-12T13:14:08Z</time></trkpt><trkpt lat="41.398766554977" lon="13.954464508404431"><ele>435.8</ele><time>2026-04-12T13:14:10Z</time></trkpt><trkpt lat="41.39879203577598" lon="13.95456452040326"><ele>435.4</ele><time>2026-04-12T13:14:12Z</time></trkpt><trkpt lat="41.398774428523744" lon="13.954676885040389"><ele>435.0</ele><time>2026-04-12T13:14:14Z</time></trkpt><trkpt lat="41.39883131611196" lon="13.954732357043657"><ele>429.5714285714286</ele><time>2026-04-12T13:14:20Z</time></trkpt><trkpt lat="41.398878494092685" lon="13.954794275016017"><ele>424.14285714285717</ele><time>2026-04-12T13:14:22Z</time></trkpt><trkpt lat="41.398927411337745" lon="13.954857620592355"><ele>418.7142857142857</ele><time>2026-04-12T13:14:25Z</time></trkpt><trkpt lat="41.399012395501146" lon="13.954894143018999"><ele>413.28571428571433</ele><time>2026-04-12T13:14:28Z</time></trkpt><trkpt lat="41.399013644035726" lon="13.95479759409013"><ele>407.85714285714283</ele><time>2026-04-12T13:14:31Z</time></trkpt><trkpt lat="41.39899549370119" lon="13.954709418815083"><ele>402.42857142857144</ele><time>2026-04-12T13:14:34Z</time></trkpt><trkpt lat="41.399029895488326" lon="13.9546206684523"><ele>397.0</ele><time>2026-04-12T13:14:36Z</time></trkpt><trkpt lat="41.399094635196676" lon="13.954555254030764"><ele>397.0</ele><time>2026-04-12T13:14:40Z</time></trkpt><trkpt lat="41.399108852522204" lon="13.954467375397511"><ele>397.0</ele><time>2026-04-12T13:14:42Z</time></trkpt><trkpt lat="41.39909983136419" lon="13.954365861415752"><ele>397.0</ele><time>2026-04-12T13:14:44Z</time></trkpt><trkpt lat="41.399059898663076" lon="13.954273480912867"><ele>397.0</ele><time>2026-04-12T13:14:49Z</time></trkpt><trkpt lat="41.399047469027444" lon="13.954181138195716"><ele>397.0</ele><time>2026-04-12T13:14:52Z</time></trkpt><trkpt lat="41.39905558027158" lon="13.954081352784963"><ele>397.0</ele><time>2026-04-12T13:14:55Z</time></trkpt><trkpt lat="41.39905654011135" lon="13.953976912829285"><ele>397.0</ele><time>2026-04-12T13:14:57Z</time></trkpt><trkpt lat="41.39910124565399" lon="13.95389837396233"><ele>397.00000000000006</ele><time>2026-04-12T13:15:00Z</time></trkpt><trkpt lat="41.399139111099416" lon="13.953827602722813"><ele>397.0</ele><time>2026-04-12T13:15:03Z</time></trkpt><trkpt lat="41.39922879373004" lon="13.95385745310106"><ele>397.0</ele><time>2026-04-12T13:15:05Z</time></trkpt><trkpt lat="41.39927861620161" lon="13.953953074062651"><ele>397.0</ele><time>2026-04-12T13:15:09Z</time></trkpt><trkpt lat="41.39931278125956" lon="13.95405808876532"><ele>397.00000000000006</ele><time>2026-04-12T13:15:11Z</time></trkpt><trkpt lat="41.39932288054463" lon="13.954165753456165"><ele>397.0</ele><time>2026-04-12T13:15:13Z</time></trkpt><trkpt lat="41.39933477061947" lon="13.954288897872345"><ele>397.0</ele><time>2026-04-12T13:15:16Z</time></trkpt><trkpt lat="41.39928394079581" lon="13.95434219324602"><ele>397.0</ele><time>2026-04-12T13:15:17Z</time></trkpt><trkpt lat="41.39932781681338" lon="13.95442955899655"><ele>397.0</ele><time>2026-04-12T13:15:19Z</time></trkpt><trkpt lat="41.39934070790661" lon="13.954513860593323"><ele>397.0</ele><time>2026-04-12T13:15:21Z</time></trkpt><trkpt lat="41.39937872938079" lon="13.954595379575881"><ele>397.0</ele><time>2026-04-12T13:15:23Z</time></trkpt><trkpt lat="41.39936645060555" lon="13.954687635972155"><ele>397.0</ele><time>2026-04-12T13:15:25Z</time></trkpt><trkpt lat="41.39939522780351" lon="13.954775680293002"><ele>397.0</ele><time>2026-04-12T13:15:28Z</time></trkpt><trkpt lat="41.39938336598237" lon="13.954864487416959"><ele>397.00000000000006</ele><time>2026-04-12T13:15:31Z</time></trkpt><trkpt lat="41.399420022088016" lon="13.954963989153947"><ele>397.0</ele><time>2026-04-12T13:15:35Z</time></trkpt><trkpt lat="41.399404610172624" lon="13.95506173774375"><ele>397.0</ele><time>2026-04-12T13:15:38Z</time></trkpt><trkpt lat="41.3994392772067" lon="13.955141619852727"><ele>397.0</ele><time>2026-04-12T13:15:42Z</time></trkpt><trkpt lat="41.3994655488404" lon="13.955233707890066"><ele>397.00000000000006</ele><time>2026-04-12T13:15:45Z</time></trkpt><trkpt lat="41.39946149053458" lon="13.955323987919028"><ele>397.0</ele><time>2026-04-12T13:15:47Z</time></trkpt><trkpt lat="41.3994728368111" lon="13.955446982163615"><ele>396.00000000000006</ele><time>2026-04-12T13:15:50Z</time></trkpt><trkpt lat="41.39944835981748" lon="13.955542800979703"><ele>395.0</ele><time>2026-04-12T13:15:53Z</time></trkpt><trkpt lat="41.39942802078331" lon="13.955660993885997"><ele>394.0</ele><time>2026-04-12T13:15:56Z</time></trkpt><trkpt lat="41.3994023065645" lon="13.9557720000641"><ele>393.0</ele><time>2026-04-12T13:15:59Z</time></trkpt><trkpt lat="41.39940934602198" lon="13.955867494040655"><ele>392.00000000000006</ele><time>2026-04-12T13:16:01Z</time></trkpt><trkpt lat="41.399425582623564" lon="13.95597758306688"><ele>391.0</ele><time>2026-04-12T13:16:03Z</time></trkpt><trkpt lat="41.39944934144915" lon="13.95611051081322"><ele>390.00000000000006</ele><time>2026-04-12T13:16:07Z</time></trkpt><trkpt lat="41.39942130640758" lon="13.956209000725696"><ele>389.0</ele><time>2026-04-12T13:16:09Z</time></trkpt><trkpt lat="41.39942286540202" lon="13.956296932701566"><ele>388.0</ele><time>2026-04-12T13:16:11Z</time></trkpt><trkpt lat="41.39941950290161" lon="13.956420767303616"><ele>387.0</ele><time>2026-04-12T13:16:13Z</time></trkpt><trkpt lat="41.399387928193" lon="13.956526605389183"><ele>386.00000000000006</ele><time>2026-04-12T13:16:16Z</time></trkpt><trkpt lat="41.39940268413793" lon="13.956610927581183"><ele>385.0</ele><time>2026-04-12T13:16:18Z</time></trkpt><trkpt lat="41.399363983149165" lon="13.956711872360462"><ele>382.6</ele><time>2026-04-12T13:16:21Z</time></trkpt><trkpt lat="41.39930450510912" lon="13.956848499064968"><ele>380.2</ele><time>2026-04-12T13:16:23Z</time></trkpt><trkpt lat="41.39928473688033" lon="13.956985141301953"><ele>377.79999999999995</ele><time>2026-04-12T13:16:25Z</time></trkpt><trkpt lat="41.39924397892169" lon="13.957115202679848"><ele>375.4</ele><time>2026-04-12T13:16:28Z</time></trkpt><trkpt lat="41.39915755177096" lon="13.957223998746635"><ele>373.0</ele><time>2026-04-12T13:16:30Z</time></trkpt><trkpt lat="41.39912744573622" lon="13.957316597103965"><ele>373.0</ele><time>2026-04-12T13:16:31Z</time></trkpt><trkpt lat="41.39913216265687" lon="13.957405835546158"><ele>373.0</ele><time>2026-04-12T13:16:33Z</time></trkpt><trkpt lat="41.39913059922312" lon="13.957498907766658"><ele>373.0</ele><time>2026-04-12T13:16:35Z</time></trkpt><trkpt lat="41.399087616111906" lon="13.957574658475927"><ele>373.0</ele><time>2026-04-12T13:16:37Z</time></trkpt><trkpt lat="41.3990414614116" lon="13.957650375065061"><ele>373.0</ele><time>2026-04-12T13:16:39Z</time></trkpt><trkpt lat="41.399038996117774" lon="13.957764143702786"><ele>373.0</ele><time>2026-04-12T13:16:42Z</time></trkpt><trkpt lat="41.39900259088998" lon="13.95785313653965"><ele>373.0</ele><time>2026-04-12T13:16:44Z</time></trkpt><trkpt lat="41.398948828704896" lon="13.958012681779854"><ele>370.0</ele><time>2026-04-12T13:16:46Z</time></trkpt><trkpt lat="41.39889672453484" lon="13.958072453765245"><ele>367.0</ele><time>2026-04-12T13:16:47Z</time></trkpt><trkpt lat="41.39885486178431" lon="13.9582115293776"><ele>364.0</ele><time>2026-04-12T13:16:48Z</time></trkpt><trkpt lat="41.39886111081232" lon="13.958295867966491"><ele>361.0</ele><time>2026-04-12T13:16:52Z</time></trkpt><trkpt lat="41.39890742090304" lon="13.958427760522646"><ele>358.0</ele><time>2026-04-12T13:16:55Z</time></trkpt><trkpt lat="41.39891001899563" lon="13.958574997800046"><ele>354.75</ele><time>2026-04-12T13:16:57Z</time></trkpt><trkpt lat="41.39889280148998" lon="13.958700155428552"><ele>351.5</ele><time>2026-04-12T13:16:58Z</time></trkpt><trkpt lat="41.39887969852113" lon="13.958794680438256"><ele>348.25</ele><time>2026-04-12T13:16:59Z</time></trkpt><trkpt lat="41.398753658813355" lon="13.958986739331214"><ele>345.0</ele><time>2026-04-12T13:17:00Z</time></trkpt><trkpt lat="41.39868005585404" lon="13.959137003769593"><ele>349.75</ele><time>2026-04-12T13:17:01Z</time></trkpt><trkpt lat="41.39864459880108" lon="13.959303110179446"><ele>354.5</ele><time>2026-04-12T13:17:02Z</time></trkpt><trkpt lat="41.39862399798057" lon="13.959435002532764"><ele>359.25</ele><time>2026-04-12T13:17:03Z</time></trkpt><trkpt lat="41.39857030140364" lon="13.959576035474477"><ele>364.0</ele><time>2026-04-12T13:17:04Z</time></trkpt><trkpt lat="41.398507494385235" lon="13.959699893880734"><ele>364.0</ele><time>2026-04-12T13:17:05Z</time></trkpt><trkpt lat="41.3984475442768" lon="13.959811753515838"><ele>364.0</ele><time>2026-04-12T13:17:06Z</time></trkpt><trkpt lat="41.398376609870645" lon="13.959941324518605"><ele>364.0</ele><time>2026-04-12T13:17:07Z</time></trkpt><trkpt lat="41.39832647865776" lon="13.960075967336905"><ele>364.0</ele><time>2026-04-12T13:17:08Z</time></trkpt><trkpt lat="41.39828705433471" lon="13.960220677604188"><ele>361.25</ele><time>2026-04-12T13:17:09Z</time></trkpt><trkpt lat="41.39825071865263" lon="13.960360122040841"><ele>358.5</ele><time>2026-04-12T13:17:10Z</time></trkpt><trkpt lat="41.39823253728377" lon="13.960526928072328"><ele>355.75</ele><time>2026-04-12T13:17:11Z</time></trkpt><trkpt lat="41.398222221114324" lon="13.960639802963259"><ele>353.0</ele><time>2026-04-12T13:17:12Z</time></trkpt><trkpt lat="41.39820975403517" lon="13.96083549785847"><ele>352.0</ele><time>2026-04-12T13:17:13Z</time></trkpt><trkpt lat="41.398215454876194" lon="13.960982445028895"><ele>351.0</ele><time>2026-04-12T13:17:14Z</time></trkpt><trkpt lat="41.39821902942301" lon="13.961087163388742"><ele>350.0</ele><time>2026-04-12T13:17:15Z</time></trkpt><trkpt lat="41.39820678611072" lon="13.961225347311633"><ele>349.0</ele><time>2026-04-12T13:17:17Z</time></trkpt><trkpt lat="41.39821636517541" lon="13.961320037922201"><ele>348.0</ele><time>2026-04-12T13:17:18Z</time></trkpt><trkpt lat="41.39821598685683" lon="13.961420765069475"><ele>347.0</ele><time>2026-04-12T13:17:19Z</time></trkpt><trkpt lat="41.398234238817984" lon="13.961666981988225"><ele>347.0</ele><time>2026-04-12T13:17:21Z</time></trkpt><trkpt lat="41.39822893939211" lon="13.961839899803431"><ele>347.0</ele><time>2026-04-12T13:17:23Z</time></trkpt><trkpt lat="41.3982176226327" lon="13.962037321095611"><ele>347.0</ele><time>2026-04-12T13:17:24Z</time></trkpt><trkpt lat="41.39823635482189" lon="13.962156019368404"><ele>347.0</ele><time>2026-04-12T13:17:25Z</time></trkpt><trkpt lat="41.39826192159788" lon="13.962273610138803"><ele>347.0</ele><time>2026-04-12T13:17:26Z</time></trkpt><trkpt lat="41.39827125231333" lon="13.962367623988593"><ele>347.0</ele><time>2026-04-12T13:17:27Z</time></trkpt><trkpt lat="41.39830175409699" lon="13.96254172116276"><ele>347.0</ele><time>2026-04-12T13:17:28Z</time></trkpt><trkpt lat="41.398318698724175" lon="13.962690715179207"><ele>347.0</ele><time>2026-04-12T13:17:29Z</time></trkpt><trkpt lat="41.39831732403614" lon="13.962812048455415"><ele>347.0</ele><time>2026-04-12T13:17:30Z</time></trkpt><trkpt lat="41.39828391749987" lon="13.962945875324783"><ele>348.0</ele><time>2026-04-12T13:17:31Z</time></trkpt><trkpt lat="41.39827608601374" lon="13.963143665782148"><ele>349.0</ele><time>2026-04-12T13:17:32Z</time></trkpt><trkpt lat="41.39825662567367" lon="13.963235556127445"><ele>350.0</ele><time>2026-04-12T13:17:33Z</time></trkpt><trkpt lat="41.39824252498457" lon="13.963447002082773"><ele>351.0</ele><time>2026-04-12T13:17:35Z</time></trkpt><trkpt lat="41.398253897088075" lon="13.9635681861876"><ele>351.3333333333333</ele><time>2026-04-12T13:17:36Z</time></trkpt><trkpt lat="41.39825715973803" lon="13.96369478133861"><ele>351.6666666666667</ele><time>2026-04-12T13:17:38Z</time></trkpt><trkpt lat="41.39824057040648" lon="13.963783720052755"><ele>352.0</ele><time>2026-04-12T13:17:39Z</time></trkpt><trkpt lat="41.39822170417891" lon="13.96388673244495"><ele>352.33333333333337</ele><time>2026-04-12T13:17:41Z</time></trkpt><trkpt lat="41.39823074143264" lon="13.963971111171192"><ele>352.6666666666667</ele><time>2026-04-12T13:17:43Z</time></trkpt><trkpt lat="41.39825887037001" lon="13.96406383827952"><ele>353.0</ele><time>2026-04-12T13:17:45Z</time></trkpt><trkpt lat="41.39827157113129" lon="13.964188104837755"><ele>353.4</ele><time>2026-04-12T13:17:49Z</time></trkpt><trkpt lat="41.39828117052559" lon="13.9642928998253"><ele>353.79999999999995</ele><time>2026-04-12T13:17:51Z</time></trkpt><trkpt lat="41.39827221781026" lon="13.96442836689322"><ele>354.2</ele><time>2026-04-12T13:17:53Z</time></trkpt><trkpt lat="41.3982808778355" lon="13.964567029358825"><ele>354.6</ele><time>2026-04-12T13:17:56Z</time></trkpt><trkpt lat="41.3982849218576" lon="13.964714028174734"><ele>355.0</ele><time>2026-04-12T13:17:59Z</time></trkpt><trkpt lat="41.398276674010035" lon="13.964810202688819"><ele>355.0</ele><time>2026-04-12T13:18:00Z</time></trkpt><trkpt lat="41.39828503125659" lon="13.96493441700067"><ele>355.0</ele><time>2026-04-12T13:18:02Z</time></trkpt><trkpt lat="41.398297862913594" lon="13.965092451242946"><ele>355.0</ele><time>2026-04-12T13:18:04Z</time></trkpt><trkpt lat="41.39829588656572" lon="13.965231756456676"><ele>355.0</ele><time>2026-04-12T13:18:06Z</time></trkpt><trkpt lat="41.39826679218662" lon="13.9653374040427"><ele>355.0</ele><time>2026-04-12T13:18:09Z</time></trkpt><trkpt lat="41.39821100683322" lon="13.965381332647306"><ele>351.66666666666663</ele><time>2026-04-12T13:18:11Z</time></trkpt><trkpt lat="41.39812483581665" lon="13.965376685319425"><ele>348.3333333333333</ele><time>2026-04-12T13:18:14Z</time></trkpt><trkpt lat="41.398066253037825" lon="13.965411712884949"><ele>345.0</ele><time>2026-04-12T13:18:26Z</time></trkpt><trkpt lat="41.3980057646296" lon="13.965365837588557"><ele>341.6666666666667</ele><time>2026-04-12T13:20:41Z</time></trkpt><trkpt lat="41.39792728040813" lon="13.965343177729325"><ele>338.33333333333337</ele><time>2026-04-12T13:20:43Z</time></trkpt><trkpt lat="41.397825506331706" lon="13.965318036977962"><ele>335.0</ele><time>2026-04-12T13:20:46Z</time></trkpt><trkpt lat="41.397747618076316" lon="13.965307814059761"><ele>332.5</ele><time>2026-04-12T13:20:49Z</time></trkpt><trkpt lat="41.397679148520744" lon="13.965301310740443"><ele>330.0</ele><time>2026-04-12T13:20:52Z</time></trkpt><trkpt lat="41.39758717030911" lon="13.96528672321932"><ele>327.5</ele><time>2026-04-12T13:20:55Z</time></trkpt><trkpt lat="41.39751683206717" lon="13.965306595423984"><ele>325.0</ele><time>2026-04-12T13:21:00Z</time></trkpt><trkpt lat="41.397443866986904" lon="13.965294868793954"><ele>322.5</ele><time>2026-04-12T13:21:02Z</time></trkpt><trkpt lat="41.397357115246194" lon="13.965256320108304"><ele>320.0</ele><time>2026-04-12T13:21:05Z</time></trkpt><trkpt lat="41.397260381282024" lon="13.965281057758288"><ele>320.0</ele><time>2026-04-12T13:21:08Z</time></trkpt><trkpt lat="41.3971916793632" lon="13.96524959791903"><ele>320.0</ele><time>2026-04-12T13:21:11Z</time></trkpt><trkpt lat="41.39711867436086" lon="13.96522618158008"><ele>320.0</ele><time>2026-04-12T13:21:14Z</time></trkpt><trkpt lat="41.397039997306486" lon="13.96520114736588"><ele>320.0</ele><time>2026-04-12T13:21:17Z</time></trkpt><trkpt lat="41.39697004613364" lon="13.965182735431743"><ele>320.0</ele><time>2026-04-12T13:21:20Z</time></trkpt><trkpt lat="41.39690693749742" lon="13.9651663468631"><ele>320.0</ele><time>2026-04-12T13:21:22Z</time></trkpt><trkpt lat="41.39684514609844" lon="13.965148190485507"><ele>320.0</ele><time>2026-04-12T13:21:23Z</time></trkpt><trkpt lat="41.396760996631215" lon="13.965101285963208"><ele>320.6666666666667</ele><time>2026-04-12T13:21:26Z</time></trkpt><trkpt lat="41.39668184668038" lon="13.965049468469141"><ele>321.33333333333337</ele><time>2026-04-12T13:21:29Z</time></trkpt><trkpt lat="41.39661260926398" lon="13.965020890143546"><ele>322.0</ele><time>2026-04-12T13:21:32Z</time></trkpt><trkpt lat="41.39653421222239" lon="13.965017172069627"><ele>322.6666666666667</ele><time>2026-04-12T13:21:36Z</time></trkpt><trkpt lat="41.396460853561415" lon="13.96502601452942"><ele>323.3333333333333</ele><time>2026-04-12T13:21:44Z</time></trkpt><trkpt lat="41.39638021251913" lon="13.965018655963222"><ele>324.0</ele><time>2026-04-12T13:21:48Z</time></trkpt><trkpt lat="41.396316816104914" lon="13.965020044261138"><ele>324.0</ele><time>2026-04-12T13:21:51Z</time></trkpt><trkpt lat="41.39625590152659" lon="13.964995800718565"><ele>324.0</ele><time>2026-04-12T13:21:53Z</time></trkpt><trkpt lat="41.39617042669655" lon="13.965023760131645"><ele>324.0</ele><time>2026-04-12T13:21:56Z</time></trkpt><trkpt lat="41.396092771670496" lon="13.964988967964842"><ele>324.0</ele><time>2026-04-12T13:21:59Z</time></trkpt><trkpt lat="41.39601507928815" lon="13.965010025380588"><ele>324.0</ele><time>2026-04-12T13:22:02Z</time></trkpt><trkpt lat="41.39592798927719" lon="13.965022258859829"><ele>324.0</ele><time>2026-04-12T13:22:05Z</time></trkpt><trkpt lat="41.39585204238771" lon="13.965008882385533"><ele>324.0</ele><time>2026-04-12T13:22:08Z</time></trkpt><trkpt lat="41.3957620765904" lon="13.96501126989192"><ele>324.0</ele><time>2026-04-12T13:22:10Z</time></trkpt><trkpt lat="41.395665090537626" lon="13.965025232006683"><ele>324.0</ele><time>2026-04-12T13:22:14Z</time></trkpt><trkpt lat="41.395602552552496" lon="13.965012635352975"><ele>324.0</ele><time>2026-04-12T13:22:16Z</time></trkpt><trkpt lat="41.395523127948245" lon="13.965004980047144"><ele>324.0</ele><time>2026-04-12T13:22:19Z</time></trkpt><trkpt lat="41.39544316060567" lon="13.965022190782166"><ele>324.0</ele><time>2026-04-12T13:22:22Z</time></trkpt><trkpt lat="41.39536526298141" lon="13.96503507066057"><ele>317.3333333333333</ele><time>2026-04-12T13:22:27Z</time></trkpt><trkpt lat="41.395298314583826" lon="13.965065772773883"><ele>310.6666666666667</ele><time>2026-04-12T13:22:30Z</time></trkpt><trkpt lat="41.39520970353796" lon="13.965079987644122"><ele>304.0</ele><time>2026-04-12T13:22:33Z</time></trkpt><trkpt lat="41.395156168133965" lon="13.965126862493516"><ele>297.33333333333337</ele><time>2026-04-12T13:22:36Z</time></trkpt><trkpt lat="41.39503748879865" lon="13.965153724801231"><ele>290.6666666666667</ele><time>2026-04-12T13:22:39Z</time></trkpt><trkpt lat="41.39498819111111" lon="13.965251681176705"><ele>284.0</ele><time>2026-04-12T13:22:41Z</time></trkpt><trkpt lat="41.394921790704984" lon="13.96526643652245"><ele>284.0</ele><time>2026-04-12T13:22:43Z</time></trkpt><trkpt lat="41.394859492815655" lon="13.965311666688354"><ele>284.0</ele><time>2026-04-12T13:22:45Z</time></trkpt><trkpt lat="41.39478279150899" lon="13.965344960080797"><ele>284.0</ele><time>2026-04-12T13:22:46Z</time></trkpt><trkpt lat="41.39472432287782" lon="13.965384634088927"><ele>284.0</ele><time>2026-04-12T13:22:47Z</time></trkpt><trkpt lat="41.39464870656323" lon="13.965403356632681"><ele>284.0</ele><time>2026-04-12T13:22:48Z</time></trkpt><trkpt lat="41.394586115819195" lon="13.965422291739607"><ele>284.0</ele><time>2026-04-12T13:22:49Z</time></trkpt><trkpt lat="41.3945333937853" lon="13.965477867580674"><ele>284.0</ele><time>2026-04-12T13:22:51Z</time></trkpt><trkpt lat="41.39447248098953" lon="13.965500305224396"><ele>285.6666666666667</ele><time>2026-04-12T13:22:52Z</time></trkpt><trkpt lat="41.394364473507004" lon="13.965542177625165"><ele>287.33333333333337</ele><time>2026-04-12T13:22:54Z</time></trkpt><trkpt lat="41.39429471414132" lon="13.965560929604125"><ele>289.0</ele><time>2026-04-12T13:22:55Z</time></trkpt><trkpt lat="41.3942277403423" lon="13.965586391465033"><ele>290.6666666666667</ele><time>2026-04-12T13:22:56Z</time></trkpt><trkpt lat="41.39410633742276" lon="13.965592290151333"><ele>292.3333333333333</ele><time>2026-04-12T13:22:58Z</time></trkpt><trkpt lat="41.394033763265874" lon="13.965604230535464"><ele>294.0</ele><time>2026-04-12T13:22:59Z</time></trkpt><trkpt lat="41.39392081039962" lon="13.965653264542107"><ele>294.0</ele><time>2026-04-12T13:23:01Z</time></trkpt><trkpt lat="41.393853105538035" lon="13.965701695547256"><ele>294.0</ele><time>2026-04-12T13:23:04Z</time></trkpt><trkpt lat="41.39377080695758" lon="13.965756520456528"><ele>294.0</ele><time>2026-04-12T13:23:07Z</time></trkpt><trkpt lat="41.39368837354754" lon="13.965791988629075"><ele>294.0</ele><time>2026-04-12T13:23:11Z</time></trkpt><trkpt lat="41.39359625817972" lon="13.965943377147536"><ele>294.0</ele><time>2026-04-12T13:23:16Z</time></trkpt><trkpt lat="41.39358472273979" lon="13.966029008162954"><ele>292.1666666666667</ele><time>2026-04-12T13:23:20Z</time></trkpt><trkpt lat="41.393516107085645" lon="13.966097249220432"><ele>290.3333333333333</ele><time>2026-04-12T13:23:22Z</time></trkpt><trkpt lat="41.393424298156496" lon="13.966145596515222"><ele>288.5</ele><time>2026-04-12T13:23:24Z</time></trkpt><trkpt lat="41.39336245517947" lon="13.966198755554569"><ele>286.66666666666663</ele><time>2026-04-12T13:23:26Z</time></trkpt><trkpt lat="41.39329540709602" lon="13.966230696220167"><ele>284.8333333333333</ele><time>2026-04-12T13:23:27Z</time></trkpt><trkpt lat="41.39320553594555" lon="13.966292160419277"><ele>283.0</ele><time>2026-04-12T13:23:29Z</time></trkpt><trkpt lat="41.393140440838735" lon="13.966299981545603"><ele>283.0</ele><time>2026-04-12T13:23:30Z</time></trkpt><trkpt lat="41.39302904051477" lon="13.966332835285208"><ele>283.0</ele><time>2026-04-12T13:23:32Z</time></trkpt><trkpt lat="41.392927288752105" lon="13.96633743342902"><ele>283.0</ele><time>2026-04-12T13:23:34Z</time></trkpt><trkpt lat="41.392848053757824" lon="13.96633032918452"><ele>283.0</ele><time>2026-04-12T13:23:36Z</time></trkpt><trkpt lat="41.39276908376959" lon="13.966323628890171"><ele>283.0</ele><time>2026-04-12T13:23:38Z</time></trkpt><trkpt lat="41.39270148550514" lon="13.96628287210264"><ele>283.0</ele><time>2026-04-12T13:23:40Z</time></trkpt><trkpt lat="41.39262222425998" lon="13.966259175145384"><ele>283.16666666666663</ele><time>2026-04-12T13:23:42Z</time></trkpt><trkpt lat="41.39254448305625" lon="13.96618234785245"><ele>283.3333333333333</ele><time>2026-04-12T13:23:44Z</time></trkpt><trkpt lat="41.39246050899395" lon="13.966130753588399"><ele>283.5</ele><time>2026-04-12T13:23:46Z</time></trkpt><trkpt lat="41.39241883916531" lon="13.966063280950634"><ele>283.6666666666667</ele><time>2026-04-12T13:23:49Z</time></trkpt><trkpt lat="41.39232922236207" lon="13.96605196531441"><ele>283.83333333333337</ele><time>2026-04-12T13:23:51Z</time></trkpt><trkpt lat="41.39226956910519" lon="13.96602473401223"><ele>284.0</ele><time>2026-04-12T13:23:52Z</time></trkpt><trkpt lat="41.39220187570066" lon="13.965940539514637"><ele>282.33333333333337</ele><time>2026-04-12T13:23:56Z</time></trkpt><trkpt lat="41.39211763110184" lon="13.965951386413694"><ele>280.6666666666667</ele><time>2026-04-12T13:23:57Z</time></trkpt><trkpt lat="41.39203174669355" lon="13.965928519681952"><ele>279.0</ele><time>2026-04-12T13:24:00Z</time></trkpt><trkpt lat="41.39194779519721" lon="13.965903397648502"><ele>277.3333333333333</ele><time>2026-04-12T13:24:02Z</time></trkpt><trkpt lat="41.39186608651914" lon="13.965862479625214"><ele>275.66666666666663</ele><time>2026-04-12T13:24:04Z</time></trkpt><trkpt lat="41.3917906645841" lon="13.965862450316816"><ele>274.0</ele><time>2026-04-12T13:24:08Z</time></trkpt><trkpt lat="41.391721307011686" lon="13.965830320590397"><ele>274.0</ele><time>2026-04-12T13:24:10Z</time></trkpt><trkpt lat="41.39164774350133" lon="13.965863111068074"><ele>274.0</ele><time>2026-04-12T13:24:12Z</time></trkpt><trkpt lat="41.39155662304207" lon="13.96587487428204"><ele>274.0</ele><time>2026-04-12T13:24:14Z</time></trkpt><trkpt lat="41.39147602708923" lon="13.965892185237081"><ele>274.0</ele><time>2026-04-12T13:24:16Z</time></trkpt><trkpt lat="41.39139362476669" lon="13.965904712774668"><ele>274.0</ele><time>2026-04-12T13:24:18Z</time></trkpt><trkpt lat="41.39132643963396" lon="13.965923092640477"><ele>274.0</ele><time>2026-04-12T13:24:21Z</time></trkpt><trkpt lat="41.39123195972367" lon="13.965919478221226"><ele>273.8333333333333</ele><time>2026-04-12T13:24:23Z</time></trkpt><trkpt lat="41.391170024339644" lon="13.96589862597638"><ele>273.66666666666663</ele><time>2026-04-12T13:24:24Z</time></trkpt><trkpt lat="41.39109288012943" lon="13.965875409766504"><ele>273.5</ele><time>2026-04-12T13:24:26Z</time></trkpt><trkpt lat="41.3909885113108" lon="13.965883456630277"><ele>273.3333333333333</ele><time>2026-04-12T13:24:29Z</time></trkpt><trkpt lat="41.3909126133602" lon="13.965849030330654"><ele>273.1666666666667</ele><time>2026-04-12T13:24:31Z</time></trkpt><trkpt lat="41.390833092526485" lon="13.965835297551676"><ele>273.0</ele><time>2026-04-12T13:24:33Z</time></trkpt><trkpt lat="41.39075318846811" lon="13.965830821812245"><ele>274.6666666666667</ele><time>2026-04-12T13:24:35Z</time></trkpt><trkpt lat="41.3906625208515" lon="13.965830359247326"><ele>276.3333333333333</ele><time>2026-04-12T13:24:36Z</time></trkpt><trkpt lat="41.390599402069746" lon="13.965829515245638"><ele>278.0</ele><time>2026-04-12T13:24:37Z</time></trkpt><trkpt lat="41.39052986785408" lon="13.965795353153174"><ele>279.66666666666663</ele><time>2026-04-12T13:24:39Z</time></trkpt><trkpt lat="41.39043784618995" lon="13.965820218547952"><ele>281.3333333333333</ele><time>2026-04-12T13:24:42Z</time></trkpt><trkpt lat="41.390325939199755" lon="13.965842890692677"><ele>283.0</ele><time>2026-04-12T13:24:44Z</time></trkpt><trkpt lat="41.39024676646837" lon="13.965866375198582"><ele>283.0</ele><time>2026-04-12T13:24:47Z</time></trkpt><trkpt lat="41.390204476800925" lon="13.965967351923398"><ele>283.0</ele><time>2026-04-12T13:24:50Z</time></trkpt><trkpt lat="41.39015993998509" lon="13.96604544573853"><ele>283.0</ele><time>2026-04-12T13:24:52Z</time></trkpt><trkpt lat="41.390039395265866" lon="13.966086947834468"><ele>283.0</ele><time>2026-04-12T13:24:54Z</time></trkpt><trkpt lat="41.389941382202856" lon="13.966102918480644"><ele>283.0</ele><time>2026-04-12T13:24:57Z</time></trkpt><trkpt lat="41.38986270166884" lon="13.966065594824746"><ele>283.0</ele><time>2026-04-12T13:25:01Z</time></trkpt><trkpt lat="41.38977571574075" lon="13.966085552164712"><ele>283.0</ele><time>2026-04-12T13:25:03Z</time></trkpt><trkpt lat="41.38967951509702" lon="13.966087689627267"><ele>283.0</ele><time>2026-04-12T13:25:04Z</time></trkpt><trkpt lat="41.38959365162877" lon="13.966075907546639"><ele>283.0</ele><time>2026-04-12T13:25:05Z</time></trkpt><trkpt lat="41.38949125598138" lon="13.966073484839093"><ele>283.0</ele><time>2026-04-12T13:25:06Z</time></trkpt><trkpt lat="41.38940412810319" lon="13.966086073488558"><ele>283.5</ele><time>2026-04-12T13:25:08Z</time></trkpt><trkpt lat="41.38933037152534" lon="13.966063144262906"><ele>284.0</ele><time>2026-04-12T13:25:10Z</time></trkpt><trkpt lat="41.38926152679072" lon="13.96603412503796"><ele>284.5</ele><time>2026-04-12T13:25:13Z</time></trkpt><trkpt lat="41.389183108760875" lon="13.9660312217151"><ele>285.0</ele><time>2026-04-12T13:25:16Z</time></trkpt><trkpt lat="41.389118881213285" lon="13.966034013262178"><ele>285.5</ele><time>2026-04-12T13:25:18Z</time></trkpt><trkpt lat="41.38902933230522" lon="13.966070738324264"><ele>286.0</ele><time>2026-04-12T13:25:21Z</time></trkpt><trkpt lat="41.388939864246076" lon="13.966077987899597"><ele>286.0</ele><time>2026-04-12T13:25:23Z</time></trkpt><trkpt lat="41.38885652225487" lon="13.966108616521018"><ele>286.0</ele><time>2026-04-12T13:25:25Z</time></trkpt><trkpt lat="41.38879617960792" lon="13.966146966271022"><ele>286.0</ele><time>2026-04-12T13:25:27Z</time></trkpt><trkpt lat="41.38870534941048" lon="13.96616951916419"><ele>286.0</ele><time>2026-04-12T13:25:30Z</time></trkpt><trkpt lat="41.38864050565876" lon="13.96621470779901"><ele>286.0</ele><time>2026-04-12T13:25:33Z</time></trkpt><trkpt lat="41.388572049249824" lon="13.966320549996894"><ele>286.0</ele><time>2026-04-12T13:25:35Z</time></trkpt><trkpt lat="41.38848087960208" lon="13.966376650010202"><ele>287.16666666666663</ele><time>2026-04-12T13:25:37Z</time></trkpt><trkpt lat="41.388414831335645" lon="13.966396686473193"><ele>288.3333333333333</ele><time>2026-04-12T13:25:38Z</time></trkpt><trkpt lat="41.3883536889957" lon="13.966418349102266"><ele>289.5</ele><time>2026-04-12T13:25:39Z</time></trkpt><trkpt lat="41.388292842187376" lon="13.966447441516848"><ele>290.6666666666667</ele><time>2026-04-12T13:25:40Z</time></trkpt><trkpt lat="41.38823372519513" lon="13.966479332408142"><ele>291.83333333333337</ele><time>2026-04-12T13:25:42Z</time></trkpt><trkpt lat="41.38815818193295" lon="13.966557166354775"><ele>293.0</ele><time>2026-04-12T13:25:44Z</time></trkpt><trkpt lat="41.38805868740807" lon="13.966588063380863"><ele>294.8</ele><time>2026-04-12T13:25:46Z</time></trkpt><trkpt lat="41.387981176143455" lon="13.9666526498426"><ele>296.6</ele><time>2026-04-12T13:25:48Z</time></trkpt><trkpt lat="41.38789487846118" lon="13.966750977946555"><ele>298.4</ele><time>2026-04-12T13:25:50Z</time></trkpt><trkpt lat="41.38781957210307" lon="13.96681103501597"><ele>300.2</ele><time>2026-04-12T13:25:53Z</time></trkpt><trkpt lat="41.38772655141655" lon="13.966868721139623"><ele>302.0</ele><time>2026-04-12T13:25:55Z</time></trkpt><trkpt lat="41.38763158751934" lon="13.96688555694018"><ele>298.0</ele><time>2026-04-12T13:25:57Z</time></trkpt><trkpt lat="41.387559623373704" lon="13.966902523121494"><ele>294.0</ele><time>2026-04-12T13:25:59Z</time></trkpt><trkpt lat="41.38743968474819" lon="13.966952367358672"><ele>290.0</ele><time>2026-04-12T13:26:01Z</time></trkpt><trkpt lat="41.38737860459554" lon="13.966973625760222"><ele>286.0</ele><time>2026-04-12T13:26:02Z</time></trkpt><trkpt lat="41.38729768442964" lon="13.966981448414456"><ele>282.0</ele><time>2026-04-12T13:26:04Z</time></trkpt><trkpt lat="41.387163819871546" lon="13.966981225007547"><ele>281.3333333333333</ele><time>2026-04-12T13:26:06Z</time></trkpt><trkpt lat="41.38707415431072" lon="13.967000752643814"><ele>280.6666666666667</ele><time>2026-04-12T13:26:08Z</time></trkpt><trkpt lat="41.387003628625756" lon="13.967043255921368"><ele>280.0</ele><time>2026-04-12T13:26:11Z</time></trkpt><trkpt lat="41.386937743883294" lon="13.96709267349731"><ele>279.33333333333337</ele><time>2026-04-12T13:26:15Z</time></trkpt><trkpt lat="41.386858787513304" lon="13.967098064470713"><ele>278.6666666666667</ele><time>2026-04-12T13:26:17Z</time></trkpt><trkpt lat="41.38680307621012" lon="13.967148364569303"><ele>278.0</ele><time>2026-04-12T13:26:21Z</time></trkpt><trkpt lat="41.386734690028256" lon="13.967192197937921"><ele>278.0</ele><time>2026-04-12T13:26:23Z</time></trkpt><trkpt lat="41.38666520144686" lon="13.967207473830006"><ele>278.0</ele><time>2026-04-12T13:26:24Z</time></trkpt><trkpt lat="41.3866017257766" lon="13.967205156403091"><ele>278.0</ele><time>2026-04-12T13:26:26Z</time></trkpt><trkpt lat="41.38652377190728" lon="13.967220332684285"><ele>278.0</ele><time>2026-04-12T13:26:28Z</time></trkpt><trkpt lat="41.38645445085171" lon="13.967275142223853"><ele>278.0</ele><time>2026-04-12T13:26:30Z</time></trkpt><trkpt lat="41.38635700298674" lon="13.967240894585766"><ele>278.0</ele><time>2026-04-12T13:26:32Z</time></trkpt><trkpt lat="41.38628472703528" lon="13.967232057439155"><ele>276.0</ele><time>2026-04-12T13:26:33Z</time></trkpt><trkpt lat="41.386172896929345" lon="13.967255374061034"><ele>274.0</ele><time>2026-04-12T13:26:35Z</time></trkpt><trkpt lat="41.386108792498526" lon="13.9673128852077"><ele>272.0</ele><time>2026-04-12T13:26:37Z</time></trkpt><trkpt lat="41.38601640739053" lon="13.967370019073979"><ele>270.0</ele><time>2026-04-12T13:26:39Z</time></trkpt><trkpt lat="41.3859500316515" lon="13.967402212704101"><ele>268.0</ele><time>2026-04-12T13:26:40Z</time></trkpt><trkpt lat="41.386000247361274" lon="13.967455774462602"><ele>266.0</ele><time>2026-04-12T13:26:42Z</time></trkpt><trkpt lat="41.38591117813756" lon="13.967456299008605"><ele>266.0</ele><time>2026-04-12T13:26:44Z</time></trkpt><trkpt lat="41.38584334407478" lon="13.96750614932128"><ele>266.0</ele><time>2026-04-12T13:26:45Z</time></trkpt><trkpt lat="41.3858031896571" lon="13.967604867907061"><ele>266.0</ele><time>2026-04-12T13:26:48Z</time></trkpt><trkpt lat="41.38570948073514" lon="13.967722548603803"><ele>266.0</ele><time>2026-04-12T13:26:50Z</time></trkpt><trkpt lat="41.38560250209938" lon="13.967720183464904"><ele>266.0</ele><time>2026-04-12T13:26:51Z</time></trkpt><trkpt lat="41.38551288940604" lon="13.967692279639284"><ele>261.2</ele><time>2026-04-12T13:26:52Z</time></trkpt><trkpt lat="41.38541205236122" lon="13.967669634588537"><ele>256.40000000000003</ele><time>2026-04-12T13:26:53Z</time></trkpt><trkpt lat="41.38534348053291" lon="13.967661248313698"><ele>251.6</ele><time>2026-04-12T13:26:54Z</time></trkpt><trkpt lat="41.38522828721592" lon="13.96765230545542"><ele>246.8</ele><time>2026-04-12T13:26:55Z</time></trkpt><trkpt lat="41.38512701108001" lon="13.967628035059306"><ele>242.0</ele><time>2026-04-12T13:26:56Z</time></trkpt><trkpt lat="41.38504904222337" lon="13.96760595093606"><ele>242.00000000000003</ele><time>2026-04-12T13:26:57Z</time></trkpt><trkpt lat="41.38495720726219" lon="13.967605130908165"><ele>242.0</ele><time>2026-04-12T13:26:58Z</time></trkpt><trkpt lat="41.384876379336106" lon="13.967638847914225"><ele>242.0</ele><time>2026-04-12T13:26:59Z</time></trkpt><trkpt lat="41.3848061855606" lon="13.967674959861466"><ele>242.0</ele><time>2026-04-12T13:27:00Z</time></trkpt><trkpt lat="41.38473353627819" lon="13.96770212524177"><ele>242.00000000000003</ele><time>2026-04-12T13:27:01Z</time></trkpt><trkpt lat="41.38467062767858" lon="13.96773908019276"><ele>242.0</ele><time>2026-04-12T13:27:02Z</time></trkpt><trkpt lat="41.38463580757172" lon="13.967809129919491"><ele>242.0</ele><time>2026-04-12T13:27:03Z</time></trkpt><trkpt lat="41.384680339380004" lon="13.967969066674431"><ele>242.0</ele><time>2026-04-12T13:27:04Z</time></trkpt><trkpt lat="41.38469663312066" lon="13.968068448154778"><ele>242.0</ele><time>2026-04-12T13:27:05Z</time></trkpt><trkpt lat="41.384734893594285" lon="13.968182390726305"><ele>242.0</ele><time>2026-04-12T13:27:06Z</time></trkpt><trkpt lat="41.38478790969835" lon="13.968297960443463"><ele>242.0</ele><time>2026-04-12T13:27:07Z</time></trkpt><trkpt lat="41.384829405068814" lon="13.968409088886395"><ele>239.6</ele><time>2026-04-12T13:27:08Z</time></trkpt><trkpt lat="41.384896379434196" lon="13.968511361481585"><ele>237.2</ele><time>2026-04-12T13:27:09Z</time></trkpt><trkpt lat="41.38500122662009" lon="13.968621553988346"><ele>234.8</ele><time>2026-04-12T13:27:11Z</time></trkpt><trkpt lat="41.38508158304972" lon="13.968621906770666"><ele>232.4</ele><time>2026-04-12T13:27:12Z</time></trkpt><trkpt lat="41.385155930851575" lon="13.968643849900614"><ele>230.0</ele><time>2026-04-12T13:27:13Z</time></trkpt><trkpt lat="41.385253306415116" lon="13.968634163921523"><ele>230.0</ele><time>2026-04-12T13:27:14Z</time></trkpt><trkpt lat="41.38531644846901" lon="13.968633660608724"><ele>230.0</ele><time>2026-04-12T13:27:15Z</time></trkpt><trkpt lat="41.38533001942667" lon="13.968781368705676"><ele>230.0</ele><time>2026-04-12T13:27:18Z</time></trkpt><trkpt lat="41.38534895351963" lon="13.968926957865166"><ele>230.0</ele><time>2026-04-12T13:27:19Z</time></trkpt><trkpt lat="41.385397532900804" lon="13.969107179561856"><ele>230.0</ele><time>2026-04-12T13:27:20Z</time></trkpt><trkpt lat="41.3854279510789" lon="13.969262566162765"><ele>227.25</ele><time>2026-04-12T13:27:21Z</time></trkpt><trkpt lat="41.38544759836844" lon="13.969430138187102"><ele>224.5</ele><time>2026-04-12T13:27:22Z</time></trkpt><trkpt lat="41.38544809255348" lon="13.96958299440828"><ele>221.75</ele><time>2026-04-12T13:27:23Z</time></trkpt><trkpt lat="41.38545778685524" lon="13.969767975243453"><ele>219.0</ele><time>2026-04-12T13:27:24Z</time></trkpt><trkpt lat="41.385473627428695" lon="13.969917441001623"><ele>217.39999999999998</ele><time>2026-04-12T13:27:25Z</time></trkpt><trkpt lat="41.3855003504492" lon="13.970040733220301"><ele>215.79999999999998</ele><time>2026-04-12T13:27:26Z</time></trkpt><trkpt lat="41.385520817775756" lon="13.970175830145623"><ele>214.2</ele><time>2026-04-12T13:27:27Z</time></trkpt><trkpt lat="41.385545452752744" lon="13.970307277809681"><ele>212.60000000000002</ele><time>2026-04-12T13:27:28Z</time></trkpt><trkpt lat="41.385604830429145" lon="13.97042657904234"><ele>211.0</ele><time>2026-04-12T13:27:29Z</time></trkpt><trkpt lat="41.38567443396989" lon="13.970554478638634"><ele>210.99999999999997</ele><time>2026-04-12T13:27:30Z</time></trkpt><trkpt lat="41.38573772676383" lon="13.970669795170803"><ele>211.0</ele><time>2026-04-12T13:27:31Z</time></trkpt><trkpt lat="41.385805329186944" lon="13.970789523375274"><ele>211.0</ele><time>2026-04-12T13:27:32Z</time></trkpt><trkpt lat="41.385833137013655" lon="13.970871457083039"><ele>211.0</ele><time>2026-04-12T13:27:33Z</time></trkpt><trkpt lat="41.385863644403145" lon="13.970959323832101"><ele>210.99999999999997</ele><time>2026-04-12T13:27:34Z</time></trkpt><trkpt lat="41.385868116438594" lon="13.971068800764334"><ele>211.0</ele><time>2026-04-12T13:27:35Z</time></trkpt><trkpt lat="41.385847614019596" lon="13.971180934762128"><ele>209.60000000000002</ele><time>2026-04-12T13:27:36Z</time></trkpt><trkpt lat="41.38581908656382" lon="13.971285627908056"><ele>208.2</ele><time>2026-04-12T13:27:37Z</time></trkpt><trkpt lat="41.3857572301025" lon="13.971431295456027"><ele>206.8</ele><time>2026-04-12T13:27:38Z</time></trkpt><trkpt lat="41.38570327130463" lon="13.97155584694162"><ele>205.39999999999998</ele><time>2026-04-12T13:27:39Z</time></trkpt><trkpt lat="41.38564251007255" lon="13.971700714414158"><ele>204.0</ele><time>2026-04-12T13:27:40Z</time></trkpt><trkpt lat="41.38558949563042" lon="13.971842406801695"><ele>202.25</ele><time>2026-04-12T13:27:41Z</time></trkpt><trkpt lat="41.38552898639377" lon="13.972014573964213"><ele>200.5</ele><time>2026-04-12T13:27:42Z</time></trkpt><trkpt lat="41.38547515377235" lon="13.972178579326458"><ele>198.75</ele><time>2026-04-12T13:27:43Z</time></trkpt><trkpt lat="41.38542644331773" lon="13.972329851228583"><ele>197.0</ele><time>2026-04-12T13:27:44Z</time></trkpt><trkpt lat="41.38538131674896" lon="13.972464091027732"><ele>196.8</ele><time>2026-04-12T13:27:45Z</time></trkpt><trkpt lat="41.38535642480309" lon="13.972566930690002"><ele>196.6</ele><time>2026-04-12T13:27:46Z</time></trkpt><trkpt lat="41.385305253399565" lon="13.972677232208566"><ele>196.4</ele><time>2026-04-12T13:27:48Z</time></trkpt><trkpt lat="41.3853880855588" lon="13.972823246322994"><ele>196.20000000000002</ele><time>2026-04-12T13:27:51Z</time></trkpt><trkpt lat="41.3854683737548" lon="13.972892848900191"><ele>196.0</ele><time>2026-04-12T13:27:52Z</time></trkpt><trkpt lat="41.38558123966591" lon="13.972974090798308"><ele>195.5</ele><time>2026-04-12T13:27:53Z</time></trkpt><trkpt lat="41.38566354293533" lon="13.973096544361015"><ele>195.0</ele><time>2026-04-12T13:27:54Z</time></trkpt><trkpt lat="41.385774959101454" lon="13.973201066113385"><ele>194.5</ele><time>2026-04-12T13:27:55Z</time></trkpt><trkpt lat="41.385839676290765" lon="13.973360358991055"><ele>194.0</ele><time>2026-04-12T13:27:56Z</time></trkpt><trkpt lat="41.385918178595325" lon="13.973524264207825"><ele>195.33333333333334</ele><time>2026-04-12T13:27:57Z</time></trkpt><trkpt lat="41.38602120439081" lon="13.973703826758124"><ele>196.66666666666669</ele><time>2026-04-12T13:27:58Z</time></trkpt><trkpt lat="41.38609808555629" lon="13.97389927880909"><ele>198.0</ele><time>2026-04-12T13:27:59Z</time></trkpt><trkpt lat="41.38618618970119" lon="13.974084135790134"><ele>199.0</ele><time>2026-04-12T13:28:00Z</time></trkpt><trkpt lat="41.38626787027079" lon="13.974255515057687"><ele>200.0</ele><time>2026-04-12T13:28:01Z</time></trkpt><trkpt lat="41.38634443009954" lon="13.97441464747234"><ele>201.0</ele><time>2026-04-12T13:28:02Z</time></trkpt><trkpt lat="41.38641915691374" lon="13.974564101106038"><ele>202.0</ele><time>2026-04-12T13:28:03Z</time></trkpt><trkpt lat="41.38649697608672" lon="13.9746805353515"><ele>201.75</ele><time>2026-04-12T13:28:04Z</time></trkpt><trkpt lat="41.38654321323203" lon="13.974813103176489"><ele>201.5</ele><time>2026-04-12T13:28:05Z</time></trkpt><trkpt lat="41.386617778655975" lon="13.974936136374446"><ele>201.25</ele><time>2026-04-12T13:28:06Z</time></trkpt><trkpt lat="41.386680904443494" lon="13.975080714923696"><ele>201.0</ele><time>2026-04-12T13:28:07Z</time></trkpt><trkpt lat="41.38677765932654" lon="13.975185835816449"><ele>201.0</ele><time>2026-04-12T13:28:08Z</time></trkpt><trkpt lat="41.386881514073465" lon="13.975285557619047"><ele>201.0</ele><time>2026-04-12T13:28:09Z</time></trkpt><trkpt lat="41.387008666355165" lon="13.975369438478333"><ele>201.0</ele><time>2026-04-12T13:28:10Z</time></trkpt><trkpt lat="41.38715207996046" lon="13.975387895019582"><ele>201.0</ele><time>2026-04-12T13:28:11Z</time></trkpt><trkpt lat="41.387307763413574" lon="13.97541156754301"><ele>200.5</ele><time>2026-04-12T13:28:12Z</time></trkpt><trkpt lat="41.38745472330766" lon="13.97542993370489"><ele>200.0</ele><time>2026-04-12T13:28:13Z</time></trkpt><trkpt lat="41.38760823286769" lon="13.975442178090487"><ele>199.5</ele><time>2026-04-12T13:28:14Z</time></trkpt><trkpt lat="41.38773502861925" lon="13.975454243664423"><ele>199.0</ele><time>2026-04-12T13:28:15Z</time></trkpt><trkpt lat="41.38787701620304" lon="13.975469717466353"><ele>198.66666666666666</ele><time>2026-04-12T13:28:16Z</time></trkpt><trkpt lat="41.38801858830391" lon="13.975485190887692"><ele>198.33333333333331</ele><time>2026-04-12T13:28:17Z</time></trkpt><trkpt lat="41.38818217632931" lon="13.975496785993508"><ele>198.0</ele><time>2026-04-12T13:28:18Z</time></trkpt><trkpt lat="41.38832455367947" lon="13.975523484887027"><ele>198.0</ele><time>2026-04-12T13:28:19Z</time></trkpt><trkpt lat="41.38844927805505" lon="13.975594471262816"><ele>198.0</ele><time>2026-04-12T13:28:20Z</time></trkpt><trkpt lat="41.388579257417646" lon="13.975652898358794"><ele>198.0</ele><time>2026-04-12T13:28:21Z</time></trkpt><trkpt lat="41.38871660121695" lon="13.975717254665273"><ele>198.0</ele><time>2026-04-12T13:28:22Z</time></trkpt><trkpt lat="41.388859162875384" lon="13.975777884054615"><ele>196.25</ele><time>2026-04-12T13:28:23Z</time></trkpt><trkpt lat="41.38900173529816" lon="13.975805368242009"><ele>194.5</ele><time>2026-04-12T13:28:24Z</time></trkpt><trkpt lat="41.38914212427408" lon="13.975844988535624"><ele>192.75</ele><time>2026-04-12T13:28:25Z</time></trkpt><trkpt lat="41.3892749599213" lon="13.975902449972027"><ele>191.0</ele><time>2026-04-12T13:28:26Z</time></trkpt><trkpt lat="41.38940175841527" lon="13.975935236669017"><ele>191.0</ele><time>2026-04-12T13:28:27Z</time></trkpt><trkpt lat="41.389540044645074" lon="13.975970993785545"><ele>191.0</ele><time>2026-04-12T13:28:28Z</time></trkpt><trkpt lat="41.38967660942891" lon="13.976007840039676"><ele>191.0</ele><time>2026-04-12T13:28:29Z</time></trkpt><trkpt lat="41.389820261280676" lon="13.976045414468611"><ele>191.0</ele><time>2026-04-12T13:28:30Z</time></trkpt><trkpt lat="41.38997697946908" lon="13.97606296388341"><ele>190.5</ele><time>2026-04-12T13:28:31Z</time></trkpt><trkpt lat="41.39011980196999" lon="13.976119370465966"><ele>190.0</ele><time>2026-04-12T13:28:32Z</time></trkpt><trkpt lat="41.3902503483261" lon="13.976149044853804"><ele>189.5</ele><time>2026-04-12T13:28:33Z</time></trkpt><trkpt lat="41.39038767452716" lon="13.97618764002195"><ele>189.0</ele><time>2026-04-12T13:28:34Z</time></trkpt><trkpt lat="41.39052415452302" lon="13.976216791368845"><ele>188.25</ele><time>2026-04-12T13:28:35Z</time></trkpt><trkpt lat="41.39065554591795" lon="13.97625914441079"><ele>187.5</ele><time>2026-04-12T13:28:36Z</time></trkpt><trkpt lat="41.390776761134106" lon="13.976282921705984"><ele>186.75</ele><time>2026-04-12T13:28:37Z</time></trkpt><trkpt lat="41.3908847942018" lon="13.97632500059294"><ele>186.0</ele><time>2026-04-12T13:28:38Z</time></trkpt><trkpt lat="41.39097586413752" lon="13.976376017956225"><ele>186.0</ele><time>2026-04-12T13:28:39Z</time></trkpt><trkpt lat="41.391063644822474" lon="13.976460230154743"><ele>186.0</ele><time>2026-04-12T13:28:40Z</time></trkpt><trkpt lat="41.39112842832067" lon="13.976566011571878"><ele>186.0</ele><time>2026-04-12T13:28:41Z</time></trkpt><trkpt lat="41.391186150472244" lon="13.9767185499253"><ele>186.0</ele><time>2026-04-12T13:28:42Z</time></trkpt><trkpt lat="41.391242031533835" lon="13.976867724480137"><ele>185.25</ele><time>2026-04-12T13:28:43Z</time></trkpt><trkpt lat="41.391300559456184" lon="13.9770271934291"><ele>184.5</ele><time>2026-04-12T13:28:44Z</time></trkpt><trkpt lat="41.391358672432915" lon="13.977185532129655"><ele>183.75</ele><time>2026-04-12T13:28:45Z</time></trkpt><trkpt lat="41.39140873107324" lon="13.977322410879761"><ele>183.0</ele><time>2026-04-12T13:28:46Z</time></trkpt><trkpt lat="41.391446189022425" lon="13.97743186155981"><ele>180.66666666666666</ele><time>2026-04-12T13:28:47Z</time></trkpt><trkpt lat="41.391468445280914" lon="13.977520824315416"><ele>178.33333333333334</ele><time>2026-04-12T13:28:48Z</time></trkpt><trkpt lat="41.39149182130416" lon="13.977621130757562"><ele>176.0</ele><time>2026-04-12T13:28:49Z</time></trkpt><trkpt lat="41.391511720791485" lon="13.977744898352958"><ele>173.66666666666669</ele><time>2026-04-12T13:28:50Z</time></trkpt><trkpt lat="41.3914972317331" lon="13.977856671366741"><ele>171.33333333333334</ele><time>2026-04-12T13:28:51Z</time></trkpt><trkpt lat="41.39140213223823" lon="13.977920143492975"><ele>169.0</ele><time>2026-04-12T13:28:52Z</time></trkpt><trkpt lat="41.39128738221745" lon="13.97795508498439"><ele>169.0</ele><time>2026-04-12T13:28:53Z</time></trkpt><trkpt lat="41.391175028789135" lon="13.978018269055458"><ele>169.0</ele><time>2026-04-12T13:28:54Z</time></trkpt><trkpt lat="41.391067115626115" lon="13.978075983358627"><ele>169.0</ele><time>2026-04-12T13:28:55Z</time></trkpt><trkpt lat="41.3909553999475" lon="13.978139142494312"><ele>169.0</ele><time>2026-04-12T13:28:56Z</time></trkpt><trkpt lat="41.39085709883405" lon="13.978180981020536"><ele>169.0</ele><time>2026-04-12T13:28:57Z</time></trkpt><trkpt lat="41.39076086381928" lon="13.978209431166054"><ele>169.0</ele><time>2026-04-12T13:28:58Z</time></trkpt><trkpt lat="41.39067508367704" lon="13.978252989980305"><ele>169.0</ele><time>2026-04-12T13:28:59Z</time></trkpt><trkpt lat="41.39059862412744" lon="13.978288689693292"><ele>169.0</ele><time>2026-04-12T13:29:00Z</time></trkpt><trkpt lat="41.39052557264289" lon="13.97832384112801"><ele>169.0</ele><time>2026-04-12T13:29:01Z</time></trkpt><trkpt lat="41.39043603547917" lon="13.978355398587397"><ele>169.0</ele><time>2026-04-12T13:29:03Z</time></trkpt><trkpt lat="41.39033630764988" lon="13.978376369419317"><ele>167.0</ele><time>2026-04-12T13:29:05Z</time></trkpt><trkpt lat="41.390192165125924" lon="13.978117262988937"><ele>165.0</ele><time>2026-04-12T13:29:06Z</time></trkpt><trkpt lat="41.390096394231335" lon="13.978028441319232"><ele>163.0</ele><time>2026-04-12T13:29:07Z</time></trkpt><trkpt lat="41.389997856026596" lon="13.977927551040972"><ele>163.0</ele><time>2026-04-12T13:29:08Z</time></trkpt><trkpt lat="41.38990143087541" lon="13.977837366781266"><ele>163.0</ele><time>2026-04-12T13:29:09Z</time></trkpt><trkpt lat="41.38980913161527" lon="13.977766185766741"><ele>163.0</ele><time>2026-04-12T13:29:10Z</time></trkpt><trkpt lat="41.38971788152082" lon="13.977714443940663"><ele>163.0</ele><time>2026-04-12T13:29:11Z</time></trkpt><trkpt lat="41.38961684800887" lon="13.97768030786382"><ele>163.0</ele><time>2026-04-12T13:29:12Z</time></trkpt><trkpt lat="41.38950454429267" lon="13.977658712696025"><ele>163.2</ele><time>2026-04-12T13:29:13Z</time></trkpt><trkpt lat="41.38940770479905" lon="13.97765635365624"><ele>163.4</ele><time>2026-04-12T13:29:14Z</time></trkpt><trkpt lat="41.38930259388654" lon="13.977661593577412"><ele>163.6</ele><time>2026-04-12T13:29:15Z</time></trkpt><trkpt lat="41.38918637501302" lon="13.977689440588097"><ele>163.79999999999998</ele><time>2026-04-12T13:29:16Z</time></trkpt><trkpt lat="41.38907597509728" lon="13.977727718968485"><ele>164.0</ele><time>2026-04-12T13:29:17Z</time></trkpt><trkpt lat="41.38898781899064" lon="13.977743122422392"><ele>164.0</ele><time>2026-04-12T13:29:18Z</time></trkpt><trkpt lat="41.38890805102797" lon="13.977724625685749"><ele>164.0</ele><time>2026-04-12T13:29:19Z</time></trkpt><trkpt lat="41.38881648746127" lon="13.977685321981243"><ele>164.0</ele><time>2026-04-12T13:29:20Z</time></trkpt><trkpt lat="41.388708000314026" lon="13.97764419720301"><ele>164.0</ele><time>2026-04-12T13:29:21Z</time></trkpt><trkpt lat="41.38859492912346" lon="13.977609516020454"><ele>164.0</ele><time>2026-04-12T13:29:22Z</time></trkpt><trkpt lat="41.388479570857896" lon="13.977586072055937"><ele>163.75</ele><time>2026-04-12T13:29:23Z</time></trkpt><trkpt lat="41.388355653235564" lon="13.9775854458488"><ele>163.5</ele><time>2026-04-12T13:29:24Z</time></trkpt><trkpt lat="41.38823179425696" lon="13.977585089896706"><ele>163.25</ele><time>2026-04-12T13:29:25Z</time></trkpt><trkpt lat="41.38812394797071" lon="13.97757912621972"><ele>163.0</ele><time>2026-04-12T13:29:26Z</time></trkpt><trkpt lat="41.38802337862345" lon="13.97759196469379"><ele>162.60000000000002</ele><time>2026-04-12T13:29:27Z</time></trkpt><trkpt lat="41.387925559298225" lon="13.977623018787623"><ele>162.20000000000002</ele><time>2026-04-12T13:29:28Z</time></trkpt><trkpt lat="41.387826292299735" lon="13.977667648322836"><ele>161.8</ele><time>2026-04-12T13:29:29Z</time></trkpt><trkpt lat="41.38773317590233" lon="13.97773605797682"><ele>161.4</ele><time>2026-04-12T13:29:30Z</time></trkpt><trkpt lat="41.38764704390532" lon="13.977827034570845"><ele>161.0</ele><time>2026-04-12T13:29:31Z</time></trkpt><trkpt lat="41.38756774040684" lon="13.977920270754133"><ele>161.0</ele><time>2026-04-12T13:29:32Z</time></trkpt><trkpt lat="41.38749487739566" lon="13.978012938526332"><ele>161.0</ele><time>2026-04-12T13:29:33Z</time></trkpt><trkpt lat="41.38742592868812" lon="13.978064950403562"><ele>161.0</ele><time>2026-04-12T13:29:34Z</time></trkpt><trkpt lat="41.38735889500411" lon="13.978097021333971"><ele>161.0</ele><time>2026-04-12T13:29:35Z</time></trkpt><trkpt lat="41.38728563280753" lon="13.978105499496445"><ele>161.0</ele><time>2026-04-12T13:29:36Z</time></trkpt><trkpt lat="41.3871737962323" lon="13.978095512676232"><ele>161.0</ele><time>2026-04-12T13:29:37Z</time></trkpt><trkpt lat="41.3870571807531" lon="13.978106674462989"><ele>161.20000000000002</ele><time>2026-04-12T13:29:38Z</time></trkpt><trkpt lat="41.38694740775171" lon="13.97812343790224"><ele>161.4</ele><time>2026-04-12T13:29:39Z</time></trkpt><trkpt lat="41.386849609454295" lon="13.978139326081584"><ele>161.6</ele><time>2026-04-12T13:29:40Z</time></trkpt><trkpt lat="41.38674060452154" lon="13.978181047813402"><ele>161.8</ele><time>2026-04-12T13:29:41Z</time></trkpt><trkpt lat="41.38664012222129" lon="13.978258780396406"><ele>162.0</ele><time>2026-04-12T13:29:42Z</time></trkpt><trkpt lat="41.38655346618737" lon="13.978324098365258"><ele>160.5</ele><time>2026-04-12T13:29:43Z</time></trkpt><trkpt lat="41.38647422557898" lon="13.978369331664672"><ele>159.0</ele><time>2026-04-12T13:29:44Z</time></trkpt><trkpt lat="41.38639137782141" lon="13.978398566554398"><ele>157.5</ele><time>2026-04-12T13:29:45Z</time></trkpt><trkpt lat="41.386308502635835" lon="13.978430071027947"><ele>156.0</ele><time>2026-04-12T13:29:46Z</time></trkpt><trkpt lat="41.38622919947933" lon="13.978463196562888"><ele>154.5</ele><time>2026-04-12T13:29:47Z</time></trkpt><trkpt lat="41.38616458189634" lon="13.978501975086091"><ele>153.0</ele><time>2026-04-12T13:29:48Z</time></trkpt><trkpt lat="41.386088919792975" lon="13.978551071823835"><ele>153.0</ele><time>2026-04-12T13:29:49Z</time></trkpt><trkpt lat="41.38602893122174" lon="13.978597115234992"><ele>153.0</ele><time>2026-04-12T13:29:50Z</time></trkpt><trkpt lat="41.38597594611098" lon="13.9787137149942"><ele>153.0</ele><time>2026-04-12T13:29:51Z</time></trkpt><trkpt lat="41.38593589302736" lon="13.978817024575681"><ele>153.0</ele><time>2026-04-12T13:29:52Z</time></trkpt><trkpt lat="41.38585812317222" lon="13.978881230810321"><ele>153.0</ele><time>2026-04-12T13:29:53Z</time></trkpt><trkpt lat="41.385803421815694" lon="13.978935435583235"><ele>153.0</ele><time>2026-04-12T13:29:54Z</time></trkpt><trkpt lat="41.38568693560828" lon="13.97899152823524"><ele>153.0</ele><time>2026-04-12T13:29:56Z</time></trkpt><trkpt lat="41.38562034407276" lon="13.979050598978306"><ele>153.0</ele><time>2026-04-12T13:29:57Z</time></trkpt><trkpt lat="41.38557318456162" lon="13.979152228208578"><ele>153.0</ele><time>2026-04-12T13:29:58Z</time></trkpt><trkpt lat="41.3855085048132" lon="13.979308711072829"><ele>153.0</ele><time>2026-04-12T13:30:00Z</time></trkpt><trkpt lat="41.38543392938798" lon="13.979382438185755"><ele>153.0</ele><time>2026-04-12T13:30:01Z</time></trkpt><trkpt lat="41.385309256796866" lon="13.979460623133573"><ele>150.6</ele><time>2026-04-12T13:30:02Z</time></trkpt><trkpt lat="41.38523885549943" lon="13.979496437456678"><ele>148.20000000000002</ele><time>2026-04-12T13:30:03Z</time></trkpt><trkpt lat="41.385138158908596" lon="13.979473479043646"><ele>145.8</ele><time>2026-04-12T13:30:04Z</time></trkpt><trkpt lat="41.3850268005119" lon="13.979464157078679"><ele>143.4</ele><time>2026-04-12T13:30:05Z</time></trkpt><trkpt lat="41.38487468607274" lon="13.979464611188327"><ele>141.0</ele><time>2026-04-12T13:30:06Z</time></trkpt><trkpt lat="41.38478670788724" lon="13.979482853083711"><ele>142.25</ele><time>2026-04-12T13:30:07Z</time></trkpt><trkpt lat="41.3846575678131" lon="13.979500257497135"><ele>143.5</ele><time>2026-04-12T13:30:08Z</time></trkpt><trkpt lat="41.38459387702795" lon="13.979498567056702"><ele>144.75</ele><time>2026-04-12T13:30:09Z</time></trkpt><trkpt lat="41.38453222543289" lon="13.979572510695178"><ele>146.0</ele><time>2026-04-12T13:30:10Z</time></trkpt><trkpt lat="41.3843588207484" lon="13.979454999526423"><ele>146.0</ele><time>2026-04-12T13:32:20Z</time></trkpt><trkpt lat="41.3842201742993" lon="13.979432669164114"><ele>146.0</ele><time>2026-04-12T13:32:31Z</time></trkpt><trkpt lat="41.38414014077397" lon="13.979396536153526"><ele>146.0</ele><time>2026-04-12T13:32:33Z</time></trkpt><trkpt lat="41.38393618539323" lon="13.97928947031902"><ele>146.0</ele><time>2026-04-12T13:32:40Z</time></trkpt><trkpt lat="41.38383982505549" lon="13.979389954147276"><ele>147.5</ele><time>2026-04-12T13:32:44Z</time></trkpt><trkpt lat="41.38375749478381" lon="13.979478130311943"><ele>149.0</ele><time>2026-04-12T13:32:45Z</time></trkpt><trkpt lat="41.38365508155646" lon="13.979521059368906"><ele>150.5</ele><time>2026-04-12T13:32:46Z</time></trkpt><trkpt lat="41.383585980074976" lon="13.979544445153806"><ele>152.0</ele><time>2026-04-12T13:32:47Z</time></trkpt><trkpt lat="41.383357139193414" lon="13.979503852670726"><ele>152.0</ele><time>2026-04-12T13:32:49Z</time></trkpt><trkpt lat="41.38318997591112" lon="13.979427947078548"><ele>152.0</ele><time>2026-04-12T13:32:50Z</time></trkpt><trkpt lat="41.38303045811375" lon="13.979351572016922"><ele>152.0</ele><time>2026-04-12T13:32:51Z</time></trkpt><trkpt lat="41.38289943416563" lon="13.979268515698887"><ele>153.0</ele><time>2026-04-12T13:32:52Z</time></trkpt><trkpt lat="41.38279523167148" lon="13.979188994386826"><ele>154.0</ele><time>2026-04-12T13:32:53Z</time></trkpt><trkpt lat="41.38273085265664" lon="13.97911254921634"><ele>155.0</ele><time>2026-04-12T13:32:54Z</time></trkpt><trkpt lat="41.38269426671654" lon="13.978981419688024"><ele>156.0</ele><time>2026-04-12T13:32:56Z</time></trkpt><trkpt lat="41.382676572871986" lon="13.9788084665192"><ele>157.0</ele><time>2026-04-12T13:32:57Z</time></trkpt><trkpt lat="41.38264866082135" lon="13.97866995642587"><ele>157.25</ele><time>2026-04-12T13:32:58Z</time></trkpt><trkpt lat="41.38259261637137" lon="13.978554633205679"><ele>157.5</ele><time>2026-04-12T13:32:59Z</time></trkpt><trkpt lat="41.382508197619636" lon="13.978419055703426"><ele>157.75</ele><time>2026-04-12T13:33:00Z</time></trkpt><trkpt lat="41.3824334892536" lon="13.978343734135274"><ele>158.0</ele><time>2026-04-12T13:33:01Z</time></trkpt><trkpt lat="41.382284972331576" lon="13.978310696823923"><ele>158.60000000000002</ele><time>2026-04-12T13:33:03Z</time></trkpt><trkpt lat="41.38219516158337" lon="13.978247214202673"><ele>159.20000000000002</ele><time>2026-04-12T13:33:04Z</time></trkpt><trkpt lat="41.382089956196374" lon="13.9781286175376"><ele>159.8</ele><time>2026-04-12T13:33:05Z</time></trkpt><trkpt lat="41.3819772958048" lon="13.978017941006422"><ele>160.4</ele><time>2026-04-12T13:33:06Z</time></trkpt><trkpt lat="41.38191192322518" lon="13.97799022711503"><ele>161.0</ele><time>2026-04-12T13:33:07Z</time></trkpt><trkpt lat="41.38182449328203" lon="13.978130468763139"><ele>160.60000000000002</ele><time>2026-04-12T13:33:09Z</time></trkpt><trkpt lat="41.381770634894494" lon="13.978254260745157"><ele>160.20000000000002</ele><time>2026-04-12T13:33:10Z</time></trkpt><trkpt lat="41.381713691913575" lon="13.978348383149298"><ele>159.8</ele><time>2026-04-12T13:33:11Z</time></trkpt><trkpt lat="41.38162993010419" lon="13.978462344455062"><ele>159.4</ele><time>2026-04-12T13:33:12Z</time></trkpt><trkpt lat="41.3815559315279" lon="13.978600744079996"><ele>159.0</ele><time>2026-04-12T13:33:13Z</time></trkpt><trkpt lat="41.38150542605186" lon="13.978706948651148"><ele>159.0</ele><time>2026-04-12T13:33:14Z</time></trkpt><trkpt lat="41.38144667759625" lon="13.978785220879278"><ele>159.0</ele><time>2026-04-12T13:33:16Z</time></trkpt><trkpt lat="41.381369645265416" lon="13.978806088999045"><ele>159.0</ele><time>2026-04-12T13:33:17Z</time></trkpt><trkpt lat="41.38128305292209" lon="13.978815114668725"><ele>159.0</ele><time>2026-04-12T13:33:18Z</time></trkpt><trkpt lat="41.381167050056305" lon="13.978866236240853"><ele>159.0</ele><time>2026-04-12T13:33:19Z</time></trkpt><trkpt lat="41.38109389122223" lon="13.978888119164868"><ele>159.0</ele><time>2026-04-12T13:33:20Z</time></trkpt><trkpt lat="41.380989529384706" lon="13.978838038799225"><ele>160.2</ele><time>2026-04-12T13:33:22Z</time></trkpt><trkpt lat="41.3808722575296" lon="13.978893655917666"><ele>161.4</ele><time>2026-04-12T13:33:24Z</time></trkpt><trkpt lat="41.380785781580244" lon="13.978900271157151"><ele>162.6</ele><time>2026-04-12T13:33:25Z</time></trkpt><trkpt lat="41.3807014233333" lon="13.97886107275333"><ele>163.8</ele><time>2026-04-12T13:33:26Z</time></trkpt><trkpt lat="41.38062535425186" lon="13.97884340835731"><ele>165.0</ele><time>2026-04-12T13:33:27Z</time></trkpt><trkpt lat="41.38055799906591" lon="13.978882560433247"><ele>165.25</ele><time>2026-04-12T13:33:28Z</time></trkpt><trkpt lat="41.380482830394016" lon="13.978982012183632"><ele>165.5</ele><time>2026-04-12T13:33:30Z</time></trkpt><trkpt lat="41.38033818434386" lon="13.978996102796373"><ele>165.75</ele><time>2026-04-12T13:33:32Z</time></trkpt><trkpt lat="41.38024577347525" lon="13.979100345744985"><ele>166.0</ele><time>2026-04-12T13:33:34Z</time></trkpt><trkpt lat="41.38016599074021" lon="13.979204069841025"><ele>166.0</ele><time>2026-04-12T13:33:36Z</time></trkpt><trkpt lat="41.38011561806359" lon="13.97926807245977"><ele>166.0</ele><time>2026-04-12T13:33:40Z</time></trkpt><trkpt lat="41.3800821916113" lon="13.979360228714963"><ele>166.0</ele><time>2026-04-12T13:33:43Z</time></trkpt><trkpt lat="41.38002171725411" lon="13.979336282909088"><ele>166.0</ele><time>2026-04-12T13:33:45Z</time></trkpt><trkpt lat="41.37991994123937" lon="13.979277930854437"><ele>166.0</ele><time>2026-04-12T13:33:46Z</time></trkpt><trkpt lat="41.37985531196537" lon="13.97929703629763"><ele>166.0</ele><time>2026-04-12T13:33:47Z</time></trkpt><trkpt lat="41.379759677973176" lon="13.979320455325013"><ele>166.0</ele><time>2026-04-12T13:33:48Z</time></trkpt><trkpt lat="41.379663181967295" lon="13.979331616666894"><ele>166.0</ele><time>2026-04-12T13:33:49Z</time></trkpt><trkpt lat="41.37917047070598" lon="13.979324611902843"><ele>166.0</ele><time>2026-04-12T13:33:50Z</time></trkpt><trkpt lat="41.379039376996126" lon="13.97928550204853"><ele>166.0</ele><time>2026-04-12T13:33:51Z</time></trkpt><trkpt lat="41.37896333448297" lon="13.979274640846175"><ele>166.0</ele><time>2026-04-12T13:33:52Z</time></trkpt><trkpt lat="41.37897861370462" lon="13.979413180296698"><ele>166.0</ele><time>2026-04-12T13:33:54Z</time></trkpt><trkpt lat="41.379002689165006" lon="13.9795566795801"><ele>166.0</ele><time>2026-04-12T13:33:55Z</time></trkpt><trkpt lat="41.37887859276314" lon="13.979583476793538"><ele>166.8</ele><time>2026-04-12T13:33:57Z</time></trkpt><trkpt lat="41.37874009907792" lon="13.97957888251219"><ele>167.60000000000002</ele><time>2026-04-12T13:33:58Z</time></trkpt><trkpt lat="41.378669206529736" lon="13.979558526603034"><ele>168.4</ele><time>2026-04-12T13:34:01Z</time></trkpt><trkpt lat="41.378674048755585" lon="13.97945583044561"><ele>169.2</ele><time>2026-04-12T13:34:02Z</time></trkpt><trkpt lat="41.3786515789794" lon="13.979319944406987"><ele>170.0</ele><time>2026-04-12T13:34:04Z</time></trkpt><trkpt lat="41.378547860886336" lon="13.979261596553682"><ele>170.0</ele><time>2026-04-12T13:34:06Z</time></trkpt><trkpt lat="41.37819598728265" lon="13.979271608251508"><ele>170.0</ele><time>2026-04-12T13:34:07Z</time></trkpt><trkpt lat="41.378085249801394" lon="13.979263755372523"><ele>170.0</ele><time>2026-04-12T13:34:08Z</time></trkpt><trkpt lat="41.37801913750521" lon="13.97930406103677"><ele>170.0</ele><time>2026-04-12T13:34:13Z</time></trkpt><trkpt lat="41.37791415436107" lon="13.979246491977035"><ele>170.0</ele><time>2026-04-12T13:34:15Z</time></trkpt><trkpt lat="41.3777645514089" lon="13.979183456867965"><ele>170.0</ele><time>2026-04-12T13:34:16Z</time></trkpt><trkpt lat="41.377623538485594" lon="13.979129374883977"><ele>170.5</ele><time>2026-04-12T13:34:17Z</time></trkpt><trkpt lat="41.377482623837544" lon="13.979050804678527"><ele>171.0</ele><time>2026-04-12T13:34:18Z</time></trkpt><trkpt lat="41.377347324952034" lon="13.978981975936449"><ele>171.5</ele><time>2026-04-12T13:34:19Z</time></trkpt><trkpt lat="41.37724548032647" lon="13.978933576186094"><ele>172.0</ele><time>2026-04-12T13:34:20Z</time></trkpt><trkpt lat="41.37716227491519" lon="13.978820649874988"><ele>172.39999999999998</ele><time>2026-04-12T13:34:21Z</time></trkpt><trkpt lat="41.37710181745773" lon="13.97871714072718"><ele>172.79999999999998</ele><time>2026-04-12T13:34:22Z</time></trkpt><trkpt lat="41.37701886588042" lon="13.978670176761428"><ele>173.2</ele><time>2026-04-12T13:34:24Z</time></trkpt><trkpt lat="41.37692454618064" lon="13.978739994903156"><ele>173.6</ele><time>2026-04-12T13:34:26Z</time></trkpt><trkpt lat="41.37681837685519" lon="13.97872573178304"><ele>174.0</ele><time>2026-04-12T13:34:27Z</time></trkpt><trkpt lat="41.37671480120672" lon="13.978722169903346"><ele>174.0</ele><time>2026-04-12T13:34:28Z</time></trkpt><trkpt lat="41.376627545081064" lon="13.978757677612002"><ele>174.0</ele><time>2026-04-12T13:34:30Z</time></trkpt><trkpt lat="41.376705791689574" lon="13.978852984217928"><ele>174.0</ele><time>2026-04-12T13:34:34Z</time></trkpt><trkpt lat="41.376814088001815" lon="13.978841117916437"><ele>174.0</ele><time>2026-04-12T13:34:36Z</time></trkpt><trkpt lat="41.376789182704094" lon="13.978930553048622"><ele>174.0</ele><time>2026-04-12T13:34:39Z</time></trkpt><trkpt lat="41.37671572924939" lon="13.979013873800165"><ele>174.0</ele><time>2026-04-12T13:34:41Z</time></trkpt><trkpt lat="41.37664402081998" lon="13.978965043207005"><ele>174.0</ele><time>2026-04-12T13:34:43Z</time></trkpt><trkpt lat="41.37654918566263" lon="13.978873571201715"><ele>174.0</ele><time>2026-04-12T13:34:45Z</time></trkpt><trkpt lat="41.37648804271934" lon="13.978894813231173"><ele>174.0</ele><time>2026-04-12T13:34:49Z</time></trkpt><trkpt lat="41.376408491043414" lon="13.978872745700786"><ele>174.0</ele><time>2026-04-12T13:34:52Z</time></trkpt><trkpt lat="41.37632561738029" lon="13.97892588741162"><ele>174.0</ele><time>2026-04-12T13:34:54Z</time></trkpt><trkpt lat="41.37631385156362" lon="13.979024639179102"><ele>176.71428571428572</ele><time>2026-04-12T13:34:56Z</time></trkpt><trkpt lat="41.37628114222742" lon="13.979099940635022"><ele>179.42857142857144</ele><time>2026-04-12T13:34:57Z</time></trkpt><trkpt lat="41.37622466117588" lon="13.979055285757795"><ele>182.14285714285717</ele><time>2026-04-12T13:34:59Z</time></trkpt><trkpt lat="41.37615148880882" lon="13.979002374211575"><ele>184.85714285714286</ele><time>2026-04-12T13:35:02Z</time></trkpt><trkpt lat="41.376090053416306" lon="13.978980660859227"><ele>187.57142857142858</ele><time>2026-04-12T13:35:03Z</time></trkpt><trkpt lat="41.376018247025655" lon="13.979005175685867"><ele>190.2857142857143</ele><time>2026-04-12T13:35:05Z</time></trkpt><trkpt lat="41.37595421050899" lon="13.97906382992568"><ele>193.0</ele><time>2026-04-12T13:35:07Z</time></trkpt><trkpt lat="41.37589036952973" lon="13.979098243987211"><ele>196.0</ele><time>2026-04-12T13:35:10Z</time></trkpt><trkpt lat="41.37582265087153" lon="13.979228238095837"><ele>199.0</ele><time>2026-04-12T13:35:13Z</time></trkpt><trkpt lat="41.375861436485906" lon="13.979393542698848"><ele>202.0</ele><time>2026-04-12T13:35:14Z</time></trkpt><trkpt lat="41.37599076237026" lon="13.979522307703148"><ele>205.0</ele><time>2026-04-12T13:35:16Z</time></trkpt><trkpt lat="41.3760702570425" lon="13.979580568429249"><ele>204.99999999999997</ele><time>2026-04-12T13:35:18Z</time></trkpt><trkpt lat="41.37616086164316" lon="13.979634828997996"><ele>205.0</ele><time>2026-04-12T13:35:20Z</time></trkpt><trkpt lat="41.376183563799984" lon="13.979720586901264"><ele>205.0</ele><time>2026-04-12T13:35:24Z</time></trkpt><trkpt lat="41.37621366921746" lon="13.97985174961906"><ele>205.0</ele><time>2026-04-12T13:35:26Z</time></trkpt><trkpt lat="41.37627494190946" lon="13.979884972741301"><ele>204.99999999999997</ele><time>2026-04-12T13:35:27Z</time></trkpt><trkpt lat="41.37632476683724" lon="13.98001667079862"><ele>205.0</ele><time>2026-04-12T13:35:29Z</time></trkpt><trkpt lat="41.376443720341136" lon="13.980120239832296"><ele>203.8</ele><time>2026-04-12T13:35:31Z</time></trkpt><trkpt lat="41.37650014103956" lon="13.980187246519678"><ele>202.6</ele><time>2026-04-12T13:35:32Z</time></trkpt><trkpt lat="41.37659230206905" lon="13.980249691080912"><ele>201.39999999999998</ele><time>2026-04-12T13:35:33Z</time></trkpt><trkpt lat="41.37671207532457" lon="13.980292777919718"><ele>200.2</ele><time>2026-04-12T13:35:34Z</time></trkpt><trkpt lat="41.376802986377974" lon="13.980340900941309"><ele>199.0</ele><time>2026-04-12T13:35:35Z</time></trkpt><trkpt lat="41.37695607740542" lon="13.980345416595561"><ele>199.0</ele><time>2026-04-12T13:35:37Z</time></trkpt><trkpt lat="41.37709237561325" lon="13.980394376545826"><ele>199.0</ele><time>2026-04-12T13:35:38Z</time></trkpt><trkpt lat="41.37718650614213" lon="13.980438244778474"><ele>199.0</ele><time>2026-04-12T13:35:39Z</time></trkpt><trkpt lat="41.37728566361354" lon="13.9805064633637"><ele>199.0</ele><time>2026-04-12T13:35:40Z</time></trkpt><trkpt lat="41.37737612489893" lon="13.98058875795126"><ele>199.0</ele><time>2026-04-12T13:35:41Z</time></trkpt><trkpt lat="41.37739872815915" lon="13.980670591321958"><ele>199.0</ele><time>2026-04-12T13:35:43Z</time></trkpt><trkpt lat="41.37731484086347" lon="13.980686303831176"><ele>199.0</ele><time>2026-04-12T13:35:47Z</time></trkpt><trkpt lat="41.3770478773404" lon="13.980783507717089"><ele>199.0</ele><time>2026-04-12T13:35:52Z</time></trkpt><trkpt lat="41.376965439546176" lon="13.98076739661489"><ele>198.99999999999997</ele><time>2026-04-12T13:35:53Z</time></trkpt><trkpt lat="41.376899447648654" lon="13.980722654023845"><ele>199.0</ele><time>2026-04-12T13:35:54Z</time></trkpt><trkpt lat="41.37686515075363" lon="13.980646393267468"><ele>199.0</ele><time>2026-04-12T13:35:55Z</time></trkpt><trkpt lat="41.376801895688416" lon="13.980619152067623"><ele>199.0</ele><time>2026-04-12T13:35:56Z</time></trkpt><trkpt lat="41.37673068526126" lon="13.980595018727515"><ele>198.99999999999997</ele><time>2026-04-12T13:35:57Z</time></trkpt><trkpt lat="41.37658709285642" lon="13.980550829471039"><ele>199.0</ele><time>2026-04-12T13:35:58Z</time></trkpt><trkpt lat="41.376516375055424" lon="13.980449487861087"><ele>199.0</ele><time>2026-04-12T13:35:59Z</time></trkpt><trkpt lat="41.376387115812065" lon="13.98040153288546"><ele>199.0</ele><time>2026-04-12T13:36:00Z</time></trkpt><trkpt lat="41.37627072404781" lon="13.980387734385255"><ele>199.0</ele><time>2026-04-12T13:36:01Z</time></trkpt><trkpt lat="41.37615627229012" lon="13.980385108423889"><ele>199.0</ele><time>2026-04-12T13:36:02Z</time></trkpt><trkpt lat="41.3760917292028" lon="13.980369398663367"><ele>199.0</ele><time>2026-04-12T13:36:04Z</time></trkpt><trkpt lat="41.37601888913879" lon="13.980266779685085"><ele>200.25</ele><time>2026-04-12T13:36:06Z</time></trkpt><trkpt lat="41.3759409974704" lon="13.980117768009949"><ele>201.5</ele><time>2026-04-12T13:36:07Z</time></trkpt><trkpt lat="41.37584465096326" lon="13.979993167386635"><ele>202.75</ele><time>2026-04-12T13:36:08Z</time></trkpt><trkpt lat="41.37576604594217" lon="13.979906314540095"><ele>204.0</ele><time>2026-04-12T13:36:09Z</time></trkpt><trkpt lat="41.37564105564393" lon="13.979852265388443"><ele>204.2</ele><time>2026-04-12T13:36:11Z</time></trkpt><trkpt lat="41.37557064892084" lon="13.979857093874983"><ele>204.39999999999998</ele><time>2026-04-12T13:36:12Z</time></trkpt><trkpt lat="41.375432970801704" lon="13.97986558062081"><ele>204.6</ele><time>2026-04-12T13:36:13Z</time></trkpt><trkpt lat="41.3753480604561" lon="13.979878860239111"><ele>204.8</ele><time>2026-04-12T13:36:15Z</time></trkpt><trkpt lat="41.37525687688895" lon="13.979912468969912"><ele>205.0</ele><time>2026-04-12T13:36:16Z</time></trkpt><trkpt lat="41.37514717686412" lon="13.979936520793494"><ele>205.8</ele><time>2026-04-12T13:36:17Z</time></trkpt><trkpt lat="41.37506974434262" lon="13.979950168915254"><ele>206.6</ele><time>2026-04-12T13:36:18Z</time></trkpt><trkpt lat="41.37519698947409" lon="13.980036447243831"><ele>207.39999999999998</ele><time>2026-04-12T13:36:22Z</time></trkpt><trkpt lat="41.37526443088755" lon="13.980098193722238"><ele>208.2</ele><time>2026-04-12T13:36:23Z</time></trkpt><trkpt lat="41.37534390165248" lon="13.980125902403802"><ele>209.0</ele><time>2026-04-12T13:36:24Z</time></trkpt><trkpt lat="41.37544165923162" lon="13.980105259125281"><ele>208.16666666666669</ele><time>2026-04-12T13:36:25Z</time></trkpt><trkpt lat="41.37552324430978" lon="13.980118555100082"><ele>207.33333333333334</ele><time>2026-04-12T13:36:26Z</time></trkpt><trkpt lat="41.375599399645594" lon="13.980157816763613"><ele>206.5</ele><time>2026-04-12T13:36:27Z</time></trkpt><trkpt lat="41.37569133617137" lon="13.980207673424928"><ele>205.66666666666669</ele><time>2026-04-12T13:36:28Z</time></trkpt><trkpt lat="41.37574999968615" lon="13.98024994016684"><ele>204.83333333333334</ele><time>2026-04-12T13:36:29Z</time></trkpt><trkpt lat="41.375791073505994" lon="13.980345948211603"><ele>204.0</ele><time>2026-04-12T13:36:31Z</time></trkpt><trkpt lat="41.37573144049352" lon="13.980520086334577"><ele>204.0</ele><time>2026-04-12T13:36:33Z</time></trkpt><trkpt lat="41.37569070301728" lon="13.980595997253353"><ele>204.0</ele><time>2026-04-12T13:36:34Z</time></trkpt><trkpt lat="41.37569451734739" lon="13.980718209304172"><ele>204.0</ele><time>2026-04-12T13:36:36Z</time></trkpt><trkpt lat="41.37581523132353" lon="13.9808166662562"><ele>204.0</ele><time>2026-04-12T13:36:38Z</time></trkpt><trkpt lat="41.375915791200654" lon="13.98084091934601"><ele>204.0</ele><time>2026-04-12T13:36:39Z</time></trkpt><trkpt lat="41.37600945009382" lon="13.980831194309138"><ele>203.0</ele><time>2026-04-12T13:36:41Z</time></trkpt><trkpt lat="41.37613719105752" lon="13.980892673545487"><ele>202.0</ele><time>2026-04-12T13:36:43Z</time></trkpt><trkpt lat="41.376187990084674" lon="13.980943189373555"><ele>201.0</ele><time>2026-04-12T13:36:44Z</time></trkpt><trkpt lat="41.3763237863884" lon="13.980999763775117"><ele>200.0</ele><time>2026-04-12T13:36:45Z</time></trkpt><trkpt lat="41.376403737160636" lon="13.98102560570785"><ele>199.0</ele><time>2026-04-12T13:36:46Z</time></trkpt><trkpt lat="41.3764682752806" lon="13.981071731163556"><ele>197.25</ele><time>2026-04-12T13:36:47Z</time></trkpt><trkpt lat="41.37650324910834" lon="13.981196951661662"><ele>195.5</ele><time>2026-04-12T13:36:48Z</time></trkpt><trkpt lat="41.37655771330842" lon="13.98131657604499"><ele>193.75</ele><time>2026-04-12T13:36:49Z</time></trkpt><trkpt lat="41.37665424732581" lon="13.981452401973042"><ele>192.0</ele><time>2026-04-12T13:36:50Z</time></trkpt><trkpt lat="41.37679652785041" lon="13.981575302185945"><ele>189.0</ele><time>2026-04-12T13:36:51Z</time></trkpt><trkpt lat="41.37691889764006" lon="13.981688998261962"><ele>186.0</ele><time>2026-04-12T13:36:52Z</time></trkpt><trkpt lat="41.37699806083222" lon="13.981778133652394"><ele>183.0</ele><time>2026-04-12T13:36:53Z</time></trkpt><trkpt lat="41.37707746258149" lon="13.981882558690575"><ele>180.0</ele><time>2026-04-12T13:36:54Z</time></trkpt><trkpt lat="41.3771530628064" lon="13.981976799904176"><ele>180.4</ele><time>2026-04-12T13:36:55Z</time></trkpt><trkpt lat="41.37723861937306" lon="13.982066345383616"><ele>180.8</ele><time>2026-04-12T13:36:56Z</time></trkpt><trkpt lat="41.37732555163315" lon="13.98212944129952"><ele>181.2</ele><time>2026-04-12T13:36:57Z</time></trkpt><trkpt lat="41.377394483715186" lon="13.982173874020434"><ele>181.6</ele><time>2026-04-12T13:36:58Z</time></trkpt><trkpt lat="41.377455942729654" lon="13.982210231408702"><ele>182.0</ele><time>2026-04-12T13:36:59Z</time></trkpt><trkpt lat="41.3774987499083" lon="13.982372984889722"><ele>182.0</ele><time>2026-04-12T13:37:01Z</time></trkpt><trkpt lat="41.37752538614747" lon="13.982500151450383"><ele>182.0</ele><time>2026-04-12T13:37:02Z</time></trkpt><trkpt lat="41.37755592326774" lon="13.982595746026439"><ele>182.0</ele><time>2026-04-12T13:37:03Z</time></trkpt><trkpt lat="41.377584027814855" lon="13.982680335436756"><ele>182.0</ele><time>2026-04-12T13:37:04Z</time></trkpt><trkpt lat="41.377682839140654" lon="13.98278922425118"><ele>182.0</ele><time>2026-04-12T13:37:06Z</time></trkpt><trkpt lat="41.377744022864825" lon="13.982856069725171"><ele>181.16666666666666</ele><time>2026-04-12T13:37:07Z</time></trkpt><trkpt lat="41.37779764448752" lon="13.982931507035099"><ele>180.33333333333331</ele><time>2026-04-12T13:37:08Z</time></trkpt><trkpt lat="41.37789395799676" lon="13.983012451884571"><ele>179.5</ele><time>2026-04-12T13:37:10Z</time></trkpt><trkpt lat="41.37796627970061" lon="13.983021273581054"><ele>178.66666666666666</ele><time>2026-04-12T13:37:11Z</time></trkpt><trkpt lat="41.37804399851044" lon="13.983043784532732"><ele>177.83333333333334</ele><time>2026-04-12T13:37:12Z</time></trkpt><trkpt lat="41.378116280411334" lon="13.983064205318831"><ele>177.0</ele><time>2026-04-12T13:37:13Z</time></trkpt><trkpt lat="41.3782085855025" lon="13.98312354122995"><ele>177.0</ele><time>2026-04-12T13:37:15Z</time></trkpt><trkpt lat="41.37833114307239" lon="13.983107863923394"><ele>177.0</ele><time>2026-04-12T13:37:18Z</time></trkpt><trkpt lat="41.37839532096841" lon="13.9831011155912"><ele>177.0</ele><time>2026-04-12T13:37:19Z</time></trkpt><trkpt lat="41.378467199025884" lon="13.983053226235644"><ele>177.0</ele><time>2026-04-12T13:37:21Z</time></trkpt><trkpt lat="41.37852904961057" lon="13.983031114819932"><ele>177.0</ele><time>2026-04-12T13:37:24Z</time></trkpt><trkpt lat="41.37865285674783" lon="13.983051565828648"><ele>177.0</ele><time>2026-04-12T13:37:27Z</time></trkpt><trkpt lat="41.378784191852645" lon="13.983105510611828"><ele>177.0</ele><time>2026-04-12T13:37:32Z</time></trkpt><trkpt lat="41.378936280509095" lon="13.983169957845174"><ele>177.0</ele><time>2026-04-12T13:37:33Z</time></trkpt><trkpt lat="41.37913578598619" lon="13.983177255191542"><ele>175.66666666666666</ele><time>2026-04-12T13:37:34Z</time></trkpt><trkpt lat="41.379304765062585" lon="13.983204545171795"><ele>174.33333333333331</ele><time>2026-04-12T13:37:35Z</time></trkpt><trkpt lat="41.37943793656804" lon="13.98322218386436"><ele>173.0</ele><time>2026-04-12T13:37:36Z</time></trkpt><trkpt lat="41.37968269046796" lon="13.983269519915872"><ele>173.2</ele><time>2026-04-12T13:37:39Z</time></trkpt><trkpt lat="41.37980073309189" lon="13.983296208603427"><ele>173.4</ele><time>2026-04-12T13:37:40Z</time></trkpt><trkpt lat="41.3798928455423" lon="13.98334063205629"><ele>173.6</ele><time>2026-04-12T13:37:41Z</time></trkpt><trkpt lat="41.379957532439064" lon="13.983399801288249"><ele>173.79999999999998</ele><time>2026-04-12T13:37:42Z</time></trkpt><trkpt lat="41.3800243024272" lon="13.98345596346713"><ele>174.0</ele><time>2026-04-12T13:37:43Z</time></trkpt><trkpt lat="41.38012283756999" lon="13.983530318532619"><ele>176.79999999999998</ele><time>2026-04-12T13:37:44Z</time></trkpt><trkpt lat="41.38022121680881" lon="13.983582256107473"><ele>179.6</ele><time>2026-04-12T13:37:45Z</time></trkpt><trkpt lat="41.38033042459532" lon="13.9836402612459"><ele>182.4</ele><time>2026-04-12T13:37:46Z</time></trkpt><trkpt lat="41.380423201800724" lon="13.983683096141228"><ele>185.2</ele><time>2026-04-12T13:37:47Z</time></trkpt><trkpt lat="41.38052025287264" lon="13.983754066088247"><ele>188.0</ele><time>2026-04-12T13:37:48Z</time></trkpt><trkpt lat="41.38061270265646" lon="13.98382987213809"><ele>188.0</ele><time>2026-04-12T13:37:49Z</time></trkpt><trkpt lat="41.38067852809364" lon="13.983880811083402"><ele>188.0</ele><time>2026-04-12T13:37:50Z</time></trkpt><trkpt lat="41.38072801753809" lon="13.983937778968635"><ele>188.0</ele><time>2026-04-12T13:37:51Z</time></trkpt><trkpt lat="41.38079782877304" lon="13.984010620299046"><ele>188.0</ele><time>2026-04-12T13:37:53Z</time></trkpt><trkpt lat="41.38089132816309" lon="13.984072509119734"><ele>188.0</ele><time>2026-04-12T13:37:55Z</time></trkpt><trkpt lat="41.38094016063819" lon="13.984143185066225"><ele>188.0</ele><time>2026-04-12T13:37:57Z</time></trkpt><trkpt lat="41.38099415539418" lon="13.984238048024956"><ele>189.0</ele><time>2026-04-12T13:37:58Z</time></trkpt><trkpt lat="41.38105796917074" lon="13.984259622268446"><ele>190.0</ele><time>2026-04-12T13:38:00Z</time></trkpt><trkpt lat="41.38109432103025" lon="13.984333255990892"><ele>191.0</ele><time>2026-04-12T13:38:02Z</time></trkpt><trkpt lat="41.38115469161833" lon="13.984378164784951"><ele>192.0</ele><time>2026-04-12T13:38:05Z</time></trkpt><trkpt lat="41.381197173888545" lon="13.984444987632802"><ele>193.0</ele><time>2026-04-12T13:38:07Z</time></trkpt><trkpt lat="41.3812487630644" lon="13.984493873172752"><ele>194.0</ele><time>2026-04-12T13:38:09Z</time></trkpt><trkpt lat="41.38131713588733" lon="13.984535927328873"><ele>195.0</ele><time>2026-04-12T13:38:11Z</time></trkpt><trkpt lat="41.38147309067226" lon="13.984552887470382"><ele>195.0</ele><time>2026-04-12T13:38:15Z</time></trkpt><trkpt lat="41.38153002238531" lon="13.98461199205329"><ele>195.0</ele><time>2026-04-12T13:38:16Z</time></trkpt><trkpt lat="41.3816048823911" lon="13.984625268065527"><ele>195.0</ele><time>2026-04-12T13:38:17Z</time></trkpt><trkpt lat="41.38175224955169" lon="13.984689417001238"><ele>195.0</ele><time>2026-04-12T13:38:19Z</time></trkpt><trkpt lat="41.3818661370935" lon="13.984740746010463"><ele>195.0</ele><time>2026-04-12T13:38:20Z</time></trkpt><trkpt lat="41.38200135771349" lon="13.98484822844449"><ele>195.0</ele><time>2026-04-12T13:38:21Z</time></trkpt><trkpt lat="41.38208877445871" lon="13.98498120638741"><ele>195.0</ele><time>2026-04-12T13:38:22Z</time></trkpt><trkpt lat="41.38223724273522" lon="13.98514697657292"><ele>195.0</ele><time>2026-04-12T13:38:24Z</time></trkpt><trkpt lat="41.382383103697656" lon="13.985311271768"><ele>196.2</ele><time>2026-04-12T13:38:25Z</time></trkpt><trkpt lat="41.38246611998234" lon="13.985389983523328"><ele>197.4</ele><time>2026-04-12T13:38:26Z</time></trkpt><trkpt lat="41.38254639936486" lon="13.985474230058529"><ele>198.60000000000002</ele><time>2026-04-12T13:38:27Z</time></trkpt><trkpt lat="41.382653291679716" lon="13.985573386511604"><ele>199.8</ele><time>2026-04-12T13:38:28Z</time></trkpt><trkpt lat="41.38272732801207" lon="13.985663969440777"><ele>201.0</ele><time>2026-04-12T13:38:29Z</time></trkpt><trkpt lat="41.38277866186234" lon="13.985723595279662"><ele>201.0</ele><time>2026-04-12T13:38:30Z</time></trkpt><trkpt lat="41.382867293045194" lon="13.98581272318692"><ele>201.0</ele><time>2026-04-12T13:38:50Z</time></trkpt><trkpt lat="41.38293497306508" lon="13.985889178468444"><ele>201.0</ele><time>2026-04-12T13:45:03Z</time></trkpt><trkpt lat="41.38304311244255" lon="13.985970007092343"><ele>201.0</ele><time>2026-04-12T13:45:05Z</time></trkpt><trkpt lat="41.38314312641177" lon="13.985993579695432"><ele>201.0</ele><time>2026-04-12T13:45:07Z</time></trkpt><trkpt lat="41.38319209638398" lon="13.986075726762019"><ele>200.83333333333334</ele><time>2026-04-12T13:45:08Z</time></trkpt><trkpt lat="41.383253308560924" lon="13.986148531725018"><ele>200.66666666666669</ele><time>2026-04-12T13:45:09Z</time></trkpt><trkpt lat="41.38328615619497" lon="13.986226991361656"><ele>200.5</ele><time>2026-04-12T13:45:10Z</time></trkpt><trkpt lat="41.38333788166751" lon="13.986288896299826"><ele>200.33333333333334</ele><time>2026-04-12T13:45:11Z</time></trkpt><trkpt lat="41.38340816575178" lon="13.986369223037377"><ele>200.16666666666669</ele><time>2026-04-12T13:45:12Z</time></trkpt><trkpt lat="41.38347020292664" lon="13.986467998200963"><ele>200.0</ele><time>2026-04-12T13:45:13Z</time></trkpt><trkpt lat="41.383550083772576" lon="13.986578244484102"><ele>200.0</ele><time>2026-04-12T13:45:14Z</time></trkpt><trkpt lat="41.38359482204927" lon="13.986671044438594"><ele>200.0</ele><time>2026-04-12T13:45:15Z</time></trkpt><trkpt lat="41.383655586874184" lon="13.986743875545603"><ele>200.0</ele><time>2026-04-12T13:45:16Z</time></trkpt><trkpt lat="41.38375352097144" lon="13.986787407405323"><ele>200.0</ele><time>2026-04-12T13:45:18Z</time></trkpt><trkpt lat="41.38377252203887" lon="13.986885438821684"><ele>200.0</ele><time>2026-04-12T13:45:23Z</time></trkpt><trkpt lat="41.38363159452206" lon="13.986865873254809"><ele>200.4</ele><time>2026-04-12T13:45:25Z</time></trkpt><trkpt lat="41.38354289573949" lon="13.986849612866472"><ele>200.8</ele><time>2026-04-12T13:45:26Z</time></trkpt><trkpt lat="41.383457055955596" lon="13.986845206073165"><ele>201.2</ele><time>2026-04-12T13:45:27Z</time></trkpt><trkpt lat="41.38336242855386" lon="13.986839355555677"><ele>201.6</ele><time>2026-04-12T13:45:29Z</time></trkpt><trkpt lat="41.383298814599186" lon="13.98684599235967"><ele>202.0</ele><time>2026-04-12T13:45:31Z</time></trkpt><trkpt lat="41.3832519138136" lon="13.987024881055973"><ele>201.99999999999997</ele><time>2026-04-12T13:45:35Z</time></trkpt><trkpt lat="41.38326347326703" lon="13.987121449395135"><ele>202.0</ele><time>2026-04-12T13:45:36Z</time></trkpt><trkpt lat="41.3832552446386" lon="13.987236837594757"><ele>202.0</ele><time>2026-04-12T13:45:37Z</time></trkpt><trkpt lat="41.38326461234427" lon="13.987360789230523"><ele>202.0</ele><time>2026-04-12T13:45:38Z</time></trkpt><trkpt lat="41.38327417189402" lon="13.987474899735938"><ele>201.99999999999997</ele><time>2026-04-12T13:45:39Z</time></trkpt><trkpt lat="41.38328500652067" lon="13.987595643979361"><ele>202.0</ele><time>2026-04-12T13:45:40Z</time></trkpt><trkpt lat="41.38329377066182" lon="13.987689565153234"><ele>201.2</ele><time>2026-04-12T13:45:41Z</time></trkpt><trkpt lat="41.38331810164059" lon="13.98778286619332"><ele>200.39999999999998</ele><time>2026-04-12T13:45:42Z</time></trkpt><trkpt lat="41.38332532256357" lon="13.98787533461427"><ele>199.60000000000002</ele><time>2026-04-12T13:45:43Z</time></trkpt><trkpt lat="41.38334320020215" lon="13.98802036501599"><ele>198.8</ele><time>2026-04-12T13:45:45Z</time></trkpt><trkpt lat="41.38339006889277" lon="13.988182242964834"><ele>198.0</ele><time>2026-04-12T13:45:47Z</time></trkpt><trkpt lat="41.38341196821886" lon="13.988264100586749"><ele>195.75</ele><time>2026-04-12T13:45:48Z</time></trkpt><trkpt lat="41.383338804434146" lon="13.988392002669858"><ele>193.5</ele><time>2026-04-12T13:45:49Z</time></trkpt><trkpt lat="41.38330785397042" lon="13.98858517369675"><ele>191.25</ele><time>2026-04-12T13:45:51Z</time></trkpt><trkpt lat="41.383204834306504" lon="13.988760434429608"><ele>189.0</ele><time>2026-04-12T13:45:53Z</time></trkpt><trkpt lat="41.38309505612926" lon="13.988866638693803"><ele>188.79999999999998</ele><time>2026-04-12T13:45:54Z</time></trkpt><trkpt lat="41.38300844799621" lon="13.988986881237556"><ele>188.6</ele><time>2026-04-12T13:45:55Z</time></trkpt><trkpt lat="41.382954373290495" lon="13.989087012830762"><ele>188.4</ele><time>2026-04-12T13:45:56Z</time></trkpt><trkpt lat="41.38291020931851" lon="13.989170447041056"><ele>188.2</ele><time>2026-04-12T13:45:57Z</time></trkpt><trkpt lat="41.38290685118651" lon="13.989319252179268"><ele>188.0</ele><time>2026-04-12T13:45:59Z</time></trkpt><trkpt lat="41.382921087504066" lon="13.989411904160837"><ele>188.83333333333331</ele><time>2026-04-12T13:46:00Z</time></trkpt><trkpt lat="41.3829217634086" lon="13.989532260009927"><ele>189.66666666666666</ele><time>2026-04-12T13:46:01Z</time></trkpt><trkpt lat="41.38290769630543" lon="13.98966316979171"><ele>190.5</ele><time>2026-04-12T13:46:02Z</time></trkpt><trkpt lat="41.382902649817375" lon="13.989776482176621"><ele>191.33333333333331</ele><time>2026-04-12T13:46:03Z</time></trkpt><trkpt lat="41.38291869812403" lon="13.989870809889206"><ele>192.16666666666666</ele><time>2026-04-12T13:46:04Z</time></trkpt><trkpt lat="41.38295791381194" lon="13.989952033073079"><ele>193.0</ele><time>2026-04-12T13:46:05Z</time></trkpt><trkpt lat="41.38306166306184" lon="13.990062208399348"><ele>194.60000000000002</ele><time>2026-04-12T13:46:07Z</time></trkpt><trkpt lat="41.38313646149499" lon="13.990149952811874"><ele>196.20000000000002</ele><time>2026-04-12T13:46:08Z</time></trkpt><trkpt lat="41.383231623042526" lon="13.990242635239214"><ele>197.8</ele><time>2026-04-12T13:46:09Z</time></trkpt><trkpt lat="41.38331362290555" lon="13.990317654920556"><ele>199.4</ele><time>2026-04-12T13:46:10Z</time></trkpt><trkpt lat="41.38340592938929" lon="13.990430603467402"><ele>201.0</ele><time>2026-04-12T13:46:11Z</time></trkpt><trkpt lat="41.38348193558561" lon="13.990542949827613"><ele>201.0</ele><time>2026-04-12T13:46:12Z</time></trkpt><trkpt lat="41.383530939808395" lon="13.990626548754584"><ele>201.0</ele><time>2026-04-12T13:46:13Z</time></trkpt><trkpt lat="41.38357663936046" lon="13.990698244509325"><ele>201.0</ele><time>2026-04-12T13:46:14Z</time></trkpt><trkpt lat="41.383611969911435" lon="13.99081154801932"><ele>201.0</ele><time>2026-04-12T13:46:15Z</time></trkpt><trkpt lat="41.38363409606237" lon="13.990944943772247"><ele>201.0</ele><time>2026-04-12T13:46:16Z</time></trkpt><trkpt lat="41.38367784114756" lon="13.991076501803507"><ele>203.25</ele><time>2026-04-12T13:46:17Z</time></trkpt><trkpt lat="41.383687559938" lon="13.991216718135675"><ele>205.5</ele><time>2026-04-12T13:46:18Z</time></trkpt><trkpt lat="41.383708546376425" lon="13.991366772350837"><ele>207.75</ele><time>2026-04-12T13:46:19Z</time></trkpt><trkpt lat="41.38374060433356" lon="13.991504411694912"><ele>210.0</ele><time>2026-04-12T13:46:20Z</time></trkpt><trkpt lat="41.38376273790691" lon="13.99166524753597"><ele>209.66666666666666</ele><time>2026-04-12T13:46:21Z</time></trkpt><trkpt lat="41.38378752968748" lon="13.991768152213377"><ele>209.33333333333331</ele><time>2026-04-12T13:46:22Z</time></trkpt><trkpt lat="41.38376831816682" lon="13.991919937914826"><ele>209.0</ele><time>2026-04-12T13:46:24Z</time></trkpt><trkpt lat="41.383721604713614" lon="13.992021719045763"><ele>208.66666666666666</ele><time>2026-04-12T13:46:25Z</time></trkpt><trkpt lat="41.38370032694612" lon="13.99212009777615"><ele>208.33333333333331</ele><time>2026-04-12T13:46:26Z</time></trkpt><trkpt lat="41.383666659201396" lon="13.992212870134178"><ele>208.0</ele><time>2026-04-12T13:46:27Z</time></trkpt><trkpt lat="41.38357588562619" lon="13.99233199566937"><ele>208.0</ele><time>2026-04-12T13:46:28Z</time></trkpt><trkpt lat="41.38351475899459" lon="13.992433048515581"><ele>208.0</ele><time>2026-04-12T13:46:29Z</time></trkpt><trkpt lat="41.38347896941074" lon="13.992508806235856"><ele>208.0</ele><time>2026-04-12T13:46:30Z</time></trkpt><trkpt lat="41.38346031805034" lon="13.992617324608197"><ele>208.0</ele><time>2026-04-12T13:46:33Z</time></trkpt><trkpt lat="41.38354506429857" lon="13.992706304354519"><ele>208.0</ele><time>2026-04-12T13:46:35Z</time></trkpt><trkpt lat="41.383634641103995" lon="13.992761189558992"><ele>208.75</ele><time>2026-04-12T13:46:36Z</time></trkpt><trkpt lat="41.38372263927629" lon="13.992847075696837"><ele>209.5</ele><time>2026-04-12T13:46:37Z</time></trkpt><trkpt lat="41.38380028116134" lon="13.992940632580542"><ele>210.25</ele><time>2026-04-12T13:46:38Z</time></trkpt><trkpt lat="41.383864759197536" lon="13.993084524260757"><ele>211.0</ele><time>2026-04-12T13:46:39Z</time></trkpt><trkpt lat="41.38393000629488" lon="13.993204613717975"><ele>207.20000000000002</ele><time>2026-04-12T13:46:40Z</time></trkpt><trkpt lat="41.3839745436196" lon="13.993360870547068"><ele>203.4</ele><time>2026-04-12T13:46:41Z</time></trkpt><trkpt lat="41.384003708250745" lon="13.993492549501118"><ele>199.6</ele><time>2026-04-12T13:46:42Z</time></trkpt><trkpt lat="41.384031286920724" lon="13.99358737995922"><ele>195.8</ele><time>2026-04-12T13:46:43Z</time></trkpt><trkpt lat="41.38405627711174" lon="13.993709158326208"><ele>192.0</ele><time>2026-04-12T13:46:44Z</time></trkpt><trkpt lat="41.38406974747014" lon="13.993833405507685"><ele>192.0</ele><time>2026-04-12T13:46:45Z</time></trkpt><trkpt lat="41.3840488530906" lon="13.993969105759495"><ele>192.0</ele><time>2026-04-12T13:46:46Z</time></trkpt><trkpt lat="41.38400766820387" lon="13.994092609926106"><ele>192.0</ele><time>2026-04-12T13:46:47Z</time></trkpt><trkpt lat="41.383943783734345" lon="13.994211238376048"><ele>192.0</ele><time>2026-04-12T13:46:48Z</time></trkpt><trkpt lat="41.38386243030196" lon="13.994351744750784"><ele>192.0</ele><time>2026-04-12T13:46:49Z</time></trkpt><trkpt lat="41.38379896921115" lon="13.994470277539413"><ele>196.0</ele><time>2026-04-12T13:46:50Z</time></trkpt><trkpt lat="41.38373522406016" lon="13.994550772865367"><ele>200.0</ele><time>2026-04-12T13:46:51Z</time></trkpt><trkpt lat="41.38366243333567" lon="13.994620564755051"><ele>204.0</ele><time>2026-04-12T13:46:52Z</time></trkpt><trkpt lat="41.38358051706984" lon="13.994676543059864"><ele>208.0</ele><time>2026-04-12T13:46:53Z</time></trkpt><trkpt lat="41.383465166652215" lon="13.994725133571905"><ele>212.0</ele><time>2026-04-12T13:46:54Z</time></trkpt><trkpt lat="41.38334144050333" lon="13.994776942244775"><ele>212.0</ele><time>2026-04-12T13:46:55Z</time></trkpt><trkpt lat="41.383216264656696" lon="13.994811276830573"><ele>212.0</ele><time>2026-04-12T13:46:56Z</time></trkpt><trkpt lat="41.38307777540398" lon="13.99483925915976"><ele>212.0</ele><time>2026-04-12T13:46:57Z</time></trkpt><trkpt lat="41.38291869039307" lon="13.994830819499516"><ele>212.0</ele><time>2026-04-12T13:46:58Z</time></trkpt><trkpt lat="41.382772269262524" lon="13.994819837246292"><ele>214.33333333333334</ele><time>2026-04-12T13:46:59Z</time></trkpt><trkpt lat="41.38261171437708" lon="13.9948250237308"><ele>216.66666666666669</ele><time>2026-04-12T13:47:00Z</time></trkpt><trkpt lat="41.38244491826459" lon="13.99482053883467"><ele>219.0</ele><time>2026-04-12T13:47:01Z</time></trkpt><trkpt lat="41.38229615596587" lon="13.99480197124184"><ele>219.75</ele><time>2026-04-12T13:47:02Z</time></trkpt><trkpt lat="41.382165814737" lon="13.994798658704969"><ele>220.5</ele><time>2026-04-12T13:47:03Z</time></trkpt><trkpt lat="41.38205756254951" lon="13.994786947920094"><ele>221.25</ele><time>2026-04-12T13:47:04Z</time></trkpt><trkpt lat="41.38195471931103" lon="13.994732460373045"><ele>222.0</ele><time>2026-04-12T13:47:05Z</time></trkpt><trkpt lat="41.38184625391614" lon="13.99463806133282"><ele>222.0</ele><time>2026-04-12T13:47:06Z</time></trkpt><trkpt lat="41.381727716529575" lon="13.994550842850561"><ele>222.0</ele><time>2026-04-12T13:47:07Z</time></trkpt><trkpt lat="41.381595376133454" lon="13.994470979762886"><ele>222.0</ele><time>2026-04-12T13:47:08Z</time></trkpt><trkpt lat="41.3814740175232" lon="13.994409559556972"><ele>222.0</ele><time>2026-04-12T13:47:09Z</time></trkpt><trkpt lat="41.381366933630396" lon="13.994362688800647"><ele>223.2</ele><time>2026-04-12T13:47:10Z</time></trkpt><trkpt lat="41.38127956767978" lon="13.994336826479145"><ele>224.39999999999998</ele><time>2026-04-12T13:47:11Z</time></trkpt><trkpt lat="41.38118602790476" lon="13.994308139336232"><ele>225.60000000000002</ele><time>2026-04-12T13:47:12Z</time></trkpt><trkpt lat="41.38107320734305" lon="13.994366819408492"><ele>226.8</ele><time>2026-04-12T13:47:13Z</time></trkpt><trkpt lat="41.38096957367887" lon="13.994443319326326"><ele>228.0</ele><time>2026-04-12T13:47:14Z</time></trkpt><trkpt lat="41.38084705287961" lon="13.994529202115071"><ele>228.0</ele><time>2026-04-12T13:47:15Z</time></trkpt><trkpt lat="41.38071081623976" lon="13.994614339992404"><ele>228.0</ele><time>2026-04-12T13:47:16Z</time></trkpt><trkpt lat="41.380573324001375" lon="13.994685819009343"><ele>228.0</ele><time>2026-04-12T13:47:17Z</time></trkpt><trkpt lat="41.38042333098596" lon="13.99475647520632"><ele>229.0</ele><time>2026-04-12T13:47:18Z</time></trkpt><trkpt lat="41.380263370537826" lon="13.99477333350692"><ele>230.0</ele><time>2026-04-12T13:47:19Z</time></trkpt><trkpt lat="41.38011147359601" lon="13.994820540387026"><ele>231.0</ele><time>2026-04-12T13:47:20Z</time></trkpt><trkpt lat="41.3799625645774" lon="13.994839065120832"><ele>231.0</ele><time>2026-04-12T13:47:21Z</time></trkpt><trkpt lat="41.37981364209965" lon="13.994855403177912"><ele>231.0</ele><time>2026-04-12T13:47:22Z</time></trkpt><trkpt lat="41.379675197768975" lon="13.994871105344645"><ele>231.0</ele><time>2026-04-12T13:47:23Z</time></trkpt><trkpt lat="41.37954901837883" lon="13.994861268051281"><ele>231.0</ele><time>2026-04-12T13:47:24Z</time></trkpt><trkpt lat="41.37944589479724" lon="13.994873563652723"><ele>232.0</ele><time>2026-04-12T13:47:25Z</time></trkpt><trkpt lat="41.37936975273255" lon="13.994891521239396"><ele>233.0</ele><time>2026-04-12T13:47:26Z</time></trkpt><trkpt lat="41.37929532928612" lon="13.994908127557332"><ele>234.0</ele><time>2026-04-12T13:47:28Z</time></trkpt><trkpt lat="41.37933750579866" lon="13.99518762248209"><ele>235.0</ele><time>2026-04-12T13:47:31Z</time></trkpt><trkpt lat="41.379401470127426" lon="13.995307466958556"><ele>235.0</ele><time>2026-04-12T13:47:32Z</time></trkpt><trkpt lat="41.379464365186216" lon="13.995438887064854"><ele>235.0</ele><time>2026-04-12T13:47:33Z</time></trkpt><trkpt lat="41.37952507425361" lon="13.995601341686369"><ele>235.0</ele><time>2026-04-12T13:47:34Z</time></trkpt><trkpt lat="41.37957659834444" lon="13.995756722338207"><ele>235.0</ele><time>2026-04-12T13:47:35Z</time></trkpt><trkpt lat="41.37962609708012" lon="13.995894093472883"><ele>234.0</ele><time>2026-04-12T13:47:36Z</time></trkpt><trkpt lat="41.379683396282275" lon="13.996015533645695"><ele>233.0</ele><time>2026-04-12T13:47:37Z</time></trkpt><trkpt lat="41.37977149747786" lon="13.996127500251312"><ele>232.0</ele><time>2026-04-12T13:47:38Z</time></trkpt><trkpt lat="41.37987062762517" lon="13.996226858950235"><ele>231.0</ele><time>2026-04-12T13:47:39Z</time></trkpt><trkpt lat="41.37997934576702" lon="13.996329327179353"><ele>229.75</ele><time>2026-04-12T13:47:40Z</time></trkpt><trkpt lat="41.380083046615965" lon="13.996434653079941"><ele>228.5</ele><time>2026-04-12T13:47:41Z</time></trkpt><trkpt lat="41.38016661279999" lon="13.996531441890301"><ele>227.25</ele><time>2026-04-12T13:47:42Z</time></trkpt><trkpt lat="41.38025584825246" lon="13.996665156856452"><ele>226.0</ele><time>2026-04-12T13:47:43Z</time></trkpt><trkpt lat="41.3803377365356" lon="13.996790024014402"><ele>225.5</ele><time>2026-04-12T13:47:44Z</time></trkpt><trkpt lat="41.38042064680881" lon="13.996906672895198"><ele>225.0</ele><time>2026-04-12T13:47:45Z</time></trkpt><trkpt lat="41.38051159493853" lon="13.99701935987885"><ele>224.5</ele><time>2026-04-12T13:47:46Z</time></trkpt><trkpt lat="41.380614632330676" lon="13.997132905715688"><ele>224.0</ele><time>2026-04-12T13:47:47Z</time></trkpt><trkpt lat="41.3807339384373" lon="13.997254568888048"><ele>223.25</ele><time>2026-04-12T13:47:48Z</time></trkpt><trkpt lat="41.38085933652036" lon="13.997374453754164"><ele>222.5</ele><time>2026-04-12T13:47:49Z</time></trkpt><trkpt lat="41.380976488516076" lon="13.99748070200932"><ele>221.75</ele><time>2026-04-12T13:47:50Z</time></trkpt><trkpt lat="41.3810921643059" lon="13.997570938173839"><ele>221.0</ele><time>2026-04-12T13:47:51Z</time></trkpt><trkpt lat="41.38121798939714" lon="13.997650012315173"><ele>220.0</ele><time>2026-04-12T13:47:52Z</time></trkpt><trkpt lat="41.38133571636657" lon="13.997744201108308"><ele>219.0</ele><time>2026-04-12T13:47:53Z</time></trkpt><trkpt lat="41.381458498007895" lon="13.997840039572102"><ele>218.0</ele><time>2026-04-12T13:47:54Z</time></trkpt><trkpt lat="41.38158619660175" lon="13.997943002281223"><ele>217.0</ele><time>2026-04-12T13:47:55Z</time></trkpt><trkpt lat="41.381716621303475" lon="13.998035314747895"><ele>216.75</ele><time>2026-04-12T13:47:56Z</time></trkpt><trkpt lat="41.38185068807395" lon="13.998127148475355"><ele>216.5</ele><time>2026-04-12T13:47:57Z</time></trkpt><trkpt lat="41.381983010161655" lon="13.998223152619795"><ele>216.25</ele><time>2026-04-12T13:47:58Z</time></trkpt><trkpt lat="41.38209822758406" lon="13.9983369732474"><ele>216.0</ele><time>2026-04-12T13:47:59Z</time></trkpt><trkpt lat="41.38222280723263" lon="13.99843031984842"><ele>215.25</ele><time>2026-04-12T13:48:00Z</time></trkpt><trkpt lat="41.38234924937054" lon="13.998525062003381"><ele>214.5</ele><time>2026-04-12T13:48:01Z</time></trkpt><trkpt lat="41.38246578596168" lon="13.9986206388429"><ele>213.75</ele><time>2026-04-12T13:48:02Z</time></trkpt><trkpt lat="41.38257635535254" lon="13.998726978096562"><ele>213.0</ele><time>2026-04-12T13:48:03Z</time></trkpt><trkpt lat="41.38267064044899" lon="13.998809299947938"><ele>213.0</ele><time>2026-04-12T13:48:04Z</time></trkpt><trkpt lat="41.382712224027976" lon="13.998908898987345"><ele>213.0</ele><time>2026-04-12T13:48:05Z</time></trkpt><trkpt lat="41.382739502160284" lon="13.998994776946835"><ele>213.0</ele><time>2026-04-12T13:48:06Z</time></trkpt><trkpt lat="41.382668747362395" lon="13.999130510082342"><ele>213.0</ele><time>2026-04-12T13:48:08Z</time></trkpt><trkpt lat="41.382604358443714" lon="13.999250050671415"><ele>213.0</ele><time>2026-04-12T13:48:09Z</time></trkpt><trkpt lat="41.38253431360683" lon="13.999382272095248"><ele>212.60000000000002</ele><time>2026-04-12T13:48:10Z</time></trkpt><trkpt lat="41.38247639515493" lon="13.99949402323244"><ele>212.20000000000002</ele><time>2026-04-12T13:48:11Z</time></trkpt><trkpt lat="41.38243411782705" lon="13.999594606020683"><ele>211.8</ele><time>2026-04-12T13:48:12Z</time></trkpt><trkpt lat="41.382416433730796" lon="13.999698851997879"><ele>211.4</ele><time>2026-04-12T13:48:13Z</time></trkpt><trkpt lat="41.38245320619342" lon="13.999839073053542"><ele>211.0</ele><time>2026-04-12T13:48:14Z</time></trkpt><trkpt lat="41.38255127239553" lon="13.999937081656228"><ele>211.0</ele><time>2026-04-12T13:48:15Z</time></trkpt><trkpt lat="41.38263838743448" lon="14.000039805441"><ele>211.0</ele><time>2026-04-12T13:48:16Z</time></trkpt><trkpt lat="41.382724754892756" lon="14.000135996133356"><ele>211.0</ele><time>2026-04-12T13:48:17Z</time></trkpt><trkpt lat="41.38279882440889" lon="14.000214353443052"><ele>211.0</ele><time>2026-04-12T13:48:18Z</time></trkpt><trkpt lat="41.38286484902619" lon="14.0002842001286"><ele>211.0</ele><time>2026-04-12T13:48:19Z</time></trkpt><trkpt lat="41.382915133394235" lon="14.00034019728734"><ele>211.0</ele><time>2026-04-12T13:48:20Z</time></trkpt><trkpt lat="41.382961692419556" lon="14.000399270787382"><ele>211.0</ele><time>2026-04-12T13:48:22Z</time></trkpt><trkpt lat="41.38313109029231" lon="14.000098959681832"><ele>211.0</ele><time>2026-04-12T13:48:26Z</time></trkpt><trkpt lat="41.383206652533694" lon="14.000005339636196"><ele>211.0</ele><time>2026-04-12T13:48:27Z</time></trkpt><trkpt lat="41.383309336284725" lon="13.99991496900131"><ele>210.60000000000002</ele><time>2026-04-12T13:48:28Z</time></trkpt><trkpt lat="41.38340263749979" lon="13.999815258278476"><ele>210.2</ele><time>2026-04-12T13:48:29Z</time></trkpt><trkpt lat="41.38349754099761" lon="13.999707935786356"><ele>209.8</ele><time>2026-04-12T13:48:30Z</time></trkpt><trkpt lat="41.38357232937783" lon="13.999614451759847"><ele>209.39999999999998</ele><time>2026-04-12T13:48:31Z</time></trkpt><trkpt lat="41.38363332663352" lon="13.999532889244133"><ele>209.0</ele><time>2026-04-12T13:48:32Z</time></trkpt><trkpt lat="41.38368996587743" lon="13.999458478969405"><ele>209.0</ele><time>2026-04-12T13:48:33Z</time></trkpt><trkpt lat="41.38375828760771" lon="13.999368655992061"><ele>209.0</ele><time>2026-04-12T13:48:34Z</time></trkpt><trkpt lat="41.38383507127485" lon="13.999279111483512"><ele>209.0</ele><time>2026-04-12T13:48:35Z</time></trkpt><trkpt lat="41.383924758626875" lon="13.999178731665788"><ele>209.0</ele><time>2026-04-12T13:48:36Z</time></trkpt><trkpt lat="41.38401584156323" lon="13.999067636762101"><ele>209.0</ele><time>2026-04-12T13:48:37Z</time></trkpt><trkpt lat="41.38409752669212" lon="13.998950045569384"><ele>208.25</ele><time>2026-04-12T13:48:38Z</time></trkpt><trkpt lat="41.3841716809708" lon="13.998842247045715"><ele>207.5</ele><time>2026-04-12T13:48:39Z</time></trkpt><trkpt lat="41.38424778264228" lon="13.998722450372018"><ele>206.75</ele><time>2026-04-12T13:48:40Z</time></trkpt><trkpt lat="41.38433070345099" lon="13.998618968628751"><ele>206.0</ele><time>2026-04-12T13:48:41Z</time></trkpt><trkpt lat="41.384424942799676" lon="13.998491225001318"><ele>206.0</ele><time>2026-04-12T13:48:42Z</time></trkpt><trkpt lat="41.384519433532866" lon="13.998354722945844"><ele>206.0</ele><time>2026-04-12T13:48:43Z</time></trkpt><trkpt lat="41.384609723436995" lon="13.998233221623385"><ele>206.0</ele><time>2026-04-12T13:48:44Z</time></trkpt><trkpt lat="41.38468024256756" lon="13.998128128980209"><ele>206.0</ele><time>2026-04-12T13:48:45Z</time></trkpt><trkpt lat="41.38474232080524" lon="13.998044180025428"><ele>205.8</ele><time>2026-04-12T13:48:46Z</time></trkpt><trkpt lat="41.384800772499986" lon="13.997962372548928"><ele>205.60000000000002</ele><time>2026-04-12T13:48:47Z</time></trkpt><trkpt lat="41.384859778366774" lon="13.99788366393906"><ele>205.4</ele><time>2026-04-12T13:48:48Z</time></trkpt><trkpt lat="41.38494793660719" lon="13.997777522014504"><ele>205.2</ele><time>2026-04-12T13:48:50Z</time></trkpt><trkpt lat="41.385023415151416" lon="13.997699976351784"><ele>205.0</ele><time>2026-04-12T13:48:52Z</time></trkpt><trkpt lat="41.38509885000243" lon="13.99767688865892"><ele>205.0</ele><time>2026-04-12T13:48:55Z</time></trkpt><trkpt lat="41.38518649247104" lon="13.997788274620282"><ele>205.0</ele><time>2026-04-12T13:48:57Z</time></trkpt><trkpt lat="41.38525228622365" lon="13.997872738531768"><ele>205.0</ele><time>2026-04-12T13:48:58Z</time></trkpt><trkpt lat="41.3853632703705" lon="13.998025527279156"><ele>205.0</ele><time>2026-04-12T13:48:59Z</time></trkpt><trkpt lat="41.38546080457927" lon="13.998156321694328"><ele>204.8</ele><time>2026-04-12T13:49:00Z</time></trkpt><trkpt lat="41.385546290768815" lon="13.998251719725696"><ele>204.6</ele><time>2026-04-12T13:49:01Z</time></trkpt><trkpt lat="41.3856339079359" lon="13.998334598819389"><ele>204.39999999999998</ele><time>2026-04-12T13:49:02Z</time></trkpt><trkpt lat="41.38573324401381" lon="13.998420733657015"><ele>204.2</ele><time>2026-04-12T13:49:03Z</time></trkpt><trkpt lat="41.38582213740177" lon="13.998504782710127"><ele>204.0</ele><time>2026-04-12T13:49:04Z</time></trkpt><trkpt lat="41.38587479285599" lon="13.998602615081358"><ele>204.0</ele><time>2026-04-12T13:49:05Z</time></trkpt><trkpt lat="41.38589505735294" lon="13.998691696072871"><ele>204.0</ele><time>2026-04-12T13:49:06Z</time></trkpt><trkpt lat="41.38596113389231" lon="13.998804994215515"><ele>204.0</ele><time>2026-04-12T13:49:08Z</time></trkpt><trkpt lat="41.38602050376423" lon="13.998843975205986"><ele>204.0</ele><time>2026-04-12T13:49:09Z</time></trkpt><trkpt lat="41.38607894874727" lon="13.998881519536866"><ele>204.0</ele><time>2026-04-12T13:49:10Z</time></trkpt><trkpt lat="41.38614400755032" lon="13.998887200228607"><ele>204.0</ele><time>2026-04-12T13:49:11Z</time></trkpt><trkpt lat="41.386249496737236" lon="13.998804395257102"><ele>204.0</ele><time>2026-04-12T13:49:13Z</time></trkpt><trkpt lat="41.38629075720513" lon="13.99871965344635"><ele>204.0</ele><time>2026-04-12T13:49:14Z</time></trkpt><trkpt lat="41.38634757720333" lon="13.998650075743443"><ele>204.0</ele><time>2026-04-12T13:49:15Z</time></trkpt><trkpt lat="41.38640775287542" lon="13.99857680118454"><ele>204.0</ele><time>2026-04-12T13:49:16Z</time></trkpt><trkpt lat="41.38647122596408" lon="13.998528557911053"><ele>204.0</ele><time>2026-04-12T13:49:17Z</time></trkpt><trkpt lat="41.386544282793835" lon="13.9984911098857"><ele>204.0</ele><time>2026-04-12T13:49:18Z</time></trkpt><trkpt lat="41.38661874490771" lon="13.998465174406501"><ele>204.0</ele><time>2026-04-12T13:49:19Z</time></trkpt><trkpt lat="41.38668387411244" lon="13.998443238070454"><ele>204.0</ele><time>2026-04-12T13:49:20Z</time></trkpt><trkpt lat="41.38674833012179" lon="13.998424603032396"><ele>204.0</ele><time>2026-04-12T13:49:21Z</time></trkpt><trkpt lat="41.38683420567593" lon="13.99838041588173"><ele>204.0</ele><time>2026-04-12T13:49:22Z</time></trkpt><trkpt lat="41.386942431805686" lon="13.998291912527746"><ele>204.0</ele><time>2026-04-12T13:49:23Z</time></trkpt><trkpt lat="41.38705715918577" lon="13.998194430285587"><ele>204.0</ele><time>2026-04-12T13:49:24Z</time></trkpt><trkpt lat="41.38716934990456" lon="13.998096340436357"><ele>204.0</ele><time>2026-04-12T13:49:25Z</time></trkpt><trkpt lat="41.38726838328751" lon="13.998009986483568"><ele>204.0</ele><time>2026-04-12T13:49:26Z</time></trkpt><trkpt lat="41.38736163828696" lon="13.997927588265004"><ele>204.0</ele><time>2026-04-12T13:49:27Z</time></trkpt><trkpt lat="41.38744810778096" lon="13.997839205578869"><ele>203.75</ele><time>2026-04-12T13:49:28Z</time></trkpt><trkpt lat="41.38752547664978" lon="13.997717849142264"><ele>203.5</ele><time>2026-04-12T13:49:29Z</time></trkpt><trkpt lat="41.38757515847544" lon="13.997566313474008"><ele>203.25</ele><time>2026-04-12T13:49:30Z</time></trkpt><trkpt lat="41.38760937717026" lon="13.997391667813158"><ele>203.0</ele><time>2026-04-12T13:49:31Z</time></trkpt><trkpt lat="41.387648483858946" lon="13.99723067168617"><ele>202.75</ele><time>2026-04-12T13:49:32Z</time></trkpt><trkpt lat="41.38771707265921" lon="13.997084896996315"><ele>202.5</ele><time>2026-04-12T13:49:33Z</time></trkpt><trkpt lat="41.38781215457841" lon="13.996969337238232"><ele>202.25</ele><time>2026-04-12T13:49:34Z</time></trkpt><trkpt lat="41.38792837961522" lon="13.996893115009385"><ele>202.0</ele><time>2026-04-12T13:49:35Z</time></trkpt><trkpt lat="41.38807725985537" lon="13.996821020515545"><ele>201.5</ele><time>2026-04-12T13:49:36Z</time></trkpt><trkpt lat="41.388233480890534" lon="13.996763108416578"><ele>201.0</ele><time>2026-04-12T13:49:37Z</time></trkpt><trkpt lat="41.388362768436025" lon="13.996709823362398"><ele>200.5</ele><time>2026-04-12T13:49:38Z</time></trkpt><trkpt lat="41.3884810901486" lon="13.99665699736981"><ele>200.0</ele><time>2026-04-12T13:49:39Z</time></trkpt><trkpt lat="41.388607639401854" lon="13.996602277738214"><ele>200.0</ele><time>2026-04-12T13:49:40Z</time></trkpt><trkpt lat="41.38872869353515" lon="13.996514004656884"><ele>200.0</ele><time>2026-04-12T13:49:41Z</time></trkpt><trkpt lat="41.38884071145221" lon="13.996392101400804"><ele>200.0</ele><time>2026-04-12T13:49:42Z</time></trkpt><trkpt lat="41.38894709922876" lon="13.996254363144486"><ele>200.0</ele><time>2026-04-12T13:49:43Z</time></trkpt><trkpt lat="41.389044637699456" lon="13.996119431947223"><ele>200.0</ele><time>2026-04-12T13:49:44Z</time></trkpt><trkpt lat="41.38911278463573" lon="13.995956760125237"><ele>200.0</ele><time>2026-04-12T13:49:45Z</time></trkpt><trkpt lat="41.389153798610565" lon="13.995760973954336"><ele>200.0</ele><time>2026-04-12T13:49:46Z</time></trkpt><trkpt lat="41.38919213710447" lon="13.995541858287961"><ele>199.75</ele><time>2026-04-12T13:49:47Z</time></trkpt><trkpt lat="41.38923352697238" lon="13.995336432780492"><ele>199.5</ele><time>2026-04-12T13:49:48Z</time></trkpt><trkpt lat="41.38928481084135" lon="13.995160826748052"><ele>199.25</ele><time>2026-04-12T13:49:49Z</time></trkpt><trkpt lat="41.38936080565565" lon="13.995019358450323"><ele>199.0</ele><time>2026-04-12T13:49:50Z</time></trkpt><trkpt lat="41.38945058606106" lon="13.99490535541276"><ele>199.0</ele><time>2026-04-12T13:49:51Z</time></trkpt><trkpt lat="41.38955328235884" lon="13.994804476844019"><ele>199.0</ele><time>2026-04-12T13:49:52Z</time></trkpt><trkpt lat="41.38965862604552" lon="13.99468917462046"><ele>199.0</ele><time>2026-04-12T13:49:53Z</time></trkpt><trkpt lat="41.38975067591716" lon="13.9945579134938"><ele>199.0</ele><time>2026-04-12T13:49:54Z</time></trkpt><trkpt lat="41.389787328552366" lon="13.994418725646543"><ele>200.2</ele><time>2026-04-12T13:49:55Z</time></trkpt><trkpt lat="41.38982438318349" lon="13.994290832971938"><ele>201.39999999999998</ele><time>2026-04-12T13:49:56Z</time></trkpt><trkpt lat="41.389869817602886" lon="13.994169098743368"><ele>202.6</ele><time>2026-04-12T13:49:57Z</time></trkpt><trkpt lat="41.38989431367928" lon="13.994047293815695"><ele>203.8</ele><time>2026-04-12T13:49:58Z</time></trkpt><trkpt lat="41.38993926239913" lon="13.993951122076197"><ele>205.0</ele><time>2026-04-12T13:49:59Z</time></trkpt><trkpt lat="41.390002197000825" lon="13.993834562692506"><ele>205.0</ele><time>2026-04-12T13:50:00Z</time></trkpt><trkpt lat="41.39006973145109" lon="13.993702195303504"><ele>205.0</ele><time>2026-04-12T13:50:01Z</time></trkpt><trkpt lat="41.390112120099374" lon="13.993550474978301"><ele>205.0</ele><time>2026-04-12T13:50:02Z</time></trkpt><trkpt lat="41.390136791226645" lon="13.993367766275828"><ele>205.0</ele><time>2026-04-12T13:50:03Z</time></trkpt><trkpt lat="41.39016924378802" lon="13.99315204504989"><ele>202.33333333333331</ele><time>2026-04-12T13:50:04Z</time></trkpt><trkpt lat="41.39018890559259" lon="13.992936657727707"><ele>199.66666666666669</ele><time>2026-04-12T13:50:05Z</time></trkpt><trkpt lat="41.390215627239066" lon="13.992741985739302"><ele>197.0</ele><time>2026-04-12T13:50:06Z</time></trkpt><trkpt lat="41.39024762129391" lon="13.992540991595103"><ele>194.5</ele><time>2026-04-12T13:50:07Z</time></trkpt><trkpt lat="41.390276663162425" lon="13.992360128025679"><ele>192.0</ele><time>2026-04-12T13:50:08Z</time></trkpt><trkpt lat="41.390293268376645" lon="13.99220469757156"><ele>189.5</ele><time>2026-04-12T13:50:09Z</time></trkpt><trkpt lat="41.390317606113705" lon="13.992037804319212"><ele>187.0</ele><time>2026-04-12T13:50:10Z</time></trkpt><trkpt lat="41.39033718006734" lon="13.991894729637396"><ele>187.0</ele><time>2026-04-12T13:50:11Z</time></trkpt><trkpt lat="41.3903696857799" lon="13.991750832186513"><ele>187.0</ele><time>2026-04-12T13:50:12Z</time></trkpt><trkpt lat="41.39042984248631" lon="13.991615616423939"><ele>187.0</ele><time>2026-04-12T13:50:13Z</time></trkpt><trkpt lat="41.390517355408704" lon="13.99147735522383"><ele>187.0</ele><time>2026-04-12T13:50:14Z</time></trkpt><trkpt lat="41.390614920790625" lon="13.991351678596912"><ele>184.25</ele><time>2026-04-12T13:50:15Z</time></trkpt><trkpt lat="41.39070989048346" lon="13.991248593907414"><ele>181.5</ele><time>2026-04-12T13:50:16Z</time></trkpt><trkpt lat="41.39081291472735" lon="13.991159022930473"><ele>178.75</ele><time>2026-04-12T13:50:17Z</time></trkpt><trkpt lat="41.39092271409803" lon="13.991073378634956"><ele>176.0</ele><time>2026-04-12T13:50:18Z</time></trkpt><trkpt lat="41.39101143543508" lon="13.991012651640768"><ele>176.0</ele><time>2026-04-12T13:50:19Z</time></trkpt><trkpt lat="41.39109025774826" lon="13.990956547008786"><ele>176.0</ele><time>2026-04-12T13:50:20Z</time></trkpt><trkpt lat="41.39116613455403" lon="13.990886092270093"><ele>176.0</ele><time>2026-04-12T13:50:21Z</time></trkpt><trkpt lat="41.391240641566306" lon="13.990828171236798"><ele>176.0</ele><time>2026-04-12T13:50:23Z</time></trkpt><trkpt lat="41.39108223207303" lon="13.990611489602944"><ele>175.0</ele><time>2026-04-12T13:50:32Z</time></trkpt><trkpt lat="41.391021342874836" lon="13.990575559671749"><ele>174.0</ele><time>2026-04-12T13:50:33Z</time></trkpt><trkpt lat="41.39092943847119" lon="13.990519139929635"><ele>173.0</ele><time>2026-04-12T13:50:35Z</time></trkpt><trkpt lat="41.39080760902513" lon="13.990448530153643"><ele>172.0</ele><time>2026-04-12T13:50:37.024Z</time></trkpt><trkpt lat="41.390699290384646" lon="13.990470577059174"><ele>171.0</ele><time>2026-04-12T13:50:38Z</time></trkpt><trkpt lat="41.39064419492506" lon="13.990611355816545"><ele>171.0</ele><time>2026-04-12T13:50:39Z</time></trkpt><trkpt lat="41.39056958577755" lon="13.990574249350935"><ele>171.0</ele><time>2026-04-12T13:50:41Z</time></trkpt><trkpt lat="41.3904786885773" lon="13.990636193626425"><ele>171.0</ele><time>2026-04-12T13:50:43Z</time></trkpt><trkpt lat="41.390370388581886" lon="13.990697232456084"><ele>171.0</ele><time>2026-04-12T13:50:45Z</time></trkpt><trkpt lat="41.390255452860856" lon="13.990767838187617"><ele>171.0</ele><time>2026-04-12T13:50:46Z</time></trkpt><trkpt lat="41.390195076326506" lon="13.990821410624761"><ele>170.83333333333334</ele><time>2026-04-12T13:50:47Z</time></trkpt><trkpt lat="41.39013209090145" lon="13.990840526478861"><ele>170.66666666666666</ele><time>2026-04-12T13:50:49Z</time></trkpt><trkpt lat="41.39004890374172" lon="13.990828024753249"><ele>170.5</ele><time>2026-04-12T13:50:50Z</time></trkpt><trkpt lat="41.38995624045382" lon="13.990870932473753"><ele>170.33333333333331</ele><time>2026-04-12T13:50:52Z</time></trkpt><trkpt lat="41.389895208993025" lon="13.990902912726337"><ele>170.16666666666666</ele><time>2026-04-12T13:50:54Z</time></trkpt><trkpt lat="41.389829573361865" lon="13.990961055551598"><ele>170.0</ele><time>2026-04-12T13:50:56Z</time></trkpt><trkpt lat="41.38976813610659" lon="13.991003236080884"><ele>171.6</ele><time>2026-04-12T13:50:58Z</time></trkpt><trkpt lat="41.389727413524284" lon="13.991108700537724"><ele>173.2</ele><time>2026-04-12T13:51:00Z</time></trkpt><trkpt lat="41.389677214871945" lon="13.991203105358087"><ele>174.8</ele><time>2026-04-12T13:51:02Z</time></trkpt><trkpt lat="41.38957101989347" lon="13.991244225604419"><ele>176.4</ele><time>2026-04-12T13:51:04Z</time></trkpt><trkpt lat="41.389473387150545" lon="13.991223795860465"><ele>178.0</ele><time>2026-04-12T13:51:06Z</time></trkpt><trkpt lat="41.38939371472525" lon="13.991283757821158"><ele>178.0</ele><time>2026-04-12T13:51:08Z</time></trkpt><trkpt lat="41.38933335483028" lon="13.991396638339026"><ele>178.0</ele><time>2026-04-12T13:51:10Z</time></trkpt><trkpt lat="41.389242775849176" lon="13.991453197709662"><ele>178.0</ele><time>2026-04-12T13:51:12Z</time></trkpt><trkpt lat="41.38913723949029" lon="13.991543039546107"><ele>178.0</ele><time>2026-04-12T13:51:15Z</time></trkpt><trkpt lat="41.38902689541579" lon="13.991581522223457"><ele>178.0</ele><time>2026-04-12T13:51:18Z</time></trkpt><trkpt lat="41.38897092520835" lon="13.99150261477127"><ele>178.0</ele><time>2026-04-12T13:51:19Z</time></trkpt><trkpt lat="41.388879413240566" lon="13.991481225673699"><ele>178.0</ele><time>2026-04-12T13:51:20Z</time></trkpt><trkpt lat="41.38880318194791" lon="13.99147029237865"><ele>178.0</ele><time>2026-04-12T13:51:21Z</time></trkpt><trkpt lat="41.38871160471176" lon="13.99147533229478"><ele>178.0</ele><time>2026-04-12T13:51:22Z</time></trkpt><trkpt lat="41.38863272794889" lon="13.991379887278296"><ele>178.0</ele><time>2026-04-12T13:51:24Z</time></trkpt><trkpt lat="41.388627146386106" lon="13.991247152453225"><ele>178.0</ele><time>2026-04-12T13:51:27Z</time></trkpt><trkpt lat="41.38865600652532" lon="13.991170656163858"><ele>178.0</ele><time>2026-04-12T13:51:30Z</time></trkpt><trkpt lat="41.38877992098061" lon="13.99111277289079"><ele>178.0</ele><time>2026-04-12T13:51:32Z</time></trkpt><trkpt lat="41.38882529753804" lon="13.9910239135414"><ele>178.0</ele><time>2026-04-12T13:51:34Z</time></trkpt><trkpt lat="41.38884675029022" lon="13.990926469626102"><ele>178.0</ele><time>2026-04-12T13:51:36Z</time></trkpt><trkpt lat="41.388839818315205" lon="13.990829541762622"><ele>178.0</ele><time>2026-04-12T13:51:39Z</time></trkpt><trkpt lat="41.38886459804205" lon="13.990688418004844"><ele>175.60000000000002</ele><time>2026-04-12T13:51:41Z</time></trkpt><trkpt lat="41.38888897926021" lon="13.990582676912883"><ele>173.20000000000002</ele><time>2026-04-12T13:51:42Z</time></trkpt><trkpt lat="41.38891828883561" lon="13.99047064419454"><ele>170.8</ele><time>2026-04-12T13:51:43Z</time></trkpt><trkpt lat="41.38896495696114" lon="13.990341223581868"><ele>168.4</ele><time>2026-04-12T13:51:44Z</time></trkpt><trkpt lat="41.38899103162891" lon="13.99023572619031"><ele>166.0</ele><time>2026-04-12T13:51:45Z</time></trkpt><trkpt lat="41.3890452521452" lon="13.990120089111127"><ele>166.0</ele><time>2026-04-12T13:51:47Z</time></trkpt><trkpt lat="41.38914843201701" lon="13.990057882237773"><ele>166.0</ele><time>2026-04-12T13:51:49Z</time></trkpt><trkpt lat="41.389237336569785" lon="13.98997414309981"><ele>166.0</ele><time>2026-04-12T13:51:51Z</time></trkpt><trkpt lat="41.389273627499676" lon="13.989903347891552"><ele>166.0</ele><time>2026-04-12T13:51:52Z</time></trkpt><trkpt lat="41.3893113632294" lon="13.989822251248004"><ele>166.0</ele><time>2026-04-12T13:51:53Z</time></trkpt><trkpt lat="41.389333608478694" lon="13.989672185773461"><ele>166.5</ele><time>2026-04-12T13:51:55Z</time></trkpt><trkpt lat="41.38930636124612" lon="13.989592201186964"><ele>167.0</ele><time>2026-04-12T13:51:56Z</time></trkpt><trkpt lat="41.38924843518218" lon="13.989440852099117"><ele>167.5</ele><time>2026-04-12T13:51:58Z</time></trkpt><trkpt lat="41.38918008980824" lon="13.989294711298069"><ele>168.0</ele><time>2026-04-12T13:52:00Z</time></trkpt><trkpt lat="41.389096040847214" lon="13.989151021820877"><ele>169.83333333333334</ele><time>2026-04-12T13:52:02Z</time></trkpt><trkpt lat="41.38905665424434" lon="13.989070256301861"><ele>171.66666666666666</ele><time>2026-04-12T13:52:03Z</time></trkpt><trkpt lat="41.38901612825759" lon="13.988984820597741"><ele>173.5</ele><time>2026-04-12T13:52:04Z</time></trkpt><trkpt lat="41.388989501015125" lon="13.988908193706177"><ele>175.33333333333331</ele><time>2026-04-12T13:52:05Z</time></trkpt><trkpt lat="41.38894483021015" lon="13.988762388478598"><ele>177.16666666666666</ele><time>2026-04-12T13:52:07Z</time></trkpt><trkpt lat="41.38891762914845" lon="13.988664219397608"><ele>179.0</ele><time>2026-04-12T13:52:08Z</time></trkpt><trkpt lat="41.38888927233066" lon="13.988545827244502"><ele>179.0</ele><time>2026-04-12T13:52:09Z</time></trkpt><trkpt lat="41.38886718910949" lon="13.98842620605786"><ele>179.0</ele><time>2026-04-12T13:52:10Z</time></trkpt><trkpt lat="41.38884314970496" lon="13.988306010225203"><ele>179.0</ele><time>2026-04-12T13:52:11Z</time></trkpt><trkpt lat="41.388823501469325" lon="13.988178429420346"><ele>179.0</ele><time>2026-04-12T13:52:12Z</time></trkpt><trkpt lat="41.388798026274934" lon="13.988032485008809"><ele>179.0</ele><time>2026-04-12T13:52:13Z</time></trkpt><trkpt lat="41.388770925342" lon="13.98789636248997"><ele>180.0</ele><time>2026-04-12T13:52:14Z</time></trkpt><trkpt lat="41.388748110578454" lon="13.987775715667093"><ele>181.0</ele><time>2026-04-12T13:52:15Z</time></trkpt><trkpt lat="41.38872370534166" lon="13.987656339210526"><ele>182.0</ele><time>2026-04-12T13:52:16Z</time></trkpt><trkpt lat="41.38870959983874" lon="13.987570575636946"><ele>183.0</ele><time>2026-04-12T13:52:17Z</time></trkpt><trkpt lat="41.38871625999779" lon="13.987482266524601"><ele>184.0</ele><time>2026-04-12T13:52:19Z</time></trkpt><trkpt lat="41.38881308543357" lon="13.987477849975985"><ele>185.0</ele><time>2026-04-12T13:52:21Z</time></trkpt><trkpt lat="41.388964445815404" lon="13.987448277081265"><ele>185.0</ele><time>2026-04-12T13:52:23Z</time></trkpt><trkpt lat="41.389088088292596" lon="13.98746088646909"><ele>185.0</ele><time>2026-04-12T13:52:24Z</time></trkpt><trkpt lat="41.3891994727335" lon="13.987480226685447"><ele>185.0</ele><time>2026-04-12T13:52:25Z</time></trkpt><trkpt lat="41.38929218115821" lon="13.987492937171382"><ele>185.0</ele><time>2026-04-12T13:52:26Z</time></trkpt><trkpt lat="41.38936514919351" lon="13.987492952352676"><ele>185.0</ele><time>2026-04-12T13:52:27Z</time></trkpt><trkpt lat="41.3894372865973" lon="13.987481433882186"><ele>185.0</ele><time>2026-04-12T13:52:29Z</time></trkpt><trkpt lat="41.389480892364745" lon="13.987394435102107"><ele>185.0</ele><time>2026-04-12T13:52:32Z</time></trkpt><trkpt lat="41.389583622396266" lon="13.987390337686698"><ele>185.0</ele><time>2026-04-12T13:52:33Z</time></trkpt><trkpt lat="41.38969264354346" lon="13.987404676933007"><ele>185.0</ele><time>2026-04-12T13:52:34Z</time></trkpt><trkpt lat="41.389814822779336" lon="13.987422162676152"><ele>185.0</ele><time>2026-04-12T13:52:35Z</time></trkpt><trkpt lat="41.38994724173602" lon="13.98742763375518"><ele>182.66666666666666</ele><time>2026-04-12T13:52:36Z</time></trkpt><trkpt lat="41.39009901757058" lon="13.987443377417756"><ele>180.33333333333334</ele><time>2026-04-12T13:52:37Z</time></trkpt><trkpt lat="41.3902578548565" lon="13.987457751211675"><ele>178.0</ele><time>2026-04-12T13:52:38Z</time></trkpt><trkpt lat="41.39042194010356" lon="13.98747033699275"><ele>177.5</ele><time>2026-04-12T13:52:39Z</time></trkpt><trkpt lat="41.39059333666777" lon="13.987506013521287"><ele>177.0</ele><time>2026-04-12T13:52:40Z</time></trkpt><trkpt lat="41.39094558277956" lon="13.987519095987853"><ele>177.0</ele><time>2026-04-12T13:52:42Z</time></trkpt><trkpt lat="41.3911047241102" lon="13.987530166854318"><ele>177.0</ele><time>2026-04-12T13:52:43Z</time></trkpt><trkpt lat="41.39124786227048" lon="13.987529471823256"><ele>177.0</ele><time>2026-04-12T13:52:44Z</time></trkpt><trkpt lat="41.39138683262603" lon="13.987528475056932"><ele>177.0</ele><time>2026-04-12T13:52:45Z</time></trkpt><trkpt lat="41.39153212939921" lon="13.987508754200537"><ele>175.33333333333334</ele><time>2026-04-12T13:52:46Z</time></trkpt><trkpt lat="41.39167910496018" lon="13.987469608868496"><ele>173.66666666666669</ele><time>2026-04-12T13:52:47Z</time></trkpt><trkpt lat="41.39181838119708" lon="13.987395769733393"><ele>172.0</ele><time>2026-04-12T13:52:48Z</time></trkpt><trkpt lat="41.39195573644654" lon="13.987275436768995"><ele>172.0</ele><time>2026-04-12T13:52:49Z</time></trkpt><trkpt lat="41.39208083055772" lon="13.987135724028876"><ele>172.0</ele><time>2026-04-12T13:52:50Z</time></trkpt><trkpt lat="41.39219766103118" lon="13.986995046946742"><ele>172.0</ele><time>2026-04-12T13:52:51Z</time></trkpt><trkpt lat="41.39231874606832" lon="13.986840211565172"><ele>171.33333333333334</ele><time>2026-04-12T13:52:52Z</time></trkpt><trkpt lat="41.39243045466066" lon="13.986684611989629"><ele>170.66666666666666</ele><time>2026-04-12T13:52:53Z</time></trkpt><trkpt lat="41.39254636378007" lon="13.986525454834315"><ele>170.0</ele><time>2026-04-12T13:52:54Z</time></trkpt><trkpt lat="41.39265122445064" lon="13.986372315181194"><ele>169.0</ele><time>2026-04-12T13:52:55Z</time></trkpt><trkpt lat="41.392764837695054" lon="13.98621253919781"><ele>168.0</ele><time>2026-04-12T13:52:56Z</time></trkpt><trkpt lat="41.392875239186864" lon="13.986034839462105"><ele>167.0</ele><time>2026-04-12T13:52:57Z</time></trkpt><trkpt lat="41.39298906703268" lon="13.985865798380003"><ele>167.0</ele><time>2026-04-12T13:52:58Z</time></trkpt><trkpt lat="41.39309828197902" lon="13.985694092550121"><ele>167.0</ele><time>2026-04-12T13:52:59Z</time></trkpt><trkpt lat="41.39321147249253" lon="13.985519115206367"><ele>167.0</ele><time>2026-04-12T13:53:00Z</time></trkpt><trkpt lat="41.39332264932215" lon="13.985338454934578"><ele>167.0</ele><time>2026-04-12T13:53:01Z</time></trkpt><trkpt lat="41.393432087563966" lon="13.985164166289508"><ele>167.0</ele><time>2026-04-12T13:53:02Z</time></trkpt><trkpt lat="41.393543560954136" lon="13.984984225118856"><ele>167.0</ele><time>2026-04-12T13:53:03Z</time></trkpt><trkpt lat="41.39365511985204" lon="13.98482002003327"><ele>166.25</ele><time>2026-04-12T13:53:04Z</time></trkpt><trkpt lat="41.39375677185174" lon="13.984667081608576"><ele>165.5</ele><time>2026-04-12T13:53:05Z</time></trkpt><trkpt lat="41.39385410082401" lon="13.984525520941963"><ele>164.75</ele><time>2026-04-12T13:53:06Z</time></trkpt><trkpt lat="41.39396666712911" lon="13.984401667624855"><ele>164.0</ele><time>2026-04-12T13:53:07Z</time></trkpt><trkpt lat="41.3940934321673" lon="13.984275821816668"><ele>161.33333333333331</ele><time>2026-04-12T13:53:08Z</time></trkpt><trkpt lat="41.39422932268539" lon="13.984158003741273"><ele>158.66666666666666</ele><time>2026-04-12T13:53:09Z</time></trkpt><trkpt lat="41.39437655991122" lon="13.98404476814056"><ele>156.0</ele><time>2026-04-12T13:53:10Z</time></trkpt><trkpt lat="41.39453241688056" lon="13.98395603776122"><ele>156.66666666666666</ele><time>2026-04-12T13:53:11Z</time></trkpt><trkpt lat="41.39469428187087" lon="13.98389094964887"><ele>157.33333333333331</ele><time>2026-04-12T13:53:12Z</time></trkpt><trkpt lat="41.394855725022246" lon="13.983845351849407"><ele>158.0</ele><time>2026-04-12T13:53:13Z</time></trkpt><trkpt lat="41.395013497598555" lon="13.983831034102092"><ele>158.0</ele><time>2026-04-12T13:53:14Z</time></trkpt><trkpt lat="41.39517872677976" lon="13.98384153167891"><ele>158.0</ele><time>2026-04-12T13:53:15Z</time></trkpt><trkpt lat="41.3953375481847" lon="13.983895260676109"><ele>158.0</ele><time>2026-04-12T13:53:16Z</time></trkpt><trkpt lat="41.39549849788369" lon="13.983960601184481"><ele>156.33333333333331</ele><time>2026-04-12T13:53:17Z</time></trkpt><trkpt lat="41.39566263497117" lon="13.98401946252214"><ele>154.66666666666666</ele><time>2026-04-12T13:53:18Z</time></trkpt><trkpt lat="41.395831370084615" lon="13.984056029680904"><ele>153.0</ele><time>2026-04-12T13:53:19Z</time></trkpt><trkpt lat="41.39599872064431" lon="13.984118534092124"><ele>153.0</ele><time>2026-04-12T13:53:20Z</time></trkpt><trkpt lat="41.39617335710577" lon="13.984174496697698"><ele>153.0</ele><time>2026-04-12T13:53:21Z</time></trkpt><trkpt lat="41.396322248604726" lon="13.984218304238636"><ele>153.0</ele><time>2026-04-12T13:53:22Z</time></trkpt><trkpt lat="41.39646384560478" lon="13.984277373619404"><ele>154.0</ele><time>2026-04-12T13:53:23Z</time></trkpt><trkpt lat="41.39661171008604" lon="13.9842979722795"><ele>155.0</ele><time>2026-04-12T13:53:24Z</time></trkpt><trkpt lat="41.39674776756138" lon="13.984373547758006"><ele>156.0</ele><time>2026-04-12T13:53:25Z</time></trkpt><trkpt lat="41.396883209547866" lon="13.984445413151533"><ele>157.0</ele><time>2026-04-12T13:53:26Z</time></trkpt><trkpt lat="41.39701851044684" lon="13.984519777678335"><ele>157.0</ele><time>2026-04-12T13:53:27Z</time></trkpt><trkpt lat="41.39714600466291" lon="13.98458876287231"><ele>157.0</ele><time>2026-04-12T13:53:28Z</time></trkpt><trkpt lat="41.3972689147385" lon="13.98462904979694"><ele>157.0</ele><time>2026-04-12T13:53:29Z</time></trkpt><trkpt lat="41.397386427396896" lon="13.98469015403741"><ele>157.0</ele><time>2026-04-12T13:53:30Z</time></trkpt><trkpt lat="41.39747180909784" lon="13.984739440169871"><ele>156.83333333333334</ele><time>2026-04-12T13:53:31Z</time></trkpt><trkpt lat="41.397561828369014" lon="13.984784951253413"><ele>156.66666666666669</ele><time>2026-04-12T13:53:33Z</time></trkpt><trkpt lat="41.3976191171047" lon="13.984825621134897"><ele>156.5</ele><time>2026-04-12T13:53:35Z</time></trkpt><trkpt lat="41.39767952150523" lon="13.984871738062532"><ele>156.33333333333334</ele><time>2026-04-12T13:53:36Z</time></trkpt><trkpt lat="41.39775557790639" lon="13.984922959341711"><ele>156.16666666666666</ele><time>2026-04-12T13:53:37Z</time></trkpt><trkpt lat="41.397824992410406" lon="13.98499062072182"><ele>156.0</ele><time>2026-04-12T13:53:38Z</time></trkpt><trkpt lat="41.39785066058428" lon="13.98514203542819"><ele>155.5</ele><time>2026-04-12T13:53:39Z</time></trkpt><trkpt lat="41.39793224292293" lon="13.9852720849216"><ele>155.0</ele><time>2026-04-12T13:53:40Z</time></trkpt><trkpt lat="41.398021025629454" lon="13.985416736554859"><ele>154.5</ele><time>2026-04-12T13:53:41Z</time></trkpt><trkpt lat="41.39810874873776" lon="13.985565126397278"><ele>154.0</ele><time>2026-04-12T13:53:42Z</time></trkpt><trkpt lat="41.39818304630983" lon="13.985692906120542"><ele>154.0</ele><time>2026-04-12T13:53:43Z</time></trkpt><trkpt lat="41.39825321105638" lon="13.98580886440831"><ele>154.0</ele><time>2026-04-12T13:53:44Z</time></trkpt><trkpt lat="41.398301273862366" lon="13.985923349631776"><ele>154.0</ele><time>2026-04-12T13:53:45Z</time></trkpt><trkpt lat="41.398352124511895" lon="13.986012243737067"><ele>154.0</ele><time>2026-04-12T13:53:46Z</time></trkpt><trkpt lat="41.3983972323044" lon="13.986087467624815"><ele>154.0</ele><time>2026-04-12T13:53:47Z</time></trkpt><trkpt lat="41.39845815074201" lon="13.98612172653143"><ele>154.0</ele><time>2026-04-12T13:53:48Z</time></trkpt><trkpt lat="41.39852762150977" lon="13.986153580457605"><ele>153.33333333333334</ele><time>2026-04-12T13:53:50Z</time></trkpt><trkpt lat="41.398587746926324" lon="13.986221149934575"><ele>152.66666666666666</ele><time>2026-04-12T13:53:53Z</time></trkpt><trkpt lat="41.3984420974622" lon="13.986247878768175"><ele>152.0</ele><time>2026-04-12T13:53:54Z</time></trkpt><trkpt lat="41.39854846020845" lon="13.986713789662083"><ele>151.2</ele><time>2026-04-12T13:53:56Z</time></trkpt><trkpt lat="41.39856019348863" lon="13.986820802321178"><ele>150.39999999999998</ele><time>2026-04-12T13:53:57Z</time></trkpt><trkpt lat="41.39854145590443" lon="13.986962436905495"><ele>149.60000000000002</ele><time>2026-04-12T13:53:59Z</time></trkpt><trkpt lat="41.39842668417108" lon="13.987037175167725"><ele>148.8</ele><time>2026-04-12T13:54:01Z</time></trkpt><trkpt lat="41.39834778256494" lon="13.987100912405923"><ele>148.0</ele><time>2026-04-12T13:54:03Z</time></trkpt><trkpt lat="41.39832661067517" lon="13.987254083782402"><ele>148.0</ele><time>2026-04-12T13:54:05Z</time></trkpt><trkpt lat="41.39831901073106" lon="13.98741702032826"><ele>148.0</ele><time>2026-04-12T13:54:06Z</time></trkpt><trkpt lat="41.39830404669803" lon="13.987565659491718"><ele>148.0</ele><time>2026-04-12T13:54:07Z</time></trkpt><trkpt lat="41.398312388173" lon="13.987659845600481"><ele>148.0</ele><time>2026-04-12T13:54:09Z</time></trkpt><trkpt lat="41.39841101067069" lon="13.987743782718676"><ele>148.0</ele><time>2026-04-12T13:54:11Z</time></trkpt><trkpt lat="41.39849440150135" lon="13.987739616983196"><ele>147.20000000000002</ele><time>2026-04-12T13:54:12Z</time></trkpt><trkpt lat="41.3985972673793" lon="13.98770349589395"><ele>146.4</ele><time>2026-04-12T13:54:13Z</time></trkpt><trkpt lat="41.39869591613625" lon="13.987716824411535"><ele>145.60000000000002</ele><time>2026-04-12T13:54:14Z</time></trkpt><trkpt lat="41.39878637039937" lon="13.987724502994778"><ele>144.8</ele><time>2026-04-12T13:54:15Z</time></trkpt><trkpt lat="41.39887987222793" lon="13.98773558836468"><ele>144.0</ele><time>2026-04-12T13:54:16Z</time></trkpt><trkpt lat="41.39896904481913" lon="13.987739119645571"><ele>143.2</ele><time>2026-04-12T13:54:17Z</time></trkpt><trkpt lat="41.39906332501487" lon="13.987741532362904"><ele>142.4</ele><time>2026-04-12T13:54:18Z</time></trkpt><trkpt lat="41.39914797300112" lon="13.987740559858237"><ele>141.6</ele><time>2026-04-12T13:54:19Z</time></trkpt><trkpt lat="41.39923932302462" lon="13.987734269056977"><ele>140.8</ele><time>2026-04-12T13:54:20Z</time></trkpt><trkpt lat="41.39932556876051" lon="13.987732373135833"><ele>140.0</ele><time>2026-04-12T13:54:21Z</time></trkpt><trkpt lat="41.399420567266674" lon="13.98773619057795"><ele>140.0</ele><time>2026-04-12T13:54:22Z</time></trkpt><trkpt lat="41.399510265288704" lon="13.987733161361334"><ele>140.0</ele><time>2026-04-12T13:54:23Z</time></trkpt><trkpt lat="41.399595270640816" lon="13.987728229120604"><ele>140.0</ele><time>2026-04-12T13:54:24Z</time></trkpt><trkpt lat="41.39968180297015" lon="13.987721235874229"><ele>140.0</ele><time>2026-04-12T13:54:25Z</time></trkpt><trkpt lat="41.39977323646591" lon="13.987695461428947"><ele>140.0</ele><time>2026-04-12T13:54:26Z</time></trkpt><trkpt lat="41.39986149012464" lon="13.987664088630726"><ele>140.0</ele><time>2026-04-12T13:54:27Z</time></trkpt><trkpt lat="41.39995981515446" lon="13.987636813244862"><ele>139.83333333333331</ele><time>2026-04-12T13:54:28Z</time></trkpt><trkpt lat="41.40006441328587" lon="13.987609118262478"><ele>139.66666666666666</ele><time>2026-04-12T13:54:29Z</time></trkpt><trkpt lat="41.40015956256592" lon="13.98758439443548"><ele>139.5</ele><time>2026-04-12T13:54:30Z</time></trkpt><trkpt lat="41.40024993296729" lon="13.98756733620395"><ele>139.33333333333334</ele><time>2026-04-12T13:54:31Z</time></trkpt><trkpt lat="41.400323225081344" lon="13.987540236856846"><ele>139.16666666666669</ele><time>2026-04-12T13:54:32Z</time></trkpt><trkpt lat="41.40039118128065" lon="13.98751634927282"><ele>139.0</ele><time>2026-04-12T13:54:33Z</time></trkpt><trkpt lat="41.400478662312054" lon="13.987464222432084"><ele>140.0</ele><time>2026-04-12T13:54:34Z</time></trkpt><trkpt lat="41.40056444411166" lon="13.987417244222408"><ele>141.0</ele><time>2026-04-12T13:54:35Z</time></trkpt><trkpt lat="41.40064397826289" lon="13.987368751921904"><ele>142.0</ele><time>2026-04-12T13:54:36Z</time></trkpt><trkpt lat="41.40074228745527" lon="13.987330702557259"><ele>143.0</ele><time>2026-04-12T13:54:37Z</time></trkpt><trkpt lat="41.400833480640756" lon="13.98728333213293"><ele>144.0</ele><time>2026-04-12T13:54:38Z</time></trkpt><trkpt lat="41.400920211580925" lon="13.987238537149958"><ele>144.0</ele><time>2026-04-12T13:54:39Z</time></trkpt><trkpt lat="41.40100085503552" lon="13.987203640471796"><ele>144.0</ele><time>2026-04-12T13:54:40Z</time></trkpt><trkpt lat="41.40107736651565" lon="13.987179801872895"><ele>144.0</ele><time>2026-04-12T13:54:41Z</time></trkpt><trkpt lat="41.401142079897944" lon="13.987151648005518"><ele>144.0</ele><time>2026-04-12T13:54:42Z</time></trkpt><trkpt lat="41.401246390070845" lon="13.987070048184297"><ele>144.0</ele><time>2026-04-12T13:54:44Z</time></trkpt><trkpt lat="41.40131678276188" lon="13.987010256956522"><ele>144.0</ele><time>2026-04-12T13:54:46Z</time></trkpt><trkpt lat="41.40137993299722" lon="13.986969994854158"><ele>143.5</ele><time>2026-04-12T13:54:48Z</time></trkpt><trkpt lat="41.401464578857635" lon="13.986896409823974"><ele>143.0</ele><time>2026-04-12T13:54:50Z</time></trkpt><trkpt lat="41.40154411995014" lon="13.986886902180654"><ele>142.5</ele><time>2026-04-12T13:54:52Z</time></trkpt><trkpt lat="41.40161111735896" lon="13.986904477732034"><ele>142.0</ele><time>2026-04-12T13:54:54Z</time></trkpt><trkpt lat="41.40167923022183" lon="13.986888528246533"><ele>141.5</ele><time>2026-04-12T13:54:55Z</time></trkpt><trkpt lat="41.40173954627351" lon="13.986835276578255"><ele>141.0</ele><time>2026-04-12T13:54:57Z</time></trkpt><trkpt lat="41.401646734814335" lon="13.986869702336582"><ele>141.0</ele><time>2026-04-12T13:57:32Z</time></trkpt><trkpt lat="41.40156563597078" lon="13.986870212381767"><ele>141.0</ele><time>2026-04-12T13:57:34Z</time></trkpt><trkpt lat="41.40147507552716" lon="13.986864596503555"><ele>141.0</ele><time>2026-04-12T13:57:36Z</time></trkpt><trkpt lat="41.401377054003014" lon="13.986980743981901"><ele>141.0</ele><time>2026-04-12T13:59:55Z</time></trkpt><trkpt lat="41.40146452403062" lon="13.98699081590453"><ele>141.0</ele><time>2026-04-12T14:12:53Z</time></trkpt><trkpt lat="41.40140210824213" lon="13.986955906910728"><ele>141.0</ele><time>2026-04-12T14:15:01Z</time></trkpt></trkseg></trk></gpx>